<?xml version='1.0' encoding='UTF-8'?><gpx version="1.1" creator="JPX - https://github.com/jenetics/jpx" xmlns="http://www.topografix.com/GPX/1/1"><trk><trkseg><trkpt lat="43.4672863" lon="11.4342752"><ele>354.0</ele><time>2026-04-26T09:53:26.942Z</time></trkpt><trkpt lat="43.4673645" lon="11.4342529"><ele>354.0</ele><time>2026-04-26T09:53:29.938Z</time></trkpt><trkpt lat="43.4673665" lon="11.4341621"><ele>354.0</ele><time>2026-04-26T09:53:33.943Z</time></trkpt><trkpt lat="43.4672704" lon="11.4342034"><ele>354.0</ele><time>2026-04-26T09:53:36.926Z</time></trkpt><trkpt lat="43.4671612" lon="11.4342332"><ele>354.0</ele><time>2026-04-26T09:53:38.917Z</time></trkpt><trkpt lat="43.467051" lon="11.4342527"><ele>353.5</ele><time>2026-04-26T09:53:40.934Z</time></trkpt><trkpt lat="43.4669272" lon="11.4342795"><ele>353.0</ele><time>2026-04-26T09:53:42.945Z</time></trkpt><trkpt lat="43.4668622" lon="11.4342956"><ele>352.5</ele><time>2026-04-26T09:53:43.947Z</time></trkpt><trkpt lat="43.4667958" lon="11.4343101"><ele>352.0</ele><time>2026-04-26T09:53:44.937Z</time></trkpt><trkpt lat="43.4667273" lon="11.4343211"><ele>351.5</ele><time>2026-04-26T09:53:45.949Z</time></trkpt><trkpt lat="43.4666607" lon="11.4343266"><ele>351.0</ele><time>2026-04-26T09:53:46.937Z</time></trkpt><trkpt lat="43.4665927" lon="11.4343268"><ele>351.0</ele><time>2026-04-26T09:53:47.944Z</time></trkpt><trkpt lat="43.4665209" lon="11.4343239"><ele>351.0</ele><time>2026-04-26T09:53:48.947Z</time></trkpt><trkpt lat="43.466448" lon="11.434322"><ele>351.0</ele><time>2026-04-26T09:53:49.928Z</time></trkpt><trkpt lat="43.466348" lon="11.4343064"><ele>351.0</ele><time>2026-04-26T09:53:51.963Z</time></trkpt><trkpt lat="43.4663774" lon="11.4343834"><ele>351.0</ele><time>2026-04-26T09:54:07.931Z</time></trkpt><trkpt lat="43.4665066" lon="11.4343774"><ele>351.0</ele><time>2026-04-26T09:54:09.935Z</time></trkpt><trkpt lat="43.4667711" lon="11.4343692"><ele>351.0</ele><time>2026-04-26T09:54:12.947Z</time></trkpt><trkpt lat="43.4668713" lon="11.4343547"><ele>351.0</ele><time>2026-04-26T09:54:13.934Z</time></trkpt><trkpt lat="43.4669761" lon="11.4343338"><ele>351.0</ele><time>2026-04-26T09:54:14.942Z</time></trkpt><trkpt lat="43.4670825" lon="11.4343064"><ele>351.0</ele><time>2026-04-26T09:54:15.936Z</time></trkpt><trkpt lat="43.4671898" lon="11.4342763"><ele>351.0</ele><time>2026-04-26T09:54:16.945Z</time></trkpt><trkpt lat="43.4672939" lon="11.4342429"><ele>351.6</ele><time>2026-04-26T09:54:17.94Z</time></trkpt><trkpt lat="43.4673913" lon="11.4342011"><ele>352.20000000000005</ele><time>2026-04-26T09:54:18.947Z</time></trkpt><trkpt lat="43.4674775" lon="11.4341445"><ele>352.79999999999995</ele><time>2026-04-26T09:54:19.941Z</time></trkpt><trkpt lat="43.4675589" lon="11.4340718"><ele>353.4</ele><time>2026-04-26T09:54:20.932Z</time></trkpt><trkpt lat="43.4676431" lon="11.4339919"><ele>354.0</ele><time>2026-04-26T09:54:21.944Z</time></trkpt><trkpt lat="43.4677273" lon="11.4339072"><ele>354.0</ele><time>2026-04-26T09:54:22.946Z</time></trkpt><trkpt lat="43.4678102" lon="11.4338196"><ele>354.0</ele><time>2026-04-26T09:54:23.924Z</time></trkpt><trkpt lat="43.4678927" lon="11.4337305"><ele>354.0</ele><time>2026-04-26T09:54:24.93Z</time></trkpt><trkpt lat="43.4679734" lon="11.4336443"><ele>354.0</ele><time>2026-04-26T09:54:25.914Z</time></trkpt><trkpt lat="43.4680538" lon="11.4335616"><ele>354.0</ele><time>2026-04-26T09:54:26.917Z</time></trkpt><trkpt lat="43.4681336" lon="11.4334868"><ele>354.6666666666667</ele><time>2026-04-26T09:54:27.907Z</time></trkpt><trkpt lat="43.4682122" lon="11.4334215"><ele>355.3333333333333</ele><time>2026-04-26T09:54:28.918Z</time></trkpt><trkpt lat="43.4682899" lon="11.4333669"><ele>356.0</ele><time>2026-04-26T09:54:29.907Z</time></trkpt><trkpt lat="43.4683712" lon="11.4333189"><ele>356.66666666666663</ele><time>2026-04-26T09:54:30.923Z</time></trkpt><trkpt lat="43.4684474" lon="11.4332816"><ele>357.3333333333333</ele><time>2026-04-26T09:54:31.896Z</time></trkpt><trkpt lat="43.4685101" lon="11.4332445"><ele>358.0</ele><time>2026-04-26T09:54:32.899Z</time></trkpt><trkpt lat="43.4685685" lon="11.4331409"><ele>358.0</ele><time>2026-04-26T09:54:34.929Z</time></trkpt><trkpt lat="43.4685629" lon="11.4330545"><ele>358.0</ele><time>2026-04-26T09:54:36.948Z</time></trkpt><trkpt lat="43.4685203" lon="11.4329395"><ele>358.0</ele><time>2026-04-26T09:54:38.954Z</time></trkpt><trkpt lat="43.4684728" lon="11.4327694"><ele>358.0</ele><time>2026-04-26T09:54:40.939Z</time></trkpt><trkpt lat="43.4684488" lon="11.4326641"><ele>358.0</ele><time>2026-04-26T09:54:41.938Z</time></trkpt><trkpt lat="43.4684153" lon="11.4325532"><ele>359.2</ele><time>2026-04-26T09:54:42.941Z</time></trkpt><trkpt lat="43.4683077" lon="11.432357"><ele>360.4</ele><time>2026-04-26T09:54:44.937Z</time></trkpt><trkpt lat="43.4682417" lon="11.432287"><ele>361.59999999999997</ele><time>2026-04-26T09:54:45.919Z</time></trkpt><trkpt lat="43.4681725" lon="11.4322467"><ele>362.79999999999995</ele><time>2026-04-26T09:54:46.916Z</time></trkpt><trkpt lat="43.4680968" lon="11.4322465"><ele>364.0</ele><time>2026-04-26T09:54:47.897Z</time></trkpt><trkpt lat="43.4680146" lon="11.4322916"><ele>363.5</ele><time>2026-04-26T09:54:48.924Z</time></trkpt><trkpt lat="43.4679219" lon="11.4323596"><ele>363.0</ele><time>2026-04-26T09:54:49.93Z</time></trkpt><trkpt lat="43.4678218" lon="11.4324293"><ele>362.5</ele><time>2026-04-26T09:54:50.883Z</time></trkpt><trkpt lat="43.4677074" lon="11.4325022"><ele>362.0</ele><time>2026-04-26T09:54:51.899Z</time></trkpt><trkpt lat="43.4675873" lon="11.4325739"><ele>362.0</ele><time>2026-04-26T09:54:52.878Z</time></trkpt><trkpt lat="43.4674563" lon="11.432651"><ele>362.0</ele><time>2026-04-26T09:54:53.897Z</time></trkpt><trkpt lat="43.4673285" lon="11.4327271"><ele>362.0</ele><time>2026-04-26T09:54:54.901Z</time></trkpt><trkpt lat="43.467203" lon="11.4328008"><ele>362.0</ele><time>2026-04-26T09:54:55.913Z</time></trkpt><trkpt lat="43.4670775" lon="11.432878"><ele>361.5</ele><time>2026-04-26T09:54:56.959Z</time></trkpt><trkpt lat="43.4669584" lon="11.4329544"><ele>361.0</ele><time>2026-04-26T09:54:57.994Z</time></trkpt><trkpt lat="43.466846" lon="11.433028"><ele>360.5</ele><time>2026-04-26T09:54:58.961Z</time></trkpt><trkpt lat="43.4667271" lon="11.4331075"><ele>360.0</ele><time>2026-04-26T09:54:59.967Z</time></trkpt><trkpt lat="43.4666089" lon="11.43319"><ele>358.0</ele><time>2026-04-26T09:55:00.946Z</time></trkpt><trkpt lat="43.4664912" lon="11.4332679"><ele>356.0</ele><time>2026-04-26T09:55:02.021Z</time></trkpt><trkpt lat="43.4663858" lon="11.4333332"><ele>354.0</ele><time>2026-04-26T09:55:02.936Z</time></trkpt><trkpt lat="43.4662753" lon="11.4333892"><ele>352.0</ele><time>2026-04-26T09:55:03.972Z</time></trkpt><trkpt lat="43.4661709" lon="11.4334167"><ele>351.0</ele><time>2026-04-26T09:55:04.936Z</time></trkpt><trkpt lat="43.4660623" lon="11.4334182"><ele>350.0</ele><time>2026-04-26T09:55:05.963Z</time></trkpt><trkpt lat="43.4659513" lon="11.4334005"><ele>349.0</ele><time>2026-04-26T09:55:06.93Z</time></trkpt><trkpt lat="43.4658309" lon="11.433373"><ele>348.0</ele><time>2026-04-26T09:55:07.96Z</time></trkpt><trkpt lat="43.4657075" lon="11.4333438"><ele>348.0</ele><time>2026-04-26T09:55:08.927Z</time></trkpt><trkpt lat="43.4655828" lon="11.4333094"><ele>348.0</ele><time>2026-04-26T09:55:09.972Z</time></trkpt><trkpt lat="43.4654747" lon="11.4332603"><ele>348.0</ele><time>2026-04-26T09:55:10.933Z</time></trkpt><trkpt lat="43.4653739" lon="11.4331915"><ele>348.0</ele><time>2026-04-26T09:55:11.954Z</time></trkpt><trkpt lat="43.4652793" lon="11.4331247"><ele>348.0</ele><time>2026-04-26T09:55:12.932Z</time></trkpt><trkpt lat="43.4651834" lon="11.433078"><ele>348.0</ele><time>2026-04-26T09:55:13.953Z</time></trkpt><trkpt lat="43.4650937" lon="11.4330636"><ele>348.0</ele><time>2026-04-26T09:55:14.917Z</time></trkpt><trkpt lat="43.465015" lon="11.4330738"><ele>348.0</ele><time>2026-04-26T09:55:15.929Z</time></trkpt><trkpt lat="43.4648885" lon="11.4331104"><ele>348.0</ele><time>2026-04-26T09:55:17.931Z</time></trkpt><trkpt lat="43.4648253" lon="11.4330894"><ele>348.0</ele><time>2026-04-26T09:55:18.98Z</time></trkpt><trkpt lat="43.4647496" lon="11.4330531"><ele>348.0</ele><time>2026-04-26T09:55:19.966Z</time></trkpt><trkpt lat="43.464667" lon="11.4330105"><ele>348.0</ele><time>2026-04-26T09:55:20.949Z</time></trkpt><trkpt lat="43.4645877" lon="11.4329625"><ele>348.0</ele><time>2026-04-26T09:55:21.974Z</time></trkpt><trkpt lat="43.4645174" lon="11.4329086"><ele>348.0</ele><time>2026-04-26T09:55:22.939Z</time></trkpt><trkpt lat="43.464446" lon="11.4328439"><ele>348.0</ele><time>2026-04-26T09:55:23.967Z</time></trkpt><trkpt lat="43.4643745" lon="11.4327655"><ele>348.25</ele><time>2026-04-26T09:55:24.951Z</time></trkpt><trkpt lat="43.464297" lon="11.4326661"><ele>348.5</ele><time>2026-04-26T09:55:25.977Z</time></trkpt><trkpt lat="43.4642201" lon="11.4325478"><ele>348.75</ele><time>2026-04-26T09:55:26.942Z</time></trkpt><trkpt lat="43.4641475" lon="11.4324075"><ele>349.0</ele><time>2026-04-26T09:55:28.011Z</time></trkpt><trkpt lat="43.464087" lon="11.432266"><ele>350.5</ele><time>2026-04-26T09:55:28.937Z</time></trkpt><trkpt lat="43.4640275" lon="11.4321135"><ele>352.0</ele><time>2026-04-26T09:55:29.959Z</time></trkpt><trkpt lat="43.4639698" lon="11.4319573"><ele>353.5</ele><time>2026-04-26T09:55:30.93Z</time></trkpt><trkpt lat="43.4639092" lon="11.4317862"><ele>355.0</ele><time>2026-04-26T09:55:31.973Z</time></trkpt><trkpt lat="43.463849" lon="11.4316141"><ele>353.0</ele><time>2026-04-26T09:55:32.926Z</time></trkpt><trkpt lat="43.4637801" lon="11.4314346"><ele>351.0</ele><time>2026-04-26T09:55:33.965Z</time></trkpt><trkpt lat="43.4637093" lon="11.4312577"><ele>349.0</ele><time>2026-04-26T09:55:34.932Z</time></trkpt><trkpt lat="43.463634" lon="11.4310787"><ele>347.0</ele><time>2026-04-26T09:55:35.97Z</time></trkpt><trkpt lat="43.4635572" lon="11.4309222"><ele>347.0</ele><time>2026-04-26T09:55:36.929Z</time></trkpt><trkpt lat="43.4634701" lon="11.4307715"><ele>347.0</ele><time>2026-04-26T09:55:37.985Z</time></trkpt><trkpt lat="43.463378" lon="11.4306292"><ele>347.0</ele><time>2026-04-26T09:55:38.923Z</time></trkpt><trkpt lat="43.4632773" lon="11.4304753"><ele>347.0</ele><time>2026-04-26T09:55:39.929Z</time></trkpt><trkpt lat="43.4631778" lon="11.4303128"><ele>346.6666666666667</ele><time>2026-04-26T09:55:40.91Z</time></trkpt><trkpt lat="43.4630801" lon="11.4301389"><ele>346.3333333333333</ele><time>2026-04-26T09:55:41.922Z</time></trkpt><trkpt lat="43.462982" lon="11.4299623"><ele>346.0</ele><time>2026-04-26T09:55:42.933Z</time></trkpt><trkpt lat="43.4628756" lon="11.4297961"><ele>346.0</ele><time>2026-04-26T09:55:43.95Z</time></trkpt><trkpt lat="43.4627687" lon="11.429641"><ele>346.0</ele><time>2026-04-26T09:55:44.934Z</time></trkpt><trkpt lat="43.4626535" lon="11.4294921"><ele>346.0</ele><time>2026-04-26T09:55:45.936Z</time></trkpt><trkpt lat="43.4625385" lon="11.4293411"><ele>346.0</ele><time>2026-04-26T09:55:46.94Z</time></trkpt><trkpt lat="43.4624219" lon="11.4291974"><ele>346.0</ele><time>2026-04-26T09:55:47.947Z</time></trkpt><trkpt lat="43.462305" lon="11.4290551"><ele>346.0</ele><time>2026-04-26T09:55:48.952Z</time></trkpt><trkpt lat="43.4621883" lon="11.4289081"><ele>344.66666666666663</ele><time>2026-04-26T09:55:49.951Z</time></trkpt><trkpt lat="43.4620701" lon="11.4287589"><ele>343.3333333333333</ele><time>2026-04-26T09:55:50.934Z</time></trkpt><trkpt lat="43.4619475" lon="11.4286071"><ele>342.0</ele><time>2026-04-26T09:55:51.956Z</time></trkpt><trkpt lat="43.4618232" lon="11.4284607"><ele>342.0</ele><time>2026-04-26T09:55:52.937Z</time></trkpt><trkpt lat="43.4616928" lon="11.4283169"><ele>342.0</ele><time>2026-04-26T09:55:53.932Z</time></trkpt><trkpt lat="43.4615623" lon="11.4281754"><ele>342.0</ele><time>2026-04-26T09:55:54.942Z</time></trkpt><trkpt lat="43.4614377" lon="11.4280425"><ele>341.3333333333333</ele><time>2026-04-26T09:55:55.928Z</time></trkpt><trkpt lat="43.4613173" lon="11.4279172"><ele>340.66666666666663</ele><time>2026-04-26T09:55:56.933Z</time></trkpt><trkpt lat="43.4611983" lon="11.4277927"><ele>340.0</ele><time>2026-04-26T09:55:57.931Z</time></trkpt><trkpt lat="43.4610745" lon="11.4276617"><ele>340.0</ele><time>2026-04-26T09:55:58.945Z</time></trkpt><trkpt lat="43.4609512" lon="11.4275271"><ele>340.0</ele><time>2026-04-26T09:55:59.947Z</time></trkpt><trkpt lat="43.4608325" lon="11.4273981"><ele>340.0</ele><time>2026-04-26T09:56:00.937Z</time></trkpt><trkpt lat="43.4607144" lon="11.4272768"><ele>340.0</ele><time>2026-04-26T09:56:01.933Z</time></trkpt><trkpt lat="43.4605808" lon="11.4271734"><ele>340.0</ele><time>2026-04-26T09:56:02.926Z</time></trkpt><trkpt lat="43.4604161" lon="11.4270949"><ele>340.0</ele><time>2026-04-26T09:56:03.927Z</time></trkpt><trkpt lat="43.4602199" lon="11.4270245"><ele>341.5</ele><time>2026-04-26T09:56:04.918Z</time></trkpt><trkpt lat="43.4600056" lon="11.4269367"><ele>343.0</ele><time>2026-04-26T09:56:05.923Z</time></trkpt><trkpt lat="43.4597832" lon="11.4268295"><ele>341.0</ele><time>2026-04-26T09:56:06.929Z</time></trkpt><trkpt lat="43.4595544" lon="11.4267168"><ele>339.0</ele><time>2026-04-26T09:56:07.917Z</time></trkpt><trkpt lat="43.459321" lon="11.4266051"><ele>339.0</ele><time>2026-04-26T09:56:08.936Z</time></trkpt><trkpt lat="43.4590922" lon="11.4264995"><ele>339.0</ele><time>2026-04-26T09:56:09.944Z</time></trkpt><trkpt lat="43.4588659" lon="11.4263983"><ele>337.5</ele><time>2026-04-26T09:56:10.937Z</time></trkpt><trkpt lat="43.4586404" lon="11.4262976"><ele>336.0</ele><time>2026-04-26T09:56:11.943Z</time></trkpt><trkpt lat="43.4584176" lon="11.4261975"><ele>336.0</ele><time>2026-04-26T09:56:12.95Z</time></trkpt><trkpt lat="43.4582" lon="11.4260991"><ele>336.0</ele><time>2026-04-26T09:56:13.939Z</time></trkpt><trkpt lat="43.4579839" lon="11.4260008"><ele>336.0</ele><time>2026-04-26T09:56:14.945Z</time></trkpt><trkpt lat="43.4577717" lon="11.4259042"><ele>336.0</ele><time>2026-04-26T09:56:15.945Z</time></trkpt><trkpt lat="43.4575629" lon="11.4258121"><ele>336.0</ele><time>2026-04-26T09:56:16.959Z</time></trkpt><trkpt lat="43.4573585" lon="11.4257256"><ele>336.0</ele><time>2026-04-26T09:56:17.937Z</time></trkpt><trkpt lat="43.4571557" lon="11.4256459"><ele>336.0</ele><time>2026-04-26T09:56:18.942Z</time></trkpt><trkpt lat="43.4569628" lon="11.4255824"><ele>336.0</ele><time>2026-04-26T09:56:19.931Z</time></trkpt><trkpt lat="43.4567771" lon="11.4255365"><ele>336.3333333333333</ele><time>2026-04-26T09:56:20.942Z</time></trkpt><trkpt lat="43.4566033" lon="11.4255078"><ele>336.66666666666663</ele><time>2026-04-26T09:56:21.923Z</time></trkpt><trkpt lat="43.4564353" lon="11.4254848"><ele>337.0</ele><time>2026-04-26T09:56:22.945Z</time></trkpt><trkpt lat="43.4562814" lon="11.4254494"><ele>337.0</ele><time>2026-04-26T09:56:23.928Z</time></trkpt><trkpt lat="43.4561412" lon="11.4253718"><ele>337.0</ele><time>2026-04-26T09:56:24.94Z</time></trkpt><trkpt lat="43.4560089" lon="11.425256"><ele>337.0</ele><time>2026-04-26T09:56:25.928Z</time></trkpt><trkpt lat="43.4558709" lon="11.4251174"><ele>337.0</ele><time>2026-04-26T09:56:26.937Z</time></trkpt><trkpt lat="43.4557267" lon="11.4249676"><ele>337.0</ele><time>2026-04-26T09:56:27.922Z</time></trkpt><trkpt lat="43.4555759" lon="11.4248086"><ele>337.0</ele><time>2026-04-26T09:56:28.929Z</time></trkpt><trkpt lat="43.455425" lon="11.4246476"><ele>335.66666666666663</ele><time>2026-04-26T09:56:29.927Z</time></trkpt><trkpt lat="43.4552729" lon="11.424488"><ele>334.3333333333333</ele><time>2026-04-26T09:56:30.933Z</time></trkpt><trkpt lat="43.4551263" lon="11.424335"><ele>333.0</ele><time>2026-04-26T09:56:31.925Z</time></trkpt><trkpt lat="43.4549864" lon="11.424191"><ele>333.0</ele><time>2026-04-26T09:56:32.942Z</time></trkpt><trkpt lat="43.4548556" lon="11.4240541"><ele>333.0</ele><time>2026-04-26T09:56:33.946Z</time></trkpt><trkpt lat="43.4547275" lon="11.4239215"><ele>333.0</ele><time>2026-04-26T09:56:34.955Z</time></trkpt><trkpt lat="43.4546002" lon="11.4237913"><ele>332.3333333333333</ele><time>2026-04-26T09:56:35.939Z</time></trkpt><trkpt lat="43.4544733" lon="11.4236556"><ele>331.66666666666663</ele><time>2026-04-26T09:56:36.939Z</time></trkpt><trkpt lat="43.4543473" lon="11.4235075"><ele>331.0</ele><time>2026-04-26T09:56:37.94Z</time></trkpt><trkpt lat="43.4542213" lon="11.4233369"><ele>331.0</ele><time>2026-04-26T09:56:38.933Z</time></trkpt><trkpt lat="43.4540918" lon="11.4231435"><ele>331.0</ele><time>2026-04-26T09:56:39.939Z</time></trkpt><trkpt lat="43.4539613" lon="11.4229336"><ele>331.0</ele><time>2026-04-26T09:56:40.94Z</time></trkpt><trkpt lat="43.4538297" lon="11.4227193"><ele>331.3333333333333</ele><time>2026-04-26T09:56:41.932Z</time></trkpt><trkpt lat="43.4536955" lon="11.4225084"><ele>331.6666666666667</ele><time>2026-04-26T09:56:42.944Z</time></trkpt><trkpt lat="43.4535614" lon="11.4223061"><ele>332.0</ele><time>2026-04-26T09:56:43.937Z</time></trkpt><trkpt lat="43.4534289" lon="11.4221056"><ele>332.0</ele><time>2026-04-26T09:56:44.937Z</time></trkpt><trkpt lat="43.4533026" lon="11.4219082"><ele>332.0</ele><time>2026-04-26T09:56:45.928Z</time></trkpt><trkpt lat="43.453181" lon="11.4217207"><ele>332.0</ele><time>2026-04-26T09:56:46.941Z</time></trkpt><trkpt lat="43.4530619" lon="11.4215581"><ele>333.0</ele><time>2026-04-26T09:56:47.927Z</time></trkpt><trkpt lat="43.4529313" lon="11.4214326"><ele>334.0</ele><time>2026-04-26T09:56:48.933Z</time></trkpt><trkpt lat="43.4527908" lon="11.4213315"><ele>335.0</ele><time>2026-04-26T09:56:49.939Z</time></trkpt><trkpt lat="43.4526507" lon="11.4212192"><ele>335.0</ele><time>2026-04-26T09:56:50.927Z</time></trkpt><trkpt lat="43.452514" lon="11.4210803"><ele>335.0</ele><time>2026-04-26T09:56:51.949Z</time></trkpt><trkpt lat="43.4523852" lon="11.4209172"><ele>335.0</ele><time>2026-04-26T09:56:52.922Z</time></trkpt><trkpt lat="43.452257" lon="11.4207368"><ele>335.0</ele><time>2026-04-26T09:56:53.918Z</time></trkpt><trkpt lat="43.4521331" lon="11.4205514"><ele>335.0</ele><time>2026-04-26T09:56:54.92Z</time></trkpt><trkpt lat="43.4520148" lon="11.4203621"><ele>335.0</ele><time>2026-04-26T09:56:55.915Z</time></trkpt><trkpt lat="43.4519002" lon="11.4201727"><ele>333.6666666666667</ele><time>2026-04-26T09:56:56.923Z</time></trkpt><trkpt lat="43.4517919" lon="11.4199976"><ele>332.3333333333333</ele><time>2026-04-26T09:56:57.941Z</time></trkpt><trkpt lat="43.4516931" lon="11.4198366"><ele>331.0</ele><time>2026-04-26T09:56:58.923Z</time></trkpt><trkpt lat="43.4515914" lon="11.4196839"><ele>331.75</ele><time>2026-04-26T09:56:59.934Z</time></trkpt><trkpt lat="43.4514785" lon="11.4195465"><ele>332.5</ele><time>2026-04-26T09:57:00.953Z</time></trkpt><trkpt lat="43.4513581" lon="11.4194263"><ele>333.25</ele><time>2026-04-26T09:57:01.941Z</time></trkpt><trkpt lat="43.4512325" lon="11.4193162"><ele>334.0</ele><time>2026-04-26T09:57:02.943Z</time></trkpt><trkpt lat="43.451108" lon="11.4192213"><ele>332.0</ele><time>2026-04-26T09:57:03.929Z</time></trkpt><trkpt lat="43.4509801" lon="11.4191484"><ele>330.0</ele><time>2026-04-26T09:57:04.932Z</time></trkpt><trkpt lat="43.4508441" lon="11.4190991"><ele>328.0</ele><time>2026-04-26T09:57:05.942Z</time></trkpt><trkpt lat="43.4506917" lon="11.4190634"><ele>326.0</ele><time>2026-04-26T09:57:06.955Z</time></trkpt><trkpt lat="43.4505317" lon="11.419031"><ele>325.33333333333337</ele><time>2026-04-26T09:57:07.93Z</time></trkpt><trkpt lat="43.4503642" lon="11.4190015"><ele>324.6666666666667</ele><time>2026-04-26T09:57:08.948Z</time></trkpt><trkpt lat="43.4502042" lon="11.4189702"><ele>324.0</ele><time>2026-04-26T09:57:09.939Z</time></trkpt><trkpt lat="43.4500443" lon="11.4189253"><ele>324.0</ele><time>2026-04-26T09:57:10.939Z</time></trkpt><trkpt lat="43.4498793" lon="11.4188555"><ele>324.0</ele><time>2026-04-26T09:57:11.928Z</time></trkpt><trkpt lat="43.4497084" lon="11.4187727"><ele>324.0</ele><time>2026-04-26T09:57:12.931Z</time></trkpt><trkpt lat="43.4495308" lon="11.4186913"><ele>326.3333333333333</ele><time>2026-04-26T09:57:13.937Z</time></trkpt><trkpt lat="43.4493509" lon="11.4186229"><ele>328.66666666666663</ele><time>2026-04-26T09:57:14.941Z</time></trkpt><trkpt lat="43.4491727" lon="11.4185767"><ele>331.0</ele><time>2026-04-26T09:57:15.921Z</time></trkpt><trkpt lat="43.4489945" lon="11.4185471"><ele>331.0</ele><time>2026-04-26T09:57:16.921Z</time></trkpt><trkpt lat="43.4488236" lon="11.4185334"><ele>331.0</ele><time>2026-04-26T09:57:17.928Z</time></trkpt><trkpt lat="43.4486664" lon="11.4185221"><ele>331.0</ele><time>2026-04-26T09:57:18.915Z</time></trkpt><trkpt lat="43.4485182" lon="11.4185007"><ele>331.0</ele><time>2026-04-26T09:57:19.916Z</time></trkpt><trkpt lat="43.4483758" lon="11.4184532"><ele>331.0</ele><time>2026-04-26T09:57:20.93Z</time></trkpt><trkpt lat="43.4482394" lon="11.4183719"><ele>331.0</ele><time>2026-04-26T09:57:21.924Z</time></trkpt><trkpt lat="43.4481065" lon="11.4182666"><ele>331.0</ele><time>2026-04-26T09:57:22.927Z</time></trkpt><trkpt lat="43.4479801" lon="11.418148"><ele>329.5</ele><time>2026-04-26T09:57:23.934Z</time></trkpt><trkpt lat="43.4478593" lon="11.4180276"><ele>328.0</ele><time>2026-04-26T09:57:24.949Z</time></trkpt><trkpt lat="43.4477402" lon="11.4179128"><ele>326.5</ele><time>2026-04-26T09:57:25.931Z</time></trkpt><trkpt lat="43.4476058" lon="11.4178164"><ele>325.0</ele><time>2026-04-26T09:57:26.94Z</time></trkpt><trkpt lat="43.4474538" lon="11.4177502"><ele>329.3333333333333</ele><time>2026-04-26T09:57:27.926Z</time></trkpt><trkpt lat="43.447288" lon="11.4177063"><ele>333.6666666666667</ele><time>2026-04-26T09:57:28.93Z</time></trkpt><trkpt lat="43.4471265" lon="11.4176706"><ele>338.0</ele><time>2026-04-26T09:57:29.94Z</time></trkpt><trkpt lat="43.4469769" lon="11.4176365"><ele>338.5</ele><time>2026-04-26T09:57:30.94Z</time></trkpt><trkpt lat="43.446831" lon="11.4176008"><ele>339.0</ele><time>2026-04-26T09:57:31.936Z</time></trkpt><trkpt lat="43.4466872" lon="11.4175665"><ele>339.5</ele><time>2026-04-26T09:57:32.951Z</time></trkpt><trkpt lat="43.4465569" lon="11.4175365"><ele>340.0</ele><time>2026-04-26T09:57:33.939Z</time></trkpt><trkpt lat="43.4464339" lon="11.4175059"><ele>340.0</ele><time>2026-04-26T09:57:34.934Z</time></trkpt><trkpt lat="43.446314" lon="11.4174778"><ele>340.0</ele><time>2026-04-26T09:57:35.938Z</time></trkpt><trkpt lat="43.4461967" lon="11.4174711"><ele>340.0</ele><time>2026-04-26T09:57:36.928Z</time></trkpt><trkpt lat="43.4460767" lon="11.4175143"><ele>340.0</ele><time>2026-04-26T09:57:37.931Z</time></trkpt><trkpt lat="43.4459663" lon="11.4176094"><ele>340.5</ele><time>2026-04-26T09:57:38.938Z</time></trkpt><trkpt lat="43.445875" lon="11.4177449"><ele>341.0</ele><time>2026-04-26T09:57:39.925Z</time></trkpt><trkpt lat="43.4458042" lon="11.417907"><ele>341.5</ele><time>2026-04-26T09:57:40.928Z</time></trkpt><trkpt lat="43.4457469" lon="11.4180873"><ele>342.0</ele><time>2026-04-26T09:57:41.923Z</time></trkpt><trkpt lat="43.4456981" lon="11.4182818"><ele>342.0</ele><time>2026-04-26T09:57:42.928Z</time></trkpt><trkpt lat="43.4456603" lon="11.4184794"><ele>342.0</ele><time>2026-04-26T09:57:43.922Z</time></trkpt><trkpt lat="43.4456344" lon="11.4186698"><ele>342.0</ele><time>2026-04-26T09:57:44.929Z</time></trkpt><trkpt lat="43.4456227" lon="11.4188506"><ele>342.0</ele><time>2026-04-26T09:57:45.938Z</time></trkpt><trkpt lat="43.4456236" lon="11.419021"><ele>340.0</ele><time>2026-04-26T09:57:46.942Z</time></trkpt><trkpt lat="43.445629" lon="11.4191822"><ele>338.0</ele><time>2026-04-26T09:57:47.933Z</time></trkpt><trkpt lat="43.4456267" lon="11.4193443"><ele>336.0</ele><time>2026-04-26T09:57:48.94Z</time></trkpt><trkpt lat="43.4456009" lon="11.4195025"><ele>334.0</ele><time>2026-04-26T09:57:49.941Z</time></trkpt><trkpt lat="43.4455416" lon="11.4196367"><ele>335.25</ele><time>2026-04-26T09:57:50.954Z</time></trkpt><trkpt lat="43.4454479" lon="11.4197363"><ele>336.5</ele><time>2026-04-26T09:57:51.96Z</time></trkpt><trkpt lat="43.4453282" lon="11.4198117"><ele>337.75</ele><time>2026-04-26T09:57:52.938Z</time></trkpt><trkpt lat="43.4451931" lon="11.4198808"><ele>339.0</ele><time>2026-04-26T09:57:53.946Z</time></trkpt><trkpt lat="43.445062" lon="11.4199511"><ele>339.0</ele><time>2026-04-26T09:57:54.939Z</time></trkpt><trkpt lat="43.4449373" lon="11.4200225"><ele>339.0</ele><time>2026-04-26T09:57:55.957Z</time></trkpt><trkpt lat="43.4448148" lon="11.4200944"><ele>339.0</ele><time>2026-04-26T09:57:56.933Z</time></trkpt><trkpt lat="43.4446885" lon="11.4201816"><ele>339.0</ele><time>2026-04-26T09:57:57.94Z</time></trkpt><trkpt lat="43.4445684" lon="11.4202972"><ele>338.5</ele><time>2026-04-26T09:57:58.934Z</time></trkpt><trkpt lat="43.4444601" lon="11.4204432"><ele>338.0</ele><time>2026-04-26T09:57:59.942Z</time></trkpt><trkpt lat="43.4443662" lon="11.4205992"><ele>337.5</ele><time>2026-04-26T09:58:00.947Z</time></trkpt><trkpt lat="43.4442717" lon="11.4207474"><ele>337.0</ele><time>2026-04-26T09:58:01.944Z</time></trkpt><trkpt lat="43.4441594" lon="11.4208818"><ele>337.0</ele><time>2026-04-26T09:58:02.945Z</time></trkpt><trkpt lat="43.4440274" lon="11.4209926"><ele>337.0</ele><time>2026-04-26T09:58:03.946Z</time></trkpt><trkpt lat="43.4438911" lon="11.4210812"><ele>337.0</ele><time>2026-04-26T09:58:04.926Z</time></trkpt><trkpt lat="43.4437616" lon="11.4211629"><ele>337.0</ele><time>2026-04-26T09:58:05.929Z</time></trkpt><trkpt lat="43.4436425" lon="11.4212467"><ele>334.75</ele><time>2026-04-26T09:58:06.931Z</time></trkpt><trkpt lat="43.4435287" lon="11.4213311"><ele>332.5</ele><time>2026-04-26T09:58:07.921Z</time></trkpt><trkpt lat="43.4434081" lon="11.4214159"><ele>330.25</ele><time>2026-04-26T09:58:08.95Z</time></trkpt><trkpt lat="43.4432779" lon="11.4214891"><ele>328.0</ele><time>2026-04-26T09:58:09.937Z</time></trkpt><trkpt lat="43.4431327" lon="11.4215428"><ele>328.0</ele><time>2026-04-26T09:58:10.948Z</time></trkpt><trkpt lat="43.4429776" lon="11.4215687"><ele>328.0</ele><time>2026-04-26T09:58:11.941Z</time></trkpt><trkpt lat="43.4428107" lon="11.4215745"><ele>328.0</ele><time>2026-04-26T09:58:12.955Z</time></trkpt><trkpt lat="43.44263" lon="11.4215746"><ele>328.0</ele><time>2026-04-26T09:58:13.948Z</time></trkpt><trkpt lat="43.4424318" lon="11.4215632"><ele>328.0</ele><time>2026-04-26T09:58:14.946Z</time></trkpt><trkpt lat="43.4422118" lon="11.4215344"><ele>328.0</ele><time>2026-04-26T09:58:15.946Z</time></trkpt><trkpt lat="43.4419617" lon="11.4214969"><ele>325.5</ele><time>2026-04-26T09:58:16.953Z</time></trkpt><trkpt lat="43.4416964" lon="11.4214526"><ele>323.0</ele><time>2026-04-26T09:58:17.933Z</time></trkpt><trkpt lat="43.441435" lon="11.4213971"><ele>320.5</ele><time>2026-04-26T09:58:18.946Z</time></trkpt><trkpt lat="43.4412026" lon="11.4213241"><ele>318.0</ele><time>2026-04-26T09:58:19.935Z</time></trkpt><trkpt lat="43.4409953" lon="11.421218"><ele>317.6666666666667</ele><time>2026-04-26T09:58:20.949Z</time></trkpt><trkpt lat="43.440806" lon="11.4210781"><ele>317.33333333333337</ele><time>2026-04-26T09:58:21.939Z</time></trkpt><trkpt lat="43.4406173" lon="11.4209163"><ele>317.0</ele><time>2026-04-26T09:58:22.95Z</time></trkpt><trkpt lat="43.4404286" lon="11.420749"><ele>317.0</ele><time>2026-04-26T09:58:23.943Z</time></trkpt><trkpt lat="43.4402379" lon="11.4205801"><ele>317.0</ele><time>2026-04-26T09:58:24.952Z</time></trkpt><trkpt lat="43.4400479" lon="11.4204135"><ele>317.33333333333337</ele><time>2026-04-26T09:58:25.945Z</time></trkpt><trkpt lat="43.4398575" lon="11.4202506"><ele>317.6666666666667</ele><time>2026-04-26T09:58:26.949Z</time></trkpt><trkpt lat="43.4396733" lon="11.420099"><ele>318.0</ele><time>2026-04-26T09:58:27.937Z</time></trkpt><trkpt lat="43.4394974" lon="11.4199602"><ele>318.0</ele><time>2026-04-26T09:58:28.94Z</time></trkpt><trkpt lat="43.4393267" lon="11.4198395"><ele>318.0</ele><time>2026-04-26T09:58:29.926Z</time></trkpt><trkpt lat="43.4391484" lon="11.4197424"><ele>318.0</ele><time>2026-04-26T09:58:30.929Z</time></trkpt><trkpt lat="43.4389592" lon="11.4196761"><ele>321.3333333333333</ele><time>2026-04-26T09:58:31.927Z</time></trkpt><trkpt lat="43.438762" lon="11.4196344"><ele>324.66666666666663</ele><time>2026-04-26T09:58:32.936Z</time></trkpt><trkpt lat="43.4385605" lon="11.4196083"><ele>328.0</ele><time>2026-04-26T09:58:33.941Z</time></trkpt><trkpt lat="43.4383567" lon="11.4195891"><ele>328.0</ele><time>2026-04-26T09:58:34.94Z</time></trkpt><trkpt lat="43.4381489" lon="11.4195711"><ele>328.0</ele><time>2026-04-26T09:58:35.941Z</time></trkpt><trkpt lat="43.4379372" lon="11.4195404"><ele>328.0</ele><time>2026-04-26T09:58:36.951Z</time></trkpt><trkpt lat="43.4377245" lon="11.4194956"><ele>326.3333333333333</ele><time>2026-04-26T09:58:37.943Z</time></trkpt><trkpt lat="43.4375095" lon="11.4194506"><ele>324.6666666666667</ele><time>2026-04-26T09:58:38.941Z</time></trkpt><trkpt lat="43.4372878" lon="11.4194075"><ele>323.0</ele><time>2026-04-26T09:58:39.946Z</time></trkpt><trkpt lat="43.4370604" lon="11.4193668"><ele>322.0</ele><time>2026-04-26T09:58:40.942Z</time></trkpt><trkpt lat="43.4368329" lon="11.4193238"><ele>321.0</ele><time>2026-04-26T09:58:41.954Z</time></trkpt><trkpt lat="43.4366174" lon="11.4192862"><ele>320.0</ele><time>2026-04-26T09:58:42.936Z</time></trkpt><trkpt lat="43.4364118" lon="11.4192495"><ele>318.6666666666667</ele><time>2026-04-26T09:58:43.936Z</time></trkpt><trkpt lat="43.4362128" lon="11.4192109"><ele>317.3333333333333</ele><time>2026-04-26T09:58:44.938Z</time></trkpt><trkpt lat="43.436012" lon="11.4191716"><ele>316.0</ele><time>2026-04-26T09:58:45.941Z</time></trkpt><trkpt lat="43.435814" lon="11.4191365"><ele>316.0</ele><time>2026-04-26T09:58:46.941Z</time></trkpt><trkpt lat="43.4356296" lon="11.4191035"><ele>316.0</ele><time>2026-04-26T09:58:47.929Z</time></trkpt><trkpt lat="43.4354586" lon="11.4190826"><ele>316.0</ele><time>2026-04-26T09:58:48.936Z</time></trkpt><trkpt lat="43.4352974" lon="11.4190978"><ele>317.0</ele><time>2026-04-26T09:58:49.925Z</time></trkpt><trkpt lat="43.4351365" lon="11.4191619"><ele>318.0</ele><time>2026-04-26T09:58:50.934Z</time></trkpt><trkpt lat="43.434973" lon="11.4192689"><ele>319.0</ele><time>2026-04-26T09:58:51.946Z</time></trkpt><trkpt lat="43.4348082" lon="11.4194075"><ele>319.0</ele><time>2026-04-26T09:58:52.919Z</time></trkpt><trkpt lat="43.4346383" lon="11.4195704"><ele>319.0</ele><time>2026-04-26T09:58:53.935Z</time></trkpt><trkpt lat="43.4344697" lon="11.4197511"><ele>319.0</ele><time>2026-04-26T09:58:54.914Z</time></trkpt><trkpt lat="43.4343" lon="11.4199499"><ele>318.0</ele><time>2026-04-26T09:58:55.921Z</time></trkpt><trkpt lat="43.4341356" lon="11.4201452"><ele>317.0</ele><time>2026-04-26T09:58:56.914Z</time></trkpt><trkpt lat="43.4339793" lon="11.4203317"><ele>316.0</ele><time>2026-04-26T09:58:57.936Z</time></trkpt><trkpt lat="43.4338376" lon="11.4205044"><ele>312.75</ele><time>2026-04-26T09:58:58.915Z</time></trkpt><trkpt lat="43.4337133" lon="11.4206586"><ele>309.5</ele><time>2026-04-26T09:58:59.921Z</time></trkpt><trkpt lat="43.4336076" lon="11.4207782"><ele>306.25</ele><time>2026-04-26T09:59:00.941Z</time></trkpt><trkpt lat="43.4335019" lon="11.4208456"><ele>303.0</ele><time>2026-04-26T09:59:01.929Z</time></trkpt><trkpt lat="43.4333857" lon="11.4208491"><ele>303.0</ele><time>2026-04-26T09:59:02.935Z</time></trkpt><trkpt lat="43.4332714" lon="11.4207811"><ele>303.0</ele><time>2026-04-26T09:59:03.935Z</time></trkpt><trkpt lat="43.4331739" lon="11.420635"><ele>303.0</ele><time>2026-04-26T09:59:04.95Z</time></trkpt><trkpt lat="43.4330887" lon="11.4204641"><ele>303.0</ele><time>2026-04-26T09:59:05.927Z</time></trkpt><trkpt lat="43.4330052" lon="11.4202645"><ele>303.3333333333333</ele><time>2026-04-26T09:59:06.943Z</time></trkpt><trkpt lat="43.4329184" lon="11.4200448"><ele>303.66666666666663</ele><time>2026-04-26T09:59:07.935Z</time></trkpt><trkpt lat="43.4328194" lon="11.4198153"><ele>304.0</ele><time>2026-04-26T09:59:08.942Z</time></trkpt><trkpt lat="43.4327111" lon="11.419597"><ele>304.0</ele><time>2026-04-26T09:59:09.926Z</time></trkpt><trkpt lat="43.4325867" lon="11.4193911"><ele>304.0</ele><time>2026-04-26T09:59:10.944Z</time></trkpt><trkpt lat="43.4324515" lon="11.4191946"><ele>304.0</ele><time>2026-04-26T09:59:11.928Z</time></trkpt><trkpt lat="43.4323094" lon="11.4189885"><ele>302.3333333333333</ele><time>2026-04-26T09:59:12.936Z</time></trkpt><trkpt lat="43.4321648" lon="11.4187767"><ele>300.6666666666667</ele><time>2026-04-26T09:59:13.935Z</time></trkpt><trkpt lat="43.4320189" lon="11.4185628"><ele>299.0</ele><time>2026-04-26T09:59:14.926Z</time></trkpt><trkpt lat="43.4318742" lon="11.4183487"><ele>299.0</ele><time>2026-04-26T09:59:15.942Z</time></trkpt><trkpt lat="43.4317365" lon="11.4181437"><ele>299.0</ele><time>2026-04-26T09:59:16.931Z</time></trkpt><trkpt lat="43.4316075" lon="11.4179496"><ele>299.0</ele><time>2026-04-26T09:59:17.929Z</time></trkpt><trkpt lat="43.4314834" lon="11.4177644"><ele>299.6666666666667</ele><time>2026-04-26T09:59:18.94Z</time></trkpt><trkpt lat="43.4313602" lon="11.4175835"><ele>300.3333333333333</ele><time>2026-04-26T09:59:19.921Z</time></trkpt><trkpt lat="43.4312412" lon="11.4174058"><ele>301.0</ele><time>2026-04-26T09:59:20.919Z</time></trkpt><trkpt lat="43.4311277" lon="11.4172452"><ele>305.66666666666663</ele><time>2026-04-26T09:59:21.92Z</time></trkpt><trkpt lat="43.4310069" lon="11.4171054"><ele>310.3333333333333</ele><time>2026-04-26T09:59:22.912Z</time></trkpt><trkpt lat="43.4308678" lon="11.4169941"><ele>315.0</ele><time>2026-04-26T09:59:23.923Z</time></trkpt><trkpt lat="43.4307103" lon="11.4169156"><ele>315.0</ele><time>2026-04-26T09:59:24.93Z</time></trkpt><trkpt lat="43.4305345" lon="11.416858"><ele>315.0</ele><time>2026-04-26T09:59:25.934Z</time></trkpt><trkpt lat="43.4303516" lon="11.4168197"><ele>315.0</ele><time>2026-04-26T09:59:26.919Z</time></trkpt><trkpt lat="43.4301775" lon="11.4168012"><ele>313.75</ele><time>2026-04-26T09:59:27.932Z</time></trkpt><trkpt lat="43.4300203" lon="11.4167825"><ele>312.5</ele><time>2026-04-26T09:59:28.941Z</time></trkpt><trkpt lat="43.4298812" lon="11.4167295"><ele>311.25</ele><time>2026-04-26T09:59:29.928Z</time></trkpt><trkpt lat="43.4297593" lon="11.4166205"><ele>310.0</ele><time>2026-04-26T09:59:30.94Z</time></trkpt><trkpt lat="43.4296559" lon="11.4164645"><ele>307.0</ele><time>2026-04-26T09:59:31.949Z</time></trkpt><trkpt lat="43.4295717" lon="11.4162785"><ele>304.0</ele><time>2026-04-26T09:59:32.949Z</time></trkpt><trkpt lat="43.4295256" lon="11.4160872"><ele>301.0</ele><time>2026-04-26T09:59:33.94Z</time></trkpt><trkpt lat="43.4295287" lon="11.4159011"><ele>298.0</ele><time>2026-04-26T09:59:34.934Z</time></trkpt><trkpt lat="43.4295782" lon="11.4157318"><ele>299.0</ele><time>2026-04-26T09:59:35.934Z</time></trkpt><trkpt lat="43.4296718" lon="11.4155932"><ele>300.0</ele><time>2026-04-26T09:59:36.945Z</time></trkpt><trkpt lat="43.4297983" lon="11.4154678"><ele>301.0</ele><time>2026-04-26T09:59:37.934Z</time></trkpt><trkpt lat="43.4299462" lon="11.4153344"><ele>301.0</ele><time>2026-04-26T09:59:38.946Z</time></trkpt><trkpt lat="43.4301019" lon="11.4151951"><ele>301.0</ele><time>2026-04-26T09:59:39.94Z</time></trkpt><trkpt lat="43.430253" lon="11.4150438"><ele>301.0</ele><time>2026-04-26T09:59:40.939Z</time></trkpt><trkpt lat="43.4303832" lon="11.4148724"><ele>301.66666666666663</ele><time>2026-04-26T09:59:41.939Z</time></trkpt><trkpt lat="43.4304929" lon="11.4146932"><ele>302.3333333333333</ele><time>2026-04-26T09:59:42.939Z</time></trkpt><trkpt lat="43.4306003" lon="11.4145322"><ele>303.0</ele><time>2026-04-26T09:59:43.926Z</time></trkpt><trkpt lat="43.4307192" lon="11.4144022"><ele>303.0</ele><time>2026-04-26T09:59:44.928Z</time></trkpt><trkpt lat="43.4308581" lon="11.4143081"><ele>303.0</ele><time>2026-04-26T09:59:45.925Z</time></trkpt><trkpt lat="43.4310187" lon="11.4142469"><ele>303.0</ele><time>2026-04-26T09:59:46.929Z</time></trkpt><trkpt lat="43.4311883" lon="11.4141954"><ele>306.3333333333333</ele><time>2026-04-26T09:59:47.921Z</time></trkpt><trkpt lat="43.4313541" lon="11.4141353"><ele>309.66666666666663</ele><time>2026-04-26T09:59:48.936Z</time></trkpt><trkpt lat="43.4315013" lon="11.4140548"><ele>313.0</ele><time>2026-04-26T09:59:49.936Z</time></trkpt><trkpt lat="43.431621" lon="11.4139421"><ele>309.3333333333333</ele><time>2026-04-26T09:59:50.925Z</time></trkpt><trkpt lat="43.4317151" lon="11.4137882"><ele>305.6666666666667</ele><time>2026-04-26T09:59:51.97Z</time></trkpt><trkpt lat="43.4317918" lon="11.413606"><ele>302.0</ele><time>2026-04-26T09:59:52.929Z</time></trkpt><trkpt lat="43.4318538" lon="11.4134066"><ele>302.0</ele><time>2026-04-26T09:59:53.935Z</time></trkpt><trkpt lat="43.4318823" lon="11.413214"><ele>302.0</ele><time>2026-04-26T09:59:54.941Z</time></trkpt><trkpt lat="43.431871" lon="11.4130356"><ele>302.0</ele><time>2026-04-26T09:59:55.957Z</time></trkpt><trkpt lat="43.431821" lon="11.4128764"><ele>302.0</ele><time>2026-04-26T09:59:56.933Z</time></trkpt><trkpt lat="43.4317406" lon="11.4127358"><ele>302.5</ele><time>2026-04-26T09:59:57.948Z</time></trkpt><trkpt lat="43.4316415" lon="11.4126285"><ele>303.0</ele><time>2026-04-26T09:59:58.933Z</time></trkpt><trkpt lat="43.4315326" lon="11.4125456"><ele>303.5</ele><time>2026-04-26T09:59:59.941Z</time></trkpt><trkpt lat="43.4314289" lon="11.4124507"><ele>304.0</ele><time>2026-04-26T10:00:00.927Z</time></trkpt><trkpt lat="43.4313301" lon="11.4123132"><ele>301.0</ele><time>2026-04-26T10:00:01.941Z</time></trkpt><trkpt lat="43.4312273" lon="11.4121496"><ele>298.0</ele><time>2026-04-26T10:00:02.933Z</time></trkpt><trkpt lat="43.431112" lon="11.4119818"><ele>295.0</ele><time>2026-04-26T10:00:03.95Z</time></trkpt><trkpt lat="43.4310006" lon="11.4118257"><ele>295.0</ele><time>2026-04-26T10:00:04.936Z</time></trkpt><trkpt lat="43.4309121" lon="11.4116682"><ele>295.0</ele><time>2026-04-26T10:00:05.931Z</time></trkpt><trkpt lat="43.4308533" lon="11.4114893"><ele>295.0</ele><time>2026-04-26T10:00:06.931Z</time></trkpt><trkpt lat="43.430802" lon="11.4112839"><ele>295.0</ele><time>2026-04-26T10:00:07.925Z</time></trkpt><trkpt lat="43.4307368" lon="11.4110646"><ele>296.66666666666663</ele><time>2026-04-26T10:00:08.922Z</time></trkpt><trkpt lat="43.4306507" lon="11.4108465"><ele>298.3333333333333</ele><time>2026-04-26T10:00:09.914Z</time></trkpt><trkpt lat="43.4305445" lon="11.4106341"><ele>300.0</ele><time>2026-04-26T10:00:10.922Z</time></trkpt><trkpt lat="43.4304223" lon="11.41044"><ele>300.0</ele><time>2026-04-26T10:00:11.924Z</time></trkpt><trkpt lat="43.4302875" lon="11.4102771"><ele>300.0</ele><time>2026-04-26T10:00:12.927Z</time></trkpt><trkpt lat="43.4301391" lon="11.4101512"><ele>300.0</ele><time>2026-04-26T10:00:13.925Z</time></trkpt><trkpt lat="43.4299723" lon="11.4100526"><ele>300.0</ele><time>2026-04-26T10:00:14.93Z</time></trkpt><trkpt lat="43.4297993" lon="11.4099618"><ele>300.0</ele><time>2026-04-26T10:00:15.936Z</time></trkpt><trkpt lat="43.4296358" lon="11.4098522"><ele>300.0</ele><time>2026-04-26T10:00:16.929Z</time></trkpt><trkpt lat="43.4294878" lon="11.4097116"><ele>299.3333333333333</ele><time>2026-04-26T10:00:17.932Z</time></trkpt><trkpt lat="43.4293589" lon="11.4095448"><ele>298.66666666666663</ele><time>2026-04-26T10:00:18.938Z</time></trkpt><trkpt lat="43.4292461" lon="11.4093592"><ele>298.0</ele><time>2026-04-26T10:00:19.942Z</time></trkpt><trkpt lat="43.4291415" lon="11.409157"><ele>298.0</ele><time>2026-04-26T10:00:20.941Z</time></trkpt><trkpt lat="43.4290413" lon="11.4089562"><ele>298.0</ele><time>2026-04-26T10:00:21.932Z</time></trkpt><trkpt lat="43.4289478" lon="11.4087718"><ele>298.0</ele><time>2026-04-26T10:00:22.937Z</time></trkpt><trkpt lat="43.4288572" lon="11.4086106"><ele>297.75</ele><time>2026-04-26T10:00:23.923Z</time></trkpt><trkpt lat="43.4287565" lon="11.4084727"><ele>297.5</ele><time>2026-04-26T10:00:24.929Z</time></trkpt><trkpt lat="43.4286363" lon="11.4083817"><ele>297.25</ele><time>2026-04-26T10:00:25.937Z</time></trkpt><trkpt lat="43.4284931" lon="11.408344"><ele>297.0</ele><time>2026-04-26T10:00:26.924Z</time></trkpt><trkpt lat="43.428325" lon="11.4083432"><ele>297.0</ele><time>2026-04-26T10:00:27.932Z</time></trkpt><trkpt lat="43.428149" lon="11.4083507"><ele>297.0</ele><time>2026-04-26T10:00:28.934Z</time></trkpt><trkpt lat="43.4279766" lon="11.4083329"><ele>297.0</ele><time>2026-04-26T10:00:29.925Z</time></trkpt><trkpt lat="43.4278077" lon="11.408271"><ele>297.3333333333333</ele><time>2026-04-26T10:00:30.931Z</time></trkpt><trkpt lat="43.4276531" lon="11.4081653"><ele>297.66666666666663</ele><time>2026-04-26T10:00:31.945Z</time></trkpt><trkpt lat="43.4275131" lon="11.4080229"><ele>298.0</ele><time>2026-04-26T10:00:32.937Z</time></trkpt><trkpt lat="43.4273749" lon="11.4078552"><ele>298.0</ele><time>2026-04-26T10:00:33.935Z</time></trkpt><trkpt lat="43.4272327" lon="11.4076841"><ele>298.0</ele><time>2026-04-26T10:00:34.915Z</time></trkpt><trkpt lat="43.427085" lon="11.4075323"><ele>298.0</ele><time>2026-04-26T10:00:35.917Z</time></trkpt><trkpt lat="43.4269425" lon="11.4074121"><ele>295.25</ele><time>2026-04-26T10:00:36.927Z</time></trkpt><trkpt lat="43.4268217" lon="11.4073068"><ele>292.5</ele><time>2026-04-26T10:00:37.94Z</time></trkpt><trkpt lat="43.4267408" lon="11.4071886"><ele>289.75</ele><time>2026-04-26T10:00:38.927Z</time></trkpt><trkpt lat="43.4267044" lon="11.4070418"><ele>287.0</ele><time>2026-04-26T10:00:39.951Z</time></trkpt><trkpt lat="43.4267039" lon="11.4068682"><ele>287.0</ele><time>2026-04-26T10:00:40.93Z</time></trkpt><trkpt lat="43.4267205" lon="11.4066621"><ele>287.0</ele><time>2026-04-26T10:00:41.93Z</time></trkpt><trkpt lat="43.4267427" lon="11.4064307"><ele>287.0</ele><time>2026-04-26T10:00:42.938Z</time></trkpt><trkpt lat="43.4267627" lon="11.406183"><ele>287.6666666666667</ele><time>2026-04-26T10:00:43.937Z</time></trkpt><trkpt lat="43.4267738" lon="11.4059328"><ele>288.3333333333333</ele><time>2026-04-26T10:00:44.928Z</time></trkpt><trkpt lat="43.4267631" lon="11.4056955"><ele>289.0</ele><time>2026-04-26T10:00:45.937Z</time></trkpt><trkpt lat="43.4267176" lon="11.4054798"><ele>292.3333333333333</ele><time>2026-04-26T10:00:46.926Z</time></trkpt><trkpt lat="43.4266368" lon="11.4052737"><ele>295.6666666666667</ele><time>2026-04-26T10:00:47.921Z</time></trkpt><trkpt lat="43.4265414" lon="11.4050731"><ele>299.0</ele><time>2026-04-26T10:00:48.934Z</time></trkpt><trkpt lat="43.426446" lon="11.4048981"><ele>299.0</ele><time>2026-04-26T10:00:49.94Z</time></trkpt><trkpt lat="43.426341" lon="11.4047657"><ele>299.0</ele><time>2026-04-26T10:00:50.923Z</time></trkpt><trkpt lat="43.4262177" lon="11.4046771"><ele>299.0</ele><time>2026-04-26T10:00:51.94Z</time></trkpt><trkpt lat="43.4260798" lon="11.4046187"><ele>299.0</ele><time>2026-04-26T10:00:52.924Z</time></trkpt><trkpt lat="43.4259342" lon="11.4045597"><ele>298.33333333333337</ele><time>2026-04-26T10:00:53.928Z</time></trkpt><trkpt lat="43.4257821" lon="11.4044917"><ele>297.6666666666667</ele><time>2026-04-26T10:00:54.934Z</time></trkpt><trkpt lat="43.4256217" lon="11.4044202"><ele>297.0</ele><time>2026-04-26T10:00:55.923Z</time></trkpt><trkpt lat="43.4254619" lon="11.4043383"><ele>294.25</ele><time>2026-04-26T10:00:56.93Z</time></trkpt><trkpt lat="43.4253194" lon="11.4042417"><ele>291.5</ele><time>2026-04-26T10:00:57.922Z</time></trkpt><trkpt lat="43.4251916" lon="11.4041458"><ele>288.75</ele><time>2026-04-26T10:00:58.914Z</time></trkpt><trkpt lat="43.4250664" lon="11.4040806"><ele>286.0</ele><time>2026-04-26T10:00:59.919Z</time></trkpt><trkpt lat="43.4249321" lon="11.404059"><ele>286.0</ele><time>2026-04-26T10:01:00.922Z</time></trkpt><trkpt lat="43.4247787" lon="11.404071"><ele>286.0</ele><time>2026-04-26T10:01:01.923Z</time></trkpt><trkpt lat="43.4246068" lon="11.4040977"><ele>286.0</ele><time>2026-04-26T10:01:02.934Z</time></trkpt><trkpt lat="43.4244234" lon="11.4041225"><ele>285.3333333333333</ele><time>2026-04-26T10:01:03.94Z</time></trkpt><trkpt lat="43.4242424" lon="11.4041346"><ele>284.6666666666667</ele><time>2026-04-26T10:01:04.926Z</time></trkpt><trkpt lat="43.4240725" lon="11.4041243"><ele>284.0</ele><time>2026-04-26T10:01:05.936Z</time></trkpt><trkpt lat="43.4239226" lon="11.4041027"><ele>285.5</ele><time>2026-04-26T10:01:06.937Z</time></trkpt><trkpt lat="43.4237911" lon="11.4040948"><ele>287.0</ele><time>2026-04-26T10:01:07.918Z</time></trkpt><trkpt lat="43.4236617" lon="11.4041243"><ele>288.5</ele><time>2026-04-26T10:01:08.931Z</time></trkpt><trkpt lat="43.4235268" lon="11.404187"><ele>290.0</ele><time>2026-04-26T10:01:09.93Z</time></trkpt><trkpt lat="43.4233878" lon="11.4042692"><ele>290.0</ele><time>2026-04-26T10:01:10.931Z</time></trkpt><trkpt lat="43.4232562" lon="11.4043905"><ele>290.0</ele><time>2026-04-26T10:01:11.919Z</time></trkpt><trkpt lat="43.4231388" lon="11.4045487"><ele>290.0</ele><time>2026-04-26T10:01:12.928Z</time></trkpt><trkpt lat="43.4230475" lon="11.4047121"><ele>289.0</ele><time>2026-04-26T10:01:13.925Z</time></trkpt><trkpt lat="43.4229735" lon="11.4048531"><ele>288.0</ele><time>2026-04-26T10:01:14.93Z</time></trkpt><trkpt lat="43.4228911" lon="11.4049582"><ele>287.0</ele><time>2026-04-26T10:01:15.935Z</time></trkpt><trkpt lat="43.4227881" lon="11.4050156"><ele>286.0</ele><time>2026-04-26T10:01:16.921Z</time></trkpt><trkpt lat="43.422666" lon="11.4050189"><ele>286.0</ele><time>2026-04-26T10:01:17.931Z</time></trkpt><trkpt lat="43.4225317" lon="11.4049775"><ele>286.0</ele><time>2026-04-26T10:01:18.93Z</time></trkpt><trkpt lat="43.4223832" lon="11.4049075"><ele>286.0</ele><time>2026-04-26T10:01:19.923Z</time></trkpt><trkpt lat="43.4222299" lon="11.404807"><ele>286.66666666666663</ele><time>2026-04-26T10:01:20.933Z</time></trkpt><trkpt lat="43.4220876" lon="11.4046678"><ele>287.3333333333333</ele><time>2026-04-26T10:01:21.928Z</time></trkpt><trkpt lat="43.4219596" lon="11.4044918"><ele>288.0</ele><time>2026-04-26T10:01:22.923Z</time></trkpt><trkpt lat="43.4218358" lon="11.4042932"><ele>288.0</ele><time>2026-04-26T10:01:23.924Z</time></trkpt><trkpt lat="43.4217029" lon="11.4040919"><ele>288.0</ele><time>2026-04-26T10:01:24.91Z</time></trkpt><trkpt lat="43.4215578" lon="11.4038989"><ele>288.0</ele><time>2026-04-26T10:01:25.92Z</time></trkpt><trkpt lat="43.4214056" lon="11.4037175"><ele>287.3333333333333</ele><time>2026-04-26T10:01:26.927Z</time></trkpt><trkpt lat="43.4212488" lon="11.4035395"><ele>286.66666666666663</ele><time>2026-04-26T10:01:27.929Z</time></trkpt><trkpt lat="43.4210914" lon="11.4033597"><ele>286.0</ele><time>2026-04-26T10:01:28.933Z</time></trkpt><trkpt lat="43.4209394" lon="11.4031821"><ele>286.0</ele><time>2026-04-26T10:01:29.923Z</time></trkpt><trkpt lat="43.4207856" lon="11.4030234"><ele>286.0</ele><time>2026-04-26T10:01:30.93Z</time></trkpt><trkpt lat="43.42063" lon="11.4028876"><ele>286.0</ele><time>2026-04-26T10:01:31.931Z</time></trkpt><trkpt lat="43.4204713" lon="11.4027737"><ele>285.0</ele><time>2026-04-26T10:01:32.938Z</time></trkpt><trkpt lat="43.420309" lon="11.4026781"><ele>284.0</ele><time>2026-04-26T10:01:33.944Z</time></trkpt><trkpt lat="43.4201516" lon="11.4025851"><ele>283.0</ele><time>2026-04-26T10:01:34.948Z</time></trkpt><trkpt lat="43.4200026" lon="11.4024805"><ele>283.0</ele><time>2026-04-26T10:01:35.936Z</time></trkpt><trkpt lat="43.4198668" lon="11.4023528"><ele>283.0</ele><time>2026-04-26T10:01:36.941Z</time></trkpt><trkpt lat="43.4197529" lon="11.4022041"><ele>283.0</ele><time>2026-04-26T10:01:37.932Z</time></trkpt><trkpt lat="43.4196582" lon="11.4020298"><ele>280.66666666666663</ele><time>2026-04-26T10:01:38.939Z</time></trkpt><trkpt lat="43.4195744" lon="11.4018323"><ele>278.3333333333333</ele><time>2026-04-26T10:01:39.946Z</time></trkpt><trkpt lat="43.4194976" lon="11.4016177"><ele>276.0</ele><time>2026-04-26T10:01:40.935Z</time></trkpt><trkpt lat="43.4194217" lon="11.401392"><ele>276.0</ele><time>2026-04-26T10:01:41.941Z</time></trkpt><trkpt lat="43.4193416" lon="11.4011662"><ele>276.0</ele><time>2026-04-26T10:01:42.931Z</time></trkpt><trkpt lat="43.4192528" lon="11.4009386"><ele>276.0</ele><time>2026-04-26T10:01:43.936Z</time></trkpt><trkpt lat="43.4191515" lon="11.4007169"><ele>276.0</ele><time>2026-04-26T10:01:44.928Z</time></trkpt><trkpt lat="43.4190318" lon="11.4005007"><ele>276.0</ele><time>2026-04-26T10:01:45.925Z</time></trkpt><trkpt lat="43.4188892" lon="11.4002915"><ele>276.0</ele><time>2026-04-26T10:01:46.917Z</time></trkpt><trkpt lat="43.4187316" lon="11.4000854"><ele>275.3333333333333</ele><time>2026-04-26T10:01:47.926Z</time></trkpt><trkpt lat="43.4185671" lon="11.3998845"><ele>274.66666666666663</ele><time>2026-04-26T10:01:48.911Z</time></trkpt><trkpt lat="43.4183956" lon="11.3996813"><ele>274.0</ele><time>2026-04-26T10:01:49.927Z</time></trkpt><trkpt lat="43.4182327" lon="11.3994727"><ele>274.0</ele><time>2026-04-26T10:01:50.916Z</time></trkpt><trkpt lat="43.4180887" lon="11.3992522"><ele>274.0</ele><time>2026-04-26T10:01:51.936Z</time></trkpt><trkpt lat="43.4179678" lon="11.39904"><ele>274.0</ele><time>2026-04-26T10:01:52.925Z</time></trkpt><trkpt lat="43.4178485" lon="11.398851"><ele>281.0</ele><time>2026-04-26T10:01:53.929Z</time></trkpt><trkpt lat="43.4177158" lon="11.3986976"><ele>288.0</ele><time>2026-04-26T10:01:54.935Z</time></trkpt><trkpt lat="43.4175611" lon="11.398575"><ele>295.0</ele><time>2026-04-26T10:01:55.923Z</time></trkpt><trkpt lat="43.4173892" lon="11.3984728"><ele>295.0</ele><time>2026-04-26T10:01:56.922Z</time></trkpt><trkpt lat="43.4172173" lon="11.3983991"><ele>295.0</ele><time>2026-04-26T10:01:57.929Z</time></trkpt><trkpt lat="43.4170511" lon="11.3983623"><ele>295.0</ele><time>2026-04-26T10:01:58.938Z</time></trkpt><trkpt lat="43.4168813" lon="11.3983661"><ele>295.0</ele><time>2026-04-26T10:01:59.92Z</time></trkpt><trkpt lat="43.4166971" lon="11.398406"><ele>295.0</ele><time>2026-04-26T10:02:00.928Z</time></trkpt><trkpt lat="43.4165023" lon="11.3984755"><ele>295.0</ele><time>2026-04-26T10:02:01.926Z</time></trkpt><trkpt lat="43.4162998" lon="11.398561"><ele>295.0</ele><time>2026-04-26T10:02:02.92Z</time></trkpt><trkpt lat="43.4160886" lon="11.3986515"><ele>295.0</ele><time>2026-04-26T10:02:03.93Z</time></trkpt><trkpt lat="43.4158806" lon="11.3987444"><ele>295.0</ele><time>2026-04-26T10:02:04.923Z</time></trkpt><trkpt lat="43.4156809" lon="11.3988381"><ele>288.0</ele><time>2026-04-26T10:02:05.929Z</time></trkpt><trkpt lat="43.4154934" lon="11.3989278"><ele>281.0</ele><time>2026-04-26T10:02:06.932Z</time></trkpt><trkpt lat="43.415319" lon="11.3990118"><ele>274.0</ele><time>2026-04-26T10:02:07.94Z</time></trkpt><trkpt lat="43.415156" lon="11.3990793"><ele>274.0</ele><time>2026-04-26T10:02:08.929Z</time></trkpt><trkpt lat="43.4149884" lon="11.3991249"><ele>274.0</ele><time>2026-04-26T10:02:09.934Z</time></trkpt><trkpt lat="43.4148108" lon="11.3991433"><ele>274.0</ele><time>2026-04-26T10:02:10.918Z</time></trkpt><trkpt lat="43.4146208" lon="11.3991383"><ele>272.66666666666663</ele><time>2026-04-26T10:02:11.929Z</time></trkpt><trkpt lat="43.4144288" lon="11.3991184"><ele>271.3333333333333</ele><time>2026-04-26T10:02:12.919Z</time></trkpt><trkpt lat="43.4142389" lon="11.3990943"><ele>270.0</ele><time>2026-04-26T10:02:13.925Z</time></trkpt><trkpt lat="43.4140603" lon="11.39907"><ele>270.0</ele><time>2026-04-26T10:02:14.924Z</time></trkpt><trkpt lat="43.4138914" lon="11.3990493"><ele>270.0</ele><time>2026-04-26T10:02:15.93Z</time></trkpt><trkpt lat="43.4137248" lon="11.3990282"><ele>270.0</ele><time>2026-04-26T10:02:16.939Z</time></trkpt><trkpt lat="43.4135563" lon="11.3990053"><ele>269.3333333333333</ele><time>2026-04-26T10:02:17.928Z</time></trkpt><trkpt lat="43.4133826" lon="11.3989797"><ele>268.66666666666663</ele><time>2026-04-26T10:02:18.938Z</time></trkpt><trkpt lat="43.4132034" lon="11.3989557"><ele>268.0</ele><time>2026-04-26T10:02:19.94Z</time></trkpt><trkpt lat="43.4130178" lon="11.3989355"><ele>267.66666666666663</ele><time>2026-04-26T10:02:20.932Z</time></trkpt><trkpt lat="43.4128287" lon="11.398918"><ele>267.3333333333333</ele><time>2026-04-26T10:02:21.943Z</time></trkpt><trkpt lat="43.4126427" lon="11.3989065"><ele>267.0</ele><time>2026-04-26T10:02:22.941Z</time></trkpt><trkpt lat="43.4124594" lon="11.3989152"><ele>267.0</ele><time>2026-04-26T10:02:23.93Z</time></trkpt><trkpt lat="43.4122786" lon="11.3989574"><ele>267.0</ele><time>2026-04-26T10:02:24.937Z</time></trkpt><trkpt lat="43.4121044" lon="11.3990436"><ele>267.0</ele><time>2026-04-26T10:02:25.946Z</time></trkpt><trkpt lat="43.411938" lon="11.3991652"><ele>267.0</ele><time>2026-04-26T10:02:26.935Z</time></trkpt><trkpt lat="43.4117789" lon="11.399317"><ele>267.0</ele><time>2026-04-26T10:02:27.938Z</time></trkpt><trkpt lat="43.4116315" lon="11.3994946"><ele>267.0</ele><time>2026-04-26T10:02:28.943Z</time></trkpt><trkpt lat="43.4114927" lon="11.3996893"><ele>266.6666666666667</ele><time>2026-04-26T10:02:29.952Z</time></trkpt><trkpt lat="43.4113543" lon="11.399889"><ele>266.33333333333337</ele><time>2026-04-26T10:02:30.947Z</time></trkpt><trkpt lat="43.4112113" lon="11.4000922"><ele>266.0</ele><time>2026-04-26T10:02:31.95Z</time></trkpt><trkpt lat="43.4110679" lon="11.4002957"><ele>268.6666666666667</ele><time>2026-04-26T10:02:32.923Z</time></trkpt><trkpt lat="43.4109212" lon="11.4005044"><ele>271.3333333333333</ele><time>2026-04-26T10:02:33.936Z</time></trkpt><trkpt lat="43.4107762" lon="11.4007142"><ele>274.0</ele><time>2026-04-26T10:02:34.92Z</time></trkpt><trkpt lat="43.410627" lon="11.4009285"><ele>271.66666666666663</ele><time>2026-04-26T10:02:35.927Z</time></trkpt><trkpt lat="43.4104761" lon="11.4011402"><ele>269.3333333333333</ele><time>2026-04-26T10:02:36.911Z</time></trkpt><trkpt lat="43.4103234" lon="11.4013565"><ele>267.0</ele><time>2026-04-26T10:02:37.92Z</time></trkpt><trkpt lat="43.4101742" lon="11.4015731"><ele>267.0</ele><time>2026-04-26T10:02:38.926Z</time></trkpt><trkpt lat="43.4100259" lon="11.4017895"><ele>267.0</ele><time>2026-04-26T10:02:39.934Z</time></trkpt><trkpt lat="43.4098794" lon="11.402005"><ele>267.0</ele><time>2026-04-26T10:02:40.929Z</time></trkpt><trkpt lat="43.4097323" lon="11.4022225"><ele>266.6666666666667</ele><time>2026-04-26T10:02:41.947Z</time></trkpt><trkpt lat="43.4095822" lon="11.4024368"><ele>266.33333333333337</ele><time>2026-04-26T10:02:42.95Z</time></trkpt><trkpt lat="43.4094276" lon="11.4026534"><ele>266.0</ele><time>2026-04-26T10:02:43.931Z</time></trkpt><trkpt lat="43.4092727" lon="11.4028725"><ele>270.33333333333337</ele><time>2026-04-26T10:02:44.937Z</time></trkpt><trkpt lat="43.4091311" lon="11.4030807"><ele>274.6666666666667</ele><time>2026-04-26T10:02:45.944Z</time></trkpt><trkpt lat="43.4090059" lon="11.4032743"><ele>279.0</ele><time>2026-04-26T10:02:46.931Z</time></trkpt><trkpt lat="43.408889" lon="11.4034534"><ele>274.3333333333333</ele><time>2026-04-26T10:02:47.939Z</time></trkpt><trkpt lat="43.408772" lon="11.4036085"><ele>269.66666666666663</ele><time>2026-04-26T10:02:48.932Z</time></trkpt><trkpt lat="43.4086463" lon="11.4037264"><ele>265.0</ele><time>2026-04-26T10:02:49.931Z</time></trkpt><trkpt lat="43.4085066" lon="11.4037941"><ele>265.0</ele><time>2026-04-26T10:02:50.92Z</time></trkpt><trkpt lat="43.4083442" lon="11.4038209"><ele>265.0</ele><time>2026-04-26T10:02:51.933Z</time></trkpt><trkpt lat="43.40816" lon="11.4038347"><ele>265.0</ele><time>2026-04-26T10:02:52.94Z</time></trkpt><trkpt lat="43.4079649" lon="11.4038661"><ele>269.66666666666663</ele><time>2026-04-26T10:02:53.926Z</time></trkpt><trkpt lat="43.4077669" lon="11.403925"><ele>274.3333333333333</ele><time>2026-04-26T10:02:54.931Z</time></trkpt><trkpt lat="43.407571" lon="11.4039964"><ele>279.0</ele><time>2026-04-26T10:02:55.931Z</time></trkpt><trkpt lat="43.4073706" lon="11.4040778"><ele>279.0</ele><time>2026-04-26T10:02:56.943Z</time></trkpt><trkpt lat="43.4071702" lon="11.404166"><ele>279.0</ele><time>2026-04-26T10:02:57.924Z</time></trkpt><trkpt lat="43.4069745" lon="11.4042615"><ele>279.0</ele><time>2026-04-26T10:02:58.924Z</time></trkpt><trkpt lat="43.4067911" lon="11.4043605"><ele>275.3333333333333</ele><time>2026-04-26T10:02:59.934Z</time></trkpt><trkpt lat="43.4066166" lon="11.404459"><ele>271.66666666666663</ele><time>2026-04-26T10:03:00.928Z</time></trkpt><trkpt lat="43.4064397" lon="11.404556"><ele>268.0</ele><time>2026-04-26T10:03:01.935Z</time></trkpt><trkpt lat="43.4062537" lon="11.404642"><ele>270.0</ele><time>2026-04-26T10:03:02.939Z</time></trkpt><trkpt lat="43.406059" lon="11.4047136"><ele>272.0</ele><time>2026-04-26T10:03:03.919Z</time></trkpt><trkpt lat="43.4058577" lon="11.4047655"><ele>274.0</ele><time>2026-04-26T10:03:04.928Z</time></trkpt><trkpt lat="43.4056561" lon="11.4047998"><ele>273.0</ele><time>2026-04-26T10:03:05.941Z</time></trkpt><trkpt lat="43.4054595" lon="11.4048207"><ele>272.0</ele><time>2026-04-26T10:03:06.95Z</time></trkpt><trkpt lat="43.4052763" lon="11.4048205"><ele>271.0</ele><time>2026-04-26T10:03:07.935Z</time></trkpt><trkpt lat="43.4051035" lon="11.404807"><ele>271.0</ele><time>2026-04-26T10:03:08.939Z</time></trkpt><trkpt lat="43.404942" lon="11.4047934"><ele>271.0</ele><time>2026-04-26T10:03:09.938Z</time></trkpt><trkpt lat="43.404789" lon="11.4048032"><ele>271.0</ele><time>2026-04-26T10:03:10.928Z</time></trkpt><trkpt lat="43.4046373" lon="11.4048619"><ele>269.3333333333333</ele><time>2026-04-26T10:03:11.934Z</time></trkpt><trkpt lat="43.4044858" lon="11.4049668"><ele>267.6666666666667</ele><time>2026-04-26T10:03:12.933Z</time></trkpt><trkpt lat="43.4043313" lon="11.4050912"><ele>266.0</ele><time>2026-04-26T10:03:13.943Z</time></trkpt><trkpt lat="43.4041746" lon="11.4052089"><ele>266.0</ele><time>2026-04-26T10:03:14.924Z</time></trkpt><trkpt lat="43.4040075" lon="11.4053182"><ele>266.0</ele><time>2026-04-26T10:03:15.942Z</time></trkpt><trkpt lat="43.4038211" lon="11.4054182"><ele>266.0</ele><time>2026-04-26T10:03:16.926Z</time></trkpt><trkpt lat="43.4036042" lon="11.405508"><ele>270.0</ele><time>2026-04-26T10:03:17.932Z</time></trkpt><trkpt lat="43.4033704" lon="11.4055852"><ele>274.0</ele><time>2026-04-26T10:03:18.933Z</time></trkpt><trkpt lat="43.4031443" lon="11.4056568"><ele>270.66666666666663</ele><time>2026-04-26T10:03:19.925Z</time></trkpt><trkpt lat="43.4029389" lon="11.4057422"><ele>267.3333333333333</ele><time>2026-04-26T10:03:20.935Z</time></trkpt><trkpt lat="43.4027589" lon="11.405853"><ele>264.0</ele><time>2026-04-26T10:03:21.926Z</time></trkpt><trkpt lat="43.4026005" lon="11.405991"><ele>264.0</ele><time>2026-04-26T10:03:22.932Z</time></trkpt><trkpt lat="43.4024508" lon="11.4061174"><ele>264.0</ele><time>2026-04-26T10:03:23.924Z</time></trkpt><trkpt lat="43.4022972" lon="11.4061983"><ele>264.0</ele><time>2026-04-26T10:03:24.923Z</time></trkpt><trkpt lat="43.4021481" lon="11.4062156"><ele>263.0</ele><time>2026-04-26T10:03:25.923Z</time></trkpt><trkpt lat="43.4020001" lon="11.4061703"><ele>262.0</ele><time>2026-04-26T10:03:26.925Z</time></trkpt><trkpt lat="43.4018431" lon="11.4060773"><ele>261.0</ele><time>2026-04-26T10:03:27.948Z</time></trkpt><trkpt lat="43.4016809" lon="11.4059574"><ele>261.0</ele><time>2026-04-26T10:03:28.933Z</time></trkpt><trkpt lat="43.4015079" lon="11.4058213"><ele>261.0</ele><time>2026-04-26T10:03:29.948Z</time></trkpt><trkpt lat="43.4013299" lon="11.4056801"><ele>261.0</ele><time>2026-04-26T10:03:30.958Z</time></trkpt><trkpt lat="43.4011501" lon="11.4055407"><ele>261.3333333333333</ele><time>2026-04-26T10:03:31.949Z</time></trkpt><trkpt lat="43.4009618" lon="11.4053982"><ele>261.66666666666663</ele><time>2026-04-26T10:03:32.948Z</time></trkpt><trkpt lat="43.400768" lon="11.4052572"><ele>262.0</ele><time>2026-04-26T10:03:33.953Z</time></trkpt><trkpt lat="43.4005821" lon="11.4051214"><ele>267.0</ele><time>2026-04-26T10:03:34.94Z</time></trkpt><trkpt lat="43.4004082" lon="11.4049916"><ele>272.0</ele><time>2026-04-26T10:03:35.949Z</time></trkpt><trkpt lat="43.4002533" lon="11.4048601"><ele>277.0</ele><time>2026-04-26T10:03:36.942Z</time></trkpt><trkpt lat="43.4001172" lon="11.4047081"><ele>272.3333333333333</ele><time>2026-04-26T10:03:37.932Z</time></trkpt><trkpt lat="43.3999952" lon="11.4045236"><ele>267.6666666666667</ele><time>2026-04-26T10:03:38.944Z</time></trkpt><trkpt lat="43.3998806" lon="11.4043127"><ele>263.0</ele><time>2026-04-26T10:03:39.95Z</time></trkpt><trkpt lat="43.3997714" lon="11.4040951"><ele>263.33333333333337</ele><time>2026-04-26T10:03:40.934Z</time></trkpt><trkpt lat="43.3996653" lon="11.4038892"><ele>263.6666666666667</ele><time>2026-04-26T10:03:41.939Z</time></trkpt><trkpt lat="43.3995443" lon="11.4037072"><ele>264.0</ele><time>2026-04-26T10:03:42.943Z</time></trkpt><trkpt lat="43.3993967" lon="11.4035496"><ele>264.0</ele><time>2026-04-26T10:03:43.924Z</time></trkpt><trkpt lat="43.3992223" lon="11.4034122"><ele>264.0</ele><time>2026-04-26T10:03:44.94Z</time></trkpt><trkpt lat="43.3990302" lon="11.4032999"><ele>264.0</ele><time>2026-04-26T10:03:45.944Z</time></trkpt><trkpt lat="43.3988331" lon="11.4032105"><ele>264.0</ele><time>2026-04-26T10:03:46.939Z</time></trkpt><trkpt lat="43.3986449" lon="11.4031405"><ele>264.0</ele><time>2026-04-26T10:03:47.927Z</time></trkpt><trkpt lat="43.3984661" lon="11.4030948"><ele>264.0</ele><time>2026-04-26T10:03:48.939Z</time></trkpt><trkpt lat="43.3983004" lon="11.4030908"><ele>264.0</ele><time>2026-04-26T10:03:49.93Z</time></trkpt><trkpt lat="43.3981435" lon="11.403141"><ele>264.0</ele><time>2026-04-26T10:03:50.933Z</time></trkpt><trkpt lat="43.3979934" lon="11.4032486"><ele>264.0</ele><time>2026-04-26T10:03:51.944Z</time></trkpt><trkpt lat="43.3978473" lon="11.4034031"><ele>264.0</ele><time>2026-04-26T10:03:52.93Z</time></trkpt><trkpt lat="43.3976953" lon="11.403584"><ele>264.0</ele><time>2026-04-26T10:03:53.938Z</time></trkpt><trkpt lat="43.3975368" lon="11.4037741"><ele>264.0</ele><time>2026-04-26T10:03:54.956Z</time></trkpt><trkpt lat="43.3973773" lon="11.4039664"><ele>264.0</ele><time>2026-04-26T10:03:55.944Z</time></trkpt><trkpt lat="43.3972181" lon="11.404166"><ele>264.0</ele><time>2026-04-26T10:03:56.94Z</time></trkpt><trkpt lat="43.3970607" lon="11.4043719"><ele>264.0</ele><time>2026-04-26T10:03:57.94Z</time></trkpt><trkpt lat="43.3969047" lon="11.4045798"><ele>264.3333333333333</ele><time>2026-04-26T10:03:58.95Z</time></trkpt><trkpt lat="43.3967468" lon="11.4047792"><ele>264.66666666666663</ele><time>2026-04-26T10:03:59.93Z</time></trkpt><trkpt lat="43.3965802" lon="11.4049764"><ele>265.0</ele><time>2026-04-26T10:04:00.944Z</time></trkpt><trkpt lat="43.3964081" lon="11.4051735"><ele>262.5</ele><time>2026-04-26T10:04:01.952Z</time></trkpt><trkpt lat="43.3962343" lon="11.4053729"><ele>260.0</ele><time>2026-04-26T10:04:02.942Z</time></trkpt><trkpt lat="43.3960586" lon="11.4055734"><ele>260.0</ele><time>2026-04-26T10:04:03.951Z</time></trkpt><trkpt lat="43.3958847" lon="11.4057657"><ele>260.0</ele><time>2026-04-26T10:04:04.933Z</time></trkpt><trkpt lat="43.3957109" lon="11.4059541"><ele>260.0</ele><time>2026-04-26T10:04:05.944Z</time></trkpt><trkpt lat="43.3955436" lon="11.406139"><ele>259.0</ele><time>2026-04-26T10:04:06.929Z</time></trkpt><trkpt lat="43.3953795" lon="11.4063345"><ele>258.0</ele><time>2026-04-26T10:04:07.937Z</time></trkpt><trkpt lat="43.3952225" lon="11.4065446"><ele>257.0</ele><time>2026-04-26T10:04:08.939Z</time></trkpt><trkpt lat="43.3950706" lon="11.4067645"><ele>257.0</ele><time>2026-04-26T10:04:09.94Z</time></trkpt><trkpt lat="43.3949271" lon="11.4069863"><ele>257.0</ele><time>2026-04-26T10:04:10.934Z</time></trkpt><trkpt lat="43.394797" lon="11.4072227"><ele>257.0</ele><time>2026-04-26T10:04:11.941Z</time></trkpt><trkpt lat="43.394682" lon="11.4074787"><ele>256.33333333333337</ele><time>2026-04-26T10:04:12.944Z</time></trkpt><trkpt lat="43.394572" lon="11.4077421"><ele>255.66666666666669</ele><time>2026-04-26T10:04:13.928Z</time></trkpt><trkpt lat="43.3944571" lon="11.4080063"><ele>255.0</ele><time>2026-04-26T10:04:14.932Z</time></trkpt><trkpt lat="43.39434" lon="11.4082643"><ele>255.0</ele><time>2026-04-26T10:04:15.937Z</time></trkpt><trkpt lat="43.3942263" lon="11.4085069"><ele>255.0</ele><time>2026-04-26T10:04:16.919Z</time></trkpt><trkpt lat="43.3941183" lon="11.4087431"><ele>255.0</ele><time>2026-04-26T10:04:17.945Z</time></trkpt><trkpt lat="43.3940174" lon="11.4089841"><ele>253.66666666666669</ele><time>2026-04-26T10:04:18.95Z</time></trkpt><trkpt lat="43.3939222" lon="11.4092422"><ele>252.33333333333334</ele><time>2026-04-26T10:04:19.93Z</time></trkpt><trkpt lat="43.3938349" lon="11.4095204"><ele>251.0</ele><time>2026-04-26T10:04:20.939Z</time></trkpt><trkpt lat="43.3937589" lon="11.4098008"><ele>251.0</ele><time>2026-04-26T10:04:21.95Z</time></trkpt><trkpt lat="43.3936928" lon="11.4100718"><ele>251.0</ele><time>2026-04-26T10:04:22.936Z</time></trkpt><trkpt lat="43.3936237" lon="11.4103374"><ele>251.0</ele><time>2026-04-26T10:04:23.94Z</time></trkpt><trkpt lat="43.3935358" lon="11.4105921"><ele>252.33333333333334</ele><time>2026-04-26T10:04:24.948Z</time></trkpt><trkpt lat="43.3934294" lon="11.4108366"><ele>253.66666666666669</ele><time>2026-04-26T10:04:25.951Z</time></trkpt><trkpt lat="43.3933116" lon="11.4110784"><ele>255.0</ele><time>2026-04-26T10:04:26.957Z</time></trkpt><trkpt lat="43.3931907" lon="11.4113221"><ele>256.0</ele><time>2026-04-26T10:04:27.932Z</time></trkpt><trkpt lat="43.3930671" lon="11.4115734"><ele>257.0</ele><time>2026-04-26T10:04:28.948Z</time></trkpt><trkpt lat="43.3929482" lon="11.4118207"><ele>258.0</ele><time>2026-04-26T10:04:29.949Z</time></trkpt><trkpt lat="43.3928337" lon="11.4120639"><ele>256.3333333333333</ele><time>2026-04-26T10:04:30.941Z</time></trkpt><trkpt lat="43.3927271" lon="11.4123009"><ele>254.66666666666666</ele><time>2026-04-26T10:04:31.947Z</time></trkpt><trkpt lat="43.3926303" lon="11.412523"><ele>253.0</ele><time>2026-04-26T10:04:32.939Z</time></trkpt><trkpt lat="43.3925412" lon="11.4127287"><ele>253.0</ele><time>2026-04-26T10:04:33.948Z</time></trkpt><trkpt lat="43.3924586" lon="11.4129093"><ele>253.0</ele><time>2026-04-26T10:04:34.939Z</time></trkpt><trkpt lat="43.3923755" lon="11.413073"><ele>253.0</ele><time>2026-04-26T10:04:35.946Z</time></trkpt><trkpt lat="43.3922851" lon="11.4132217"><ele>253.0</ele><time>2026-04-26T10:04:36.936Z</time></trkpt><trkpt lat="43.39218" lon="11.4133675"><ele>254.0</ele><time>2026-04-26T10:04:37.942Z</time></trkpt><trkpt lat="43.3920607" lon="11.4135084"><ele>255.0</ele><time>2026-04-26T10:04:38.944Z</time></trkpt><trkpt lat="43.3919295" lon="11.4136376"><ele>256.0</ele><time>2026-04-26T10:04:39.936Z</time></trkpt><trkpt lat="43.3917886" lon="11.4137547"><ele>257.66666666666663</ele><time>2026-04-26T10:04:40.943Z</time></trkpt><trkpt lat="43.3916443" lon="11.4138585"><ele>259.3333333333333</ele><time>2026-04-26T10:04:41.93Z</time></trkpt><trkpt lat="43.3914959" lon="11.4139491"><ele>261.0</ele><time>2026-04-26T10:04:42.953Z</time></trkpt><trkpt lat="43.3913498" lon="11.4140204"><ele>260.0</ele><time>2026-04-26T10:04:43.956Z</time></trkpt><trkpt lat="43.3912099" lon="11.4140735"><ele>259.0</ele><time>2026-04-26T10:04:44.943Z</time></trkpt><trkpt lat="43.3910795" lon="11.4141093"><ele>258.0</ele><time>2026-04-26T10:04:45.945Z</time></trkpt><trkpt lat="43.3909669" lon="11.4141283"><ele>257.0</ele><time>2026-04-26T10:04:46.951Z</time></trkpt><trkpt lat="43.3908758" lon="11.4141335"><ele>257.0</ele><time>2026-04-26T10:04:47.942Z</time></trkpt><trkpt lat="43.3908045" lon="11.4141356"><ele>257.0</ele><time>2026-04-26T10:04:48.95Z</time></trkpt><trkpt lat="43.390723" lon="11.4141878"><ele>257.0</ele><time>2026-04-26T10:04:50.941Z</time></trkpt><trkpt lat="43.3907434" lon="11.4142746"><ele>257.0</ele><time>2026-04-26T10:04:52.948Z</time></trkpt><trkpt lat="43.3908557" lon="11.4143067"><ele>257.0</ele><time>2026-04-26T10:04:54.949Z</time></trkpt><trkpt lat="43.3909395" lon="11.414329"><ele>257.0</ele><time>2026-04-26T10:04:55.94Z</time></trkpt><trkpt lat="43.3910363" lon="11.4143625"><ele>257.0</ele><time>2026-04-26T10:04:56.943Z</time></trkpt><trkpt lat="43.3911435" lon="11.414406"><ele>257.0</ele><time>2026-04-26T10:04:57.946Z</time></trkpt><trkpt lat="43.3912595" lon="11.4144571"><ele>257.0</ele><time>2026-04-26T10:04:58.951Z</time></trkpt><trkpt lat="43.391377" lon="11.4145106"><ele>257.0</ele><time>2026-04-26T10:04:59.937Z</time></trkpt><trkpt lat="43.3914971" lon="11.4145669"><ele>258.0</ele><time>2026-04-26T10:05:00.945Z</time></trkpt><trkpt lat="43.3916203" lon="11.4146332"><ele>259.0</ele><time>2026-04-26T10:05:01.926Z</time></trkpt><trkpt lat="43.3917446" lon="11.4147071"><ele>260.0</ele><time>2026-04-26T10:05:02.93Z</time></trkpt><trkpt lat="43.3918701" lon="11.4147622"><ele>261.0</ele><time>2026-04-26T10:05:03.92Z</time></trkpt><trkpt lat="43.3919983" lon="11.4147841"><ele>264.25</ele><time>2026-04-26T10:05:04.926Z</time></trkpt><trkpt lat="43.3921179" lon="11.4147841"><ele>267.5</ele><time>2026-04-26T10:05:05.927Z</time></trkpt><trkpt lat="43.3922275" lon="11.4147905"><ele>270.75</ele><time>2026-04-26T10:05:06.935Z</time></trkpt><trkpt lat="43.3923311" lon="11.4148299"><ele>274.0</ele><time>2026-04-26T10:05:07.945Z</time></trkpt><trkpt lat="43.3924304" lon="11.4149132"><ele>274.0</ele><time>2026-04-26T10:05:08.94Z</time></trkpt><trkpt lat="43.3925261" lon="11.4150341"><ele>274.0</ele><time>2026-04-26T10:05:09.946Z</time></trkpt><trkpt lat="43.3926081" lon="11.4151821"><ele>274.0</ele><time>2026-04-26T10:05:10.936Z</time></trkpt><trkpt lat="43.3926831" lon="11.4153566"><ele>274.0</ele><time>2026-04-26T10:05:11.938Z</time></trkpt><trkpt lat="43.392763" lon="11.4155462"><ele>274.3333333333333</ele><time>2026-04-26T10:05:12.936Z</time></trkpt><trkpt lat="43.3928495" lon="11.4157442"><ele>274.6666666666667</ele><time>2026-04-26T10:05:13.939Z</time></trkpt><trkpt lat="43.3929418" lon="11.4159435"><ele>275.0</ele><time>2026-04-26T10:05:14.924Z</time></trkpt><trkpt lat="43.3930409" lon="11.4161394"><ele>282.6666666666667</ele><time>2026-04-26T10:05:15.932Z</time></trkpt><trkpt lat="43.393149" lon="11.4163204"><ele>290.3333333333333</ele><time>2026-04-26T10:05:16.935Z</time></trkpt><trkpt lat="43.3932752" lon="11.4164848"><ele>298.0</ele><time>2026-04-26T10:05:17.925Z</time></trkpt><trkpt lat="43.393419" lon="11.4166427"><ele>298.0</ele><time>2026-04-26T10:05:18.934Z</time></trkpt><trkpt lat="43.3935701" lon="11.4167956"><ele>298.0</ele><time>2026-04-26T10:05:19.92Z</time></trkpt><trkpt lat="43.3937269" lon="11.4169432"><ele>298.0</ele><time>2026-04-26T10:05:20.924Z</time></trkpt><trkpt lat="43.3938841" lon="11.4170849"><ele>299.3333333333333</ele><time>2026-04-26T10:05:21.926Z</time></trkpt><trkpt lat="43.3940352" lon="11.4172283"><ele>300.6666666666667</ele><time>2026-04-26T10:05:22.924Z</time></trkpt><trkpt lat="43.3941766" lon="11.4173725"><ele>302.0</ele><time>2026-04-26T10:05:23.926Z</time></trkpt><trkpt lat="43.3943041" lon="11.4175155"><ele>302.0</ele><time>2026-04-26T10:05:24.934Z</time></trkpt><trkpt lat="43.3944165" lon="11.4176578"><ele>302.0</ele><time>2026-04-26T10:05:25.925Z</time></trkpt><trkpt lat="43.3945156" lon="11.4178126"><ele>302.0</ele><time>2026-04-26T10:05:26.923Z</time></trkpt><trkpt lat="43.3946014" lon="11.417986"><ele>302.0</ele><time>2026-04-26T10:05:27.925Z</time></trkpt><trkpt lat="43.3946776" lon="11.4181734"><ele>302.0</ele><time>2026-04-26T10:05:28.912Z</time></trkpt><trkpt lat="43.3947587" lon="11.4183569"><ele>302.0</ele><time>2026-04-26T10:05:29.92Z</time></trkpt><trkpt lat="43.3948539" lon="11.4185112"><ele>302.0</ele><time>2026-04-26T10:05:30.934Z</time></trkpt><trkpt lat="43.3949608" lon="11.4186286"><ele>302.0</ele><time>2026-04-26T10:05:31.928Z</time></trkpt><trkpt lat="43.3950725" lon="11.4187261"><ele>302.0</ele><time>2026-04-26T10:05:32.939Z</time></trkpt><trkpt lat="43.3951878" lon="11.4188111"><ele>302.0</ele><time>2026-04-26T10:05:33.931Z</time></trkpt><trkpt lat="43.3953165" lon="11.4188895"><ele>304.6666666666667</ele><time>2026-04-26T10:05:34.932Z</time></trkpt><trkpt lat="43.3954542" lon="11.4189739"><ele>307.3333333333333</ele><time>2026-04-26T10:05:35.929Z</time></trkpt><trkpt lat="43.395592" lon="11.4190671"><ele>310.0</ele><time>2026-04-26T10:05:36.933Z</time></trkpt><trkpt lat="43.3957223" lon="11.4191671"><ele>310.0</ele><time>2026-04-26T10:05:37.945Z</time></trkpt><trkpt lat="43.3958466" lon="11.4192761"><ele>310.0</ele><time>2026-04-26T10:05:38.949Z</time></trkpt><trkpt lat="43.39597" lon="11.4193967"><ele>310.0</ele><time>2026-04-26T10:05:39.941Z</time></trkpt><trkpt lat="43.3960993" lon="11.4195202"><ele>310.0</ele><time>2026-04-26T10:05:40.934Z</time></trkpt><trkpt lat="43.3962351" lon="11.4196306"><ele>310.0</ele><time>2026-04-26T10:05:41.953Z</time></trkpt><trkpt lat="43.3963666" lon="11.4197251"><ele>310.0</ele><time>2026-04-26T10:05:42.961Z</time></trkpt><trkpt lat="43.3964844" lon="11.4198072"><ele>310.0</ele><time>2026-04-26T10:05:43.937Z</time></trkpt><trkpt lat="43.3965914" lon="11.4198801"><ele>312.6</ele><time>2026-04-26T10:05:44.964Z</time></trkpt><trkpt lat="43.3966835" lon="11.4199433"><ele>315.2</ele><time>2026-04-26T10:05:45.954Z</time></trkpt><trkpt lat="43.3967561" lon="11.4199937"><ele>317.79999999999995</ele><time>2026-04-26T10:05:46.961Z</time></trkpt><trkpt lat="43.396808" lon="11.4200774"><ele>320.4</ele><time>2026-04-26T10:05:48.954Z</time></trkpt><trkpt lat="43.3967306" lon="11.4201241"><ele>323.0</ele><time>2026-04-26T10:05:51.943Z</time></trkpt><trkpt lat="43.3966001" lon="11.4200506"><ele>323.0</ele><time>2026-04-26T10:05:53.944Z</time></trkpt><trkpt lat="43.39651" lon="11.4199936"><ele>323.0</ele><time>2026-04-26T10:05:54.945Z</time></trkpt><trkpt lat="43.3964108" lon="11.419929"><ele>323.0</ele><time>2026-04-26T10:05:55.935Z</time></trkpt><trkpt lat="43.3963046" lon="11.4198542"><ele>323.0</ele><time>2026-04-26T10:05:56.949Z</time></trkpt><trkpt lat="43.3961987" lon="11.4197759"><ele>323.0</ele><time>2026-04-26T10:05:57.935Z</time></trkpt><trkpt lat="43.3960888" lon="11.4196959"><ele>319.75</ele><time>2026-04-26T10:05:58.947Z</time></trkpt><trkpt lat="43.3959808" lon="11.4196169"><ele>316.5</ele><time>2026-04-26T10:05:59.95Z</time></trkpt><trkpt lat="43.39588" lon="11.4195356"><ele>313.25</ele><time>2026-04-26T10:06:00.941Z</time></trkpt><trkpt lat="43.3957788" lon="11.4194507"><ele>310.0</ele><time>2026-04-26T10:06:01.948Z</time></trkpt><trkpt lat="43.3956782" lon="11.4193712"><ele>310.0</ele><time>2026-04-26T10:06:02.93Z</time></trkpt><trkpt lat="43.3955802" lon="11.4193034"><ele>310.0</ele><time>2026-04-26T10:06:03.936Z</time></trkpt><trkpt lat="43.3954915" lon="11.4192541"><ele>310.0</ele><time>2026-04-26T10:06:04.944Z</time></trkpt><trkpt lat="43.3954205" lon="11.4192263"><ele>310.0</ele><time>2026-04-26T10:06:05.945Z</time></trkpt><trkpt lat="43.3953017" lon="11.4192496"><ele>310.0</ele><time>2026-04-26T10:06:07.944Z</time></trkpt><trkpt lat="43.3952431" lon="11.4192997"><ele>311.2</ele><time>2026-04-26T10:06:08.964Z</time></trkpt><trkpt lat="43.3951862" lon="11.4193709"><ele>312.4</ele><time>2026-04-26T10:06:09.952Z</time></trkpt><trkpt lat="43.3951295" lon="11.4194605"><ele>313.6</ele><time>2026-04-26T10:06:10.959Z</time></trkpt><trkpt lat="43.3950702" lon="11.419559"><ele>314.8</ele><time>2026-04-26T10:06:11.959Z</time></trkpt><trkpt lat="43.3950073" lon="11.4196607"><ele>316.0</ele><time>2026-04-26T10:06:12.955Z</time></trkpt><trkpt lat="43.3949421" lon="11.4197642"><ele>316.8333333333333</ele><time>2026-04-26T10:06:13.942Z</time></trkpt><trkpt lat="43.3948794" lon="11.4198647"><ele>317.66666666666663</ele><time>2026-04-26T10:06:14.951Z</time></trkpt><trkpt lat="43.3948203" lon="11.4199507"><ele>318.5</ele><time>2026-04-26T10:06:15.932Z</time></trkpt><trkpt lat="43.3947569" lon="11.4200145"><ele>319.3333333333333</ele><time>2026-04-26T10:06:16.929Z</time></trkpt><trkpt lat="43.394684" lon="11.4200585"><ele>320.1666666666667</ele><time>2026-04-26T10:06:17.922Z</time></trkpt><trkpt lat="43.3945997" lon="11.4200893"><ele>321.0</ele><time>2026-04-26T10:06:18.926Z</time></trkpt><trkpt lat="43.3945034" lon="11.4201153"><ele>321.75</ele><time>2026-04-26T10:06:19.931Z</time></trkpt><trkpt lat="43.3943941" lon="11.4201425"><ele>322.5</ele><time>2026-04-26T10:06:20.931Z</time></trkpt><trkpt lat="43.3942708" lon="11.420178"><ele>323.25</ele><time>2026-04-26T10:06:21.938Z</time></trkpt><trkpt lat="43.3941439" lon="11.4202208"><ele>324.0</ele><time>2026-04-26T10:06:22.929Z</time></trkpt><trkpt lat="43.394028" lon="11.4202666"><ele>324.0</ele><time>2026-04-26T10:06:23.939Z</time></trkpt><trkpt lat="43.3939324" lon="11.4203131"><ele>324.0</ele><time>2026-04-26T10:06:24.931Z</time></trkpt><trkpt lat="43.3938539" lon="11.4203654"><ele>324.0</ele><time>2026-04-26T10:06:25.932Z</time></trkpt><trkpt lat="43.393792" lon="11.4204252"><ele>324.0</ele><time>2026-04-26T10:06:26.942Z</time></trkpt><trkpt lat="43.3937469" lon="11.4205001"><ele>324.0</ele><time>2026-04-26T10:06:27.931Z</time></trkpt><trkpt lat="43.3937122" lon="11.4205994"><ele>324.0</ele><time>2026-04-26T10:06:28.942Z</time></trkpt><trkpt lat="43.3936867" lon="11.4207244"><ele>324.25</ele><time>2026-04-26T10:06:29.94Z</time></trkpt><trkpt lat="43.3936698" lon="11.4208727"><ele>324.5</ele><time>2026-04-26T10:06:30.942Z</time></trkpt><trkpt lat="43.3936565" lon="11.4210369"><ele>324.75</ele><time>2026-04-26T10:06:31.936Z</time></trkpt><trkpt lat="43.3936428" lon="11.421212"><ele>325.0</ele><time>2026-04-26T10:06:32.934Z</time></trkpt><trkpt lat="43.3936257" lon="11.4213955"><ele>325.0</ele><time>2026-04-26T10:06:33.935Z</time></trkpt><trkpt lat="43.393606" lon="11.4215779"><ele>325.0</ele><time>2026-04-26T10:06:34.931Z</time></trkpt><trkpt lat="43.3935842" lon="11.4217468"><ele>325.0</ele><time>2026-04-26T10:06:35.942Z</time></trkpt><trkpt lat="43.3935604" lon="11.4219039"><ele>325.0</ele><time>2026-04-26T10:06:36.929Z</time></trkpt><trkpt lat="43.3935291" lon="11.4220612"><ele>326.0</ele><time>2026-04-26T10:06:37.939Z</time></trkpt><trkpt lat="43.3934869" lon="11.4222115"><ele>327.0</ele><time>2026-04-26T10:06:38.927Z</time></trkpt><trkpt lat="43.393431" lon="11.4223537"><ele>328.0</ele><time>2026-04-26T10:06:39.928Z</time></trkpt><trkpt lat="43.3933602" lon="11.4224844"><ele>329.0</ele><time>2026-04-26T10:06:40.936Z</time></trkpt><trkpt lat="43.3932744" lon="11.4225913"><ele>329.0</ele><time>2026-04-26T10:06:41.934Z</time></trkpt><trkpt lat="43.3931769" lon="11.4226699"><ele>329.0</ele><time>2026-04-26T10:06:42.945Z</time></trkpt><trkpt lat="43.3930717" lon="11.4227152"><ele>329.0</ele><time>2026-04-26T10:06:43.934Z</time></trkpt><trkpt lat="43.392954" lon="11.4227285"><ele>329.0</ele><time>2026-04-26T10:06:44.952Z</time></trkpt><trkpt lat="43.3928334" lon="11.4227227"><ele>329.0</ele><time>2026-04-26T10:06:45.967Z</time></trkpt><trkpt lat="43.3927247" lon="11.4227153"><ele>329.0</ele><time>2026-04-26T10:06:46.956Z</time></trkpt><trkpt lat="43.3926281" lon="11.4227199"><ele>329.0</ele><time>2026-04-26T10:06:47.951Z</time></trkpt><trkpt lat="43.3925324" lon="11.4227411"><ele>329.0</ele><time>2026-04-26T10:06:48.958Z</time></trkpt><trkpt lat="43.3924397" lon="11.4227815"><ele>329.0</ele><time>2026-04-26T10:06:49.966Z</time></trkpt><trkpt lat="43.3923519" lon="11.4228435"><ele>329.0</ele><time>2026-04-26T10:06:50.951Z</time></trkpt><trkpt lat="43.3922679" lon="11.4229254"><ele>329.0</ele><time>2026-04-26T10:06:51.959Z</time></trkpt><trkpt lat="43.3921874" lon="11.4230197"><ele>329.0</ele><time>2026-04-26T10:06:52.935Z</time></trkpt><trkpt lat="43.3921068" lon="11.4231262"><ele>329.0</ele><time>2026-04-26T10:06:53.955Z</time></trkpt><trkpt lat="43.3920369" lon="11.4232337"><ele>329.0</ele><time>2026-04-26T10:06:54.949Z</time></trkpt><trkpt lat="43.391985" lon="11.4233451"><ele>329.25</ele><time>2026-04-26T10:06:55.951Z</time></trkpt><trkpt lat="43.3919487" lon="11.423473"><ele>329.5</ele><time>2026-04-26T10:06:56.953Z</time></trkpt><trkpt lat="43.3919205" lon="11.42362"><ele>329.75</ele><time>2026-04-26T10:06:57.944Z</time></trkpt><trkpt lat="43.3918934" lon="11.4237878"><ele>330.0</ele><time>2026-04-26T10:06:58.946Z</time></trkpt><trkpt lat="43.391867" lon="11.4239687"><ele>330.0</ele><time>2026-04-26T10:06:59.95Z</time></trkpt><trkpt lat="43.3918428" lon="11.4241444"><ele>330.0</ele><time>2026-04-26T10:07:00.948Z</time></trkpt><trkpt lat="43.3918201" lon="11.424309"><ele>330.0</ele><time>2026-04-26T10:07:01.954Z</time></trkpt><trkpt lat="43.3917965" lon="11.4244624"><ele>330.0</ele><time>2026-04-26T10:07:02.945Z</time></trkpt><trkpt lat="43.3917663" lon="11.4246039"><ele>330.0</ele><time>2026-04-26T10:07:03.94Z</time></trkpt><trkpt lat="43.3917246" lon="11.4247279"><ele>330.0</ele><time>2026-04-26T10:07:04.934Z</time></trkpt><trkpt lat="43.391669" lon="11.4248327"><ele>330.0</ele><time>2026-04-26T10:07:05.935Z</time></trkpt><trkpt lat="43.3915964" lon="11.4249167"><ele>330.0</ele><time>2026-04-26T10:07:06.929Z</time></trkpt><trkpt lat="43.3915039" lon="11.4249817"><ele>330.0</ele><time>2026-04-26T10:07:07.942Z</time></trkpt><trkpt lat="43.3913984" lon="11.4250303"><ele>328.5</ele><time>2026-04-26T10:07:08.943Z</time></trkpt><trkpt lat="43.3912953" lon="11.4250744"><ele>327.0</ele><time>2026-04-26T10:07:09.932Z</time></trkpt><trkpt lat="43.3912059" lon="11.425123"><ele>325.5</ele><time>2026-04-26T10:07:10.956Z</time></trkpt><trkpt lat="43.3911378" lon="11.4251785"><ele>324.0</ele><time>2026-04-26T10:07:11.943Z</time></trkpt><trkpt lat="43.3910863" lon="11.425249"><ele>322.5</ele><time>2026-04-26T10:07:12.951Z</time></trkpt><trkpt lat="43.3910454" lon="11.4253462"><ele>321.0</ele><time>2026-04-26T10:07:13.951Z</time></trkpt><trkpt lat="43.3910072" lon="11.4254725"><ele>321.25</ele><time>2026-04-26T10:07:14.95Z</time></trkpt><trkpt lat="43.3909678" lon="11.4256202"><ele>321.5</ele><time>2026-04-26T10:07:15.932Z</time></trkpt><trkpt lat="43.3909185" lon="11.4257749"><ele>321.75</ele><time>2026-04-26T10:07:16.937Z</time></trkpt><trkpt lat="43.3908569" lon="11.4259139"><ele>322.0</ele><time>2026-04-26T10:07:17.944Z</time></trkpt><trkpt lat="43.3907968" lon="11.4260355"><ele>322.0</ele><time>2026-04-26T10:07:18.949Z</time></trkpt><trkpt lat="43.3907507" lon="11.4261473"><ele>322.0</ele><time>2026-04-26T10:07:19.947Z</time></trkpt><trkpt lat="43.3907231" lon="11.4262497"><ele>322.0</ele><time>2026-04-26T10:07:20.935Z</time></trkpt><trkpt lat="43.3907145" lon="11.4263421"><ele>322.0</ele><time>2026-04-26T10:07:21.949Z</time></trkpt><trkpt lat="43.3907594" lon="11.4264971"><ele>322.0</ele><time>2026-04-26T10:07:23.948Z</time></trkpt><trkpt lat="43.3908078" lon="11.4265624"><ele>322.0</ele><time>2026-04-26T10:07:24.956Z</time></trkpt><trkpt lat="43.3908766" lon="11.4266257"><ele>320.8</ele><time>2026-04-26T10:07:25.95Z</time></trkpt><trkpt lat="43.3909634" lon="11.4266881"><ele>319.6</ele><time>2026-04-26T10:07:26.95Z</time></trkpt><trkpt lat="43.3910486" lon="11.4267565"><ele>318.40000000000003</ele><time>2026-04-26T10:07:27.938Z</time></trkpt><trkpt lat="43.3911139" lon="11.426828"><ele>317.20000000000005</ele><time>2026-04-26T10:07:28.941Z</time></trkpt><trkpt lat="43.3911529" lon="11.4269078"><ele>316.0</ele><time>2026-04-26T10:07:29.928Z</time></trkpt><trkpt lat="43.3911432" lon="11.4271079"><ele>314.8333333333333</ele><time>2026-04-26T10:07:31.927Z</time></trkpt><trkpt lat="43.3910891" lon="11.4272048"><ele>313.66666666666663</ele><time>2026-04-26T10:07:32.926Z</time></trkpt><trkpt lat="43.3910086" lon="11.4272916"><ele>312.5</ele><time>2026-04-26T10:07:33.944Z</time></trkpt><trkpt lat="43.3909288" lon="11.4273728"><ele>311.3333333333333</ele><time>2026-04-26T10:07:34.932Z</time></trkpt><trkpt lat="43.3908696" lon="11.4274542"><ele>310.1666666666667</ele><time>2026-04-26T10:07:35.938Z</time></trkpt><trkpt lat="43.3908327" lon="11.4275356"><ele>309.0</ele><time>2026-04-26T10:07:36.95Z</time></trkpt><trkpt lat="43.3908134" lon="11.4276228"><ele>309.0</ele><time>2026-04-26T10:07:37.943Z</time></trkpt><trkpt lat="43.390808" lon="11.4277158"><ele>309.0</ele><time>2026-04-26T10:07:38.958Z</time></trkpt><trkpt lat="43.3908154" lon="11.4278198"><ele>309.0</ele><time>2026-04-26T10:07:39.947Z</time></trkpt><trkpt lat="43.3908333" lon="11.4279487"><ele>309.0</ele><time>2026-04-26T10:07:40.958Z</time></trkpt><trkpt lat="43.3908626" lon="11.4280952"><ele>309.0</ele><time>2026-04-26T10:07:41.948Z</time></trkpt><trkpt lat="43.3909019" lon="11.4282458"><ele>307.4</ele><time>2026-04-26T10:07:42.968Z</time></trkpt><trkpt lat="43.3909437" lon="11.4283826"><ele>305.79999999999995</ele><time>2026-04-26T10:07:43.955Z</time></trkpt><trkpt lat="43.3909874" lon="11.4285132"><ele>304.20000000000005</ele><time>2026-04-26T10:07:44.977Z</time></trkpt><trkpt lat="43.3910344" lon="11.4286333"><ele>302.6</ele><time>2026-04-26T10:07:45.951Z</time></trkpt><trkpt lat="43.391089" lon="11.4287467"><ele>301.0</ele><time>2026-04-26T10:07:46.959Z</time></trkpt><trkpt lat="43.391153" lon="11.4288519"><ele>301.0</ele><time>2026-04-26T10:07:47.95Z</time></trkpt><trkpt lat="43.3912297" lon="11.4289506"><ele>301.0</ele><time>2026-04-26T10:07:48.957Z</time></trkpt><trkpt lat="43.3913206" lon="11.4290429"><ele>301.0</ele><time>2026-04-26T10:07:49.941Z</time></trkpt><trkpt lat="43.3914171" lon="11.429131"><ele>301.0</ele><time>2026-04-26T10:07:50.947Z</time></trkpt><trkpt lat="43.3914975" lon="11.4292072"><ele>301.0</ele><time>2026-04-26T10:07:51.943Z</time></trkpt><trkpt lat="43.3915548" lon="11.4292819"><ele>301.0</ele><time>2026-04-26T10:07:52.94Z</time></trkpt><trkpt lat="43.3915863" lon="11.4293622"><ele>301.0</ele><time>2026-04-26T10:07:53.929Z</time></trkpt><trkpt lat="43.3915975" lon="11.4294569"><ele>301.0</ele><time>2026-04-26T10:07:54.935Z</time></trkpt><trkpt lat="43.3915939" lon="11.4295665"><ele>301.0</ele><time>2026-04-26T10:07:55.922Z</time></trkpt><trkpt lat="43.3915761" lon="11.4296785"><ele>301.0</ele><time>2026-04-26T10:07:56.939Z</time></trkpt><trkpt lat="43.3915428" lon="11.4297871"><ele>301.0</ele><time>2026-04-26T10:07:57.937Z</time></trkpt><trkpt lat="43.3914931" lon="11.4299015"><ele>300.0</ele><time>2026-04-26T10:07:58.935Z</time></trkpt><trkpt lat="43.3914274" lon="11.4300053"><ele>299.0</ele><time>2026-04-26T10:07:59.956Z</time></trkpt><trkpt lat="43.3913521" lon="11.4300814"><ele>298.0</ele><time>2026-04-26T10:08:00.945Z</time></trkpt><trkpt lat="43.3912663" lon="11.4301314"><ele>297.0</ele><time>2026-04-26T10:08:01.943Z</time></trkpt><trkpt lat="43.3911683" lon="11.4301573"><ele>296.0</ele><time>2026-04-26T10:08:02.957Z</time></trkpt><trkpt lat="43.391057" lon="11.4301668"><ele>296.0</ele><time>2026-04-26T10:08:03.936Z</time></trkpt><trkpt lat="43.3909318" lon="11.4301638"><ele>296.0</ele><time>2026-04-26T10:08:04.941Z</time></trkpt><trkpt lat="43.3908015" lon="11.4301454"><ele>296.0</ele><time>2026-04-26T10:08:05.932Z</time></trkpt><trkpt lat="43.3906672" lon="11.4301086"><ele>296.0</ele><time>2026-04-26T10:08:06.953Z</time></trkpt><trkpt lat="43.3905278" lon="11.4300401"><ele>299.6666666666667</ele><time>2026-04-26T10:08:07.966Z</time></trkpt><trkpt lat="43.3903893" lon="11.4299467"><ele>303.3333333333333</ele><time>2026-04-26T10:08:08.938Z</time></trkpt><trkpt lat="43.3902535" lon="11.4298387"><ele>307.0</ele><time>2026-04-26T10:08:09.948Z</time></trkpt><trkpt lat="43.3901235" lon="11.4297358"><ele>303.75</ele><time>2026-04-26T10:08:10.927Z</time></trkpt><trkpt lat="43.3900001" lon="11.4296414"><ele>300.5</ele><time>2026-04-26T10:08:11.936Z</time></trkpt><trkpt lat="43.3898873" lon="11.4295464"><ele>297.25</ele><time>2026-04-26T10:08:12.946Z</time></trkpt><trkpt lat="43.3897829" lon="11.4294402"><ele>294.0</ele><time>2026-04-26T10:08:13.935Z</time></trkpt><trkpt lat="43.3896843" lon="11.4293167"><ele>294.0</ele><time>2026-04-26T10:08:14.937Z</time></trkpt><trkpt lat="43.3895873" lon="11.4291797"><ele>294.0</ele><time>2026-04-26T10:08:15.945Z</time></trkpt><trkpt lat="43.3894901" lon="11.429037"><ele>294.0</ele><time>2026-04-26T10:08:16.93Z</time></trkpt><trkpt lat="43.3893968" lon="11.4289019"><ele>294.0</ele><time>2026-04-26T10:08:17.931Z</time></trkpt><trkpt lat="43.389315" lon="11.4287902"><ele>294.0</ele><time>2026-04-26T10:08:18.933Z</time></trkpt><trkpt lat="43.3892453" lon="11.4287062"><ele>294.0</ele><time>2026-04-26T10:08:19.925Z</time></trkpt><trkpt lat="43.3891879" lon="11.4286495"><ele>294.0</ele><time>2026-04-26T10:08:20.933Z</time></trkpt><trkpt lat="43.3890843" lon="11.4286036"><ele>294.0</ele><time>2026-04-26T10:08:22.93Z</time></trkpt><trkpt lat="43.3890213" lon="11.428599"><ele>294.0</ele><time>2026-04-26T10:08:23.937Z</time></trkpt><trkpt lat="43.3889414" lon="11.4286034"><ele>294.0</ele><time>2026-04-26T10:08:24.947Z</time></trkpt><trkpt lat="43.3888465" lon="11.4286114"><ele>295.4</ele><time>2026-04-26T10:08:25.938Z</time></trkpt><trkpt lat="43.3887359" lon="11.4286187"><ele>296.79999999999995</ele><time>2026-04-26T10:08:26.942Z</time></trkpt><trkpt lat="43.3886241" lon="11.4286123"><ele>298.20000000000005</ele><time>2026-04-26T10:08:27.966Z</time></trkpt><trkpt lat="43.3885237" lon="11.4285965"><ele>299.6</ele><time>2026-04-26T10:08:28.93Z</time></trkpt><trkpt lat="43.3884256" lon="11.428568"><ele>301.0</ele><time>2026-04-26T10:08:29.951Z</time></trkpt><trkpt lat="43.388328" lon="11.4285207"><ele>301.0</ele><time>2026-04-26T10:08:30.933Z</time></trkpt><trkpt lat="43.3882304" lon="11.4284652"><ele>301.0</ele><time>2026-04-26T10:08:31.936Z</time></trkpt><trkpt lat="43.3881406" lon="11.4284175"><ele>301.0</ele><time>2026-04-26T10:08:32.944Z</time></trkpt><trkpt lat="43.388058" lon="11.4283846"><ele>301.0</ele><time>2026-04-26T10:08:33.95Z</time></trkpt><trkpt lat="43.3879732" lon="11.4283671"><ele>301.0</ele><time>2026-04-26T10:08:34.95Z</time></trkpt><trkpt lat="43.3878826" lon="11.4283648"><ele>301.6</ele><time>2026-04-26T10:08:35.957Z</time></trkpt><trkpt lat="43.3877868" lon="11.4283793"><ele>302.20000000000005</ele><time>2026-04-26T10:08:36.948Z</time></trkpt><trkpt lat="43.3876823" lon="11.428407"><ele>302.79999999999995</ele><time>2026-04-26T10:08:37.942Z</time></trkpt><trkpt lat="43.3875677" lon="11.4284431"><ele>303.4</ele><time>2026-04-26T10:08:38.957Z</time></trkpt><trkpt lat="43.3874464" lon="11.4284827"><ele>304.0</ele><time>2026-04-26T10:08:39.958Z</time></trkpt><trkpt lat="43.3873269" lon="11.4285241"><ele>304.0</ele><time>2026-04-26T10:08:40.95Z</time></trkpt><trkpt lat="43.3872147" lon="11.4285653"><ele>304.0</ele><time>2026-04-26T10:08:41.948Z</time></trkpt><trkpt lat="43.3870982" lon="11.4286073"><ele>304.0</ele><time>2026-04-26T10:08:42.942Z</time></trkpt><trkpt lat="43.3869771" lon="11.4286469"><ele>304.0</ele><time>2026-04-26T10:08:43.944Z</time></trkpt><trkpt lat="43.3868535" lon="11.4286842"><ele>303.5</ele><time>2026-04-26T10:08:44.937Z</time></trkpt><trkpt lat="43.3867304" lon="11.4287198"><ele>303.0</ele><time>2026-04-26T10:08:45.95Z</time></trkpt><trkpt lat="43.3866109" lon="11.4287555"><ele>302.5</ele><time>2026-04-26T10:08:46.951Z</time></trkpt><trkpt lat="43.3864857" lon="11.4287925"><ele>302.0</ele><time>2026-04-26T10:08:47.962Z</time></trkpt><trkpt lat="43.3863587" lon="11.4288306"><ele>299.5</ele><time>2026-04-26T10:08:48.974Z</time></trkpt><trkpt lat="43.3862354" lon="11.4288676"><ele>297.0</ele><time>2026-04-26T10:08:49.954Z</time></trkpt><trkpt lat="43.3861078" lon="11.4289063"><ele>294.5</ele><time>2026-04-26T10:08:50.962Z</time></trkpt><trkpt lat="43.3859778" lon="11.428946"><ele>292.0</ele><time>2026-04-26T10:08:51.963Z</time></trkpt><trkpt lat="43.3858495" lon="11.4289847"><ele>292.0</ele><time>2026-04-26T10:08:52.955Z</time></trkpt><trkpt lat="43.3857247" lon="11.4290212"><ele>292.0</ele><time>2026-04-26T10:08:53.972Z</time></trkpt><trkpt lat="43.3856073" lon="11.4290535"><ele>292.0</ele><time>2026-04-26T10:08:54.963Z</time></trkpt><trkpt lat="43.3854909" lon="11.4290869"><ele>292.0</ele><time>2026-04-26T10:08:55.951Z</time></trkpt><trkpt lat="43.3853731" lon="11.4291227"><ele>290.5</ele><time>2026-04-26T10:08:56.977Z</time></trkpt><trkpt lat="43.3852679" lon="11.4291548"><ele>289.0</ele><time>2026-04-26T10:08:57.95Z</time></trkpt><trkpt lat="43.3851719" lon="11.4291841"><ele>287.5</ele><time>2026-04-26T10:08:58.963Z</time></trkpt><trkpt lat="43.3850871" lon="11.4292118"><ele>286.0</ele><time>2026-04-26T10:08:59.952Z</time></trkpt><trkpt lat="43.3850135" lon="11.4292412"><ele>284.5</ele><time>2026-04-26T10:09:00.953Z</time></trkpt><trkpt lat="43.3849505" lon="11.4292735"><ele>283.0</ele><time>2026-04-26T10:09:01.944Z</time></trkpt><trkpt lat="43.3848674" lon="11.4293596"><ele>283.0</ele><time>2026-04-26T10:09:03.947Z</time></trkpt><trkpt lat="43.3848362" lon="11.4295164"><ele>283.0</ele><time>2026-04-26T10:09:05.946Z</time></trkpt><trkpt lat="43.384833" lon="11.4296333"><ele>283.0</ele><time>2026-04-26T10:09:06.947Z</time></trkpt><trkpt lat="43.3848317" lon="11.4297654"><ele>283.0</ele><time>2026-04-26T10:09:07.935Z</time></trkpt><trkpt lat="43.3848229" lon="11.429899"><ele>283.0</ele><time>2026-04-26T10:09:08.937Z</time></trkpt><trkpt lat="43.3847987" lon="11.4300319"><ele>283.2</ele><time>2026-04-26T10:09:09.949Z</time></trkpt><trkpt lat="43.3847645" lon="11.4301639"><ele>283.4</ele><time>2026-04-26T10:09:10.936Z</time></trkpt><trkpt lat="43.3847321" lon="11.4302976"><ele>283.59999999999997</ele><time>2026-04-26T10:09:11.946Z</time></trkpt><trkpt lat="43.3847126" lon="11.4304297"><ele>283.8</ele><time>2026-04-26T10:09:12.95Z</time></trkpt><trkpt lat="43.3847059" lon="11.4305617"><ele>284.0</ele><time>2026-04-26T10:09:13.956Z</time></trkpt><trkpt lat="43.3847124" lon="11.4306977"><ele>284.0</ele><time>2026-04-26T10:09:14.951Z</time></trkpt><trkpt lat="43.3847308" lon="11.4308425"><ele>284.0</ele><time>2026-04-26T10:09:15.951Z</time></trkpt><trkpt lat="43.3847542" lon="11.4309808"><ele>284.0</ele><time>2026-04-26T10:09:16.948Z</time></trkpt><trkpt lat="43.384773" lon="11.4311009"><ele>284.0</ele><time>2026-04-26T10:09:17.937Z</time></trkpt><trkpt lat="43.3847729" lon="11.4312065"><ele>284.0</ele><time>2026-04-26T10:09:18.943Z</time></trkpt><trkpt lat="43.3847434" lon="11.4312991"><ele>283.83333333333337</ele><time>2026-04-26T10:09:19.936Z</time></trkpt><trkpt lat="43.3846886" lon="11.431386"><ele>283.6666666666667</ele><time>2026-04-26T10:09:20.933Z</time></trkpt><trkpt lat="43.3846146" lon="11.4314531"><ele>283.5</ele><time>2026-04-26T10:09:21.934Z</time></trkpt><trkpt lat="43.3845368" lon="11.4314766"><ele>283.3333333333333</ele><time>2026-04-26T10:09:22.938Z</time></trkpt><trkpt lat="43.3844621" lon="11.4314548"><ele>283.16666666666663</ele><time>2026-04-26T10:09:23.926Z</time></trkpt><trkpt lat="43.3843842" lon="11.4313928"><ele>283.0</ele><time>2026-04-26T10:09:24.938Z</time></trkpt><trkpt lat="43.3842951" lon="11.4312914"><ele>281.3333333333333</ele><time>2026-04-26T10:09:25.937Z</time></trkpt><trkpt lat="43.3841934" lon="11.4311588"><ele>279.6666666666667</ele><time>2026-04-26T10:09:26.939Z</time></trkpt><trkpt lat="43.3840818" lon="11.4310137"><ele>278.0</ele><time>2026-04-26T10:09:27.942Z</time></trkpt><trkpt lat="43.3839659" lon="11.430867"><ele>278.0</ele><time>2026-04-26T10:09:28.929Z</time></trkpt><trkpt lat="43.3838578" lon="11.4307223"><ele>278.0</ele><time>2026-04-26T10:09:29.938Z</time></trkpt><trkpt lat="43.3837654" lon="11.4305916"><ele>278.0</ele><time>2026-04-26T10:09:30.941Z</time></trkpt><trkpt lat="43.3836878" lon="11.4304742"><ele>278.0</ele><time>2026-04-26T10:09:31.925Z</time></trkpt><trkpt lat="43.3836175" lon="11.4303735"><ele>277.5</ele><time>2026-04-26T10:09:32.942Z</time></trkpt><trkpt lat="43.3835489" lon="11.430297"><ele>277.0</ele><time>2026-04-26T10:09:33.928Z</time></trkpt><trkpt lat="43.3834775" lon="11.4302454"><ele>276.5</ele><time>2026-04-26T10:09:34.938Z</time></trkpt><trkpt lat="43.3834039" lon="11.4302246"><ele>276.0</ele><time>2026-04-26T10:09:35.925Z</time></trkpt><trkpt lat="43.3833261" lon="11.4302314"><ele>275.5</ele><time>2026-04-26T10:09:36.949Z</time></trkpt><trkpt lat="43.3832537" lon="11.4302615"><ele>275.0</ele><time>2026-04-26T10:09:37.948Z</time></trkpt><trkpt lat="43.3831899" lon="11.4303096"><ele>275.0</ele><time>2026-04-26T10:09:38.957Z</time></trkpt><trkpt lat="43.3831307" lon="11.4303739"><ele>275.0</ele><time>2026-04-26T10:09:39.947Z</time></trkpt><trkpt lat="43.3830775" lon="11.4304516"><ele>275.0</ele><time>2026-04-26T10:09:40.956Z</time></trkpt><trkpt lat="43.3830402" lon="11.4305365"><ele>275.0</ele><time>2026-04-26T10:09:41.942Z</time></trkpt><trkpt lat="43.3830215" lon="11.4306301"><ele>275.0</ele><time>2026-04-26T10:09:42.947Z</time></trkpt><trkpt lat="43.3830228" lon="11.430719"><ele>275.0</ele><time>2026-04-26T10:09:43.934Z</time></trkpt><trkpt lat="43.3830823" lon="11.4308521"><ele>277.0</ele><time>2026-04-26T10:09:45.951Z</time></trkpt><trkpt lat="43.3831398" lon="11.4308884"><ele>279.0</ele><time>2026-04-26T10:09:46.935Z</time></trkpt><trkpt lat="43.3832088" lon="11.4309047"><ele>281.0</ele><time>2026-04-26T10:09:47.947Z</time></trkpt><trkpt lat="43.383286" lon="11.4309098"><ele>283.0</ele><time>2026-04-26T10:09:48.962Z</time></trkpt><trkpt lat="43.3833658" lon="11.4309175"><ele>285.0</ele><time>2026-04-26T10:09:49.944Z</time></trkpt><trkpt lat="43.3834372" lon="11.4309417"><ele>287.0</ele><time>2026-04-26T10:09:50.956Z</time></trkpt><trkpt lat="43.383515" lon="11.4310633"><ele>287.0</ele><time>2026-04-26T10:09:52.94Z</time></trkpt><trkpt lat="43.3834896" lon="11.4312416"><ele>287.0</ele><time>2026-04-26T10:09:54.935Z</time></trkpt><trkpt lat="43.3834452" lon="11.4313371"><ele>287.0</ele><time>2026-04-26T10:09:55.938Z</time></trkpt><trkpt lat="43.3833845" lon="11.4314274"><ele>287.0</ele><time>2026-04-26T10:09:56.935Z</time></trkpt><trkpt lat="43.3833073" lon="11.4315109"><ele>287.0</ele><time>2026-04-26T10:09:57.937Z</time></trkpt><trkpt lat="43.3832133" lon="11.4315852"><ele>289.0</ele><time>2026-04-26T10:09:58.928Z</time></trkpt><trkpt lat="43.3831065" lon="11.4316467"><ele>291.0</ele><time>2026-04-26T10:09:59.943Z</time></trkpt><trkpt lat="43.3829904" lon="11.4316912"><ele>293.0</ele><time>2026-04-26T10:10:00.956Z</time></trkpt><trkpt lat="43.3828677" lon="11.4317249"><ele>295.0</ele><time>2026-04-26T10:10:01.939Z</time></trkpt><trkpt lat="43.3827377" lon="11.431762"><ele>295.0</ele><time>2026-04-26T10:10:02.954Z</time></trkpt><trkpt lat="43.3826005" lon="11.4318063"><ele>295.0</ele><time>2026-04-26T10:10:03.978Z</time></trkpt><trkpt lat="43.3824599" lon="11.4318505"><ele>295.0</ele><time>2026-04-26T10:10:04.942Z</time></trkpt><trkpt lat="43.3823106" lon="11.4318946"><ele>295.0</ele><time>2026-04-26T10:10:05.962Z</time></trkpt><trkpt lat="43.3821616" lon="11.43194"><ele>296.25</ele><time>2026-04-26T10:10:06.949Z</time></trkpt><trkpt lat="43.3820226" lon="11.4319834"><ele>297.5</ele><time>2026-04-26T10:10:07.949Z</time></trkpt><trkpt lat="43.381899" lon="11.4320231"><ele>298.75</ele><time>2026-04-26T10:10:08.936Z</time></trkpt><trkpt lat="43.3817904" lon="11.4320542"><ele>300.0</ele><time>2026-04-26T10:10:09.955Z</time></trkpt><trkpt lat="43.3816976" lon="11.4320627"><ele>300.0</ele><time>2026-04-26T10:10:10.933Z</time></trkpt><trkpt lat="43.3816118" lon="11.4320416"><ele>300.0</ele><time>2026-04-26T10:10:11.939Z</time></trkpt><trkpt lat="43.3815369" lon="11.4319874"><ele>300.0</ele><time>2026-04-26T10:10:12.941Z</time></trkpt><trkpt lat="43.3814774" lon="11.4319057"><ele>300.0</ele><time>2026-04-26T10:10:13.947Z</time></trkpt><trkpt lat="43.381428" lon="11.4318016"><ele>300.0</ele><time>2026-04-26T10:10:14.938Z</time></trkpt><trkpt lat="43.3813842" lon="11.4316775"><ele>300.0</ele><time>2026-04-26T10:10:15.947Z</time></trkpt><trkpt lat="43.3813409" lon="11.4315388"><ele>303.5</ele><time>2026-04-26T10:10:16.949Z</time></trkpt><trkpt lat="43.3812975" lon="11.4313936"><ele>307.0</ele><time>2026-04-26T10:10:17.942Z</time></trkpt><trkpt lat="43.3812533" lon="11.4312436"><ele>310.5</ele><time>2026-04-26T10:10:18.943Z</time></trkpt><trkpt lat="43.381208" lon="11.4310931"><ele>314.0</ele><time>2026-04-26T10:10:19.949Z</time></trkpt><trkpt lat="43.3811595" lon="11.4309395"><ele>314.0</ele><time>2026-04-26T10:10:20.936Z</time></trkpt><trkpt lat="43.3811105" lon="11.4307936"><ele>314.0</ele><time>2026-04-26T10:10:21.939Z</time></trkpt><trkpt lat="43.3810699" lon="11.430674"><ele>314.0</ele><time>2026-04-26T10:10:22.946Z</time></trkpt><trkpt lat="43.3810321" lon="11.430583"><ele>314.0</ele><time>2026-04-26T10:10:23.938Z</time></trkpt><trkpt lat="43.3809564" lon="11.4304676"><ele>314.0</ele><time>2026-04-26T10:10:25.94Z</time></trkpt><trkpt lat="43.3808546" lon="11.4304155"><ele>314.0</ele><time>2026-04-26T10:10:27.952Z</time></trkpt><trkpt lat="43.3807758" lon="11.4304587"><ele>314.0</ele><time>2026-04-26T10:10:29.962Z</time></trkpt><trkpt lat="43.3807093" lon="11.4305807"><ele>314.0</ele><time>2026-04-26T10:10:31.949Z</time></trkpt><trkpt lat="43.3806619" lon="11.4306743"><ele>314.0</ele><time>2026-04-26T10:10:32.948Z</time></trkpt><trkpt lat="43.3805949" lon="11.4307908"><ele>314.0</ele><time>2026-04-26T10:10:33.957Z</time></trkpt><trkpt lat="43.3805116" lon="11.4309262"><ele>313.25</ele><time>2026-04-26T10:10:34.938Z</time></trkpt><trkpt lat="43.3804171" lon="11.4310782"><ele>312.5</ele><time>2026-04-26T10:10:35.946Z</time></trkpt><trkpt lat="43.3803163" lon="11.4312324"><ele>311.75</ele><time>2026-04-26T10:10:36.94Z</time></trkpt><trkpt lat="43.3802168" lon="11.4313779"><ele>311.0</ele><time>2026-04-26T10:10:37.957Z</time></trkpt><trkpt lat="43.3801318" lon="11.4315087"><ele>313.0</ele><time>2026-04-26T10:10:38.96Z</time></trkpt><trkpt lat="43.3800647" lon="11.4316326"><ele>315.0</ele><time>2026-04-26T10:10:39.955Z</time></trkpt><trkpt lat="43.3800208" lon="11.4317557"><ele>317.0</ele><time>2026-04-26T10:10:40.958Z</time></trkpt><trkpt lat="43.3800066" lon="11.4318813"><ele>319.0</ele><time>2026-04-26T10:10:41.96Z</time></trkpt><trkpt lat="43.3800186" lon="11.4320146"><ele>321.0</ele><time>2026-04-26T10:10:42.96Z</time></trkpt><trkpt lat="43.3800458" lon="11.4321583"><ele>321.0</ele><time>2026-04-26T10:10:43.945Z</time></trkpt><trkpt lat="43.3800765" lon="11.4322992"><ele>321.0</ele><time>2026-04-26T10:10:44.948Z</time></trkpt><trkpt lat="43.3800977" lon="11.4324156"><ele>321.0</ele><time>2026-04-26T10:10:45.939Z</time></trkpt><trkpt lat="43.3800839" lon="11.4325513"><ele>321.0</ele><time>2026-04-26T10:10:47.938Z</time></trkpt><trkpt lat="43.3799993" lon="11.4325894"><ele>321.0</ele><time>2026-04-26T10:10:49.947Z</time></trkpt><trkpt lat="43.3799305" lon="11.4325868"><ele>321.0</ele><time>2026-04-26T10:10:50.955Z</time></trkpt><trkpt lat="43.3798402" lon="11.4325749"><ele>321.0</ele><time>2026-04-26T10:10:51.958Z</time></trkpt><trkpt lat="43.3797275" lon="11.4325484"><ele>321.0</ele><time>2026-04-26T10:10:52.95Z</time></trkpt><trkpt lat="43.3796041" lon="11.432502"><ele>321.0</ele><time>2026-04-26T10:10:53.956Z</time></trkpt><trkpt lat="43.3794783" lon="11.4324439"><ele>320.25</ele><time>2026-04-26T10:10:54.965Z</time></trkpt><trkpt lat="43.3793468" lon="11.4323825"><ele>319.5</ele><time>2026-04-26T10:10:55.949Z</time></trkpt><trkpt lat="43.3792062" lon="11.4323187"><ele>318.75</ele><time>2026-04-26T10:10:56.979Z</time></trkpt><trkpt lat="43.3790674" lon="11.4322542"><ele>318.0</ele><time>2026-04-26T10:10:57.955Z</time></trkpt><trkpt lat="43.378925" lon="11.4321886"><ele>317.6666666666667</ele><time>2026-04-26T10:10:58.975Z</time></trkpt><trkpt lat="43.3787845" lon="11.4321239"><ele>317.33333333333337</ele><time>2026-04-26T10:10:59.965Z</time></trkpt><trkpt lat="43.3786418" lon="11.4320562"><ele>317.0</ele><time>2026-04-26T10:11:00.974Z</time></trkpt><trkpt lat="43.3784978" lon="11.4319827"><ele>317.0</ele><time>2026-04-26T10:11:01.967Z</time></trkpt><trkpt lat="43.3783498" lon="11.4319041"><ele>317.0</ele><time>2026-04-26T10:11:02.976Z</time></trkpt><trkpt lat="43.3782012" lon="11.4318234"><ele>317.0</ele><time>2026-04-26T10:11:03.959Z</time></trkpt><trkpt lat="43.3780517" lon="11.4317427"><ele>317.5</ele><time>2026-04-26T10:11:04.963Z</time></trkpt><trkpt lat="43.3779107" lon="11.431666"><ele>318.0</ele><time>2026-04-26T10:11:05.967Z</time></trkpt><trkpt lat="43.3777791" lon="11.4315973"><ele>318.5</ele><time>2026-04-26T10:11:06.967Z</time></trkpt><trkpt lat="43.3776554" lon="11.4315359"><ele>319.0</ele><time>2026-04-26T10:11:07.952Z</time></trkpt><trkpt lat="43.3775314" lon="11.4314794"><ele>319.0</ele><time>2026-04-26T10:11:08.947Z</time></trkpt><trkpt lat="43.3773996" lon="11.4314293"><ele>319.0</ele><time>2026-04-26T10:11:09.949Z</time></trkpt><trkpt lat="43.3772597" lon="11.4313893"><ele>319.0</ele><time>2026-04-26T10:11:10.94Z</time></trkpt><trkpt lat="43.3771102" lon="11.4313585"><ele>319.0</ele><time>2026-04-26T10:11:11.948Z</time></trkpt><trkpt lat="43.3769532" lon="11.4313321"><ele>318.0</ele><time>2026-04-26T10:11:12.947Z</time></trkpt><trkpt lat="43.3767901" lon="11.4313076"><ele>317.0</ele><time>2026-04-26T10:11:13.946Z</time></trkpt><trkpt lat="43.3766274" lon="11.4312861"><ele>316.0</ele><time>2026-04-26T10:11:14.955Z</time></trkpt><trkpt lat="43.3764735" lon="11.4312691"><ele>315.25</ele><time>2026-04-26T10:11:15.945Z</time></trkpt><trkpt lat="43.3763239" lon="11.4312534"><ele>314.5</ele><time>2026-04-26T10:11:16.947Z</time></trkpt><trkpt lat="43.3761757" lon="11.4312339"><ele>313.75</ele><time>2026-04-26T10:11:17.939Z</time></trkpt><trkpt lat="43.3760279" lon="11.431205"><ele>313.0</ele><time>2026-04-26T10:11:18.947Z</time></trkpt><trkpt lat="43.3758876" lon="11.4311611"><ele>313.0</ele><time>2026-04-26T10:11:19.937Z</time></trkpt><trkpt lat="43.3757517" lon="11.4310961"><ele>313.0</ele><time>2026-04-26T10:11:20.943Z</time></trkpt><trkpt lat="43.3756156" lon="11.4310076"><ele>313.0</ele><time>2026-04-26T10:11:21.948Z</time></trkpt><trkpt lat="43.375474" lon="11.4309037"><ele>310.0</ele><time>2026-04-26T10:11:22.934Z</time></trkpt><trkpt lat="43.3753235" lon="11.4307937"><ele>307.0</ele><time>2026-04-26T10:11:23.989Z</time></trkpt><trkpt lat="43.3751761" lon="11.4306859"><ele>304.0</ele><time>2026-04-26T10:11:24.946Z</time></trkpt><trkpt lat="43.3750198" lon="11.4305824"><ele>304.0</ele><time>2026-04-26T10:11:25.958Z</time></trkpt><trkpt lat="43.3748593" lon="11.4304956"><ele>304.0</ele><time>2026-04-26T10:11:26.947Z</time></trkpt><trkpt lat="43.3746966" lon="11.4304288"><ele>304.0</ele><time>2026-04-26T10:11:27.95Z</time></trkpt><trkpt lat="43.3745343" lon="11.4303776"><ele>304.3333333333333</ele><time>2026-04-26T10:11:28.96Z</time></trkpt><trkpt lat="43.3743702" lon="11.4303329"><ele>304.6666666666667</ele><time>2026-04-26T10:11:29.954Z</time></trkpt><trkpt lat="43.3742095" lon="11.4302891"><ele>305.0</ele><time>2026-04-26T10:11:30.946Z</time></trkpt><trkpt lat="43.3740577" lon="11.4302416"><ele>305.0</ele><time>2026-04-26T10:11:31.947Z</time></trkpt><trkpt lat="43.3739119" lon="11.4301891"><ele>305.0</ele><time>2026-04-26T10:11:32.95Z</time></trkpt><trkpt lat="43.3737634" lon="11.4301276"><ele>305.0</ele><time>2026-04-26T10:11:33.94Z</time></trkpt><trkpt lat="43.3736066" lon="11.430049"><ele>304.6666666666667</ele><time>2026-04-26T10:11:34.941Z</time></trkpt><trkpt lat="43.3734451" lon="11.4299614"><ele>304.3333333333333</ele><time>2026-04-26T10:11:35.932Z</time></trkpt><trkpt lat="43.3732803" lon="11.4298697"><ele>304.0</ele><time>2026-04-26T10:11:36.943Z</time></trkpt><trkpt lat="43.3731144" lon="11.4297756"><ele>301.66666666666663</ele><time>2026-04-26T10:11:37.934Z</time></trkpt><trkpt lat="43.372942" lon="11.4296754"><ele>299.3333333333333</ele><time>2026-04-26T10:11:38.94Z</time></trkpt><trkpt lat="43.3727686" lon="11.4295727"><ele>297.0</ele><time>2026-04-26T10:11:39.952Z</time></trkpt><trkpt lat="43.3725983" lon="11.429476"><ele>297.0</ele><time>2026-04-26T10:11:40.955Z</time></trkpt><trkpt lat="43.372431" lon="11.4293878"><ele>297.0</ele><time>2026-04-26T10:11:41.944Z</time></trkpt><trkpt lat="43.3722604" lon="11.4292976"><ele>297.0</ele><time>2026-04-26T10:11:42.961Z</time></trkpt><trkpt lat="43.3720942" lon="11.4292038"><ele>295.6666666666667</ele><time>2026-04-26T10:11:43.953Z</time></trkpt><trkpt lat="43.3719379" lon="11.4291099"><ele>294.33333333333337</ele><time>2026-04-26T10:11:44.956Z</time></trkpt><trkpt lat="43.3717908" lon="11.4290221"><ele>293.0</ele><time>2026-04-26T10:11:45.945Z</time></trkpt><trkpt lat="43.3716491" lon="11.4289426"><ele>293.0</ele><time>2026-04-26T10:11:46.964Z</time></trkpt><trkpt lat="43.3715141" lon="11.4288741"><ele>293.0</ele><time>2026-04-26T10:11:47.954Z</time></trkpt><trkpt lat="43.3713759" lon="11.4288137"><ele>293.0</ele><time>2026-04-26T10:11:48.959Z</time></trkpt><trkpt lat="43.3712302" lon="11.4287662"><ele>293.0</ele><time>2026-04-26T10:11:49.96Z</time></trkpt><trkpt lat="43.3710768" lon="11.428729"><ele>293.33333333333337</ele><time>2026-04-26T10:11:50.976Z</time></trkpt><trkpt lat="43.3709183" lon="11.4286941"><ele>293.6666666666667</ele><time>2026-04-26T10:11:51.962Z</time></trkpt><trkpt lat="43.3707526" lon="11.4286612"><ele>294.0</ele><time>2026-04-26T10:11:52.967Z</time></trkpt><trkpt lat="43.3705833" lon="11.428633"><ele>291.6666666666667</ele><time>2026-04-26T10:11:53.968Z</time></trkpt><trkpt lat="43.3704103" lon="11.428608"><ele>289.33333333333337</ele><time>2026-04-26T10:11:54.975Z</time></trkpt><trkpt lat="43.370236" lon="11.4285848"><ele>287.0</ele><time>2026-04-26T10:11:55.961Z</time></trkpt><trkpt lat="43.3700614" lon="11.4285617"><ele>287.0</ele><time>2026-04-26T10:11:56.967Z</time></trkpt><trkpt lat="43.3698924" lon="11.42854"><ele>287.0</ele><time>2026-04-26T10:11:57.953Z</time></trkpt><trkpt lat="43.3697243" lon="11.4285192"><ele>287.0</ele><time>2026-04-26T10:11:58.953Z</time></trkpt><trkpt lat="43.3695557" lon="11.4284986"><ele>285.33333333333337</ele><time>2026-04-26T10:11:59.946Z</time></trkpt><trkpt lat="43.369387" lon="11.4284832"><ele>283.6666666666667</ele><time>2026-04-26T10:12:00.959Z</time></trkpt><trkpt lat="43.3692291" lon="11.4284739"><ele>282.0</ele><time>2026-04-26T10:12:01.951Z</time></trkpt><trkpt lat="43.3690802" lon="11.4284698"><ele>282.0</ele><time>2026-04-26T10:12:02.959Z</time></trkpt><trkpt lat="43.3689418" lon="11.428462"><ele>282.0</ele><time>2026-04-26T10:12:03.96Z</time></trkpt><trkpt lat="43.368808" lon="11.4284373"><ele>282.0</ele><time>2026-04-26T10:12:04.963Z</time></trkpt><trkpt lat="43.3686718" lon="11.4283814"><ele>282.0</ele><time>2026-04-26T10:12:05.963Z</time></trkpt><trkpt lat="43.3685336" lon="11.4282947"><ele>282.6666666666667</ele><time>2026-04-26T10:12:06.975Z</time></trkpt><trkpt lat="43.3684008" lon="11.4281792"><ele>283.33333333333337</ele><time>2026-04-26T10:12:07.978Z</time></trkpt><trkpt lat="43.3682817" lon="11.4280422"><ele>284.0</ele><time>2026-04-26T10:12:08.957Z</time></trkpt><trkpt lat="43.3681832" lon="11.4278836"><ele>283.6666666666667</ele><time>2026-04-26T10:12:09.966Z</time></trkpt><trkpt lat="43.3681078" lon="11.4277016"><ele>283.3333333333333</ele><time>2026-04-26T10:12:10.969Z</time></trkpt><trkpt lat="43.3680493" lon="11.4275025"><ele>283.0</ele><time>2026-04-26T10:12:11.97Z</time></trkpt><trkpt lat="43.3679976" lon="11.4273058"><ele>283.25</ele><time>2026-04-26T10:12:12.974Z</time></trkpt><trkpt lat="43.3679371" lon="11.4271282"><ele>283.5</ele><time>2026-04-26T10:12:13.977Z</time></trkpt><trkpt lat="43.3678538" lon="11.4269697"><ele>283.75</ele><time>2026-04-26T10:12:14.982Z</time></trkpt><trkpt lat="43.3677422" lon="11.4268401"><ele>284.0</ele><time>2026-04-26T10:12:15.968Z</time></trkpt><trkpt lat="43.3676007" lon="11.4267384"><ele>284.0</ele><time>2026-04-26T10:12:16.964Z</time></trkpt><trkpt lat="43.3674332" lon="11.4266576"><ele>284.0</ele><time>2026-04-26T10:12:17.971Z</time></trkpt><trkpt lat="43.367246" lon="11.426584"><ele>284.0</ele><time>2026-04-26T10:12:18.957Z</time></trkpt><trkpt lat="43.367053" lon="11.4265103"><ele>285.6666666666667</ele><time>2026-04-26T10:12:19.958Z</time></trkpt><trkpt lat="43.3668756" lon="11.4264389"><ele>287.3333333333333</ele><time>2026-04-26T10:12:20.957Z</time></trkpt><trkpt lat="43.3667125" lon="11.4263766"><ele>289.0</ele><time>2026-04-26T10:12:21.943Z</time></trkpt><trkpt lat="43.3665523" lon="11.4263424"><ele>289.0</ele><time>2026-04-26T10:12:22.949Z</time></trkpt><trkpt lat="43.3663942" lon="11.4263436"><ele>289.0</ele><time>2026-04-26T10:12:23.931Z</time></trkpt><trkpt lat="43.3662415" lon="11.4263655"><ele>289.0</ele><time>2026-04-26T10:12:24.933Z</time></trkpt><trkpt lat="43.3661034" lon="11.4263844"><ele>289.25</ele><time>2026-04-26T10:12:25.929Z</time></trkpt><trkpt lat="43.3659827" lon="11.4263754"><ele>289.5</ele><time>2026-04-26T10:12:26.93Z</time></trkpt><trkpt lat="43.3658743" lon="11.4263255"><ele>289.75</ele><time>2026-04-26T10:12:27.957Z</time></trkpt><trkpt lat="43.3657757" lon="11.426229"><ele>290.0</ele><time>2026-04-26T10:12:28.96Z</time></trkpt><trkpt lat="43.3656822" lon="11.4260928"><ele>290.0</ele><time>2026-04-26T10:12:29.964Z</time></trkpt><trkpt lat="43.3655833" lon="11.4259323"><ele>290.0</ele><time>2026-04-26T10:12:30.94Z</time></trkpt><trkpt lat="43.3654703" lon="11.4257472"><ele>290.0</ele><time>2026-04-26T10:12:31.959Z</time></trkpt><trkpt lat="43.3653519" lon="11.4255588"><ele>287.0</ele><time>2026-04-26T10:12:32.957Z</time></trkpt><trkpt lat="43.3652397" lon="11.4253779"><ele>284.0</ele><time>2026-04-26T10:12:33.951Z</time></trkpt><trkpt lat="43.3651313" lon="11.4252023"><ele>281.0</ele><time>2026-04-26T10:12:34.946Z</time></trkpt><trkpt lat="43.3650271" lon="11.4250301"><ele>281.0</ele><time>2026-04-26T10:12:35.951Z</time></trkpt><trkpt lat="43.3649312" lon="11.424864"><ele>281.0</ele><time>2026-04-26T10:12:36.94Z</time></trkpt><trkpt lat="43.3648415" lon="11.4247036"><ele>281.0</ele><time>2026-04-26T10:12:37.943Z</time></trkpt><trkpt lat="43.3647633" lon="11.4245415"><ele>281.0</ele><time>2026-04-26T10:12:38.939Z</time></trkpt><trkpt lat="43.3646971" lon="11.4243649"><ele>280.0</ele><time>2026-04-26T10:12:39.958Z</time></trkpt><trkpt lat="43.3646393" lon="11.424166"><ele>279.0</ele><time>2026-04-26T10:12:40.966Z</time></trkpt><trkpt lat="43.3645905" lon="11.4239446"><ele>278.0</ele><time>2026-04-26T10:12:41.942Z</time></trkpt><trkpt lat="43.3645515" lon="11.423701"><ele>275.6666666666667</ele><time>2026-04-26T10:12:42.941Z</time></trkpt><trkpt lat="43.3645272" lon="11.4234494"><ele>273.3333333333333</ele><time>2026-04-26T10:12:43.932Z</time></trkpt><trkpt lat="43.3645116" lon="11.4231906"><ele>271.0</ele><time>2026-04-26T10:12:44.943Z</time></trkpt><trkpt lat="43.3645001" lon="11.422927"><ele>268.66666666666663</ele><time>2026-04-26T10:12:45.94Z</time></trkpt><trkpt lat="43.3644902" lon="11.4226682"><ele>266.3333333333333</ele><time>2026-04-26T10:12:46.931Z</time></trkpt><trkpt lat="43.3644795" lon="11.4224192"><ele>264.0</ele><time>2026-04-26T10:12:47.935Z</time></trkpt><trkpt lat="43.364465" lon="11.4221799"><ele>261.6666666666667</ele><time>2026-04-26T10:12:48.935Z</time></trkpt><trkpt lat="43.3644478" lon="11.4219509"><ele>259.33333333333337</ele><time>2026-04-26T10:12:49.922Z</time></trkpt><trkpt lat="43.3644305" lon="11.4217319"><ele>257.0</ele><time>2026-04-26T10:12:50.934Z</time></trkpt><trkpt lat="43.3644141" lon="11.4215343"><ele>257.0</ele><time>2026-04-26T10:12:51.938Z</time></trkpt><trkpt lat="43.3643878" lon="11.4213562"><ele>257.0</ele><time>2026-04-26T10:12:52.944Z</time></trkpt><trkpt lat="43.3643479" lon="11.4211941"><ele>257.0</ele><time>2026-04-26T10:12:53.941Z</time></trkpt><trkpt lat="43.3642968" lon="11.4210359"><ele>257.0</ele><time>2026-04-26T10:12:54.936Z</time></trkpt><trkpt lat="43.3642431" lon="11.4208665"><ele>256.75</ele><time>2026-04-26T10:12:55.939Z</time></trkpt><trkpt lat="43.3641916" lon="11.4206868"><ele>256.5</ele><time>2026-04-26T10:12:56.934Z</time></trkpt><trkpt lat="43.364148" lon="11.4205069"><ele>256.25</ele><time>2026-04-26T10:12:57.94Z</time></trkpt><trkpt lat="43.3641168" lon="11.4203307"><ele>256.0</ele><time>2026-04-26T10:12:58.927Z</time></trkpt><trkpt lat="43.3640932" lon="11.4201444"><ele>255.5</ele><time>2026-04-26T10:12:59.941Z</time></trkpt><trkpt lat="43.3640734" lon="11.419947"><ele>255.0</ele><time>2026-04-26T10:13:00.945Z</time></trkpt><trkpt lat="43.3640538" lon="11.4197431"><ele>254.5</ele><time>2026-04-26T10:13:01.948Z</time></trkpt><trkpt lat="43.3640341" lon="11.4195436"><ele>254.0</ele><time>2026-04-26T10:13:02.952Z</time></trkpt><trkpt lat="43.3640201" lon="11.4193593"><ele>253.2</ele><time>2026-04-26T10:13:03.943Z</time></trkpt><trkpt lat="43.3640134" lon="11.4191905"><ele>252.39999999999998</ele><time>2026-04-26T10:13:04.954Z</time></trkpt><trkpt lat="43.364013" lon="11.4190425"><ele>251.6</ele><time>2026-04-26T10:13:05.944Z</time></trkpt><trkpt lat="43.3640136" lon="11.4189207"><ele>250.8</ele><time>2026-04-26T10:13:06.955Z</time></trkpt><trkpt lat="43.3640117" lon="11.4188314"><ele>250.0</ele><time>2026-04-26T10:13:07.96Z</time></trkpt><trkpt lat="43.3640106" lon="11.418724"><ele>248.8</ele><time>2026-04-26T10:13:09.951Z</time></trkpt><trkpt lat="43.3640366" lon="11.4185967"><ele>247.6</ele><time>2026-04-26T10:13:12.95Z</time></trkpt><trkpt lat="43.3640055" lon="11.4184867"><ele>246.39999999999998</ele><time>2026-04-26T10:13:15.95Z</time></trkpt><trkpt lat="43.3639001" lon="11.4184535"><ele>245.2</ele><time>2026-04-26T10:13:17.956Z</time></trkpt><trkpt lat="43.363819" lon="11.4184529"><ele>244.0</ele><time>2026-04-26T10:13:18.956Z</time></trkpt><trkpt lat="43.3637229" lon="11.4184494"><ele>243.0</ele><time>2026-04-26T10:13:19.945Z</time></trkpt><trkpt lat="43.3636143" lon="11.4184481"><ele>242.0</ele><time>2026-04-26T10:13:20.954Z</time></trkpt><trkpt lat="43.3634876" lon="11.4184499"><ele>241.0</ele><time>2026-04-26T10:13:21.936Z</time></trkpt><trkpt lat="43.3633455" lon="11.4184529"><ele>240.0</ele><time>2026-04-26T10:13:22.947Z</time></trkpt><trkpt lat="43.3631963" lon="11.4184532"><ele>240.0</ele><time>2026-04-26T10:13:23.959Z</time></trkpt><trkpt lat="43.3630389" lon="11.4184352"><ele>240.0</ele><time>2026-04-26T10:13:24.945Z</time></trkpt><trkpt lat="43.3628744" lon="11.4183918"><ele>240.0</ele><time>2026-04-26T10:13:25.941Z</time></trkpt><trkpt lat="43.3627124" lon="11.4183327"><ele>239.25</ele><time>2026-04-26T10:13:26.958Z</time></trkpt><trkpt lat="43.362565" lon="11.4182786"><ele>238.5</ele><time>2026-04-26T10:13:27.943Z</time></trkpt><trkpt lat="43.3624258" lon="11.4182444"><ele>237.75</ele><time>2026-04-26T10:13:28.947Z</time></trkpt><trkpt lat="43.362294" lon="11.4182507"><ele>237.0</ele><time>2026-04-26T10:13:29.936Z</time></trkpt><trkpt lat="43.3621658" lon="11.4183123"><ele>237.25</ele><time>2026-04-26T10:13:30.947Z</time></trkpt><trkpt lat="43.3620456" lon="11.4184217"><ele>237.5</ele><time>2026-04-26T10:13:31.939Z</time></trkpt><trkpt lat="43.3619338" lon="11.4185666"><ele>237.75</ele><time>2026-04-26T10:13:32.955Z</time></trkpt><trkpt lat="43.3618336" lon="11.4187232"><ele>238.0</ele><time>2026-04-26T10:13:33.945Z</time></trkpt><trkpt lat="43.3617419" lon="11.4188719"><ele>238.0</ele><time>2026-04-26T10:13:34.952Z</time></trkpt><trkpt lat="43.3616527" lon="11.4189974"><ele>238.0</ele><time>2026-04-26T10:13:35.942Z</time></trkpt><trkpt lat="43.3615565" lon="11.4190968"><ele>238.0</ele><time>2026-04-26T10:13:36.948Z</time></trkpt><trkpt lat="43.3614518" lon="11.4191638"><ele>238.0</ele><time>2026-04-26T10:13:37.944Z</time></trkpt><trkpt lat="43.3613397" lon="11.4192066"><ele>236.5</ele><time>2026-04-26T10:13:38.935Z</time></trkpt><trkpt lat="43.361222" lon="11.4192459"><ele>235.0</ele><time>2026-04-26T10:13:39.932Z</time></trkpt><trkpt lat="43.3610977" lon="11.4192874"><ele>233.5</ele><time>2026-04-26T10:13:40.946Z</time></trkpt><trkpt lat="43.3609667" lon="11.4193329"><ele>232.0</ele><time>2026-04-26T10:13:41.948Z</time></trkpt><trkpt lat="43.360824" lon="11.4193823"><ele>232.0</ele><time>2026-04-26T10:13:42.981Z</time></trkpt><trkpt lat="43.3606719" lon="11.4194329"><ele>232.0</ele><time>2026-04-26T10:13:43.952Z</time></trkpt><trkpt lat="43.3605063" lon="11.4194911"><ele>232.0</ele><time>2026-04-26T10:13:44.971Z</time></trkpt><trkpt lat="43.3603366" lon="11.4195547"><ele>232.0</ele><time>2026-04-26T10:13:45.961Z</time></trkpt><trkpt lat="43.36016" lon="11.4196208"><ele>232.0</ele><time>2026-04-26T10:13:46.97Z</time></trkpt><trkpt lat="43.3599802" lon="11.4196856"><ele>232.0</ele><time>2026-04-26T10:13:47.975Z</time></trkpt><trkpt lat="43.3598044" lon="11.4197478"><ele>230.66666666666666</ele><time>2026-04-26T10:13:48.972Z</time></trkpt><trkpt lat="43.3596393" lon="11.419807"><ele>229.33333333333331</ele><time>2026-04-26T10:13:49.958Z</time></trkpt><trkpt lat="43.359483" lon="11.4198632"><ele>228.0</ele><time>2026-04-26T10:13:50.971Z</time></trkpt><trkpt lat="43.3593409" lon="11.4199106"><ele>228.0</ele><time>2026-04-26T10:13:51.965Z</time></trkpt><trkpt lat="43.3592115" lon="11.4199337"><ele>228.0</ele><time>2026-04-26T10:13:52.96Z</time></trkpt><trkpt lat="43.3590899" lon="11.4199199"><ele>228.0</ele><time>2026-04-26T10:13:53.949Z</time></trkpt><trkpt lat="43.3589799" lon="11.4198597"><ele>228.0</ele><time>2026-04-26T10:13:54.967Z</time></trkpt><trkpt lat="43.3588839" lon="11.4197552"><ele>226.0</ele><time>2026-04-26T10:13:55.949Z</time></trkpt><trkpt lat="43.3587912" lon="11.4196122"><ele>224.0</ele><time>2026-04-26T10:13:56.963Z</time></trkpt><trkpt lat="43.3586927" lon="11.419451"><ele>222.0</ele><time>2026-04-26T10:13:57.965Z</time></trkpt><trkpt lat="43.3585841" lon="11.4192824"><ele>222.0</ele><time>2026-04-26T10:13:58.947Z</time></trkpt><trkpt lat="43.3584676" lon="11.4191036"><ele>222.0</ele><time>2026-04-26T10:13:59.956Z</time></trkpt><trkpt lat="43.3583486" lon="11.4189183"><ele>222.0</ele><time>2026-04-26T10:14:00.96Z</time></trkpt><trkpt lat="43.3582266" lon="11.4187299"><ele>221.66666666666669</ele><time>2026-04-26T10:14:01.953Z</time></trkpt><trkpt lat="43.3581016" lon="11.4185388"><ele>221.33333333333334</ele><time>2026-04-26T10:14:02.974Z</time></trkpt><trkpt lat="43.3579797" lon="11.4183484"><ele>221.0</ele><time>2026-04-26T10:14:03.96Z</time></trkpt><trkpt lat="43.3578573" lon="11.4181576"><ele>220.66666666666669</ele><time>2026-04-26T10:14:04.966Z</time></trkpt><trkpt lat="43.3577375" lon="11.4179723"><ele>220.33333333333331</ele><time>2026-04-26T10:14:05.958Z</time></trkpt><trkpt lat="43.3576179" lon="11.4177896"><ele>220.0</ele><time>2026-04-26T10:14:06.98Z</time></trkpt><trkpt lat="43.3575025" lon="11.4176145"><ele>220.0</ele><time>2026-04-26T10:14:07.96Z</time></trkpt><trkpt lat="43.357392" lon="11.4174456"><ele>220.0</ele><time>2026-04-26T10:14:08.961Z</time></trkpt><trkpt lat="43.3572907" lon="11.4172887"><ele>220.0</ele><time>2026-04-26T10:14:09.957Z</time></trkpt><trkpt lat="43.3571954" lon="11.4171429"><ele>219.75</ele><time>2026-04-26T10:14:10.955Z</time></trkpt><trkpt lat="43.3571046" lon="11.4170027"><ele>219.5</ele><time>2026-04-26T10:14:11.965Z</time></trkpt><trkpt lat="43.3570133" lon="11.4168656"><ele>219.25</ele><time>2026-04-26T10:14:12.968Z</time></trkpt><trkpt lat="43.3569225" lon="11.4167255"><ele>219.0</ele><time>2026-04-26T10:14:13.971Z</time></trkpt><trkpt lat="43.3568327" lon="11.4165835"><ele>219.0</ele><time>2026-04-26T10:14:14.974Z</time></trkpt><trkpt lat="43.3567429" lon="11.4164378"><ele>219.0</ele><time>2026-04-26T10:14:15.956Z</time></trkpt><trkpt lat="43.3566535" lon="11.4162922"><ele>219.0</ele><time>2026-04-26T10:14:16.979Z</time></trkpt><trkpt lat="43.3565734" lon="11.4161597"><ele>219.0</ele><time>2026-04-26T10:14:17.979Z</time></trkpt><trkpt lat="43.3564997" lon="11.4160381"><ele>219.39999999999998</ele><time>2026-04-26T10:14:18.972Z</time></trkpt><trkpt lat="43.3564234" lon="11.4159358"><ele>219.79999999999998</ele><time>2026-04-26T10:14:19.961Z</time></trkpt><trkpt lat="43.3563351" lon="11.4158681"><ele>220.20000000000002</ele><time>2026-04-26T10:14:20.981Z</time></trkpt><trkpt lat="43.3562337" lon="11.4158404"><ele>220.60000000000002</ele><time>2026-04-26T10:14:21.954Z</time></trkpt><trkpt lat="43.3561165" lon="11.4158491"><ele>221.0</ele><time>2026-04-26T10:14:22.974Z</time></trkpt><trkpt lat="43.3559916" lon="11.4158941"><ele>221.25</ele><time>2026-04-26T10:14:23.957Z</time></trkpt><trkpt lat="43.3558588" lon="11.4159693"><ele>221.5</ele><time>2026-04-26T10:14:24.963Z</time></trkpt><trkpt lat="43.3557252" lon="11.4160655"><ele>221.75</ele><time>2026-04-26T10:14:25.954Z</time></trkpt><trkpt lat="43.3555918" lon="11.4161594"><ele>222.0</ele><time>2026-04-26T10:14:26.95Z</time></trkpt><trkpt lat="43.3554607" lon="11.4162241"><ele>223.25</ele><time>2026-04-26T10:14:27.937Z</time></trkpt><trkpt lat="43.355325" lon="11.4162475"><ele>224.5</ele><time>2026-04-26T10:14:28.936Z</time></trkpt><trkpt lat="43.3551805" lon="11.4162359"><ele>225.75</ele><time>2026-04-26T10:14:29.955Z</time></trkpt><trkpt lat="43.3550275" lon="11.4162088"><ele>227.0</ele><time>2026-04-26T10:14:30.97Z</time></trkpt><trkpt lat="43.3548679" lon="11.4161866"><ele>227.0</ele><time>2026-04-26T10:14:31.971Z</time></trkpt><trkpt lat="43.3547052" lon="11.4161712"><ele>227.0</ele><time>2026-04-26T10:14:32.973Z</time></trkpt><trkpt lat="43.3545422" lon="11.4161596"><ele>227.0</ele><time>2026-04-26T10:14:33.953Z</time></trkpt><trkpt lat="43.3543764" lon="11.416145"><ele>226.33333333333334</ele><time>2026-04-26T10:14:34.97Z</time></trkpt><trkpt lat="43.3542138" lon="11.4161276"><ele>225.66666666666669</ele><time>2026-04-26T10:14:35.974Z</time></trkpt><trkpt lat="43.3540534" lon="11.4161101"><ele>225.0</ele><time>2026-04-26T10:14:36.96Z</time></trkpt><trkpt lat="43.3538936" lon="11.4160888"><ele>224.33333333333331</ele><time>2026-04-26T10:14:37.962Z</time></trkpt><trkpt lat="43.353736" lon="11.4160576"><ele>223.66666666666666</ele><time>2026-04-26T10:14:38.962Z</time></trkpt><trkpt lat="43.3535805" lon="11.4160161"><ele>223.0</ele><time>2026-04-26T10:14:39.953Z</time></trkpt><trkpt lat="43.3534265" lon="11.4159698"><ele>223.0</ele><time>2026-04-26T10:14:40.963Z</time></trkpt><trkpt lat="43.3532779" lon="11.4159232"><ele>223.0</ele><time>2026-04-26T10:14:41.957Z</time></trkpt><trkpt lat="43.3531338" lon="11.4158802"><ele>223.0</ele><time>2026-04-26T10:14:42.969Z</time></trkpt><trkpt lat="43.3529964" lon="11.41584"><ele>223.0</ele><time>2026-04-26T10:14:43.971Z</time></trkpt><trkpt lat="43.3528617" lon="11.4158027"><ele>223.0</ele><time>2026-04-26T10:14:44.966Z</time></trkpt><trkpt lat="43.3527281" lon="11.4157657"><ele>223.0</ele><time>2026-04-26T10:14:45.977Z</time></trkpt><trkpt lat="43.3525973" lon="11.4157295"><ele>223.0</ele><time>2026-04-26T10:14:46.961Z</time></trkpt><trkpt lat="43.3524664" lon="11.4156933"><ele>223.0</ele><time>2026-04-26T10:14:47.959Z</time></trkpt><trkpt lat="43.3523385" lon="11.4156583"><ele>223.0</ele><time>2026-04-26T10:14:48.964Z</time></trkpt><trkpt lat="43.352222" lon="11.4156268"><ele>223.0</ele><time>2026-04-26T10:14:49.946Z</time></trkpt><trkpt lat="43.3521175" lon="11.4155987"><ele>223.0</ele><time>2026-04-26T10:14:50.948Z</time></trkpt><trkpt lat="43.3520207" lon="11.4155718"><ele>223.0</ele><time>2026-04-26T10:14:51.946Z</time></trkpt><trkpt lat="43.3519245" lon="11.4155421"><ele>223.0</ele><time>2026-04-26T10:14:52.933Z</time></trkpt><trkpt lat="43.3518173" lon="11.4155079"><ele>222.5</ele><time>2026-04-26T10:14:53.966Z</time></trkpt><trkpt lat="43.3517013" lon="11.4154727"><ele>222.0</ele><time>2026-04-26T10:14:54.956Z</time></trkpt><trkpt lat="43.3515747" lon="11.4154374"><ele>221.5</ele><time>2026-04-26T10:14:55.967Z</time></trkpt><trkpt lat="43.3514396" lon="11.4154045"><ele>221.0</ele><time>2026-04-26T10:14:56.973Z</time></trkpt><trkpt lat="43.3512978" lon="11.4153745"><ele>220.66666666666669</ele><time>2026-04-26T10:14:57.956Z</time></trkpt><trkpt lat="43.3511489" lon="11.4153402"><ele>220.33333333333331</ele><time>2026-04-26T10:14:58.984Z</time></trkpt><trkpt lat="43.3509949" lon="11.4152999"><ele>220.0</ele><time>2026-04-26T10:14:59.957Z</time></trkpt><trkpt lat="43.3508277" lon="11.4152516"><ele>220.0</ele><time>2026-04-26T10:15:00.956Z</time></trkpt><trkpt lat="43.3506569" lon="11.4151991"><ele>220.0</ele><time>2026-04-26T10:15:01.96Z</time></trkpt><trkpt lat="43.3504956" lon="11.4151489"><ele>220.0</ele><time>2026-04-26T10:15:02.952Z</time></trkpt><trkpt lat="43.3503507" lon="11.4150989"><ele>220.5</ele><time>2026-04-26T10:15:03.958Z</time></trkpt><trkpt lat="43.3502204" lon="11.4150327"><ele>221.0</ele><time>2026-04-26T10:15:04.965Z</time></trkpt><trkpt lat="43.3501036" lon="11.4149324"><ele>221.5</ele><time>2026-04-26T10:15:05.956Z</time></trkpt><trkpt lat="43.3499985" lon="11.4147891"><ele>222.0</ele><time>2026-04-26T10:15:06.96Z</time></trkpt><trkpt lat="43.3499" lon="11.4146158"><ele>222.0</ele><time>2026-04-26T10:15:07.953Z</time></trkpt><trkpt lat="43.3497994" lon="11.4144298"><ele>222.0</ele><time>2026-04-26T10:15:08.967Z</time></trkpt><trkpt lat="43.3496994" lon="11.4142431"><ele>222.0</ele><time>2026-04-26T10:15:09.956Z</time></trkpt><trkpt lat="43.3496045" lon="11.4140501"><ele>223.66666666666669</ele><time>2026-04-26T10:15:10.977Z</time></trkpt><trkpt lat="43.3495208" lon="11.4138507"><ele>225.33333333333334</ele><time>2026-04-26T10:15:11.957Z</time></trkpt><trkpt lat="43.3494426" lon="11.4136367"><ele>227.0</ele><time>2026-04-26T10:15:12.957Z</time></trkpt><trkpt lat="43.3493626" lon="11.4134159"><ele>227.0</ele><time>2026-04-26T10:15:13.957Z</time></trkpt><trkpt lat="43.3492628" lon="11.413201"><ele>227.0</ele><time>2026-04-26T10:15:14.965Z</time></trkpt><trkpt lat="43.3491396" lon="11.4130017"><ele>227.0</ele><time>2026-04-26T10:15:15.94Z</time></trkpt><trkpt lat="43.3490039" lon="11.4128135"><ele>228.66666666666669</ele><time>2026-04-26T10:15:16.941Z</time></trkpt><trkpt lat="43.3488752" lon="11.4126204"><ele>230.33333333333331</ele><time>2026-04-26T10:15:17.958Z</time></trkpt><trkpt lat="43.3487703" lon="11.4124164"><ele>232.0</ele><time>2026-04-26T10:15:18.947Z</time></trkpt><trkpt lat="43.3486857" lon="11.4122083"><ele>232.0</ele><time>2026-04-26T10:15:19.962Z</time></trkpt><trkpt lat="43.3486191" lon="11.4119948"><ele>232.0</ele><time>2026-04-26T10:15:20.968Z</time></trkpt><trkpt lat="43.3485721" lon="11.4117666"><ele>232.0</ele><time>2026-04-26T10:15:21.963Z</time></trkpt><trkpt lat="43.3485417" lon="11.4115216"><ele>234.0</ele><time>2026-04-26T10:15:22.977Z</time></trkpt><trkpt lat="43.3485219" lon="11.4112696"><ele>236.0</ele><time>2026-04-26T10:15:23.967Z</time></trkpt><trkpt lat="43.3485011" lon="11.4110067"><ele>238.0</ele><time>2026-04-26T10:15:24.968Z</time></trkpt><trkpt lat="43.3484658" lon="11.4107361"><ele>238.66666666666666</ele><time>2026-04-26T10:15:25.955Z</time></trkpt><trkpt lat="43.3484125" lon="11.4104609"><ele>239.33333333333331</ele><time>2026-04-26T10:15:26.96Z</time></trkpt><trkpt lat="43.3483502" lon="11.4101862"><ele>240.0</ele><time>2026-04-26T10:15:27.972Z</time></trkpt><trkpt lat="43.3482833" lon="11.4099138"><ele>240.0</ele><time>2026-04-26T10:15:28.974Z</time></trkpt><trkpt lat="43.3482144" lon="11.4096456"><ele>240.0</ele><time>2026-04-26T10:15:29.962Z</time></trkpt><trkpt lat="43.3481466" lon="11.4093826"><ele>240.0</ele><time>2026-04-26T10:15:30.979Z</time></trkpt><trkpt lat="43.3480906" lon="11.4091297"><ele>240.0</ele><time>2026-04-26T10:15:31.982Z</time></trkpt><trkpt lat="43.3480558" lon="11.4088766"><ele>240.0</ele><time>2026-04-26T10:15:32.974Z</time></trkpt><trkpt lat="43.3480381" lon="11.4086198"><ele>240.0</ele><time>2026-04-26T10:15:33.954Z</time></trkpt><trkpt lat="43.3480289" lon="11.4083541"><ele>248.0</ele><time>2026-04-26T10:15:34.961Z</time></trkpt><trkpt lat="43.3480247" lon="11.4080871"><ele>256.0</ele><time>2026-04-26T10:15:35.96Z</time></trkpt><trkpt lat="43.3480252" lon="11.4078207"><ele>264.0</ele><time>2026-04-26T10:15:36.961Z</time></trkpt><trkpt lat="43.348031" lon="11.4075505"><ele>259.0</ele><time>2026-04-26T10:15:37.94Z</time></trkpt><trkpt lat="43.3480447" lon="11.4072741"><ele>254.0</ele><time>2026-04-26T10:15:38.949Z</time></trkpt><trkpt lat="43.3480638" lon="11.4070068"><ele>249.0</ele><time>2026-04-26T10:15:39.932Z</time></trkpt><trkpt lat="43.348087" lon="11.4067473"><ele>249.0</ele><time>2026-04-26T10:15:40.94Z</time></trkpt><trkpt lat="43.3481173" lon="11.4064987"><ele>249.0</ele><time>2026-04-26T10:15:41.935Z</time></trkpt><trkpt lat="43.3481633" lon="11.4062578"><ele>249.0</ele><time>2026-04-26T10:15:42.929Z</time></trkpt><trkpt lat="43.3482319" lon="11.4060274"><ele>251.33333333333331</ele><time>2026-04-26T10:15:43.932Z</time></trkpt><trkpt lat="43.3483103" lon="11.4058025"><ele>253.66666666666666</ele><time>2026-04-26T10:15:44.942Z</time></trkpt><trkpt lat="43.3483762" lon="11.4055726"><ele>256.0</ele><time>2026-04-26T10:15:45.953Z</time></trkpt><trkpt lat="43.3484221" lon="11.4053302"><ele>259.66666666666663</ele><time>2026-04-26T10:15:46.943Z</time></trkpt><trkpt lat="43.3484509" lon="11.4050736"><ele>263.3333333333333</ele><time>2026-04-26T10:15:47.952Z</time></trkpt><trkpt lat="43.3484743" lon="11.4048263"><ele>267.0</ele><time>2026-04-26T10:15:48.941Z</time></trkpt><trkpt lat="43.3485089" lon="11.4046031"><ele>267.6666666666667</ele><time>2026-04-26T10:15:49.941Z</time></trkpt><trkpt lat="43.3485672" lon="11.404401"><ele>268.33333333333337</ele><time>2026-04-26T10:15:50.953Z</time></trkpt><trkpt lat="43.348651" lon="11.4042154"><ele>269.0</ele><time>2026-04-26T10:15:51.944Z</time></trkpt><trkpt lat="43.3487573" lon="11.404044"><ele>269.0</ele><time>2026-04-26T10:15:52.944Z</time></trkpt><trkpt lat="43.3488751" lon="11.40388"><ele>269.0</ele><time>2026-04-26T10:15:53.947Z</time></trkpt><trkpt lat="43.3489833" lon="11.4037019"><ele>269.0</ele><time>2026-04-26T10:15:54.961Z</time></trkpt><trkpt lat="43.3490634" lon="11.4035012"><ele>270.0</ele><time>2026-04-26T10:15:55.937Z</time></trkpt><trkpt lat="43.3491156" lon="11.4032751"><ele>271.0</ele><time>2026-04-26T10:15:56.947Z</time></trkpt><trkpt lat="43.3491441" lon="11.4030336"><ele>272.0</ele><time>2026-04-26T10:15:57.936Z</time></trkpt><trkpt lat="43.3491639" lon="11.4027786"><ele>274.33333333333337</ele><time>2026-04-26T10:15:58.942Z</time></trkpt><trkpt lat="43.349183" lon="11.4025204"><ele>276.6666666666667</ele><time>2026-04-26T10:15:59.961Z</time></trkpt><trkpt lat="43.3492065" lon="11.4022791"><ele>279.0</ele><time>2026-04-26T10:16:00.941Z</time></trkpt><trkpt lat="43.3492364" lon="11.4020567"><ele>281.0</ele><time>2026-04-26T10:16:01.948Z</time></trkpt><trkpt lat="43.3492795" lon="11.401865"><ele>283.0</ele><time>2026-04-26T10:16:02.928Z</time></trkpt><trkpt lat="43.3493473" lon="11.4017094"><ele>285.0</ele><time>2026-04-26T10:16:03.934Z</time></trkpt><trkpt lat="43.3494342" lon="11.4015974"><ele>287.0</ele><time>2026-04-26T10:16:04.924Z</time></trkpt><trkpt lat="43.3495402" lon="11.4015309"><ele>287.0</ele><time>2026-04-26T10:16:05.924Z</time></trkpt><trkpt lat="43.3496597" lon="11.4015193"><ele>287.0</ele><time>2026-04-26T10:16:06.943Z</time></trkpt><trkpt lat="43.3497855" lon="11.4015562"><ele>287.0</ele><time>2026-04-26T10:16:07.93Z</time></trkpt><trkpt lat="43.3499128" lon="11.4016105"><ele>287.0</ele><time>2026-04-26T10:16:08.953Z</time></trkpt><trkpt lat="43.3500299" lon="11.4016355"><ele>286.0</ele><time>2026-04-26T10:16:09.963Z</time></trkpt><trkpt lat="43.3501296" lon="11.4016037"><ele>285.0</ele><time>2026-04-26T10:16:10.967Z</time></trkpt><trkpt lat="43.3501997" lon="11.4015244"><ele>284.0</ele><time>2026-04-26T10:16:11.954Z</time></trkpt><trkpt lat="43.350231" lon="11.40141"><ele>283.0</ele><time>2026-04-26T10:16:12.953Z</time></trkpt><trkpt lat="43.3502201" lon="11.4012752"><ele>282.0</ele><time>2026-04-26T10:16:13.958Z</time></trkpt><trkpt lat="43.3501676" lon="11.4011374"><ele>284.5</ele><time>2026-04-26T10:16:14.944Z</time></trkpt><trkpt lat="43.3500811" lon="11.4010009"><ele>287.0</ele><time>2026-04-26T10:16:15.959Z</time></trkpt><trkpt lat="43.3499799" lon="11.4008713"><ele>289.5</ele><time>2026-04-26T10:16:16.949Z</time></trkpt><trkpt lat="43.3498692" lon="11.4007529"><ele>292.0</ele><time>2026-04-26T10:16:17.963Z</time></trkpt><trkpt lat="43.3497445" lon="11.4006632"><ele>292.5</ele><time>2026-04-26T10:16:18.95Z</time></trkpt><trkpt lat="43.3496047" lon="11.400628"><ele>293.0</ele><time>2026-04-26T10:16:19.948Z</time></trkpt><trkpt lat="43.3494585" lon="11.4006531"><ele>293.5</ele><time>2026-04-26T10:16:20.959Z</time></trkpt><trkpt lat="43.3493099" lon="11.4007227"><ele>294.0</ele><time>2026-04-26T10:16:21.955Z</time></trkpt><trkpt lat="43.3491595" lon="11.4008097"><ele>294.0</ele><time>2026-04-26T10:16:22.959Z</time></trkpt><trkpt lat="43.3490176" lon="11.4009018"><ele>294.0</ele><time>2026-04-26T10:16:23.96Z</time></trkpt><trkpt lat="43.3488894" lon="11.4009895"><ele>294.0</ele><time>2026-04-26T10:16:24.973Z</time></trkpt><trkpt lat="43.3487745" lon="11.4010545"><ele>294.0</ele><time>2026-04-26T10:16:25.943Z</time></trkpt><trkpt lat="43.3486657" lon="11.4010703"><ele>295.2</ele><time>2026-04-26T10:16:26.959Z</time></trkpt><trkpt lat="43.3485712" lon="11.401027"><ele>296.4</ele><time>2026-04-26T10:16:27.961Z</time></trkpt><trkpt lat="43.3484849" lon="11.4009466"><ele>297.6</ele><time>2026-04-26T10:16:28.95Z</time></trkpt><trkpt lat="43.3483953" lon="11.4008464"><ele>298.8</ele><time>2026-04-26T10:16:29.955Z</time></trkpt><trkpt lat="43.3482992" lon="11.4007335"><ele>300.0</ele><time>2026-04-26T10:16:30.941Z</time></trkpt><trkpt lat="43.3481927" lon="11.4006123"><ele>301.75</ele><time>2026-04-26T10:16:31.954Z</time></trkpt><trkpt lat="43.348072" lon="11.4004954"><ele>303.5</ele><time>2026-04-26T10:16:32.964Z</time></trkpt><trkpt lat="43.3479382" lon="11.4003911"><ele>305.25</ele><time>2026-04-26T10:16:33.964Z</time></trkpt><trkpt lat="43.3478058" lon="11.4003068"><ele>307.0</ele><time>2026-04-26T10:16:34.966Z</time></trkpt><trkpt lat="43.3476871" lon="11.4002373"><ele>307.0</ele><time>2026-04-26T10:16:35.963Z</time></trkpt><trkpt lat="43.3475838" lon="11.400163"><ele>307.0</ele><time>2026-04-26T10:16:36.967Z</time></trkpt><trkpt lat="43.3475018" lon="11.4000696"><ele>307.0</ele><time>2026-04-26T10:16:37.946Z</time></trkpt><trkpt lat="43.3474433" lon="11.3999444"><ele>307.0</ele><time>2026-04-26T10:16:38.959Z</time></trkpt><trkpt lat="43.3474172" lon="11.3997993"><ele>307.0</ele><time>2026-04-26T10:16:39.945Z</time></trkpt><trkpt lat="43.3474296" lon="11.3996581"><ele>307.2</ele><time>2026-04-26T10:16:40.952Z</time></trkpt><trkpt lat="43.3474773" lon="11.3995335"><ele>307.4</ele><time>2026-04-26T10:16:41.959Z</time></trkpt><trkpt lat="43.3475482" lon="11.3994248"><ele>307.6</ele><time>2026-04-26T10:16:42.968Z</time></trkpt><trkpt lat="43.3476337" lon="11.3993317"><ele>307.8</ele><time>2026-04-26T10:16:43.946Z</time></trkpt><trkpt lat="43.3477348" lon="11.3992507"><ele>308.0</ele><time>2026-04-26T10:16:44.958Z</time></trkpt><trkpt lat="43.3478414" lon="11.3991793"><ele>308.0</ele><time>2026-04-26T10:16:45.942Z</time></trkpt><trkpt lat="43.3479538" lon="11.3991171"><ele>308.0</ele><time>2026-04-26T10:16:46.945Z</time></trkpt><trkpt lat="43.3480693" lon="11.3990698"><ele>308.0</ele><time>2026-04-26T10:16:47.947Z</time></trkpt><trkpt lat="43.3481798" lon="11.3990399"><ele>308.0</ele><time>2026-04-26T10:16:48.959Z</time></trkpt><trkpt lat="43.3482732" lon="11.3990238"><ele>308.0</ele><time>2026-04-26T10:16:49.952Z</time></trkpt><trkpt lat="43.3483471" lon="11.3990128"><ele>308.33333333333337</ele><time>2026-04-26T10:16:50.963Z</time></trkpt><trkpt lat="43.3484308" lon="11.3989499"><ele>308.6666666666667</ele><time>2026-04-26T10:16:52.948Z</time></trkpt><trkpt lat="43.3484058" lon="11.3988507"><ele>309.0</ele><time>2026-04-26T10:16:54.975Z</time></trkpt><trkpt lat="43.348339" lon="11.3987101"><ele>309.3333333333333</ele><time>2026-04-26T10:16:56.969Z</time></trkpt><trkpt lat="43.3482932" lon="11.3986267"><ele>309.66666666666663</ele><time>2026-04-26T10:16:57.957Z</time></trkpt><trkpt lat="43.3482394" lon="11.3985545"><ele>310.0</ele><time>2026-04-26T10:16:58.973Z</time></trkpt><trkpt lat="43.3481785" lon="11.3985069"><ele>309.0</ele><time>2026-04-26T10:16:59.961Z</time></trkpt><trkpt lat="43.3481068" lon="11.3984898"><ele>308.0</ele><time>2026-04-26T10:17:00.974Z</time></trkpt><trkpt lat="43.3480244" lon="11.3985111"><ele>307.0</ele><time>2026-04-26T10:17:01.961Z</time></trkpt><trkpt lat="43.3479314" lon="11.3985579"><ele>306.0</ele><time>2026-04-26T10:17:02.968Z</time></trkpt><trkpt lat="43.3478271" lon="11.3986059"><ele>305.0</ele><time>2026-04-26T10:17:03.949Z</time></trkpt><trkpt lat="43.3477106" lon="11.3986443"><ele>303.5</ele><time>2026-04-26T10:17:04.967Z</time></trkpt><trkpt lat="43.3475822" lon="11.3986736"><ele>302.0</ele><time>2026-04-26T10:17:05.961Z</time></trkpt><trkpt lat="43.3474442" lon="11.3986989"><ele>300.5</ele><time>2026-04-26T10:17:06.967Z</time></trkpt><trkpt lat="43.3473058" lon="11.3987219"><ele>299.0</ele><time>2026-04-26T10:17:07.96Z</time></trkpt><trkpt lat="43.3471741" lon="11.398745"><ele>299.59999999999997</ele><time>2026-04-26T10:17:08.969Z</time></trkpt><trkpt lat="43.3470576" lon="11.3987684"><ele>300.2</ele><time>2026-04-26T10:17:09.973Z</time></trkpt><trkpt lat="43.3469567" lon="11.3988024"><ele>300.79999999999995</ele><time>2026-04-26T10:17:10.978Z</time></trkpt><trkpt lat="43.3468678" lon="11.3988583"><ele>301.4</ele><time>2026-04-26T10:17:11.963Z</time></trkpt><trkpt lat="43.3467845" lon="11.3989372"><ele>302.0</ele><time>2026-04-26T10:17:12.967Z</time></trkpt><trkpt lat="43.3467054" lon="11.3990368"><ele>302.0</ele><time>2026-04-26T10:17:13.962Z</time></trkpt><trkpt lat="43.3466262" lon="11.3991522"><ele>302.0</ele><time>2026-04-26T10:17:14.97Z</time></trkpt><trkpt lat="43.3465428" lon="11.3992817"><ele>302.0</ele><time>2026-04-26T10:17:15.955Z</time></trkpt><trkpt lat="43.3464537" lon="11.3994248"><ele>302.0</ele><time>2026-04-26T10:17:16.961Z</time></trkpt><trkpt lat="43.3463621" lon="11.3995728"><ele>301.25</ele><time>2026-04-26T10:17:17.945Z</time></trkpt><trkpt lat="43.3462716" lon="11.3997164"><ele>300.5</ele><time>2026-04-26T10:17:18.944Z</time></trkpt><trkpt lat="43.3461868" lon="11.3998484"><ele>299.75</ele><time>2026-04-26T10:17:19.947Z</time></trkpt><trkpt lat="43.3461034" lon="11.399977"><ele>299.0</ele><time>2026-04-26T10:17:20.951Z</time></trkpt><trkpt lat="43.3460188" lon="11.4001069"><ele>299.0</ele><time>2026-04-26T10:17:21.958Z</time></trkpt><trkpt lat="43.3459341" lon="11.4002357"><ele>299.0</ele><time>2026-04-26T10:17:22.964Z</time></trkpt><trkpt lat="43.3458497" lon="11.4003602"><ele>299.0</ele><time>2026-04-26T10:17:23.957Z</time></trkpt><trkpt lat="43.3457673" lon="11.4004803"><ele>299.0</ele><time>2026-04-26T10:17:24.972Z</time></trkpt><trkpt lat="43.3456911" lon="11.4005937"><ele>299.0</ele><time>2026-04-26T10:17:25.959Z</time></trkpt><trkpt lat="43.3456195" lon="11.4006997"><ele>299.0</ele><time>2026-04-26T10:17:26.967Z</time></trkpt><trkpt lat="43.3455539" lon="11.4007981"><ele>299.0</ele><time>2026-04-26T10:17:27.951Z</time></trkpt><trkpt lat="43.3454911" lon="11.4008948"><ele>299.0</ele><time>2026-04-26T10:17:28.965Z</time></trkpt><trkpt lat="43.3454298" lon="11.4009853"><ele>299.0</ele><time>2026-04-26T10:17:29.968Z</time></trkpt><trkpt lat="43.345361" lon="11.4010635"><ele>299.0</ele><time>2026-04-26T10:17:30.985Z</time></trkpt><trkpt lat="43.3452758" lon="11.4011256"><ele>299.0</ele><time>2026-04-26T10:17:31.964Z</time></trkpt><trkpt lat="43.3451717" lon="11.4011799"><ele>299.0</ele><time>2026-04-26T10:17:32.964Z</time></trkpt><trkpt lat="43.3450599" lon="11.4012272"><ele>299.0</ele><time>2026-04-26T10:17:33.969Z</time></trkpt><trkpt lat="43.3449477" lon="11.4012697"><ele>299.0</ele><time>2026-04-26T10:17:34.959Z</time></trkpt><trkpt lat="43.3448298" lon="11.4013061"><ele>298.5</ele><time>2026-04-26T10:17:35.957Z</time></trkpt><trkpt lat="43.344712" lon="11.4013294"><ele>298.0</ele><time>2026-04-26T10:17:36.944Z</time></trkpt><trkpt lat="43.3445897" lon="11.4013397"><ele>297.5</ele><time>2026-04-26T10:17:37.954Z</time></trkpt><trkpt lat="43.3444604" lon="11.4013417"><ele>297.0</ele><time>2026-04-26T10:17:38.957Z</time></trkpt><trkpt lat="43.3443361" lon="11.401342"><ele>296.0</ele><time>2026-04-26T10:17:39.953Z</time></trkpt><trkpt lat="43.3442137" lon="11.4013529"><ele>295.0</ele><time>2026-04-26T10:17:40.941Z</time></trkpt><trkpt lat="43.3440865" lon="11.4013872"><ele>294.0</ele><time>2026-04-26T10:17:41.947Z</time></trkpt><trkpt lat="43.3439601" lon="11.4014423"><ele>293.0</ele><time>2026-04-26T10:17:42.936Z</time></trkpt><trkpt lat="43.3438291" lon="11.4015155"><ele>292.75</ele><time>2026-04-26T10:17:43.941Z</time></trkpt><trkpt lat="43.3437" lon="11.4015888"><ele>292.5</ele><time>2026-04-26T10:17:44.955Z</time></trkpt><trkpt lat="43.343584" lon="11.4016551"><ele>292.25</ele><time>2026-04-26T10:17:45.946Z</time></trkpt><trkpt lat="43.343479" lon="11.4017223"><ele>292.0</ele><time>2026-04-26T10:17:46.952Z</time></trkpt><trkpt lat="43.3433823" lon="11.4018056"><ele>292.0</ele><time>2026-04-26T10:17:47.962Z</time></trkpt><trkpt lat="43.3432975" lon="11.4019046"><ele>292.0</ele><time>2026-04-26T10:17:48.969Z</time></trkpt><trkpt lat="43.3432285" lon="11.402016"><ele>292.0</ele><time>2026-04-26T10:17:49.974Z</time></trkpt><trkpt lat="43.3431708" lon="11.4021434"><ele>292.0</ele><time>2026-04-26T10:17:50.954Z</time></trkpt><trkpt lat="43.3431246" lon="11.4022886"><ele>292.0</ele><time>2026-04-26T10:17:51.963Z</time></trkpt><trkpt lat="43.3430935" lon="11.4024468"><ele>291.25</ele><time>2026-04-26T10:17:52.966Z</time></trkpt><trkpt lat="43.3430747" lon="11.4026173"><ele>290.5</ele><time>2026-04-26T10:17:53.965Z</time></trkpt><trkpt lat="43.3430607" lon="11.4027885"><ele>289.75</ele><time>2026-04-26T10:17:54.988Z</time></trkpt><trkpt lat="43.3430401" lon="11.4029413"><ele>289.0</ele><time>2026-04-26T10:17:55.955Z</time></trkpt><trkpt lat="43.3430013" lon="11.4030803"><ele>289.0</ele><time>2026-04-26T10:17:56.985Z</time></trkpt><trkpt lat="43.3429399" lon="11.4031901"><ele>289.0</ele><time>2026-04-26T10:17:57.974Z</time></trkpt><trkpt lat="43.3428589" lon="11.403268"><ele>289.0</ele><time>2026-04-26T10:17:58.968Z</time></trkpt><trkpt lat="43.342755" lon="11.4033117"><ele>289.0</ele><time>2026-04-26T10:17:59.97Z</time></trkpt><trkpt lat="43.3426363" lon="11.4033317"><ele>289.0</ele><time>2026-04-26T10:18:00.98Z</time></trkpt><trkpt lat="43.342527" lon="11.4033467"><ele>289.0</ele><time>2026-04-26T10:18:01.964Z</time></trkpt><trkpt lat="43.3424317" lon="11.4033811"><ele>289.0</ele><time>2026-04-26T10:18:02.968Z</time></trkpt><trkpt lat="43.3423436" lon="11.4034447"><ele>289.0</ele><time>2026-04-26T10:18:03.948Z</time></trkpt><trkpt lat="43.3422503" lon="11.4035399"><ele>289.0</ele><time>2026-04-26T10:18:04.955Z</time></trkpt><trkpt lat="43.3421481" lon="11.4036562"><ele>289.0</ele><time>2026-04-26T10:18:05.953Z</time></trkpt><trkpt lat="43.3420352" lon="11.4037824"><ele>287.75</ele><time>2026-04-26T10:18:06.96Z</time></trkpt><trkpt lat="43.3419202" lon="11.403911"><ele>286.5</ele><time>2026-04-26T10:18:07.95Z</time></trkpt><trkpt lat="43.3418063" lon="11.40404"><ele>285.25</ele><time>2026-04-26T10:18:08.962Z</time></trkpt><trkpt lat="43.3416949" lon="11.4041637"><ele>284.0</ele><time>2026-04-26T10:18:09.964Z</time></trkpt><trkpt lat="43.3415855" lon="11.4042815"><ele>284.0</ele><time>2026-04-26T10:18:10.958Z</time></trkpt><trkpt lat="43.341476" lon="11.4044041"><ele>284.0</ele><time>2026-04-26T10:18:11.964Z</time></trkpt><trkpt lat="43.3413704" lon="11.4045379"><ele>284.0</ele><time>2026-04-26T10:18:12.98Z</time></trkpt><trkpt lat="43.3412729" lon="11.4046862"><ele>284.0</ele><time>2026-04-26T10:18:13.962Z</time></trkpt><trkpt lat="43.3411832" lon="11.4048427"><ele>285.5</ele><time>2026-04-26T10:18:14.979Z</time></trkpt><trkpt lat="43.3410983" lon="11.4049845"><ele>287.0</ele><time>2026-04-26T10:18:15.966Z</time></trkpt><trkpt lat="43.341008" lon="11.4051139"><ele>288.5</ele><time>2026-04-26T10:18:16.979Z</time></trkpt><trkpt lat="43.340907" lon="11.4052258"><ele>290.0</ele><time>2026-04-26T10:18:17.963Z</time></trkpt><trkpt lat="43.340792" lon="11.4053235"><ele>290.0</ele><time>2026-04-26T10:18:18.978Z</time></trkpt><trkpt lat="43.3406672" lon="11.4054095"><ele>290.0</ele><time>2026-04-26T10:18:19.973Z</time></trkpt><trkpt lat="43.3405348" lon="11.4054937"><ele>290.0</ele><time>2026-04-26T10:18:20.976Z</time></trkpt><trkpt lat="43.3403994" lon="11.4055752"><ele>290.0</ele><time>2026-04-26T10:18:21.958Z</time></trkpt><trkpt lat="43.3402619" lon="11.4056569"><ele>290.0</ele><time>2026-04-26T10:18:22.97Z</time></trkpt><trkpt lat="43.3401271" lon="11.4057394"><ele>290.0</ele><time>2026-04-26T10:18:23.973Z</time></trkpt><trkpt lat="43.3400014" lon="11.4058191"><ele>290.0</ele><time>2026-04-26T10:18:24.971Z</time></trkpt><trkpt lat="43.3398918" lon="11.4058889"><ele>290.0</ele><time>2026-04-26T10:18:25.958Z</time></trkpt><trkpt lat="43.3397973" lon="11.4059529"><ele>289.4</ele><time>2026-04-26T10:18:26.959Z</time></trkpt><trkpt lat="43.339716" lon="11.4060137"><ele>288.8</ele><time>2026-04-26T10:18:27.948Z</time></trkpt><trkpt lat="43.3396421" lon="11.4060835"><ele>288.2</ele><time>2026-04-26T10:18:28.951Z</time></trkpt><trkpt lat="43.3395784" lon="11.4061728"><ele>287.6</ele><time>2026-04-26T10:18:29.955Z</time></trkpt><trkpt lat="43.3395244" lon="11.4062886"><ele>287.0</ele><time>2026-04-26T10:18:30.943Z</time></trkpt><trkpt lat="43.3394688" lon="11.4064258"><ele>287.0</ele><time>2026-04-26T10:18:31.947Z</time></trkpt><trkpt lat="43.3393992" lon="11.4065665"><ele>287.0</ele><time>2026-04-26T10:18:32.936Z</time></trkpt><trkpt lat="43.3393103" lon="11.4067053"><ele>287.0</ele><time>2026-04-26T10:18:33.95Z</time></trkpt><trkpt lat="43.3392077" lon="11.4068392"><ele>287.0</ele><time>2026-04-26T10:18:34.952Z</time></trkpt><trkpt lat="43.3390964" lon="11.4069721"><ele>287.0</ele><time>2026-04-26T10:18:35.955Z</time></trkpt><trkpt lat="43.3389799" lon="11.4071078"><ele>287.0</ele><time>2026-04-26T10:18:36.97Z</time></trkpt><trkpt lat="43.3388639" lon="11.4072457"><ele>287.0</ele><time>2026-04-26T10:18:37.957Z</time></trkpt><trkpt lat="43.3387462" lon="11.4073828"><ele>287.5</ele><time>2026-04-26T10:18:38.968Z</time></trkpt><trkpt lat="43.3386293" lon="11.4075079"><ele>288.0</ele><time>2026-04-26T10:18:39.95Z</time></trkpt><trkpt lat="43.3385114" lon="11.4076162"><ele>288.5</ele><time>2026-04-26T10:18:40.976Z</time></trkpt><trkpt lat="43.3384004" lon="11.4077015"><ele>289.0</ele><time>2026-04-26T10:18:41.96Z</time></trkpt><trkpt lat="43.3382949" lon="11.407766"><ele>289.0</ele><time>2026-04-26T10:18:42.975Z</time></trkpt><trkpt lat="43.3381973" lon="11.4078073"><ele>289.0</ele><time>2026-04-26T10:18:43.958Z</time></trkpt><trkpt lat="43.3381084" lon="11.407818"><ele>289.0</ele><time>2026-04-26T10:18:44.971Z</time></trkpt><trkpt lat="43.3380289" lon="11.4077948"><ele>289.0</ele><time>2026-04-26T10:18:45.971Z</time></trkpt><trkpt lat="43.3379466" lon="11.4077372"><ele>289.0</ele><time>2026-04-26T10:18:46.964Z</time></trkpt><trkpt lat="43.3378552" lon="11.4076509"><ele>289.5</ele><time>2026-04-26T10:18:47.966Z</time></trkpt><trkpt lat="43.337758" lon="11.4075454"><ele>290.0</ele><time>2026-04-26T10:18:48.975Z</time></trkpt><trkpt lat="43.3376533" lon="11.4074366"><ele>290.5</ele><time>2026-04-26T10:18:49.963Z</time></trkpt><trkpt lat="43.337538" lon="11.4073308"><ele>291.0</ele><time>2026-04-26T10:18:50.975Z</time></trkpt><trkpt lat="43.3374263" lon="11.4072313"><ele>290.75</ele><time>2026-04-26T10:18:51.951Z</time></trkpt><trkpt lat="43.3373239" lon="11.4071336"><ele>290.5</ele><time>2026-04-26T10:18:52.967Z</time></trkpt><trkpt lat="43.3372202" lon="11.4070489"><ele>290.25</ele><time>2026-04-26T10:18:53.953Z</time></trkpt><trkpt lat="43.3371036" lon="11.4069764"><ele>290.0</ele><time>2026-04-26T10:18:54.95Z</time></trkpt><trkpt lat="43.3369738" lon="11.4069117"><ele>290.5</ele><time>2026-04-26T10:18:55.949Z</time></trkpt><trkpt lat="43.3368336" lon="11.4068519"><ele>291.0</ele><time>2026-04-26T10:18:56.935Z</time></trkpt><trkpt lat="43.336693" lon="11.4067915"><ele>291.5</ele><time>2026-04-26T10:18:57.955Z</time></trkpt><trkpt lat="43.3365694" lon="11.4067382"><ele>292.0</ele><time>2026-04-26T10:18:58.952Z</time></trkpt><trkpt lat="43.3364608" lon="11.4066969"><ele>293.4</ele><time>2026-04-26T10:18:59.965Z</time></trkpt><trkpt lat="43.3363641" lon="11.4066699"><ele>294.79999999999995</ele><time>2026-04-26T10:19:00.969Z</time></trkpt><trkpt lat="43.3362732" lon="11.4066602"><ele>296.2</ele><time>2026-04-26T10:19:01.976Z</time></trkpt><trkpt lat="43.3361824" lon="11.4066695"><ele>297.59999999999997</ele><time>2026-04-26T10:19:02.978Z</time></trkpt><trkpt lat="43.3360949" lon="11.4066993"><ele>299.0</ele><time>2026-04-26T10:19:03.948Z</time></trkpt><trkpt lat="43.3360082" lon="11.4067539"><ele>299.0</ele><time>2026-04-26T10:19:04.957Z</time></trkpt><trkpt lat="43.3359196" lon="11.4068318"><ele>299.0</ele><time>2026-04-26T10:19:05.955Z</time></trkpt><trkpt lat="43.3358294" lon="11.4069268"><ele>299.0</ele><time>2026-04-26T10:19:06.962Z</time></trkpt><trkpt lat="43.3357384" lon="11.4070358"><ele>299.0</ele><time>2026-04-26T10:19:07.946Z</time></trkpt><trkpt lat="43.3356445" lon="11.4071495"><ele>298.59999999999997</ele><time>2026-04-26T10:19:08.968Z</time></trkpt><trkpt lat="43.3355576" lon="11.4072477"><ele>298.2</ele><time>2026-04-26T10:19:09.951Z</time></trkpt><trkpt lat="43.3354762" lon="11.4073212"><ele>297.79999999999995</ele><time>2026-04-26T10:19:10.953Z</time></trkpt><trkpt lat="43.3353943" lon="11.4073661"><ele>297.4</ele><time>2026-04-26T10:19:11.952Z</time></trkpt><trkpt lat="43.3352997" lon="11.4073887"><ele>297.0</ele><time>2026-04-26T10:19:12.961Z</time></trkpt><trkpt lat="43.3351882" lon="11.4074017"><ele>297.0</ele><time>2026-04-26T10:19:13.953Z</time></trkpt><trkpt lat="43.3350655" lon="11.4074229"><ele>297.0</ele><time>2026-04-26T10:19:14.942Z</time></trkpt><trkpt lat="43.3349427" lon="11.4074521"><ele>297.0</ele><time>2026-04-26T10:19:15.95Z</time></trkpt><trkpt lat="43.334826" lon="11.407474"><ele>297.0</ele><time>2026-04-26T10:19:16.954Z</time></trkpt><trkpt lat="43.3347132" lon="11.4074818"><ele>295.6</ele><time>2026-04-26T10:19:17.951Z</time></trkpt><trkpt lat="43.3346026" lon="11.4074833"><ele>294.2</ele><time>2026-04-26T10:19:18.958Z</time></trkpt><trkpt lat="43.3345033" lon="11.4074828"><ele>292.8</ele><time>2026-04-26T10:19:19.947Z</time></trkpt><trkpt lat="43.3344229" lon="11.4074783"><ele>291.4</ele><time>2026-04-26T10:19:20.959Z</time></trkpt><trkpt lat="43.3343586" lon="11.4074625"><ele>290.0</ele><time>2026-04-26T10:19:21.941Z</time></trkpt><trkpt lat="43.3342658" lon="11.4073448"><ele>290.0</ele><time>2026-04-26T10:19:23.953Z</time></trkpt><trkpt lat="43.3342454" lon="11.4072339"><ele>290.0</ele><time>2026-04-26T10:19:24.971Z</time></trkpt><trkpt lat="43.3342342" lon="11.4071112"><ele>290.0</ele><time>2026-04-26T10:19:25.963Z</time></trkpt><trkpt lat="43.334222" lon="11.4069889"><ele>290.0</ele><time>2026-04-26T10:19:26.982Z</time></trkpt><trkpt lat="43.3342073" lon="11.4068742"><ele>290.0</ele><time>2026-04-26T10:19:27.963Z</time></trkpt><trkpt lat="43.3341938" lon="11.4067612"><ele>290.0</ele><time>2026-04-26T10:19:28.964Z</time></trkpt><trkpt lat="43.3341816" lon="11.4066525"><ele>289.83333333333337</ele><time>2026-04-26T10:19:29.965Z</time></trkpt><trkpt lat="43.3341679" lon="11.406546"><ele>289.6666666666667</ele><time>2026-04-26T10:19:30.987Z</time></trkpt><trkpt lat="43.3341511" lon="11.4064389"><ele>289.5</ele><time>2026-04-26T10:19:31.967Z</time></trkpt><trkpt lat="43.3341351" lon="11.4063305"><ele>289.3333333333333</ele><time>2026-04-26T10:19:32.96Z</time></trkpt><trkpt lat="43.334122" lon="11.4062222"><ele>289.16666666666663</ele><time>2026-04-26T10:19:33.965Z</time></trkpt><trkpt lat="43.3341074" lon="11.4061114"><ele>289.0</ele><time>2026-04-26T10:19:34.97Z</time></trkpt><trkpt lat="43.3340932" lon="11.4060051"><ele>288.5</ele><time>2026-04-26T10:19:35.96Z</time></trkpt><trkpt lat="43.3340855" lon="11.4058998"><ele>288.0</ele><time>2026-04-26T10:19:36.969Z</time></trkpt><trkpt lat="43.3340888" lon="11.4057948"><ele>287.5</ele><time>2026-04-26T10:19:37.961Z</time></trkpt><trkpt lat="43.3340993" lon="11.4056849"><ele>287.0</ele><time>2026-04-26T10:19:38.973Z</time></trkpt><trkpt lat="43.33411" lon="11.405565"><ele>286.5</ele><time>2026-04-26T10:19:39.972Z</time></trkpt><trkpt lat="43.3341186" lon="11.4054354"><ele>286.0</ele><time>2026-04-26T10:19:40.962Z</time></trkpt><trkpt lat="43.3341282" lon="11.4052971"><ele>285.0</ele><time>2026-04-26T10:19:41.975Z</time></trkpt><trkpt lat="43.3341405" lon="11.4051488"><ele>284.0</ele><time>2026-04-26T10:19:42.964Z</time></trkpt><trkpt lat="43.3341541" lon="11.404988"><ele>283.0</ele><time>2026-04-26T10:19:43.956Z</time></trkpt><trkpt lat="43.3341699" lon="11.4048194"><ele>282.0</ele><time>2026-04-26T10:19:44.96Z</time></trkpt><trkpt lat="43.3341857" lon="11.4046588"><ele>282.0</ele><time>2026-04-26T10:19:45.941Z</time></trkpt><trkpt lat="43.3341992" lon="11.4045134"><ele>282.0</ele><time>2026-04-26T10:19:46.943Z</time></trkpt><trkpt lat="43.3342089" lon="11.4043744"><ele>282.0</ele><time>2026-04-26T10:19:47.95Z</time></trkpt><trkpt lat="43.33421" lon="11.404245"><ele>282.0</ele><time>2026-04-26T10:19:48.966Z</time></trkpt><trkpt lat="43.3341981" lon="11.4041443"><ele>282.0</ele><time>2026-04-26T10:19:49.966Z</time></trkpt><trkpt lat="43.3341383" lon="11.4040439"><ele>282.0</ele><time>2026-04-26T10:19:51.969Z</time></trkpt><trkpt lat="43.3340256" lon="11.4040466"><ele>282.0</ele><time>2026-04-26T10:19:53.982Z</time></trkpt><trkpt lat="43.3339513" lon="11.4040788"><ele>282.0</ele><time>2026-04-26T10:19:54.984Z</time></trkpt><trkpt lat="43.3338658" lon="11.4041245"><ele>282.0</ele><time>2026-04-26T10:19:55.971Z</time></trkpt><trkpt lat="43.3337704" lon="11.4041734"><ele>282.0</ele><time>2026-04-26T10:19:56.977Z</time></trkpt><trkpt lat="43.3336715" lon="11.4042214"><ele>281.6</ele><time>2026-04-26T10:19:57.962Z</time></trkpt><trkpt lat="43.3335701" lon="11.4042713"><ele>281.2</ele><time>2026-04-26T10:19:58.976Z</time></trkpt><trkpt lat="43.3334711" lon="11.4043217"><ele>280.8</ele><time>2026-04-26T10:19:59.96Z</time></trkpt><trkpt lat="43.3333648" lon="11.4043769"><ele>280.4</ele><time>2026-04-26T10:20:00.976Z</time></trkpt><trkpt lat="43.3332508" lon="11.4044363"><ele>280.0</ele><time>2026-04-26T10:20:01.961Z</time></trkpt><trkpt lat="43.3331308" lon="11.4044985"><ele>280.25</ele><time>2026-04-26T10:20:02.978Z</time></trkpt><trkpt lat="43.3330119" lon="11.4045603"><ele>280.5</ele><time>2026-04-26T10:20:03.961Z</time></trkpt><trkpt lat="43.3328919" lon="11.4046199"><ele>280.75</ele><time>2026-04-26T10:20:04.965Z</time></trkpt><trkpt lat="43.3327734" lon="11.4046806"><ele>281.0</ele><time>2026-04-26T10:20:05.961Z</time></trkpt><trkpt lat="43.3326563" lon="11.4047493"><ele>280.25</ele><time>2026-04-26T10:20:06.953Z</time></trkpt><trkpt lat="43.332541" lon="11.404819"><ele>279.5</ele><time>2026-04-26T10:20:07.933Z</time></trkpt><trkpt lat="43.3324264" lon="11.4048818"><ele>278.75</ele><time>2026-04-26T10:20:08.939Z</time></trkpt><trkpt lat="43.3323092" lon="11.4049448"><ele>278.0</ele><time>2026-04-26T10:20:09.932Z</time></trkpt><trkpt lat="43.332188" lon="11.4050075"><ele>278.0</ele><time>2026-04-26T10:20:10.93Z</time></trkpt><trkpt lat="43.3320708" lon="11.4050666"><ele>278.0</ele><time>2026-04-26T10:20:11.939Z</time></trkpt><trkpt lat="43.3319634" lon="11.4051227"><ele>278.0</ele><time>2026-04-26T10:20:12.946Z</time></trkpt><trkpt lat="43.331865" lon="11.4051741"><ele>278.0</ele><time>2026-04-26T10:20:13.946Z</time></trkpt><trkpt lat="43.3317704" lon="11.4052174"><ele>278.0</ele><time>2026-04-26T10:20:14.951Z</time></trkpt><trkpt lat="43.3316734" lon="11.405249"><ele>278.0</ele><time>2026-04-26T10:20:15.942Z</time></trkpt><trkpt lat="43.331568" lon="11.4052715"><ele>278.0</ele><time>2026-04-26T10:20:16.942Z</time></trkpt><trkpt lat="43.3314567" lon="11.4052966"><ele>278.0</ele><time>2026-04-26T10:20:17.952Z</time></trkpt><trkpt lat="43.3313411" lon="11.4053235"><ele>278.0</ele><time>2026-04-26T10:20:18.967Z</time></trkpt><trkpt lat="43.3312194" lon="11.4053507"><ele>276.5</ele><time>2026-04-26T10:20:19.959Z</time></trkpt><trkpt lat="43.3310867" lon="11.405382"><ele>275.0</ele><time>2026-04-26T10:20:20.985Z</time></trkpt><trkpt lat="43.3309523" lon="11.4054162"><ele>273.5</ele><time>2026-04-26T10:20:21.962Z</time></trkpt><trkpt lat="43.3308266" lon="11.4054523"><ele>272.0</ele><time>2026-04-26T10:20:22.961Z</time></trkpt><trkpt lat="43.33071" lon="11.4054807"><ele>271.25</ele><time>2026-04-26T10:20:23.944Z</time></trkpt><trkpt lat="43.3305948" lon="11.4055106"><ele>270.5</ele><time>2026-04-26T10:20:24.964Z</time></trkpt><trkpt lat="43.3304759" lon="11.4055555"><ele>269.75</ele><time>2026-04-26T10:20:25.952Z</time></trkpt><trkpt lat="43.3303497" lon="11.4056084"><ele>269.0</ele><time>2026-04-26T10:20:26.961Z</time></trkpt><trkpt lat="43.33023" lon="11.4056643"><ele>267.75</ele><time>2026-04-26T10:20:27.964Z</time></trkpt><trkpt lat="43.3301164" lon="11.4057264"><ele>266.5</ele><time>2026-04-26T10:20:28.954Z</time></trkpt><trkpt lat="43.3299999" lon="11.4057973"><ele>265.25</ele><time>2026-04-26T10:20:29.978Z</time></trkpt><trkpt lat="43.3298803" lon="11.4058728"><ele>264.0</ele><time>2026-04-26T10:20:30.965Z</time></trkpt><trkpt lat="43.3297585" lon="11.4059557"><ele>262.75</ele><time>2026-04-26T10:20:31.953Z</time></trkpt><trkpt lat="43.3296389" lon="11.4060497"><ele>261.5</ele><time>2026-04-26T10:20:32.956Z</time></trkpt><trkpt lat="43.3295233" lon="11.4061576"><ele>260.25</ele><time>2026-04-26T10:20:33.949Z</time></trkpt><trkpt lat="43.3294156" lon="11.4062766"><ele>259.0</ele><time>2026-04-26T10:20:34.949Z</time></trkpt><trkpt lat="43.3293201" lon="11.4063951"><ele>258.75</ele><time>2026-04-26T10:20:35.943Z</time></trkpt><trkpt lat="43.3292301" lon="11.4065149"><ele>258.5</ele><time>2026-04-26T10:20:36.949Z</time></trkpt><trkpt lat="43.3291376" lon="11.4066368"><ele>258.25</ele><time>2026-04-26T10:20:37.957Z</time></trkpt><trkpt lat="43.3290361" lon="11.4067644"><ele>258.0</ele><time>2026-04-26T10:20:38.961Z</time></trkpt><trkpt lat="43.3289288" lon="11.4068952"><ele>257.6666666666667</ele><time>2026-04-26T10:20:39.965Z</time></trkpt><trkpt lat="43.3288188" lon="11.4070253"><ele>257.33333333333337</ele><time>2026-04-26T10:20:40.949Z</time></trkpt><trkpt lat="43.328702" lon="11.4071582"><ele>257.0</ele><time>2026-04-26T10:20:41.956Z</time></trkpt><trkpt lat="43.3285807" lon="11.4072983"><ele>255.66666666666669</ele><time>2026-04-26T10:20:42.971Z</time></trkpt><trkpt lat="43.3284581" lon="11.4074444"><ele>254.33333333333331</ele><time>2026-04-26T10:20:43.954Z</time></trkpt><trkpt lat="43.3283301" lon="11.4075985"><ele>253.0</ele><time>2026-04-26T10:20:44.969Z</time></trkpt><trkpt lat="43.3281993" lon="11.4077585"><ele>253.0</ele><time>2026-04-26T10:20:45.957Z</time></trkpt><trkpt lat="43.3280677" lon="11.4079155"><ele>253.0</ele><time>2026-04-26T10:20:46.961Z</time></trkpt><trkpt lat="43.3279433" lon="11.4080616"><ele>253.0</ele><time>2026-04-26T10:20:47.958Z</time></trkpt><trkpt lat="43.3278165" lon="11.4082106"><ele>253.0</ele><time>2026-04-26T10:20:48.974Z</time></trkpt><trkpt lat="43.3276875" lon="11.4083561"><ele>253.0</ele><time>2026-04-26T10:20:49.987Z</time></trkpt><trkpt lat="43.3275647" lon="11.4084913"><ele>253.0</ele><time>2026-04-26T10:20:50.958Z</time></trkpt><trkpt lat="43.3274516" lon="11.4086206"><ele>253.0</ele><time>2026-04-26T10:20:51.958Z</time></trkpt><trkpt lat="43.3273458" lon="11.4087409"><ele>253.0</ele><time>2026-04-26T10:20:52.961Z</time></trkpt><trkpt lat="43.3272458" lon="11.4088548"><ele>253.0</ele><time>2026-04-26T10:20:53.951Z</time></trkpt><trkpt lat="43.3271521" lon="11.4089625"><ele>253.0</ele><time>2026-04-26T10:20:54.959Z</time></trkpt><trkpt lat="43.3270697" lon="11.4090656"><ele>251.25</ele><time>2026-04-26T10:20:55.945Z</time></trkpt><trkpt lat="43.3269937" lon="11.4091765"><ele>249.5</ele><time>2026-04-26T10:20:56.95Z</time></trkpt><trkpt lat="43.3269193" lon="11.4092975"><ele>247.75</ele><time>2026-04-26T10:20:57.945Z</time></trkpt><trkpt lat="43.326847" lon="11.4094219"><ele>246.0</ele><time>2026-04-26T10:20:58.946Z</time></trkpt><trkpt lat="43.3267737" lon="11.4095412"><ele>246.0</ele><time>2026-04-26T10:20:59.952Z</time></trkpt><trkpt lat="43.3266881" lon="11.4096533"><ele>246.0</ele><time>2026-04-26T10:21:00.935Z</time></trkpt><trkpt lat="43.3265858" lon="11.4097634"><ele>246.0</ele><time>2026-04-26T10:21:01.951Z</time></trkpt><trkpt lat="43.3264833" lon="11.4098699"><ele>246.0</ele><time>2026-04-26T10:21:02.959Z</time></trkpt><trkpt lat="43.3263894" lon="11.4099716"><ele>245.4</ele><time>2026-04-26T10:21:03.987Z</time></trkpt><trkpt lat="43.326307" lon="11.4100655"><ele>244.8</ele><time>2026-04-26T10:21:04.951Z</time></trkpt><trkpt lat="43.3262336" lon="11.410152"><ele>244.20000000000002</ele><time>2026-04-26T10:21:05.961Z</time></trkpt><trkpt lat="43.3261684" lon="11.4102278"><ele>243.60000000000002</ele><time>2026-04-26T10:21:06.972Z</time></trkpt><trkpt lat="43.3261106" lon="11.4102863"><ele>243.0</ele><time>2026-04-26T10:21:07.958Z</time></trkpt><trkpt lat="43.326" lon="11.4103116"><ele>243.0</ele><time>2026-04-26T10:21:09.964Z</time></trkpt><trkpt lat="43.3259183" lon="11.410191"><ele>243.0</ele><time>2026-04-26T10:21:11.949Z</time></trkpt><trkpt lat="43.3258747" lon="11.4100744"><ele>243.0</ele><time>2026-04-26T10:21:12.98Z</time></trkpt><trkpt lat="43.3258359" lon="11.4099345"><ele>243.0</ele><time>2026-04-26T10:21:13.962Z</time></trkpt><trkpt lat="43.3258137" lon="11.4097739"><ele>243.0</ele><time>2026-04-26T10:21:14.965Z</time></trkpt><trkpt lat="43.3258168" lon="11.4095909"><ele>240.33333333333331</ele><time>2026-04-26T10:21:15.952Z</time></trkpt><trkpt lat="43.3258318" lon="11.4093808"><ele>237.66666666666666</ele><time>2026-04-26T10:21:16.951Z</time></trkpt><trkpt lat="43.3258367" lon="11.4091409"><ele>235.0</ele><time>2026-04-26T10:21:17.944Z</time></trkpt><trkpt lat="43.3258224" lon="11.4088816"><ele>233.66666666666666</ele><time>2026-04-26T10:21:18.964Z</time></trkpt><trkpt lat="43.3257951" lon="11.4086223"><ele>232.33333333333331</ele><time>2026-04-26T10:21:19.963Z</time></trkpt><trkpt lat="43.3257645" lon="11.4083534"><ele>231.0</ele><time>2026-04-26T10:21:20.946Z</time></trkpt><trkpt lat="43.3257339" lon="11.4080784"><ele>229.66666666666669</ele><time>2026-04-26T10:21:21.952Z</time></trkpt><trkpt lat="43.3257054" lon="11.4078136"><ele>228.33333333333334</ele><time>2026-04-26T10:21:22.943Z</time></trkpt><trkpt lat="43.32568" lon="11.4075593"><ele>227.0</ele><time>2026-04-26T10:21:23.936Z</time></trkpt><trkpt lat="43.3256543" lon="11.4073138"><ele>225.66666666666669</ele><time>2026-04-26T10:21:24.969Z</time></trkpt><trkpt lat="43.3256255" lon="11.4070861"><ele>224.33333333333331</ele><time>2026-04-26T10:21:25.937Z</time></trkpt><trkpt lat="43.3255867" lon="11.406867"><ele>223.0</ele><time>2026-04-26T10:21:26.937Z</time></trkpt><trkpt lat="43.3255257" lon="11.4066581"><ele>223.0</ele><time>2026-04-26T10:21:27.951Z</time></trkpt><trkpt lat="43.3254372" lon="11.4064555"><ele>223.0</ele><time>2026-04-26T10:21:28.938Z</time></trkpt><trkpt lat="43.3253339" lon="11.4062485"><ele>223.0</ele><time>2026-04-26T10:21:29.941Z</time></trkpt><trkpt lat="43.3252392" lon="11.4060366"><ele>221.0</ele><time>2026-04-26T10:21:30.962Z</time></trkpt><trkpt lat="43.3251672" lon="11.4058255"><ele>219.0</ele><time>2026-04-26T10:21:31.966Z</time></trkpt><trkpt lat="43.3251082" lon="11.4056196"><ele>217.0</ele><time>2026-04-26T10:21:32.956Z</time></trkpt><trkpt lat="43.3250567" lon="11.4054243"><ele>216.33333333333331</ele><time>2026-04-26T10:21:33.951Z</time></trkpt><trkpt lat="43.3250125" lon="11.4052283"><ele>215.66666666666669</ele><time>2026-04-26T10:21:34.97Z</time></trkpt><trkpt lat="43.3249784" lon="11.4050173"><ele>215.0</ele><time>2026-04-26T10:21:35.973Z</time></trkpt><trkpt lat="43.3249566" lon="11.4047906"><ele>214.66666666666669</ele><time>2026-04-26T10:21:36.971Z</time></trkpt><trkpt lat="43.3249471" lon="11.4045639"><ele>214.33333333333331</ele><time>2026-04-26T10:21:37.977Z</time></trkpt><trkpt lat="43.3249457" lon="11.4043521"><ele>214.0</ele><time>2026-04-26T10:21:38.986Z</time></trkpt><trkpt lat="43.3249465" lon="11.4041476"><ele>214.0</ele><time>2026-04-26T10:21:39.973Z</time></trkpt><trkpt lat="43.3249466" lon="11.4039375"><ele>214.0</ele><time>2026-04-26T10:21:40.978Z</time></trkpt><trkpt lat="43.3249481" lon="11.4037268"><ele>214.0</ele><time>2026-04-26T10:21:41.957Z</time></trkpt><trkpt lat="43.3249593" lon="11.403504"><ele>213.33333333333331</ele><time>2026-04-26T10:21:42.974Z</time></trkpt><trkpt lat="43.3249809" lon="11.4032706"><ele>212.66666666666669</ele><time>2026-04-26T10:21:43.965Z</time></trkpt><trkpt lat="43.3250058" lon="11.4030206"><ele>212.0</ele><time>2026-04-26T10:21:44.965Z</time></trkpt><trkpt lat="43.3250279" lon="11.4027663"><ele>213.33333333333334</ele><time>2026-04-26T10:21:45.959Z</time></trkpt><trkpt lat="43.3250468" lon="11.4025163"><ele>214.66666666666669</ele><time>2026-04-26T10:21:46.953Z</time></trkpt><trkpt lat="43.3250647" lon="11.4022712"><ele>216.0</ele><time>2026-04-26T10:21:47.965Z</time></trkpt><trkpt lat="43.3250794" lon="11.4020336"><ele>219.33333333333331</ele><time>2026-04-26T10:21:48.948Z</time></trkpt><trkpt lat="43.3250901" lon="11.4017908"><ele>222.66666666666666</ele><time>2026-04-26T10:21:49.96Z</time></trkpt><trkpt lat="43.3250913" lon="11.4015519"><ele>226.0</ele><time>2026-04-26T10:21:50.971Z</time></trkpt><trkpt lat="43.3250846" lon="11.4013367"><ele>227.25</ele><time>2026-04-26T10:21:51.981Z</time></trkpt><trkpt lat="43.3250762" lon="11.4011414"><ele>228.5</ele><time>2026-04-26T10:21:52.973Z</time></trkpt><trkpt lat="43.325075" lon="11.4009465"><ele>229.75</ele><time>2026-04-26T10:21:53.977Z</time></trkpt><trkpt lat="43.3250871" lon="11.4007433"><ele>231.0</ele><time>2026-04-26T10:21:54.966Z</time></trkpt><trkpt lat="43.325112" lon="11.4005303"><ele>232.66666666666669</ele><time>2026-04-26T10:21:55.978Z</time></trkpt><trkpt lat="43.3251405" lon="11.4003157"><ele>234.33333333333334</ele><time>2026-04-26T10:21:56.981Z</time></trkpt><trkpt lat="43.3251603" lon="11.4000948"><ele>236.0</ele><time>2026-04-26T10:21:57.973Z</time></trkpt><trkpt lat="43.3251676" lon="11.3998563"><ele>237.66666666666669</ele><time>2026-04-26T10:21:58.981Z</time></trkpt><trkpt lat="43.3251613" lon="11.3996062"><ele>239.33333333333331</ele><time>2026-04-26T10:21:59.971Z</time></trkpt><trkpt lat="43.3251441" lon="11.399353"><ele>241.0</ele><time>2026-04-26T10:22:00.997Z</time></trkpt><trkpt lat="43.3251255" lon="11.3991161"><ele>241.0</ele><time>2026-04-26T10:22:01.968Z</time></trkpt><trkpt lat="43.3251095" lon="11.3988924"><ele>241.0</ele><time>2026-04-26T10:22:02.983Z</time></trkpt><trkpt lat="43.325097" lon="11.3986891"><ele>241.0</ele><time>2026-04-26T10:22:03.975Z</time></trkpt><trkpt lat="43.3250871" lon="11.3984898"><ele>242.5</ele><time>2026-04-26T10:22:04.987Z</time></trkpt><trkpt lat="43.3250794" lon="11.3983008"><ele>244.0</ele><time>2026-04-26T10:22:05.963Z</time></trkpt><trkpt lat="43.3250745" lon="11.398128"><ele>245.5</ele><time>2026-04-26T10:22:06.977Z</time></trkpt><trkpt lat="43.3250773" lon="11.397969"><ele>247.0</ele><time>2026-04-26T10:22:07.975Z</time></trkpt><trkpt lat="43.3250947" lon="11.3978109"><ele>247.0</ele><time>2026-04-26T10:22:08.979Z</time></trkpt><trkpt lat="43.3251359" lon="11.3976505"><ele>247.0</ele><time>2026-04-26T10:22:09.958Z</time></trkpt><trkpt lat="43.3251988" lon="11.397478"><ele>247.0</ele><time>2026-04-26T10:22:10.959Z</time></trkpt><trkpt lat="43.3252709" lon="11.3972887"><ele>247.0</ele><time>2026-04-26T10:22:11.952Z</time></trkpt><trkpt lat="43.3253405" lon="11.3970781"><ele>247.0</ele><time>2026-04-26T10:22:12.963Z</time></trkpt><trkpt lat="43.3254077" lon="11.3968585"><ele>247.0</ele><time>2026-04-26T10:22:13.949Z</time></trkpt><trkpt lat="43.3254744" lon="11.3966308"><ele>247.0</ele><time>2026-04-26T10:22:14.955Z</time></trkpt><trkpt lat="43.3255386" lon="11.3964118"><ele>248.0</ele><time>2026-04-26T10:22:15.957Z</time></trkpt><trkpt lat="43.3256011" lon="11.3962084"><ele>249.0</ele><time>2026-04-26T10:22:16.955Z</time></trkpt><trkpt lat="43.325655" lon="11.3960134"><ele>250.0</ele><time>2026-04-26T10:22:17.968Z</time></trkpt><trkpt lat="43.3256859" lon="11.3958165"><ele>250.0</ele><time>2026-04-26T10:22:18.963Z</time></trkpt><trkpt lat="43.325696" lon="11.3956069"><ele>250.0</ele><time>2026-04-26T10:22:19.956Z</time></trkpt><trkpt lat="43.3256967" lon="11.3953863"><ele>250.0</ele><time>2026-04-26T10:22:20.95Z</time></trkpt><trkpt lat="43.3256988" lon="11.3951579"><ele>250.66666666666666</ele><time>2026-04-26T10:22:21.959Z</time></trkpt><trkpt lat="43.325698" lon="11.3949252"><ele>251.33333333333331</ele><time>2026-04-26T10:22:22.978Z</time></trkpt><trkpt lat="43.3256872" lon="11.3946999"><ele>252.0</ele><time>2026-04-26T10:22:23.986Z</time></trkpt><trkpt lat="43.3256582" lon="11.3944838"><ele>253.0</ele><time>2026-04-26T10:22:24.985Z</time></trkpt><trkpt lat="43.3256095" lon="11.3942715"><ele>254.0</ele><time>2026-04-26T10:22:25.962Z</time></trkpt><trkpt lat="43.3255462" lon="11.3940554"><ele>255.0</ele><time>2026-04-26T10:22:26.98Z</time></trkpt><trkpt lat="43.3254792" lon="11.3938372"><ele>256.6666666666667</ele><time>2026-04-26T10:22:27.985Z</time></trkpt><trkpt lat="43.3254116" lon="11.3936144"><ele>258.33333333333337</ele><time>2026-04-26T10:22:28.994Z</time></trkpt><trkpt lat="43.3253439" lon="11.3933875"><ele>260.0</ele><time>2026-04-26T10:22:29.982Z</time></trkpt><trkpt lat="43.3252732" lon="11.3931616"><ele>261.0</ele><time>2026-04-26T10:22:30.982Z</time></trkpt><trkpt lat="43.3252039" lon="11.3929523"><ele>262.0</ele><time>2026-04-26T10:22:31.972Z</time></trkpt><trkpt lat="43.3251406" lon="11.3927736"><ele>263.0</ele><time>2026-04-26T10:22:32.97Z</time></trkpt><trkpt lat="43.3250802" lon="11.3926375"><ele>264.0</ele><time>2026-04-26T10:22:33.963Z</time></trkpt><trkpt lat="43.3250119" lon="11.3925491"><ele>264.0</ele><time>2026-04-26T10:22:34.963Z</time></trkpt><trkpt lat="43.3249289" lon="11.3925132"><ele>264.0</ele><time>2026-04-26T10:22:35.963Z</time></trkpt><trkpt lat="43.3248323" lon="11.3925197"><ele>264.0</ele><time>2026-04-26T10:22:36.952Z</time></trkpt><trkpt lat="43.3247199" lon="11.392543"><ele>264.0</ele><time>2026-04-26T10:22:37.961Z</time></trkpt><trkpt lat="43.3245986" lon="11.3925544"><ele>264.0</ele><time>2026-04-26T10:22:38.979Z</time></trkpt><trkpt lat="43.3244799" lon="11.3925416"><ele>264.25</ele><time>2026-04-26T10:22:39.963Z</time></trkpt><trkpt lat="43.324359" lon="11.3925027"><ele>264.5</ele><time>2026-04-26T10:22:40.967Z</time></trkpt><trkpt lat="43.3242348" lon="11.3924415"><ele>264.75</ele><time>2026-04-26T10:22:41.966Z</time></trkpt><trkpt lat="43.3241035" lon="11.39238"><ele>265.0</ele><time>2026-04-26T10:22:42.976Z</time></trkpt><trkpt lat="43.3239573" lon="11.3923338"><ele>264.66666666666663</ele><time>2026-04-26T10:22:43.966Z</time></trkpt><trkpt lat="43.3237941" lon="11.3922932"><ele>264.3333333333333</ele><time>2026-04-26T10:22:44.971Z</time></trkpt><trkpt lat="43.3236299" lon="11.3922548"><ele>264.0</ele><time>2026-04-26T10:22:45.974Z</time></trkpt><trkpt lat="43.3234752" lon="11.39222"><ele>264.0</ele><time>2026-04-26T10:22:46.954Z</time></trkpt><trkpt lat="43.3233299" lon="11.3921864"><ele>264.0</ele><time>2026-04-26T10:22:47.953Z</time></trkpt><trkpt lat="43.3231943" lon="11.3921535"><ele>264.0</ele><time>2026-04-26T10:22:48.963Z</time></trkpt><trkpt lat="43.3230655" lon="11.3921207"><ele>264.0</ele><time>2026-04-26T10:22:49.964Z</time></trkpt><trkpt lat="43.3229377" lon="11.3920886"><ele>262.25</ele><time>2026-04-26T10:22:50.97Z</time></trkpt><trkpt lat="43.32281" lon="11.3920532"><ele>260.5</ele><time>2026-04-26T10:22:51.97Z</time></trkpt><trkpt lat="43.3226795" lon="11.3920133"><ele>258.75</ele><time>2026-04-26T10:22:52.949Z</time></trkpt><trkpt lat="43.3225421" lon="11.3919692"><ele>257.0</ele><time>2026-04-26T10:22:53.953Z</time></trkpt><trkpt lat="43.3223994" lon="11.3919243"><ele>257.0</ele><time>2026-04-26T10:22:54.965Z</time></trkpt><trkpt lat="43.3222542" lon="11.3918827"><ele>257.0</ele><time>2026-04-26T10:22:55.953Z</time></trkpt><trkpt lat="43.3221043" lon="11.3918426"><ele>257.0</ele><time>2026-04-26T10:22:56.958Z</time></trkpt><trkpt lat="43.3219526" lon="11.3918021"><ele>255.66666666666669</ele><time>2026-04-26T10:22:57.943Z</time></trkpt><trkpt lat="43.3217999" lon="11.3917573"><ele>254.33333333333331</ele><time>2026-04-26T10:22:58.951Z</time></trkpt><trkpt lat="43.3216494" lon="11.3917035"><ele>253.0</ele><time>2026-04-26T10:22:59.953Z</time></trkpt><trkpt lat="43.3215018" lon="11.391633"><ele>251.66666666666666</ele><time>2026-04-26T10:23:00.953Z</time></trkpt><trkpt lat="43.321358" lon="11.3915444"><ele>250.33333333333331</ele><time>2026-04-26T10:23:01.948Z</time></trkpt><trkpt lat="43.3212151" lon="11.3914396"><ele>249.0</ele><time>2026-04-26T10:23:02.948Z</time></trkpt><trkpt lat="43.321072" lon="11.391335"><ele>248.5</ele><time>2026-04-26T10:23:03.968Z</time></trkpt><trkpt lat="43.3209369" lon="11.3912394"><ele>248.0</ele><time>2026-04-26T10:23:04.978Z</time></trkpt><trkpt lat="43.3208124" lon="11.3911499"><ele>247.5</ele><time>2026-04-26T10:23:05.958Z</time></trkpt><trkpt lat="43.3206938" lon="11.3910685"><ele>247.0</ele><time>2026-04-26T10:23:06.979Z</time></trkpt><trkpt lat="43.3205808" lon="11.3910063"><ele>247.39999999999998</ele><time>2026-04-26T10:23:07.981Z</time></trkpt><trkpt lat="43.3204715" lon="11.3909634"><ele>247.79999999999998</ele><time>2026-04-26T10:23:08.987Z</time></trkpt><trkpt lat="43.320368" lon="11.3909409"><ele>248.2</ele><time>2026-04-26T10:23:09.991Z</time></trkpt><trkpt lat="43.3202747" lon="11.3909208"><ele>248.6</ele><time>2026-04-26T10:23:10.964Z</time></trkpt><trkpt lat="43.3201919" lon="11.3908781"><ele>249.0</ele><time>2026-04-26T10:23:11.981Z</time></trkpt><trkpt lat="43.3201309" lon="11.3908046"><ele>249.0</ele><time>2026-04-26T10:23:12.973Z</time></trkpt><trkpt lat="43.320095" lon="11.3906948"><ele>249.0</ele><time>2026-04-26T10:23:13.985Z</time></trkpt><trkpt lat="43.3200724" lon="11.3905484"><ele>249.0</ele><time>2026-04-26T10:23:14.988Z</time></trkpt><trkpt lat="43.3200485" lon="11.3903771"><ele>249.0</ele><time>2026-04-26T10:23:15.981Z</time></trkpt><trkpt lat="43.3200202" lon="11.3901962"><ele>248.33333333333331</ele><time>2026-04-26T10:23:16.976Z</time></trkpt><trkpt lat="43.319987" lon="11.3900017"><ele>247.66666666666666</ele><time>2026-04-26T10:23:17.983Z</time></trkpt><trkpt lat="43.3199449" lon="11.3897967"><ele>247.0</ele><time>2026-04-26T10:23:18.984Z</time></trkpt><trkpt lat="43.3198874" lon="11.3895868"><ele>245.66666666666666</ele><time>2026-04-26T10:23:19.97Z</time></trkpt><trkpt lat="43.3198203" lon="11.3893759"><ele>244.33333333333331</ele><time>2026-04-26T10:23:20.992Z</time></trkpt><trkpt lat="43.3197602" lon="11.389175"><ele>243.0</ele><time>2026-04-26T10:23:21.967Z</time></trkpt><trkpt lat="43.3197106" lon="11.3889742"><ele>239.5</ele><time>2026-04-26T10:23:22.963Z</time></trkpt><trkpt lat="43.319669" lon="11.3887762"><ele>236.0</ele><time>2026-04-26T10:23:23.962Z</time></trkpt><trkpt lat="43.3196314" lon="11.3885826"><ele>232.5</ele><time>2026-04-26T10:23:24.968Z</time></trkpt><trkpt lat="43.3195951" lon="11.3883964"><ele>229.0</ele><time>2026-04-26T10:23:25.967Z</time></trkpt><trkpt lat="43.3195614" lon="11.3882147"><ele>229.0</ele><time>2026-04-26T10:23:26.976Z</time></trkpt><trkpt lat="43.3195301" lon="11.3880389"><ele>229.0</ele><time>2026-04-26T10:23:27.964Z</time></trkpt><trkpt lat="43.3195009" lon="11.3878687"><ele>229.0</ele><time>2026-04-26T10:23:28.968Z</time></trkpt><trkpt lat="43.3194684" lon="11.3877145"><ele>229.0</ele><time>2026-04-26T10:23:29.957Z</time></trkpt><trkpt lat="43.3194175" lon="11.387579"><ele>229.0</ele><time>2026-04-26T10:23:30.979Z</time></trkpt><trkpt lat="43.3193402" lon="11.3874738"><ele>228.99999999999997</ele><time>2026-04-26T10:23:31.959Z</time></trkpt><trkpt lat="43.3192404" lon="11.3873989"><ele>228.99999999999997</ele><time>2026-04-26T10:23:32.97Z</time></trkpt><trkpt lat="43.3191387" lon="11.3873315"><ele>229.0</ele><time>2026-04-26T10:23:33.975Z</time></trkpt><trkpt lat="43.319063" lon="11.3872405"><ele>229.0</ele><time>2026-04-26T10:23:34.964Z</time></trkpt><trkpt lat="43.3190326" lon="11.3871149"><ele>228.6</ele><time>2026-04-26T10:23:35.973Z</time></trkpt><trkpt lat="43.3190441" lon="11.3869682"><ele>228.2</ele><time>2026-04-26T10:23:36.999Z</time></trkpt><trkpt lat="43.3190776" lon="11.3868215"><ele>227.79999999999998</ele><time>2026-04-26T10:23:37.983Z</time></trkpt><trkpt lat="43.3191231" lon="11.3866909"><ele>227.39999999999998</ele><time>2026-04-26T10:23:38.988Z</time></trkpt><trkpt lat="43.3191845" lon="11.3865851"><ele>227.0</ele><time>2026-04-26T10:23:39.975Z</time></trkpt><trkpt lat="43.319262" lon="11.3864972"><ele>227.0</ele><time>2026-04-26T10:23:40.978Z</time></trkpt><trkpt lat="43.3193553" lon="11.3864202"><ele>227.0</ele><time>2026-04-26T10:23:41.982Z</time></trkpt><trkpt lat="43.3194604" lon="11.3863529"><ele>227.0</ele><time>2026-04-26T10:23:42.987Z</time></trkpt><trkpt lat="43.3195699" lon="11.3862887"><ele>227.0</ele><time>2026-04-26T10:23:43.971Z</time></trkpt><trkpt lat="43.3196772" lon="11.38623"><ele>226.0</ele><time>2026-04-26T10:23:44.978Z</time></trkpt><trkpt lat="43.3197792" lon="11.3861764"><ele>225.0</ele><time>2026-04-26T10:23:45.978Z</time></trkpt><trkpt lat="43.3198746" lon="11.3861193"><ele>224.0</ele><time>2026-04-26T10:23:46.977Z</time></trkpt><trkpt lat="43.3199583" lon="11.3860464"><ele>223.0</ele><time>2026-04-26T10:23:47.957Z</time></trkpt><trkpt lat="43.3200266" lon="11.3859514"><ele>222.0</ele><time>2026-04-26T10:23:48.965Z</time></trkpt><trkpt lat="43.3200762" lon="11.3858346"><ele>222.0</ele><time>2026-04-26T10:23:49.955Z</time></trkpt><trkpt lat="43.3201045" lon="11.3856878"><ele>222.0</ele><time>2026-04-26T10:23:50.958Z</time></trkpt><trkpt lat="43.320109" lon="11.3855157"><ele>222.0</ele><time>2026-04-26T10:23:51.952Z</time></trkpt><trkpt lat="43.3201053" lon="11.3853398"><ele>222.0</ele><time>2026-04-26T10:23:52.956Z</time></trkpt><trkpt lat="43.3201142" lon="11.3851751"><ele>220.75</ele><time>2026-04-26T10:23:53.953Z</time></trkpt><trkpt lat="43.3201496" lon="11.385018"><ele>219.5</ele><time>2026-04-26T10:23:54.953Z</time></trkpt><trkpt lat="43.3202134" lon="11.3848665"><ele>218.25</ele><time>2026-04-26T10:23:55.943Z</time></trkpt><trkpt lat="43.3203012" lon="11.3847185"><ele>217.0</ele><time>2026-04-26T10:23:56.953Z</time></trkpt><trkpt lat="43.3204021" lon="11.3845811"><ele>216.0</ele><time>2026-04-26T10:23:57.964Z</time></trkpt><trkpt lat="43.3205061" lon="11.3844609"><ele>215.0</ele><time>2026-04-26T10:23:58.948Z</time></trkpt><trkpt lat="43.320606" lon="11.3843445"><ele>214.0</ele><time>2026-04-26T10:23:59.958Z</time></trkpt><trkpt lat="43.3206881" lon="11.3842193"><ele>213.0</ele><time>2026-04-26T10:24:00.948Z</time></trkpt><trkpt lat="43.3207394" lon="11.3840812"><ele>212.25</ele><time>2026-04-26T10:24:01.956Z</time></trkpt><trkpt lat="43.3207569" lon="11.3839397"><ele>211.5</ele><time>2026-04-26T10:24:02.974Z</time></trkpt><trkpt lat="43.3207455" lon="11.3837924"><ele>210.75</ele><time>2026-04-26T10:24:03.961Z</time></trkpt><trkpt lat="43.3207083" lon="11.3836259"><ele>210.0</ele><time>2026-04-26T10:24:04.972Z</time></trkpt><trkpt lat="43.3206607" lon="11.3834477"><ele>207.33333333333331</ele><time>2026-04-26T10:24:05.963Z</time></trkpt><trkpt lat="43.3206196" lon="11.3832554"><ele>204.66666666666666</ele><time>2026-04-26T10:24:06.994Z</time></trkpt><trkpt lat="43.3205906" lon="11.3830487"><ele>202.0</ele><time>2026-04-26T10:24:07.969Z</time></trkpt><trkpt lat="43.3205657" lon="11.3828155"><ele>201.0</ele><time>2026-04-26T10:24:08.985Z</time></trkpt><trkpt lat="43.3205364" lon="11.3825699"><ele>200.0</ele><time>2026-04-26T10:24:09.955Z</time></trkpt><trkpt lat="43.3204976" lon="11.3823122"><ele>199.0</ele><time>2026-04-26T10:24:10.979Z</time></trkpt><trkpt lat="43.3204547" lon="11.382055"><ele>198.66666666666666</ele><time>2026-04-26T10:24:11.967Z</time></trkpt><trkpt lat="43.3204111" lon="11.381792"><ele>198.33333333333331</ele><time>2026-04-26T10:24:12.977Z</time></trkpt><trkpt lat="43.3203701" lon="11.3815355"><ele>198.0</ele><time>2026-04-26T10:24:13.959Z</time></trkpt><trkpt lat="43.3203358" lon="11.3812894"><ele>197.66666666666669</ele><time>2026-04-26T10:24:14.964Z</time></trkpt><trkpt lat="43.3203128" lon="11.3810586"><ele>197.33333333333334</ele><time>2026-04-26T10:24:15.955Z</time></trkpt><trkpt lat="43.3203116" lon="11.3808364"><ele>197.0</ele><time>2026-04-26T10:24:16.973Z</time></trkpt><trkpt lat="43.3203345" lon="11.3806169"><ele>197.0</ele><time>2026-04-26T10:24:17.965Z</time></trkpt><trkpt lat="43.3203681" lon="11.3803919"><ele>197.0</ele><time>2026-04-26T10:24:18.974Z</time></trkpt><trkpt lat="43.3203928" lon="11.3801817"><ele>197.0</ele><time>2026-04-26T10:24:19.958Z</time></trkpt><trkpt lat="43.3204109" lon="11.3799877"><ele>197.0</ele><time>2026-04-26T10:24:20.973Z</time></trkpt><trkpt lat="43.3204298" lon="11.3798051"><ele>197.0</ele><time>2026-04-26T10:24:21.977Z</time></trkpt><trkpt lat="43.3204552" lon="11.3796186"><ele>197.0</ele><time>2026-04-26T10:24:22.967Z</time></trkpt><trkpt lat="43.3204836" lon="11.3794202"><ele>197.0</ele><time>2026-04-26T10:24:23.976Z</time></trkpt><trkpt lat="43.3205136" lon="11.3792067"><ele>198.0</ele><time>2026-04-26T10:24:24.98Z</time></trkpt><trkpt lat="43.3205435" lon="11.3789811"><ele>199.0</ele><time>2026-04-26T10:24:25.97Z</time></trkpt><trkpt lat="43.3205681" lon="11.3787592"><ele>200.0</ele><time>2026-04-26T10:24:26.979Z</time></trkpt><trkpt lat="43.3205797" lon="11.3785467"><ele>200.33333333333334</ele><time>2026-04-26T10:24:27.983Z</time></trkpt><trkpt lat="43.3205727" lon="11.3783296"><ele>200.66666666666669</ele><time>2026-04-26T10:24:28.968Z</time></trkpt><trkpt lat="43.3205522" lon="11.3780983"><ele>201.0</ele><time>2026-04-26T10:24:29.979Z</time></trkpt><trkpt lat="43.3205261" lon="11.3778598"><ele>205.33333333333331</ele><time>2026-04-26T10:24:30.984Z</time></trkpt><trkpt lat="43.3204975" lon="11.3776294"><ele>209.66666666666666</ele><time>2026-04-26T10:24:31.971Z</time></trkpt><trkpt lat="43.3204677" lon="11.3774162"><ele>214.0</ele><time>2026-04-26T10:24:32.975Z</time></trkpt><trkpt lat="43.3204425" lon="11.377212"><ele>217.33333333333331</ele><time>2026-04-26T10:24:33.958Z</time></trkpt><trkpt lat="43.3204263" lon="11.3770008"><ele>220.66666666666669</ele><time>2026-04-26T10:24:34.959Z</time></trkpt><trkpt lat="43.3204241" lon="11.3767821"><ele>224.0</ele><time>2026-04-26T10:24:35.957Z</time></trkpt><trkpt lat="43.3204342" lon="11.3765555"><ele>223.0</ele><time>2026-04-26T10:24:36.965Z</time></trkpt><trkpt lat="43.3204521" lon="11.3763294"><ele>222.0</ele><time>2026-04-26T10:24:37.941Z</time></trkpt><trkpt lat="43.3204763" lon="11.3761018"><ele>221.0</ele><time>2026-04-26T10:24:38.944Z</time></trkpt><trkpt lat="43.320492" lon="11.375884"><ele>221.0</ele><time>2026-04-26T10:24:39.935Z</time></trkpt><trkpt lat="43.3204879" lon="11.3756879"><ele>221.0</ele><time>2026-04-26T10:24:40.948Z</time></trkpt><trkpt lat="43.320459" lon="11.3755216"><ele>221.0</ele><time>2026-04-26T10:24:41.94Z</time></trkpt><trkpt lat="43.3203959" lon="11.3753704"><ele>221.0</ele><time>2026-04-26T10:24:42.951Z</time></trkpt><trkpt lat="43.3203134" lon="11.3752303"><ele>221.0</ele><time>2026-04-26T10:24:43.954Z</time></trkpt><trkpt lat="43.3202488" lon="11.3750988"><ele>221.00000000000003</ele><time>2026-04-26T10:24:44.962Z</time></trkpt><trkpt lat="43.3202208" lon="11.3749702"><ele>221.00000000000003</ele><time>2026-04-26T10:24:45.953Z</time></trkpt><trkpt lat="43.3202261" lon="11.3748391"><ele>221.0</ele><time>2026-04-26T10:24:46.964Z</time></trkpt><trkpt lat="43.320258" lon="11.3746964"><ele>221.0</ele><time>2026-04-26T10:24:47.968Z</time></trkpt><trkpt lat="43.3202984" lon="11.3745363"><ele>221.0</ele><time>2026-04-26T10:24:48.97Z</time></trkpt><trkpt lat="43.3203398" lon="11.374359"><ele>221.0</ele><time>2026-04-26T10:24:49.97Z</time></trkpt><trkpt lat="43.3203914" lon="11.3741547"><ele>221.0</ele><time>2026-04-26T10:24:50.994Z</time></trkpt><trkpt lat="43.3204532" lon="11.3739438"><ele>223.0</ele><time>2026-04-26T10:24:51.972Z</time></trkpt><trkpt lat="43.3205267" lon="11.3737314"><ele>225.0</ele><time>2026-04-26T10:24:52.972Z</time></trkpt><trkpt lat="43.3206128" lon="11.373516"><ele>227.0</ele><time>2026-04-26T10:24:53.973Z</time></trkpt><trkpt lat="43.3207084" lon="11.3733063"><ele>227.5</ele><time>2026-04-26T10:24:54.981Z</time></trkpt><trkpt lat="43.3208032" lon="11.3731209"><ele>228.0</ele><time>2026-04-26T10:24:55.969Z</time></trkpt><trkpt lat="43.3208897" lon="11.3729616"><ele>228.5</ele><time>2026-04-26T10:24:56.979Z</time></trkpt><trkpt lat="43.3209574" lon="11.372812"><ele>229.0</ele><time>2026-04-26T10:24:57.982Z</time></trkpt><trkpt lat="43.3210015" lon="11.3726464"><ele>232.0</ele><time>2026-04-26T10:24:58.962Z</time></trkpt><trkpt lat="43.3210344" lon="11.3724548"><ele>235.0</ele><time>2026-04-26T10:24:59.966Z</time></trkpt><trkpt lat="43.3210686" lon="11.3722444"><ele>238.0</ele><time>2026-04-26T10:25:00.967Z</time></trkpt><trkpt lat="43.3211014" lon="11.3720174"><ele>241.0</ele><time>2026-04-26T10:25:01.956Z</time></trkpt><trkpt lat="43.3211323" lon="11.3717843"><ele>244.0</ele><time>2026-04-26T10:25:02.965Z</time></trkpt><trkpt lat="43.3211623" lon="11.371547"><ele>247.0</ele><time>2026-04-26T10:25:03.953Z</time></trkpt><trkpt lat="43.3211918" lon="11.3713024"><ele>248.66666666666666</ele><time>2026-04-26T10:25:04.956Z</time></trkpt><trkpt lat="43.3212283" lon="11.3710648"><ele>250.33333333333331</ele><time>2026-04-26T10:25:05.966Z</time></trkpt><trkpt lat="43.3212833" lon="11.3708442"><ele>252.0</ele><time>2026-04-26T10:25:06.958Z</time></trkpt><trkpt lat="43.3213594" lon="11.370637"><ele>252.0</ele><time>2026-04-26T10:25:07.961Z</time></trkpt><trkpt lat="43.3214524" lon="11.3704319"><ele>252.0</ele><time>2026-04-26T10:25:08.982Z</time></trkpt><trkpt lat="43.3215532" lon="11.3702278"><ele>252.0</ele><time>2026-04-26T10:25:09.975Z</time></trkpt><trkpt lat="43.3216551" lon="11.3700255"><ele>252.0</ele><time>2026-04-26T10:25:10.982Z</time></trkpt><trkpt lat="43.3217505" lon="11.369841"><ele>252.0</ele><time>2026-04-26T10:25:11.965Z</time></trkpt><trkpt lat="43.3218376" lon="11.369675"><ele>252.0</ele><time>2026-04-26T10:25:12.979Z</time></trkpt><trkpt lat="43.3219124" lon="11.3695299"><ele>252.0</ele><time>2026-04-26T10:25:13.963Z</time></trkpt><trkpt lat="43.3219731" lon="11.3694082"><ele>253.8</ele><time>2026-04-26T10:25:14.969Z</time></trkpt><trkpt lat="43.3220099" lon="11.3693119"><ele>255.6</ele><time>2026-04-26T10:25:15.98Z</time></trkpt><trkpt lat="43.3219779" lon="11.3691553"><ele>257.40000000000003</ele><time>2026-04-26T10:25:17.959Z</time></trkpt><trkpt lat="43.3219143" lon="11.3691267"><ele>259.2</ele><time>2026-04-26T10:25:18.963Z</time></trkpt><trkpt lat="43.3218339" lon="11.369156"><ele>261.0</ele><time>2026-04-26T10:25:19.97Z</time></trkpt><trkpt lat="43.3217458" lon="11.3692354"><ele>261.0</ele><time>2026-04-26T10:25:20.957Z</time></trkpt><trkpt lat="43.321654" lon="11.3693338"><ele>261.0</ele><time>2026-04-26T10:25:21.963Z</time></trkpt><trkpt lat="43.321559" lon="11.3693976"><ele>261.0</ele><time>2026-04-26T10:25:22.945Z</time></trkpt><trkpt lat="43.3214575" lon="11.3694001"><ele>261.0</ele><time>2026-04-26T10:25:23.959Z</time></trkpt><trkpt lat="43.3213575" lon="11.3693478"><ele>261.0</ele><time>2026-04-26T10:25:24.971Z</time></trkpt><trkpt lat="43.3212616" lon="11.369251"><ele>261.40000000000003</ele><time>2026-04-26T10:25:25.958Z</time></trkpt><trkpt lat="43.3211589" lon="11.3691364"><ele>261.8</ele><time>2026-04-26T10:25:26.964Z</time></trkpt><trkpt lat="43.321063" lon="11.3690332"><ele>262.20000000000005</ele><time>2026-04-26T10:25:27.954Z</time></trkpt><trkpt lat="43.3209871" lon="11.368942"><ele>262.6</ele><time>2026-04-26T10:25:28.945Z</time></trkpt><trkpt lat="43.3209421" lon="11.3688552"><ele>263.0</ele><time>2026-04-26T10:25:29.938Z</time></trkpt><trkpt lat="43.3209287" lon="11.3687667"><ele>263.0</ele><time>2026-04-26T10:25:30.956Z</time></trkpt><trkpt lat="43.320942" lon="11.3686698"><ele>263.0</ele><time>2026-04-26T10:25:31.948Z</time></trkpt><trkpt lat="43.3209718" lon="11.3685511"><ele>263.0</ele><time>2026-04-26T10:25:32.969Z</time></trkpt><trkpt lat="43.3210059" lon="11.3684203"><ele>263.0</ele><time>2026-04-26T10:25:33.957Z</time></trkpt><trkpt lat="43.3210378" lon="11.3682779"><ele>263.0</ele><time>2026-04-26T10:25:34.967Z</time></trkpt><trkpt lat="43.3210603" lon="11.3681161"><ele>264.0</ele><time>2026-04-26T10:25:35.957Z</time></trkpt><trkpt lat="43.321072" lon="11.3679312"><ele>265.0</ele><time>2026-04-26T10:25:36.979Z</time></trkpt><trkpt lat="43.3210794" lon="11.3677371"><ele>266.0</ele><time>2026-04-26T10:25:37.97Z</time></trkpt><trkpt lat="43.3210859" lon="11.3675358"><ele>267.0</ele><time>2026-04-26T10:25:38.968Z</time></trkpt><trkpt lat="43.321094" lon="11.367336"><ele>268.0</ele><time>2026-04-26T10:25:39.959Z</time></trkpt><trkpt lat="43.3211014" lon="11.3671387"><ele>269.0</ele><time>2026-04-26T10:25:40.967Z</time></trkpt><trkpt lat="43.3211038" lon="11.3669471"><ele>270.0</ele><time>2026-04-26T10:25:41.948Z</time></trkpt><trkpt lat="43.3210979" lon="11.3667669"><ele>271.0</ele><time>2026-04-26T10:25:42.97Z</time></trkpt><trkpt lat="43.3210839" lon="11.3666099"><ele>271.0</ele><time>2026-04-26T10:25:43.947Z</time></trkpt><trkpt lat="43.3210656" lon="11.3664606"><ele>271.0</ele><time>2026-04-26T10:25:44.95Z</time></trkpt><trkpt lat="43.3210446" lon="11.3663116"><ele>271.0</ele><time>2026-04-26T10:25:45.951Z</time></trkpt><trkpt lat="43.3210217" lon="11.3661614"><ele>271.0</ele><time>2026-04-26T10:25:46.957Z</time></trkpt><trkpt lat="43.320999" lon="11.3660146"><ele>271.0</ele><time>2026-04-26T10:25:47.966Z</time></trkpt><trkpt lat="43.3209724" lon="11.3658725"><ele>271.0</ele><time>2026-04-26T10:25:48.973Z</time></trkpt><trkpt lat="43.3209395" lon="11.3657306"><ele>271.0</ele><time>2026-04-26T10:25:49.964Z</time></trkpt><trkpt lat="43.3208958" lon="11.3655813"><ele>271.0</ele><time>2026-04-26T10:25:50.953Z</time></trkpt><trkpt lat="43.3208431" lon="11.365422"><ele>271.0</ele><time>2026-04-26T10:25:51.959Z</time></trkpt><trkpt lat="43.3207856" lon="11.3652605"><ele>271.25</ele><time>2026-04-26T10:25:52.95Z</time></trkpt><trkpt lat="43.3207253" lon="11.3651037"><ele>271.5</ele><time>2026-04-26T10:25:53.951Z</time></trkpt><trkpt lat="43.3206601" lon="11.364952"><ele>271.75</ele><time>2026-04-26T10:25:54.976Z</time></trkpt><trkpt lat="43.3205863" lon="11.3648058"><ele>272.0</ele><time>2026-04-26T10:25:55.952Z</time></trkpt><trkpt lat="43.3205058" lon="11.3646576"><ele>272.5</ele><time>2026-04-26T10:25:56.956Z</time></trkpt><trkpt lat="43.3204287" lon="11.3645175"><ele>273.0</ele><time>2026-04-26T10:25:57.955Z</time></trkpt><trkpt lat="43.3203554" lon="11.364386"><ele>273.5</ele><time>2026-04-26T10:25:58.973Z</time></trkpt><trkpt lat="43.3202797" lon="11.3642553"><ele>274.0</ele><time>2026-04-26T10:25:59.973Z</time></trkpt><trkpt lat="43.3201953" lon="11.3641161"><ele>274.0</ele><time>2026-04-26T10:26:00.979Z</time></trkpt><trkpt lat="43.320105" lon="11.3639692"><ele>274.0</ele><time>2026-04-26T10:26:01.966Z</time></trkpt><trkpt lat="43.3200099" lon="11.3638174"><ele>274.0</ele><time>2026-04-26T10:26:02.982Z</time></trkpt><trkpt lat="43.3199176" lon="11.3636717"><ele>274.0</ele><time>2026-04-26T10:26:03.96Z</time></trkpt><trkpt lat="43.3198255" lon="11.3635376"><ele>274.59999999999997</ele><time>2026-04-26T10:26:04.987Z</time></trkpt><trkpt lat="43.3197371" lon="11.3634221"><ele>275.2</ele><time>2026-04-26T10:26:05.958Z</time></trkpt><trkpt lat="43.3196533" lon="11.3633168"><ele>275.79999999999995</ele><time>2026-04-26T10:26:06.969Z</time></trkpt><trkpt lat="43.3195832" lon="11.3632201"><ele>276.4</ele><time>2026-04-26T10:26:07.959Z</time></trkpt><trkpt lat="43.3195266" lon="11.3631185"><ele>277.0</ele><time>2026-04-26T10:26:08.955Z</time></trkpt><trkpt lat="43.3194767" lon="11.3630134"><ele>275.6</ele><time>2026-04-26T10:26:09.956Z</time></trkpt><trkpt lat="43.3194353" lon="11.362899"><ele>274.2</ele><time>2026-04-26T10:26:10.942Z</time></trkpt><trkpt lat="43.3194055" lon="11.3627712"><ele>272.8</ele><time>2026-04-26T10:26:11.966Z</time></trkpt><trkpt lat="43.319374" lon="11.3626503"><ele>271.4</ele><time>2026-04-26T10:26:12.968Z</time></trkpt><trkpt lat="43.3193248" lon="11.3625456"><ele>270.0</ele><time>2026-04-26T10:26:13.956Z</time></trkpt><trkpt lat="43.3192576" lon="11.3624497"><ele>270.0</ele><time>2026-04-26T10:26:14.957Z</time></trkpt><trkpt lat="43.3191848" lon="11.362345"><ele>270.0</ele><time>2026-04-26T10:26:15.959Z</time></trkpt><trkpt lat="43.3191125" lon="11.3622255"><ele>270.0</ele><time>2026-04-26T10:26:16.94Z</time></trkpt><trkpt lat="43.3190339" lon="11.3620919"><ele>270.0</ele><time>2026-04-26T10:26:17.943Z</time></trkpt><trkpt lat="43.318945" lon="11.3619506"><ele>269.0</ele><time>2026-04-26T10:26:18.956Z</time></trkpt><trkpt lat="43.3188547" lon="11.361808"><ele>268.0</ele><time>2026-04-26T10:26:19.947Z</time></trkpt><trkpt lat="43.3187729" lon="11.3616624"><ele>267.0</ele><time>2026-04-26T10:26:20.956Z</time></trkpt><trkpt lat="43.3187027" lon="11.3615133"><ele>266.0</ele><time>2026-04-26T10:26:21.957Z</time></trkpt><trkpt lat="43.3186424" lon="11.3613555"><ele>264.0</ele><time>2026-04-26T10:26:22.964Z</time></trkpt><trkpt lat="43.3185909" lon="11.3611908"><ele>262.0</ele><time>2026-04-26T10:26:23.968Z</time></trkpt><trkpt lat="43.3185389" lon="11.3610269"><ele>260.0</ele><time>2026-04-26T10:26:24.972Z</time></trkpt><trkpt lat="43.3184741" lon="11.360863"><ele>258.0</ele><time>2026-04-26T10:26:25.962Z</time></trkpt><trkpt lat="43.3184001" lon="11.3607011"><ele>258.0</ele><time>2026-04-26T10:26:26.949Z</time></trkpt><trkpt lat="43.3183293" lon="11.3605427"><ele>258.0</ele><time>2026-04-26T10:26:27.955Z</time></trkpt><trkpt lat="43.3182627" lon="11.3603859"><ele>258.0</ele><time>2026-04-26T10:26:28.963Z</time></trkpt><trkpt lat="43.3181941" lon="11.3602348"><ele>258.0</ele><time>2026-04-26T10:26:29.949Z</time></trkpt><trkpt lat="43.3181164" lon="11.3600887"><ele>256.25</ele><time>2026-04-26T10:26:30.963Z</time></trkpt><trkpt lat="43.3180348" lon="11.3599524"><ele>254.5</ele><time>2026-04-26T10:26:31.972Z</time></trkpt><trkpt lat="43.3179584" lon="11.3598255"><ele>252.75</ele><time>2026-04-26T10:26:32.956Z</time></trkpt><trkpt lat="43.3178914" lon="11.3596937"><ele>251.0</ele><time>2026-04-26T10:26:33.965Z</time></trkpt><trkpt lat="43.3178372" lon="11.359549"><ele>248.5</ele><time>2026-04-26T10:26:34.958Z</time></trkpt><trkpt lat="43.3177923" lon="11.3593883"><ele>246.0</ele><time>2026-04-26T10:26:35.974Z</time></trkpt><trkpt lat="43.3177566" lon="11.3592174"><ele>243.5</ele><time>2026-04-26T10:26:36.982Z</time></trkpt><trkpt lat="43.3177245" lon="11.3590481"><ele>241.0</ele><time>2026-04-26T10:26:37.966Z</time></trkpt><trkpt lat="43.3176908" lon="11.3588833"><ele>240.0</ele><time>2026-04-26T10:26:38.975Z</time></trkpt><trkpt lat="43.3176469" lon="11.3587302"><ele>239.0</ele><time>2026-04-26T10:26:39.951Z</time></trkpt><trkpt lat="43.3175798" lon="11.3585945"><ele>238.0</ele><time>2026-04-26T10:26:40.951Z</time></trkpt><trkpt lat="43.3174894" lon="11.358485"><ele>237.0</ele><time>2026-04-26T10:26:41.949Z</time></trkpt><trkpt lat="43.317386" lon="11.3583988"><ele>237.0</ele><time>2026-04-26T10:26:42.952Z</time></trkpt><trkpt lat="43.3172706" lon="11.3583342"><ele>237.0</ele><time>2026-04-26T10:26:43.96Z</time></trkpt><trkpt lat="43.3171425" lon="11.3582989"><ele>237.0</ele><time>2026-04-26T10:26:44.965Z</time></trkpt><trkpt lat="43.3170132" lon="11.3582901"><ele>237.0</ele><time>2026-04-26T10:26:45.955Z</time></trkpt><trkpt lat="43.3168908" lon="11.3582849"><ele>235.75</ele><time>2026-04-26T10:26:46.967Z</time></trkpt><trkpt lat="43.3167802" lon="11.3582514"><ele>234.5</ele><time>2026-04-26T10:26:47.947Z</time></trkpt><trkpt lat="43.3166797" lon="11.3581772"><ele>233.25</ele><time>2026-04-26T10:26:48.962Z</time></trkpt><trkpt lat="43.3165914" lon="11.3580722"><ele>232.0</ele><time>2026-04-26T10:26:49.962Z</time></trkpt><trkpt lat="43.3165108" lon="11.3579439"><ele>232.0</ele><time>2026-04-26T10:26:50.962Z</time></trkpt><trkpt lat="43.3164314" lon="11.3578022"><ele>232.0</ele><time>2026-04-26T10:26:51.96Z</time></trkpt><trkpt lat="43.3163478" lon="11.3576614"><ele>232.0</ele><time>2026-04-26T10:26:52.971Z</time></trkpt><trkpt lat="43.3162645" lon="11.3575334"><ele>232.0</ele><time>2026-04-26T10:26:53.957Z</time></trkpt><trkpt lat="43.3161894" lon="11.3574074"><ele>230.75</ele><time>2026-04-26T10:26:54.962Z</time></trkpt><trkpt lat="43.316134" lon="11.3572675"><ele>229.5</ele><time>2026-04-26T10:26:55.968Z</time></trkpt><trkpt lat="43.3160972" lon="11.3571166"><ele>228.25</ele><time>2026-04-26T10:26:56.955Z</time></trkpt><trkpt lat="43.3160693" lon="11.3569651"><ele>227.0</ele><time>2026-04-26T10:26:57.957Z</time></trkpt><trkpt lat="43.3160495" lon="11.3568185"><ele>226.8</ele><time>2026-04-26T10:26:58.963Z</time></trkpt><trkpt lat="43.3160372" lon="11.3566763"><ele>226.6</ele><time>2026-04-26T10:26:59.967Z</time></trkpt><trkpt lat="43.3160307" lon="11.3565484"><ele>226.40000000000003</ele><time>2026-04-26T10:27:00.963Z</time></trkpt><trkpt lat="43.3160267" lon="11.3564443"><ele>226.20000000000002</ele><time>2026-04-26T10:27:01.962Z</time></trkpt><trkpt lat="43.3160202" lon="11.3562963"><ele>226.0</ele><time>2026-04-26T10:27:03.955Z</time></trkpt><trkpt lat="43.3160293" lon="11.3561679"><ele>225.8</ele><time>2026-04-26T10:27:05.95Z</time></trkpt><trkpt lat="43.3160835" lon="11.3560296"><ele>225.60000000000002</ele><time>2026-04-26T10:27:07.946Z</time></trkpt><trkpt lat="43.3161524" lon="11.3559153"><ele>225.4</ele><time>2026-04-26T10:27:09.96Z</time></trkpt><trkpt lat="43.3162123" lon="11.3558143"><ele>225.2</ele><time>2026-04-26T10:27:11.965Z</time></trkpt><trkpt lat="43.3162916" lon="11.3556884"><ele>225.0</ele><time>2026-04-26T10:27:13.975Z</time></trkpt><trkpt lat="43.3163343" lon="11.3556192"><ele>225.33333333333334</ele><time>2026-04-26T10:27:14.968Z</time></trkpt><trkpt lat="43.3163794" lon="11.355473"><ele>225.66666666666669</ele><time>2026-04-26T10:27:16.968Z</time></trkpt><trkpt lat="43.3163534" lon="11.3553222"><ele>226.0</ele><time>2026-04-26T10:27:18.969Z</time></trkpt><trkpt lat="43.31631" lon="11.3552564"><ele>226.33333333333334</ele><time>2026-04-26T10:27:19.974Z</time></trkpt><trkpt lat="43.3162482" lon="11.3552145"><ele>226.66666666666669</ele><time>2026-04-26T10:27:20.973Z</time></trkpt><trkpt lat="43.3161748" lon="11.3551907"><ele>227.0</ele><time>2026-04-26T10:27:21.983Z</time></trkpt><trkpt lat="43.316099" lon="11.3551598"><ele>227.0</ele><time>2026-04-26T10:27:22.971Z</time></trkpt><trkpt lat="43.3160313" lon="11.3550944"><ele>227.0</ele><time>2026-04-26T10:27:23.963Z</time></trkpt><trkpt lat="43.3159774" lon="11.3549884"><ele>227.0</ele><time>2026-04-26T10:27:24.977Z</time></trkpt><trkpt lat="43.3159312" lon="11.3548532"><ele>227.0</ele><time>2026-04-26T10:27:25.966Z</time></trkpt><trkpt lat="43.3158846" lon="11.3546975"><ele>227.0</ele><time>2026-04-26T10:27:26.968Z</time></trkpt><trkpt lat="43.3158344" lon="11.3545243"><ele>228.33333333333334</ele><time>2026-04-26T10:27:27.976Z</time></trkpt><trkpt lat="43.3157799" lon="11.3543338"><ele>229.66666666666669</ele><time>2026-04-26T10:27:28.956Z</time></trkpt><trkpt lat="43.3157233" lon="11.3541305"><ele>231.0</ele><time>2026-04-26T10:27:29.95Z</time></trkpt><trkpt lat="43.3156683" lon="11.3539224"><ele>232.0</ele><time>2026-04-26T10:27:30.964Z</time></trkpt><trkpt lat="43.3156151" lon="11.3537163"><ele>233.0</ele><time>2026-04-26T10:27:31.943Z</time></trkpt><trkpt lat="43.3155605" lon="11.3535073"><ele>234.0</ele><time>2026-04-26T10:27:32.973Z</time></trkpt><trkpt lat="43.3155074" lon="11.3533037"><ele>234.0</ele><time>2026-04-26T10:27:33.956Z</time></trkpt><trkpt lat="43.315455" lon="11.3530987"><ele>234.0</ele><time>2026-04-26T10:27:34.95Z</time></trkpt><trkpt lat="43.3154041" lon="11.3528922"><ele>234.0</ele><time>2026-04-26T10:27:35.979Z</time></trkpt><trkpt lat="43.3153536" lon="11.352691"><ele>235.0</ele><time>2026-04-26T10:27:36.977Z</time></trkpt><trkpt lat="43.3153017" lon="11.3524917"><ele>236.0</ele><time>2026-04-26T10:27:37.962Z</time></trkpt><trkpt lat="43.3152498" lon="11.3522908"><ele>237.0</ele><time>2026-04-26T10:27:38.982Z</time></trkpt><trkpt lat="43.3151979" lon="11.3520938"><ele>239.33333333333331</ele><time>2026-04-26T10:27:39.966Z</time></trkpt><trkpt lat="43.3151396" lon="11.3518966"><ele>241.66666666666666</ele><time>2026-04-26T10:27:40.964Z</time></trkpt><trkpt lat="43.3150698" lon="11.3517008"><ele>244.0</ele><time>2026-04-26T10:27:41.97Z</time></trkpt><trkpt lat="43.3149877" lon="11.3515081"><ele>243.66666666666666</ele><time>2026-04-26T10:27:42.955Z</time></trkpt><trkpt lat="43.3148952" lon="11.3513203"><ele>243.33333333333331</ele><time>2026-04-26T10:27:43.942Z</time></trkpt><trkpt lat="43.3147962" lon="11.3511419"><ele>243.0</ele><time>2026-04-26T10:27:44.949Z</time></trkpt><trkpt lat="43.3146977" lon="11.3509819"><ele>243.0</ele><time>2026-04-26T10:27:45.959Z</time></trkpt><trkpt lat="43.3146047" lon="11.3508443"><ele>243.0</ele><time>2026-04-26T10:27:46.95Z</time></trkpt><trkpt lat="43.314522" lon="11.3507163"><ele>243.0</ele><time>2026-04-26T10:27:47.963Z</time></trkpt><trkpt lat="43.3144533" lon="11.3505885"><ele>243.0</ele><time>2026-04-26T10:27:48.953Z</time></trkpt><trkpt lat="43.3144014" lon="11.3504469"><ele>243.75</ele><time>2026-04-26T10:27:49.964Z</time></trkpt><trkpt lat="43.314382" lon="11.3502917"><ele>244.5</ele><time>2026-04-26T10:27:50.972Z</time></trkpt><trkpt lat="43.3143984" lon="11.3501324"><ele>245.25</ele><time>2026-04-26T10:27:51.957Z</time></trkpt><trkpt lat="43.3144477" lon="11.3499868"><ele>246.0</ele><time>2026-04-26T10:27:52.949Z</time></trkpt><trkpt lat="43.3145224" lon="11.3498904"><ele>246.0</ele><time>2026-04-26T10:27:53.944Z</time></trkpt><trkpt lat="43.3146112" lon="11.3498509"><ele>246.00000000000003</ele><time>2026-04-26T10:27:54.955Z</time></trkpt><trkpt lat="43.3147085" lon="11.3498438"><ele>246.00000000000003</ele><time>2026-04-26T10:27:55.94Z</time></trkpt><trkpt lat="43.3148157" lon="11.3498334"><ele>246.0</ele><time>2026-04-26T10:27:56.952Z</time></trkpt><trkpt lat="43.3149202" lon="11.3497972"><ele>246.0</ele><time>2026-04-26T10:27:57.963Z</time></trkpt><trkpt lat="43.3150107" lon="11.3497275"><ele>249.60000000000002</ele><time>2026-04-26T10:27:58.963Z</time></trkpt><trkpt lat="43.3150793" lon="11.3496223"><ele>253.20000000000002</ele><time>2026-04-26T10:27:59.961Z</time></trkpt><trkpt lat="43.3151166" lon="11.3494854"><ele>256.79999999999995</ele><time>2026-04-26T10:28:00.979Z</time></trkpt><trkpt lat="43.3151142" lon="11.3493344"><ele>260.4</ele><time>2026-04-26T10:28:01.961Z</time></trkpt><trkpt lat="43.3150724" lon="11.3491844"><ele>264.0</ele><time>2026-04-26T10:28:02.962Z</time></trkpt><trkpt lat="43.3150012" lon="11.3490629"><ele>264.0</ele><time>2026-04-26T10:28:03.951Z</time></trkpt><trkpt lat="43.314913" lon="11.3489831"><ele>264.0</ele><time>2026-04-26T10:28:04.966Z</time></trkpt><trkpt lat="43.3148228" lon="11.3489287"><ele>264.0</ele><time>2026-04-26T10:28:05.953Z</time></trkpt><trkpt lat="43.3147362" lon="11.3488667"><ele>264.0</ele><time>2026-04-26T10:28:06.962Z</time></trkpt><trkpt lat="43.3146591" lon="11.348781"><ele>264.0</ele><time>2026-04-26T10:28:07.964Z</time></trkpt><trkpt lat="43.3145983" lon="11.3486685"><ele>262.2</ele><time>2026-04-26T10:28:08.966Z</time></trkpt><trkpt lat="43.3145646" lon="11.3485334"><ele>260.4</ele><time>2026-04-26T10:28:09.958Z</time></trkpt><trkpt lat="43.3145603" lon="11.3483834"><ele>258.6</ele><time>2026-04-26T10:28:10.966Z</time></trkpt><trkpt lat="43.3145779" lon="11.3482336"><ele>256.8</ele><time>2026-04-26T10:28:11.955Z</time></trkpt><trkpt lat="43.3146114" lon="11.348091"><ele>255.0</ele><time>2026-04-26T10:28:12.96Z</time></trkpt><trkpt lat="43.3146601" lon="11.3479592"><ele>254.5</ele><time>2026-04-26T10:28:13.953Z</time></trkpt><trkpt lat="43.3147252" lon="11.3478369"><ele>254.0</ele><time>2026-04-26T10:28:14.96Z</time></trkpt><trkpt lat="43.3147976" lon="11.34772"><ele>253.5</ele><time>2026-04-26T10:28:15.949Z</time></trkpt><trkpt lat="43.3148718" lon="11.3476014"><ele>253.0</ele><time>2026-04-26T10:28:16.954Z</time></trkpt><trkpt lat="43.314946" lon="11.3474791"><ele>256.75</ele><time>2026-04-26T10:28:17.945Z</time></trkpt><trkpt lat="43.315024" lon="11.3473508"><ele>260.5</ele><time>2026-04-26T10:28:18.943Z</time></trkpt><trkpt lat="43.3151027" lon="11.3472233"><ele>264.25</ele><time>2026-04-26T10:28:19.935Z</time></trkpt><trkpt lat="43.3151793" lon="11.3470981"><ele>268.0</ele><time>2026-04-26T10:28:20.937Z</time></trkpt><trkpt lat="43.3152553" lon="11.3469734"><ele>268.0</ele><time>2026-04-26T10:28:21.942Z</time></trkpt><trkpt lat="43.315331" lon="11.3468505"><ele>268.0</ele><time>2026-04-26T10:28:22.949Z</time></trkpt><trkpt lat="43.3154065" lon="11.346726"><ele>268.0</ele><time>2026-04-26T10:28:23.951Z</time></trkpt><trkpt lat="43.3154837" lon="11.3465976"><ele>268.0</ele><time>2026-04-26T10:28:24.956Z</time></trkpt><trkpt lat="43.3155609" lon="11.346466"><ele>271.0</ele><time>2026-04-26T10:28:25.947Z</time></trkpt><trkpt lat="43.3156395" lon="11.346331"><ele>274.0</ele><time>2026-04-26T10:28:26.957Z</time></trkpt><trkpt lat="43.3157191" lon="11.3461986"><ele>277.0</ele><time>2026-04-26T10:28:27.963Z</time></trkpt><trkpt lat="43.3157975" lon="11.3460682"><ele>280.0</ele><time>2026-04-26T10:28:28.959Z</time></trkpt><trkpt lat="43.3158747" lon="11.3459386"><ele>280.0</ele><time>2026-04-26T10:28:29.953Z</time></trkpt><trkpt lat="43.3159505" lon="11.3458099"><ele>280.0</ele><time>2026-04-26T10:28:30.959Z</time></trkpt><trkpt lat="43.3160238" lon="11.3456846"><ele>280.0</ele><time>2026-04-26T10:28:31.96Z</time></trkpt><trkpt lat="43.3160947" lon="11.3455631"><ele>280.0</ele><time>2026-04-26T10:28:32.951Z</time></trkpt><trkpt lat="43.3161636" lon="11.3454433"><ele>281.2</ele><time>2026-04-26T10:28:33.953Z</time></trkpt><trkpt lat="43.3162329" lon="11.3453283"><ele>282.4</ele><time>2026-04-26T10:28:34.944Z</time></trkpt><trkpt lat="43.316304" lon="11.3452141"><ele>283.6</ele><time>2026-04-26T10:28:35.955Z</time></trkpt><trkpt lat="43.3163744" lon="11.3451025"><ele>284.8</ele><time>2026-04-26T10:28:36.95Z</time></trkpt><trkpt lat="43.3164405" lon="11.3449944"><ele>286.0</ele><time>2026-04-26T10:28:37.948Z</time></trkpt><trkpt lat="43.3165016" lon="11.3448965"><ele>286.0</ele><time>2026-04-26T10:28:38.941Z</time></trkpt><trkpt lat="43.3165594" lon="11.3448072"><ele>286.0</ele><time>2026-04-26T10:28:39.95Z</time></trkpt><trkpt lat="43.3166137" lon="11.3447214"><ele>286.0</ele><time>2026-04-26T10:28:40.95Z</time></trkpt><trkpt lat="43.3166642" lon="11.3446353"><ele>286.0</ele><time>2026-04-26T10:28:41.94Z</time></trkpt><trkpt lat="43.3167121" lon="11.3445507"><ele>286.0</ele><time>2026-04-26T10:28:42.944Z</time></trkpt><trkpt lat="43.3167558" lon="11.3444708"><ele>286.0</ele><time>2026-04-26T10:28:43.938Z</time></trkpt><trkpt lat="43.3167946" lon="11.3443971"><ele>285.6</ele><time>2026-04-26T10:28:44.948Z</time></trkpt><trkpt lat="43.3168383" lon="11.3442566"><ele>285.20000000000005</ele><time>2026-04-26T10:28:46.951Z</time></trkpt><trkpt lat="43.3167974" lon="11.3441431"><ele>284.79999999999995</ele><time>2026-04-26T10:28:48.958Z</time></trkpt><trkpt lat="43.3166922" lon="11.3440853"><ele>284.4</ele><time>2026-04-26T10:28:50.952Z</time></trkpt><trkpt lat="43.3166085" lon="11.3439665"><ele>284.0</ele><time>2026-04-26T10:28:52.952Z</time></trkpt><trkpt lat="43.3166029" lon="11.3438791"><ele>283.59999999999997</ele><time>2026-04-26T10:28:53.965Z</time></trkpt><trkpt lat="43.3166627" lon="11.3437291"><ele>283.2</ele><time>2026-04-26T10:28:55.969Z</time></trkpt><trkpt lat="43.3167018" lon="11.3436552"><ele>282.79999999999995</ele><time>2026-04-26T10:28:56.957Z</time></trkpt><trkpt lat="43.3167349" lon="11.3435589"><ele>282.4</ele><time>2026-04-26T10:28:57.971Z</time></trkpt><trkpt lat="43.3167578" lon="11.3434448"><ele>282.0</ele><time>2026-04-26T10:28:58.979Z</time></trkpt><trkpt lat="43.3167752" lon="11.3433134"><ele>282.0</ele><time>2026-04-26T10:28:59.977Z</time></trkpt><trkpt lat="43.3167942" lon="11.343171"><ele>282.0</ele><time>2026-04-26T10:29:00.979Z</time></trkpt><trkpt lat="43.3168157" lon="11.3430326"><ele>282.0</ele><time>2026-04-26T10:29:01.972Z</time></trkpt><trkpt lat="43.3168379" lon="11.3429001"><ele>282.0</ele><time>2026-04-26T10:29:02.982Z</time></trkpt><trkpt lat="43.3168589" lon="11.342779"><ele>282.0</ele><time>2026-04-26T10:29:03.957Z</time></trkpt><trkpt lat="43.3168764" lon="11.3426658"><ele>281.42857142857144</ele><time>2026-04-26T10:29:04.959Z</time></trkpt><trkpt lat="43.31688" lon="11.34256"><ele>280.85714285714283</ele><time>2026-04-26T10:29:05.95Z</time></trkpt><trkpt lat="43.3168597" lon="11.3424619"><ele>280.2857142857143</ele><time>2026-04-26T10:29:06.955Z</time></trkpt><trkpt lat="43.3168114" lon="11.3423866"><ele>279.7142857142857</ele><time>2026-04-26T10:29:07.96Z</time></trkpt><trkpt lat="43.3167462" lon="11.3423412"><ele>279.14285714285717</ele><time>2026-04-26T10:29:08.935Z</time></trkpt><trkpt lat="43.316675" lon="11.3423118"><ele>278.57142857142856</ele><time>2026-04-26T10:29:09.952Z</time></trkpt><trkpt lat="43.316603" lon="11.3422886"><ele>278.0</ele><time>2026-04-26T10:29:10.966Z</time></trkpt><trkpt lat="43.316531" lon="11.3422657"><ele>278.0</ele><time>2026-04-26T10:29:11.943Z</time></trkpt><trkpt lat="43.3164585" lon="11.3422404"><ele>278.0</ele><time>2026-04-26T10:29:12.981Z</time></trkpt><trkpt lat="43.3163834" lon="11.342216"><ele>278.0</ele><time>2026-04-26T10:29:13.962Z</time></trkpt><trkpt lat="43.3162982" lon="11.3421918"><ele>278.0</ele><time>2026-04-26T10:29:14.971Z</time></trkpt><trkpt lat="43.316206" lon="11.3421652"><ele>278.0</ele><time>2026-04-26T10:29:15.977Z</time></trkpt><trkpt lat="43.316109" lon="11.3421346"><ele>278.0</ele><time>2026-04-26T10:29:16.983Z</time></trkpt><trkpt lat="43.316009" lon="11.3421038"><ele>278.6</ele><time>2026-04-26T10:29:17.969Z</time></trkpt><trkpt lat="43.3159074" lon="11.3420756"><ele>279.20000000000005</ele><time>2026-04-26T10:29:18.976Z</time></trkpt><trkpt lat="43.3158089" lon="11.3420566"><ele>279.8</ele><time>2026-04-26T10:29:19.965Z</time></trkpt><trkpt lat="43.3157102" lon="11.34206"><ele>280.40000000000003</ele><time>2026-04-26T10:29:20.971Z</time></trkpt><trkpt lat="43.3156101" lon="11.3420976"><ele>281.0</ele><time>2026-04-26T10:29:21.973Z</time></trkpt><trkpt lat="43.3155084" lon="11.3421652"><ele>280.5</ele><time>2026-04-26T10:29:22.973Z</time></trkpt><trkpt lat="43.3154055" lon="11.3422477"><ele>280.0</ele><time>2026-04-26T10:29:23.958Z</time></trkpt><trkpt lat="43.3152996" lon="11.3423343"><ele>279.5</ele><time>2026-04-26T10:29:24.978Z</time></trkpt><trkpt lat="43.3151974" lon="11.3424178"><ele>279.0</ele><time>2026-04-26T10:29:25.961Z</time></trkpt><trkpt lat="43.3151" lon="11.3424971"><ele>279.0</ele><time>2026-04-26T10:29:26.958Z</time></trkpt><trkpt lat="43.3150086" lon="11.3425728"><ele>279.0</ele><time>2026-04-26T10:29:27.977Z</time></trkpt><trkpt lat="43.3149243" lon="11.3426463"><ele>279.0</ele><time>2026-04-26T10:29:28.982Z</time></trkpt><trkpt lat="43.3148459" lon="11.3427153"><ele>279.0</ele><time>2026-04-26T10:29:29.961Z</time></trkpt><trkpt lat="43.3147683" lon="11.3427757"><ele>279.0</ele><time>2026-04-26T10:29:30.97Z</time></trkpt><trkpt lat="43.3146896" lon="11.3428159"><ele>278.3333333333333</ele><time>2026-04-26T10:29:31.969Z</time></trkpt><trkpt lat="43.3146081" lon="11.3428293"><ele>277.6666666666667</ele><time>2026-04-26T10:29:32.951Z</time></trkpt><trkpt lat="43.3145247" lon="11.3428057"><ele>277.0</ele><time>2026-04-26T10:29:33.943Z</time></trkpt><trkpt lat="43.3144527" lon="11.3427416"><ele>276.33333333333337</ele><time>2026-04-26T10:29:34.952Z</time></trkpt><trkpt lat="43.3144033" lon="11.3426492"><ele>275.6666666666667</ele><time>2026-04-26T10:29:35.952Z</time></trkpt><trkpt lat="43.3143714" lon="11.3425412"><ele>275.0</ele><time>2026-04-26T10:29:36.953Z</time></trkpt><trkpt lat="43.314351" lon="11.3424236"><ele>275.0</ele><time>2026-04-26T10:29:37.97Z</time></trkpt><trkpt lat="43.3143344" lon="11.3422984"><ele>275.0</ele><time>2026-04-26T10:29:38.961Z</time></trkpt><trkpt lat="43.3143115" lon="11.3421746"><ele>275.0</ele><time>2026-04-26T10:29:39.966Z</time></trkpt><trkpt lat="43.3142804" lon="11.3420634"><ele>275.0</ele><time>2026-04-26T10:29:40.971Z</time></trkpt><trkpt lat="43.3142359" lon="11.3419641"><ele>275.0</ele><time>2026-04-26T10:29:41.957Z</time></trkpt><trkpt lat="43.3141728" lon="11.3418758"><ele>275.0</ele><time>2026-04-26T10:29:42.958Z</time></trkpt><trkpt lat="43.314094" lon="11.3418114"><ele>275.33333333333337</ele><time>2026-04-26T10:29:43.967Z</time></trkpt><trkpt lat="43.3140091" lon="11.3417719"><ele>275.6666666666667</ele><time>2026-04-26T10:29:44.986Z</time></trkpt><trkpt lat="43.3139252" lon="11.3417438"><ele>276.0</ele><time>2026-04-26T10:29:45.968Z</time></trkpt><trkpt lat="43.3138414" lon="11.3417181"><ele>276.3333333333333</ele><time>2026-04-26T10:29:46.977Z</time></trkpt><trkpt lat="43.313761" lon="11.341694"><ele>276.66666666666663</ele><time>2026-04-26T10:29:47.96Z</time></trkpt><trkpt lat="43.3136769" lon="11.3416685"><ele>277.0</ele><time>2026-04-26T10:29:48.96Z</time></trkpt><trkpt lat="43.3135902" lon="11.3416381"><ele>277.0</ele><time>2026-04-26T10:29:49.954Z</time></trkpt><trkpt lat="43.3135009" lon="11.3416046"><ele>277.0</ele><time>2026-04-26T10:29:50.958Z</time></trkpt><trkpt lat="43.3134126" lon="11.3415731"><ele>277.0</ele><time>2026-04-26T10:29:51.948Z</time></trkpt><trkpt lat="43.313329" lon="11.3415434"><ele>277.0</ele><time>2026-04-26T10:29:52.959Z</time></trkpt><trkpt lat="43.3132489" lon="11.341517"><ele>277.0</ele><time>2026-04-26T10:29:53.948Z</time></trkpt><trkpt lat="43.3131658" lon="11.3414923"><ele>277.0</ele><time>2026-04-26T10:29:54.957Z</time></trkpt><trkpt lat="43.3130864" lon="11.3414667"><ele>276.6</ele><time>2026-04-26T10:29:55.947Z</time></trkpt><trkpt lat="43.3130164" lon="11.3414413"><ele>276.2</ele><time>2026-04-26T10:29:56.942Z</time></trkpt><trkpt lat="43.3129036" lon="11.3413996"><ele>275.8</ele><time>2026-04-26T10:29:58.95Z</time></trkpt><trkpt lat="43.3128042" lon="11.3413666"><ele>275.4</ele><time>2026-04-26T10:30:00.944Z</time></trkpt><trkpt lat="43.3126929" lon="11.3413249"><ele>275.0</ele><time>2026-04-26T10:30:02.954Z</time></trkpt><trkpt lat="43.3126337" lon="11.3412779"><ele>276.8</ele><time>2026-04-26T10:30:03.946Z</time></trkpt><trkpt lat="43.3125841" lon="11.3412015"><ele>278.6</ele><time>2026-04-26T10:30:04.953Z</time></trkpt><trkpt lat="43.3125488" lon="11.3410964"><ele>280.4</ele><time>2026-04-26T10:30:05.961Z</time></trkpt><trkpt lat="43.3125153" lon="11.3409719"><ele>282.2</ele><time>2026-04-26T10:30:06.953Z</time></trkpt><trkpt lat="43.3124701" lon="11.3408362"><ele>284.0</ele><time>2026-04-26T10:30:07.976Z</time></trkpt><trkpt lat="43.312402" lon="11.3407118"><ele>284.0</ele><time>2026-04-26T10:30:08.952Z</time></trkpt><trkpt lat="43.3123064" lon="11.3406052"><ele>284.0</ele><time>2026-04-26T10:30:09.964Z</time></trkpt><trkpt lat="43.3121946" lon="11.3405179"><ele>284.0</ele><time>2026-04-26T10:30:10.964Z</time></trkpt><trkpt lat="43.3120784" lon="11.3404321"><ele>284.0</ele><time>2026-04-26T10:30:11.955Z</time></trkpt><trkpt lat="43.3119711" lon="11.3403296"><ele>284.59999999999997</ele><time>2026-04-26T10:30:12.959Z</time></trkpt><trkpt lat="43.3118819" lon="11.3402029"><ele>285.2</ele><time>2026-04-26T10:30:13.952Z</time></trkpt><trkpt lat="43.3118146" lon="11.3400546"><ele>285.79999999999995</ele><time>2026-04-26T10:30:14.958Z</time></trkpt><trkpt lat="43.3117732" lon="11.3399101"><ele>286.4</ele><time>2026-04-26T10:30:15.947Z</time></trkpt><trkpt lat="43.3117508" lon="11.339804"><ele>287.0</ele><time>2026-04-26T10:30:16.957Z</time></trkpt><trkpt lat="43.3117432" lon="11.3397118"><ele>288.0</ele><time>2026-04-26T10:30:18.968Z</time></trkpt><trkpt lat="43.3117294" lon="11.339572"><ele>289.0</ele><time>2026-04-26T10:30:51.953Z</time></trkpt><trkpt lat="43.3117358" lon="11.3394825"><ele>290.0</ele><time>2026-04-26T10:30:53.958Z</time></trkpt><trkpt lat="43.3116956" lon="11.3393711"><ele>291.0</ele><time>2026-04-26T10:30:56.96Z</time></trkpt><trkpt lat="43.3115998" lon="11.339337"><ele>292.0</ele><time>2026-04-26T10:30:58.959Z</time></trkpt><trkpt lat="43.3115352" lon="11.3393306"><ele>293.0</ele><time>2026-04-26T10:30:59.959Z</time></trkpt><trkpt lat="43.3114704" lon="11.3393299"><ele>292.0</ele><time>2026-04-26T10:31:00.953Z</time></trkpt><trkpt lat="43.3113504" lon="11.3393361"><ele>291.0</ele><time>2026-04-26T10:31:02.963Z</time></trkpt><trkpt lat="43.311287" lon="11.3393383"><ele>290.0</ele><time>2026-04-26T10:31:03.963Z</time></trkpt><trkpt lat="43.311211" lon="11.3393387"><ele>289.0</ele><time>2026-04-26T10:31:04.951Z</time></trkpt><trkpt lat="43.3111307" lon="11.3393376"><ele>288.0</ele><time>2026-04-26T10:31:05.961Z</time></trkpt><trkpt lat="43.3110557" lon="11.3393372"><ele>287.0</ele><time>2026-04-26T10:31:06.963Z</time></trkpt><trkpt lat="43.3109805" lon="11.3393367"><ele>287.0</ele><time>2026-04-26T10:31:07.959Z</time></trkpt><trkpt lat="43.3108993" lon="11.3393338"><ele>287.0</ele><time>2026-04-26T10:31:08.96Z</time></trkpt><trkpt lat="43.3108168" lon="11.3393288"><ele>287.0</ele><time>2026-04-26T10:31:09.952Z</time></trkpt><trkpt lat="43.310733" lon="11.3393222"><ele>287.0</ele><time>2026-04-26T10:31:10.951Z</time></trkpt><trkpt lat="43.3106469" lon="11.3393122"><ele>287.0</ele><time>2026-04-26T10:31:11.937Z</time></trkpt><trkpt lat="43.3105589" lon="11.3392981"><ele>287.0</ele><time>2026-04-26T10:31:12.948Z</time></trkpt><trkpt lat="43.3104715" lon="11.3392838"><ele>286.5</ele><time>2026-04-26T10:31:13.95Z</time></trkpt><trkpt lat="43.310388" lon="11.3392685"><ele>286.0</ele><time>2026-04-26T10:31:14.959Z</time></trkpt><trkpt lat="43.3103068" lon="11.3392521"><ele>285.5</ele><time>2026-04-26T10:31:15.97Z</time></trkpt><trkpt lat="43.310227" lon="11.3392369"><ele>285.0</ele><time>2026-04-26T10:31:16.96Z</time></trkpt><trkpt lat="43.3101435" lon="11.3392211"><ele>284.5</ele><time>2026-04-26T10:31:17.962Z</time></trkpt><trkpt lat="43.3100559" lon="11.339204"><ele>284.0</ele><time>2026-04-26T10:31:18.968Z</time></trkpt><trkpt lat="43.3099727" lon="11.3391871"><ele>284.0</ele><time>2026-04-26T10:31:19.958Z</time></trkpt><trkpt lat="43.3098944" lon="11.3391714"><ele>284.0</ele><time>2026-04-26T10:31:20.962Z</time></trkpt><trkpt lat="43.3098223" lon="11.3391553"><ele>284.0</ele><time>2026-04-26T10:31:21.952Z</time></trkpt><trkpt lat="43.3097554" lon="11.3391402"><ele>284.0</ele><time>2026-04-26T10:31:22.96Z</time></trkpt><trkpt lat="43.3096321" lon="11.3391172"><ele>284.0</ele><time>2026-04-26T10:31:24.958Z</time></trkpt><trkpt lat="43.3095652" lon="11.3391069"><ele>284.0</ele><time>2026-04-26T10:31:25.961Z</time></trkpt><trkpt lat="43.3094912" lon="11.3390971"><ele>283.57142857142856</ele><time>2026-04-26T10:31:26.948Z</time></trkpt><trkpt lat="43.3094159" lon="11.3390873"><ele>283.1428571428571</ele><time>2026-04-26T10:31:27.955Z</time></trkpt><trkpt lat="43.3093443" lon="11.3390786"><ele>282.7142857142857</ele><time>2026-04-26T10:31:28.961Z</time></trkpt><trkpt lat="43.3092782" lon="11.339072"><ele>282.2857142857143</ele><time>2026-04-26T10:31:29.952Z</time></trkpt><trkpt lat="43.3092135" lon="11.3390659"><ele>281.8571428571429</ele><time>2026-04-26T10:31:30.964Z</time></trkpt><trkpt lat="43.3091448" lon="11.3390571"><ele>281.42857142857144</ele><time>2026-04-26T10:31:31.963Z</time></trkpt><trkpt lat="43.3090742" lon="11.3390429"><ele>281.0</ele><time>2026-04-26T10:31:32.951Z</time></trkpt><trkpt lat="43.3090056" lon="11.3390288"><ele>281.0</ele><time>2026-04-26T10:31:33.962Z</time></trkpt><trkpt lat="43.308936" lon="11.3390175"><ele>281.0</ele><time>2026-04-26T10:31:34.952Z</time></trkpt><trkpt lat="43.308865" lon="11.33901"><ele>281.0</ele><time>2026-04-26T10:31:35.947Z</time></trkpt><trkpt lat="43.3088002" lon="11.3390077"><ele>281.0</ele><time>2026-04-26T10:31:36.937Z</time></trkpt><trkpt lat="43.3086724" lon="11.3389923"><ele>281.0</ele><time>2026-04-26T10:31:38.954Z</time></trkpt><trkpt lat="43.308602" lon="11.3389838"><ele>281.0</ele><time>2026-04-26T10:31:39.977Z</time></trkpt><trkpt lat="43.3085227" lon="11.3389827"><ele>281.25</ele><time>2026-04-26T10:31:40.988Z</time></trkpt><trkpt lat="43.3084211" lon="11.3389822"><ele>281.5</ele><time>2026-04-26T10:31:41.954Z</time></trkpt><trkpt lat="43.3082956" lon="11.3389728"><ele>281.75</ele><time>2026-04-26T10:31:42.964Z</time></trkpt><trkpt lat="43.3081647" lon="11.3389637"><ele>282.0</ele><time>2026-04-26T10:31:43.965Z</time></trkpt><trkpt lat="43.3080324" lon="11.3389651"><ele>282.0</ele><time>2026-04-26T10:31:44.947Z</time></trkpt><trkpt lat="43.3078967" lon="11.3389778"><ele>282.0</ele><time>2026-04-26T10:31:45.956Z</time></trkpt><trkpt lat="43.3077619" lon="11.3389961"><ele>282.0</ele><time>2026-04-26T10:31:46.963Z</time></trkpt><trkpt lat="43.3076297" lon="11.3390188"><ele>282.0</ele><time>2026-04-26T10:31:47.968Z</time></trkpt><trkpt lat="43.3075038" lon="11.3390467"><ele>282.0</ele><time>2026-04-26T10:31:48.962Z</time></trkpt><trkpt lat="43.3073902" lon="11.3390817"><ele>282.0</ele><time>2026-04-26T10:31:49.959Z</time></trkpt><trkpt lat="43.3072847" lon="11.3391229"><ele>282.0</ele><time>2026-04-26T10:31:50.952Z</time></trkpt><trkpt lat="43.3071731" lon="11.339159"><ele>282.0</ele><time>2026-04-26T10:31:51.958Z</time></trkpt><trkpt lat="43.307062" lon="11.3391817"><ele>281.8</ele><time>2026-04-26T10:31:52.959Z</time></trkpt><trkpt lat="43.3069583" lon="11.3391896"><ele>281.6</ele><time>2026-04-26T10:31:53.954Z</time></trkpt><trkpt lat="43.3068535" lon="11.3391823"><ele>281.40000000000003</ele><time>2026-04-26T10:31:54.969Z</time></trkpt><trkpt lat="43.3067448" lon="11.33916"><ele>281.2</ele><time>2026-04-26T10:31:55.961Z</time></trkpt><trkpt lat="43.3066279" lon="11.3391286"><ele>281.0</ele><time>2026-04-26T10:31:56.961Z</time></trkpt><trkpt lat="43.3065066" lon="11.339087"><ele>280.75</ele><time>2026-04-26T10:31:57.952Z</time></trkpt><trkpt lat="43.3063867" lon="11.3390305"><ele>280.5</ele><time>2026-04-26T10:31:58.955Z</time></trkpt><trkpt lat="43.3062749" lon="11.3389553"><ele>280.25</ele><time>2026-04-26T10:31:59.944Z</time></trkpt><trkpt lat="43.3061708" lon="11.338859"><ele>280.0</ele><time>2026-04-26T10:32:00.953Z</time></trkpt><trkpt lat="43.3060723" lon="11.3387433"><ele>280.0</ele><time>2026-04-26T10:32:01.959Z</time></trkpt><trkpt lat="43.3059749" lon="11.3386154"><ele>280.0</ele><time>2026-04-26T10:32:02.964Z</time></trkpt><trkpt lat="43.3058751" lon="11.3384817"><ele>280.0</ele><time>2026-04-26T10:32:03.969Z</time></trkpt><trkpt lat="43.3057759" lon="11.3383501"><ele>280.0</ele><time>2026-04-26T10:32:04.971Z</time></trkpt><trkpt lat="43.3056824" lon="11.3382248"><ele>280.0</ele><time>2026-04-26T10:32:05.974Z</time></trkpt><trkpt lat="43.3055937" lon="11.3381061"><ele>280.0</ele><time>2026-04-26T10:32:06.974Z</time></trkpt><trkpt lat="43.3055102" lon="11.3379928"><ele>280.0</ele><time>2026-04-26T10:32:07.969Z</time></trkpt><trkpt lat="43.305425" lon="11.3378802"><ele>280.0</ele><time>2026-04-26T10:32:08.974Z</time></trkpt><trkpt lat="43.3053375" lon="11.3377667"><ele>279.8</ele><time>2026-04-26T10:32:09.995Z</time></trkpt><trkpt lat="43.3052532" lon="11.3376619"><ele>279.6</ele><time>2026-04-26T10:32:10.98Z</time></trkpt><trkpt lat="43.305166" lon="11.3375727"><ele>279.4</ele><time>2026-04-26T10:32:11.968Z</time></trkpt><trkpt lat="43.3050741" lon="11.3375041"><ele>279.2</ele><time>2026-04-26T10:32:12.976Z</time></trkpt><trkpt lat="43.3049883" lon="11.3374547"><ele>279.0</ele><time>2026-04-26T10:32:13.968Z</time></trkpt><trkpt lat="43.3049175" lon="11.3374158"><ele>279.0</ele><time>2026-04-26T10:32:14.97Z</time></trkpt><trkpt lat="43.3048153" lon="11.3373648"><ele>279.0</ele><time>2026-04-26T10:32:16.98Z</time></trkpt><trkpt lat="43.3047195" lon="11.3373079"><ele>279.0</ele><time>2026-04-26T10:32:18.966Z</time></trkpt><trkpt lat="43.3046089" lon="11.3372187"><ele>279.0</ele><time>2026-04-26T10:32:20.971Z</time></trkpt><trkpt lat="43.304549" lon="11.3371692"><ele>279.0</ele><time>2026-04-26T10:32:21.955Z</time></trkpt><trkpt lat="43.304488" lon="11.3371209"><ele>277.4</ele><time>2026-04-26T10:32:22.968Z</time></trkpt><trkpt lat="43.3044211" lon="11.3370745"><ele>275.79999999999995</ele><time>2026-04-26T10:32:23.952Z</time></trkpt><trkpt lat="43.3043407" lon="11.33703"><ele>274.20000000000005</ele><time>2026-04-26T10:32:24.954Z</time></trkpt><trkpt lat="43.3042466" lon="11.3369959"><ele>272.6</ele><time>2026-04-26T10:32:25.958Z</time></trkpt><trkpt lat="43.3041459" lon="11.3369829"><ele>271.0</ele><time>2026-04-26T10:32:26.945Z</time></trkpt><trkpt lat="43.3040411" lon="11.3370022"><ele>271.0</ele><time>2026-04-26T10:32:27.959Z</time></trkpt><trkpt lat="43.3039358" lon="11.3370438"><ele>271.0</ele><time>2026-04-26T10:32:28.951Z</time></trkpt><trkpt lat="43.3038265" lon="11.33709"><ele>271.0</ele><time>2026-04-26T10:32:29.96Z</time></trkpt><trkpt lat="43.3037178" lon="11.3371306"><ele>271.0</ele><time>2026-04-26T10:32:30.971Z</time></trkpt><trkpt lat="43.3036175" lon="11.337167"><ele>271.0</ele><time>2026-04-26T10:32:31.96Z</time></trkpt><trkpt lat="43.3035171" lon="11.3372063"><ele>270.75</ele><time>2026-04-26T10:32:32.958Z</time></trkpt><trkpt lat="43.30341" lon="11.3372537"><ele>270.5</ele><time>2026-04-26T10:32:33.954Z</time></trkpt><trkpt lat="43.3032956" lon="11.3373085"><ele>270.25</ele><time>2026-04-26T10:32:34.968Z</time></trkpt><trkpt lat="43.3031849" lon="11.3373655"><ele>270.0</ele><time>2026-04-26T10:32:35.956Z</time></trkpt><trkpt lat="43.3030818" lon="11.3374257"><ele>269.6</ele><time>2026-04-26T10:32:36.984Z</time></trkpt><trkpt lat="43.3029865" lon="11.3374858"><ele>269.2</ele><time>2026-04-26T10:32:37.972Z</time></trkpt><trkpt lat="43.3028972" lon="11.3375467"><ele>268.8</ele><time>2026-04-26T10:32:38.973Z</time></trkpt><trkpt lat="43.3028097" lon="11.3376118"><ele>268.4</ele><time>2026-04-26T10:32:39.961Z</time></trkpt><trkpt lat="43.3027178" lon="11.3376825"><ele>268.0</ele><time>2026-04-26T10:32:40.971Z</time></trkpt><trkpt lat="43.3026205" lon="11.3377539"><ele>268.0</ele><time>2026-04-26T10:32:41.961Z</time></trkpt><trkpt lat="43.3025112" lon="11.3378225"><ele>268.0</ele><time>2026-04-26T10:32:42.974Z</time></trkpt><trkpt lat="43.3023888" lon="11.337882"><ele>268.0</ele><time>2026-04-26T10:32:43.978Z</time></trkpt><trkpt lat="43.3022523" lon="11.33793"><ele>268.0</ele><time>2026-04-26T10:32:44.964Z</time></trkpt><trkpt lat="43.3021129" lon="11.3379707"><ele>265.0</ele><time>2026-04-26T10:32:45.968Z</time></trkpt><trkpt lat="43.3019793" lon="11.3380053"><ele>262.0</ele><time>2026-04-26T10:32:46.966Z</time></trkpt><trkpt lat="43.3018494" lon="11.3380322"><ele>259.0</ele><time>2026-04-26T10:32:47.952Z</time></trkpt><trkpt lat="43.3017155" lon="11.3380422"><ele>256.0</ele><time>2026-04-26T10:32:48.953Z</time></trkpt><trkpt lat="43.3015756" lon="11.3380256"><ele>256.0</ele><time>2026-04-26T10:32:49.945Z</time></trkpt><trkpt lat="43.3014382" lon="11.3379863"><ele>256.0</ele><time>2026-04-26T10:32:50.947Z</time></trkpt><trkpt lat="43.3013128" lon="11.3379316"><ele>256.0</ele><time>2026-04-26T10:32:51.964Z</time></trkpt><trkpt lat="43.3011996" lon="11.3378664"><ele>256.0</ele><time>2026-04-26T10:32:52.971Z</time></trkpt><trkpt lat="43.3010939" lon="11.3377923"><ele>255.25</ele><time>2026-04-26T10:32:53.953Z</time></trkpt><trkpt lat="43.3009906" lon="11.3377107"><ele>254.5</ele><time>2026-04-26T10:32:54.976Z</time></trkpt><trkpt lat="43.3008933" lon="11.3376259"><ele>253.75</ele><time>2026-04-26T10:32:55.971Z</time></trkpt><trkpt lat="43.3007926" lon="11.3375445"><ele>253.0</ele><time>2026-04-26T10:32:56.98Z</time></trkpt><trkpt lat="43.3006889" lon="11.3374689"><ele>253.25</ele><time>2026-04-26T10:32:57.982Z</time></trkpt><trkpt lat="43.3005799" lon="11.3373977"><ele>253.5</ele><time>2026-04-26T10:32:59.002Z</time></trkpt><trkpt lat="43.3004657" lon="11.3373358"><ele>253.75</ele><time>2026-04-26T10:32:59.967Z</time></trkpt><trkpt lat="43.3003363" lon="11.3372879"><ele>254.0</ele><time>2026-04-26T10:33:00.977Z</time></trkpt><trkpt lat="43.3001999" lon="11.337251"><ele>254.0</ele><time>2026-04-26T10:33:01.972Z</time></trkpt><trkpt lat="43.3000654" lon="11.3372215"><ele>254.0</ele><time>2026-04-26T10:33:02.976Z</time></trkpt><trkpt lat="43.2999374" lon="11.3371963"><ele>254.0</ele><time>2026-04-26T10:33:03.978Z</time></trkpt><trkpt lat="43.2998117" lon="11.3371735"><ele>254.0</ele><time>2026-04-26T10:33:04.965Z</time></trkpt><trkpt lat="43.299684" lon="11.3371591"><ele>252.5</ele><time>2026-04-26T10:33:05.963Z</time></trkpt><trkpt lat="43.2995542" lon="11.3371604"><ele>251.0</ele><time>2026-04-26T10:33:06.969Z</time></trkpt><trkpt lat="43.2994226" lon="11.3371791"><ele>249.5</ele><time>2026-04-26T10:33:07.972Z</time></trkpt><trkpt lat="43.2992928" lon="11.3372078"><ele>248.0</ele><time>2026-04-26T10:33:08.959Z</time></trkpt><trkpt lat="43.2991645" lon="11.3372443"><ele>248.0</ele><time>2026-04-26T10:33:09.968Z</time></trkpt><trkpt lat="43.2990418" lon="11.3372804"><ele>248.0</ele><time>2026-04-26T10:33:10.988Z</time></trkpt><trkpt lat="43.2989215" lon="11.3373204"><ele>248.0</ele><time>2026-04-26T10:33:11.971Z</time></trkpt><trkpt lat="43.298796" lon="11.3373729"><ele>248.0</ele><time>2026-04-26T10:33:12.975Z</time></trkpt><trkpt lat="43.2986717" lon="11.3374413"><ele>247.0</ele><time>2026-04-26T10:33:13.969Z</time></trkpt><trkpt lat="43.2985551" lon="11.3375218"><ele>246.0</ele><time>2026-04-26T10:33:14.973Z</time></trkpt><trkpt lat="43.2984492" lon="11.3376082"><ele>245.0</ele><time>2026-04-26T10:33:15.967Z</time></trkpt><trkpt lat="43.2983485" lon="11.3376976"><ele>244.0</ele><time>2026-04-26T10:33:16.98Z</time></trkpt><trkpt lat="43.2982538" lon="11.337791"><ele>244.0</ele><time>2026-04-26T10:33:17.979Z</time></trkpt><trkpt lat="43.2981667" lon="11.3378938"><ele>243.99999999999997</ele><time>2026-04-26T10:33:18.999Z</time></trkpt><trkpt lat="43.2980881" lon="11.3380015"><ele>243.99999999999997</ele><time>2026-04-26T10:33:19.989Z</time></trkpt><trkpt lat="43.2980121" lon="11.3381098"><ele>244.0</ele><time>2026-04-26T10:33:20.996Z</time></trkpt><trkpt lat="43.2979382" lon="11.338212"><ele>244.0</ele><time>2026-04-26T10:33:21.979Z</time></trkpt><trkpt lat="43.2978638" lon="11.3383109"><ele>243.25</ele><time>2026-04-26T10:33:22.986Z</time></trkpt><trkpt lat="43.2977882" lon="11.3384132"><ele>242.5</ele><time>2026-04-26T10:33:23.98Z</time></trkpt><trkpt lat="43.297706" lon="11.3385288"><ele>241.75</ele><time>2026-04-26T10:33:24.995Z</time></trkpt><trkpt lat="43.2976171" lon="11.3386537"><ele>241.0</ele><time>2026-04-26T10:33:25.976Z</time></trkpt><trkpt lat="43.2975192" lon="11.338787"><ele>240.66666666666666</ele><time>2026-04-26T10:33:26.979Z</time></trkpt><trkpt lat="43.2974142" lon="11.3389255"><ele>240.33333333333331</ele><time>2026-04-26T10:33:27.981Z</time></trkpt><trkpt lat="43.2973032" lon="11.3390679"><ele>240.0</ele><time>2026-04-26T10:33:28.972Z</time></trkpt><trkpt lat="43.2971836" lon="11.3392216"><ele>240.0</ele><time>2026-04-26T10:33:29.966Z</time></trkpt><trkpt lat="43.2970521" lon="11.3393948"><ele>240.0</ele><time>2026-04-26T10:33:30.98Z</time></trkpt><trkpt lat="43.29692" lon="11.3395793"><ele>240.0</ele><time>2026-04-26T10:33:31.97Z</time></trkpt><trkpt lat="43.2967957" lon="11.3397654"><ele>240.66666666666669</ele><time>2026-04-26T10:33:32.979Z</time></trkpt><trkpt lat="43.2966858" lon="11.3399415"><ele>241.33333333333334</ele><time>2026-04-26T10:33:33.97Z</time></trkpt><trkpt lat="43.2965875" lon="11.340106"><ele>242.0</ele><time>2026-04-26T10:33:34.971Z</time></trkpt><trkpt lat="43.2965029" lon="11.3402554"><ele>242.0</ele><time>2026-04-26T10:33:35.955Z</time></trkpt><trkpt lat="43.2964308" lon="11.3403954"><ele>242.0</ele><time>2026-04-26T10:33:36.964Z</time></trkpt><trkpt lat="43.2963686" lon="11.3405281"><ele>242.0</ele><time>2026-04-26T10:33:37.965Z</time></trkpt><trkpt lat="43.2963132" lon="11.3406524"><ele>242.0</ele><time>2026-04-26T10:33:38.951Z</time></trkpt><trkpt lat="43.2962631" lon="11.340768"><ele>242.0</ele><time>2026-04-26T10:33:39.97Z</time></trkpt><trkpt lat="43.2962203" lon="11.3408717"><ele>242.50000000000003</ele><time>2026-04-26T10:33:40.964Z</time></trkpt><trkpt lat="43.2961822" lon="11.3409675"><ele>243.0</ele><time>2026-04-26T10:33:41.972Z</time></trkpt><trkpt lat="43.296146" lon="11.3410586"><ele>243.5</ele><time>2026-04-26T10:33:43.01Z</time></trkpt><trkpt lat="43.2961121" lon="11.3411408"><ele>244.0</ele><time>2026-04-26T10:33:43.971Z</time></trkpt><trkpt lat="43.2960785" lon="11.3412178"><ele>244.50000000000003</ele><time>2026-04-26T10:33:44.967Z</time></trkpt><trkpt lat="43.2960235" lon="11.3413375"><ele>245.0</ele><time>2026-04-26T10:33:46.988Z</time></trkpt><trkpt lat="43.2959843" lon="11.3414184"><ele>245.0</ele><time>2026-04-26T10:33:57.982Z</time></trkpt><trkpt lat="43.2959175" lon="11.3415713"><ele>245.0</ele><time>2026-04-26T10:33:59.972Z</time></trkpt><trkpt lat="43.2958761" lon="11.3416697"><ele>245.0</ele><time>2026-04-26T10:34:00.979Z</time></trkpt><trkpt lat="43.295827" lon="11.3417846"><ele>245.0</ele><time>2026-04-26T10:34:01.957Z</time></trkpt><trkpt lat="43.2957648" lon="11.3419089"><ele>245.0</ele><time>2026-04-26T10:34:02.971Z</time></trkpt><trkpt lat="43.295687" lon="11.3420311"><ele>245.0</ele><time>2026-04-26T10:34:03.98Z</time></trkpt><trkpt lat="43.2955914" lon="11.3421495"><ele>245.0</ele><time>2026-04-26T10:34:04.952Z</time></trkpt><trkpt lat="43.29548" lon="11.342267"><ele>245.0</ele><time>2026-04-26T10:34:05.955Z</time></trkpt><trkpt lat="43.2953595" lon="11.3423797"><ele>245.0</ele><time>2026-04-26T10:34:06.961Z</time></trkpt><trkpt lat="43.2952312" lon="11.3424888"><ele>245.0</ele><time>2026-04-26T10:34:07.977Z</time></trkpt><trkpt lat="43.295097" lon="11.3425906"><ele>245.0</ele><time>2026-04-26T10:34:08.968Z</time></trkpt><trkpt lat="43.2949555" lon="11.3426816"><ele>245.0</ele><time>2026-04-26T10:34:09.976Z</time></trkpt><trkpt lat="43.294816" lon="11.3427602"><ele>244.0</ele><time>2026-04-26T10:34:10.989Z</time></trkpt><trkpt lat="43.2946855" lon="11.3428298"><ele>243.0</ele><time>2026-04-26T10:34:11.97Z</time></trkpt><trkpt lat="43.2945611" lon="11.3428939"><ele>242.0</ele><time>2026-04-26T10:34:12.98Z</time></trkpt><trkpt lat="43.2944453" lon="11.3429509"><ele>241.0</ele><time>2026-04-26T10:34:13.974Z</time></trkpt><trkpt lat="43.2943319" lon="11.3430033"><ele>241.4</ele><time>2026-04-26T10:34:14.965Z</time></trkpt><trkpt lat="43.2942175" lon="11.34305"><ele>241.8</ele><time>2026-04-26T10:34:15.975Z</time></trkpt><trkpt lat="43.2941103" lon="11.343088"><ele>242.20000000000002</ele><time>2026-04-26T10:34:16.963Z</time></trkpt><trkpt lat="43.2940116" lon="11.3431188"><ele>242.60000000000002</ele><time>2026-04-26T10:34:17.966Z</time></trkpt><trkpt lat="43.2939234" lon="11.3431395"><ele>243.0</ele><time>2026-04-26T10:34:18.979Z</time></trkpt><trkpt lat="43.2938442" lon="11.3431545"><ele>243.0</ele><time>2026-04-26T10:34:19.968Z</time></trkpt><trkpt lat="43.2937698" lon="11.3431725"><ele>243.0</ele><time>2026-04-26T10:34:20.967Z</time></trkpt><trkpt lat="43.293698" lon="11.3431927"><ele>243.0</ele><time>2026-04-26T10:34:21.959Z</time></trkpt><trkpt lat="43.2936296" lon="11.3432119"><ele>243.0</ele><time>2026-04-26T10:34:22.974Z</time></trkpt><trkpt lat="43.2935141" lon="11.3432474"><ele>243.0</ele><time>2026-04-26T10:34:24.967Z</time></trkpt><trkpt lat="43.2934104" lon="11.3432689"><ele>243.0</ele><time>2026-04-26T10:34:26.965Z</time></trkpt><trkpt lat="43.2933077" lon="11.3432917"><ele>243.0</ele><time>2026-04-26T10:34:28.96Z</time></trkpt><trkpt lat="43.2932431" lon="11.3433139"><ele>243.0</ele><time>2026-04-26T10:34:29.968Z</time></trkpt><trkpt lat="43.2931755" lon="11.3433378"><ele>243.0</ele><time>2026-04-26T10:34:30.975Z</time></trkpt><trkpt lat="43.2931093" lon="11.3433545"><ele>243.0</ele><time>2026-04-26T10:34:31.976Z</time></trkpt><trkpt lat="43.2930415" lon="11.3433693"><ele>243.0</ele><time>2026-04-26T10:34:32.974Z</time></trkpt><trkpt lat="43.2929678" lon="11.3433895"><ele>243.0</ele><time>2026-04-26T10:34:33.974Z</time></trkpt><trkpt lat="43.2928881" lon="11.3434148"><ele>243.0</ele><time>2026-04-26T10:34:34.965Z</time></trkpt><trkpt lat="43.2928022" lon="11.3434454"><ele>243.8</ele><time>2026-04-26T10:34:35.97Z</time></trkpt><trkpt lat="43.2927116" lon="11.3434811"><ele>244.60000000000002</ele><time>2026-04-26T10:34:36.962Z</time></trkpt><trkpt lat="43.2926156" lon="11.343521"><ele>245.39999999999998</ele><time>2026-04-26T10:34:37.971Z</time></trkpt><trkpt lat="43.2925145" lon="11.3435618"><ele>246.2</ele><time>2026-04-26T10:34:38.975Z</time></trkpt><trkpt lat="43.2924056" lon="11.3436074"><ele>247.0</ele><time>2026-04-26T10:34:39.967Z</time></trkpt><trkpt lat="43.2922892" lon="11.343657"><ele>246.39999999999998</ele><time>2026-04-26T10:34:40.966Z</time></trkpt><trkpt lat="43.2921752" lon="11.3437026"><ele>245.79999999999998</ele><time>2026-04-26T10:34:41.959Z</time></trkpt><trkpt lat="43.29207" lon="11.343739"><ele>245.2</ele><time>2026-04-26T10:34:42.981Z</time></trkpt><trkpt lat="43.2919769" lon="11.3437669"><ele>244.6</ele><time>2026-04-26T10:34:43.956Z</time></trkpt><trkpt lat="43.2918855" lon="11.3437876"><ele>244.0</ele><time>2026-04-26T10:34:44.971Z</time></trkpt><trkpt lat="43.2917961" lon="11.3438024"><ele>244.0</ele><time>2026-04-26T10:34:45.955Z</time></trkpt><trkpt lat="43.2917054" lon="11.3438169"><ele>243.99999999999997</ele><time>2026-04-26T10:34:46.96Z</time></trkpt><trkpt lat="43.2916098" lon="11.3438347"><ele>243.99999999999997</ele><time>2026-04-26T10:34:47.954Z</time></trkpt><trkpt lat="43.2915092" lon="11.3438543"><ele>244.0</ele><time>2026-04-26T10:34:48.963Z</time></trkpt><trkpt lat="43.2914078" lon="11.3438727"><ele>244.0</ele><time>2026-04-26T10:34:49.966Z</time></trkpt><trkpt lat="43.2913034" lon="11.343889"><ele>244.0</ele><time>2026-04-26T10:34:50.967Z</time></trkpt><trkpt lat="43.2911937" lon="11.3439042"><ele>243.99999999999997</ele><time>2026-04-26T10:34:51.954Z</time></trkpt><trkpt lat="43.2910842" lon="11.3439174"><ele>243.99999999999997</ele><time>2026-04-26T10:34:52.961Z</time></trkpt><trkpt lat="43.290982" lon="11.3439241"><ele>244.0</ele><time>2026-04-26T10:34:53.971Z</time></trkpt><trkpt lat="43.2908826" lon="11.3439273"><ele>244.0</ele><time>2026-04-26T10:34:54.997Z</time></trkpt><trkpt lat="43.2907851" lon="11.3439286"><ele>244.0</ele><time>2026-04-26T10:34:56.003Z</time></trkpt><trkpt lat="43.2906862" lon="11.3439289"><ele>243.99999999999997</ele><time>2026-04-26T10:34:57.009Z</time></trkpt><trkpt lat="43.2905863" lon="11.3439243"><ele>243.99999999999997</ele><time>2026-04-26T10:34:57.984Z</time></trkpt><trkpt lat="43.2904869" lon="11.3439124"><ele>244.0</ele><time>2026-04-26T10:34:58.981Z</time></trkpt><trkpt lat="43.2903916" lon="11.3438938"><ele>244.0</ele><time>2026-04-26T10:34:59.977Z</time></trkpt><trkpt lat="43.2902981" lon="11.3438739"><ele>244.49999999999997</ele><time>2026-04-26T10:35:00.987Z</time></trkpt><trkpt lat="43.290205" lon="11.3438538"><ele>245.0</ele><time>2026-04-26T10:35:01.972Z</time></trkpt><trkpt lat="43.290114" lon="11.3438324"><ele>245.5</ele><time>2026-04-26T10:35:03.001Z</time></trkpt><trkpt lat="43.2900307" lon="11.343812"><ele>246.0</ele><time>2026-04-26T10:35:03.979Z</time></trkpt><trkpt lat="43.2899475" lon="11.3437919"><ele>246.49999999999997</ele><time>2026-04-26T10:35:04.984Z</time></trkpt><trkpt lat="43.2898609" lon="11.3437666"><ele>247.0</ele><time>2026-04-26T10:35:05.967Z</time></trkpt><trkpt lat="43.2897671" lon="11.3437388"><ele>247.2</ele><time>2026-04-26T10:35:06.975Z</time></trkpt><trkpt lat="43.2896671" lon="11.343722"><ele>247.39999999999998</ele><time>2026-04-26T10:35:07.978Z</time></trkpt><trkpt lat="43.2895619" lon="11.3437249"><ele>247.60000000000002</ele><time>2026-04-26T10:35:08.978Z</time></trkpt><trkpt lat="43.2894623" lon="11.3437415"><ele>247.8</ele><time>2026-04-26T10:35:09.97Z</time></trkpt><trkpt lat="43.2893731" lon="11.3437636"><ele>248.0</ele><time>2026-04-26T10:35:10.976Z</time></trkpt><trkpt lat="43.2892919" lon="11.3437856"><ele>248.00000000000003</ele><time>2026-04-26T10:35:11.964Z</time></trkpt><trkpt lat="43.2892161" lon="11.3438036"><ele>248.0</ele><time>2026-04-26T10:35:12.978Z</time></trkpt><trkpt lat="43.2891421" lon="11.3438214"><ele>248.0</ele><time>2026-04-26T10:35:13.963Z</time></trkpt><trkpt lat="43.2890613" lon="11.3438414"><ele>248.0</ele><time>2026-04-26T10:35:14.967Z</time></trkpt><trkpt lat="43.2889736" lon="11.3438629"><ele>248.00000000000003</ele><time>2026-04-26T10:35:15.953Z</time></trkpt><trkpt lat="43.2888743" lon="11.3438896"><ele>248.0</ele><time>2026-04-26T10:35:16.965Z</time></trkpt><trkpt lat="43.2887637" lon="11.3439189"><ele>247.25</ele><time>2026-04-26T10:35:17.953Z</time></trkpt><trkpt lat="43.2886398" lon="11.3439475"><ele>246.5</ele><time>2026-04-26T10:35:18.963Z</time></trkpt><trkpt lat="43.2885085" lon="11.3439748"><ele>245.75</ele><time>2026-04-26T10:35:19.967Z</time></trkpt><trkpt lat="43.2883755" lon="11.344002"><ele>245.0</ele><time>2026-04-26T10:35:20.979Z</time></trkpt><trkpt lat="43.2882516" lon="11.3440309"><ele>245.0</ele><time>2026-04-26T10:35:21.977Z</time></trkpt><trkpt lat="43.2881394" lon="11.3440662"><ele>245.0</ele><time>2026-04-26T10:35:22.981Z</time></trkpt><trkpt lat="43.2880346" lon="11.3441093"><ele>245.0</ele><time>2026-04-26T10:35:23.975Z</time></trkpt><trkpt lat="43.287929" lon="11.3441652"><ele>245.0</ele><time>2026-04-26T10:35:24.982Z</time></trkpt><trkpt lat="43.2878231" lon="11.3442396"><ele>245.75</ele><time>2026-04-26T10:35:25.996Z</time></trkpt><trkpt lat="43.2877207" lon="11.3443326"><ele>246.5</ele><time>2026-04-26T10:35:26.981Z</time></trkpt><trkpt lat="43.2876203" lon="11.3444434"><ele>247.25</ele><time>2026-04-26T10:35:27.988Z</time></trkpt><trkpt lat="43.2875254" lon="11.3445594"><ele>248.0</ele><time>2026-04-26T10:35:28.974Z</time></trkpt><trkpt lat="43.2874382" lon="11.3446712"><ele>247.2</ele><time>2026-04-26T10:35:29.974Z</time></trkpt><trkpt lat="43.2873602" lon="11.3447769"><ele>246.4</ele><time>2026-04-26T10:35:30.992Z</time></trkpt><trkpt lat="43.2872872" lon="11.3448821"><ele>245.59999999999997</ele><time>2026-04-26T10:35:31.978Z</time></trkpt><trkpt lat="43.2872094" lon="11.3449985"><ele>244.79999999999998</ele><time>2026-04-26T10:35:32.982Z</time></trkpt><trkpt lat="43.2871344" lon="11.34512"><ele>244.0</ele><time>2026-04-26T10:35:33.96Z</time></trkpt><trkpt lat="43.2870656" lon="11.3452464"><ele>244.0</ele><time>2026-04-26T10:35:34.976Z</time></trkpt><trkpt lat="43.2870016" lon="11.3453822"><ele>244.0</ele><time>2026-04-26T10:35:35.971Z</time></trkpt><trkpt lat="43.2869412" lon="11.3455241"><ele>244.0</ele><time>2026-04-26T10:35:36.985Z</time></trkpt><trkpt lat="43.2868885" lon="11.3456626"><ele>244.0</ele><time>2026-04-26T10:35:37.973Z</time></trkpt><trkpt lat="43.2868444" lon="11.3458018"><ele>244.2</ele><time>2026-04-26T10:35:38.978Z</time></trkpt><trkpt lat="43.2868094" lon="11.3459451"><ele>244.39999999999998</ele><time>2026-04-26T10:35:39.96Z</time></trkpt><trkpt lat="43.2867813" lon="11.346093"><ele>244.6</ele><time>2026-04-26T10:35:40.967Z</time></trkpt><trkpt lat="43.2867596" lon="11.3462387"><ele>244.8</ele><time>2026-04-26T10:35:41.963Z</time></trkpt><trkpt lat="43.2867398" lon="11.3463869"><ele>245.0</ele><time>2026-04-26T10:35:42.976Z</time></trkpt><trkpt lat="43.2867233" lon="11.3465326"><ele>244.2</ele><time>2026-04-26T10:35:43.958Z</time></trkpt><trkpt lat="43.2867113" lon="11.3466756"><ele>243.4</ele><time>2026-04-26T10:35:44.968Z</time></trkpt><trkpt lat="43.2867047" lon="11.3468108"><ele>242.60000000000002</ele><time>2026-04-26T10:35:45.986Z</time></trkpt><trkpt lat="43.2866999" lon="11.346934"><ele>241.8</ele><time>2026-04-26T10:35:46.97Z</time></trkpt><trkpt lat="43.2866922" lon="11.34705"><ele>241.0</ele><time>2026-04-26T10:35:47.97Z</time></trkpt><trkpt lat="43.2866793" lon="11.3471664"><ele>241.0</ele><time>2026-04-26T10:35:48.98Z</time></trkpt><trkpt lat="43.2866605" lon="11.3472913"><ele>241.00000000000003</ele><time>2026-04-26T10:35:49.964Z</time></trkpt><trkpt lat="43.2866331" lon="11.347431"><ele>241.00000000000003</ele><time>2026-04-26T10:35:50.986Z</time></trkpt><trkpt lat="43.2865959" lon="11.3475789"><ele>241.0</ele><time>2026-04-26T10:35:51.972Z</time></trkpt><trkpt lat="43.2865509" lon="11.3477372"><ele>241.0</ele><time>2026-04-26T10:35:52.991Z</time></trkpt><trkpt lat="43.2865066" lon="11.3479002"><ele>241.25</ele><time>2026-04-26T10:35:53.972Z</time></trkpt><trkpt lat="43.2864596" lon="11.3480648"><ele>241.5</ele><time>2026-04-26T10:35:54.986Z</time></trkpt><trkpt lat="43.2864055" lon="11.34822"><ele>241.75</ele><time>2026-04-26T10:35:55.972Z</time></trkpt><trkpt lat="43.2863436" lon="11.3483802"><ele>242.0</ele><time>2026-04-26T10:35:56.984Z</time></trkpt><trkpt lat="43.2862813" lon="11.3485514"><ele>239.33333333333334</ele><time>2026-04-26T10:35:57.975Z</time></trkpt><trkpt lat="43.2862151" lon="11.3487462"><ele>236.66666666666669</ele><time>2026-04-26T10:35:58.992Z</time></trkpt><trkpt lat="43.2861347" lon="11.3489557"><ele>234.0</ele><time>2026-04-26T10:35:59.977Z</time></trkpt><trkpt lat="43.2860419" lon="11.3491683"><ele>234.0</ele><time>2026-04-26T10:36:00.992Z</time></trkpt><trkpt lat="43.2859482" lon="11.3493804"><ele>234.0</ele><time>2026-04-26T10:36:01.977Z</time></trkpt><trkpt lat="43.2858572" lon="11.3496079"><ele>234.0</ele><time>2026-04-26T10:36:02.97Z</time></trkpt><trkpt lat="43.2857707" lon="11.3498417"><ele>234.33333333333331</ele><time>2026-04-26T10:36:03.972Z</time></trkpt><trkpt lat="43.285693" lon="11.3500614"><ele>234.66666666666666</ele><time>2026-04-26T10:36:04.974Z</time></trkpt><trkpt lat="43.2856251" lon="11.3502588"><ele>235.0</ele><time>2026-04-26T10:36:05.969Z</time></trkpt><trkpt lat="43.2855662" lon="11.35043"><ele>235.75</ele><time>2026-04-26T10:36:06.982Z</time></trkpt><trkpt lat="43.2855153" lon="11.3505811"><ele>236.5</ele><time>2026-04-26T10:36:07.981Z</time></trkpt><trkpt lat="43.2854679" lon="11.3507279"><ele>237.25</ele><time>2026-04-26T10:36:08.974Z</time></trkpt><trkpt lat="43.2854199" lon="11.3508799"><ele>238.0</ele><time>2026-04-26T10:36:09.995Z</time></trkpt><trkpt lat="43.285372" lon="11.3510399"><ele>238.0</ele><time>2026-04-26T10:36:10.977Z</time></trkpt><trkpt lat="43.2853201" lon="11.3512238"><ele>238.0</ele><time>2026-04-26T10:36:12.003Z</time></trkpt><trkpt lat="43.2852597" lon="11.3514242"><ele>238.0</ele><time>2026-04-26T10:36:13.001Z</time></trkpt><trkpt lat="43.2851917" lon="11.3516267"><ele>238.0</ele><time>2026-04-26T10:36:13.974Z</time></trkpt><trkpt lat="43.2851215" lon="11.351826"><ele>238.0</ele><time>2026-04-26T10:36:14.998Z</time></trkpt><trkpt lat="43.2850601" lon="11.3520074"><ele>238.0</ele><time>2026-04-26T10:36:15.97Z</time></trkpt><trkpt lat="43.285004" lon="11.3521799"><ele>238.0</ele><time>2026-04-26T10:36:16.974Z</time></trkpt><trkpt lat="43.2849512" lon="11.3523392"><ele>238.0</ele><time>2026-04-26T10:36:17.975Z</time></trkpt><trkpt lat="43.2848962" lon="11.3524883"><ele>238.0</ele><time>2026-04-26T10:36:19Z</time></trkpt><trkpt lat="43.2848331" lon="11.3526273"><ele>238.0</ele><time>2026-04-26T10:36:19.968Z</time></trkpt><trkpt lat="43.2847593" lon="11.3527675"><ele>238.0</ele><time>2026-04-26T10:36:20.978Z</time></trkpt><trkpt lat="43.2846834" lon="11.3528978"><ele>237.5</ele><time>2026-04-26T10:36:21.969Z</time></trkpt><trkpt lat="43.2846043" lon="11.3530146"><ele>237.0</ele><time>2026-04-26T10:36:22.975Z</time></trkpt><trkpt lat="43.2845197" lon="11.3531194"><ele>236.5</ele><time>2026-04-26T10:36:23.983Z</time></trkpt><trkpt lat="43.2844281" lon="11.3532165"><ele>236.0</ele><time>2026-04-26T10:36:24.991Z</time></trkpt><trkpt lat="43.2843298" lon="11.3533066"><ele>236.0</ele><time>2026-04-26T10:36:25.974Z</time></trkpt><trkpt lat="43.2842286" lon="11.353386"><ele>236.0</ele><time>2026-04-26T10:36:26.963Z</time></trkpt><trkpt lat="43.2841262" lon="11.3534548"><ele>236.0</ele><time>2026-04-26T10:36:27.963Z</time></trkpt><trkpt lat="43.2840196" lon="11.353519"><ele>236.0</ele><time>2026-04-26T10:36:28.947Z</time></trkpt><trkpt lat="43.2839055" lon="11.3535777"><ele>236.5</ele><time>2026-04-26T10:36:29.959Z</time></trkpt><trkpt lat="43.2837862" lon="11.3536242"><ele>237.0</ele><time>2026-04-26T10:36:30.955Z</time></trkpt><trkpt lat="43.2836639" lon="11.3536611"><ele>237.5</ele><time>2026-04-26T10:36:31.96Z</time></trkpt><trkpt lat="43.2835435" lon="11.3536853"><ele>238.0</ele><time>2026-04-26T10:36:32.954Z</time></trkpt><trkpt lat="43.2834266" lon="11.3536916"><ele>238.0</ele><time>2026-04-26T10:36:33.97Z</time></trkpt><trkpt lat="43.2833141" lon="11.3536837"><ele>238.0</ele><time>2026-04-26T10:36:34.976Z</time></trkpt><trkpt lat="43.2832007" lon="11.3536682"><ele>238.0</ele><time>2026-04-26T10:36:35.963Z</time></trkpt><trkpt lat="43.2830868" lon="11.353649"><ele>238.0</ele><time>2026-04-26T10:36:36.986Z</time></trkpt><trkpt lat="43.2829798" lon="11.3536268"><ele>238.0</ele><time>2026-04-26T10:36:37.971Z</time></trkpt><trkpt lat="43.2828728" lon="11.3536041"><ele>238.0</ele><time>2026-04-26T10:36:38.975Z</time></trkpt><trkpt lat="43.2827643" lon="11.3535816"><ele>238.0</ele><time>2026-04-26T10:36:40.001Z</time></trkpt><trkpt lat="43.2826588" lon="11.3535571"><ele>238.0</ele><time>2026-04-26T10:36:41.015Z</time></trkpt><trkpt lat="43.2825589" lon="11.3535311"><ele>238.0</ele><time>2026-04-26T10:36:41.973Z</time></trkpt><trkpt lat="43.2824559" lon="11.3535064"><ele>238.0</ele><time>2026-04-26T10:36:42.988Z</time></trkpt><trkpt lat="43.2823514" lon="11.3534834"><ele>238.0</ele><time>2026-04-26T10:36:43.972Z</time></trkpt><trkpt lat="43.2822455" lon="11.353462"><ele>238.0</ele><time>2026-04-26T10:36:44.978Z</time></trkpt><trkpt lat="43.2821464" lon="11.353445"><ele>238.0</ele><time>2026-04-26T10:36:45.97Z</time></trkpt><trkpt lat="43.2820497" lon="11.3534272"><ele>238.0</ele><time>2026-04-26T10:36:46.981Z</time></trkpt><trkpt lat="43.2819538" lon="11.3534068"><ele>237.99999999999997</ele><time>2026-04-26T10:36:47.974Z</time></trkpt><trkpt lat="43.2818568" lon="11.353384"><ele>238.0</ele><time>2026-04-26T10:36:49Z</time></trkpt><trkpt lat="43.2817632" lon="11.3533598"><ele>238.0</ele><time>2026-04-26T10:36:49.979Z</time></trkpt><trkpt lat="43.2816748" lon="11.3533368"><ele>238.0</ele><time>2026-04-26T10:36:50.993Z</time></trkpt><trkpt lat="43.2815934" lon="11.3533165"><ele>237.99999999999997</ele><time>2026-04-26T10:36:51.974Z</time></trkpt><trkpt lat="43.2815152" lon="11.3532995"><ele>238.0</ele><time>2026-04-26T10:36:52.977Z</time></trkpt><trkpt lat="43.2814345" lon="11.3532846"><ele>238.0</ele><time>2026-04-26T10:36:53.956Z</time></trkpt><trkpt lat="43.2813422" lon="11.3532647"><ele>238.0</ele><time>2026-04-26T10:36:54.97Z</time></trkpt><trkpt lat="43.2812419" lon="11.3532382"><ele>238.0</ele><time>2026-04-26T10:36:55.963Z</time></trkpt><trkpt lat="43.2811335" lon="11.3532057"><ele>238.0</ele><time>2026-04-26T10:36:56.971Z</time></trkpt><trkpt lat="43.281017" lon="11.3531695"><ele>238.0</ele><time>2026-04-26T10:36:57.982Z</time></trkpt><trkpt lat="43.2808833" lon="11.3531323"><ele>238.0</ele><time>2026-04-26T10:36:58.966Z</time></trkpt><trkpt lat="43.2807229" lon="11.3530832"><ele>238.0</ele><time>2026-04-26T10:36:59.966Z</time></trkpt><trkpt lat="43.2805475" lon="11.3530161"><ele>238.0</ele><time>2026-04-26T10:37:00.979Z</time></trkpt><trkpt lat="43.2803661" lon="11.3529416"><ele>235.33333333333331</ele><time>2026-04-26T10:37:01.992Z</time></trkpt><trkpt lat="43.2801802" lon="11.3528692"><ele>232.66666666666669</ele><time>2026-04-26T10:37:02.972Z</time></trkpt><trkpt lat="43.2799934" lon="11.3528034"><ele>230.0</ele><time>2026-04-26T10:37:03.987Z</time></trkpt><trkpt lat="43.2798142" lon="11.3527495"><ele>229.0</ele><time>2026-04-26T10:37:04.986Z</time></trkpt><trkpt lat="43.279635" lon="11.3527035"><ele>228.0</ele><time>2026-04-26T10:37:05.973Z</time></trkpt><trkpt lat="43.2794495" lon="11.3526702"><ele>227.0</ele><time>2026-04-26T10:37:06.983Z</time></trkpt><trkpt lat="43.2792612" lon="11.3526488"><ele>227.0</ele><time>2026-04-26T10:37:07.989Z</time></trkpt><trkpt lat="43.2790737" lon="11.3526395"><ele>227.0</ele><time>2026-04-26T10:37:08.983Z</time></trkpt><trkpt lat="43.2788882" lon="11.3526537"><ele>227.0</ele><time>2026-04-26T10:37:09.995Z</time></trkpt><trkpt lat="43.2787083" lon="11.3527014"><ele>227.0</ele><time>2026-04-26T10:37:10.997Z</time></trkpt><trkpt lat="43.2785303" lon="11.352785"><ele>227.0</ele><time>2026-04-26T10:37:11.989Z</time></trkpt><trkpt lat="43.2783504" lon="11.3528918"><ele>227.0</ele><time>2026-04-26T10:37:12.983Z</time></trkpt><trkpt lat="43.2781665" lon="11.3530114"><ele>228.33333333333334</ele><time>2026-04-26T10:37:13.976Z</time></trkpt><trkpt lat="43.2779721" lon="11.3531353"><ele>229.66666666666669</ele><time>2026-04-26T10:37:14.97Z</time></trkpt><trkpt lat="43.2777782" lon="11.3532563"><ele>231.0</ele><time>2026-04-26T10:37:15.974Z</time></trkpt><trkpt lat="43.2775959" lon="11.3533682"><ele>231.0</ele><time>2026-04-26T10:37:16.98Z</time></trkpt><trkpt lat="43.2774243" lon="11.3534681"><ele>231.0</ele><time>2026-04-26T10:37:17.961Z</time></trkpt><trkpt lat="43.2772545" lon="11.3535562"><ele>231.0</ele><time>2026-04-26T10:37:18.976Z</time></trkpt><trkpt lat="43.2770808" lon="11.3536265"><ele>231.33333333333331</ele><time>2026-04-26T10:37:19.959Z</time></trkpt><trkpt lat="43.2768909" lon="11.3536814"><ele>231.66666666666666</ele><time>2026-04-26T10:37:20.972Z</time></trkpt><trkpt lat="43.2766895" lon="11.3537266"><ele>232.0</ele><time>2026-04-26T10:37:21.976Z</time></trkpt><trkpt lat="43.2764815" lon="11.3537709"><ele>230.33333333333331</ele><time>2026-04-26T10:37:22.984Z</time></trkpt><trkpt lat="43.276271" lon="11.3538139"><ele>228.66666666666669</ele><time>2026-04-26T10:37:23.977Z</time></trkpt><trkpt lat="43.2760569" lon="11.3538577"><ele>227.0</ele><time>2026-04-26T10:37:24.987Z</time></trkpt><trkpt lat="43.2758441" lon="11.3538999"><ele>225.66666666666669</ele><time>2026-04-26T10:37:25.977Z</time></trkpt><trkpt lat="43.2756328" lon="11.3539405"><ele>224.33333333333331</ele><time>2026-04-26T10:37:26.996Z</time></trkpt><trkpt lat="43.2754331" lon="11.3539771"><ele>223.0</ele><time>2026-04-26T10:37:27.976Z</time></trkpt><trkpt lat="43.2752413" lon="11.3540174"><ele>222.66666666666666</ele><time>2026-04-26T10:37:28.988Z</time></trkpt><trkpt lat="43.2750613" lon="11.3540577"><ele>222.33333333333331</ele><time>2026-04-26T10:37:29.975Z</time></trkpt><trkpt lat="43.2748856" lon="11.3541066"><ele>222.0</ele><time>2026-04-26T10:37:30.987Z</time></trkpt><trkpt lat="43.2747167" lon="11.3541827"><ele>223.0</ele><time>2026-04-26T10:37:31.975Z</time></trkpt><trkpt lat="43.2745565" lon="11.3543038"><ele>224.0</ele><time>2026-04-26T10:37:32.992Z</time></trkpt><trkpt lat="43.274411" lon="11.3544552"><ele>225.0</ele><time>2026-04-26T10:37:33.979Z</time></trkpt><trkpt lat="43.2742781" lon="11.354627"><ele>224.0</ele><time>2026-04-26T10:37:34.988Z</time></trkpt><trkpt lat="43.2741556" lon="11.3548048"><ele>223.0</ele><time>2026-04-26T10:37:35.976Z</time></trkpt><trkpt lat="43.2740338" lon="11.3549818"><ele>222.0</ele><time>2026-04-26T10:37:36.991Z</time></trkpt><trkpt lat="43.273908" lon="11.3551443"><ele>222.33333333333331</ele><time>2026-04-26T10:37:37.982Z</time></trkpt><trkpt lat="43.2737754" lon="11.3552938"><ele>222.66666666666666</ele><time>2026-04-26T10:37:38.979Z</time></trkpt><trkpt lat="43.2736438" lon="11.3554363"><ele>223.0</ele><time>2026-04-26T10:37:39.98Z</time></trkpt><trkpt lat="43.2735151" lon="11.3555814"><ele>223.0</ele><time>2026-04-26T10:37:40.973Z</time></trkpt><trkpt lat="43.273383" lon="11.3557299"><ele>223.0</ele><time>2026-04-26T10:37:41.962Z</time></trkpt><trkpt lat="43.2732456" lon="11.355882"><ele>223.0</ele><time>2026-04-26T10:37:42.963Z</time></trkpt><trkpt lat="43.2731075" lon="11.3560324"><ele>224.33333333333331</ele><time>2026-04-26T10:37:43.951Z</time></trkpt><trkpt lat="43.2729688" lon="11.3561849"><ele>225.66666666666669</ele><time>2026-04-26T10:37:44.96Z</time></trkpt><trkpt lat="43.2728286" lon="11.3563422"><ele>227.0</ele><time>2026-04-26T10:37:45.972Z</time></trkpt><trkpt lat="43.2726849" lon="11.3565035"><ele>227.0</ele><time>2026-04-26T10:37:46.986Z</time></trkpt><trkpt lat="43.2725435" lon="11.3566619"><ele>227.0</ele><time>2026-04-26T10:37:47.978Z</time></trkpt><trkpt lat="43.2724093" lon="11.3568123"><ele>227.0</ele><time>2026-04-26T10:37:48.968Z</time></trkpt><trkpt lat="43.2722855" lon="11.3569493"><ele>226.0</ele><time>2026-04-26T10:37:49.974Z</time></trkpt><trkpt lat="43.272174" lon="11.3570707"><ele>225.0</ele><time>2026-04-26T10:37:50.98Z</time></trkpt><trkpt lat="43.2720738" lon="11.3571788"><ele>224.0</ele><time>2026-04-26T10:37:52.001Z</time></trkpt><trkpt lat="43.2719902" lon="11.35727"><ele>223.0</ele><time>2026-04-26T10:37:52.995Z</time></trkpt><trkpt lat="43.2719248" lon="11.357339"><ele>222.99999999999997</ele><time>2026-04-26T10:37:53.987Z</time></trkpt><trkpt lat="43.2718647" lon="11.3573775"><ele>223.0</ele><time>2026-04-26T10:37:54.991Z</time></trkpt><trkpt lat="43.2718001" lon="11.3573811"><ele>223.0</ele><time>2026-04-26T10:37:55.995Z</time></trkpt><trkpt lat="43.2717315" lon="11.3573454"><ele>223.0</ele><time>2026-04-26T10:37:56.994Z</time></trkpt><trkpt lat="43.2716551" lon="11.3572707"><ele>222.99999999999997</ele><time>2026-04-26T10:37:57.982Z</time></trkpt><trkpt lat="43.2715673" lon="11.357168"><ele>223.0</ele><time>2026-04-26T10:37:58.988Z</time></trkpt><trkpt lat="43.271471" lon="11.3570584"><ele>222.75</ele><time>2026-04-26T10:37:59.979Z</time></trkpt><trkpt lat="43.2713683" lon="11.3569492"><ele>222.5</ele><time>2026-04-26T10:38:00.988Z</time></trkpt><trkpt lat="43.2712649" lon="11.3568427"><ele>222.25</ele><time>2026-04-26T10:38:01.975Z</time></trkpt><trkpt lat="43.2711573" lon="11.3567307"><ele>222.0</ele><time>2026-04-26T10:38:02.987Z</time></trkpt><trkpt lat="43.2710537" lon="11.356619"><ele>222.0</ele><time>2026-04-26T10:38:03.972Z</time></trkpt><trkpt lat="43.2709481" lon="11.3565085"><ele>222.0</ele><time>2026-04-26T10:38:04.978Z</time></trkpt><trkpt lat="43.2708425" lon="11.3564004"><ele>222.0</ele><time>2026-04-26T10:38:05.971Z</time></trkpt><trkpt lat="43.2707424" lon="11.356301"><ele>222.0</ele><time>2026-04-26T10:38:06.975Z</time></trkpt><trkpt lat="43.2706499" lon="11.3562075"><ele>219.6</ele><time>2026-04-26T10:38:07.958Z</time></trkpt><trkpt lat="43.2705652" lon="11.3561203"><ele>217.2</ele><time>2026-04-26T10:38:08.972Z</time></trkpt><trkpt lat="43.2704891" lon="11.3560435"><ele>214.8</ele><time>2026-04-26T10:38:09.959Z</time></trkpt><trkpt lat="43.270412" lon="11.3559783"><ele>212.4</ele><time>2026-04-26T10:38:10.976Z</time></trkpt><trkpt lat="43.2703319" lon="11.3559346"><ele>210.0</ele><time>2026-04-26T10:38:11.974Z</time></trkpt><trkpt lat="43.2702416" lon="11.3559117"><ele>210.0</ele><time>2026-04-26T10:38:12.986Z</time></trkpt><trkpt lat="43.2701348" lon="11.3559033"><ele>210.0</ele><time>2026-04-26T10:38:13.974Z</time></trkpt><trkpt lat="43.2700207" lon="11.3559057"><ele>210.0</ele><time>2026-04-26T10:38:14.984Z</time></trkpt><trkpt lat="43.2699136" lon="11.3559183"><ele>210.0</ele><time>2026-04-26T10:38:15.977Z</time></trkpt><trkpt lat="43.2698024" lon="11.3559437"><ele>210.0</ele><time>2026-04-26T10:38:17.013Z</time></trkpt><trkpt lat="43.2696906" lon="11.3559855"><ele>207.0</ele><time>2026-04-26T10:38:18.008Z</time></trkpt><trkpt lat="43.2695858" lon="11.3560474"><ele>204.0</ele><time>2026-04-26T10:38:18.994Z</time></trkpt><trkpt lat="43.2694898" lon="11.3561251"><ele>201.0</ele><time>2026-04-26T10:38:19.968Z</time></trkpt><trkpt lat="43.2693947" lon="11.35622"><ele>198.0</ele><time>2026-04-26T10:38:20.981Z</time></trkpt><trkpt lat="43.2693043" lon="11.3563243"><ele>198.8</ele><time>2026-04-26T10:38:21.966Z</time></trkpt><trkpt lat="43.2692206" lon="11.3564397"><ele>199.60000000000002</ele><time>2026-04-26T10:38:22.98Z</time></trkpt><trkpt lat="43.2691488" lon="11.3565584"><ele>200.39999999999998</ele><time>2026-04-26T10:38:23.965Z</time></trkpt><trkpt lat="43.2690888" lon="11.3566811"><ele>201.2</ele><time>2026-04-26T10:38:24.977Z</time></trkpt><trkpt lat="43.2690374" lon="11.356811"><ele>202.0</ele><time>2026-04-26T10:38:25.967Z</time></trkpt><trkpt lat="43.2689927" lon="11.356958"><ele>202.0</ele><time>2026-04-26T10:38:26.976Z</time></trkpt><trkpt lat="43.2689608" lon="11.3571138"><ele>202.0</ele><time>2026-04-26T10:38:27.966Z</time></trkpt><trkpt lat="43.2689421" lon="11.3572821"><ele>202.0</ele><time>2026-04-26T10:38:28.973Z</time></trkpt><trkpt lat="43.268933" lon="11.3574624"><ele>202.0</ele><time>2026-04-26T10:38:29.979Z</time></trkpt><trkpt lat="43.2689326" lon="11.3576539"><ele>197.66666666666666</ele><time>2026-04-26T10:38:30.962Z</time></trkpt><trkpt lat="43.2689345" lon="11.3578601"><ele>193.33333333333331</ele><time>2026-04-26T10:38:31.96Z</time></trkpt><trkpt lat="43.2689294" lon="11.35807"><ele>189.0</ele><time>2026-04-26T10:38:32.964Z</time></trkpt><trkpt lat="43.2689129" lon="11.3582741"><ele>189.0</ele><time>2026-04-26T10:38:33.954Z</time></trkpt><trkpt lat="43.2688835" lon="11.3584621"><ele>189.0</ele><time>2026-04-26T10:38:34.969Z</time></trkpt><trkpt lat="43.2688419" lon="11.3586313"><ele>189.0</ele><time>2026-04-26T10:38:35.966Z</time></trkpt><trkpt lat="43.2687883" lon="11.3587848"><ele>189.0</ele><time>2026-04-26T10:38:36.979Z</time></trkpt><trkpt lat="43.2687203" lon="11.358925"><ele>189.25</ele><time>2026-04-26T10:38:37.977Z</time></trkpt><trkpt lat="43.2686367" lon="11.3590516"><ele>189.5</ele><time>2026-04-26T10:38:38.984Z</time></trkpt><trkpt lat="43.2685414" lon="11.3591585"><ele>189.75</ele><time>2026-04-26T10:38:39.966Z</time></trkpt><trkpt lat="43.2684292" lon="11.3592488"><ele>190.0</ele><time>2026-04-26T10:38:40.974Z</time></trkpt><trkpt lat="43.2683035" lon="11.3593226"><ele>190.0</ele><time>2026-04-26T10:38:41.986Z</time></trkpt><trkpt lat="43.268174" lon="11.3593756"><ele>190.0</ele><time>2026-04-26T10:38:42.988Z</time></trkpt><trkpt lat="43.2680453" lon="11.359403"><ele>190.0</ele><time>2026-04-26T10:38:43.991Z</time></trkpt><trkpt lat="43.2679172" lon="11.3594018"><ele>190.0</ele><time>2026-04-26T10:38:44.98Z</time></trkpt><trkpt lat="43.2677874" lon="11.3593728"><ele>189.0</ele><time>2026-04-26T10:38:45.977Z</time></trkpt><trkpt lat="43.2676527" lon="11.3593239"><ele>188.0</ele><time>2026-04-26T10:38:46.985Z</time></trkpt><trkpt lat="43.2675123" lon="11.3592663"><ele>187.0</ele><time>2026-04-26T10:38:47.997Z</time></trkpt><trkpt lat="43.267368" lon="11.3592082"><ele>186.0</ele><time>2026-04-26T10:38:49.003Z</time></trkpt><trkpt lat="43.2672269" lon="11.3591514"><ele>185.75</ele><time>2026-04-26T10:38:49.972Z</time></trkpt><trkpt lat="43.2670886" lon="11.3590903"><ele>185.5</ele><time>2026-04-26T10:38:50.991Z</time></trkpt><trkpt lat="43.2669558" lon="11.3590272"><ele>185.25</ele><time>2026-04-26T10:38:51.979Z</time></trkpt><trkpt lat="43.2668264" lon="11.3589675"><ele>185.0</ele><time>2026-04-26T10:38:52.973Z</time></trkpt><trkpt lat="43.266707" lon="11.3589133"><ele>185.0</ele><time>2026-04-26T10:38:53.97Z</time></trkpt><trkpt lat="43.2665926" lon="11.3588588"><ele>185.0</ele><time>2026-04-26T10:38:54.986Z</time></trkpt><trkpt lat="43.2664774" lon="11.3588068"><ele>185.0</ele><time>2026-04-26T10:38:55.958Z</time></trkpt><trkpt lat="43.2663532" lon="11.3587588"><ele>185.0</ele><time>2026-04-26T10:38:56.962Z</time></trkpt><trkpt lat="43.2662221" lon="11.358709"><ele>185.0</ele><time>2026-04-26T10:38:57.942Z</time></trkpt><trkpt lat="43.2660835" lon="11.3586496"><ele>185.0</ele><time>2026-04-26T10:38:58.962Z</time></trkpt><trkpt lat="43.2659435" lon="11.3585846"><ele>185.0</ele><time>2026-04-26T10:38:59.951Z</time></trkpt><trkpt lat="43.2658036" lon="11.3585239"><ele>185.0</ele><time>2026-04-26T10:39:00.952Z</time></trkpt><trkpt lat="43.2656729" lon="11.358466"><ele>184.75</ele><time>2026-04-26T10:39:01.959Z</time></trkpt><trkpt lat="43.2655511" lon="11.3584127"><ele>184.5</ele><time>2026-04-26T10:39:02.963Z</time></trkpt><trkpt lat="43.2654352" lon="11.3583611"><ele>184.25</ele><time>2026-04-26T10:39:03.951Z</time></trkpt><trkpt lat="43.2653244" lon="11.3583135"><ele>184.0</ele><time>2026-04-26T10:39:04.976Z</time></trkpt><trkpt lat="43.2652193" lon="11.3582726"><ele>184.0</ele><time>2026-04-26T10:39:05.956Z</time></trkpt><trkpt lat="43.2651213" lon="11.3582383"><ele>184.0</ele><time>2026-04-26T10:39:06.97Z</time></trkpt><trkpt lat="43.2650304" lon="11.358208"><ele>184.0</ele><time>2026-04-26T10:39:07.974Z</time></trkpt><trkpt lat="43.2649387" lon="11.358193"><ele>184.0</ele><time>2026-04-26T10:39:08.974Z</time></trkpt><trkpt lat="43.2648423" lon="11.3581986"><ele>184.0</ele><time>2026-04-26T10:39:09.975Z</time></trkpt><trkpt lat="43.2647442" lon="11.3582335"><ele>184.75</ele><time>2026-04-26T10:39:10.985Z</time></trkpt><trkpt lat="43.264653" lon="11.3583027"><ele>185.5</ele><time>2026-04-26T10:39:11.995Z</time></trkpt><trkpt lat="43.2645725" lon="11.3584049"><ele>186.25</ele><time>2026-04-26T10:39:12.974Z</time></trkpt><trkpt lat="43.2644947" lon="11.3585349"><ele>187.0</ele><time>2026-04-26T10:39:13.992Z</time></trkpt><trkpt lat="43.2644133" lon="11.3586858"><ele>187.0</ele><time>2026-04-26T10:39:14.962Z</time></trkpt><trkpt lat="43.2643271" lon="11.3588467"><ele>187.0</ele><time>2026-04-26T10:39:15.976Z</time></trkpt><trkpt lat="43.2642403" lon="11.3589876"><ele>187.0</ele><time>2026-04-26T10:39:16.965Z</time></trkpt><trkpt lat="43.2641465" lon="11.3591115"><ele>187.0</ele><time>2026-04-26T10:39:17.977Z</time></trkpt><trkpt lat="43.2640408" lon="11.3592218"><ele>186.0</ele><time>2026-04-26T10:39:18.978Z</time></trkpt><trkpt lat="43.2639227" lon="11.3593173"><ele>185.0</ele><time>2026-04-26T10:39:19.954Z</time></trkpt><trkpt lat="43.2637915" lon="11.3594049"><ele>184.0</ele><time>2026-04-26T10:39:20.96Z</time></trkpt><trkpt lat="43.2636551" lon="11.3594923"><ele>183.0</ele><time>2026-04-26T10:39:21.954Z</time></trkpt><trkpt lat="43.2635221" lon="11.3595895"><ele>183.0</ele><time>2026-04-26T10:39:22.966Z</time></trkpt><trkpt lat="43.2633949" lon="11.3596985"><ele>183.0</ele><time>2026-04-26T10:39:23.972Z</time></trkpt><trkpt lat="43.26327" lon="11.35982"><ele>183.0</ele><time>2026-04-26T10:39:24.979Z</time></trkpt><trkpt lat="43.2631467" lon="11.3599466"><ele>184.0</ele><time>2026-04-26T10:39:25.966Z</time></trkpt><trkpt lat="43.2630243" lon="11.3600777"><ele>185.0</ele><time>2026-04-26T10:39:26.98Z</time></trkpt><trkpt lat="43.2629052" lon="11.3602064"><ele>186.0</ele><time>2026-04-26T10:39:27.962Z</time></trkpt><trkpt lat="43.2627865" lon="11.3603399"><ele>186.0</ele><time>2026-04-26T10:39:28.968Z</time></trkpt><trkpt lat="43.2626707" lon="11.3604768"><ele>186.0</ele><time>2026-04-26T10:39:29.97Z</time></trkpt><trkpt lat="43.2625571" lon="11.3606186"><ele>186.0</ele><time>2026-04-26T10:39:30.974Z</time></trkpt><trkpt lat="43.2624471" lon="11.360757"><ele>185.25</ele><time>2026-04-26T10:39:31.976Z</time></trkpt><trkpt lat="43.2623474" lon="11.3608841"><ele>184.5</ele><time>2026-04-26T10:39:32.98Z</time></trkpt><trkpt lat="43.2622569" lon="11.3610029"><ele>183.75</ele><time>2026-04-26T10:39:33.961Z</time></trkpt><trkpt lat="43.2621636" lon="11.3611207"><ele>183.0</ele><time>2026-04-26T10:39:34.964Z</time></trkpt><trkpt lat="43.262063" lon="11.3612368"><ele>182.75</ele><time>2026-04-26T10:39:35.967Z</time></trkpt><trkpt lat="43.261952" lon="11.3613497"><ele>182.5</ele><time>2026-04-26T10:39:36.975Z</time></trkpt><trkpt lat="43.2618297" lon="11.3614545"><ele>182.25</ele><time>2026-04-26T10:39:37.967Z</time></trkpt><trkpt lat="43.2616988" lon="11.3615553"><ele>182.0</ele><time>2026-04-26T10:39:38.973Z</time></trkpt><trkpt lat="43.2615619" lon="11.36165"><ele>182.0</ele><time>2026-04-26T10:39:39.97Z</time></trkpt><trkpt lat="43.2614259" lon="11.3617343"><ele>182.0</ele><time>2026-04-26T10:39:40.976Z</time></trkpt><trkpt lat="43.2612956" lon="11.3618061"><ele>182.0</ele><time>2026-04-26T10:39:41.978Z</time></trkpt><trkpt lat="43.2611608" lon="11.3618694"><ele>182.0</ele><time>2026-04-26T10:39:42.962Z</time></trkpt><trkpt lat="43.2610167" lon="11.3619161"><ele>182.0</ele><time>2026-04-26T10:39:43.971Z</time></trkpt><trkpt lat="43.2608634" lon="11.3619404"><ele>182.0</ele><time>2026-04-26T10:39:44.957Z</time></trkpt><trkpt lat="43.2606998" lon="11.3619454"><ele>182.0</ele><time>2026-04-26T10:39:45.955Z</time></trkpt><trkpt lat="43.2605319" lon="11.3619321"><ele>183.0</ele><time>2026-04-26T10:39:46.961Z</time></trkpt><trkpt lat="43.2603618" lon="11.3619005"><ele>184.0</ele><time>2026-04-26T10:39:48.03Z</time></trkpt><trkpt lat="43.2601957" lon="11.3618549"><ele>185.0</ele><time>2026-04-26T10:39:48.984Z</time></trkpt><trkpt lat="43.260014" lon="11.3618008"><ele>185.0</ele><time>2026-04-26T10:39:49.996Z</time></trkpt><trkpt lat="43.2598329" lon="11.3617437"><ele>185.0</ele><time>2026-04-26T10:39:50.994Z</time></trkpt><trkpt lat="43.2596597" lon="11.3616783"><ele>185.0</ele><time>2026-04-26T10:39:51.966Z</time></trkpt><trkpt lat="43.2594911" lon="11.3616009"><ele>185.0</ele><time>2026-04-26T10:39:52.978Z</time></trkpt><trkpt lat="43.259329" lon="11.3615182"><ele>185.0</ele><time>2026-04-26T10:39:53.978Z</time></trkpt><trkpt lat="43.2591711" lon="11.3614359"><ele>185.0</ele><time>2026-04-26T10:39:54.985Z</time></trkpt><trkpt lat="43.2590196" lon="11.3613513"><ele>188.33333333333331</ele><time>2026-04-26T10:39:55.975Z</time></trkpt><trkpt lat="43.2588723" lon="11.3612573"><ele>191.66666666666666</ele><time>2026-04-26T10:39:56.981Z</time></trkpt><trkpt lat="43.2587302" lon="11.3611464"><ele>195.0</ele><time>2026-04-26T10:39:57.986Z</time></trkpt><trkpt lat="43.2585901" lon="11.3610171"><ele>195.0</ele><time>2026-04-26T10:39:58.972Z</time></trkpt><trkpt lat="43.2584478" lon="11.3608766"><ele>195.0</ele><time>2026-04-26T10:39:59.973Z</time></trkpt><trkpt lat="43.2583086" lon="11.3607391"><ele>195.0</ele><time>2026-04-26T10:40:00.987Z</time></trkpt><trkpt lat="43.2581813" lon="11.3606177"><ele>195.0</ele><time>2026-04-26T10:40:01.974Z</time></trkpt><trkpt lat="43.2580596" lon="11.3605111"><ele>195.0</ele><time>2026-04-26T10:40:02.98Z</time></trkpt><trkpt lat="43.2579334" lon="11.360419"><ele>195.0</ele><time>2026-04-26T10:40:03.969Z</time></trkpt><trkpt lat="43.2577941" lon="11.3603417"><ele>195.0</ele><time>2026-04-26T10:40:04.98Z</time></trkpt><trkpt lat="43.2576409" lon="11.3602731"><ele>195.0</ele><time>2026-04-26T10:40:05.99Z</time></trkpt><trkpt lat="43.2574897" lon="11.3602083"><ele>195.0</ele><time>2026-04-26T10:40:06.98Z</time></trkpt><trkpt lat="43.2573553" lon="11.3601547"><ele>195.0</ele><time>2026-04-26T10:40:07.976Z</time></trkpt><trkpt lat="43.2572277" lon="11.3601144"><ele>195.0</ele><time>2026-04-26T10:40:08.97Z</time></trkpt><trkpt lat="43.2570937" lon="11.3600865"><ele>196.0</ele><time>2026-04-26T10:40:09.973Z</time></trkpt><trkpt lat="43.2569565" lon="11.3600716"><ele>197.0</ele><time>2026-04-26T10:40:10.959Z</time></trkpt><trkpt lat="43.2568182" lon="11.3600723"><ele>198.0</ele><time>2026-04-26T10:40:11.963Z</time></trkpt><trkpt lat="43.2566756" lon="11.3600897"><ele>199.0</ele><time>2026-04-26T10:40:13.003Z</time></trkpt><trkpt lat="43.2565262" lon="11.3601174"><ele>200.0</ele><time>2026-04-26T10:40:13.994Z</time></trkpt><trkpt lat="43.2563747" lon="11.3601491"><ele>201.0</ele><time>2026-04-26T10:40:15.011Z</time></trkpt><trkpt lat="43.2562375" lon="11.3601857"><ele>202.0</ele><time>2026-04-26T10:40:15.982Z</time></trkpt><trkpt lat="43.256107" lon="11.360239"><ele>203.0</ele><time>2026-04-26T10:40:16.973Z</time></trkpt><trkpt lat="43.2559762" lon="11.3603183"><ele>203.0</ele><time>2026-04-26T10:40:17.979Z</time></trkpt><trkpt lat="43.2558402" lon="11.360419"><ele>203.0</ele><time>2026-04-26T10:40:18.984Z</time></trkpt><trkpt lat="43.2557008" lon="11.3605232"><ele>203.0</ele><time>2026-04-26T10:40:19.989Z</time></trkpt><trkpt lat="43.2555616" lon="11.3606209"><ele>206.66666666666669</ele><time>2026-04-26T10:40:20.98Z</time></trkpt><trkpt lat="43.2554245" lon="11.3607242"><ele>210.33333333333331</ele><time>2026-04-26T10:40:21.993Z</time></trkpt><trkpt lat="43.2552957" lon="11.3608496"><ele>214.0</ele><time>2026-04-26T10:40:22.993Z</time></trkpt><trkpt lat="43.2551761" lon="11.3609999"><ele>214.0</ele><time>2026-04-26T10:40:23.976Z</time></trkpt><trkpt lat="43.2550673" lon="11.361171"><ele>214.0</ele><time>2026-04-26T10:40:24.983Z</time></trkpt><trkpt lat="43.2549676" lon="11.3613469"><ele>214.0</ele><time>2026-04-26T10:40:25.973Z</time></trkpt><trkpt lat="43.2548709" lon="11.361528"><ele>216.75</ele><time>2026-04-26T10:40:26.996Z</time></trkpt><trkpt lat="43.2547806" lon="11.3616971"><ele>219.5</ele><time>2026-04-26T10:40:27.971Z</time></trkpt><trkpt lat="43.2546917" lon="11.3618515"><ele>222.25</ele><time>2026-04-26T10:40:28.987Z</time></trkpt><trkpt lat="43.2545938" lon="11.361988"><ele>225.0</ele><time>2026-04-26T10:40:29.964Z</time></trkpt><trkpt lat="43.2544803" lon="11.362107"><ele>223.75</ele><time>2026-04-26T10:40:30.983Z</time></trkpt><trkpt lat="43.2543639" lon="11.3622014"><ele>222.5</ele><time>2026-04-26T10:40:31.968Z</time></trkpt><trkpt lat="43.2542438" lon="11.3622773"><ele>221.25</ele><time>2026-04-26T10:40:32.971Z</time></trkpt><trkpt lat="43.2541129" lon="11.3623358"><ele>220.0</ele><time>2026-04-26T10:40:33.962Z</time></trkpt><trkpt lat="43.2539751" lon="11.3623704"><ele>221.25</ele><time>2026-04-26T10:40:34.969Z</time></trkpt><trkpt lat="43.2538373" lon="11.3623859"><ele>222.5</ele><time>2026-04-26T10:40:35.972Z</time></trkpt><trkpt lat="43.2536973" lon="11.3624001"><ele>223.75</ele><time>2026-04-26T10:40:36.975Z</time></trkpt><trkpt lat="43.2535562" lon="11.3624282"><ele>225.0</ele><time>2026-04-26T10:40:37.97Z</time></trkpt><trkpt lat="43.253414" lon="11.3624702"><ele>225.0</ele><time>2026-04-26T10:40:38.977Z</time></trkpt><trkpt lat="43.2532719" lon="11.3625197"><ele>225.0</ele><time>2026-04-26T10:40:39.986Z</time></trkpt><trkpt lat="43.2531309" lon="11.3625797"><ele>225.0</ele><time>2026-04-26T10:40:40.975Z</time></trkpt><trkpt lat="43.2529896" lon="11.3626481"><ele>225.0</ele><time>2026-04-26T10:40:41.975Z</time></trkpt><trkpt lat="43.2528499" lon="11.3627209"><ele>225.75</ele><time>2026-04-26T10:40:42.986Z</time></trkpt><trkpt lat="43.2527188" lon="11.3627968"><ele>226.5</ele><time>2026-04-26T10:40:43.973Z</time></trkpt><trkpt lat="43.2525963" lon="11.3628747"><ele>227.25</ele><time>2026-04-26T10:40:44.991Z</time></trkpt><trkpt lat="43.2524845" lon="11.3629561"><ele>228.0</ele><time>2026-04-26T10:40:45.977Z</time></trkpt><trkpt lat="43.2523786" lon="11.3630508"><ele>229.25</ele><time>2026-04-26T10:40:46.99Z</time></trkpt><trkpt lat="43.2522762" lon="11.3631599"><ele>230.5</ele><time>2026-04-26T10:40:47.983Z</time></trkpt><trkpt lat="43.2521735" lon="11.3632751"><ele>231.75</ele><time>2026-04-26T10:40:49.004Z</time></trkpt><trkpt lat="43.2520741" lon="11.3633802"><ele>233.0</ele><time>2026-04-26T10:40:49.972Z</time></trkpt><trkpt lat="43.2519736" lon="11.3634725"><ele>233.0</ele><time>2026-04-26T10:40:50.98Z</time></trkpt><trkpt lat="43.2518708" lon="11.3635441"><ele>233.0</ele><time>2026-04-26T10:40:51.97Z</time></trkpt><trkpt lat="43.2517536" lon="11.363594"><ele>233.0</ele><time>2026-04-26T10:40:52.992Z</time></trkpt><trkpt lat="43.2516155" lon="11.3636194"><ele>233.0</ele><time>2026-04-26T10:40:53.987Z</time></trkpt><trkpt lat="43.2514606" lon="11.3636133"><ele>230.33333333333334</ele><time>2026-04-26T10:40:54.989Z</time></trkpt><trkpt lat="43.2512967" lon="11.3635745"><ele>227.66666666666669</ele><time>2026-04-26T10:40:55.975Z</time></trkpt><trkpt lat="43.251121" lon="11.3635073"><ele>225.0</ele><time>2026-04-26T10:40:56.977Z</time></trkpt><trkpt lat="43.2509405" lon="11.3634294"><ele>225.0</ele><time>2026-04-26T10:40:57.987Z</time></trkpt><trkpt lat="43.2507611" lon="11.3633593"><ele>225.0</ele><time>2026-04-26T10:40:58.976Z</time></trkpt><trkpt lat="43.2505825" lon="11.3633024"><ele>225.0</ele><time>2026-04-26T10:40:59.959Z</time></trkpt><trkpt lat="43.2504054" lon="11.3632575"><ele>224.33333333333331</ele><time>2026-04-26T10:41:00.983Z</time></trkpt><trkpt lat="43.2502358" lon="11.3632145"><ele>223.66666666666666</ele><time>2026-04-26T10:41:01.958Z</time></trkpt><trkpt lat="43.2500765" lon="11.3631687"><ele>223.0</ele><time>2026-04-26T10:41:02.983Z</time></trkpt><trkpt lat="43.2499324" lon="11.3631253"><ele>223.0</ele><time>2026-04-26T10:41:03.968Z</time></trkpt><trkpt lat="43.2497973" lon="11.3630926"><ele>223.0</ele><time>2026-04-26T10:41:04.975Z</time></trkpt><trkpt lat="43.249673" lon="11.363078"><ele>223.0</ele><time>2026-04-26T10:41:05.98Z</time></trkpt><trkpt lat="43.2495616" lon="11.3630797"><ele>223.0</ele><time>2026-04-26T10:41:06.988Z</time></trkpt><trkpt lat="43.2494642" lon="11.3630961"><ele>223.83333333333331</ele><time>2026-04-26T10:41:07.973Z</time></trkpt><trkpt lat="43.2493772" lon="11.3631243"><ele>224.66666666666666</ele><time>2026-04-26T10:41:08.977Z</time></trkpt><trkpt lat="43.2493009" lon="11.3631638"><ele>225.5</ele><time>2026-04-26T10:41:09.966Z</time></trkpt><trkpt lat="43.2492345" lon="11.3632117"><ele>226.33333333333331</ele><time>2026-04-26T10:41:10.995Z</time></trkpt><trkpt lat="43.2491803" lon="11.3632577"><ele>227.16666666666666</ele><time>2026-04-26T10:41:11.975Z</time></trkpt><trkpt lat="43.2490889" lon="11.3633535"><ele>228.0</ele><time>2026-04-26T10:41:13.964Z</time></trkpt><trkpt lat="43.2490163" lon="11.363446"><ele>228.0</ele><time>2026-04-26T10:41:15.972Z</time></trkpt><trkpt lat="43.2489444" lon="11.3635389"><ele>228.0</ele><time>2026-04-26T10:41:17.987Z</time></trkpt><trkpt lat="43.2488718" lon="11.3636428"><ele>228.0</ele><time>2026-04-26T10:41:19.975Z</time></trkpt><trkpt lat="43.2488049" lon="11.3637558"><ele>228.0</ele><time>2026-04-26T10:41:21.965Z</time></trkpt><trkpt lat="43.2487173" lon="11.3638683"><ele>228.0</ele><time>2026-04-26T10:41:23.96Z</time></trkpt><trkpt lat="43.2486683" lon="11.3639284"><ele>227.8</ele><time>2026-04-26T10:41:24.964Z</time></trkpt><trkpt lat="43.248615" lon="11.3640003"><ele>227.60000000000002</ele><time>2026-04-26T10:41:25.971Z</time></trkpt><trkpt lat="43.2485557" lon="11.3640833"><ele>227.39999999999998</ele><time>2026-04-26T10:41:26.978Z</time></trkpt><trkpt lat="43.2484859" lon="11.3641746"><ele>227.2</ele><time>2026-04-26T10:41:27.987Z</time></trkpt><trkpt lat="43.2484134" lon="11.3642714"><ele>227.0</ele><time>2026-04-26T10:41:28.976Z</time></trkpt><trkpt lat="43.2483515" lon="11.3643804"><ele>227.0</ele><time>2026-04-26T10:41:29.979Z</time></trkpt><trkpt lat="43.2483093" lon="11.3645096"><ele>227.0</ele><time>2026-04-26T10:41:30.98Z</time></trkpt><trkpt lat="43.2482845" lon="11.364671"><ele>227.0</ele><time>2026-04-26T10:41:31.968Z</time></trkpt><trkpt lat="43.2482743" lon="11.3648598"><ele>227.0</ele><time>2026-04-26T10:41:32.981Z</time></trkpt><trkpt lat="43.2482702" lon="11.3650378"><ele>226.5</ele><time>2026-04-26T10:41:33.99Z</time></trkpt><trkpt lat="43.2482554" lon="11.3651967"><ele>226.0</ele><time>2026-04-26T10:41:34.971Z</time></trkpt><trkpt lat="43.2482175" lon="11.3653546"><ele>225.5</ele><time>2026-04-26T10:41:35.985Z</time></trkpt><trkpt lat="43.2481576" lon="11.3655061"><ele>225.0</ele><time>2026-04-26T10:41:37Z</time></trkpt><trkpt lat="43.2480787" lon="11.3656504"><ele>224.33333333333331</ele><time>2026-04-26T10:41:37.983Z</time></trkpt><trkpt lat="43.2479745" lon="11.3657892"><ele>223.66666666666666</ele><time>2026-04-26T10:41:39Z</time></trkpt><trkpt lat="43.2478497" lon="11.3659103"><ele>223.0</ele><time>2026-04-26T10:41:39.977Z</time></trkpt><trkpt lat="43.2477056" lon="11.3660039"><ele>223.0</ele><time>2026-04-26T10:41:40.983Z</time></trkpt><trkpt lat="43.247537" lon="11.3660676"><ele>223.0</ele><time>2026-04-26T10:41:41.985Z</time></trkpt><trkpt lat="43.247343" lon="11.3661138"><ele>223.0</ele><time>2026-04-26T10:41:43.009Z</time></trkpt><trkpt lat="43.247145" lon="11.3661611"><ele>223.0</ele><time>2026-04-26T10:41:43.975Z</time></trkpt><trkpt lat="43.2469434" lon="11.3662243"><ele>223.0</ele><time>2026-04-26T10:41:44.984Z</time></trkpt><trkpt lat="43.2467573" lon="11.3662956"><ele>223.0</ele><time>2026-04-26T10:41:45.97Z</time></trkpt><trkpt lat="43.2465892" lon="11.3663671"><ele>223.25</ele><time>2026-04-26T10:41:46.976Z</time></trkpt><trkpt lat="43.2464426" lon="11.3664438"><ele>223.5</ele><time>2026-04-26T10:41:47.963Z</time></trkpt><trkpt lat="43.2463114" lon="11.3665322"><ele>223.75</ele><time>2026-04-26T10:41:48.984Z</time></trkpt><trkpt lat="43.2461898" lon="11.3666393"><ele>224.0</ele><time>2026-04-26T10:41:49.964Z</time></trkpt><trkpt lat="43.2460565" lon="11.3667803"><ele>224.0</ele><time>2026-04-26T10:41:50.978Z</time></trkpt><trkpt lat="43.2459146" lon="11.3669381"><ele>224.0</ele><time>2026-04-26T10:41:51.972Z</time></trkpt><trkpt lat="43.245771" lon="11.3670839"><ele>224.0</ele><time>2026-04-26T10:41:52.977Z</time></trkpt><trkpt lat="43.2456208" lon="11.3672098"><ele>222.66666666666669</ele><time>2026-04-26T10:41:53.979Z</time></trkpt><trkpt lat="43.2454607" lon="11.3673176"><ele>221.33333333333331</ele><time>2026-04-26T10:41:54.988Z</time></trkpt><trkpt lat="43.2452916" lon="11.3674053"><ele>220.0</ele><time>2026-04-26T10:41:55.984Z</time></trkpt><trkpt lat="43.2451131" lon="11.3674741"><ele>220.0</ele><time>2026-04-26T10:41:56.992Z</time></trkpt><trkpt lat="43.2449323" lon="11.3675326"><ele>220.0</ele><time>2026-04-26T10:41:58.008Z</time></trkpt><trkpt lat="43.2447576" lon="11.3675875"><ele>220.0</ele><time>2026-04-26T10:41:58.996Z</time></trkpt><trkpt lat="43.2445822" lon="11.3676425"><ele>221.0</ele><time>2026-04-26T10:42:00.005Z</time></trkpt><trkpt lat="43.2444087" lon="11.3676954"><ele>222.0</ele><time>2026-04-26T10:42:01.022Z</time></trkpt><trkpt lat="43.2442414" lon="11.3677474"><ele>223.0</ele><time>2026-04-26T10:42:01.988Z</time></trkpt><trkpt lat="43.244081" lon="11.3677989"><ele>223.75</ele><time>2026-04-26T10:42:02.985Z</time></trkpt><trkpt lat="43.24394" lon="11.3678411"><ele>224.5</ele><time>2026-04-26T10:42:03.997Z</time></trkpt><trkpt lat="43.2438189" lon="11.3678781"><ele>225.25</ele><time>2026-04-26T10:42:04.972Z</time></trkpt><trkpt lat="43.2437014" lon="11.3679139"><ele>226.0</ele><time>2026-04-26T10:42:05.995Z</time></trkpt><trkpt lat="43.2435783" lon="11.3679479"><ele>226.0</ele><time>2026-04-26T10:42:06.979Z</time></trkpt><trkpt lat="43.2434499" lon="11.3679776"><ele>226.0</ele><time>2026-04-26T10:42:07.986Z</time></trkpt><trkpt lat="43.2433275" lon="11.3680045"><ele>226.0</ele><time>2026-04-26T10:42:08.988Z</time></trkpt><trkpt lat="43.2432077" lon="11.3680344"><ele>226.0</ele><time>2026-04-26T10:42:09.979Z</time></trkpt><trkpt lat="43.2430888" lon="11.3680701"><ele>225.0</ele><time>2026-04-26T10:42:10.978Z</time></trkpt><trkpt lat="43.242977" lon="11.3681131"><ele>224.0</ele><time>2026-04-26T10:42:11.969Z</time></trkpt><trkpt lat="43.2428716" lon="11.3681639"><ele>223.0</ele><time>2026-04-26T10:42:12.978Z</time></trkpt><trkpt lat="43.2427706" lon="11.3682258"><ele>222.0</ele><time>2026-04-26T10:42:13.96Z</time></trkpt><trkpt lat="43.2426645" lon="11.368307"><ele>222.0</ele><time>2026-04-26T10:42:14.973Z</time></trkpt><trkpt lat="43.2425531" lon="11.3684124"><ele>222.0</ele><time>2026-04-26T10:42:15.982Z</time></trkpt><trkpt lat="43.2424363" lon="11.3685452"><ele>222.0</ele><time>2026-04-26T10:42:16.966Z</time></trkpt><trkpt lat="43.2423134" lon="11.3687002"><ele>221.33333333333331</ele><time>2026-04-26T10:42:17.976Z</time></trkpt><trkpt lat="43.2421883" lon="11.3688644"><ele>220.66666666666666</ele><time>2026-04-26T10:42:18.986Z</time></trkpt><trkpt lat="43.2420678" lon="11.3690253"><ele>220.0</ele><time>2026-04-26T10:42:19.967Z</time></trkpt><trkpt lat="43.241956" lon="11.3691753"><ele>220.0</ele><time>2026-04-26T10:42:20.987Z</time></trkpt><trkpt lat="43.241851" lon="11.3693144"><ele>220.0</ele><time>2026-04-26T10:42:21.975Z</time></trkpt><trkpt lat="43.2417415" lon="11.3694545"><ele>220.0</ele><time>2026-04-26T10:42:22.985Z</time></trkpt><trkpt lat="43.2416275" lon="11.3695955"><ele>220.0</ele><time>2026-04-26T10:42:23.975Z</time></trkpt><trkpt lat="43.2415059" lon="11.3697393"><ele>218.33333333333331</ele><time>2026-04-26T10:42:24.985Z</time></trkpt><trkpt lat="43.2413768" lon="11.3698802"><ele>216.66666666666669</ele><time>2026-04-26T10:42:25.968Z</time></trkpt><trkpt lat="43.2412338" lon="11.3700193"><ele>215.0</ele><time>2026-04-26T10:42:26.981Z</time></trkpt><trkpt lat="43.2410888" lon="11.370149"><ele>215.0</ele><time>2026-04-26T10:42:27.973Z</time></trkpt><trkpt lat="43.2409532" lon="11.3702671"><ele>215.0</ele><time>2026-04-26T10:42:28.987Z</time></trkpt><trkpt lat="43.2408292" lon="11.3703744"><ele>215.0</ele><time>2026-04-26T10:42:29.99Z</time></trkpt><trkpt lat="43.240718" lon="11.3704783"><ele>215.0</ele><time>2026-04-26T10:42:30.981Z</time></trkpt><trkpt lat="43.2406142" lon="11.3705897"><ele>215.66666666666669</ele><time>2026-04-26T10:42:31.976Z</time></trkpt><trkpt lat="43.240511" lon="11.3707225"><ele>216.33333333333331</ele><time>2026-04-26T10:42:32.994Z</time></trkpt><trkpt lat="43.2404095" lon="11.3708724"><ele>217.0</ele><time>2026-04-26T10:42:33.976Z</time></trkpt><trkpt lat="43.240305" lon="11.371042"><ele>217.0</ele><time>2026-04-26T10:42:34.98Z</time></trkpt><trkpt lat="43.2401975" lon="11.3712254"><ele>217.0</ele><time>2026-04-26T10:42:35.956Z</time></trkpt><trkpt lat="43.2400871" lon="11.3714235"><ele>217.0</ele><time>2026-04-26T10:42:36.976Z</time></trkpt><trkpt lat="43.2399848" lon="11.3716194"><ele>216.0</ele><time>2026-04-26T10:42:37.961Z</time></trkpt><trkpt lat="43.2398912" lon="11.3718076"><ele>215.0</ele><time>2026-04-26T10:42:38.969Z</time></trkpt><trkpt lat="43.2398078" lon="11.3719848"><ele>214.0</ele><time>2026-04-26T10:42:39.976Z</time></trkpt><trkpt lat="43.2397366" lon="11.3721378"><ele>213.83333333333331</ele><time>2026-04-26T10:42:40.976Z</time></trkpt><trkpt lat="43.2396794" lon="11.3722578"><ele>213.66666666666666</ele><time>2026-04-26T10:42:41.98Z</time></trkpt><trkpt lat="43.2396362" lon="11.3723462"><ele>213.5</ele><time>2026-04-26T10:42:42.987Z</time></trkpt><trkpt lat="43.2395788" lon="11.3724587"><ele>213.33333333333331</ele><time>2026-04-26T10:42:44.996Z</time></trkpt><trkpt lat="43.2395289" lon="11.3725422"><ele>213.16666666666666</ele><time>2026-04-26T10:42:46.989Z</time></trkpt><trkpt lat="43.2394605" lon="11.3726148"><ele>213.0</ele><time>2026-04-26T10:42:48.979Z</time></trkpt><trkpt lat="43.2393332" lon="11.3726808"><ele>213.0</ele><time>2026-04-26T10:42:50.995Z</time></trkpt><trkpt lat="43.2392388" lon="11.3726973"><ele>213.0</ele><time>2026-04-26T10:42:51.996Z</time></trkpt><trkpt lat="43.2391264" lon="11.372703"><ele>213.0</ele><time>2026-04-26T10:42:52.988Z</time></trkpt><trkpt lat="43.2390055" lon="11.3727006"><ele>213.0</ele><time>2026-04-26T10:42:53.984Z</time></trkpt><trkpt lat="43.2388866" lon="11.3727031"><ele>213.0</ele><time>2026-04-26T10:42:54.99Z</time></trkpt><trkpt lat="43.2387717" lon="11.3727247"><ele>213.0</ele><time>2026-04-26T10:42:55.978Z</time></trkpt><trkpt lat="43.2386466" lon="11.3727735"><ele>213.0</ele><time>2026-04-26T10:42:56.993Z</time></trkpt><trkpt lat="43.2385262" lon="11.3728407"><ele>213.0</ele><time>2026-04-26T10:42:57.984Z</time></trkpt><trkpt lat="43.2384236" lon="11.3729137"><ele>213.0</ele><time>2026-04-26T10:42:58.986Z</time></trkpt><trkpt lat="43.2383417" lon="11.3729905"><ele>211.4</ele><time>2026-04-26T10:42:59.972Z</time></trkpt><trkpt lat="43.2382791" lon="11.3730737"><ele>209.8</ele><time>2026-04-26T10:43:00.989Z</time></trkpt><trkpt lat="43.2382384" lon="11.3731694"><ele>208.2</ele><time>2026-04-26T10:43:01.961Z</time></trkpt><trkpt lat="43.2382184" lon="11.3732853"><ele>206.6</ele><time>2026-04-26T10:43:02.97Z</time></trkpt><trkpt lat="43.2382153" lon="11.3734283"><ele>205.0</ele><time>2026-04-26T10:43:03.976Z</time></trkpt><trkpt lat="43.2382244" lon="11.3736017"><ele>205.0</ele><time>2026-04-26T10:43:04.982Z</time></trkpt><trkpt lat="43.2382396" lon="11.3737933"><ele>205.0</ele><time>2026-04-26T10:43:05.97Z</time></trkpt><trkpt lat="43.2382562" lon="11.3740016"><ele>205.0</ele><time>2026-04-26T10:43:07.001Z</time></trkpt><trkpt lat="43.2382697" lon="11.3742006"><ele>205.0</ele><time>2026-04-26T10:43:07.976Z</time></trkpt><trkpt lat="43.238282" lon="11.3743808"><ele>204.8</ele><time>2026-04-26T10:43:08.991Z</time></trkpt><trkpt lat="43.23829" lon="11.3745378"><ele>204.6</ele><time>2026-04-26T10:43:09.971Z</time></trkpt><trkpt lat="43.2382891" lon="11.3746827"><ele>204.39999999999998</ele><time>2026-04-26T10:43:10.985Z</time></trkpt><trkpt lat="43.2382777" lon="11.374815"><ele>204.2</ele><time>2026-04-26T10:43:11.986Z</time></trkpt><trkpt lat="43.2382526" lon="11.3749341"><ele>204.0</ele><time>2026-04-26T10:43:13.003Z</time></trkpt><trkpt lat="43.2382105" lon="11.3750355"><ele>204.0</ele><time>2026-04-26T10:43:13.991Z</time></trkpt><trkpt lat="43.2381443" lon="11.3751313"><ele>204.0</ele><time>2026-04-26T10:43:14.996Z</time></trkpt><trkpt lat="43.2380463" lon="11.3752336"><ele>204.0</ele><time>2026-04-26T10:43:15.979Z</time></trkpt><trkpt lat="43.2379162" lon="11.3753469"><ele>204.0</ele><time>2026-04-26T10:43:16.999Z</time></trkpt><trkpt lat="43.2377712" lon="11.3754739"><ele>202.33333333333331</ele><time>2026-04-26T10:43:17.987Z</time></trkpt><trkpt lat="43.2376249" lon="11.3756187"><ele>200.66666666666666</ele><time>2026-04-26T10:43:18.994Z</time></trkpt><trkpt lat="43.2374901" lon="11.3757653"><ele>199.0</ele><time>2026-04-26T10:43:19.979Z</time></trkpt><trkpt lat="43.2373658" lon="11.3759039"><ele>198.25</ele><time>2026-04-26T10:43:20.993Z</time></trkpt><trkpt lat="43.2372522" lon="11.3760322"><ele>197.5</ele><time>2026-04-26T10:43:21.985Z</time></trkpt><trkpt lat="43.2371491" lon="11.3761471"><ele>196.75</ele><time>2026-04-26T10:43:22.985Z</time></trkpt><trkpt lat="43.237058" lon="11.3762399"><ele>196.0</ele><time>2026-04-26T10:43:23.991Z</time></trkpt><trkpt lat="43.2369677" lon="11.3763081"><ele>196.0</ele><time>2026-04-26T10:43:24.982Z</time></trkpt><trkpt lat="43.236865" lon="11.3763531"><ele>196.0</ele><time>2026-04-26T10:43:25.969Z</time></trkpt><trkpt lat="43.2367612" lon="11.376373"><ele>196.0</ele><time>2026-04-26T10:43:26.984Z</time></trkpt><trkpt lat="43.2366713" lon="11.3763703"><ele>196.0</ele><time>2026-04-26T10:43:27.972Z</time></trkpt><trkpt lat="43.2365903" lon="11.3763546"><ele>196.0</ele><time>2026-04-26T10:43:28.98Z</time></trkpt><trkpt lat="43.2365153" lon="11.3763282"><ele>194.0</ele><time>2026-04-26T10:43:29.988Z</time></trkpt><trkpt lat="43.2364456" lon="11.3762863"><ele>192.0</ele><time>2026-04-26T10:43:30.999Z</time></trkpt><trkpt lat="43.2363774" lon="11.3762226"><ele>190.0</ele><time>2026-04-26T10:43:31.986Z</time></trkpt><trkpt lat="43.2363106" lon="11.3761286"><ele>188.0</ele><time>2026-04-26T10:43:32.992Z</time></trkpt><trkpt lat="43.2362536" lon="11.3759977"><ele>186.0</ele><time>2026-04-26T10:43:33.987Z</time></trkpt><trkpt lat="43.2362121" lon="11.3758296"><ele>186.0</ele><time>2026-04-26T10:43:34.988Z</time></trkpt><trkpt lat="43.2361936" lon="11.3756495"><ele>186.0</ele><time>2026-04-26T10:43:35.983Z</time></trkpt><trkpt lat="43.2361975" lon="11.3754756"><ele>186.0</ele><time>2026-04-26T10:43:36.996Z</time></trkpt><trkpt lat="43.2362218" lon="11.3753072"><ele>186.0</ele><time>2026-04-26T10:43:37.987Z</time></trkpt><trkpt lat="43.236277" lon="11.3751328"><ele>184.66666666666666</ele><time>2026-04-26T10:43:38.99Z</time></trkpt><trkpt lat="43.2363599" lon="11.3749386"><ele>183.33333333333331</ele><time>2026-04-26T10:43:39.994Z</time></trkpt><trkpt lat="43.2364397" lon="11.3747244"><ele>182.0</ele><time>2026-04-26T10:43:40.986Z</time></trkpt><trkpt lat="43.2364957" lon="11.3745061"><ele>183.25</ele><time>2026-04-26T10:43:41.998Z</time></trkpt><trkpt lat="43.2365291" lon="11.3743093"><ele>184.5</ele><time>2026-04-26T10:43:43.003Z</time></trkpt><trkpt lat="43.2365492" lon="11.3741361"><ele>185.75</ele><time>2026-04-26T10:43:44.008Z</time></trkpt><trkpt lat="43.2365536" lon="11.3739691"><ele>187.0</ele><time>2026-04-26T10:43:45.018Z</time></trkpt><trkpt lat="43.2365341" lon="11.3738128"><ele>187.0</ele><time>2026-04-26T10:43:45.989Z</time></trkpt><trkpt lat="43.2364914" lon="11.3736762"><ele>187.0</ele><time>2026-04-26T10:43:46.998Z</time></trkpt><trkpt lat="43.2364267" lon="11.3735643"><ele>187.0</ele><time>2026-04-26T10:43:47.97Z</time></trkpt><trkpt lat="43.2363373" lon="11.3734768"><ele>187.0</ele><time>2026-04-26T10:43:48.975Z</time></trkpt><trkpt lat="43.2362256" lon="11.3734249"><ele>187.0</ele><time>2026-04-26T10:43:49.956Z</time></trkpt><trkpt lat="43.2360928" lon="11.3734069"><ele>185.33333333333334</ele><time>2026-04-26T10:43:50.971Z</time></trkpt><trkpt lat="43.2359402" lon="11.3734156"><ele>183.66666666666666</ele><time>2026-04-26T10:43:51.961Z</time></trkpt><trkpt lat="43.2357559" lon="11.3734366"><ele>182.0</ele><time>2026-04-26T10:43:52.963Z</time></trkpt><trkpt lat="43.2355438" lon="11.3734631"><ele>179.5</ele><time>2026-04-26T10:43:53.979Z</time></trkpt><trkpt lat="43.235315" lon="11.373487"><ele>177.0</ele><time>2026-04-26T10:43:54.987Z</time></trkpt><trkpt lat="43.2350699" lon="11.3735087"><ele>177.0</ele><time>2026-04-26T10:43:55.969Z</time></trkpt><trkpt lat="43.2348115" lon="11.3735323"><ele>177.0</ele><time>2026-04-26T10:43:56.976Z</time></trkpt><trkpt lat="43.2345701" lon="11.3735524"><ele>177.33333333333334</ele><time>2026-04-26T10:43:57.965Z</time></trkpt><trkpt lat="43.2343545" lon="11.3735681"><ele>177.66666666666669</ele><time>2026-04-26T10:43:58.973Z</time></trkpt><trkpt lat="43.2341645" lon="11.3735798"><ele>178.0</ele><time>2026-04-26T10:43:59.974Z</time></trkpt><trkpt lat="43.2339918" lon="11.3735922"><ele>178.33333333333334</ele><time>2026-04-26T10:44:00.969Z</time></trkpt><trkpt lat="43.2338349" lon="11.3736166"><ele>178.66666666666666</ele><time>2026-04-26T10:44:01.977Z</time></trkpt><trkpt lat="43.2336799" lon="11.3736709"><ele>179.0</ele><time>2026-04-26T10:44:02.983Z</time></trkpt><trkpt lat="43.2335122" lon="11.3737637"><ele>179.0</ele><time>2026-04-26T10:44:03.971Z</time></trkpt><trkpt lat="43.2333287" lon="11.3738876"><ele>179.0</ele><time>2026-04-26T10:44:04.976Z</time></trkpt><trkpt lat="43.2331327" lon="11.3740267"><ele>179.0</ele><time>2026-04-26T10:44:05.974Z</time></trkpt><trkpt lat="43.2329179" lon="11.3741822"><ele>179.0</ele><time>2026-04-26T10:44:06.977Z</time></trkpt><trkpt lat="43.2326812" lon="11.3743503"><ele>179.0</ele><time>2026-04-26T10:44:07.958Z</time></trkpt><trkpt lat="43.2324185" lon="11.3745323"><ele>179.0</ele><time>2026-04-26T10:44:08.979Z</time></trkpt><trkpt lat="43.2321437" lon="11.3747226"><ele>179.0</ele><time>2026-04-26T10:44:09.995Z</time></trkpt><trkpt lat="43.2318748" lon="11.3749165"><ele>179.0</ele><time>2026-04-26T10:44:10.968Z</time></trkpt><trkpt lat="43.2316034" lon="11.3751105"><ele>179.0</ele><time>2026-04-26T10:44:11.971Z</time></trkpt><trkpt lat="43.2313381" lon="11.3752973"><ele>179.0</ele><time>2026-04-26T10:44:12.979Z</time></trkpt><trkpt lat="43.2310903" lon="11.3754717"><ele>179.0</ele><time>2026-04-26T10:44:13.971Z</time></trkpt><trkpt lat="43.2308555" lon="11.3756376"><ele>181.5</ele><time>2026-04-26T10:44:14.973Z</time></trkpt><trkpt lat="43.2306379" lon="11.3757924"><ele>184.0</ele><time>2026-04-26T10:44:15.965Z</time></trkpt><trkpt lat="43.2304341" lon="11.3759388"><ele>184.0</ele><time>2026-04-26T10:44:16.963Z</time></trkpt><trkpt lat="43.2302376" lon="11.3760833"><ele>184.0</ele><time>2026-04-26T10:44:17.999Z</time></trkpt><trkpt lat="43.2300466" lon="11.3762267"><ele>184.0</ele><time>2026-04-26T10:44:18.999Z</time></trkpt><trkpt lat="43.2298576" lon="11.3763704"><ele>184.66666666666669</ele><time>2026-04-26T10:44:19.971Z</time></trkpt><trkpt lat="43.2296741" lon="11.3765171"><ele>185.33333333333334</ele><time>2026-04-26T10:44:20.982Z</time></trkpt><trkpt lat="43.2295094" lon="11.3766536"><ele>186.0</ele><time>2026-04-26T10:44:21.969Z</time></trkpt><trkpt lat="43.2293576" lon="11.3767835"><ele>186.0</ele><time>2026-04-26T10:44:22.979Z</time></trkpt><trkpt lat="43.2292142" lon="11.3769019"><ele>186.0</ele><time>2026-04-26T10:44:23.959Z</time></trkpt><trkpt lat="43.2290668" lon="11.3770108"><ele>186.0</ele><time>2026-04-26T10:44:24.974Z</time></trkpt><trkpt lat="43.2289206" lon="11.3770997"><ele>187.33333333333334</ele><time>2026-04-26T10:44:25.957Z</time></trkpt><trkpt lat="43.2287721" lon="11.3771732"><ele>188.66666666666669</ele><time>2026-04-26T10:44:26.966Z</time></trkpt><trkpt lat="43.2286138" lon="11.3772295"><ele>190.0</ele><time>2026-04-26T10:44:27.964Z</time></trkpt><trkpt lat="43.228436" lon="11.3772647"><ele>186.0</ele><time>2026-04-26T10:44:28.968Z</time></trkpt><trkpt lat="43.2282434" lon="11.3772837"><ele>182.0</ele><time>2026-04-26T10:44:29.975Z</time></trkpt><trkpt lat="43.2280525" lon="11.3772958"><ele>178.0</ele><time>2026-04-26T10:44:30.964Z</time></trkpt><trkpt lat="43.2278682" lon="11.3773092"><ele>178.0</ele><time>2026-04-26T10:44:31.965Z</time></trkpt><trkpt lat="43.2276908" lon="11.3773178"><ele>178.0</ele><time>2026-04-26T10:44:32.959Z</time></trkpt><trkpt lat="43.2275213" lon="11.3773104"><ele>178.0</ele><time>2026-04-26T10:44:33.973Z</time></trkpt><trkpt lat="43.2273618" lon="11.3772845"><ele>177.66666666666669</ele><time>2026-04-26T10:44:34.955Z</time></trkpt><trkpt lat="43.2272021" lon="11.3772363"><ele>177.33333333333334</ele><time>2026-04-26T10:44:35.967Z</time></trkpt><trkpt lat="43.227038" lon="11.3771653"><ele>177.0</ele><time>2026-04-26T10:44:36.966Z</time></trkpt><trkpt lat="43.2268726" lon="11.377061"><ele>177.0</ele><time>2026-04-26T10:44:37.958Z</time></trkpt><trkpt lat="43.2267088" lon="11.3769298"><ele>177.0</ele><time>2026-04-26T10:44:38.959Z</time></trkpt><trkpt lat="43.2265586" lon="11.3767827"><ele>177.0</ele><time>2026-04-26T10:44:39.96Z</time></trkpt><trkpt lat="43.2264314" lon="11.3766328"><ele>177.0</ele><time>2026-04-26T10:44:40.948Z</time></trkpt><trkpt lat="43.226323" lon="11.376474"><ele>177.0</ele><time>2026-04-26T10:44:41.961Z</time></trkpt><trkpt lat="43.2262307" lon="11.3763019"><ele>177.0</ele><time>2026-04-26T10:44:42.974Z</time></trkpt><trkpt lat="43.2261542" lon="11.3761097"><ele>177.33333333333334</ele><time>2026-04-26T10:44:43.995Z</time></trkpt><trkpt lat="43.2260933" lon="11.3759038"><ele>177.66666666666669</ele><time>2026-04-26T10:44:45.007Z</time></trkpt><trkpt lat="43.2260501" lon="11.3757015"><ele>178.0</ele><time>2026-04-26T10:44:45.981Z</time></trkpt><trkpt lat="43.2260257" lon="11.3755079"><ele>178.0</ele><time>2026-04-26T10:44:46.972Z</time></trkpt><trkpt lat="43.2260204" lon="11.3753007"><ele>178.0</ele><time>2026-04-26T10:44:47.981Z</time></trkpt><trkpt lat="43.2260357" lon="11.375063"><ele>178.0</ele><time>2026-04-26T10:44:48.984Z</time></trkpt><trkpt lat="43.2260639" lon="11.3748036"><ele>177.66666666666669</ele><time>2026-04-26T10:44:49.984Z</time></trkpt><trkpt lat="43.2260947" lon="11.374545"><ele>177.33333333333334</ele><time>2026-04-26T10:44:50.986Z</time></trkpt><trkpt lat="43.2261188" lon="11.37431"><ele>177.0</ele><time>2026-04-26T10:44:51.99Z</time></trkpt><trkpt lat="43.2261315" lon="11.3740949"><ele>177.0</ele><time>2026-04-26T10:44:52.972Z</time></trkpt><trkpt lat="43.2261323" lon="11.3738908"><ele>177.0</ele><time>2026-04-26T10:44:53.984Z</time></trkpt><trkpt lat="43.226117" lon="11.3736936"><ele>177.0</ele><time>2026-04-26T10:44:54.997Z</time></trkpt><trkpt lat="43.2260834" lon="11.3734987"><ele>177.0</ele><time>2026-04-26T10:44:55.979Z</time></trkpt><trkpt lat="43.226032" lon="11.3732969"><ele>177.33333333333334</ele><time>2026-04-26T10:44:56.988Z</time></trkpt><trkpt lat="43.2259695" lon="11.3730924"><ele>177.66666666666669</ele><time>2026-04-26T10:44:57.978Z</time></trkpt><trkpt lat="43.2259045" lon="11.3728919"><ele>178.0</ele><time>2026-04-26T10:44:58.979Z</time></trkpt><trkpt lat="43.2258442" lon="11.3727074"><ele>178.60000000000002</ele><time>2026-04-26T10:44:59.981Z</time></trkpt><trkpt lat="43.2257913" lon="11.3725456"><ele>179.20000000000002</ele><time>2026-04-26T10:45:00.984Z</time></trkpt><trkpt lat="43.2257457" lon="11.372415"><ele>179.8</ele><time>2026-04-26T10:45:01.969Z</time></trkpt><trkpt lat="43.2257014" lon="11.3723096"><ele>180.4</ele><time>2026-04-26T10:45:02.978Z</time></trkpt><trkpt lat="43.2256524" lon="11.372229"><ele>181.0</ele><time>2026-04-26T10:45:03.964Z</time></trkpt><trkpt lat="43.2255946" lon="11.3721755"><ele>181.0</ele><time>2026-04-26T10:45:04.96Z</time></trkpt><trkpt lat="43.2255276" lon="11.3721524"><ele>181.0</ele><time>2026-04-26T10:45:05.963Z</time></trkpt><trkpt lat="43.2254538" lon="11.3721619"><ele>181.0</ele><time>2026-04-26T10:45:06.974Z</time></trkpt><trkpt lat="43.2253863" lon="11.3722047"><ele>181.0</ele><time>2026-04-26T10:45:07.96Z</time></trkpt><trkpt lat="43.2253314" lon="11.3722791"><ele>181.0</ele><time>2026-04-26T10:45:08.97Z</time></trkpt><trkpt lat="43.2252795" lon="11.3723889"><ele>181.0</ele><time>2026-04-26T10:45:09.976Z</time></trkpt><trkpt lat="43.2252263" lon="11.3725257"><ele>180.75</ele><time>2026-04-26T10:45:10.96Z</time></trkpt><trkpt lat="43.2251722" lon="11.3726764"><ele>180.5</ele><time>2026-04-26T10:45:11.97Z</time></trkpt><trkpt lat="43.2251139" lon="11.3728324"><ele>180.25</ele><time>2026-04-26T10:45:12.965Z</time></trkpt><trkpt lat="43.2250453" lon="11.3729968"><ele>180.0</ele><time>2026-04-26T10:45:13.985Z</time></trkpt><trkpt lat="43.2249686" lon="11.3731527"><ele>180.0</ele><time>2026-04-26T10:45:15.001Z</time></trkpt><trkpt lat="43.2248883" lon="11.3732687"><ele>180.0</ele><time>2026-04-26T10:45:15.989Z</time></trkpt><trkpt lat="43.2247994" lon="11.3733576"><ele>180.0</ele><time>2026-04-26T10:45:16.97Z</time></trkpt><trkpt lat="43.2246969" lon="11.3734308"><ele>180.0</ele><time>2026-04-26T10:45:17.961Z</time></trkpt><trkpt lat="43.2245852" lon="11.3734852"><ele>182.0</ele><time>2026-04-26T10:45:18.993Z</time></trkpt><trkpt lat="43.2244707" lon="11.3735145"><ele>184.0</ele><time>2026-04-26T10:45:19.973Z</time></trkpt><trkpt lat="43.2243524" lon="11.3735232"><ele>186.0</ele><time>2026-04-26T10:45:20.987Z</time></trkpt><trkpt lat="43.2242373" lon="11.3735083"><ele>188.0</ele><time>2026-04-26T10:45:21.979Z</time></trkpt><trkpt lat="43.2241229" lon="11.3734688"><ele>188.0</ele><time>2026-04-26T10:45:22.975Z</time></trkpt><trkpt lat="43.2240055" lon="11.3734022"><ele>188.0</ele><time>2026-04-26T10:45:23.98Z</time></trkpt><trkpt lat="43.2238942" lon="11.3733167"><ele>188.0</ele><time>2026-04-26T10:45:24.973Z</time></trkpt><trkpt lat="43.2238022" lon="11.3732179"><ele>188.0</ele><time>2026-04-26T10:45:25.965Z</time></trkpt><trkpt lat="43.2237267" lon="11.3731025"><ele>191.60000000000002</ele><time>2026-04-26T10:45:26.961Z</time></trkpt><trkpt lat="43.2236643" lon="11.372968"><ele>195.20000000000002</ele><time>2026-04-26T10:45:27.962Z</time></trkpt><trkpt lat="43.2236173" lon="11.3728254"><ele>198.8</ele><time>2026-04-26T10:45:28.949Z</time></trkpt><trkpt lat="43.2235924" lon="11.3726929"><ele>202.4</ele><time>2026-04-26T10:45:29.956Z</time></trkpt><trkpt lat="43.2235872" lon="11.3725761"><ele>206.0</ele><time>2026-04-26T10:45:30.949Z</time></trkpt><trkpt lat="43.2235963" lon="11.3724545"><ele>206.0</ele><time>2026-04-26T10:45:31.958Z</time></trkpt><trkpt lat="43.2236184" lon="11.3723139"><ele>206.0</ele><time>2026-04-26T10:45:32.965Z</time></trkpt><trkpt lat="43.2236415" lon="11.3721555"><ele>206.0</ele><time>2026-04-26T10:45:33.97Z</time></trkpt><trkpt lat="43.223652" lon="11.3719991"><ele>206.0</ele><time>2026-04-26T10:45:34.97Z</time></trkpt><trkpt lat="43.2236503" lon="11.3718625"><ele>206.0</ele><time>2026-04-26T10:45:35.965Z</time></trkpt><trkpt lat="43.2236301" lon="11.3717321"><ele>206.0</ele><time>2026-04-26T10:45:36.972Z</time></trkpt><trkpt lat="43.2235887" lon="11.3716015"><ele>206.0</ele><time>2026-04-26T10:45:37.963Z</time></trkpt><trkpt lat="43.2235264" lon="11.3714755"><ele>206.0</ele><time>2026-04-26T10:45:38.967Z</time></trkpt><trkpt lat="43.2234501" lon="11.3713611"><ele>206.0</ele><time>2026-04-26T10:45:39.972Z</time></trkpt><trkpt lat="43.2233678" lon="11.3712685"><ele>206.0</ele><time>2026-04-26T10:45:40.954Z</time></trkpt><trkpt lat="43.2232852" lon="11.3712058"><ele>206.33333333333334</ele><time>2026-04-26T10:45:41.964Z</time></trkpt><trkpt lat="43.2231994" lon="11.3711725"><ele>206.66666666666669</ele><time>2026-04-26T10:45:42.959Z</time></trkpt><trkpt lat="43.2231164" lon="11.3711686"><ele>207.0</ele><time>2026-04-26T10:45:43.967Z</time></trkpt><trkpt lat="43.2230383" lon="11.3711965"><ele>207.33333333333331</ele><time>2026-04-26T10:45:44.977Z</time></trkpt><trkpt lat="43.2229634" lon="11.3712535"><ele>207.66666666666666</ele><time>2026-04-26T10:45:46.013Z</time></trkpt><trkpt lat="43.2228933" lon="11.371336"><ele>208.0</ele><time>2026-04-26T10:45:46.999Z</time></trkpt><trkpt lat="43.2228223" lon="11.371445"><ele>208.0</ele><time>2026-04-26T10:45:47.974Z</time></trkpt><trkpt lat="43.2227464" lon="11.3715834"><ele>208.0</ele><time>2026-04-26T10:45:48.98Z</time></trkpt><trkpt lat="43.2226641" lon="11.3717411"><ele>208.0</ele><time>2026-04-26T10:45:49.97Z</time></trkpt><trkpt lat="43.2225755" lon="11.3719028"><ele>208.0</ele><time>2026-04-26T10:45:50.979Z</time></trkpt><trkpt lat="43.2224832" lon="11.372054"><ele>208.0</ele><time>2026-04-26T10:45:51.988Z</time></trkpt><trkpt lat="43.2223859" lon="11.3721868"><ele>208.0</ele><time>2026-04-26T10:45:52.967Z</time></trkpt><trkpt lat="43.2222821" lon="11.3723078"><ele>208.0</ele><time>2026-04-26T10:45:53.963Z</time></trkpt><trkpt lat="43.2221745" lon="11.3724172"><ele>208.0</ele><time>2026-04-26T10:45:54.987Z</time></trkpt><trkpt lat="43.2220653" lon="11.3725083"><ele>211.25</ele><time>2026-04-26T10:45:55.965Z</time></trkpt><trkpt lat="43.2219475" lon="11.3725795"><ele>214.5</ele><time>2026-04-26T10:45:56.974Z</time></trkpt><trkpt lat="43.2218195" lon="11.3726308"><ele>217.75</ele><time>2026-04-26T10:45:57.983Z</time></trkpt><trkpt lat="43.2216806" lon="11.3726684"><ele>221.0</ele><time>2026-04-26T10:45:58.969Z</time></trkpt><trkpt lat="43.2215352" lon="11.3727004"><ele>222.5</ele><time>2026-04-26T10:45:59.974Z</time></trkpt><trkpt lat="43.221391" lon="11.372735"><ele>224.0</ele><time>2026-04-26T10:46:00.983Z</time></trkpt><trkpt lat="43.2212515" lon="11.3727731"><ele>225.5</ele><time>2026-04-26T10:46:01.968Z</time></trkpt><trkpt lat="43.2211092" lon="11.3728078"><ele>227.0</ele><time>2026-04-26T10:46:02.976Z</time></trkpt><trkpt lat="43.2209643" lon="11.3728347"><ele>227.0</ele><time>2026-04-26T10:46:03.976Z</time></trkpt><trkpt lat="43.2208209" lon="11.3728628"><ele>227.0</ele><time>2026-04-26T10:46:04.959Z</time></trkpt><trkpt lat="43.2206762" lon="11.3728955"><ele>227.0</ele><time>2026-04-26T10:46:05.968Z</time></trkpt><trkpt lat="43.2205323" lon="11.3729263"><ele>227.0</ele><time>2026-04-26T10:46:06.972Z</time></trkpt><trkpt lat="43.2203904" lon="11.3729562"><ele>228.0</ele><time>2026-04-26T10:46:07.974Z</time></trkpt><trkpt lat="43.2202524" lon="11.3729863"><ele>229.0</ele><time>2026-04-26T10:46:08.978Z</time></trkpt><trkpt lat="43.2201181" lon="11.373016"><ele>230.0</ele><time>2026-04-26T10:46:09.963Z</time></trkpt><trkpt lat="43.2199846" lon="11.3730429"><ele>231.0</ele><time>2026-04-26T10:46:10.971Z</time></trkpt><trkpt lat="43.2198575" lon="11.3730692"><ele>233.60000000000002</ele><time>2026-04-26T10:46:11.977Z</time></trkpt><trkpt lat="43.2197446" lon="11.3730877"><ele>236.20000000000002</ele><time>2026-04-26T10:46:12.963Z</time></trkpt><trkpt lat="43.219642" lon="11.3730953"><ele>238.79999999999998</ele><time>2026-04-26T10:46:13.963Z</time></trkpt><trkpt lat="43.2195427" lon="11.3730976"><ele>241.39999999999998</ele><time>2026-04-26T10:46:14.977Z</time></trkpt><trkpt lat="43.219446" lon="11.3730915"><ele>244.0</ele><time>2026-04-26T10:46:15.982Z</time></trkpt><trkpt lat="43.2193502" lon="11.3730781"><ele>244.0</ele><time>2026-04-26T10:46:16.962Z</time></trkpt><trkpt lat="43.219251" lon="11.3730612"><ele>243.99999999999997</ele><time>2026-04-26T10:46:17.959Z</time></trkpt><trkpt lat="43.2191507" lon="11.3730451"><ele>243.99999999999997</ele><time>2026-04-26T10:46:18.951Z</time></trkpt><trkpt lat="43.2190513" lon="11.3730312"><ele>244.0</ele><time>2026-04-26T10:46:19.954Z</time></trkpt><trkpt lat="43.2189525" lon="11.3730106"><ele>244.0</ele><time>2026-04-26T10:46:20.955Z</time></trkpt><trkpt lat="43.218855" lon="11.3729761"><ele>245.6</ele><time>2026-04-26T10:46:21.96Z</time></trkpt><trkpt lat="43.2187574" lon="11.3729289"><ele>247.2</ele><time>2026-04-26T10:46:22.975Z</time></trkpt><trkpt lat="43.2186563" lon="11.3728761"><ele>248.79999999999998</ele><time>2026-04-26T10:46:23.963Z</time></trkpt><trkpt lat="43.2185468" lon="11.3728185"><ele>250.39999999999998</ele><time>2026-04-26T10:46:24.975Z</time></trkpt><trkpt lat="43.2184381" lon="11.3727604"><ele>252.0</ele><time>2026-04-26T10:46:25.965Z</time></trkpt><trkpt lat="43.2183323" lon="11.3727039"><ele>252.0</ele><time>2026-04-26T10:46:26.976Z</time></trkpt><trkpt lat="43.2182281" lon="11.3726448"><ele>252.0</ele><time>2026-04-26T10:46:27.959Z</time></trkpt><trkpt lat="43.2181221" lon="11.3725852"><ele>252.0</ele><time>2026-04-26T10:46:28.966Z</time></trkpt><trkpt lat="43.2180155" lon="11.3725296"><ele>252.0</ele><time>2026-04-26T10:46:29.966Z</time></trkpt><trkpt lat="43.2179106" lon="11.3724764"><ele>250.0</ele><time>2026-04-26T10:46:30.967Z</time></trkpt><trkpt lat="43.2178081" lon="11.372427"><ele>248.0</ele><time>2026-04-26T10:46:31.956Z</time></trkpt><trkpt lat="43.2177109" lon="11.3723785"><ele>246.0</ele><time>2026-04-26T10:46:32.97Z</time></trkpt><trkpt lat="43.217623" lon="11.3723319"><ele>244.0</ele><time>2026-04-26T10:46:33.965Z</time></trkpt><trkpt lat="43.2175495" lon="11.3722921"><ele>242.0</ele><time>2026-04-26T10:46:34.971Z</time></trkpt><trkpt lat="43.2174536" lon="11.3722418"><ele>242.0</ele><time>2026-04-26T10:46:36.967Z</time></trkpt><trkpt lat="43.2173487" lon="11.3721917"><ele>242.0</ele><time>2026-04-26T10:46:38.974Z</time></trkpt><trkpt lat="43.2172819" lon="11.3721537"><ele>242.0</ele><time>2026-04-26T10:46:39.961Z</time></trkpt><trkpt lat="43.2172046" lon="11.3721069"><ele>242.0</ele><time>2026-04-26T10:46:40.967Z</time></trkpt><trkpt lat="43.2171173" lon="11.372057"><ele>242.0</ele><time>2026-04-26T10:46:41.958Z</time></trkpt><trkpt lat="43.2170176" lon="11.3720037"><ele>241.0</ele><time>2026-04-26T10:46:42.966Z</time></trkpt><trkpt lat="43.2169092" lon="11.3719483"><ele>240.0</ele><time>2026-04-26T10:46:43.955Z</time></trkpt><trkpt lat="43.2167937" lon="11.3718924"><ele>239.0</ele><time>2026-04-26T10:46:44.965Z</time></trkpt><trkpt lat="43.2166753" lon="11.3718351"><ele>238.0</ele><time>2026-04-26T10:46:46.002Z</time></trkpt><trkpt lat="43.2165606" lon="11.3717782"><ele>239.2</ele><time>2026-04-26T10:46:47.007Z</time></trkpt><trkpt lat="43.2164508" lon="11.3717224"><ele>240.4</ele><time>2026-04-26T10:46:47.995Z</time></trkpt><trkpt lat="43.2163482" lon="11.3716692"><ele>241.59999999999997</ele><time>2026-04-26T10:46:48.978Z</time></trkpt><trkpt lat="43.2162457" lon="11.3716207"><ele>242.79999999999998</ele><time>2026-04-26T10:46:49.987Z</time></trkpt><trkpt lat="43.2161441" lon="11.3715703"><ele>244.0</ele><time>2026-04-26T10:46:50.975Z</time></trkpt><trkpt lat="43.2160509" lon="11.3715238"><ele>243.99999999999997</ele><time>2026-04-26T10:46:51.98Z</time></trkpt><trkpt lat="43.215971" lon="11.3714822"><ele>244.0</ele><time>2026-04-26T10:46:52.965Z</time></trkpt><trkpt lat="43.215897" lon="11.3714333"><ele>244.0</ele><time>2026-04-26T10:46:53.978Z</time></trkpt><trkpt lat="43.2158251" lon="11.3713764"><ele>244.0</ele><time>2026-04-26T10:46:54.98Z</time></trkpt><trkpt lat="43.2157527" lon="11.3713086"><ele>243.99999999999997</ele><time>2026-04-26T10:46:55.962Z</time></trkpt><trkpt lat="43.2156746" lon="11.3712189"><ele>244.0</ele><time>2026-04-26T10:46:56.985Z</time></trkpt><trkpt lat="43.2155911" lon="11.371118"><ele>243.0</ele><time>2026-04-26T10:46:57.968Z</time></trkpt><trkpt lat="43.2154965" lon="11.3710193"><ele>242.0</ele><time>2026-04-26T10:46:58.979Z</time></trkpt><trkpt lat="43.2153942" lon="11.3709274"><ele>241.0</ele><time>2026-04-26T10:46:59.976Z</time></trkpt><trkpt lat="43.215286" lon="11.3708452"><ele>240.0</ele><time>2026-04-26T10:47:00.968Z</time></trkpt><trkpt lat="43.2151774" lon="11.370777"><ele>240.0</ele><time>2026-04-26T10:47:01.975Z</time></trkpt><trkpt lat="43.21507" lon="11.3707245"><ele>240.0</ele><time>2026-04-26T10:47:02.983Z</time></trkpt><trkpt lat="43.2149632" lon="11.3706897"><ele>240.0</ele><time>2026-04-26T10:47:03.964Z</time></trkpt><trkpt lat="43.2148558" lon="11.3706752"><ele>240.0</ele><time>2026-04-26T10:47:04.967Z</time></trkpt><trkpt lat="43.2147499" lon="11.3706894"><ele>240.0</ele><time>2026-04-26T10:47:05.962Z</time></trkpt><trkpt lat="43.2146398" lon="11.3707304"><ele>237.0</ele><time>2026-04-26T10:47:06.96Z</time></trkpt><trkpt lat="43.2145199" lon="11.3707984"><ele>234.0</ele><time>2026-04-26T10:47:07.968Z</time></trkpt><trkpt lat="43.2143933" lon="11.3708793"><ele>231.0</ele><time>2026-04-26T10:47:08.97Z</time></trkpt><trkpt lat="43.2142536" lon="11.3709683"><ele>228.0</ele><time>2026-04-26T10:47:09.973Z</time></trkpt><trkpt lat="43.2141056" lon="11.3710615"><ele>226.5</ele><time>2026-04-26T10:47:10.978Z</time></trkpt><trkpt lat="43.2139595" lon="11.3711537"><ele>225.0</ele><time>2026-04-26T10:47:12.033Z</time></trkpt><trkpt lat="43.2138301" lon="11.3712409"><ele>223.5</ele><time>2026-04-26T10:47:12.983Z</time></trkpt><trkpt lat="43.2137101" lon="11.3713172"><ele>222.0</ele><time>2026-04-26T10:47:13.976Z</time></trkpt><trkpt lat="43.213596" lon="11.3713691"><ele>222.0</ele><time>2026-04-26T10:47:14.983Z</time></trkpt><trkpt lat="43.2134865" lon="11.3713851"><ele>222.0</ele><time>2026-04-26T10:47:15.975Z</time></trkpt><trkpt lat="43.213383" lon="11.3713627"><ele>222.0</ele><time>2026-04-26T10:47:16.996Z</time></trkpt><trkpt lat="43.2132924" lon="11.3712981"><ele>222.0</ele><time>2026-04-26T10:47:17.991Z</time></trkpt><trkpt lat="43.2132124" lon="11.3711943"><ele>222.0</ele><time>2026-04-26T10:47:18.996Z</time></trkpt><trkpt lat="43.2131411" lon="11.3710603"><ele>222.0</ele><time>2026-04-26T10:47:19.976Z</time></trkpt><trkpt lat="43.2130678" lon="11.3709092"><ele>222.0</ele><time>2026-04-26T10:47:21.014Z</time></trkpt><trkpt lat="43.2129889" lon="11.3707527"><ele>222.0</ele><time>2026-04-26T10:47:22.006Z</time></trkpt><trkpt lat="43.2129069" lon="11.3705888"><ele>222.0</ele><time>2026-04-26T10:47:22.971Z</time></trkpt><trkpt lat="43.2128236" lon="11.370418"><ele>223.66666666666669</ele><time>2026-04-26T10:47:23.987Z</time></trkpt><trkpt lat="43.2127392" lon="11.3702468"><ele>225.33333333333334</ele><time>2026-04-26T10:47:24.985Z</time></trkpt><trkpt lat="43.2126524" lon="11.3700783"><ele>227.0</ele><time>2026-04-26T10:47:25.971Z</time></trkpt><trkpt lat="43.212562" lon="11.3699103"><ele>227.0</ele><time>2026-04-26T10:47:26.977Z</time></trkpt><trkpt lat="43.2124654" lon="11.3697471"><ele>227.0</ele><time>2026-04-26T10:47:27.97Z</time></trkpt><trkpt lat="43.2123643" lon="11.3695923"><ele>227.0</ele><time>2026-04-26T10:47:28.963Z</time></trkpt><trkpt lat="43.2122672" lon="11.3694506"><ele>227.0</ele><time>2026-04-26T10:47:29.966Z</time></trkpt><trkpt lat="43.2121814" lon="11.3693281"><ele>228.75</ele><time>2026-04-26T10:47:30.959Z</time></trkpt><trkpt lat="43.212092" lon="11.369218"><ele>230.5</ele><time>2026-04-26T10:47:31.96Z</time></trkpt><trkpt lat="43.2119912" lon="11.3691137"><ele>232.25</ele><time>2026-04-26T10:47:32.966Z</time></trkpt><trkpt lat="43.2118813" lon="11.369016"><ele>234.0</ele><time>2026-04-26T10:47:33.967Z</time></trkpt><trkpt lat="43.2117603" lon="11.3689275"><ele>233.66666666666669</ele><time>2026-04-26T10:47:34.959Z</time></trkpt><trkpt lat="43.211627" lon="11.368845"><ele>233.33333333333334</ele><time>2026-04-26T10:47:35.977Z</time></trkpt><trkpt lat="43.2114873" lon="11.368774"><ele>233.0</ele><time>2026-04-26T10:47:36.98Z</time></trkpt><trkpt lat="43.2113381" lon="11.3687142"><ele>233.0</ele><time>2026-04-26T10:47:37.972Z</time></trkpt><trkpt lat="43.2111817" lon="11.3686595"><ele>233.0</ele><time>2026-04-26T10:47:38.989Z</time></trkpt><trkpt lat="43.2110268" lon="11.3686089"><ele>233.0</ele><time>2026-04-26T10:47:39.971Z</time></trkpt><trkpt lat="43.2108711" lon="11.3685585"><ele>233.0</ele><time>2026-04-26T10:47:40.976Z</time></trkpt><trkpt lat="43.2107164" lon="11.3685082"><ele>233.0</ele><time>2026-04-26T10:47:41.98Z</time></trkpt><trkpt lat="43.2105598" lon="11.3684564"><ele>233.0</ele><time>2026-04-26T10:47:42.989Z</time></trkpt><trkpt lat="43.2104026" lon="11.3684026"><ele>232.5</ele><time>2026-04-26T10:47:43.98Z</time></trkpt><trkpt lat="43.2102504" lon="11.3683471"><ele>232.0</ele><time>2026-04-26T10:47:44.985Z</time></trkpt><trkpt lat="43.2101141" lon="11.368295"><ele>231.5</ele><time>2026-04-26T10:47:46.017Z</time></trkpt><trkpt lat="43.2099966" lon="11.3682537"><ele>231.0</ele><time>2026-04-26T10:47:47.025Z</time></trkpt><trkpt lat="43.2098979" lon="11.3682258"><ele>233.33333333333334</ele><time>2026-04-26T10:47:48.009Z</time></trkpt><trkpt lat="43.2098077" lon="11.3682139"><ele>235.66666666666669</ele><time>2026-04-26T10:47:48.994Z</time></trkpt><trkpt lat="43.2097215" lon="11.3682204"><ele>238.0</ele><time>2026-04-26T10:47:49.984Z</time></trkpt><trkpt lat="43.2096439" lon="11.3682557"><ele>240.33333333333334</ele><time>2026-04-26T10:47:50.987Z</time></trkpt><trkpt lat="43.2095719" lon="11.3683203"><ele>242.66666666666669</ele><time>2026-04-26T10:47:51.987Z</time></trkpt><trkpt lat="43.2095008" lon="11.368415"><ele>245.0</ele><time>2026-04-26T10:47:52.974Z</time></trkpt><trkpt lat="43.209425" lon="11.3685364"><ele>245.0</ele><time>2026-04-26T10:47:53.969Z</time></trkpt><trkpt lat="43.2093409" lon="11.3686762"><ele>245.0</ele><time>2026-04-26T10:47:54.976Z</time></trkpt><trkpt lat="43.2092467" lon="11.3688258"><ele>245.0</ele><time>2026-04-26T10:47:55.961Z</time></trkpt><trkpt lat="43.2091456" lon="11.3689785"><ele>245.0</ele><time>2026-04-26T10:47:56.973Z</time></trkpt><trkpt lat="43.2090407" lon="11.3691309"><ele>251.33333333333334</ele><time>2026-04-26T10:47:57.967Z</time></trkpt><trkpt lat="43.20893" lon="11.3692881"><ele>257.6666666666667</ele><time>2026-04-26T10:47:58.974Z</time></trkpt><trkpt lat="43.208815" lon="11.3694498"><ele>264.0</ele><time>2026-04-26T10:47:59.979Z</time></trkpt><trkpt lat="43.2086951" lon="11.3696186"><ele>260.3333333333333</ele><time>2026-04-26T10:48:00.982Z</time></trkpt><trkpt lat="43.2085751" lon="11.3697908"><ele>256.66666666666663</ele><time>2026-04-26T10:48:01.964Z</time></trkpt><trkpt lat="43.2084505" lon="11.3699642"><ele>253.0</ele><time>2026-04-26T10:48:02.971Z</time></trkpt><trkpt lat="43.2083271" lon="11.3701355"><ele>253.0</ele><time>2026-04-26T10:48:03.965Z</time></trkpt><trkpt lat="43.208209" lon="11.3703011"><ele>253.0</ele><time>2026-04-26T10:48:04.967Z</time></trkpt><trkpt lat="43.2080947" lon="11.3704619"><ele>253.0</ele><time>2026-04-26T10:48:05.957Z</time></trkpt><trkpt lat="43.2079841" lon="11.370622"><ele>258.66666666666663</ele><time>2026-04-26T10:48:06.963Z</time></trkpt><trkpt lat="43.2078722" lon="11.3707828"><ele>264.3333333333333</ele><time>2026-04-26T10:48:07.957Z</time></trkpt><trkpt lat="43.2077569" lon="11.3709478"><ele>270.0</ele><time>2026-04-26T10:48:08.958Z</time></trkpt><trkpt lat="43.2076404" lon="11.3711035"><ele>270.0</ele><time>2026-04-26T10:48:09.957Z</time></trkpt><trkpt lat="43.2075256" lon="11.3712551"><ele>270.0</ele><time>2026-04-26T10:48:10.965Z</time></trkpt><trkpt lat="43.207419" lon="11.3713972"><ele>270.0</ele><time>2026-04-26T10:48:11.968Z</time></trkpt><trkpt lat="43.2073266" lon="11.3715235"><ele>270.0</ele><time>2026-04-26T10:48:12.955Z</time></trkpt><trkpt lat="43.2072431" lon="11.3716468"><ele>275.6666666666667</ele><time>2026-04-26T10:48:13.969Z</time></trkpt><trkpt lat="43.2071602" lon="11.3717894"><ele>281.33333333333337</ele><time>2026-04-26T10:48:14.974Z</time></trkpt><trkpt lat="43.2070661" lon="11.3719593"><ele>287.0</ele><time>2026-04-26T10:48:15.959Z</time></trkpt><trkpt lat="43.2069615" lon="11.3721476"><ele>281.6666666666667</ele><time>2026-04-26T10:48:16.969Z</time></trkpt><trkpt lat="43.2068599" lon="11.3723321"><ele>276.3333333333333</ele><time>2026-04-26T10:48:17.975Z</time></trkpt><trkpt lat="43.2067625" lon="11.3725047"><ele>271.0</ele><time>2026-04-26T10:48:18.968Z</time></trkpt><trkpt lat="43.2066617" lon="11.372657"><ele>271.0</ele><time>2026-04-26T10:48:19.954Z</time></trkpt><trkpt lat="43.2065461" lon="11.3727848"><ele>271.0</ele><time>2026-04-26T10:48:20.954Z</time></trkpt><trkpt lat="43.2064157" lon="11.3729035"><ele>271.0</ele><time>2026-04-26T10:48:21.945Z</time></trkpt><trkpt lat="43.2062732" lon="11.3730093"><ele>269.66666666666663</ele><time>2026-04-26T10:48:22.951Z</time></trkpt><trkpt lat="43.2061309" lon="11.373109"><ele>268.3333333333333</ele><time>2026-04-26T10:48:23.953Z</time></trkpt><trkpt lat="43.2059935" lon="11.3732061"><ele>267.0</ele><time>2026-04-26T10:48:24.956Z</time></trkpt><trkpt lat="43.2058623" lon="11.3733073"><ele>267.0</ele><time>2026-04-26T10:48:25.963Z</time></trkpt><trkpt lat="43.2057443" lon="11.3734064"><ele>267.0</ele><time>2026-04-26T10:48:26.958Z</time></trkpt><trkpt lat="43.2056411" lon="11.3735074"><ele>267.0</ele><time>2026-04-26T10:48:27.961Z</time></trkpt><trkpt lat="43.2055432" lon="11.3736037"><ele>267.0</ele><time>2026-04-26T10:48:28.964Z</time></trkpt><trkpt lat="43.2054527" lon="11.373683"><ele>267.25</ele><time>2026-04-26T10:48:29.963Z</time></trkpt><trkpt lat="43.2053649" lon="11.3737367"><ele>267.5</ele><time>2026-04-26T10:48:30.956Z</time></trkpt><trkpt lat="43.2052632" lon="11.3737693"><ele>267.75</ele><time>2026-04-26T10:48:31.959Z</time></trkpt><trkpt lat="43.2051424" lon="11.373781"><ele>268.0</ele><time>2026-04-26T10:48:32.962Z</time></trkpt><trkpt lat="43.2050029" lon="11.3737759"><ele>268.0</ele><time>2026-04-26T10:48:33.954Z</time></trkpt><trkpt lat="43.2048476" lon="11.3737681"><ele>268.0</ele><time>2026-04-26T10:48:34.958Z</time></trkpt><trkpt lat="43.2046986" lon="11.3737794"><ele>268.0</ele><time>2026-04-26T10:48:35.96Z</time></trkpt><trkpt lat="43.2045575" lon="11.3738111"><ele>268.0</ele><time>2026-04-26T10:48:36.962Z</time></trkpt><trkpt lat="43.2044096" lon="11.3738574"><ele>264.66666666666663</ele><time>2026-04-26T10:48:37.962Z</time></trkpt><trkpt lat="43.2042536" lon="11.3739083"><ele>261.3333333333333</ele><time>2026-04-26T10:48:38.954Z</time></trkpt><trkpt lat="43.2040984" lon="11.3739588"><ele>258.0</ele><time>2026-04-26T10:48:39.959Z</time></trkpt><trkpt lat="43.2039559" lon="11.3740095"><ele>258.0</ele><time>2026-04-26T10:48:40.954Z</time></trkpt><trkpt lat="43.2038243" lon="11.3740678"><ele>258.0</ele><time>2026-04-26T10:48:41.97Z</time></trkpt><trkpt lat="43.2036977" lon="11.374139"><ele>258.0</ele><time>2026-04-26T10:48:42.953Z</time></trkpt><trkpt lat="43.2035719" lon="11.3742379"><ele>258.0</ele><time>2026-04-26T10:48:43.955Z</time></trkpt><trkpt lat="43.2034503" lon="11.3743484"><ele>258.0</ele><time>2026-04-26T10:48:44.945Z</time></trkpt><trkpt lat="43.2033363" lon="11.3744356"><ele>258.0</ele><time>2026-04-26T10:48:45.948Z</time></trkpt><trkpt lat="43.2032168" lon="11.3744968"><ele>258.0</ele><time>2026-04-26T10:48:46.96Z</time></trkpt><trkpt lat="43.2030797" lon="11.3745456"><ele>258.0</ele><time>2026-04-26T10:48:47.964Z</time></trkpt><trkpt lat="43.2029278" lon="11.374584"><ele>256.0</ele><time>2026-04-26T10:48:48.957Z</time></trkpt><trkpt lat="43.202767" lon="11.3746195"><ele>254.0</ele><time>2026-04-26T10:48:49.963Z</time></trkpt><trkpt lat="43.2026049" lon="11.3746589"><ele>252.0</ele><time>2026-04-26T10:48:50.972Z</time></trkpt><trkpt lat="43.202443" lon="11.3746986"><ele>256.6666666666667</ele><time>2026-04-26T10:48:51.979Z</time></trkpt><trkpt lat="43.2022861" lon="11.3747384"><ele>261.33333333333337</ele><time>2026-04-26T10:48:52.987Z</time></trkpt><trkpt lat="43.2021378" lon="11.3747811"><ele>266.0</ele><time>2026-04-26T10:48:53.968Z</time></trkpt><trkpt lat="43.201996" lon="11.3748271"><ele>266.0</ele><time>2026-04-26T10:48:54.962Z</time></trkpt><trkpt lat="43.2018631" lon="11.3748788"><ele>266.0</ele><time>2026-04-26T10:48:55.957Z</time></trkpt><trkpt lat="43.2017372" lon="11.3749437"><ele>266.0</ele><time>2026-04-26T10:48:56.97Z</time></trkpt><trkpt lat="43.2016171" lon="11.3750266"><ele>266.0</ele><time>2026-04-26T10:48:57.957Z</time></trkpt><trkpt lat="43.2014984" lon="11.3751199"><ele>267.0</ele><time>2026-04-26T10:48:58.963Z</time></trkpt><trkpt lat="43.2013852" lon="11.3752063"><ele>268.0</ele><time>2026-04-26T10:48:59.965Z</time></trkpt><trkpt lat="43.2012851" lon="11.3752761"><ele>269.0</ele><time>2026-04-26T10:49:00.957Z</time></trkpt><trkpt lat="43.2012011" lon="11.3753333"><ele>270.0</ele><time>2026-04-26T10:49:01.962Z</time></trkpt><trkpt lat="43.2011293" lon="11.3753767"><ele>271.0</ele><time>2026-04-26T10:49:02.967Z</time></trkpt><trkpt lat="43.201067" lon="11.3754014"><ele>271.0</ele><time>2026-04-26T10:49:03.97Z</time></trkpt><trkpt lat="43.2009451" lon="11.3753909"><ele>271.0</ele><time>2026-04-26T10:49:05.964Z</time></trkpt><trkpt lat="43.2008657" lon="11.3753601"><ele>271.0</ele><time>2026-04-26T10:49:06.967Z</time></trkpt><trkpt lat="43.2007744" lon="11.375311"><ele>271.0</ele><time>2026-04-26T10:49:07.961Z</time></trkpt><trkpt lat="43.2006802" lon="11.3752573"><ele>271.0</ele><time>2026-04-26T10:49:08.952Z</time></trkpt><trkpt lat="43.2005877" lon="11.3751984"><ele>268.5</ele><time>2026-04-26T10:49:09.956Z</time></trkpt><trkpt lat="43.2004962" lon="11.3751411"><ele>266.0</ele><time>2026-04-26T10:49:10.95Z</time></trkpt><trkpt lat="43.2004078" lon="11.3750851"><ele>263.5</ele><time>2026-04-26T10:49:11.957Z</time></trkpt><trkpt lat="43.2003299" lon="11.3750361"><ele>261.0</ele><time>2026-04-26T10:49:12.961Z</time></trkpt><trkpt lat="43.200259" lon="11.3749982"><ele>258.5</ele><time>2026-04-26T10:49:13.962Z</time></trkpt><trkpt lat="43.2001947" lon="11.3749742"><ele>256.0</ele><time>2026-04-26T10:49:14.967Z</time></trkpt><trkpt lat="43.2000811" lon="11.3749992"><ele>256.0</ele><time>2026-04-26T10:49:16.981Z</time></trkpt><trkpt lat="43.2000263" lon="11.3750541"><ele>256.0</ele><time>2026-04-26T10:49:17.99Z</time></trkpt><trkpt lat="43.1999707" lon="11.3751438"><ele>256.0</ele><time>2026-04-26T10:49:19.008Z</time></trkpt><trkpt lat="43.1999128" lon="11.3752655"><ele>256.0</ele><time>2026-04-26T10:49:19.981Z</time></trkpt><trkpt lat="43.1998494" lon="11.3754006"><ele>256.0</ele><time>2026-04-26T10:49:20.979Z</time></trkpt><trkpt lat="43.199776" lon="11.3755271"><ele>253.0</ele><time>2026-04-26T10:49:21.983Z</time></trkpt><trkpt lat="43.1996899" lon="11.3756437"><ele>250.0</ele><time>2026-04-26T10:49:22.975Z</time></trkpt><trkpt lat="43.1996003" lon="11.3757516"><ele>247.0</ele><time>2026-04-26T10:49:23.983Z</time></trkpt><trkpt lat="43.1995138" lon="11.3758541"><ele>244.0</ele><time>2026-04-26T10:49:24.971Z</time></trkpt><trkpt lat="43.1994261" lon="11.3759531"><ele>244.0</ele><time>2026-04-26T10:49:25.978Z</time></trkpt><trkpt lat="43.1993344" lon="11.3760419"><ele>244.0</ele><time>2026-04-26T10:49:26.967Z</time></trkpt><trkpt lat="43.1992306" lon="11.3761196"><ele>244.0</ele><time>2026-04-26T10:49:27.978Z</time></trkpt><trkpt lat="43.1991136" lon="11.3761789"><ele>244.0</ele><time>2026-04-26T10:49:28.977Z</time></trkpt><trkpt lat="43.1989847" lon="11.3762153"><ele>243.0</ele><time>2026-04-26T10:49:29.977Z</time></trkpt><trkpt lat="43.1988475" lon="11.3762429"><ele>242.0</ele><time>2026-04-26T10:49:30.964Z</time></trkpt><trkpt lat="43.1987106" lon="11.3762731"><ele>241.0</ele><time>2026-04-26T10:49:31.966Z</time></trkpt><trkpt lat="43.1985826" lon="11.3763109"><ele>240.0</ele><time>2026-04-26T10:49:32.955Z</time></trkpt><trkpt lat="43.1984648" lon="11.3763578"><ele>240.0</ele><time>2026-04-26T10:49:33.962Z</time></trkpt><trkpt lat="43.1983603" lon="11.3764186"><ele>240.0</ele><time>2026-04-26T10:49:34.947Z</time></trkpt><trkpt lat="43.1982608" lon="11.3765015"><ele>240.0</ele><time>2026-04-26T10:49:35.956Z</time></trkpt><trkpt lat="43.1981618" lon="11.3766075"><ele>240.0</ele><time>2026-04-26T10:49:36.966Z</time></trkpt><trkpt lat="43.1980594" lon="11.3767288"><ele>239.0</ele><time>2026-04-26T10:49:37.976Z</time></trkpt><trkpt lat="43.1979497" lon="11.3768515"><ele>238.0</ele><time>2026-04-26T10:49:38.981Z</time></trkpt><trkpt lat="43.1978344" lon="11.3769629"><ele>237.0</ele><time>2026-04-26T10:49:39.986Z</time></trkpt><trkpt lat="43.1977165" lon="11.3770594"><ele>236.0</ele><time>2026-04-26T10:49:40.975Z</time></trkpt><trkpt lat="43.1975947" lon="11.3771489"><ele>237.0</ele><time>2026-04-26T10:49:41.977Z</time></trkpt><trkpt lat="43.1974739" lon="11.3772338"><ele>238.0</ele><time>2026-04-26T10:49:42.99Z</time></trkpt><trkpt lat="43.1973598" lon="11.3773091"><ele>239.0</ele><time>2026-04-26T10:49:43.976Z</time></trkpt><trkpt lat="43.1972533" lon="11.377377"><ele>240.0</ele><time>2026-04-26T10:49:44.982Z</time></trkpt><trkpt lat="43.1971572" lon="11.3774378"><ele>238.4</ele><time>2026-04-26T10:49:45.964Z</time></trkpt><trkpt lat="43.197073" lon="11.3774932"><ele>236.8</ele><time>2026-04-26T10:49:46.974Z</time></trkpt><trkpt lat="43.1970022" lon="11.3775389"><ele>235.2</ele><time>2026-04-26T10:49:47.978Z</time></trkpt><trkpt lat="43.1969424" lon="11.3775752"><ele>233.6</ele><time>2026-04-26T10:49:48.976Z</time></trkpt><trkpt lat="43.1968361" lon="11.3776423"><ele>232.0</ele><time>2026-04-26T10:49:50.976Z</time></trkpt><trkpt lat="43.1967294" lon="11.3777209"><ele>232.0</ele><time>2026-04-26T10:49:52.974Z</time></trkpt><trkpt lat="43.1966676" lon="11.3777713"><ele>232.0</ele><time>2026-04-26T10:49:53.991Z</time></trkpt><trkpt lat="43.1965985" lon="11.3778327"><ele>232.0</ele><time>2026-04-26T10:49:54.993Z</time></trkpt><trkpt lat="43.1965195" lon="11.3779"><ele>232.0</ele><time>2026-04-26T10:49:55.966Z</time></trkpt><trkpt lat="43.1964227" lon="11.3779681"><ele>232.0</ele><time>2026-04-26T10:49:56.978Z</time></trkpt><trkpt lat="43.1963103" lon="11.3780383"><ele>232.5</ele><time>2026-04-26T10:49:57.963Z</time></trkpt><trkpt lat="43.1961874" lon="11.3781149"><ele>233.0</ele><time>2026-04-26T10:49:58.962Z</time></trkpt><trkpt lat="43.1960589" lon="11.3781965"><ele>233.5</ele><time>2026-04-26T10:49:59.968Z</time></trkpt><trkpt lat="43.1959231" lon="11.3782777"><ele>234.0</ele><time>2026-04-26T10:50:00.966Z</time></trkpt><trkpt lat="43.1957837" lon="11.3783477"><ele>233.0</ele><time>2026-04-26T10:50:01.958Z</time></trkpt><trkpt lat="43.1956535" lon="11.378404"><ele>232.0</ele><time>2026-04-26T10:50:02.972Z</time></trkpt><trkpt lat="43.1955397" lon="11.3784546"><ele>231.0</ele><time>2026-04-26T10:50:03.977Z</time></trkpt><trkpt lat="43.1954375" lon="11.3785029"><ele>230.0</ele><time>2026-04-26T10:50:04.975Z</time></trkpt><trkpt lat="43.1953379" lon="11.3785579"><ele>230.0</ele><time>2026-04-26T10:50:05.98Z</time></trkpt><trkpt lat="43.1952381" lon="11.3786327"><ele>230.0</ele><time>2026-04-26T10:50:06.986Z</time></trkpt><trkpt lat="43.1951395" lon="11.3787308"><ele>230.0</ele><time>2026-04-26T10:50:07.963Z</time></trkpt><trkpt lat="43.1950395" lon="11.3788514"><ele>230.0</ele><time>2026-04-26T10:50:08.978Z</time></trkpt><trkpt lat="43.1949395" lon="11.3789898"><ele>230.75</ele><time>2026-04-26T10:50:09.982Z</time></trkpt><trkpt lat="43.1948452" lon="11.3791374"><ele>231.5</ele><time>2026-04-26T10:50:10.982Z</time></trkpt><trkpt lat="43.194767" lon="11.3792874"><ele>232.25</ele><time>2026-04-26T10:50:11.967Z</time></trkpt><trkpt lat="43.1947023" lon="11.3794478"><ele>233.0</ele><time>2026-04-26T10:50:12.981Z</time></trkpt><trkpt lat="43.1946487" lon="11.3796244"><ele>231.0</ele><time>2026-04-26T10:50:13.967Z</time></trkpt><trkpt lat="43.194601" lon="11.3798255"><ele>229.0</ele><time>2026-04-26T10:50:14.976Z</time></trkpt><trkpt lat="43.1945656" lon="11.380041"><ele>227.0</ele><time>2026-04-26T10:50:15.973Z</time></trkpt><trkpt lat="43.1945434" lon="11.3802676"><ele>227.0</ele><time>2026-04-26T10:50:16.957Z</time></trkpt><trkpt lat="43.1945234" lon="11.3805011"><ele>227.0</ele><time>2026-04-26T10:50:17.966Z</time></trkpt><trkpt lat="43.1945" lon="11.3807191"><ele>227.0</ele><time>2026-04-26T10:50:18.982Z</time></trkpt><trkpt lat="43.1944657" lon="11.3809229"><ele>227.33333333333334</ele><time>2026-04-26T10:50:19.989Z</time></trkpt><trkpt lat="43.1944139" lon="11.3811228"><ele>227.66666666666669</ele><time>2026-04-26T10:50:20.978Z</time></trkpt><trkpt lat="43.1943481" lon="11.3813242"><ele>228.0</ele><time>2026-04-26T10:50:21.961Z</time></trkpt><trkpt lat="43.1942755" lon="11.3815304"><ele>228.0</ele><time>2026-04-26T10:50:22.956Z</time></trkpt><trkpt lat="43.1942014" lon="11.3817372"><ele>228.0</ele><time>2026-04-26T10:50:23.969Z</time></trkpt><trkpt lat="43.1941286" lon="11.3819418"><ele>228.0</ele><time>2026-04-26T10:50:24.977Z</time></trkpt><trkpt lat="43.194056" lon="11.3821455"><ele>225.66666666666669</ele><time>2026-04-26T10:50:25.965Z</time></trkpt><trkpt lat="43.193985" lon="11.3823459"><ele>223.33333333333334</ele><time>2026-04-26T10:50:26.973Z</time></trkpt><trkpt lat="43.1939166" lon="11.3825405"><ele>221.0</ele><time>2026-04-26T10:50:27.986Z</time></trkpt><trkpt lat="43.1938501" lon="11.3827252"><ele>221.0</ele><time>2026-04-26T10:50:28.972Z</time></trkpt><trkpt lat="43.1937861" lon="11.3828961"><ele>221.0</ele><time>2026-04-26T10:50:29.976Z</time></trkpt><trkpt lat="43.1937268" lon="11.3830462"><ele>221.0</ele><time>2026-04-26T10:50:30.969Z</time></trkpt><trkpt lat="43.1936683" lon="11.3831777"><ele>221.0</ele><time>2026-04-26T10:50:31.976Z</time></trkpt><trkpt lat="43.1936064" lon="11.3832851"><ele>221.83333333333334</ele><time>2026-04-26T10:50:32.976Z</time></trkpt><trkpt lat="43.1935398" lon="11.3833672"><ele>222.66666666666669</ele><time>2026-04-26T10:50:33.965Z</time></trkpt><trkpt lat="43.1934702" lon="11.38343"><ele>223.5</ele><time>2026-04-26T10:50:34.968Z</time></trkpt><trkpt lat="43.1933984" lon="11.3834791"><ele>224.33333333333331</ele><time>2026-04-26T10:50:35.97Z</time></trkpt><trkpt lat="43.1933251" lon="11.3835191"><ele>225.16666666666666</ele><time>2026-04-26T10:50:36.976Z</time></trkpt><trkpt lat="43.1932539" lon="11.3835497"><ele>226.0</ele><time>2026-04-26T10:50:37.968Z</time></trkpt><trkpt lat="43.1931847" lon="11.3835786"><ele>225.16666666666666</ele><time>2026-04-26T10:50:38.973Z</time></trkpt><trkpt lat="43.1931196" lon="11.3836089"><ele>224.33333333333331</ele><time>2026-04-26T10:50:39.981Z</time></trkpt><trkpt lat="43.1930556" lon="11.3836417"><ele>223.5</ele><time>2026-04-26T10:50:40.967Z</time></trkpt><trkpt lat="43.1929877" lon="11.3836763"><ele>222.66666666666669</ele><time>2026-04-26T10:50:41.973Z</time></trkpt><trkpt lat="43.1929116" lon="11.3837175"><ele>221.83333333333334</ele><time>2026-04-26T10:50:42.977Z</time></trkpt><trkpt lat="43.1928179" lon="11.3837705"><ele>221.0</ele><time>2026-04-26T10:50:43.963Z</time></trkpt><trkpt lat="43.1927046" lon="11.3838332"><ele>221.75</ele><time>2026-04-26T10:50:44.961Z</time></trkpt><trkpt lat="43.1925738" lon="11.3838944"><ele>222.5</ele><time>2026-04-26T10:50:45.972Z</time></trkpt><trkpt lat="43.1924331" lon="11.383937"><ele>223.25</ele><time>2026-04-26T10:50:46.965Z</time></trkpt><trkpt lat="43.1922897" lon="11.3839568"><ele>224.0</ele><time>2026-04-26T10:50:47.966Z</time></trkpt><trkpt lat="43.1921512" lon="11.3839599"><ele>224.2</ele><time>2026-04-26T10:50:48.973Z</time></trkpt><trkpt lat="43.1920328" lon="11.3839516"><ele>224.39999999999998</ele><time>2026-04-26T10:50:49.972Z</time></trkpt><trkpt lat="43.1919342" lon="11.3839483"><ele>224.6</ele><time>2026-04-26T10:50:50.967Z</time></trkpt><trkpt lat="43.1918401" lon="11.3839702"><ele>224.8</ele><time>2026-04-26T10:50:51.975Z</time></trkpt><trkpt lat="43.1917431" lon="11.3840281"><ele>225.0</ele><time>2026-04-26T10:50:52.986Z</time></trkpt><trkpt lat="43.1916452" lon="11.3841187"><ele>225.0</ele><time>2026-04-26T10:50:53.977Z</time></trkpt><trkpt lat="43.1915495" lon="11.3842319"><ele>225.0</ele><time>2026-04-26T10:50:54.993Z</time></trkpt><trkpt lat="43.1914605" lon="11.3843577"><ele>225.0</ele><time>2026-04-26T10:50:55.959Z</time></trkpt><trkpt lat="43.191371" lon="11.3844963"><ele>225.0</ele><time>2026-04-26T10:50:56.971Z</time></trkpt><trkpt lat="43.1912777" lon="11.3846344"><ele>225.75</ele><time>2026-04-26T10:50:57.96Z</time></trkpt><trkpt lat="43.1911772" lon="11.38477"><ele>226.5</ele><time>2026-04-26T10:50:58.965Z</time></trkpt><trkpt lat="43.1910752" lon="11.384893"><ele>227.25</ele><time>2026-04-26T10:50:59.953Z</time></trkpt><trkpt lat="43.1909719" lon="11.3850078"><ele>228.0</ele><time>2026-04-26T10:51:00.969Z</time></trkpt><trkpt lat="43.1908653" lon="11.3851129"><ele>228.0</ele><time>2026-04-26T10:51:01.953Z</time></trkpt><trkpt lat="43.190755" lon="11.3852086"><ele>228.0</ele><time>2026-04-26T10:51:02.962Z</time></trkpt><trkpt lat="43.1906413" lon="11.3852959"><ele>228.0</ele><time>2026-04-26T10:51:03.972Z</time></trkpt><trkpt lat="43.1905184" lon="11.3853743"><ele>228.0</ele><time>2026-04-26T10:51:04.952Z</time></trkpt><trkpt lat="43.1903882" lon="11.385446"><ele>229.0</ele><time>2026-04-26T10:51:05.958Z</time></trkpt><trkpt lat="43.1902534" lon="11.385506"><ele>230.0</ele><time>2026-04-26T10:51:06.964Z</time></trkpt><trkpt lat="43.1901117" lon="11.3855611"><ele>231.0</ele><time>2026-04-26T10:51:07.956Z</time></trkpt><trkpt lat="43.189964" lon="11.3856056"><ele>232.0</ele><time>2026-04-26T10:51:08.96Z</time></trkpt><trkpt lat="43.1898108" lon="11.3856407"><ele>227.66666666666666</ele><time>2026-04-26T10:51:09.965Z</time></trkpt><trkpt lat="43.1896554" lon="11.3856769"><ele>223.33333333333331</ele><time>2026-04-26T10:51:10.957Z</time></trkpt><trkpt lat="43.1895003" lon="11.3857183"><ele>219.0</ele><time>2026-04-26T10:51:11.958Z</time></trkpt><trkpt lat="43.1893447" lon="11.3857628"><ele>219.0</ele><time>2026-04-26T10:51:12.96Z</time></trkpt><trkpt lat="43.1891916" lon="11.3858108"><ele>219.0</ele><time>2026-04-26T10:51:13.953Z</time></trkpt><trkpt lat="43.1890426" lon="11.3858575"><ele>219.0</ele><time>2026-04-26T10:51:14.973Z</time></trkpt><trkpt lat="43.188905" lon="11.3858985"><ele>220.75</ele><time>2026-04-26T10:51:15.975Z</time></trkpt><trkpt lat="43.1887819" lon="11.3859257"><ele>222.5</ele><time>2026-04-26T10:51:16.971Z</time></trkpt><trkpt lat="43.188672" lon="11.3859322"><ele>224.25</ele><time>2026-04-26T10:51:17.966Z</time></trkpt><trkpt lat="43.1885669" lon="11.3859139"><ele>226.0</ele><time>2026-04-26T10:51:18.993Z</time></trkpt><trkpt lat="43.1884623" lon="11.3858665"><ele>226.0</ele><time>2026-04-26T10:51:19.984Z</time></trkpt><trkpt lat="43.1883535" lon="11.3857889"><ele>226.0</ele><time>2026-04-26T10:51:20.993Z</time></trkpt><trkpt lat="43.188238" lon="11.3856937"><ele>226.0</ele><time>2026-04-26T10:51:21.986Z</time></trkpt><trkpt lat="43.1881097" lon="11.3855921"><ele>226.0</ele><time>2026-04-26T10:51:22.983Z</time></trkpt><trkpt lat="43.1879742" lon="11.3854994"><ele>229.5</ele><time>2026-04-26T10:51:23.975Z</time></trkpt><trkpt lat="43.1878403" lon="11.385421"><ele>233.0</ele><time>2026-04-26T10:51:24.987Z</time></trkpt><trkpt lat="43.1877194" lon="11.385361"><ele>236.5</ele><time>2026-04-26T10:51:25.976Z</time></trkpt><trkpt lat="43.1876086" lon="11.3853111"><ele>240.0</ele><time>2026-04-26T10:51:26.977Z</time></trkpt><trkpt lat="43.1874983" lon="11.3852707"><ele>240.0</ele><time>2026-04-26T10:51:27.983Z</time></trkpt><trkpt lat="43.1873826" lon="11.3852461"><ele>240.0</ele><time>2026-04-26T10:51:28.985Z</time></trkpt><trkpt lat="43.1872585" lon="11.3852394"><ele>240.0</ele><time>2026-04-26T10:51:29.974Z</time></trkpt><trkpt lat="43.1871233" lon="11.3852486"><ele>240.0</ele><time>2026-04-26T10:51:30.987Z</time></trkpt><trkpt lat="43.1869747" lon="11.385273"><ele>242.66666666666669</ele><time>2026-04-26T10:51:31.98Z</time></trkpt><trkpt lat="43.186815" lon="11.3853096"><ele>245.33333333333334</ele><time>2026-04-26T10:51:32.981Z</time></trkpt><trkpt lat="43.1866541" lon="11.3853537"><ele>248.0</ele><time>2026-04-26T10:51:33.969Z</time></trkpt><trkpt lat="43.1864917" lon="11.3853932"><ele>250.66666666666669</ele><time>2026-04-26T10:51:34.966Z</time></trkpt><trkpt lat="43.1863283" lon="11.3854173"><ele>253.33333333333331</ele><time>2026-04-26T10:51:35.96Z</time></trkpt><trkpt lat="43.186165" lon="11.3854274"><ele>256.0</ele><time>2026-04-26T10:51:36.969Z</time></trkpt><trkpt lat="43.1860069" lon="11.3854292"><ele>256.0</ele><time>2026-04-26T10:51:37.959Z</time></trkpt><trkpt lat="43.1858557" lon="11.385428"><ele>256.0</ele><time>2026-04-26T10:51:38.976Z</time></trkpt><trkpt lat="43.1857227" lon="11.3854268"><ele>256.0</ele><time>2026-04-26T10:51:39.979Z</time></trkpt><trkpt lat="43.1856097" lon="11.3854193"><ele>256.0</ele><time>2026-04-26T10:51:40.978Z</time></trkpt><trkpt lat="43.1855072" lon="11.3853954"><ele>258.2</ele><time>2026-04-26T10:51:41.98Z</time></trkpt><trkpt lat="43.1854122" lon="11.3853476"><ele>260.40000000000003</ele><time>2026-04-26T10:51:42.983Z</time></trkpt><trkpt lat="43.1853231" lon="11.3852752"><ele>262.6</ele><time>2026-04-26T10:51:43.976Z</time></trkpt><trkpt lat="43.1852342" lon="11.3851819"><ele>264.8</ele><time>2026-04-26T10:51:44.986Z</time></trkpt><trkpt lat="43.1851439" lon="11.3850674"><ele>267.0</ele><time>2026-04-26T10:51:45.976Z</time></trkpt><trkpt lat="43.1850501" lon="11.3849279"><ele>267.0</ele><time>2026-04-26T10:51:46.977Z</time></trkpt><trkpt lat="43.1849542" lon="11.3847686"><ele>267.0</ele><time>2026-04-26T10:51:47.977Z</time></trkpt><trkpt lat="43.1848555" lon="11.3846114"><ele>267.0</ele><time>2026-04-26T10:51:48.981Z</time></trkpt><trkpt lat="43.1847575" lon="11.3844773"><ele>267.0</ele><time>2026-04-26T10:51:49.971Z</time></trkpt><trkpt lat="43.1846532" lon="11.3843594"><ele>269.0</ele><time>2026-04-26T10:51:51.002Z</time></trkpt><trkpt lat="43.1845436" lon="11.3842496"><ele>271.0</ele><time>2026-04-26T10:51:52.006Z</time></trkpt><trkpt lat="43.1844314" lon="11.3841424"><ele>273.0</ele><time>2026-04-26T10:51:52.974Z</time></trkpt><trkpt lat="43.1843123" lon="11.3840371"><ele>275.0</ele><time>2026-04-26T10:51:53.987Z</time></trkpt><trkpt lat="43.1841874" lon="11.3839454"><ele>275.0</ele><time>2026-04-26T10:51:54.995Z</time></trkpt><trkpt lat="43.1840552" lon="11.383876"><ele>275.0</ele><time>2026-04-26T10:51:55.97Z</time></trkpt><trkpt lat="43.1839079" lon="11.3838186"><ele>275.0</ele><time>2026-04-26T10:51:56.98Z</time></trkpt><trkpt lat="43.1837592" lon="11.3837667"><ele>275.0</ele><time>2026-04-26T10:51:57.984Z</time></trkpt><trkpt lat="43.1836264" lon="11.3837201"><ele>274.75</ele><time>2026-04-26T10:51:58.973Z</time></trkpt><trkpt lat="43.1835064" lon="11.3836733"><ele>274.5</ele><time>2026-04-26T10:51:59.974Z</time></trkpt><trkpt lat="43.1833978" lon="11.3836302"><ele>274.25</ele><time>2026-04-26T10:52:00.955Z</time></trkpt><trkpt lat="43.1832925" lon="11.3835875"><ele>274.0</ele><time>2026-04-26T10:52:01.958Z</time></trkpt><trkpt lat="43.1831797" lon="11.3835414"><ele>273.25</ele><time>2026-04-26T10:52:02.964Z</time></trkpt><trkpt lat="43.1830539" lon="11.3834879"><ele>272.5</ele><time>2026-04-26T10:52:03.968Z</time></trkpt><trkpt lat="43.182921" lon="11.3834311"><ele>271.75</ele><time>2026-04-26T10:52:04.976Z</time></trkpt><trkpt lat="43.1827831" lon="11.3833693"><ele>271.0</ele><time>2026-04-26T10:52:05.975Z</time></trkpt><trkpt lat="43.1826465" lon="11.3833019"><ele>271.0</ele><time>2026-04-26T10:52:06.965Z</time></trkpt><trkpt lat="43.1825121" lon="11.3832359"><ele>271.0</ele><time>2026-04-26T10:52:07.968Z</time></trkpt><trkpt lat="43.1823716" lon="11.3831779"><ele>271.0</ele><time>2026-04-26T10:52:08.976Z</time></trkpt><trkpt lat="43.182226" lon="11.3831331"><ele>271.0</ele><time>2026-04-26T10:52:09.98Z</time></trkpt><trkpt lat="43.1820755" lon="11.383093"><ele>270.5</ele><time>2026-04-26T10:52:10.972Z</time></trkpt><trkpt lat="43.1819285" lon="11.3830541"><ele>270.0</ele><time>2026-04-26T10:52:11.981Z</time></trkpt><trkpt lat="43.1817966" lon="11.3830193"><ele>269.5</ele><time>2026-04-26T10:52:12.985Z</time></trkpt><trkpt lat="43.1816795" lon="11.3829901"><ele>269.0</ele><time>2026-04-26T10:52:13.974Z</time></trkpt><trkpt lat="43.1815751" lon="11.3829655"><ele>268.5</ele><time>2026-04-26T10:52:14.972Z</time></trkpt><trkpt lat="43.1814841" lon="11.3829457"><ele>268.0</ele><time>2026-04-26T10:52:15.973Z</time></trkpt><trkpt lat="43.1814036" lon="11.3829278"><ele>267.5</ele><time>2026-04-26T10:52:16.978Z</time></trkpt><trkpt lat="43.1813302" lon="11.3829093"><ele>267.0</ele><time>2026-04-26T10:52:17.984Z</time></trkpt><trkpt lat="43.1812612" lon="11.3828865"><ele>266.5</ele><time>2026-04-26T10:52:18.977Z</time></trkpt><trkpt lat="43.1811903" lon="11.3828552"><ele>266.0</ele><time>2026-04-26T10:52:20.01Z</time></trkpt><trkpt lat="43.18112" lon="11.3828168"><ele>266.0</ele><time>2026-04-26T10:52:20.995Z</time></trkpt><trkpt lat="43.1810548" lon="11.3827743"><ele>266.0</ele><time>2026-04-26T10:52:22.002Z</time></trkpt><trkpt lat="43.1809964" lon="11.3827373"><ele>266.0</ele><time>2026-04-26T10:52:22.975Z</time></trkpt><trkpt lat="43.1809107" lon="11.3826917"><ele>266.0</ele><time>2026-04-26T10:52:24.983Z</time></trkpt><trkpt lat="43.1808145" lon="11.3826892"><ele>266.0</ele><time>2026-04-26T10:52:27.984Z</time></trkpt><trkpt lat="43.1807135" lon="11.382757"><ele>266.0</ele><time>2026-04-26T10:52:29.984Z</time></trkpt><trkpt lat="43.1806507" lon="11.3828214"><ele>266.0</ele><time>2026-04-26T10:52:31.001Z</time></trkpt><trkpt lat="43.1805778" lon="11.3828929"><ele>266.0</ele><time>2026-04-26T10:52:31.983Z</time></trkpt><trkpt lat="43.1804987" lon="11.3829684"><ele>266.0</ele><time>2026-04-26T10:52:32.985Z</time></trkpt><trkpt lat="43.180412" lon="11.3830524"><ele>266.0</ele><time>2026-04-26T10:52:33.989Z</time></trkpt><trkpt lat="43.1803169" lon="11.3831498"><ele>266.0</ele><time>2026-04-26T10:52:34.993Z</time></trkpt><trkpt lat="43.1802134" lon="11.3832495"><ele>266.0</ele><time>2026-04-26T10:52:35.979Z</time></trkpt><trkpt lat="43.1801005" lon="11.3833422"><ele>266.0</ele><time>2026-04-26T10:52:37.015Z</time></trkpt><trkpt lat="43.1799797" lon="11.3834243"><ele>266.0</ele><time>2026-04-26T10:52:37.99Z</time></trkpt><trkpt lat="43.1798471" lon="11.3835"><ele>266.0</ele><time>2026-04-26T10:52:38.988Z</time></trkpt><trkpt lat="43.1797088" lon="11.383574"><ele>265.0</ele><time>2026-04-26T10:52:39.979Z</time></trkpt><trkpt lat="43.1795662" lon="11.3836498"><ele>264.0</ele><time>2026-04-26T10:52:40.979Z</time></trkpt><trkpt lat="43.1794219" lon="11.3837271"><ele>263.0</ele><time>2026-04-26T10:52:41.971Z</time></trkpt><trkpt lat="43.1792741" lon="11.3838069"><ele>265.0</ele><time>2026-04-26T10:52:42.989Z</time></trkpt><trkpt lat="43.1791274" lon="11.3838869"><ele>267.0</ele><time>2026-04-26T10:52:43.975Z</time></trkpt><trkpt lat="43.1789804" lon="11.3839714"><ele>269.0</ele><time>2026-04-26T10:52:44.973Z</time></trkpt><trkpt lat="43.1788376" lon="11.3840688"><ele>269.0</ele><time>2026-04-26T10:52:45.986Z</time></trkpt><trkpt lat="43.1787059" lon="11.3841861"><ele>269.0</ele><time>2026-04-26T10:52:46.964Z</time></trkpt><trkpt lat="43.1785848" lon="11.3843243"><ele>269.0</ele><time>2026-04-26T10:52:47.971Z</time></trkpt><trkpt lat="43.1784736" lon="11.3844694"><ele>269.0</ele><time>2026-04-26T10:52:48.973Z</time></trkpt><trkpt lat="43.1783689" lon="11.3846076"><ele>269.0</ele><time>2026-04-26T10:52:49.962Z</time></trkpt><trkpt lat="43.1782679" lon="11.3847346"><ele>269.0</ele><time>2026-04-26T10:52:50.974Z</time></trkpt><trkpt lat="43.1781652" lon="11.3848493"><ele>269.0</ele><time>2026-04-26T10:52:51.97Z</time></trkpt><trkpt lat="43.178052" lon="11.3849555"><ele>269.0</ele><time>2026-04-26T10:52:52.986Z</time></trkpt><trkpt lat="43.1779315" lon="11.3850518"><ele>269.0</ele><time>2026-04-26T10:52:53.97Z</time></trkpt><trkpt lat="43.1778048" lon="11.3851474"><ele>269.0</ele><time>2026-04-26T10:52:55.013Z</time></trkpt><trkpt lat="43.1776836" lon="11.3852427"><ele>269.0</ele><time>2026-04-26T10:52:56Z</time></trkpt><trkpt lat="43.1775656" lon="11.3853445"><ele>269.0</ele><time>2026-04-26T10:52:57.017Z</time></trkpt><trkpt lat="43.1774576" lon="11.3854553"><ele>269.0</ele><time>2026-04-26T10:52:57.975Z</time></trkpt><trkpt lat="43.177359" lon="11.3855856"><ele>269.0</ele><time>2026-04-26T10:52:58.984Z</time></trkpt><trkpt lat="43.1772739" lon="11.3857305"><ele>269.0</ele><time>2026-04-26T10:52:59.973Z</time></trkpt><trkpt lat="43.1771965" lon="11.385891"><ele>269.75</ele><time>2026-04-26T10:53:00.988Z</time></trkpt><trkpt lat="43.177122" lon="11.386061"><ele>270.5</ele><time>2026-04-26T10:53:01.98Z</time></trkpt><trkpt lat="43.1770479" lon="11.3862388"><ele>271.25</ele><time>2026-04-26T10:53:02.988Z</time></trkpt><trkpt lat="43.1769752" lon="11.3864206"><ele>272.0</ele><time>2026-04-26T10:53:03.991Z</time></trkpt><trkpt lat="43.176903" lon="11.3866042"><ele>272.0</ele><time>2026-04-26T10:53:04.991Z</time></trkpt><trkpt lat="43.1768291" lon="11.3867864"><ele>272.0</ele><time>2026-04-26T10:53:05.974Z</time></trkpt><trkpt lat="43.1767531" lon="11.3869692"><ele>272.0</ele><time>2026-04-26T10:53:06.986Z</time></trkpt><trkpt lat="43.1766779" lon="11.38715"><ele>271.5</ele><time>2026-04-26T10:53:07.986Z</time></trkpt><trkpt lat="43.1766045" lon="11.3873298"><ele>271.0</ele><time>2026-04-26T10:53:08.976Z</time></trkpt><trkpt lat="43.1765331" lon="11.3875057"><ele>270.5</ele><time>2026-04-26T10:53:09.985Z</time></trkpt><trkpt lat="43.1764633" lon="11.3876665"><ele>270.0</ele><time>2026-04-26T10:53:10.973Z</time></trkpt><trkpt lat="43.1763816" lon="11.3878113"><ele>271.0</ele><time>2026-04-26T10:53:11.97Z</time></trkpt><trkpt lat="43.1762843" lon="11.3879461"><ele>272.0</ele><time>2026-04-26T10:53:12.977Z</time></trkpt><trkpt lat="43.1761771" lon="11.3880714"><ele>273.0</ele><time>2026-04-26T10:53:13.967Z</time></trkpt><trkpt lat="43.1760624" lon="11.3881884"><ele>274.0</ele><time>2026-04-26T10:53:14.967Z</time></trkpt><trkpt lat="43.1759415" lon="11.3882895"><ele>274.0</ele><time>2026-04-26T10:53:15.958Z</time></trkpt><trkpt lat="43.1758117" lon="11.3883697"><ele>274.0</ele><time>2026-04-26T10:53:16.965Z</time></trkpt><trkpt lat="43.1756778" lon="11.3884358"><ele>274.0</ele><time>2026-04-26T10:53:17.971Z</time></trkpt><trkpt lat="43.1755479" lon="11.3884942"><ele>274.0</ele><time>2026-04-26T10:53:18.975Z</time></trkpt><trkpt lat="43.1754216" lon="11.3885487"><ele>273.75</ele><time>2026-04-26T10:53:19.986Z</time></trkpt><trkpt lat="43.1752923" lon="11.388603"><ele>273.5</ele><time>2026-04-26T10:53:21.034Z</time></trkpt><trkpt lat="43.1751665" lon="11.3886583"><ele>273.25</ele><time>2026-04-26T10:53:22.011Z</time></trkpt><trkpt lat="43.175038" lon="11.388718"><ele>273.0</ele><time>2026-04-26T10:53:23.022Z</time></trkpt><trkpt lat="43.1749114" lon="11.3887765"><ele>272.75</ele><time>2026-04-26T10:53:23.984Z</time></trkpt><trkpt lat="43.1747798" lon="11.388835"><ele>272.5</ele><time>2026-04-26T10:53:24.999Z</time></trkpt><trkpt lat="43.1746474" lon="11.3888891"><ele>272.25</ele><time>2026-04-26T10:53:25.986Z</time></trkpt><trkpt lat="43.1745127" lon="11.3889444"><ele>272.0</ele><time>2026-04-26T10:53:26.994Z</time></trkpt><trkpt lat="43.1743806" lon="11.3890044"><ele>273.75</ele><time>2026-04-26T10:53:27.978Z</time></trkpt><trkpt lat="43.1742542" lon="11.3890642"><ele>275.5</ele><time>2026-04-26T10:53:28.991Z</time></trkpt><trkpt lat="43.1741421" lon="11.3891173"><ele>277.25</ele><time>2026-04-26T10:53:29.983Z</time></trkpt><trkpt lat="43.1740418" lon="11.3891776"><ele>279.0</ele><time>2026-04-26T10:53:30.994Z</time></trkpt><trkpt lat="43.1739517" lon="11.389252"><ele>280.75</ele><time>2026-04-26T10:53:31.986Z</time></trkpt><trkpt lat="43.1738646" lon="11.3893423"><ele>282.5</ele><time>2026-04-26T10:53:32.978Z</time></trkpt><trkpt lat="43.173779" lon="11.3894458"><ele>284.25</ele><time>2026-04-26T10:53:33.985Z</time></trkpt><trkpt lat="43.1736952" lon="11.3895636"><ele>286.0</ele><time>2026-04-26T10:53:34.99Z</time></trkpt><trkpt lat="43.1736119" lon="11.3896987"><ele>286.0</ele><time>2026-04-26T10:53:35.978Z</time></trkpt><trkpt lat="43.1735292" lon="11.3898411"><ele>286.0</ele><time>2026-04-26T10:53:36.975Z</time></trkpt><trkpt lat="43.1734525" lon="11.3899755"><ele>286.0</ele><time>2026-04-26T10:53:37.964Z</time></trkpt><trkpt lat="43.1733818" lon="11.3901009"><ele>286.0</ele><time>2026-04-26T10:53:38.97Z</time></trkpt><trkpt lat="43.1733194" lon="11.3902145"><ele>286.0</ele><time>2026-04-26T10:53:39.958Z</time></trkpt><trkpt lat="43.1732634" lon="11.3903135"><ele>286.0</ele><time>2026-04-26T10:53:40.97Z</time></trkpt><trkpt lat="43.1732108" lon="11.3903971"><ele>286.0</ele><time>2026-04-26T10:53:41.97Z</time></trkpt><trkpt lat="43.1731562" lon="11.3904763"><ele>286.0</ele><time>2026-04-26T10:53:42.983Z</time></trkpt><trkpt lat="43.1730937" lon="11.3905563"><ele>286.0</ele><time>2026-04-26T10:53:43.989Z</time></trkpt><trkpt lat="43.1730236" lon="11.3906333"><ele>286.0</ele><time>2026-04-26T10:53:44.976Z</time></trkpt><trkpt lat="43.1729452" lon="11.3907036"><ele>288.40000000000003</ele><time>2026-04-26T10:53:45.983Z</time></trkpt><trkpt lat="43.1728586" lon="11.3907612"><ele>290.8</ele><time>2026-04-26T10:53:46.991Z</time></trkpt><trkpt lat="43.1727653" lon="11.3908091"><ele>293.20000000000005</ele><time>2026-04-26T10:53:47.979Z</time></trkpt><trkpt lat="43.172665" lon="11.3908555"><ele>295.6</ele><time>2026-04-26T10:53:48.988Z</time></trkpt><trkpt lat="43.1725604" lon="11.3909021"><ele>298.0</ele><time>2026-04-26T10:53:49.979Z</time></trkpt><trkpt lat="43.1724521" lon="11.3909519"><ele>299.75</ele><time>2026-04-26T10:53:50.98Z</time></trkpt><trkpt lat="43.1723417" lon="11.3910042"><ele>301.5</ele><time>2026-04-26T10:53:52.008Z</time></trkpt><trkpt lat="43.1722329" lon="11.3910574"><ele>303.25</ele><time>2026-04-26T10:53:53.011Z</time></trkpt><trkpt lat="43.1721242" lon="11.3911099"><ele>305.0</ele><time>2026-04-26T10:53:53.992Z</time></trkpt><trkpt lat="43.1720168" lon="11.3911613"><ele>305.0</ele><time>2026-04-26T10:53:54.977Z</time></trkpt><trkpt lat="43.1719109" lon="11.3912109"><ele>305.0</ele><time>2026-04-26T10:53:55.968Z</time></trkpt><trkpt lat="43.1718056" lon="11.3912583"><ele>305.0</ele><time>2026-04-26T10:53:56.971Z</time></trkpt><trkpt lat="43.1717048" lon="11.3912962"><ele>305.0</ele><time>2026-04-26T10:53:57.972Z</time></trkpt><trkpt lat="43.1716108" lon="11.3913178"><ele>305.0</ele><time>2026-04-26T10:53:58.97Z</time></trkpt><trkpt lat="43.1715213" lon="11.3913303"><ele>304.5</ele><time>2026-04-26T10:53:59.961Z</time></trkpt><trkpt lat="43.1714353" lon="11.3913349"><ele>304.0</ele><time>2026-04-26T10:54:00.967Z</time></trkpt><trkpt lat="43.1713538" lon="11.3913308"><ele>303.5</ele><time>2026-04-26T10:54:01.962Z</time></trkpt><trkpt lat="43.1712698" lon="11.3913205"><ele>303.0</ele><time>2026-04-26T10:54:02.963Z</time></trkpt><trkpt lat="43.1711805" lon="11.391299"><ele>302.5</ele><time>2026-04-26T10:54:03.958Z</time></trkpt><trkpt lat="43.1710895" lon="11.391263"><ele>302.0</ele><time>2026-04-26T10:54:04.973Z</time></trkpt><trkpt lat="43.1709999" lon="11.391215"><ele>302.0</ele><time>2026-04-26T10:54:05.975Z</time></trkpt><trkpt lat="43.170909" lon="11.3911596"><ele>302.0</ele><time>2026-04-26T10:54:06.977Z</time></trkpt><trkpt lat="43.1708152" lon="11.3911036"><ele>302.0</ele><time>2026-04-26T10:54:07.979Z</time></trkpt><trkpt lat="43.1707193" lon="11.3910494"><ele>302.0</ele><time>2026-04-26T10:54:08.984Z</time></trkpt><trkpt lat="43.1706252" lon="11.3909968"><ele>302.0</ele><time>2026-04-26T10:54:09.997Z</time></trkpt><trkpt lat="43.1705375" lon="11.3909449"><ele>302.0</ele><time>2026-04-26T10:54:10.982Z</time></trkpt><trkpt lat="43.1704548" lon="11.3908937"><ele>302.0</ele><time>2026-04-26T10:54:11.986Z</time></trkpt><trkpt lat="43.1703756" lon="11.3908417"><ele>302.0</ele><time>2026-04-26T10:54:13.005Z</time></trkpt><trkpt lat="43.1702976" lon="11.3907858"><ele>302.0</ele><time>2026-04-26T10:54:13.98Z</time></trkpt><trkpt lat="43.1702149" lon="11.3907208"><ele>302.0</ele><time>2026-04-26T10:54:14.985Z</time></trkpt><trkpt lat="43.1701291" lon="11.3906493"><ele>302.0</ele><time>2026-04-26T10:54:15.977Z</time></trkpt><trkpt lat="43.1700421" lon="11.3905746"><ele>302.0</ele><time>2026-04-26T10:54:16.984Z</time></trkpt><trkpt lat="43.1699549" lon="11.3904978"><ele>302.0</ele><time>2026-04-26T10:54:17.985Z</time></trkpt><trkpt lat="43.1698641" lon="11.3904188"><ele>302.0</ele><time>2026-04-26T10:54:18.981Z</time></trkpt><trkpt lat="43.1697681" lon="11.3903399"><ele>302.0</ele><time>2026-04-26T10:54:19.983Z</time></trkpt><trkpt lat="43.1696668" lon="11.3902668"><ele>299.6</ele><time>2026-04-26T10:54:20.991Z</time></trkpt><trkpt lat="43.1695635" lon="11.3902003"><ele>297.2</ele><time>2026-04-26T10:54:21.989Z</time></trkpt><trkpt lat="43.1694608" lon="11.390141"><ele>294.8</ele><time>2026-04-26T10:54:22.978Z</time></trkpt><trkpt lat="43.1693586" lon="11.390092"><ele>292.4</ele><time>2026-04-26T10:54:23.983Z</time></trkpt><trkpt lat="43.1692576" lon="11.3900546"><ele>290.0</ele><time>2026-04-26T10:54:24.989Z</time></trkpt><trkpt lat="43.1691584" lon="11.3900285"><ele>290.0</ele><time>2026-04-26T10:54:25.969Z</time></trkpt><trkpt lat="43.1690581" lon="11.3900119"><ele>290.0</ele><time>2026-04-26T10:54:26.972Z</time></trkpt><trkpt lat="43.1689553" lon="11.3899986"><ele>290.0</ele><time>2026-04-26T10:54:27.976Z</time></trkpt><trkpt lat="43.1688451" lon="11.3899876"><ele>290.0</ele><time>2026-04-26T10:54:28.971Z</time></trkpt><trkpt lat="43.168724" lon="11.3899765"><ele>290.0</ele><time>2026-04-26T10:54:29.963Z</time></trkpt><trkpt lat="43.1685927" lon="11.3899618"><ele>287.25</ele><time>2026-04-26T10:54:30.975Z</time></trkpt><trkpt lat="43.1684515" lon="11.3899459"><ele>284.5</ele><time>2026-04-26T10:54:31.967Z</time></trkpt><trkpt lat="43.1683004" lon="11.3899303"><ele>281.75</ele><time>2026-04-26T10:54:32.988Z</time></trkpt><trkpt lat="43.1681458" lon="11.3899181"><ele>279.0</ele><time>2026-04-26T10:54:33.991Z</time></trkpt><trkpt lat="43.1679875" lon="11.3899082"><ele>277.0</ele><time>2026-04-26T10:54:34.98Z</time></trkpt><trkpt lat="43.1678281" lon="11.389898"><ele>275.0</ele><time>2026-04-26T10:54:35.996Z</time></trkpt><trkpt lat="43.1676757" lon="11.3898877"><ele>273.0</ele><time>2026-04-26T10:54:37.002Z</time></trkpt><trkpt lat="43.1675299" lon="11.3898769"><ele>273.0</ele><time>2026-04-26T10:54:37.982Z</time></trkpt><trkpt lat="43.1673876" lon="11.389865"><ele>273.0</ele><time>2026-04-26T10:54:38.991Z</time></trkpt><trkpt lat="43.1672526" lon="11.3898549"><ele>273.0</ele><time>2026-04-26T10:54:39.995Z</time></trkpt><trkpt lat="43.1671253" lon="11.389851"><ele>273.0</ele><time>2026-04-26T10:54:40.981Z</time></trkpt><trkpt lat="43.1670034" lon="11.38986"><ele>273.25</ele><time>2026-04-26T10:54:41.992Z</time></trkpt><trkpt lat="43.1668872" lon="11.3898898"><ele>273.5</ele><time>2026-04-26T10:54:42.995Z</time></trkpt><trkpt lat="43.1667721" lon="11.3899433"><ele>273.75</ele><time>2026-04-26T10:54:43.982Z</time></trkpt><trkpt lat="43.1666579" lon="11.3900166"><ele>274.0</ele><time>2026-04-26T10:54:44.983Z</time></trkpt><trkpt lat="43.1665552" lon="11.3901075"><ele>274.59999999999997</ele><time>2026-04-26T10:54:45.996Z</time></trkpt><trkpt lat="43.1664687" lon="11.3902134"><ele>275.2</ele><time>2026-04-26T10:54:46.996Z</time></trkpt><trkpt lat="43.1663954" lon="11.3903259"><ele>275.79999999999995</ele><time>2026-04-26T10:54:47.983Z</time></trkpt><trkpt lat="43.1663283" lon="11.3904318"><ele>276.4</ele><time>2026-04-26T10:54:48.989Z</time></trkpt><trkpt lat="43.166262" lon="11.3905221"><ele>277.0</ele><time>2026-04-26T10:54:49.975Z</time></trkpt><trkpt lat="43.1661904" lon="11.3905911"><ele>276.4</ele><time>2026-04-26T10:54:50.975Z</time></trkpt><trkpt lat="43.1661134" lon="11.3906487"><ele>275.79999999999995</ele><time>2026-04-26T10:54:51.988Z</time></trkpt><trkpt lat="43.1660265" lon="11.3907091"><ele>275.2</ele><time>2026-04-26T10:54:52.999Z</time></trkpt><trkpt lat="43.1659255" lon="11.3907672"><ele>274.59999999999997</ele><time>2026-04-26T10:54:53.986Z</time></trkpt><trkpt lat="43.1658043" lon="11.3908189"><ele>274.0</ele><time>2026-04-26T10:54:54.984Z</time></trkpt><trkpt lat="43.1656669" lon="11.3908668"><ele>274.0</ele><time>2026-04-26T10:54:56.005Z</time></trkpt><trkpt lat="43.1655249" lon="11.3909123"><ele>274.0</ele><time>2026-04-26T10:54:56.981Z</time></trkpt><trkpt lat="43.1653712" lon="11.390961"><ele>274.0</ele><time>2026-04-26T10:54:58.002Z</time></trkpt><trkpt lat="43.1652108" lon="11.3910042"><ele>274.0</ele><time>2026-04-26T10:54:59.004Z</time></trkpt><trkpt lat="43.1650437" lon="11.3910442"><ele>274.0</ele><time>2026-04-26T10:54:59.99Z</time></trkpt><trkpt lat="43.1648706" lon="11.3910872"><ele>274.0</ele><time>2026-04-26T10:55:00.997Z</time></trkpt><trkpt lat="43.1646949" lon="11.3911298"><ele>274.3333333333333</ele><time>2026-04-26T10:55:01.975Z</time></trkpt><trkpt lat="43.1645144" lon="11.3911742"><ele>274.6666666666667</ele><time>2026-04-26T10:55:02.986Z</time></trkpt><trkpt lat="43.1643346" lon="11.3912208"><ele>275.0</ele><time>2026-04-26T10:55:04.001Z</time></trkpt><trkpt lat="43.164155" lon="11.3912657"><ele>275.6666666666667</ele><time>2026-04-26T10:55:05.002Z</time></trkpt><trkpt lat="43.1639736" lon="11.3913062"><ele>276.3333333333333</ele><time>2026-04-26T10:55:05.988Z</time></trkpt><trkpt lat="43.1637892" lon="11.3913483"><ele>277.0</ele><time>2026-04-26T10:55:07.009Z</time></trkpt><trkpt lat="43.1636079" lon="11.3913955"><ele>277.0</ele><time>2026-04-26T10:55:07.996Z</time></trkpt><trkpt lat="43.1634256" lon="11.391447"><ele>277.0</ele><time>2026-04-26T10:55:09.01Z</time></trkpt><trkpt lat="43.1632476" lon="11.3914964"><ele>277.0</ele><time>2026-04-26T10:55:09.996Z</time></trkpt><trkpt lat="43.1630709" lon="11.3915402"><ele>278.66666666666663</ele><time>2026-04-26T10:55:11.012Z</time></trkpt><trkpt lat="43.162901" lon="11.3915775"><ele>280.3333333333333</ele><time>2026-04-26T10:55:11.99Z</time></trkpt><trkpt lat="43.1627298" lon="11.3916108"><ele>282.0</ele><time>2026-04-26T10:55:13Z</time></trkpt><trkpt lat="43.1625611" lon="11.3916365"><ele>282.0</ele><time>2026-04-26T10:55:13.986Z</time></trkpt><trkpt lat="43.1623917" lon="11.3916533"><ele>282.0</ele><time>2026-04-26T10:55:14.983Z</time></trkpt><trkpt lat="43.1622312" lon="11.3916691"><ele>282.0</ele><time>2026-04-26T10:55:15.983Z</time></trkpt><trkpt lat="43.1620856" lon="11.3916974"><ele>283.0</ele><time>2026-04-26T10:55:16.978Z</time></trkpt><trkpt lat="43.1619573" lon="11.3917496"><ele>284.0</ele><time>2026-04-26T10:55:17.972Z</time></trkpt><trkpt lat="43.1618475" lon="11.3918394"><ele>285.0</ele><time>2026-04-26T10:55:18.989Z</time></trkpt><trkpt lat="43.1617571" lon="11.3919718"><ele>286.0</ele><time>2026-04-26T10:55:19.973Z</time></trkpt><trkpt lat="43.1616818" lon="11.3921505"><ele>285.0</ele><time>2026-04-26T10:55:20.984Z</time></trkpt><trkpt lat="43.1616225" lon="11.3923503"><ele>284.0</ele><time>2026-04-26T10:55:21.996Z</time></trkpt><trkpt lat="43.1615686" lon="11.3925399"><ele>283.0</ele><time>2026-04-26T10:55:23.032Z</time></trkpt><trkpt lat="43.1615031" lon="11.3927103"><ele>282.0</ele><time>2026-04-26T10:55:24.025Z</time></trkpt><trkpt lat="43.1614117" lon="11.3928641"><ele>281.0</ele><time>2026-04-26T10:55:25.004Z</time></trkpt><trkpt lat="43.1612891" lon="11.3929928"><ele>280.0</ele><time>2026-04-26T10:55:26.021Z</time></trkpt><trkpt lat="43.1611448" lon="11.3930926"><ele>279.0</ele><time>2026-04-26T10:55:27.004Z</time></trkpt><trkpt lat="43.1609803" lon="11.3931758"><ele>279.0</ele><time>2026-04-26T10:55:28.002Z</time></trkpt><trkpt lat="43.1608019" lon="11.3932541"><ele>279.0</ele><time>2026-04-26T10:55:29.004Z</time></trkpt><trkpt lat="43.1606172" lon="11.3933329"><ele>279.0</ele><time>2026-04-26T10:55:29.989Z</time></trkpt><trkpt lat="43.1604285" lon="11.3934121"><ele>278.3333333333333</ele><time>2026-04-26T10:55:31.005Z</time></trkpt><trkpt lat="43.1602408" lon="11.3934927"><ele>277.66666666666663</ele><time>2026-04-26T10:55:31.986Z</time></trkpt><trkpt lat="43.1600458" lon="11.3935846"><ele>277.0</ele><time>2026-04-26T10:55:33.002Z</time></trkpt><trkpt lat="43.1598573" lon="11.3936864"><ele>276.66666666666663</ele><time>2026-04-26T10:55:33.988Z</time></trkpt><trkpt lat="43.1596752" lon="11.3938034"><ele>276.3333333333333</ele><time>2026-04-26T10:55:35Z</time></trkpt><trkpt lat="43.1595081" lon="11.3939379"><ele>276.0</ele><time>2026-04-26T10:55:35.98Z</time></trkpt><trkpt lat="43.1593533" lon="11.3940955"><ele>276.0</ele><time>2026-04-26T10:55:36.994Z</time></trkpt><trkpt lat="43.1592106" lon="11.3942696"><ele>276.0</ele><time>2026-04-26T10:55:37.993Z</time></trkpt><trkpt lat="43.1590768" lon="11.3944578"><ele>276.0</ele><time>2026-04-26T10:55:38.985Z</time></trkpt><trkpt lat="43.1589556" lon="11.3946629"><ele>277.0</ele><time>2026-04-26T10:55:39.982Z</time></trkpt><trkpt lat="43.1588508" lon="11.3948808"><ele>278.0</ele><time>2026-04-26T10:55:40.978Z</time></trkpt><trkpt lat="43.1587708" lon="11.3951111"><ele>279.0</ele><time>2026-04-26T10:55:41.974Z</time></trkpt><trkpt lat="43.1587226" lon="11.3953594"><ele>279.0</ele><time>2026-04-26T10:55:42.986Z</time></trkpt><trkpt lat="43.1587003" lon="11.3956238"><ele>279.0</ele><time>2026-04-26T10:55:43.97Z</time></trkpt><trkpt lat="43.1586909" lon="11.3959043"><ele>279.0</ele><time>2026-04-26T10:55:44.983Z</time></trkpt><trkpt lat="43.1586866" lon="11.3961895"><ele>279.3333333333333</ele><time>2026-04-26T10:55:45.995Z</time></trkpt><trkpt lat="43.1586823" lon="11.3964751"><ele>279.66666666666663</ele><time>2026-04-26T10:55:46.983Z</time></trkpt><trkpt lat="43.1586771" lon="11.3967635"><ele>280.0</ele><time>2026-04-26T10:55:47.987Z</time></trkpt><trkpt lat="43.1586713" lon="11.3970493"><ele>280.0</ele><time>2026-04-26T10:55:48.999Z</time></trkpt><trkpt lat="43.1586678" lon="11.3973233"><ele>280.0</ele><time>2026-04-26T10:55:49.982Z</time></trkpt><trkpt lat="43.1586723" lon="11.3975843"><ele>280.0</ele><time>2026-04-26T10:55:50.984Z</time></trkpt><trkpt lat="43.1586924" lon="11.3978374"><ele>280.66666666666663</ele><time>2026-04-26T10:55:51.984Z</time></trkpt><trkpt lat="43.1587317" lon="11.3980951"><ele>281.3333333333333</ele><time>2026-04-26T10:55:53Z</time></trkpt><trkpt lat="43.1587832" lon="11.3983449"><ele>282.0</ele><time>2026-04-26T10:55:53.98Z</time></trkpt><trkpt lat="43.1588384" lon="11.3985826"><ele>282.0</ele><time>2026-04-26T10:55:55.003Z</time></trkpt><trkpt lat="43.1588851" lon="11.3987976"><ele>282.0</ele><time>2026-04-26T10:55:55.976Z</time></trkpt><trkpt lat="43.1589141" lon="11.3990046"><ele>282.0</ele><time>2026-04-26T10:55:56.988Z</time></trkpt><trkpt lat="43.1589202" lon="11.3991972"><ele>281.75</ele><time>2026-04-26T10:55:57.987Z</time></trkpt><trkpt lat="43.1588974" lon="11.3993751"><ele>281.5</ele><time>2026-04-26T10:55:58.977Z</time></trkpt><trkpt lat="43.1588409" lon="11.3995241"><ele>281.25</ele><time>2026-04-26T10:55:59.98Z</time></trkpt><trkpt lat="43.1587566" lon="11.3996233"><ele>281.0</ele><time>2026-04-26T10:56:00.986Z</time></trkpt><trkpt lat="43.1586509" lon="11.3996693"><ele>281.0</ele><time>2026-04-26T10:56:01.974Z</time></trkpt><trkpt lat="43.1585224" lon="11.3996679"><ele>281.0</ele><time>2026-04-26T10:56:02.984Z</time></trkpt><trkpt lat="43.1583835" lon="11.3996434"><ele>281.0</ele><time>2026-04-26T10:56:03.975Z</time></trkpt><trkpt lat="43.1582415" lon="11.3996325"><ele>281.0</ele><time>2026-04-26T10:56:04.977Z</time></trkpt><trkpt lat="43.1580916" lon="11.3996591"><ele>284.0</ele><time>2026-04-26T10:56:05.963Z</time></trkpt><trkpt lat="43.1579404" lon="11.3997288"><ele>287.0</ele><time>2026-04-26T10:56:06.99Z</time></trkpt><trkpt lat="43.1577974" lon="11.3998393"><ele>290.0</ele><time>2026-04-26T10:56:07.977Z</time></trkpt><trkpt lat="43.1576544" lon="11.3999718"><ele>290.0</ele><time>2026-04-26T10:56:08.984Z</time></trkpt><trkpt lat="43.1575046" lon="11.4000882"><ele>290.0</ele><time>2026-04-26T10:56:09.98Z</time></trkpt><trkpt lat="43.1573465" lon="11.4001672"><ele>290.0</ele><time>2026-04-26T10:56:10.966Z</time></trkpt><trkpt lat="43.1571847" lon="11.4001917"><ele>291.33333333333337</ele><time>2026-04-26T10:56:11.983Z</time></trkpt><trkpt lat="43.1570218" lon="11.4001593"><ele>292.6666666666667</ele><time>2026-04-26T10:56:12.989Z</time></trkpt><trkpt lat="43.1568584" lon="11.4000938"><ele>294.0</ele><time>2026-04-26T10:56:13.971Z</time></trkpt><trkpt lat="43.1567016" lon="11.4000311"><ele>294.0</ele><time>2026-04-26T10:56:14.973Z</time></trkpt><trkpt lat="43.1565654" lon="11.4000032"><ele>294.0</ele><time>2026-04-26T10:56:15.962Z</time></trkpt><trkpt lat="43.1564514" lon="11.4000243"><ele>294.0</ele><time>2026-04-26T10:56:16.963Z</time></trkpt><trkpt lat="43.1563643" lon="11.4001017"><ele>294.0</ele><time>2026-04-26T10:56:17.956Z</time></trkpt><trkpt lat="43.1563077" lon="11.4002254"><ele>297.25</ele><time>2026-04-26T10:56:18.978Z</time></trkpt><trkpt lat="43.1562909" lon="11.4003693"><ele>300.5</ele><time>2026-04-26T10:56:19.97Z</time></trkpt><trkpt lat="43.156316" lon="11.4005254"><ele>303.75</ele><time>2026-04-26T10:56:20.987Z</time></trkpt><trkpt lat="43.1563759" lon="11.4006916"><ele>307.0</ele><time>2026-04-26T10:56:21.973Z</time></trkpt><trkpt lat="43.1564608" lon="11.400876"><ele>300.3333333333333</ele><time>2026-04-26T10:56:22.975Z</time></trkpt><trkpt lat="43.156555" lon="11.4010751"><ele>293.6666666666667</ele><time>2026-04-26T10:56:23.976Z</time></trkpt><trkpt lat="43.1566408" lon="11.4012795"><ele>287.0</ele><time>2026-04-26T10:56:25.009Z</time></trkpt><trkpt lat="43.1566946" lon="11.4014783"><ele>286.33333333333337</ele><time>2026-04-26T10:56:25.978Z</time></trkpt><trkpt lat="43.1567121" lon="11.4016818"><ele>285.6666666666667</ele><time>2026-04-26T10:56:26.987Z</time></trkpt><trkpt lat="43.156695" lon="11.4018948"><ele>285.0</ele><time>2026-04-26T10:56:27.979Z</time></trkpt><trkpt lat="43.1566567" lon="11.4021277"><ele>284.3333333333333</ele><time>2026-04-26T10:56:28.978Z</time></trkpt><trkpt lat="43.1566113" lon="11.4023743"><ele>283.66666666666663</ele><time>2026-04-26T10:56:29.968Z</time></trkpt><trkpt lat="43.1565652" lon="11.4026297"><ele>283.0</ele><time>2026-04-26T10:56:30.967Z</time></trkpt><trkpt lat="43.1565227" lon="11.4028902"><ele>288.0</ele><time>2026-04-26T10:56:31.962Z</time></trkpt><trkpt lat="43.1564878" lon="11.4031546"><ele>293.0</ele><time>2026-04-26T10:56:32.969Z</time></trkpt><trkpt lat="43.1564604" lon="11.4034115"><ele>298.0</ele><time>2026-04-26T10:56:33.987Z</time></trkpt><trkpt lat="43.1564403" lon="11.4036524"><ele>296.0</ele><time>2026-04-26T10:56:34.975Z</time></trkpt><trkpt lat="43.1564227" lon="11.403877"><ele>294.0</ele><time>2026-04-26T10:56:35.981Z</time></trkpt><trkpt lat="43.1563997" lon="11.4040785"><ele>292.0</ele><time>2026-04-26T10:56:36.969Z</time></trkpt><trkpt lat="43.1563507" lon="11.4042664"><ele>292.0</ele><time>2026-04-26T10:56:37.982Z</time></trkpt><trkpt lat="43.156264" lon="11.4044361"><ele>292.0</ele><time>2026-04-26T10:56:38.966Z</time></trkpt><trkpt lat="43.1561431" lon="11.4045905"><ele>292.0</ele><time>2026-04-26T10:56:39.976Z</time></trkpt><trkpt lat="43.1560008" lon="11.4047225"><ele>289.66666666666663</ele><time>2026-04-26T10:56:40.977Z</time></trkpt><trkpt lat="43.1558462" lon="11.4048217"><ele>287.3333333333333</ele><time>2026-04-26T10:56:41.967Z</time></trkpt><trkpt lat="43.1556802" lon="11.4048845"><ele>285.0</ele><time>2026-04-26T10:56:42.97Z</time></trkpt><trkpt lat="43.1555049" lon="11.404915"><ele>285.0</ele><time>2026-04-26T10:56:43.977Z</time></trkpt><trkpt lat="43.1553248" lon="11.4049391"><ele>285.0</ele><time>2026-04-26T10:56:44.978Z</time></trkpt><trkpt lat="43.1551475" lon="11.4049883"><ele>285.0</ele><time>2026-04-26T10:56:45.966Z</time></trkpt><trkpt lat="43.1549674" lon="11.4050622"><ele>288.0</ele><time>2026-04-26T10:56:46.977Z</time></trkpt><trkpt lat="43.1547834" lon="11.4051482"><ele>291.0</ele><time>2026-04-26T10:56:47.972Z</time></trkpt><trkpt lat="43.1546022" lon="11.4052427"><ele>294.0</ele><time>2026-04-26T10:56:48.977Z</time></trkpt><trkpt lat="43.1544338" lon="11.4053447"><ele>294.0</ele><time>2026-04-26T10:56:49.99Z</time></trkpt><trkpt lat="43.1542861" lon="11.4054519"><ele>294.0</ele><time>2026-04-26T10:56:50.975Z</time></trkpt><trkpt lat="43.1541475" lon="11.4055557"><ele>294.0</ele><time>2026-04-26T10:56:51.993Z</time></trkpt><trkpt lat="43.1540056" lon="11.405632"><ele>291.3333333333333</ele><time>2026-04-26T10:56:52.973Z</time></trkpt><trkpt lat="43.1538484" lon="11.4056739"><ele>288.66666666666663</ele><time>2026-04-26T10:56:53.977Z</time></trkpt><trkpt lat="43.1536832" lon="11.4056921"><ele>286.0</ele><time>2026-04-26T10:56:54.98Z</time></trkpt><trkpt lat="43.1535194" lon="11.4057166"><ele>286.0</ele><time>2026-04-26T10:56:55.958Z</time></trkpt><trkpt lat="43.1533576" lon="11.4057686"><ele>286.0</ele><time>2026-04-26T10:56:56.965Z</time></trkpt><trkpt lat="43.1532053" lon="11.4058603"><ele>286.0</ele><time>2026-04-26T10:56:57.974Z</time></trkpt><trkpt lat="43.1530633" lon="11.4059835"><ele>285.0</ele><time>2026-04-26T10:56:58.986Z</time></trkpt><trkpt lat="43.1529269" lon="11.4061198"><ele>284.0</ele><time>2026-04-26T10:56:59.985Z</time></trkpt><trkpt lat="43.1527875" lon="11.4062547"><ele>283.0</ele><time>2026-04-26T10:57:00.984Z</time></trkpt><trkpt lat="43.1526398" lon="11.4063764"><ele>283.0</ele><time>2026-04-26T10:57:01.971Z</time></trkpt><trkpt lat="43.1524794" lon="11.4064769"><ele>283.0</ele><time>2026-04-26T10:57:02.97Z</time></trkpt><trkpt lat="43.1523089" lon="11.4065493"><ele>283.0</ele><time>2026-04-26T10:57:03.976Z</time></trkpt><trkpt lat="43.1521311" lon="11.4065894"><ele>283.0</ele><time>2026-04-26T10:57:04.983Z</time></trkpt><trkpt lat="43.151949" lon="11.4066065"><ele>283.0</ele><time>2026-04-26T10:57:05.985Z</time></trkpt><trkpt lat="43.1517637" lon="11.4066163"><ele>283.0</ele><time>2026-04-26T10:57:06.983Z</time></trkpt><trkpt lat="43.1515757" lon="11.4066368"><ele>284.0</ele><time>2026-04-26T10:57:07.989Z</time></trkpt><trkpt lat="43.1513897" lon="11.4066754"><ele>285.0</ele><time>2026-04-26T10:57:08.966Z</time></trkpt><trkpt lat="43.1512072" lon="11.4067251"><ele>286.0</ele><time>2026-04-26T10:57:09.974Z</time></trkpt><trkpt lat="43.1510359" lon="11.4067692"><ele>286.0</ele><time>2026-04-26T10:57:10.983Z</time></trkpt><trkpt lat="43.1508732" lon="11.406794"><ele>286.0</ele><time>2026-04-26T10:57:11.988Z</time></trkpt><trkpt lat="43.1507126" lon="11.4067932"><ele>286.0</ele><time>2026-04-26T10:57:12.991Z</time></trkpt><trkpt lat="43.1505514" lon="11.4067709"><ele>284.3333333333333</ele><time>2026-04-26T10:57:13.981Z</time></trkpt><trkpt lat="43.1503947" lon="11.4067284"><ele>282.6666666666667</ele><time>2026-04-26T10:57:14.999Z</time></trkpt><trkpt lat="43.1502556" lon="11.4066622"><ele>281.0</ele><time>2026-04-26T10:57:15.978Z</time></trkpt><trkpt lat="43.1501275" lon="11.4065565"><ele>281.0</ele><time>2026-04-26T10:57:16.979Z</time></trkpt><trkpt lat="43.150014" lon="11.4064176"><ele>281.0</ele><time>2026-04-26T10:57:17.989Z</time></trkpt><trkpt lat="43.1499101" lon="11.4062944"><ele>281.0</ele><time>2026-04-26T10:57:18.959Z</time></trkpt><trkpt lat="43.1497896" lon="11.4062146"><ele>281.0</ele><time>2026-04-26T10:57:19.972Z</time></trkpt><trkpt lat="43.1496543" lon="11.4061979"><ele>282.0</ele><time>2026-04-26T10:57:20.968Z</time></trkpt><trkpt lat="43.1495189" lon="11.4062488"><ele>283.0</ele><time>2026-04-26T10:57:21.976Z</time></trkpt><trkpt lat="43.1493977" lon="11.4063587"><ele>284.0</ele><time>2026-04-26T10:57:22.983Z</time></trkpt><trkpt lat="43.1492849" lon="11.4065055"><ele>285.0</ele><time>2026-04-26T10:57:23.995Z</time></trkpt><trkpt lat="43.1491653" lon="11.4066344"><ele>286.3333333333333</ele><time>2026-04-26T10:57:25.026Z</time></trkpt><trkpt lat="43.1490318" lon="11.4067036"><ele>287.66666666666663</ele><time>2026-04-26T10:57:26.014Z</time></trkpt><trkpt lat="43.1488785" lon="11.4067345"><ele>289.0</ele><time>2026-04-26T10:57:26.98Z</time></trkpt><trkpt lat="43.1487155" lon="11.4067688"><ele>289.0</ele><time>2026-04-26T10:57:27.985Z</time></trkpt><trkpt lat="43.1485617" lon="11.4068467"><ele>289.0</ele><time>2026-04-26T10:57:28.99Z</time></trkpt><trkpt lat="43.1484256" lon="11.4069835"><ele>289.0</ele><time>2026-04-26T10:57:29.998Z</time></trkpt><trkpt lat="43.1483093" lon="11.4071697"><ele>290.0</ele><time>2026-04-26T10:57:30.987Z</time></trkpt><trkpt lat="43.1482023" lon="11.407388"><ele>291.0</ele><time>2026-04-26T10:57:31.999Z</time></trkpt><trkpt lat="43.1481019" lon="11.4076109"><ele>292.0</ele><time>2026-04-26T10:57:33.003Z</time></trkpt><trkpt lat="43.148015" lon="11.4078256"><ele>290.0</ele><time>2026-04-26T10:57:33.977Z</time></trkpt><trkpt lat="43.1479462" lon="11.4080471"><ele>288.0</ele><time>2026-04-26T10:57:34.995Z</time></trkpt><trkpt lat="43.1479017" lon="11.4082855"><ele>286.0</ele><time>2026-04-26T10:57:35.985Z</time></trkpt><trkpt lat="43.1478734" lon="11.4085498"><ele>286.0</ele><time>2026-04-26T10:57:37.001Z</time></trkpt><trkpt lat="43.147849" lon="11.4088178"><ele>286.0</ele><time>2026-04-26T10:57:38.002Z</time></trkpt><trkpt lat="43.1478196" lon="11.4090735"><ele>286.0</ele><time>2026-04-26T10:57:38.982Z</time></trkpt><trkpt lat="43.1477858" lon="11.4093204"><ele>284.0</ele><time>2026-04-26T10:57:39.989Z</time></trkpt><trkpt lat="43.147748" lon="11.4095551"><ele>282.0</ele><time>2026-04-26T10:57:40.987Z</time></trkpt><trkpt lat="43.1477083" lon="11.4097776"><ele>280.0</ele><time>2026-04-26T10:57:41.978Z</time></trkpt><trkpt lat="43.1476629" lon="11.4099846"><ele>277.66666666666663</ele><time>2026-04-26T10:57:42.976Z</time></trkpt><trkpt lat="43.1476002" lon="11.4101733"><ele>275.3333333333333</ele><time>2026-04-26T10:57:43.984Z</time></trkpt><trkpt lat="43.1475108" lon="11.4103406"><ele>273.0</ele><time>2026-04-26T10:57:44.971Z</time></trkpt><trkpt lat="43.1473963" lon="11.4104824"><ele>270.6666666666667</ele><time>2026-04-26T10:57:45.983Z</time></trkpt><trkpt lat="43.1472667" lon="11.4105944"><ele>268.33333333333337</ele><time>2026-04-26T10:57:46.995Z</time></trkpt><trkpt lat="43.1471254" lon="11.4106921"><ele>266.0</ele><time>2026-04-26T10:57:47.984Z</time></trkpt><trkpt lat="43.1469744" lon="11.4107927"><ele>266.0</ele><time>2026-04-26T10:57:49.009Z</time></trkpt><trkpt lat="43.1468261" lon="11.4109074"><ele>266.0</ele><time>2026-04-26T10:57:49.998Z</time></trkpt><trkpt lat="43.1466894" lon="11.4110463"><ele>266.0</ele><time>2026-04-26T10:57:50.999Z</time></trkpt><trkpt lat="43.1465699" lon="11.4112156"><ele>264.33333333333337</ele><time>2026-04-26T10:57:52.004Z</time></trkpt><trkpt lat="43.1464573" lon="11.4114083"><ele>262.6666666666667</ele><time>2026-04-26T10:57:52.992Z</time></trkpt><trkpt lat="43.1463451" lon="11.4116066"><ele>261.0</ele><time>2026-04-26T10:57:54.003Z</time></trkpt><trkpt lat="43.1462357" lon="11.411795"><ele>261.0</ele><time>2026-04-26T10:57:55.019Z</time></trkpt><trkpt lat="43.1461339" lon="11.411977"><ele>261.0</ele><time>2026-04-26T10:57:56.006Z</time></trkpt><trkpt lat="43.1460432" lon="11.4121702"><ele>261.0</ele><time>2026-04-26T10:57:57.027Z</time></trkpt><trkpt lat="43.1459718" lon="11.4123789"><ele>258.3333333333333</ele><time>2026-04-26T10:57:58.006Z</time></trkpt><trkpt lat="43.145918" lon="11.4125971"><ele>255.66666666666666</ele><time>2026-04-26T10:57:59.013Z</time></trkpt><trkpt lat="43.1458771" lon="11.4128068"><ele>253.0</ele><time>2026-04-26T10:58:00.006Z</time></trkpt><trkpt lat="43.1458323" lon="11.4130085"><ele>252.66666666666666</ele><time>2026-04-26T10:58:01.021Z</time></trkpt><trkpt lat="43.1457727" lon="11.4131967"><ele>252.33333333333331</ele><time>2026-04-26T10:58:02.009Z</time></trkpt><trkpt lat="43.1456942" lon="11.4133763"><ele>252.0</ele><time>2026-04-26T10:58:03.016Z</time></trkpt><trkpt lat="43.1455992" lon="11.4135454"><ele>250.5</ele><time>2026-04-26T10:58:03.996Z</time></trkpt><trkpt lat="43.145492" lon="11.4136977"><ele>249.0</ele><time>2026-04-26T10:58:04.996Z</time></trkpt><trkpt lat="43.1453905" lon="11.4138328"><ele>247.5</ele><time>2026-04-26T10:58:06Z</time></trkpt><trkpt lat="43.1453096" lon="11.4139671"><ele>246.0</ele><time>2026-04-26T10:58:07.002Z</time></trkpt><trkpt lat="43.1452521" lon="11.4141102"><ele>245.0</ele><time>2026-04-26T10:58:07.983Z</time></trkpt><trkpt lat="43.1452191" lon="11.4142657"><ele>244.0</ele><time>2026-04-26T10:58:09.005Z</time></trkpt><trkpt lat="43.1452129" lon="11.4144303"><ele>243.0</ele><time>2026-04-26T10:58:10.007Z</time></trkpt><trkpt lat="43.1452336" lon="11.4145974"><ele>242.0</ele><time>2026-04-26T10:58:10.98Z</time></trkpt><trkpt lat="43.1452905" lon="11.41476"><ele>240.0</ele><time>2026-04-26T10:58:11.99Z</time></trkpt><trkpt lat="43.145384" lon="11.4149222"><ele>238.0</ele><time>2026-04-26T10:58:13.001Z</time></trkpt><trkpt lat="43.1454942" lon="11.4150894"><ele>236.0</ele><time>2026-04-26T10:58:14.011Z</time></trkpt><trkpt lat="43.1455994" lon="11.4152588"><ele>236.0</ele><time>2026-04-26T10:58:15.002Z</time></trkpt><trkpt lat="43.1456838" lon="11.4154352"><ele>236.0</ele><time>2026-04-26T10:58:16.001Z</time></trkpt><trkpt lat="43.1457426" lon="11.4156264"><ele>236.0</ele><time>2026-04-26T10:58:17.006Z</time></trkpt><trkpt lat="43.1457737" lon="11.4158396"><ele>236.0</ele><time>2026-04-26T10:58:17.991Z</time></trkpt><trkpt lat="43.1457789" lon="11.4160728"><ele>236.0</ele><time>2026-04-26T10:58:19.003Z</time></trkpt><trkpt lat="43.145764" lon="11.4163055"><ele>236.0</ele><time>2026-04-26T10:58:20.006Z</time></trkpt><trkpt lat="43.1457401" lon="11.4165274"><ele>236.0</ele><time>2026-04-26T10:58:21.003Z</time></trkpt><trkpt lat="43.1457166" lon="11.4167404"><ele>236.0</ele><time>2026-04-26T10:58:21.991Z</time></trkpt><trkpt lat="43.14569" lon="11.4169472"><ele>236.0</ele><time>2026-04-26T10:58:23.002Z</time></trkpt><trkpt lat="43.145655" lon="11.4171492"><ele>229.66666666666669</ele><time>2026-04-26T10:58:23.994Z</time></trkpt><trkpt lat="43.145605" lon="11.417356"><ele>223.33333333333331</ele><time>2026-04-26T10:58:25.003Z</time></trkpt><trkpt lat="43.145543" lon="11.417562"><ele>217.0</ele><time>2026-04-26T10:58:26Z</time></trkpt><trkpt lat="43.1454809" lon="11.4177681"><ele>217.0</ele><time>2026-04-26T10:58:27.021Z</time></trkpt><trkpt lat="43.1454265" lon="11.417964"><ele>217.0</ele><time>2026-04-26T10:58:28.004Z</time></trkpt><trkpt lat="43.1453808" lon="11.4181601"><ele>217.0</ele><time>2026-04-26T10:58:29.004Z</time></trkpt><trkpt lat="43.145354" lon="11.418363"><ele>216.0</ele><time>2026-04-26T10:58:29.991Z</time></trkpt><trkpt lat="43.1453457" lon="11.4185764"><ele>215.0</ele><time>2026-04-26T10:58:30.993Z</time></trkpt><trkpt lat="43.1453433" lon="11.4187883"><ele>214.0</ele><time>2026-04-26T10:58:31.983Z</time></trkpt><trkpt lat="43.1453382" lon="11.4189919"><ele>213.75</ele><time>2026-04-26T10:58:32.981Z</time></trkpt><trkpt lat="43.1453242" lon="11.4191863"><ele>213.5</ele><time>2026-04-26T10:58:33.977Z</time></trkpt><trkpt lat="43.1452978" lon="11.4193711"><ele>213.25</ele><time>2026-04-26T10:58:34.979Z</time></trkpt><trkpt lat="43.1452592" lon="11.4195452"><ele>213.0</ele><time>2026-04-26T10:58:35.99Z</time></trkpt><trkpt lat="43.1452169" lon="11.419714"><ele>212.25</ele><time>2026-04-26T10:58:37.01Z</time></trkpt><trkpt lat="43.1451805" lon="11.4198915"><ele>211.5</ele><time>2026-04-26T10:58:38Z</time></trkpt><trkpt lat="43.145154" lon="11.4200888"><ele>210.75</ele><time>2026-04-26T10:58:39.001Z</time></trkpt><trkpt lat="43.1451433" lon="11.4202898"><ele>210.0</ele><time>2026-04-26T10:58:39.994Z</time></trkpt><trkpt lat="43.1451471" lon="11.4204842"><ele>209.25</ele><time>2026-04-26T10:58:41.01Z</time></trkpt><trkpt lat="43.1451542" lon="11.4206663"><ele>208.5</ele><time>2026-04-26T10:58:41.996Z</time></trkpt><trkpt lat="43.1451555" lon="11.4208377"><ele>207.75</ele><time>2026-04-26T10:58:43.03Z</time></trkpt><trkpt lat="43.1451439" lon="11.4209956"><ele>207.0</ele><time>2026-04-26T10:58:44.024Z</time></trkpt><trkpt lat="43.1451165" lon="11.421151"><ele>207.0</ele><time>2026-04-26T10:58:45.037Z</time></trkpt><trkpt lat="43.1450708" lon="11.4212899"><ele>207.0</ele><time>2026-04-26T10:58:45.99Z</time></trkpt><trkpt lat="43.1450001" lon="11.4214128"><ele>207.0</ele><time>2026-04-26T10:58:47.005Z</time></trkpt><trkpt lat="43.1449054" lon="11.4215184"><ele>207.0</ele><time>2026-04-26T10:58:48.017Z</time></trkpt><trkpt lat="43.1447914" lon="11.4216095"><ele>205.66666666666669</ele><time>2026-04-26T10:58:49.004Z</time></trkpt><trkpt lat="43.1446575" lon="11.4216797"><ele>204.33333333333334</ele><time>2026-04-26T10:58:50.006Z</time></trkpt><trkpt lat="43.1445099" lon="11.4217308"><ele>203.0</ele><time>2026-04-26T10:58:51.008Z</time></trkpt><trkpt lat="43.1443549" lon="11.4217707"><ele>203.0</ele><time>2026-04-26T10:58:51.996Z</time></trkpt><trkpt lat="43.144193" lon="11.4218013"><ele>203.0</ele><time>2026-04-26T10:58:53.005Z</time></trkpt><trkpt lat="43.1440234" lon="11.4218166"><ele>203.0</ele><time>2026-04-26T10:58:53.995Z</time></trkpt><trkpt lat="43.1438471" lon="11.421814"><ele>201.66666666666669</ele><time>2026-04-26T10:58:55.007Z</time></trkpt><trkpt lat="43.1436717" lon="11.421787"><ele>200.33333333333331</ele><time>2026-04-26T10:58:55.987Z</time></trkpt><trkpt lat="43.1434926" lon="11.4217362"><ele>199.0</ele><time>2026-04-26T10:58:56.985Z</time></trkpt><trkpt lat="43.1433116" lon="11.4216701"><ele>198.66666666666666</ele><time>2026-04-26T10:58:57.971Z</time></trkpt><trkpt lat="43.1431301" lon="11.4216026"><ele>198.33333333333331</ele><time>2026-04-26T10:58:58.983Z</time></trkpt><trkpt lat="43.142958" lon="11.4215397"><ele>198.0</ele><time>2026-04-26T10:58:59.986Z</time></trkpt><trkpt lat="43.1427942" lon="11.4214812"><ele>198.0</ele><time>2026-04-26T10:59:00.988Z</time></trkpt><trkpt lat="43.1426388" lon="11.4214285"><ele>198.0</ele><time>2026-04-26T10:59:01.987Z</time></trkpt><trkpt lat="43.1424884" lon="11.4213933"><ele>198.0</ele><time>2026-04-26T10:59:02.992Z</time></trkpt><trkpt lat="43.1423368" lon="11.4213915"><ele>196.33333333333331</ele><time>2026-04-26T10:59:04.002Z</time></trkpt><trkpt lat="43.1421738" lon="11.421426"><ele>194.66666666666666</ele><time>2026-04-26T10:59:05.009Z</time></trkpt><trkpt lat="43.1420034" lon="11.4214886"><ele>193.0</ele><time>2026-04-26T10:59:05.995Z</time></trkpt><trkpt lat="43.1418377" lon="11.4215615"><ele>193.0</ele><time>2026-04-26T10:59:07.014Z</time></trkpt><trkpt lat="43.1416818" lon="11.4216157"><ele>193.0</ele><time>2026-04-26T10:59:07.995Z</time></trkpt><trkpt lat="43.1415282" lon="11.4216349"><ele>193.0</ele><time>2026-04-26T10:59:09.01Z</time></trkpt><trkpt lat="43.1413785" lon="11.4216109"><ele>191.66666666666666</ele><time>2026-04-26T10:59:09.995Z</time></trkpt><trkpt lat="43.141231" lon="11.4215343"><ele>190.33333333333331</ele><time>2026-04-26T10:59:11.005Z</time></trkpt><trkpt lat="43.1410911" lon="11.4214124"><ele>189.0</ele><time>2026-04-26T10:59:12.007Z</time></trkpt><trkpt lat="43.1409559" lon="11.4212686"><ele>189.0</ele><time>2026-04-26T10:59:12.996Z</time></trkpt><trkpt lat="43.1408198" lon="11.4211197"><ele>189.0</ele><time>2026-04-26T10:59:14.003Z</time></trkpt><trkpt lat="43.1406868" lon="11.4209854"><ele>189.0</ele><time>2026-04-26T10:59:15.006Z</time></trkpt><trkpt lat="43.1405506" lon="11.4208763"><ele>192.33333333333331</ele><time>2026-04-26T10:59:16.008Z</time></trkpt><trkpt lat="43.1404051" lon="11.4207936"><ele>195.66666666666666</ele><time>2026-04-26T10:59:17.005Z</time></trkpt><trkpt lat="43.1402503" lon="11.4207372"><ele>199.0</ele><time>2026-04-26T10:59:17.994Z</time></trkpt><trkpt lat="43.140085" lon="11.420711"><ele>199.0</ele><time>2026-04-26T10:59:18.992Z</time></trkpt><trkpt lat="43.13991" lon="11.4207172"><ele>199.0</ele><time>2026-04-26T10:59:19.983Z</time></trkpt><trkpt lat="43.1397263" lon="11.4207481"><ele>199.0</ele><time>2026-04-26T10:59:20.986Z</time></trkpt><trkpt lat="43.1395478" lon="11.4207966"><ele>199.33333333333331</ele><time>2026-04-26T10:59:21.973Z</time></trkpt><trkpt lat="43.1393761" lon="11.4208736"><ele>199.66666666666669</ele><time>2026-04-26T10:59:22.979Z</time></trkpt><trkpt lat="43.139209" lon="11.420978"><ele>200.0</ele><time>2026-04-26T10:59:23.989Z</time></trkpt><trkpt lat="43.1390474" lon="11.4210834"><ele>200.33333333333334</ele><time>2026-04-26T10:59:24.995Z</time></trkpt><trkpt lat="43.1388919" lon="11.4211674"><ele>200.66666666666669</ele><time>2026-04-26T10:59:26.003Z</time></trkpt><trkpt lat="43.1387473" lon="11.4212235"><ele>201.0</ele><time>2026-04-26T10:59:26.985Z</time></trkpt><trkpt lat="43.1386127" lon="11.4212673"><ele>201.0</ele><time>2026-04-26T10:59:28.006Z</time></trkpt><trkpt lat="43.1384937" lon="11.4213104"><ele>201.0</ele><time>2026-04-26T10:59:28.993Z</time></trkpt><trkpt lat="43.1383843" lon="11.4213643"><ele>201.0</ele><time>2026-04-26T10:59:29.998Z</time></trkpt><trkpt lat="43.1382808" lon="11.4214342"><ele>201.0</ele><time>2026-04-26T10:59:31.005Z</time></trkpt><trkpt lat="43.1381829" lon="11.4215226"><ele>201.0</ele><time>2026-04-26T10:59:31.998Z</time></trkpt><trkpt lat="43.1380951" lon="11.4216391"><ele>201.0</ele><time>2026-04-26T10:59:33Z</time></trkpt><trkpt lat="43.1380212" lon="11.4217822"><ele>201.0</ele><time>2026-04-26T10:59:34.009Z</time></trkpt><trkpt lat="43.1379539" lon="11.4219381"><ele>201.0</ele><time>2026-04-26T10:59:35.007Z</time></trkpt><trkpt lat="43.1378798" lon="11.4220954"><ele>202.75</ele><time>2026-04-26T10:59:35.999Z</time></trkpt><trkpt lat="43.1377888" lon="11.4222415"><ele>204.5</ele><time>2026-04-26T10:59:37.015Z</time></trkpt><trkpt lat="43.1376794" lon="11.4223614"><ele>206.25</ele><time>2026-04-26T10:59:38.002Z</time></trkpt><trkpt lat="43.1375507" lon="11.4224576"><ele>208.0</ele><time>2026-04-26T10:59:39.009Z</time></trkpt><trkpt lat="43.1374103" lon="11.4225284"><ele>208.0</ele><time>2026-04-26T10:59:39.986Z</time></trkpt><trkpt lat="43.1372586" lon="11.4225831"><ele>208.0</ele><time>2026-04-26T10:59:41.01Z</time></trkpt><trkpt lat="43.1371066" lon="11.4226297"><ele>208.0</ele><time>2026-04-26T10:59:41.995Z</time></trkpt><trkpt lat="43.1369603" lon="11.4226803"><ele>208.0</ele><time>2026-04-26T10:59:42.999Z</time></trkpt><trkpt lat="43.1368324" lon="11.4227419"><ele>208.0</ele><time>2026-04-26T10:59:44.002Z</time></trkpt><trkpt lat="43.1367177" lon="11.4228269"><ele>208.0</ele><time>2026-04-26T10:59:44.98Z</time></trkpt><trkpt lat="43.136608" lon="11.4229439"><ele>208.0</ele><time>2026-04-26T10:59:45.985Z</time></trkpt><trkpt lat="43.1365097" lon="11.4230945"><ele>208.33333333333331</ele><time>2026-04-26T10:59:47.007Z</time></trkpt><trkpt lat="43.136425" lon="11.4232734"><ele>208.66666666666669</ele><time>2026-04-26T10:59:47.985Z</time></trkpt><trkpt lat="43.1363503" lon="11.4234613"><ele>209.0</ele><time>2026-04-26T10:59:49.001Z</time></trkpt><trkpt lat="43.1362794" lon="11.4236318"><ele>209.0</ele><time>2026-04-26T10:59:49.984Z</time></trkpt><trkpt lat="43.1361911" lon="11.4237965"><ele>209.0</ele><time>2026-04-26T10:59:50.998Z</time></trkpt><trkpt lat="43.1360826" lon="11.4239568"><ele>209.0</ele><time>2026-04-26T10:59:52.011Z</time></trkpt><trkpt lat="43.1359593" lon="11.4241092"><ele>211.0</ele><time>2026-04-26T10:59:52.999Z</time></trkpt><trkpt lat="43.1358272" lon="11.4242563"><ele>213.0</ele><time>2026-04-26T10:59:54.004Z</time></trkpt><trkpt lat="43.1356926" lon="11.4243993"><ele>215.0</ele><time>2026-04-26T10:59:55.006Z</time></trkpt><trkpt lat="43.1355585" lon="11.4245405"><ele>218.66666666666669</ele><time>2026-04-26T10:59:55.997Z</time></trkpt><trkpt lat="43.1354236" lon="11.4246798"><ele>222.33333333333331</ele><time>2026-04-26T10:59:57.005Z</time></trkpt><trkpt lat="43.1352892" lon="11.4248208"><ele>226.0</ele><time>2026-04-26T10:59:57.99Z</time></trkpt><trkpt lat="43.1351499" lon="11.4249688"><ele>226.0</ele><time>2026-04-26T10:59:59.002Z</time></trkpt><trkpt lat="43.1350099" lon="11.4251207"><ele>226.0</ele><time>2026-04-26T10:59:59.989Z</time></trkpt><trkpt lat="43.1348669" lon="11.4252743"><ele>226.0</ele><time>2026-04-26T11:00:01.004Z</time></trkpt><trkpt lat="43.1347215" lon="11.4254264"><ele>232.0</ele><time>2026-04-26T11:00:01.98Z</time></trkpt><trkpt lat="43.1345684" lon="11.4255842"><ele>238.0</ele><time>2026-04-26T11:00:02.983Z</time></trkpt><trkpt lat="43.134413" lon="11.4257409"><ele>244.0</ele><time>2026-04-26T11:00:03.987Z</time></trkpt><trkpt lat="43.1342594" lon="11.4258996"><ele>244.0</ele><time>2026-04-26T11:00:04.977Z</time></trkpt><trkpt lat="43.1341127" lon="11.4260562"><ele>244.0</ele><time>2026-04-26T11:00:05.984Z</time></trkpt><trkpt lat="43.1339769" lon="11.4261955"><ele>244.0</ele><time>2026-04-26T11:00:06.974Z</time></trkpt><trkpt lat="43.1338372" lon="11.4263156"><ele>245.66666666666666</ele><time>2026-04-26T11:00:07.979Z</time></trkpt><trkpt lat="43.1336893" lon="11.4264083"><ele>247.33333333333331</ele><time>2026-04-26T11:00:08.97Z</time></trkpt><trkpt lat="43.1335307" lon="11.4264696"><ele>249.0</ele><time>2026-04-26T11:00:09.971Z</time></trkpt><trkpt lat="43.133361" lon="11.4264988"><ele>248.66666666666669</ele><time>2026-04-26T11:00:10.96Z</time></trkpt><trkpt lat="43.1331797" lon="11.4265077"><ele>248.33333333333334</ele><time>2026-04-26T11:00:11.976Z</time></trkpt><trkpt lat="43.1329953" lon="11.42651"><ele>248.0</ele><time>2026-04-26T11:00:12.966Z</time></trkpt><trkpt lat="43.1328066" lon="11.4265175"><ele>248.0</ele><time>2026-04-26T11:00:13.972Z</time></trkpt><trkpt lat="43.1326155" lon="11.4265293"><ele>248.0</ele><time>2026-04-26T11:00:14.987Z</time></trkpt><trkpt lat="43.1324253" lon="11.4265408"><ele>248.0</ele><time>2026-04-26T11:00:15.976Z</time></trkpt><trkpt lat="43.1322392" lon="11.4265493"><ele>248.33333333333334</ele><time>2026-04-26T11:00:16.993Z</time></trkpt><trkpt lat="43.132069" lon="11.4265552"><ele>248.66666666666669</ele><time>2026-04-26T11:00:17.999Z</time></trkpt><trkpt lat="43.1319143" lon="11.4265627"><ele>249.0</ele><time>2026-04-26T11:00:18.976Z</time></trkpt><trkpt lat="43.131768" lon="11.4265695"><ele>249.0</ele><time>2026-04-26T11:00:19.995Z</time></trkpt><trkpt lat="43.1316243" lon="11.4265761"><ele>249.0</ele><time>2026-04-26T11:00:21.028Z</time></trkpt><trkpt lat="43.1314819" lon="11.4265839"><ele>249.0</ele><time>2026-04-26T11:00:22.005Z</time></trkpt><trkpt lat="43.1313419" lon="11.4266003"><ele>249.0</ele><time>2026-04-26T11:00:22.986Z</time></trkpt><trkpt lat="43.1312069" lon="11.4266482"><ele>249.33333333333331</ele><time>2026-04-26T11:00:23.991Z</time></trkpt><trkpt lat="43.1310766" lon="11.426736"><ele>249.66666666666666</ele><time>2026-04-26T11:00:25Z</time></trkpt><trkpt lat="43.1309474" lon="11.4268492"><ele>250.0</ele><time>2026-04-26T11:00:25.987Z</time></trkpt><trkpt lat="43.1308175" lon="11.4269876"><ele>249.0</ele><time>2026-04-26T11:00:27.006Z</time></trkpt><trkpt lat="43.1306891" lon="11.4271402"><ele>248.0</ele><time>2026-04-26T11:00:27.991Z</time></trkpt><trkpt lat="43.1305564" lon="11.4273003"><ele>247.0</ele><time>2026-04-26T11:00:28.985Z</time></trkpt><trkpt lat="43.1304181" lon="11.4274627"><ele>247.0</ele><time>2026-04-26T11:00:30Z</time></trkpt><trkpt lat="43.1302785" lon="11.4276266"><ele>247.0</ele><time>2026-04-26T11:00:30.986Z</time></trkpt><trkpt lat="43.1301363" lon="11.4277936"><ele>247.0</ele><time>2026-04-26T11:00:31.991Z</time></trkpt><trkpt lat="43.1299944" lon="11.4279608"><ele>248.66666666666666</ele><time>2026-04-26T11:00:32.996Z</time></trkpt><trkpt lat="43.1298566" lon="11.4281287"><ele>250.33333333333331</ele><time>2026-04-26T11:00:33.986Z</time></trkpt><trkpt lat="43.1297262" lon="11.4283055"><ele>252.0</ele><time>2026-04-26T11:00:34.983Z</time></trkpt><trkpt lat="43.1296051" lon="11.4285054"><ele>252.0</ele><time>2026-04-26T11:00:35.963Z</time></trkpt><trkpt lat="43.129493" lon="11.4287455"><ele>252.0</ele><time>2026-04-26T11:00:36.973Z</time></trkpt><trkpt lat="43.1293992" lon="11.4290193"><ele>252.0</ele><time>2026-04-26T11:00:37.985Z</time></trkpt><trkpt lat="43.1293152" lon="11.4293178"><ele>251.0</ele><time>2026-04-26T11:00:38.999Z</time></trkpt><trkpt lat="43.1292317" lon="11.4296253"><ele>250.0</ele><time>2026-04-26T11:00:40.001Z</time></trkpt><trkpt lat="43.1291454" lon="11.4299268"><ele>250.0</ele><time>2026-04-26T11:00:40.98Z</time></trkpt><trkpt lat="43.1290614" lon="11.4302188"><ele>250.0</ele><time>2026-04-26T11:00:41.989Z</time></trkpt><trkpt lat="43.1289844" lon="11.4304862"><ele>250.0</ele><time>2026-04-26T11:00:42.981Z</time></trkpt><trkpt lat="43.1289127" lon="11.430739"><ele>252.33333333333331</ele><time>2026-04-26T11:00:44.001Z</time></trkpt><trkpt lat="43.128848" lon="11.4309865"><ele>254.66666666666669</ele><time>2026-04-26T11:00:44.984Z</time></trkpt><trkpt lat="43.1287834" lon="11.4312485"><ele>257.0</ele><time>2026-04-26T11:00:45.986Z</time></trkpt><trkpt lat="43.1287191" lon="11.4315162"><ele>258.33333333333337</ele><time>2026-04-26T11:00:46.975Z</time></trkpt><trkpt lat="43.1286605" lon="11.4317775"><ele>259.6666666666667</ele><time>2026-04-26T11:00:47.983Z</time></trkpt><trkpt lat="43.1286135" lon="11.4320246"><ele>261.0</ele><time>2026-04-26T11:00:48.986Z</time></trkpt><trkpt lat="43.1285864" lon="11.4322706"><ele>261.0</ele><time>2026-04-26T11:00:49.973Z</time></trkpt><trkpt lat="43.1285837" lon="11.4325294"><ele>261.0</ele><time>2026-04-26T11:00:50.983Z</time></trkpt><trkpt lat="43.1286077" lon="11.4328011"><ele>261.0</ele><time>2026-04-26T11:00:51.985Z</time></trkpt><trkpt lat="43.1286394" lon="11.4330758"><ele>261.0</ele><time>2026-04-26T11:00:52.972Z</time></trkpt><trkpt lat="43.1286657" lon="11.4333432"><ele>261.0</ele><time>2026-04-26T11:00:53.981Z</time></trkpt><trkpt lat="43.128695" lon="11.4335922"><ele>261.0</ele><time>2026-04-26T11:00:54.99Z</time></trkpt><trkpt lat="43.1287431" lon="11.4338294"><ele>261.0</ele><time>2026-04-26T11:00:55.979Z</time></trkpt><trkpt lat="43.1288216" lon="11.4340662"><ele>261.0</ele><time>2026-04-26T11:00:56.983Z</time></trkpt><trkpt lat="43.1289263" lon="11.4342984"><ele>261.0</ele><time>2026-04-26T11:00:57.973Z</time></trkpt><trkpt lat="43.1290459" lon="11.434531"><ele>259.0</ele><time>2026-04-26T11:00:58.983Z</time></trkpt><trkpt lat="43.129175" lon="11.4347619"><ele>257.0</ele><time>2026-04-26T11:00:59.968Z</time></trkpt><trkpt lat="43.1293093" lon="11.4350019"><ele>255.0</ele><time>2026-04-26T11:01:00.985Z</time></trkpt><trkpt lat="43.1294374" lon="11.4352398"><ele>255.0</ele><time>2026-04-26T11:01:01.99Z</time></trkpt><trkpt lat="43.129557" lon="11.4354654"><ele>255.0</ele><time>2026-04-26T11:01:02.983Z</time></trkpt><trkpt lat="43.1296675" lon="11.4356862"><ele>255.0</ele><time>2026-04-26T11:01:04.013Z</time></trkpt><trkpt lat="43.1297607" lon="11.4358994"><ele>253.66666666666669</ele><time>2026-04-26T11:01:04.991Z</time></trkpt><trkpt lat="43.129837" lon="11.4361241"><ele>252.33333333333334</ele><time>2026-04-26T11:01:05.994Z</time></trkpt><trkpt lat="43.1298958" lon="11.436367"><ele>251.0</ele><time>2026-04-26T11:01:07.002Z</time></trkpt><trkpt lat="43.1299364" lon="11.436626"><ele>250.0</ele><time>2026-04-26T11:01:07.992Z</time></trkpt><trkpt lat="43.129959" lon="11.4369007"><ele>249.0</ele><time>2026-04-26T11:01:09.007Z</time></trkpt><trkpt lat="43.1299689" lon="11.4371848"><ele>248.0</ele><time>2026-04-26T11:01:09.993Z</time></trkpt><trkpt lat="43.1299788" lon="11.4374834"><ele>247.66666666666669</ele><time>2026-04-26T11:01:11.01Z</time></trkpt><trkpt lat="43.1299892" lon="11.4377849"><ele>247.33333333333331</ele><time>2026-04-26T11:01:11.995Z</time></trkpt><trkpt lat="43.1300014" lon="11.4380944"><ele>247.0</ele><time>2026-04-26T11:01:13.008Z</time></trkpt><trkpt lat="43.130011" lon="11.4384025"><ele>247.0</ele><time>2026-04-26T11:01:13.998Z</time></trkpt><trkpt lat="43.1300208" lon="11.4387178"><ele>247.0</ele><time>2026-04-26T11:01:15.006Z</time></trkpt><trkpt lat="43.1300313" lon="11.4390255"><ele>247.66666666666666</ele><time>2026-04-26T11:01:15.993Z</time></trkpt><trkpt lat="43.130044" lon="11.439316"><ele>248.33333333333331</ele><time>2026-04-26T11:01:17.009Z</time></trkpt><trkpt lat="43.1300608" lon="11.4395933"><ele>249.0</ele><time>2026-04-26T11:01:17.99Z</time></trkpt><trkpt lat="43.1300776" lon="11.4398822"><ele>250.0</ele><time>2026-04-26T11:01:19.001Z</time></trkpt><trkpt lat="43.1300927" lon="11.4401736"><ele>251.0</ele><time>2026-04-26T11:01:19.989Z</time></trkpt><trkpt lat="43.1301063" lon="11.4404567"><ele>252.0</ele><time>2026-04-26T11:01:20.995Z</time></trkpt><trkpt lat="43.1301205" lon="11.4407221"><ele>252.0</ele><time>2026-04-26T11:01:21.996Z</time></trkpt><trkpt lat="43.1301311" lon="11.440974"><ele>252.0</ele><time>2026-04-26T11:01:22.976Z</time></trkpt><trkpt lat="43.1301381" lon="11.4412201"><ele>252.0</ele><time>2026-04-26T11:01:23.982Z</time></trkpt><trkpt lat="43.1301339" lon="11.4414561"><ele>252.0</ele><time>2026-04-26T11:01:24.96Z</time></trkpt><trkpt lat="43.1301046" lon="11.4416937"><ele>252.0</ele><time>2026-04-26T11:01:25.967Z</time></trkpt><trkpt lat="43.1300436" lon="11.4419248"><ele>252.0</ele><time>2026-04-26T11:01:26.975Z</time></trkpt><trkpt lat="43.1299479" lon="11.4421395"><ele>251.33333333333331</ele><time>2026-04-26T11:01:27.977Z</time></trkpt><trkpt lat="43.1298212" lon="11.442339"><ele>250.66666666666666</ele><time>2026-04-26T11:01:28.982Z</time></trkpt><trkpt lat="43.1296747" lon="11.442532"><ele>250.0</ele><time>2026-04-26T11:01:29.981Z</time></trkpt><trkpt lat="43.1295186" lon="11.442726"><ele>250.0</ele><time>2026-04-26T11:01:30.981Z</time></trkpt><trkpt lat="43.1293609" lon="11.4429258"><ele>250.0</ele><time>2026-04-26T11:01:31.987Z</time></trkpt><trkpt lat="43.1292076" lon="11.443128"><ele>250.0</ele><time>2026-04-26T11:01:32.97Z</time></trkpt><trkpt lat="43.1290544" lon="11.4433243"><ele>250.0</ele><time>2026-04-26T11:01:33.976Z</time></trkpt><trkpt lat="43.1288977" lon="11.4435032"><ele>250.0</ele><time>2026-04-26T11:01:34.984Z</time></trkpt><trkpt lat="43.1287391" lon="11.4436677"><ele>250.0</ele><time>2026-04-26T11:01:35.985Z</time></trkpt><trkpt lat="43.1285776" lon="11.443828"><ele>250.0</ele><time>2026-04-26T11:01:36.994Z</time></trkpt><trkpt lat="43.128411" lon="11.4439892"><ele>250.0</ele><time>2026-04-26T11:01:37.975Z</time></trkpt><trkpt lat="43.1282342" lon="11.4441556"><ele>250.0</ele><time>2026-04-26T11:01:38.984Z</time></trkpt><trkpt lat="43.1280586" lon="11.4443222"><ele>248.66666666666666</ele><time>2026-04-26T11:01:39.986Z</time></trkpt><trkpt lat="43.1278867" lon="11.4444808"><ele>247.33333333333331</ele><time>2026-04-26T11:01:41.001Z</time></trkpt><trkpt lat="43.1277231" lon="11.4446302"><ele>246.0</ele><time>2026-04-26T11:01:41.989Z</time></trkpt><trkpt lat="43.1275648" lon="11.4447769"><ele>245.0</ele><time>2026-04-26T11:01:42.995Z</time></trkpt><trkpt lat="43.1274185" lon="11.4449248"><ele>244.0</ele><time>2026-04-26T11:01:44Z</time></trkpt><trkpt lat="43.1272866" lon="11.4450762"><ele>243.0</ele><time>2026-04-26T11:01:45.007Z</time></trkpt><trkpt lat="43.1271751" lon="11.4452394"><ele>243.0</ele><time>2026-04-26T11:01:45.994Z</time></trkpt><trkpt lat="43.1270845" lon="11.4454296"><ele>243.0</ele><time>2026-04-26T11:01:46.996Z</time></trkpt><trkpt lat="43.1270138" lon="11.4456409"><ele>243.0</ele><time>2026-04-26T11:01:47.97Z</time></trkpt><trkpt lat="43.1269596" lon="11.4458604"><ele>242.66666666666669</ele><time>2026-04-26T11:01:48.975Z</time></trkpt><trkpt lat="43.1269098" lon="11.4460655"><ele>242.33333333333334</ele><time>2026-04-26T11:01:49.962Z</time></trkpt><trkpt lat="43.1268445" lon="11.4462528"><ele>242.0</ele><time>2026-04-26T11:01:50.968Z</time></trkpt><trkpt lat="43.126754" lon="11.446422"><ele>240.33333333333334</ele><time>2026-04-26T11:01:51.981Z</time></trkpt><trkpt lat="43.1266411" lon="11.4465831"><ele>238.66666666666669</ele><time>2026-04-26T11:01:52.983Z</time></trkpt><trkpt lat="43.1265093" lon="11.44674"><ele>237.0</ele><time>2026-04-26T11:01:53.992Z</time></trkpt><trkpt lat="43.1263678" lon="11.4468945"><ele>236.33333333333331</ele><time>2026-04-26T11:01:55.001Z</time></trkpt><trkpt lat="43.1262232" lon="11.4470484"><ele>235.66666666666666</ele><time>2026-04-26T11:01:55.992Z</time></trkpt><trkpt lat="43.1260778" lon="11.4472062"><ele>235.0</ele><time>2026-04-26T11:01:56.993Z</time></trkpt><trkpt lat="43.1259326" lon="11.4473636"><ele>235.0</ele><time>2026-04-26T11:01:57.995Z</time></trkpt><trkpt lat="43.1257875" lon="11.4475196"><ele>235.0</ele><time>2026-04-26T11:01:58.997Z</time></trkpt><trkpt lat="43.1256432" lon="11.4476741"><ele>235.0</ele><time>2026-04-26T11:01:59.986Z</time></trkpt><trkpt lat="43.1255007" lon="11.4478245"><ele>236.33333333333331</ele><time>2026-04-26T11:02:00.994Z</time></trkpt><trkpt lat="43.125369" lon="11.4479648"><ele>237.66666666666669</ele><time>2026-04-26T11:02:01.987Z</time></trkpt><trkpt lat="43.125248" lon="11.448095"><ele>239.0</ele><time>2026-04-26T11:02:03.002Z</time></trkpt><trkpt lat="43.1251382" lon="11.44821"><ele>239.0</ele><time>2026-04-26T11:02:04.006Z</time></trkpt><trkpt lat="43.125041" lon="11.4483123"><ele>238.99999999999997</ele><time>2026-04-26T11:02:04.993Z</time></trkpt><trkpt lat="43.1249562" lon="11.448402"><ele>238.99999999999997</ele><time>2026-04-26T11:02:05.997Z</time></trkpt><trkpt lat="43.1248821" lon="11.4484812"><ele>239.0</ele><time>2026-04-26T11:02:07.008Z</time></trkpt><trkpt lat="43.124816" lon="11.4485539"><ele>239.0</ele><time>2026-04-26T11:02:08.006Z</time></trkpt><trkpt lat="43.1247611" lon="11.4486171"><ele>239.2</ele><time>2026-04-26T11:02:08.995Z</time></trkpt><trkpt lat="43.1246764" lon="11.4487198"><ele>239.39999999999998</ele><time>2026-04-26T11:02:10.981Z</time></trkpt><trkpt lat="43.1245691" lon="11.4488388"><ele>239.6</ele><time>2026-04-26T11:02:12.975Z</time></trkpt><trkpt lat="43.1245026" lon="11.4489185"><ele>239.8</ele><time>2026-04-26T11:02:13.975Z</time></trkpt><trkpt lat="43.1244348" lon="11.4490057"><ele>240.0</ele><time>2026-04-26T11:02:14.961Z</time></trkpt><trkpt lat="43.1243672" lon="11.4490872"><ele>239.5</ele><time>2026-04-26T11:02:15.974Z</time></trkpt><trkpt lat="43.1242977" lon="11.4491561"><ele>239.0</ele><time>2026-04-26T11:02:16.983Z</time></trkpt><trkpt lat="43.1242244" lon="11.4492047"><ele>238.5</ele><time>2026-04-26T11:02:17.977Z</time></trkpt><trkpt lat="43.124144" lon="11.4492299"><ele>238.0</ele><time>2026-04-26T11:02:18.992Z</time></trkpt><trkpt lat="43.1240546" lon="11.4492308"><ele>237.5</ele><time>2026-04-26T11:02:20.005Z</time></trkpt><trkpt lat="43.1239566" lon="11.449209"><ele>237.0</ele><time>2026-04-26T11:02:21.007Z</time></trkpt><trkpt lat="43.1238495" lon="11.4491724"><ele>236.25</ele><time>2026-04-26T11:02:21.989Z</time></trkpt><trkpt lat="43.123732" lon="11.4491295"><ele>235.5</ele><time>2026-04-26T11:02:22.987Z</time></trkpt><trkpt lat="43.1236053" lon="11.4490867"><ele>234.75</ele><time>2026-04-26T11:02:23.994Z</time></trkpt><trkpt lat="43.1234687" lon="11.4490432"><ele>234.0</ele><time>2026-04-26T11:02:24.987Z</time></trkpt><trkpt lat="43.1233224" lon="11.4489947"><ele>233.25</ele><time>2026-04-26T11:02:26Z</time></trkpt><trkpt lat="43.1231783" lon="11.4489444"><ele>232.5</ele><time>2026-04-26T11:02:26.986Z</time></trkpt><trkpt lat="43.1230358" lon="11.4488965"><ele>231.75</ele><time>2026-04-26T11:02:27.998Z</time></trkpt><trkpt lat="43.1228997" lon="11.4488524"><ele>231.0</ele><time>2026-04-26T11:02:28.984Z</time></trkpt><trkpt lat="43.1227661" lon="11.4488086"><ele>230.75</ele><time>2026-04-26T11:02:29.991Z</time></trkpt><trkpt lat="43.1226357" lon="11.4487636"><ele>230.5</ele><time>2026-04-26T11:02:30.998Z</time></trkpt><trkpt lat="43.1225025" lon="11.4487144"><ele>230.25</ele><time>2026-04-26T11:02:32.005Z</time></trkpt><trkpt lat="43.1223599" lon="11.4486616"><ele>230.0</ele><time>2026-04-26T11:02:32.992Z</time></trkpt><trkpt lat="43.1222072" lon="11.4486081"><ele>228.0</ele><time>2026-04-26T11:02:33.993Z</time></trkpt><trkpt lat="43.1220503" lon="11.4485522"><ele>226.0</ele><time>2026-04-26T11:02:35Z</time></trkpt><trkpt lat="43.121895" lon="11.448496"><ele>224.0</ele><time>2026-04-26T11:02:35.984Z</time></trkpt><trkpt lat="43.1217471" lon="11.4484387"><ele>224.0</ele><time>2026-04-26T11:02:37Z</time></trkpt><trkpt lat="43.1216156" lon="11.4483781"><ele>224.0</ele><time>2026-04-26T11:02:37.987Z</time></trkpt><trkpt lat="43.1214972" lon="11.4482975"><ele>224.0</ele><time>2026-04-26T11:02:38.99Z</time></trkpt><trkpt lat="43.1213959" lon="11.4481798"><ele>224.0</ele><time>2026-04-26T11:02:39.997Z</time></trkpt><trkpt lat="43.1213109" lon="11.4480211"><ele>221.66666666666669</ele><time>2026-04-26T11:02:41.014Z</time></trkpt><trkpt lat="43.1212354" lon="11.447836"><ele>219.33333333333331</ele><time>2026-04-26T11:02:41.998Z</time></trkpt><trkpt lat="43.121163" lon="11.4476286"><ele>217.0</ele><time>2026-04-26T11:02:43.017Z</time></trkpt><trkpt lat="43.1210959" lon="11.4474126"><ele>217.0</ele><time>2026-04-26T11:02:44.002Z</time></trkpt><trkpt lat="43.1210316" lon="11.4471985"><ele>217.0</ele><time>2026-04-26T11:02:45.008Z</time></trkpt><trkpt lat="43.1209677" lon="11.4469945"><ele>217.0</ele><time>2026-04-26T11:02:45.985Z</time></trkpt><trkpt lat="43.1209041" lon="11.446794"><ele>216.0</ele><time>2026-04-26T11:02:46.991Z</time></trkpt><trkpt lat="43.1208435" lon="11.446604"><ele>215.0</ele><time>2026-04-26T11:02:47.978Z</time></trkpt><trkpt lat="43.1207901" lon="11.4464305"><ele>214.0</ele><time>2026-04-26T11:02:48.977Z</time></trkpt><trkpt lat="43.1207443" lon="11.4462728"><ele>213.0</ele><time>2026-04-26T11:02:49.976Z</time></trkpt><trkpt lat="43.120707" lon="11.4461148"><ele>212.5</ele><time>2026-04-26T11:02:50.983Z</time></trkpt><trkpt lat="43.1206897" lon="11.4459523"><ele>212.0</ele><time>2026-04-26T11:02:51.999Z</time></trkpt><trkpt lat="43.1207047" lon="11.4457821"><ele>211.5</ele><time>2026-04-26T11:02:53Z</time></trkpt><trkpt lat="43.1207514" lon="11.4456009"><ele>211.0</ele><time>2026-04-26T11:02:53.991Z</time></trkpt><trkpt lat="43.1208114" lon="11.445415"><ele>211.0</ele><time>2026-04-26T11:02:54.984Z</time></trkpt><trkpt lat="43.1208588" lon="11.4452353"><ele>211.0</ele><time>2026-04-26T11:02:55.97Z</time></trkpt><trkpt lat="43.1208799" lon="11.4450559"><ele>211.0</ele><time>2026-04-26T11:02:56.985Z</time></trkpt><trkpt lat="43.1208649" lon="11.4448827"><ele>211.0</ele><time>2026-04-26T11:02:57.978Z</time></trkpt><trkpt lat="43.1208065" lon="11.4447207"><ele>208.66666666666666</ele><time>2026-04-26T11:02:58.984Z</time></trkpt><trkpt lat="43.120709" lon="11.4445757"><ele>206.33333333333331</ele><time>2026-04-26T11:02:59.975Z</time></trkpt><trkpt lat="43.1205752" lon="11.4444492"><ele>204.0</ele><time>2026-04-26T11:03:00.971Z</time></trkpt><trkpt lat="43.120412" lon="11.4443326"><ele>204.0</ele><time>2026-04-26T11:03:01.959Z</time></trkpt><trkpt lat="43.1202329" lon="11.444216"><ele>204.0</ele><time>2026-04-26T11:03:02.963Z</time></trkpt><trkpt lat="43.1200562" lon="11.4440983"><ele>204.0</ele><time>2026-04-26T11:03:03.957Z</time></trkpt><trkpt lat="43.1198837" lon="11.443983"><ele>201.33333333333331</ele><time>2026-04-26T11:03:04.965Z</time></trkpt><trkpt lat="43.1197159" lon="11.4438734"><ele>198.66666666666666</ele><time>2026-04-26T11:03:05.971Z</time></trkpt><trkpt lat="43.1195526" lon="11.4437719"><ele>196.0</ele><time>2026-04-26T11:03:06.976Z</time></trkpt><trkpt lat="43.1193958" lon="11.4436754"><ele>194.33333333333331</ele><time>2026-04-26T11:03:07.974Z</time></trkpt><trkpt lat="43.1192506" lon="11.4435704"><ele>192.66666666666666</ele><time>2026-04-26T11:03:08.979Z</time></trkpt><trkpt lat="43.1191191" lon="11.4434613"><ele>191.0</ele><time>2026-04-26T11:03:09.978Z</time></trkpt><trkpt lat="43.1189983" lon="11.4433471"><ele>190.0</ele><time>2026-04-26T11:03:10.982Z</time></trkpt><trkpt lat="43.118889" lon="11.4432227"><ele>189.0</ele><time>2026-04-26T11:03:11.983Z</time></trkpt><trkpt lat="43.1187904" lon="11.4430949"><ele>188.0</ele><time>2026-04-26T11:03:12.985Z</time></trkpt><trkpt lat="43.1186966" lon="11.4429753"><ele>187.0</ele><time>2026-04-26T11:03:13.98Z</time></trkpt><trkpt lat="43.1186056" lon="11.4428644"><ele>184.25</ele><time>2026-04-26T11:03:14.991Z</time></trkpt><trkpt lat="43.1185167" lon="11.442763"><ele>181.5</ele><time>2026-04-26T11:03:15.966Z</time></trkpt><trkpt lat="43.11842" lon="11.4426663"><ele>178.75</ele><time>2026-04-26T11:03:16.975Z</time></trkpt><trkpt lat="43.1183134" lon="11.442582"><ele>176.0</ele><time>2026-04-26T11:03:17.981Z</time></trkpt><trkpt lat="43.1182005" lon="11.4424959"><ele>176.0</ele><time>2026-04-26T11:03:18.988Z</time></trkpt><trkpt lat="43.1180891" lon="11.4424069"><ele>176.0</ele><time>2026-04-26T11:03:19.984Z</time></trkpt><trkpt lat="43.1179812" lon="11.4423237"><ele>176.0</ele><time>2026-04-26T11:03:20.98Z</time></trkpt><trkpt lat="43.1178811" lon="11.442244"><ele>176.0</ele><time>2026-04-26T11:03:21.98Z</time></trkpt><trkpt lat="43.117789" lon="11.442169"><ele>173.8</ele><time>2026-04-26T11:03:22.986Z</time></trkpt><trkpt lat="43.1177015" lon="11.4421005"><ele>171.60000000000002</ele><time>2026-04-26T11:03:23.973Z</time></trkpt><trkpt lat="43.1176144" lon="11.4420443"><ele>169.4</ele><time>2026-04-26T11:03:24.985Z</time></trkpt><trkpt lat="43.1175292" lon="11.4420036"><ele>167.2</ele><time>2026-04-26T11:03:25.973Z</time></trkpt><trkpt lat="43.1174415" lon="11.4419839"><ele>165.0</ele><time>2026-04-26T11:03:26.972Z</time></trkpt><trkpt lat="43.1173488" lon="11.4419903"><ele>165.6</ele><time>2026-04-26T11:03:27.959Z</time></trkpt><trkpt lat="43.1172485" lon="11.442021"><ele>166.2</ele><time>2026-04-26T11:03:28.976Z</time></trkpt><trkpt lat="43.1171494" lon="11.442073"><ele>166.8</ele><time>2026-04-26T11:03:29.977Z</time></trkpt><trkpt lat="43.1170489" lon="11.4421367"><ele>167.4</ele><time>2026-04-26T11:03:30.98Z</time></trkpt><trkpt lat="43.1169407" lon="11.4421995"><ele>168.0</ele><time>2026-04-26T11:03:31.99Z</time></trkpt><trkpt lat="43.1168355" lon="11.4422495"><ele>168.0</ele><time>2026-04-26T11:03:32.995Z</time></trkpt><trkpt lat="43.116731" lon="11.4422734"><ele>168.0</ele><time>2026-04-26T11:03:33.98Z</time></trkpt><trkpt lat="43.116626" lon="11.442267"><ele>168.0</ele><time>2026-04-26T11:03:34.989Z</time></trkpt><trkpt lat="43.1165256" lon="11.4422263"><ele>168.0</ele><time>2026-04-26T11:03:35.976Z</time></trkpt><trkpt lat="43.1164309" lon="11.4421463"><ele>168.0</ele><time>2026-04-26T11:03:36.987Z</time></trkpt><trkpt lat="43.116338" lon="11.4420302"><ele>165.75</ele><time>2026-04-26T11:03:37.992Z</time></trkpt><trkpt lat="43.1162409" lon="11.4418939"><ele>163.5</ele><time>2026-04-26T11:03:38.976Z</time></trkpt><trkpt lat="43.1161338" lon="11.4417543"><ele>161.25</ele><time>2026-04-26T11:03:39.98Z</time></trkpt><trkpt lat="43.1160227" lon="11.441631"><ele>159.0</ele><time>2026-04-26T11:03:40.971Z</time></trkpt><trkpt lat="43.1159149" lon="11.4415188"><ele>159.0</ele><time>2026-04-26T11:03:41.979Z</time></trkpt><trkpt lat="43.1158165" lon="11.4414152"><ele>159.0</ele><time>2026-04-26T11:03:42.983Z</time></trkpt><trkpt lat="43.115728" lon="11.4413283"><ele>159.0</ele><time>2026-04-26T11:03:43.974Z</time></trkpt><trkpt lat="43.1156458" lon="11.4412682"><ele>159.0</ele><time>2026-04-26T11:03:44.987Z</time></trkpt><trkpt lat="43.1155675" lon="11.4412392"><ele>159.0</ele><time>2026-04-26T11:03:45.975Z</time></trkpt><trkpt lat="43.1154907" lon="11.4412336"><ele>157.6</ele><time>2026-04-26T11:03:46.98Z</time></trkpt><trkpt lat="43.1154154" lon="11.4412428"><ele>156.2</ele><time>2026-04-26T11:03:47.988Z</time></trkpt><trkpt lat="43.1153364" lon="11.4412593"><ele>154.79999999999998</ele><time>2026-04-26T11:03:48.983Z</time></trkpt><trkpt lat="43.1152383" lon="11.441281"><ele>153.4</ele><time>2026-04-26T11:03:49.983Z</time></trkpt><trkpt lat="43.1151187" lon="11.4413055"><ele>152.0</ele><time>2026-04-26T11:03:50.969Z</time></trkpt><trkpt lat="43.1149838" lon="11.4413252"><ele>149.25</ele><time>2026-04-26T11:03:51.972Z</time></trkpt><trkpt lat="43.1148475" lon="11.4413384"><ele>146.5</ele><time>2026-04-26T11:03:52.982Z</time></trkpt><trkpt lat="43.1147167" lon="11.4413458"><ele>143.75</ele><time>2026-04-26T11:03:53.99Z</time></trkpt><trkpt lat="43.1145839" lon="11.4413527"><ele>141.0</ele><time>2026-04-26T11:03:54.995Z</time></trkpt><trkpt lat="43.1144474" lon="11.4413637"><ele>141.0</ele><time>2026-04-26T11:03:56.01Z</time></trkpt><trkpt lat="43.1143036" lon="11.4413776"><ele>141.0</ele><time>2026-04-26T11:03:57.012Z</time></trkpt><trkpt lat="43.11415" lon="11.4413877"><ele>141.0</ele><time>2026-04-26T11:03:57.992Z</time></trkpt><trkpt lat="43.1139877" lon="11.4413984"><ele>140.0</ele><time>2026-04-26T11:03:59.004Z</time></trkpt><trkpt lat="43.1138253" lon="11.4414143"><ele>139.0</ele><time>2026-04-26T11:04:00.01Z</time></trkpt><trkpt lat="43.113661" lon="11.4414299"><ele>138.0</ele><time>2026-04-26T11:04:01.014Z</time></trkpt><trkpt lat="43.1134937" lon="11.441446"><ele>138.0</ele><time>2026-04-26T11:04:01.992Z</time></trkpt><trkpt lat="43.1133127" lon="11.4414659"><ele>138.0</ele><time>2026-04-26T11:04:03.007Z</time></trkpt><trkpt lat="43.1131199" lon="11.441486"><ele>138.0</ele><time>2026-04-26T11:04:04.006Z</time></trkpt><trkpt lat="43.1129222" lon="11.4415052"><ele>137.66666666666666</ele><time>2026-04-26T11:04:04.997Z</time></trkpt><trkpt lat="43.1127287" lon="11.4415198"><ele>137.33333333333331</ele><time>2026-04-26T11:04:06.005Z</time></trkpt><trkpt lat="43.1125428" lon="11.4415304"><ele>137.0</ele><time>2026-04-26T11:04:07.004Z</time></trkpt><trkpt lat="43.1123609" lon="11.4415424"><ele>136.66666666666666</ele><time>2026-04-26T11:04:07.989Z</time></trkpt><trkpt lat="43.1121798" lon="11.441559"><ele>136.33333333333334</ele><time>2026-04-26T11:04:09.018Z</time></trkpt><trkpt lat="43.1120129" lon="11.4415753"><ele>136.0</ele><time>2026-04-26T11:04:10.003Z</time></trkpt><trkpt lat="43.1118616" lon="11.4415895"><ele>136.0</ele><time>2026-04-26T11:04:11Z</time></trkpt><trkpt lat="43.1117275" lon="11.441604"><ele>136.0</ele><time>2026-04-26T11:04:11.993Z</time></trkpt><trkpt lat="43.1116029" lon="11.4416191"><ele>136.0</ele><time>2026-04-26T11:04:12.994Z</time></trkpt><trkpt lat="43.1114833" lon="11.4416371"><ele>136.0</ele><time>2026-04-26T11:04:13.982Z</time></trkpt><trkpt lat="43.1113601" lon="11.4416576"><ele>135.75</ele><time>2026-04-26T11:04:14.984Z</time></trkpt><trkpt lat="43.1112327" lon="11.4416781"><ele>135.5</ele><time>2026-04-26T11:04:15.973Z</time></trkpt><trkpt lat="43.1110984" lon="11.4417007"><ele>135.25</ele><time>2026-04-26T11:04:16.983Z</time></trkpt><trkpt lat="43.1109567" lon="11.4417213"><ele>135.0</ele><time>2026-04-26T11:04:17.992Z</time></trkpt><trkpt lat="43.1108033" lon="11.4417304"><ele>134.33333333333334</ele><time>2026-04-26T11:04:19Z</time></trkpt><trkpt lat="43.1106393" lon="11.4417342"><ele>133.66666666666669</ele><time>2026-04-26T11:04:19.988Z</time></trkpt><trkpt lat="43.110464" lon="11.4417445"><ele>133.0</ele><time>2026-04-26T11:04:20.991Z</time></trkpt><trkpt lat="43.110284" lon="11.4417667"><ele>133.0</ele><time>2026-04-26T11:04:21.999Z</time></trkpt><trkpt lat="43.1101036" lon="11.4418042"><ele>133.0</ele><time>2026-04-26T11:04:23.017Z</time></trkpt><trkpt lat="43.1099218" lon="11.4418612"><ele>133.0</ele><time>2026-04-26T11:04:24.039Z</time></trkpt><trkpt lat="43.1097396" lon="11.4419338"><ele>133.0</ele><time>2026-04-26T11:04:25.049Z</time></trkpt><trkpt lat="43.109558" lon="11.4420098"><ele>133.0</ele><time>2026-04-26T11:04:25.999Z</time></trkpt><trkpt lat="43.1093681" lon="11.4420819"><ele>133.0</ele><time>2026-04-26T11:04:27.007Z</time></trkpt><trkpt lat="43.1091771" lon="11.4421423"><ele>133.0</ele><time>2026-04-26T11:04:28.02Z</time></trkpt><trkpt lat="43.1089874" lon="11.4421949"><ele>133.0</ele><time>2026-04-26T11:04:29.003Z</time></trkpt><trkpt lat="43.108799" lon="11.4422417"><ele>133.0</ele><time>2026-04-26T11:04:29.996Z</time></trkpt><trkpt lat="43.1086183" lon="11.4422802"><ele>133.0</ele><time>2026-04-26T11:04:31.025Z</time></trkpt><trkpt lat="43.1084522" lon="11.4423151"><ele>133.0</ele><time>2026-04-26T11:04:32.006Z</time></trkpt><trkpt lat="43.1082879" lon="11.442352"><ele>133.0</ele><time>2026-04-26T11:04:33.014Z</time></trkpt><trkpt lat="43.1081291" lon="11.4423861"><ele>133.25</ele><time>2026-04-26T11:04:34.027Z</time></trkpt><trkpt lat="43.1079829" lon="11.4424151"><ele>133.5</ele><time>2026-04-26T11:04:35.033Z</time></trkpt><trkpt lat="43.1078538" lon="11.4424401"><ele>133.75</ele><time>2026-04-26T11:04:35.997Z</time></trkpt><trkpt lat="43.1077347" lon="11.4424567"><ele>134.0</ele><time>2026-04-26T11:04:37.003Z</time></trkpt><trkpt lat="43.1076295" lon="11.4424566"><ele>134.0</ele><time>2026-04-26T11:04:37.982Z</time></trkpt><trkpt lat="43.1075286" lon="11.4424332"><ele>134.0</ele><time>2026-04-26T11:04:38.98Z</time></trkpt><trkpt lat="43.1074284" lon="11.4423821"><ele>134.0</ele><time>2026-04-26T11:04:39.983Z</time></trkpt><trkpt lat="43.1073295" lon="11.4422947"><ele>134.0</ele><time>2026-04-26T11:04:40.975Z</time></trkpt><trkpt lat="43.1072312" lon="11.4421728"><ele>133.25</ele><time>2026-04-26T11:04:41.982Z</time></trkpt><trkpt lat="43.1071357" lon="11.4420362"><ele>132.5</ele><time>2026-04-26T11:04:42.986Z</time></trkpt><trkpt lat="43.1070419" lon="11.4419008"><ele>131.75</ele><time>2026-04-26T11:04:43.995Z</time></trkpt><trkpt lat="43.1069439" lon="11.4417631"><ele>131.0</ele><time>2026-04-26T11:04:45.009Z</time></trkpt><trkpt lat="43.1068457" lon="11.4416233"><ele>131.0</ele><time>2026-04-26T11:04:45.979Z</time></trkpt><trkpt lat="43.1067413" lon="11.4414703"><ele>131.0</ele><time>2026-04-26T11:04:46.979Z</time></trkpt><trkpt lat="43.1066313" lon="11.4413121"><ele>131.0</ele><time>2026-04-26T11:04:47.987Z</time></trkpt><trkpt lat="43.1065159" lon="11.4411544"><ele>131.0</ele><time>2026-04-26T11:04:48.994Z</time></trkpt><trkpt lat="43.1064016" lon="11.4409949"><ele>131.0</ele><time>2026-04-26T11:04:49.987Z</time></trkpt><trkpt lat="43.1062883" lon="11.4408307"><ele>131.0</ele><time>2026-04-26T11:04:50.988Z</time></trkpt><trkpt lat="43.1061728" lon="11.4406634"><ele>131.0</ele><time>2026-04-26T11:04:51.993Z</time></trkpt><trkpt lat="43.1060556" lon="11.4404943"><ele>131.0</ele><time>2026-04-26T11:04:53.006Z</time></trkpt><trkpt lat="43.1059408" lon="11.4403297"><ele>131.0</ele><time>2026-04-26T11:04:54.015Z</time></trkpt><trkpt lat="43.1058326" lon="11.4401788"><ele>130.75</ele><time>2026-04-26T11:04:55.027Z</time></trkpt><trkpt lat="43.1057293" lon="11.4400454"><ele>130.5</ele><time>2026-04-26T11:04:55.983Z</time></trkpt><trkpt lat="43.1056233" lon="11.4399151"><ele>130.25</ele><time>2026-04-26T11:04:56.99Z</time></trkpt><trkpt lat="43.1055179" lon="11.4397883"><ele>130.0</ele><time>2026-04-26T11:04:57.98Z</time></trkpt><trkpt lat="43.1054151" lon="11.4396607"><ele>129.75</ele><time>2026-04-26T11:04:58.993Z</time></trkpt><trkpt lat="43.1053192" lon="11.4395312"><ele>129.5</ele><time>2026-04-26T11:04:59.988Z</time></trkpt><trkpt lat="43.105227" lon="11.4393924"><ele>129.25</ele><time>2026-04-26T11:05:01Z</time></trkpt><trkpt lat="43.1051391" lon="11.4392423"><ele>129.0</ele><time>2026-04-26T11:05:01.987Z</time></trkpt><trkpt lat="43.1050479" lon="11.4390822"><ele>129.0</ele><time>2026-04-26T11:05:02.998Z</time></trkpt><trkpt lat="43.1049527" lon="11.4389202"><ele>129.0</ele><time>2026-04-26T11:05:03.979Z</time></trkpt><trkpt lat="43.1048498" lon="11.4387558"><ele>129.0</ele><time>2026-04-26T11:05:04.978Z</time></trkpt><trkpt lat="43.1047414" lon="11.4385939"><ele>129.66666666666666</ele><time>2026-04-26T11:05:05.971Z</time></trkpt><trkpt lat="43.1046267" lon="11.4384268"><ele>130.33333333333331</ele><time>2026-04-26T11:05:06.99Z</time></trkpt><trkpt lat="43.1045093" lon="11.4382586"><ele>131.0</ele><time>2026-04-26T11:05:07.99Z</time></trkpt><trkpt lat="43.1043893" lon="11.4380886"><ele>131.0</ele><time>2026-04-26T11:05:08.993Z</time></trkpt><trkpt lat="43.1042651" lon="11.4379167"><ele>131.0</ele><time>2026-04-26T11:05:10.003Z</time></trkpt><trkpt lat="43.1041393" lon="11.4377423"><ele>131.0</ele><time>2026-04-26T11:05:11.011Z</time></trkpt><trkpt lat="43.1040146" lon="11.4375691"><ele>131.33333333333331</ele><time>2026-04-26T11:05:11.995Z</time></trkpt><trkpt lat="43.1038925" lon="11.4374011"><ele>131.66666666666666</ele><time>2026-04-26T11:05:13.007Z</time></trkpt><trkpt lat="43.1037795" lon="11.437249"><ele>132.0</ele><time>2026-04-26T11:05:13.994Z</time></trkpt><trkpt lat="43.1036703" lon="11.4371037"><ele>132.5</ele><time>2026-04-26T11:05:14.995Z</time></trkpt><trkpt lat="43.1035632" lon="11.4369626"><ele>133.0</ele><time>2026-04-26T11:05:15.994Z</time></trkpt><trkpt lat="43.1034607" lon="11.4368205"><ele>133.5</ele><time>2026-04-26T11:05:16.988Z</time></trkpt><trkpt lat="43.1033586" lon="11.4366719"><ele>134.0</ele><time>2026-04-26T11:05:17.982Z</time></trkpt><trkpt lat="43.1032528" lon="11.4365166"><ele>134.66666666666666</ele><time>2026-04-26T11:05:18.998Z</time></trkpt><trkpt lat="43.1031446" lon="11.4363568"><ele>135.33333333333334</ele><time>2026-04-26T11:05:19.991Z</time></trkpt><trkpt lat="43.103031" lon="11.4361956"><ele>136.0</ele><time>2026-04-26T11:05:21.023Z</time></trkpt><trkpt lat="43.1029177" lon="11.4360394"><ele>136.0</ele><time>2026-04-26T11:05:21.999Z</time></trkpt><trkpt lat="43.1028034" lon="11.4358814"><ele>136.0</ele><time>2026-04-26T11:05:22.996Z</time></trkpt><trkpt lat="43.1026923" lon="11.4357268"><ele>136.0</ele><time>2026-04-26T11:05:24.007Z</time></trkpt><trkpt lat="43.1025863" lon="11.4355762"><ele>136.0</ele><time>2026-04-26T11:05:25.024Z</time></trkpt><trkpt lat="43.1024875" lon="11.4354311"><ele>136.0</ele><time>2026-04-26T11:05:26.005Z</time></trkpt><trkpt lat="43.102395" lon="11.4352885"><ele>136.0</ele><time>2026-04-26T11:05:26.992Z</time></trkpt><trkpt lat="43.1023115" lon="11.435147"><ele>136.0</ele><time>2026-04-26T11:05:27.984Z</time></trkpt><trkpt lat="43.1022443" lon="11.4350063"><ele>136.6</ele><time>2026-04-26T11:05:28.988Z</time></trkpt><trkpt lat="43.1022022" lon="11.4348662"><ele>137.2</ele><time>2026-04-26T11:05:29.981Z</time></trkpt><trkpt lat="43.1021864" lon="11.434722"><ele>137.8</ele><time>2026-04-26T11:05:30.99Z</time></trkpt><trkpt lat="43.1021929" lon="11.4345733"><ele>138.4</ele><time>2026-04-26T11:05:31.997Z</time></trkpt><trkpt lat="43.1022152" lon="11.4344142"><ele>139.0</ele><time>2026-04-26T11:05:33.006Z</time></trkpt><trkpt lat="43.1022463" lon="11.4342408"><ele>140.5</ele><time>2026-04-26T11:05:34.017Z</time></trkpt><trkpt lat="43.1022779" lon="11.4340603"><ele>142.0</ele><time>2026-04-26T11:05:35.004Z</time></trkpt><trkpt lat="43.1023044" lon="11.4338843"><ele>143.5</ele><time>2026-04-26T11:05:36.01Z</time></trkpt><trkpt lat="43.1023216" lon="11.433723"><ele>145.0</ele><time>2026-04-26T11:05:36.997Z</time></trkpt><trkpt lat="43.1023298" lon="11.4335613"><ele>145.2</ele><time>2026-04-26T11:05:38.001Z</time></trkpt><trkpt lat="43.1023292" lon="11.4333998"><ele>145.4</ele><time>2026-04-26T11:05:38.989Z</time></trkpt><trkpt lat="43.1023177" lon="11.4332441"><ele>145.6</ele><time>2026-04-26T11:05:39.994Z</time></trkpt><trkpt lat="43.1022924" lon="11.4331001"><ele>145.8</ele><time>2026-04-26T11:05:40.993Z</time></trkpt><trkpt lat="43.1022576" lon="11.4329649"><ele>146.0</ele><time>2026-04-26T11:05:41.982Z</time></trkpt><trkpt lat="43.1022156" lon="11.4328366"><ele>146.0</ele><time>2026-04-26T11:05:42.99Z</time></trkpt><trkpt lat="43.1021593" lon="11.4327214"><ele>146.0</ele><time>2026-04-26T11:05:43.982Z</time></trkpt><trkpt lat="43.1020838" lon="11.4326203"><ele>146.0</ele><time>2026-04-26T11:05:44.983Z</time></trkpt><trkpt lat="43.1019924" lon="11.432541"><ele>146.0</ele><time>2026-04-26T11:05:45.991Z</time></trkpt><trkpt lat="43.1018911" lon="11.4324905"><ele>146.0</ele><time>2026-04-26T11:05:46.984Z</time></trkpt><trkpt lat="43.1017821" lon="11.4324652"><ele>146.0</ele><time>2026-04-26T11:05:47.984Z</time></trkpt><trkpt lat="43.1016695" lon="11.4324547"><ele>146.0</ele><time>2026-04-26T11:05:48.992Z</time></trkpt><trkpt lat="43.1015562" lon="11.4324476"><ele>146.0</ele><time>2026-04-26T11:05:49.995Z</time></trkpt><trkpt lat="43.1014418" lon="11.432436"><ele>146.0</ele><time>2026-04-26T11:05:50.986Z</time></trkpt><trkpt lat="43.1013211" lon="11.4324204"><ele>147.5</ele><time>2026-04-26T11:05:51.999Z</time></trkpt><trkpt lat="43.1011971" lon="11.4324081"><ele>149.0</ele><time>2026-04-26T11:05:52.979Z</time></trkpt><trkpt lat="43.1010666" lon="11.4323954"><ele>150.5</ele><time>2026-04-26T11:05:53.988Z</time></trkpt><trkpt lat="43.1009317" lon="11.4323817"><ele>152.0</ele><time>2026-04-26T11:05:55.005Z</time></trkpt><trkpt lat="43.1007981" lon="11.4323703"><ele>153.5</ele><time>2026-04-26T11:05:56.007Z</time></trkpt><trkpt lat="43.1006742" lon="11.4323588"><ele>155.0</ele><time>2026-04-26T11:05:56.979Z</time></trkpt><trkpt lat="43.1005518" lon="11.4323464"><ele>156.5</ele><time>2026-04-26T11:05:57.988Z</time></trkpt><trkpt lat="43.1004256" lon="11.4323342"><ele>158.0</ele><time>2026-04-26T11:05:58.986Z</time></trkpt><trkpt lat="43.1002967" lon="11.4323201"><ele>158.0</ele><time>2026-04-26T11:05:59.989Z</time></trkpt><trkpt lat="43.1001659" lon="11.4323061"><ele>158.0</ele><time>2026-04-26T11:06:00.981Z</time></trkpt><trkpt lat="43.1000338" lon="11.4322954"><ele>158.0</ele><time>2026-04-26T11:06:01.993Z</time></trkpt><trkpt lat="43.099906" lon="11.4322885"><ele>158.0</ele><time>2026-04-26T11:06:03.005Z</time></trkpt><trkpt lat="43.0997801" lon="11.432279"><ele>158.75</ele><time>2026-04-26T11:06:03.989Z</time></trkpt><trkpt lat="43.0996519" lon="11.4322651"><ele>159.5</ele><time>2026-04-26T11:06:04.988Z</time></trkpt><trkpt lat="43.0995233" lon="11.4322515"><ele>160.25</ele><time>2026-04-26T11:06:06.001Z</time></trkpt><trkpt lat="43.0993982" lon="11.4322396"><ele>161.0</ele><time>2026-04-26T11:06:06.979Z</time></trkpt><trkpt lat="43.0992747" lon="11.4322304"><ele>161.0</ele><time>2026-04-26T11:06:07.976Z</time></trkpt><trkpt lat="43.099153" lon="11.4322226"><ele>161.0</ele><time>2026-04-26T11:06:08.981Z</time></trkpt><trkpt lat="43.0990325" lon="11.4322132"><ele>161.0</ele><time>2026-04-26T11:06:09.984Z</time></trkpt><trkpt lat="43.0989203" lon="11.4321991"><ele>161.0</ele><time>2026-04-26T11:06:11.003Z</time></trkpt><trkpt lat="43.0988173" lon="11.4321781"><ele>160.20000000000002</ele><time>2026-04-26T11:06:12.013Z</time></trkpt><trkpt lat="43.0987143" lon="11.4321484"><ele>159.4</ele><time>2026-04-26T11:06:12.99Z</time></trkpt><trkpt lat="43.0986085" lon="11.4321081"><ele>158.6</ele><time>2026-04-26T11:06:13.99Z</time></trkpt><trkpt lat="43.0985043" lon="11.4320527"><ele>157.8</ele><time>2026-04-26T11:06:14.98Z</time></trkpt><trkpt lat="43.0984002" lon="11.4319764"><ele>157.0</ele><time>2026-04-26T11:06:15.979Z</time></trkpt><trkpt lat="43.0982951" lon="11.4318909"><ele>158.5</ele><time>2026-04-26T11:06:16.969Z</time></trkpt><trkpt lat="43.0981876" lon="11.4318037"><ele>160.0</ele><time>2026-04-26T11:06:17.972Z</time></trkpt><trkpt lat="43.0980774" lon="11.4317161"><ele>161.5</ele><time>2026-04-26T11:06:18.973Z</time></trkpt><trkpt lat="43.0979655" lon="11.4316285"><ele>163.0</ele><time>2026-04-26T11:06:19.963Z</time></trkpt><trkpt lat="43.097854" lon="11.4315385"><ele>163.0</ele><time>2026-04-26T11:06:20.973Z</time></trkpt><trkpt lat="43.0977465" lon="11.4314411"><ele>163.0</ele><time>2026-04-26T11:06:21.982Z</time></trkpt><trkpt lat="43.0976394" lon="11.4313488"><ele>163.0</ele><time>2026-04-26T11:06:22.971Z</time></trkpt><trkpt lat="43.0975321" lon="11.4312571"><ele>163.0</ele><time>2026-04-26T11:06:23.98Z</time></trkpt><trkpt lat="43.0974265" lon="11.4311665"><ele>164.0</ele><time>2026-04-26T11:06:25.004Z</time></trkpt><trkpt lat="43.0973252" lon="11.4310782"><ele>165.0</ele><time>2026-04-26T11:06:25.99Z</time></trkpt><trkpt lat="43.0972237" lon="11.4309922"><ele>166.0</ele><time>2026-04-26T11:06:26.997Z</time></trkpt><trkpt lat="43.0971219" lon="11.4309099"><ele>167.0</ele><time>2026-04-26T11:06:27.98Z</time></trkpt><trkpt lat="43.0970158" lon="11.4308256"><ele>167.0</ele><time>2026-04-26T11:06:28.988Z</time></trkpt><trkpt lat="43.0969111" lon="11.430741"><ele>167.0</ele><time>2026-04-26T11:06:29.992Z</time></trkpt><trkpt lat="43.0968126" lon="11.4306523"><ele>167.0</ele><time>2026-04-26T11:06:31.006Z</time></trkpt><trkpt lat="43.0967221" lon="11.4305536"><ele>167.0</ele><time>2026-04-26T11:06:31.984Z</time></trkpt><trkpt lat="43.0966318" lon="11.4304411"><ele>168.0</ele><time>2026-04-26T11:06:32.988Z</time></trkpt><trkpt lat="43.0965411" lon="11.4303232"><ele>169.0</ele><time>2026-04-26T11:06:34.005Z</time></trkpt><trkpt lat="43.096449" lon="11.4302052"><ele>170.0</ele><time>2026-04-26T11:06:34.98Z</time></trkpt><trkpt lat="43.0963528" lon="11.4300842"><ele>171.0</ele><time>2026-04-26T11:06:35.985Z</time></trkpt><trkpt lat="43.0962563" lon="11.4299605"><ele>171.0</ele><time>2026-04-26T11:06:36.989Z</time></trkpt><trkpt lat="43.0961574" lon="11.4298398"><ele>171.0</ele><time>2026-04-26T11:06:37.98Z</time></trkpt><trkpt lat="43.0960525" lon="11.4297245"><ele>171.0</ele><time>2026-04-26T11:06:38.979Z</time></trkpt><trkpt lat="43.0959396" lon="11.4296201"><ele>171.0</ele><time>2026-04-26T11:06:39.98Z</time></trkpt><trkpt lat="43.0958229" lon="11.4295256"><ele>173.0</ele><time>2026-04-26T11:06:40.985Z</time></trkpt><trkpt lat="43.0957057" lon="11.4294381"><ele>175.0</ele><time>2026-04-26T11:06:41.972Z</time></trkpt><trkpt lat="43.0955869" lon="11.4293493"><ele>177.0</ele><time>2026-04-26T11:06:42.975Z</time></trkpt><trkpt lat="43.0954658" lon="11.42926"><ele>179.0</ele><time>2026-04-26T11:06:43.969Z</time></trkpt><trkpt lat="43.0953422" lon="11.4291672"><ele>179.0</ele><time>2026-04-26T11:06:44.98Z</time></trkpt><trkpt lat="43.0952189" lon="11.4290749"><ele>179.0</ele><time>2026-04-26T11:06:45.971Z</time></trkpt><trkpt lat="43.0950941" lon="11.428983"><ele>179.0</ele><time>2026-04-26T11:06:46.984Z</time></trkpt><trkpt lat="43.09497" lon="11.4288928"><ele>179.0</ele><time>2026-04-26T11:06:47.971Z</time></trkpt><trkpt lat="43.0948439" lon="11.4288048"><ele>180.75</ele><time>2026-04-26T11:06:48.984Z</time></trkpt><trkpt lat="43.0947202" lon="11.4287185"><ele>182.5</ele><time>2026-04-26T11:06:49.986Z</time></trkpt><trkpt lat="43.0945985" lon="11.4286307"><ele>184.25</ele><time>2026-04-26T11:06:51Z</time></trkpt><trkpt lat="43.0944796" lon="11.4285448"><ele>186.0</ele><time>2026-04-26T11:06:52.005Z</time></trkpt><trkpt lat="43.0943614" lon="11.4284577"><ele>186.0</ele><time>2026-04-26T11:06:53.008Z</time></trkpt><trkpt lat="43.0942437" lon="11.4283687"><ele>186.0</ele><time>2026-04-26T11:06:53.989Z</time></trkpt><trkpt lat="43.0941225" lon="11.4282783"><ele>186.0</ele><time>2026-04-26T11:06:55.003Z</time></trkpt><trkpt lat="43.094001" lon="11.4281884"><ele>186.0</ele><time>2026-04-26T11:06:56.01Z</time></trkpt><trkpt lat="43.09388" lon="11.4280988"><ele>186.5</ele><time>2026-04-26T11:06:56.987Z</time></trkpt><trkpt lat="43.0937556" lon="11.4280067"><ele>187.0</ele><time>2026-04-26T11:06:57.988Z</time></trkpt><trkpt lat="43.0936296" lon="11.4279143"><ele>187.5</ele><time>2026-04-26T11:06:58.991Z</time></trkpt><trkpt lat="43.0934993" lon="11.4278188"><ele>188.0</ele><time>2026-04-26T11:06:59.993Z</time></trkpt><trkpt lat="43.0933606" lon="11.4277199"><ele>190.0</ele><time>2026-04-26T11:07:00.98Z</time></trkpt><trkpt lat="43.0932154" lon="11.42762"><ele>192.0</ele><time>2026-04-26T11:07:01.991Z</time></trkpt><trkpt lat="43.0930702" lon="11.4275199"><ele>194.0</ele><time>2026-04-26T11:07:03Z</time></trkpt><trkpt lat="43.0929269" lon="11.4274176"><ele>194.0</ele><time>2026-04-26T11:07:03.996Z</time></trkpt><trkpt lat="43.0927844" lon="11.4273141"><ele>194.0</ele><time>2026-04-26T11:07:04.982Z</time></trkpt><trkpt lat="43.0926428" lon="11.4272096"><ele>194.0</ele><time>2026-04-26T11:07:05.987Z</time></trkpt><trkpt lat="43.0925041" lon="11.4271058"><ele>196.0</ele><time>2026-04-26T11:07:06.981Z</time></trkpt><trkpt lat="43.0923661" lon="11.4270058"><ele>198.0</ele><time>2026-04-26T11:07:07.972Z</time></trkpt><trkpt lat="43.0922287" lon="11.4269087"><ele>200.0</ele><time>2026-04-26T11:07:08.982Z</time></trkpt><trkpt lat="43.0920949" lon="11.426814"><ele>200.0</ele><time>2026-04-26T11:07:09.984Z</time></trkpt><trkpt lat="43.091969" lon="11.4267242"><ele>200.0</ele><time>2026-04-26T11:07:10.977Z</time></trkpt><trkpt lat="43.0918534" lon="11.426638"><ele>200.0</ele><time>2026-04-26T11:07:11.99Z</time></trkpt><trkpt lat="43.0917424" lon="11.4265538"><ele>200.0</ele><time>2026-04-26T11:07:12.995Z</time></trkpt><trkpt lat="43.0916334" lon="11.4264716"><ele>199.75</ele><time>2026-04-26T11:07:13.986Z</time></trkpt><trkpt lat="43.0915247" lon="11.4263919"><ele>199.5</ele><time>2026-04-26T11:07:14.993Z</time></trkpt><trkpt lat="43.0914205" lon="11.4263151"><ele>199.25</ele><time>2026-04-26T11:07:15.979Z</time></trkpt><trkpt lat="43.0913214" lon="11.4262405"><ele>199.0</ele><time>2026-04-26T11:07:16.983Z</time></trkpt><trkpt lat="43.0912291" lon="11.4261684"><ele>199.79999999999998</ele><time>2026-04-26T11:07:17.989Z</time></trkpt><trkpt lat="43.0911394" lon="11.4261001"><ele>200.6</ele><time>2026-04-26T11:07:18.991Z</time></trkpt><trkpt lat="43.091045" lon="11.4260392"><ele>201.4</ele><time>2026-04-26T11:07:19.991Z</time></trkpt><trkpt lat="43.0909422" lon="11.4259914"><ele>202.2</ele><time>2026-04-26T11:07:20.992Z</time></trkpt><trkpt lat="43.0908324" lon="11.4259542"><ele>203.0</ele><time>2026-04-26T11:07:21.994Z</time></trkpt><trkpt lat="43.0907182" lon="11.4259214"><ele>204.5</ele><time>2026-04-26T11:07:22.993Z</time></trkpt><trkpt lat="43.0906004" lon="11.4258891"><ele>206.0</ele><time>2026-04-26T11:07:24.009Z</time></trkpt><trkpt lat="43.0904795" lon="11.4258574"><ele>207.5</ele><time>2026-04-26T11:07:25.023Z</time></trkpt><trkpt lat="43.0903576" lon="11.4258271"><ele>209.0</ele><time>2026-04-26T11:07:26.003Z</time></trkpt><trkpt lat="43.0902308" lon="11.425792"><ele>209.0</ele><time>2026-04-26T11:07:27.005Z</time></trkpt><trkpt lat="43.0900961" lon="11.4257515"><ele>209.0</ele><time>2026-04-26T11:07:27.977Z</time></trkpt><trkpt lat="43.0899496" lon="11.425709"><ele>209.0</ele><time>2026-04-26T11:07:28.985Z</time></trkpt><trkpt lat="43.089802" lon="11.4256688"><ele>209.0</ele><time>2026-04-26T11:07:29.982Z</time></trkpt><trkpt lat="43.0896553" lon="11.4256281"><ele>210.25</ele><time>2026-04-26T11:07:30.975Z</time></trkpt><trkpt lat="43.0895118" lon="11.4255876"><ele>211.5</ele><time>2026-04-26T11:07:31.977Z</time></trkpt><trkpt lat="43.0893807" lon="11.4255468"><ele>212.75</ele><time>2026-04-26T11:07:32.967Z</time></trkpt><trkpt lat="43.0892677" lon="11.4255094"><ele>214.0</ele><time>2026-04-26T11:07:33.983Z</time></trkpt><trkpt lat="43.0891726" lon="11.4254768"><ele>215.49999999999997</ele><time>2026-04-26T11:07:34.984Z</time></trkpt><trkpt lat="43.089094" lon="11.4254351"><ele>217.0</ele><time>2026-04-26T11:07:35.989Z</time></trkpt><trkpt lat="43.0890292" lon="11.4253741"><ele>218.5</ele><time>2026-04-26T11:07:37.001Z</time></trkpt><trkpt lat="43.0889775" lon="11.4252935"><ele>220.0</ele><time>2026-04-26T11:07:37.999Z</time></trkpt><trkpt lat="43.0889468" lon="11.4251963"><ele>221.49999999999997</ele><time>2026-04-26T11:07:38.982Z</time></trkpt><trkpt lat="43.0889394" lon="11.4250801"><ele>223.0</ele><time>2026-04-26T11:07:39.987Z</time></trkpt><trkpt lat="43.0889475" lon="11.4249518"><ele>226.4</ele><time>2026-04-26T11:07:40.978Z</time></trkpt><trkpt lat="43.0889638" lon="11.4248195"><ele>229.8</ele><time>2026-04-26T11:07:41.982Z</time></trkpt><trkpt lat="43.0889842" lon="11.4246878"><ele>233.2</ele><time>2026-04-26T11:07:42.986Z</time></trkpt><trkpt lat="43.089007" lon="11.4245555"><ele>236.6</ele><time>2026-04-26T11:07:43.978Z</time></trkpt><trkpt lat="43.0890312" lon="11.4244191"><ele>240.0</ele><time>2026-04-26T11:07:44.994Z</time></trkpt><trkpt lat="43.0890548" lon="11.4242832"><ele>239.6</ele><time>2026-04-26T11:07:45.986Z</time></trkpt><trkpt lat="43.0890787" lon="11.4241459"><ele>239.2</ele><time>2026-04-26T11:07:46.982Z</time></trkpt><trkpt lat="43.0891042" lon="11.4240027"><ele>238.8</ele><time>2026-04-26T11:07:47.99Z</time></trkpt><trkpt lat="43.0891297" lon="11.4238573"><ele>238.4</ele><time>2026-04-26T11:07:48.998Z</time></trkpt><trkpt lat="43.0891519" lon="11.4237142"><ele>238.0</ele><time>2026-04-26T11:07:49.985Z</time></trkpt><trkpt lat="43.0891657" lon="11.4235694"><ele>238.0</ele><time>2026-04-26T11:07:50.996Z</time></trkpt><trkpt lat="43.0891657" lon="11.4234281"><ele>238.0</ele><time>2026-04-26T11:07:51.996Z</time></trkpt><trkpt lat="43.0891519" lon="11.4232935"><ele>238.0</ele><time>2026-04-26T11:07:52.984Z</time></trkpt><trkpt lat="43.0891262" lon="11.4231625"><ele>238.0</ele><time>2026-04-26T11:07:53.987Z</time></trkpt><trkpt lat="43.089086" lon="11.4230338"><ele>238.0</ele><time>2026-04-26T11:07:55.006Z</time></trkpt><trkpt lat="43.0890348" lon="11.4229046"><ele>244.25</ele><time>2026-04-26T11:07:55.99Z</time></trkpt><trkpt lat="43.0889738" lon="11.4227625"><ele>250.5</ele><time>2026-04-26T11:07:56.978Z</time></trkpt><trkpt lat="43.0889074" lon="11.4226067"><ele>256.75</ele><time>2026-04-26T11:07:57.974Z</time></trkpt><trkpt lat="43.0888433" lon="11.4224426"><ele>263.0</ele><time>2026-04-26T11:07:58.98Z</time></trkpt><trkpt lat="43.0887859" lon="11.4222812"><ele>261.8</ele><time>2026-04-26T11:07:59.983Z</time></trkpt><trkpt lat="43.0887346" lon="11.4221363"><ele>260.6</ele><time>2026-04-26T11:08:00.99Z</time></trkpt><trkpt lat="43.0886878" lon="11.4220148"><ele>259.4</ele><time>2026-04-26T11:08:01.994Z</time></trkpt><trkpt lat="43.0886415" lon="11.4219163"><ele>258.2</ele><time>2026-04-26T11:08:03.006Z</time></trkpt><trkpt lat="43.0885881" lon="11.4218314"><ele>257.0</ele><time>2026-04-26T11:08:03.991Z</time></trkpt><trkpt lat="43.0885245" lon="11.4217623"><ele>257.0</ele><time>2026-04-26T11:08:04.982Z</time></trkpt><trkpt lat="43.0884526" lon="11.4217192"><ele>257.0</ele><time>2026-04-26T11:08:05.99Z</time></trkpt><trkpt lat="43.0883765" lon="11.421706"><ele>257.0</ele><time>2026-04-26T11:08:06.992Z</time></trkpt><trkpt lat="43.0883001" lon="11.4217218"><ele>257.0</ele><time>2026-04-26T11:08:07.981Z</time></trkpt><trkpt lat="43.0882313" lon="11.4217666"><ele>257.0</ele><time>2026-04-26T11:08:08.984Z</time></trkpt><trkpt lat="43.088179" lon="11.4218342"><ele>257.0</ele><time>2026-04-26T11:08:09.986Z</time></trkpt><trkpt lat="43.0881445" lon="11.4219144"><ele>257.0</ele><time>2026-04-26T11:08:10.993Z</time></trkpt><trkpt lat="43.0881269" lon="11.4220045"><ele>260.6666666666667</ele><time>2026-04-26T11:08:11.978Z</time></trkpt><trkpt lat="43.0881183" lon="11.4220945"><ele>264.33333333333337</ele><time>2026-04-26T11:08:12.978Z</time></trkpt><trkpt lat="43.0880984" lon="11.4222597"><ele>268.0</ele><time>2026-04-26T11:08:14.99Z</time></trkpt><trkpt lat="43.0880788" lon="11.422344"><ele>271.6666666666667</ele><time>2026-04-26T11:08:15.977Z</time></trkpt><trkpt lat="43.0880504" lon="11.4224358"><ele>275.3333333333333</ele><time>2026-04-26T11:08:16.984Z</time></trkpt><trkpt lat="43.0880149" lon="11.4225418"><ele>279.0</ele><time>2026-04-26T11:08:17.976Z</time></trkpt><trkpt lat="43.0879766" lon="11.4226647"><ele>279.59999999999997</ele><time>2026-04-26T11:08:18.978Z</time></trkpt><trkpt lat="43.0879404" lon="11.4227995"><ele>280.2</ele><time>2026-04-26T11:08:19.968Z</time></trkpt><trkpt lat="43.0879096" lon="11.4229399"><ele>280.79999999999995</ele><time>2026-04-26T11:08:20.972Z</time></trkpt><trkpt lat="43.0878749" lon="11.4230817"><ele>281.4</ele><time>2026-04-26T11:08:21.965Z</time></trkpt><trkpt lat="43.0878227" lon="11.4232238"><ele>282.0</ele><time>2026-04-26T11:08:22.977Z</time></trkpt><trkpt lat="43.0877617" lon="11.4233483"><ele>282.1666666666667</ele><time>2026-04-26T11:08:23.972Z</time></trkpt><trkpt lat="43.0876995" lon="11.4234375"><ele>282.3333333333333</ele><time>2026-04-26T11:08:24.986Z</time></trkpt><trkpt lat="43.0876379" lon="11.4234872"><ele>282.5</ele><time>2026-04-26T11:08:25.978Z</time></trkpt><trkpt lat="43.0875427" lon="11.4234716"><ele>282.66666666666663</ele><time>2026-04-26T11:08:27.99Z</time></trkpt><trkpt lat="43.0874901" lon="11.4233652"><ele>282.8333333333333</ele><time>2026-04-26T11:08:30.011Z</time></trkpt><trkpt lat="43.0874733" lon="11.4232798"><ele>283.0</ele><time>2026-04-26T11:08:31.031Z</time></trkpt><trkpt lat="43.0874581" lon="11.4231832"><ele>283.0</ele><time>2026-04-26T11:08:31.983Z</time></trkpt><trkpt lat="43.0874401" lon="11.4230752"><ele>283.0</ele><time>2026-04-26T11:08:32.991Z</time></trkpt><trkpt lat="43.0874174" lon="11.4229605"><ele>283.0</ele><time>2026-04-26T11:08:33.997Z</time></trkpt><trkpt lat="43.0873907" lon="11.4228462"><ele>283.0</ele><time>2026-04-26T11:08:34.99Z</time></trkpt><trkpt lat="43.0873614" lon="11.422743"><ele>283.0</ele><time>2026-04-26T11:08:35.995Z</time></trkpt><trkpt lat="43.0873282" lon="11.4226676"><ele>283.0</ele><time>2026-04-26T11:08:36.996Z</time></trkpt><trkpt lat="43.087248" lon="11.4226026"><ele>287.5</ele><time>2026-04-26T11:08:38.994Z</time></trkpt><trkpt lat="43.0871897" lon="11.4226511"><ele>292.0</ele><time>2026-04-26T11:08:40.996Z</time></trkpt><trkpt lat="43.0871613" lon="11.4227982"><ele>296.5</ele><time>2026-04-26T11:08:42.991Z</time></trkpt><trkpt lat="43.0871455" lon="11.4229006"><ele>301.0</ele><time>2026-04-26T11:08:43.978Z</time></trkpt><trkpt lat="43.087122" lon="11.4230204"><ele>305.5</ele><time>2026-04-26T11:08:44.978Z</time></trkpt><trkpt lat="43.0870931" lon="11.4231554"><ele>310.0</ele><time>2026-04-26T11:08:45.972Z</time></trkpt><trkpt lat="43.0870603" lon="11.423304"><ele>310.0</ele><time>2026-04-26T11:08:46.978Z</time></trkpt><trkpt lat="43.0870275" lon="11.4234494"><ele>310.0</ele><time>2026-04-26T11:08:47.977Z</time></trkpt><trkpt lat="43.0869954" lon="11.4235751"><ele>310.0</ele><time>2026-04-26T11:08:48.984Z</time></trkpt><trkpt lat="43.086958" lon="11.4236822"><ele>310.0</ele><time>2026-04-26T11:08:49.987Z</time></trkpt><trkpt lat="43.0869081" lon="11.4237668"><ele>310.0</ele><time>2026-04-26T11:08:50.994Z</time></trkpt><trkpt lat="43.0868432" lon="11.4238269"><ele>308.16666666666663</ele><time>2026-04-26T11:08:51.981Z</time></trkpt><trkpt lat="43.0867686" lon="11.4238585"><ele>306.3333333333333</ele><time>2026-04-26T11:08:52.987Z</time></trkpt><trkpt lat="43.0866926" lon="11.4238586"><ele>304.5</ele><time>2026-04-26T11:08:53.98Z</time></trkpt><trkpt lat="43.0866154" lon="11.4238324"><ele>302.6666666666667</ele><time>2026-04-26T11:08:54.992Z</time></trkpt><trkpt lat="43.086543" lon="11.4237842"><ele>300.83333333333337</ele><time>2026-04-26T11:08:55.986Z</time></trkpt><trkpt lat="43.0864805" lon="11.4237179"><ele>299.0</ele><time>2026-04-26T11:08:57.012Z</time></trkpt><trkpt lat="43.0864306" lon="11.4236414"><ele>303.83333333333337</ele><time>2026-04-26T11:08:57.987Z</time></trkpt><trkpt lat="43.0864024" lon="11.423564"><ele>308.6666666666667</ele><time>2026-04-26T11:08:58.982Z</time></trkpt><trkpt lat="43.0864137" lon="11.4234177"><ele>313.5</ele><time>2026-04-26T11:09:00.997Z</time></trkpt><trkpt lat="43.0864749" lon="11.423261"><ele>318.3333333333333</ele><time>2026-04-26T11:09:02.988Z</time></trkpt><trkpt lat="43.0865076" lon="11.4231748"><ele>323.16666666666663</ele><time>2026-04-26T11:09:03.99Z</time></trkpt><trkpt lat="43.0865304" lon="11.4230815"><ele>328.0</ele><time>2026-04-26T11:09:04.989Z</time></trkpt><trkpt lat="43.0865375" lon="11.4229799"><ele>327.99999999999994</ele><time>2026-04-26T11:09:05.993Z</time></trkpt><trkpt lat="43.08653" lon="11.4228745"><ele>328.0</ele><time>2026-04-26T11:09:06.98Z</time></trkpt><trkpt lat="43.0865078" lon="11.4227728"><ele>328.0</ele><time>2026-04-26T11:09:07.987Z</time></trkpt><trkpt lat="43.0864696" lon="11.422689"><ele>328.0</ele><time>2026-04-26T11:09:08.991Z</time></trkpt><trkpt lat="43.086415" lon="11.422634"><ele>328.0</ele><time>2026-04-26T11:09:09.976Z</time></trkpt><trkpt lat="43.0863493" lon="11.4226126"><ele>327.99999999999994</ele><time>2026-04-26T11:09:10.981Z</time></trkpt><trkpt lat="43.0862842" lon="11.4226299"><ele>328.0</ele><time>2026-04-26T11:09:11.977Z</time></trkpt><trkpt lat="43.0862274" lon="11.4226855"><ele>328.0</ele><time>2026-04-26T11:09:12.997Z</time></trkpt><trkpt lat="43.0861771" lon="11.4227659"><ele>328.0</ele><time>2026-04-26T11:09:13.997Z</time></trkpt><trkpt lat="43.0861246" lon="11.4228607"><ele>328.0</ele><time>2026-04-26T11:09:14.996Z</time></trkpt><trkpt lat="43.086071" lon="11.4229616"><ele>328.0</ele><time>2026-04-26T11:09:16.003Z</time></trkpt><trkpt lat="43.0860166" lon="11.4230594"><ele>328.0</ele><time>2026-04-26T11:09:16.996Z</time></trkpt><trkpt lat="43.0859593" lon="11.4231529"><ele>328.0</ele><time>2026-04-26T11:09:18.001Z</time></trkpt><trkpt lat="43.0858955" lon="11.4232308"><ele>328.16666666666663</ele><time>2026-04-26T11:09:19.004Z</time></trkpt><trkpt lat="43.0858226" lon="11.4232734"><ele>328.3333333333333</ele><time>2026-04-26T11:09:19.991Z</time></trkpt><trkpt lat="43.085743" lon="11.4232669"><ele>328.5</ele><time>2026-04-26T11:09:20.996Z</time></trkpt><trkpt lat="43.0856686" lon="11.423215"><ele>328.6666666666667</ele><time>2026-04-26T11:09:22Z</time></trkpt><trkpt lat="43.0856049" lon="11.4231276"><ele>328.83333333333337</ele><time>2026-04-26T11:09:22.99Z</time></trkpt><trkpt lat="43.0855553" lon="11.4230154"><ele>329.0</ele><time>2026-04-26T11:09:24.007Z</time></trkpt><trkpt lat="43.08552" lon="11.4228882"><ele>334.0</ele><time>2026-04-26T11:09:24.996Z</time></trkpt><trkpt lat="43.085487" lon="11.4227449"><ele>339.0</ele><time>2026-04-26T11:09:26.012Z</time></trkpt><trkpt lat="43.085452" lon="11.4225937"><ele>344.0</ele><time>2026-04-26T11:09:27.029Z</time></trkpt><trkpt lat="43.0854137" lon="11.4224401"><ele>349.0</ele><time>2026-04-26T11:09:28.009Z</time></trkpt><trkpt lat="43.0853731" lon="11.4222912"><ele>349.0</ele><time>2026-04-26T11:09:28.998Z</time></trkpt><trkpt lat="43.0853304" lon="11.4221622"><ele>349.0</ele><time>2026-04-26T11:09:30Z</time></trkpt><trkpt lat="43.0852842" lon="11.4220522"><ele>349.0</ele><time>2026-04-26T11:09:30.985Z</time></trkpt><trkpt lat="43.0852234" lon="11.4219512"><ele>349.0</ele><time>2026-04-26T11:09:31.992Z</time></trkpt><trkpt lat="43.0851463" lon="11.4218611"><ele>349.0</ele><time>2026-04-26T11:09:32.978Z</time></trkpt><trkpt lat="43.0850547" lon="11.4217819"><ele>348.0</ele><time>2026-04-26T11:09:33.98Z</time></trkpt><trkpt lat="43.0849521" lon="11.4217165"><ele>347.0</ele><time>2026-04-26T11:09:34.974Z</time></trkpt><trkpt lat="43.0848422" lon="11.4216649"><ele>346.0</ele><time>2026-04-26T11:09:35.986Z</time></trkpt><trkpt lat="43.0847296" lon="11.421626"><ele>345.0</ele><time>2026-04-26T11:09:36.992Z</time></trkpt><trkpt lat="43.084615" lon="11.4215889"><ele>345.0</ele><time>2026-04-26T11:09:37.981Z</time></trkpt><trkpt lat="43.0844995" lon="11.4215427"><ele>345.0</ele><time>2026-04-26T11:09:38.995Z</time></trkpt><trkpt lat="43.084391" lon="11.4214844"><ele>345.0</ele><time>2026-04-26T11:09:39.997Z</time></trkpt><trkpt lat="43.0842941" lon="11.4214199"><ele>345.0</ele><time>2026-04-26T11:09:41.002Z</time></trkpt><trkpt lat="43.0842072" lon="11.4213549"><ele>345.0</ele><time>2026-04-26T11:09:42.002Z</time></trkpt><trkpt lat="43.0841224" lon="11.4212894"><ele>345.4</ele><time>2026-04-26T11:09:42.993Z</time></trkpt><trkpt lat="43.0840362" lon="11.4212206"><ele>345.8</ele><time>2026-04-26T11:09:43.998Z</time></trkpt><trkpt lat="43.0839463" lon="11.4211484"><ele>346.20000000000005</ele><time>2026-04-26T11:09:45.005Z</time></trkpt><trkpt lat="43.0838481" lon="11.4210762"><ele>346.6</ele><time>2026-04-26T11:09:46.012Z</time></trkpt><trkpt lat="43.0837446" lon="11.4210113"><ele>347.0</ele><time>2026-04-26T11:09:46.998Z</time></trkpt><trkpt lat="43.0836357" lon="11.4209561"><ele>347.0</ele><time>2026-04-26T11:09:47.991Z</time></trkpt><trkpt lat="43.0835239" lon="11.4209088"><ele>347.0</ele><time>2026-04-26T11:09:48.996Z</time></trkpt><trkpt lat="43.08341" lon="11.420871"><ele>347.0</ele><time>2026-04-26T11:09:49.995Z</time></trkpt><trkpt lat="43.0832953" lon="11.4208386"><ele>347.0</ele><time>2026-04-26T11:09:51.021Z</time></trkpt><trkpt lat="43.083186" lon="11.4208035"><ele>349.0</ele><time>2026-04-26T11:09:52.009Z</time></trkpt><trkpt lat="43.0830782" lon="11.4207654"><ele>351.0</ele><time>2026-04-26T11:09:53.011Z</time></trkpt><trkpt lat="43.0829715" lon="11.4207299"><ele>353.0</ele><time>2026-04-26T11:09:53.998Z</time></trkpt><trkpt lat="43.0828618" lon="11.4206951"><ele>355.0</ele><time>2026-04-26T11:09:55.007Z</time></trkpt><trkpt lat="43.082749" lon="11.4206566"><ele>355.0</ele><time>2026-04-26T11:09:56.011Z</time></trkpt><trkpt lat="43.0826347" lon="11.4206185"><ele>355.0</ele><time>2026-04-26T11:09:57.018Z</time></trkpt><trkpt lat="43.0825206" lon="11.4205893"><ele>355.0</ele><time>2026-04-26T11:09:57.981Z</time></trkpt><trkpt lat="43.0823997" lon="11.4205658"><ele>355.0</ele><time>2026-04-26T11:09:58.977Z</time></trkpt><trkpt lat="43.0822757" lon="11.4205477"><ele>354.8</ele><time>2026-04-26T11:09:59.972Z</time></trkpt><trkpt lat="43.0821558" lon="11.4205384"><ele>354.6</ele><time>2026-04-26T11:10:00.99Z</time></trkpt><trkpt lat="43.0820515" lon="11.4205363"><ele>354.4</ele><time>2026-04-26T11:10:01.975Z</time></trkpt><trkpt lat="43.0819545" lon="11.4205345"><ele>354.2</ele><time>2026-04-26T11:10:02.991Z</time></trkpt><trkpt lat="43.0818581" lon="11.4205125"><ele>354.0</ele><time>2026-04-26T11:10:04Z</time></trkpt><trkpt lat="43.0817594" lon="11.4204612"><ele>355.0</ele><time>2026-04-26T11:10:05.005Z</time></trkpt><trkpt lat="43.0816617" lon="11.4203903"><ele>356.0</ele><time>2026-04-26T11:10:05.996Z</time></trkpt><trkpt lat="43.0815705" lon="11.4203064"><ele>357.0</ele><time>2026-04-26T11:10:07.013Z</time></trkpt><trkpt lat="43.0814879" lon="11.4202112"><ele>358.0</ele><time>2026-04-26T11:10:08.012Z</time></trkpt><trkpt lat="43.0814095" lon="11.4201019"><ele>359.0</ele><time>2026-04-26T11:10:09.014Z</time></trkpt><trkpt lat="43.0813373" lon="11.4199842"><ele>360.4</ele><time>2026-04-26T11:10:09.997Z</time></trkpt><trkpt lat="43.0812722" lon="11.4198664"><ele>361.79999999999995</ele><time>2026-04-26T11:10:11.007Z</time></trkpt><trkpt lat="43.081213" lon="11.4197574"><ele>363.20000000000005</ele><time>2026-04-26T11:10:11.998Z</time></trkpt><trkpt lat="43.0811441" lon="11.4196574"><ele>364.6</ele><time>2026-04-26T11:10:13.007Z</time></trkpt><trkpt lat="43.0810577" lon="11.4195703"><ele>366.0</ele><time>2026-04-26T11:10:13.987Z</time></trkpt><trkpt lat="43.0809523" lon="11.4194999"><ele>366.0</ele><time>2026-04-26T11:10:15.001Z</time></trkpt><trkpt lat="43.080834" lon="11.4194504"><ele>366.0</ele><time>2026-04-26T11:10:15.993Z</time></trkpt><trkpt lat="43.080703" lon="11.419418"><ele>366.0</ele><time>2026-04-26T11:10:16.999Z</time></trkpt><trkpt lat="43.0805702" lon="11.4193925"><ele>366.0</ele><time>2026-04-26T11:10:18.003Z</time></trkpt><trkpt lat="43.0804486" lon="11.4193625"><ele>369.8</ele><time>2026-04-26T11:10:19.005Z</time></trkpt><trkpt lat="43.0803509" lon="11.4193168"><ele>373.6</ele><time>2026-04-26T11:10:19.987Z</time></trkpt><trkpt lat="43.0802675" lon="11.4192434"><ele>377.4</ele><time>2026-04-26T11:10:20.985Z</time></trkpt><trkpt lat="43.0802021" lon="11.4191429"><ele>381.2</ele><time>2026-04-26T11:10:21.978Z</time></trkpt><trkpt lat="43.0801489" lon="11.4190271"><ele>385.0</ele><time>2026-04-26T11:10:22.978Z</time></trkpt><trkpt lat="43.0800881" lon="11.4189129"><ele>382.75</ele><time>2026-04-26T11:10:23.981Z</time></trkpt><trkpt lat="43.0800132" lon="11.4188073"><ele>380.5</ele><time>2026-04-26T11:10:24.986Z</time></trkpt><trkpt lat="43.0799239" lon="11.4187174"><ele>378.25</ele><time>2026-04-26T11:10:25.98Z</time></trkpt><trkpt lat="43.0798165" lon="11.4186435"><ele>376.0</ele><time>2026-04-26T11:10:27.018Z</time></trkpt><trkpt lat="43.0796987" lon="11.4185825"><ele>381.25</ele><time>2026-04-26T11:10:28.035Z</time></trkpt><trkpt lat="43.0795772" lon="11.418527"><ele>386.5</ele><time>2026-04-26T11:10:28.993Z</time></trkpt><trkpt lat="43.0794508" lon="11.4184652"><ele>391.75</ele><time>2026-04-26T11:10:29.993Z</time></trkpt><trkpt lat="43.0793263" lon="11.4184017"><ele>397.0</ele><time>2026-04-26T11:10:30.993Z</time></trkpt><trkpt lat="43.0792164" lon="11.4183305"><ele>397.0</ele><time>2026-04-26T11:10:31.993Z</time></trkpt><trkpt lat="43.0791231" lon="11.4182417"><ele>397.0</ele><time>2026-04-26T11:10:32.986Z</time></trkpt><trkpt lat="43.0790403" lon="11.4181527"><ele>397.0</ele><time>2026-04-26T11:10:33.992Z</time></trkpt><trkpt lat="43.0789596" lon="11.4180855"><ele>397.0</ele><time>2026-04-26T11:10:34.984Z</time></trkpt><trkpt lat="43.0788638" lon="11.4180348"><ele>397.0</ele><time>2026-04-26T11:10:35.987Z</time></trkpt><trkpt lat="43.0787541" lon="11.4179994"><ele>396.5</ele><time>2026-04-26T11:10:36.999Z</time></trkpt><trkpt lat="43.0786371" lon="11.4179778"><ele>396.0</ele><time>2026-04-26T11:10:37.989Z</time></trkpt><trkpt lat="43.0785167" lon="11.4179671"><ele>395.5</ele><time>2026-04-26T11:10:38.995Z</time></trkpt><trkpt lat="43.0783973" lon="11.417962"><ele>395.0</ele><time>2026-04-26T11:10:39.984Z</time></trkpt><trkpt lat="43.0782752" lon="11.4179548"><ele>398.5</ele><time>2026-04-26T11:10:40.994Z</time></trkpt><trkpt lat="43.0781476" lon="11.4179377"><ele>402.0</ele><time>2026-04-26T11:10:42Z</time></trkpt><trkpt lat="43.0780192" lon="11.4179195"><ele>405.5</ele><time>2026-04-26T11:10:42.989Z</time></trkpt><trkpt lat="43.0778923" lon="11.4179104"><ele>409.0</ele><time>2026-04-26T11:10:43.998Z</time></trkpt><trkpt lat="43.077773" lon="11.4179109"><ele>409.0</ele><time>2026-04-26T11:10:44.993Z</time></trkpt><trkpt lat="43.0776693" lon="11.4179178"><ele>409.0</ele><time>2026-04-26T11:10:45.983Z</time></trkpt><trkpt lat="43.0775787" lon="11.4179187"><ele>409.0</ele><time>2026-04-26T11:10:46.987Z</time></trkpt><trkpt lat="43.077496" lon="11.4179014"><ele>409.0</ele><time>2026-04-26T11:10:47.974Z</time></trkpt><trkpt lat="43.0774129" lon="11.4178642"><ele>409.0</ele><time>2026-04-26T11:10:48.97Z</time></trkpt><trkpt lat="43.0773245" lon="11.4178086"><ele>412.6</ele><time>2026-04-26T11:10:49.982Z</time></trkpt><trkpt lat="43.0772333" lon="11.4177433"><ele>416.2</ele><time>2026-04-26T11:10:50.974Z</time></trkpt><trkpt lat="43.0771395" lon="11.4176758"><ele>419.80000000000007</ele><time>2026-04-26T11:10:51.989Z</time></trkpt><trkpt lat="43.077049" lon="11.4176054"><ele>423.40000000000003</ele><time>2026-04-26T11:10:52.978Z</time></trkpt><trkpt lat="43.0769691" lon="11.4175345"><ele>427.0</ele><time>2026-04-26T11:10:53.986Z</time></trkpt><trkpt lat="43.0769045" lon="11.4174526"><ele>427.0</ele><time>2026-04-26T11:10:54.987Z</time></trkpt><trkpt lat="43.0768569" lon="11.4173385"><ele>427.00000000000006</ele><time>2026-04-26T11:10:55.987Z</time></trkpt><trkpt lat="43.0768172" lon="11.4172029"><ele>427.00000000000006</ele><time>2026-04-26T11:10:57.012Z</time></trkpt><trkpt lat="43.0767735" lon="11.4170881"><ele>427.0</ele><time>2026-04-26T11:10:58.016Z</time></trkpt><trkpt lat="43.0767186" lon="11.4170022"><ele>427.0</ele><time>2026-04-26T11:10:58.982Z</time></trkpt><trkpt lat="43.0766474" lon="11.4169362"><ele>427.6</ele><time>2026-04-26T11:11:00.002Z</time></trkpt><trkpt lat="43.0765617" lon="11.4168885"><ele>428.20000000000005</ele><time>2026-04-26T11:11:01.003Z</time></trkpt><trkpt lat="43.0764636" lon="11.4168508"><ele>428.8</ele><time>2026-04-26T11:11:01.993Z</time></trkpt><trkpt lat="43.0763527" lon="11.4168172"><ele>429.4</ele><time>2026-04-26T11:11:03.002Z</time></trkpt><trkpt lat="43.076231" lon="11.4167782"><ele>430.0</ele><time>2026-04-26T11:11:04.003Z</time></trkpt><trkpt lat="43.0761047" lon="11.4167258"><ele>430.0</ele><time>2026-04-26T11:11:04.984Z</time></trkpt><trkpt lat="43.0759762" lon="11.4166486"><ele>430.0</ele><time>2026-04-26T11:11:05.991Z</time></trkpt><trkpt lat="43.0758488" lon="11.4165551"><ele>430.0</ele><time>2026-04-26T11:11:06.997Z</time></trkpt><trkpt lat="43.0757233" lon="11.4164562"><ele>430.0</ele><time>2026-04-26T11:11:07.988Z</time></trkpt><trkpt lat="43.0755962" lon="11.4163575"><ele>431.25</ele><time>2026-04-26T11:11:08.986Z</time></trkpt><trkpt lat="43.0754682" lon="11.4162625"><ele>432.5</ele><time>2026-04-26T11:11:09.978Z</time></trkpt><trkpt lat="43.0753444" lon="11.4161714"><ele>433.75</ele><time>2026-04-26T11:11:10.978Z</time></trkpt><trkpt lat="43.0752274" lon="11.4160849"><ele>435.0</ele><time>2026-04-26T11:11:11.972Z</time></trkpt><trkpt lat="43.075111" lon="11.4160038"><ele>435.0</ele><time>2026-04-26T11:11:12.975Z</time></trkpt><trkpt lat="43.0749906" lon="11.4159345"><ele>435.0</ele><time>2026-04-26T11:11:13.978Z</time></trkpt><trkpt lat="43.0748634" lon="11.4158753"><ele>435.0</ele><time>2026-04-26T11:11:14.979Z</time></trkpt><trkpt lat="43.0747334" lon="11.4158238"><ele>435.0</ele><time>2026-04-26T11:11:15.992Z</time></trkpt><trkpt lat="43.0746146" lon="11.4157874"><ele>435.8333333333333</ele><time>2026-04-26T11:11:17.012Z</time></trkpt><trkpt lat="43.0745196" lon="11.4157609"><ele>436.66666666666663</ele><time>2026-04-26T11:11:17.993Z</time></trkpt><trkpt lat="43.0744452" lon="11.4157197"><ele>437.5</ele><time>2026-04-26T11:11:18.998Z</time></trkpt><trkpt lat="43.0743909" lon="11.4156469"><ele>438.3333333333333</ele><time>2026-04-26T11:11:19.999Z</time></trkpt><trkpt lat="43.0743573" lon="11.415547"><ele>439.16666666666663</ele><time>2026-04-26T11:11:21.002Z</time></trkpt><trkpt lat="43.0743414" lon="11.415435"><ele>440.0</ele><time>2026-04-26T11:11:21.987Z</time></trkpt><trkpt lat="43.0743358" lon="11.4153092"><ele>442.0</ele><time>2026-04-26T11:11:22.995Z</time></trkpt><trkpt lat="43.0743314" lon="11.4151683"><ele>444.0</ele><time>2026-04-26T11:11:24Z</time></trkpt><trkpt lat="43.0743153" lon="11.4150194"><ele>446.0</ele><time>2026-04-26T11:11:24.988Z</time></trkpt><trkpt lat="43.0742827" lon="11.4148659"><ele>448.0</ele><time>2026-04-26T11:11:25.994Z</time></trkpt><trkpt lat="43.0742424" lon="11.4147214"><ele>450.0</ele><time>2026-04-26T11:11:27.028Z</time></trkpt><trkpt lat="43.0741994" lon="11.4146052"><ele>451.4</ele><time>2026-04-26T11:11:28.014Z</time></trkpt><trkpt lat="43.0741472" lon="11.4145165"><ele>452.8</ele><time>2026-04-26T11:11:29.006Z</time></trkpt><trkpt lat="43.0740799" lon="11.414456"><ele>454.20000000000005</ele><time>2026-04-26T11:11:29.986Z</time></trkpt><trkpt lat="43.0739938" lon="11.4144168"><ele>455.6</ele><time>2026-04-26T11:11:31.001Z</time></trkpt><trkpt lat="43.0738992" lon="11.414395"><ele>457.0</ele><time>2026-04-26T11:11:31.992Z</time></trkpt><trkpt lat="43.0737987" lon="11.4143815"><ele>459.75</ele><time>2026-04-26T11:11:32.995Z</time></trkpt><trkpt lat="43.0736893" lon="11.4143712"><ele>462.5</ele><time>2026-04-26T11:11:33.996Z</time></trkpt><trkpt lat="43.0735721" lon="11.4143603"><ele>465.25</ele><time>2026-04-26T11:11:35Z</time></trkpt><trkpt lat="43.0734488" lon="11.4143397"><ele>468.0</ele><time>2026-04-26T11:11:35.98Z</time></trkpt><trkpt lat="43.073316" lon="11.4143082"><ele>470.25</ele><time>2026-04-26T11:11:36.978Z</time></trkpt><trkpt lat="43.0731796" lon="11.4142842"><ele>472.5</ele><time>2026-04-26T11:11:37.973Z</time></trkpt><trkpt lat="43.0730387" lon="11.4142816"><ele>474.75</ele><time>2026-04-26T11:11:38.981Z</time></trkpt><trkpt lat="43.0728997" lon="11.4142914"><ele>477.0</ele><time>2026-04-26T11:11:39.991Z</time></trkpt><trkpt lat="43.0727752" lon="11.4142951"><ele>477.0</ele><time>2026-04-26T11:11:40.988Z</time></trkpt><trkpt lat="43.072661" lon="11.414282"><ele>477.0</ele><time>2026-04-26T11:11:41.994Z</time></trkpt><trkpt lat="43.0725508" lon="11.4142452"><ele>477.0</ele><time>2026-04-26T11:11:42.997Z</time></trkpt><trkpt lat="43.0724432" lon="11.4141889"><ele>477.0</ele><time>2026-04-26T11:11:43.996Z</time></trkpt><trkpt lat="43.0723384" lon="11.4141226"><ele>476.5</ele><time>2026-04-26T11:11:44.988Z</time></trkpt><trkpt lat="43.0722392" lon="11.4140549"><ele>476.0</ele><time>2026-04-26T11:11:45.994Z</time></trkpt><trkpt lat="43.072135" lon="11.4139891"><ele>475.5</ele><time>2026-04-26T11:11:46.987Z</time></trkpt><trkpt lat="43.0720222" lon="11.4139327"><ele>475.0</ele><time>2026-04-26T11:11:47.99Z</time></trkpt><trkpt lat="43.0719024" lon="11.4138807"><ele>477.75</ele><time>2026-04-26T11:11:48.982Z</time></trkpt><trkpt lat="43.071778" lon="11.4138136"><ele>480.5</ele><time>2026-04-26T11:11:49.994Z</time></trkpt><trkpt lat="43.0716705" lon="11.4137323"><ele>483.25</ele><time>2026-04-26T11:11:50.983Z</time></trkpt><trkpt lat="43.0715716" lon="11.4136541"><ele>486.0</ele><time>2026-04-26T11:11:51.989Z</time></trkpt><trkpt lat="43.0714775" lon="11.413599"><ele>486.0</ele><time>2026-04-26T11:11:52.979Z</time></trkpt><trkpt lat="43.0713755" lon="11.4135742"><ele>486.0</ele><time>2026-04-26T11:11:53.984Z</time></trkpt><trkpt lat="43.0712597" lon="11.4135815"><ele>486.0</ele><time>2026-04-26T11:11:54.988Z</time></trkpt><trkpt lat="43.0711426" lon="11.4136017"><ele>486.0</ele><time>2026-04-26T11:11:56.008Z</time></trkpt><trkpt lat="43.0710343" lon="11.4135992"><ele>486.0</ele><time>2026-04-26T11:11:57.019Z</time></trkpt><trkpt lat="43.0709361" lon="11.4135527"><ele>486.0</ele><time>2026-04-26T11:11:58Z</time></trkpt><trkpt lat="43.0708442" lon="11.4134742"><ele>486.0</ele><time>2026-04-26T11:11:58.997Z</time></trkpt><trkpt lat="43.0707527" lon="11.4133746"><ele>486.0</ele><time>2026-04-26T11:11:59.988Z</time></trkpt><trkpt lat="43.0706572" lon="11.4132578"><ele>486.0</ele><time>2026-04-26T11:12:00.982Z</time></trkpt><trkpt lat="43.0705635" lon="11.4131403"><ele>487.5</ele><time>2026-04-26T11:12:01.969Z</time></trkpt><trkpt lat="43.0704805" lon="11.4130408"><ele>489.0</ele><time>2026-04-26T11:12:02.98Z</time></trkpt><trkpt lat="43.0704034" lon="11.4129657"><ele>490.5</ele><time>2026-04-26T11:12:03.987Z</time></trkpt><trkpt lat="43.0703302" lon="11.4129215"><ele>492.0</ele><time>2026-04-26T11:12:04.989Z</time></trkpt><trkpt lat="43.0702587" lon="11.412915"><ele>493.5</ele><time>2026-04-26T11:12:06.002Z</time></trkpt><trkpt lat="43.070192" lon="11.4129519"><ele>495.0</ele><time>2026-04-26T11:12:06.995Z</time></trkpt><trkpt lat="43.0701357" lon="11.4130271"><ele>495.0</ele><time>2026-04-26T11:12:08.003Z</time></trkpt><trkpt lat="43.0700934" lon="11.4131282"><ele>495.0</ele><time>2026-04-26T11:12:08.995Z</time></trkpt><trkpt lat="43.0700554" lon="11.4132499"><ele>495.0</ele><time>2026-04-26T11:12:09.988Z</time></trkpt><trkpt lat="43.0700184" lon="11.413384"><ele>495.0</ele><time>2026-04-26T11:12:10.994Z</time></trkpt><trkpt lat="43.0699899" lon="11.4135242"><ele>495.0</ele><time>2026-04-26T11:12:11.998Z</time></trkpt><trkpt lat="43.0699812" lon="11.4136749"><ele>494.75</ele><time>2026-04-26T11:12:12.991Z</time></trkpt><trkpt lat="43.0699916" lon="11.4138358"><ele>494.5</ele><time>2026-04-26T11:12:13.994Z</time></trkpt><trkpt lat="43.0700052" lon="11.414004"><ele>494.25</ele><time>2026-04-26T11:12:14.996Z</time></trkpt><trkpt lat="43.0700113" lon="11.4141827"><ele>494.0</ele><time>2026-04-26T11:12:16.004Z</time></trkpt><trkpt lat="43.0700056" lon="11.4143519"><ele>494.0</ele><time>2026-04-26T11:12:17.008Z</time></trkpt><trkpt lat="43.0699861" lon="11.4144987"><ele>494.0</ele><time>2026-04-26T11:12:17.988Z</time></trkpt><trkpt lat="43.0699552" lon="11.4146375"><ele>494.0</ele><time>2026-04-26T11:12:18.997Z</time></trkpt><trkpt lat="43.0699031" lon="11.4147675"><ele>494.0</ele><time>2026-04-26T11:12:19.994Z</time></trkpt><trkpt lat="43.0698352" lon="11.4148803"><ele>494.0</ele><time>2026-04-26T11:12:21.003Z</time></trkpt><trkpt lat="43.0697564" lon="11.4149661"><ele>495.25</ele><time>2026-04-26T11:12:21.99Z</time></trkpt><trkpt lat="43.0696607" lon="11.4150408"><ele>496.5</ele><time>2026-04-26T11:12:22.991Z</time></trkpt><trkpt lat="43.0695542" lon="11.415116"><ele>497.75</ele><time>2026-04-26T11:12:23.981Z</time></trkpt><trkpt lat="43.0694415" lon="11.4152052"><ele>499.0</ele><time>2026-04-26T11:12:24.993Z</time></trkpt><trkpt lat="43.0693387" lon="11.415302"><ele>499.0</ele><time>2026-04-26T11:12:25.979Z</time></trkpt><trkpt lat="43.0692452" lon="11.4153896"><ele>499.0</ele><time>2026-04-26T11:12:26.986Z</time></trkpt><trkpt lat="43.0691505" lon="11.4154602"><ele>499.0</ele><time>2026-04-26T11:12:27.993Z</time></trkpt><trkpt lat="43.0690444" lon="11.4155131"><ele>499.0</ele><time>2026-04-26T11:12:29.011Z</time></trkpt><trkpt lat="43.0689333" lon="11.4155467"><ele>499.0</ele><time>2026-04-26T11:12:30.026Z</time></trkpt><trkpt lat="43.0688288" lon="11.4155725"><ele>496.25</ele><time>2026-04-26T11:12:31.02Z</time></trkpt><trkpt lat="43.0687277" lon="11.415609"><ele>493.5</ele><time>2026-04-26T11:12:32Z</time></trkpt><trkpt lat="43.0686231" lon="11.415671"><ele>490.75</ele><time>2026-04-26T11:12:33.012Z</time></trkpt><trkpt lat="43.0685191" lon="11.4157607"><ele>488.0</ele><time>2026-04-26T11:12:34.025Z</time></trkpt><trkpt lat="43.0684182" lon="11.4158753"><ele>488.0</ele><time>2026-04-26T11:12:35.004Z</time></trkpt><trkpt lat="43.0683147" lon="11.4160036"><ele>488.0</ele><time>2026-04-26T11:12:36.006Z</time></trkpt><trkpt lat="43.0682058" lon="11.4161253"><ele>488.0</ele><time>2026-04-26T11:12:37.006Z</time></trkpt><trkpt lat="43.0680937" lon="11.4162274"><ele>488.0</ele><time>2026-04-26T11:12:37.999Z</time></trkpt><trkpt lat="43.0679868" lon="11.4163091"><ele>489.79999999999995</ele><time>2026-04-26T11:12:39.007Z</time></trkpt><trkpt lat="43.0678927" lon="11.4163797"><ele>491.59999999999997</ele><time>2026-04-26T11:12:40.009Z</time></trkpt><trkpt lat="43.0678176" lon="11.4164516"><ele>493.40000000000003</ele><time>2026-04-26T11:12:41Z</time></trkpt><trkpt lat="43.0677614" lon="11.4165363"><ele>495.20000000000005</ele><time>2026-04-26T11:12:41.998Z</time></trkpt><trkpt lat="43.0677195" lon="11.4166407"><ele>497.0</ele><time>2026-04-26T11:12:42.999Z</time></trkpt><trkpt lat="43.0676873" lon="11.4167653"><ele>497.0</ele><time>2026-04-26T11:12:43.993Z</time></trkpt><trkpt lat="43.06765" lon="11.4169046"><ele>497.0</ele><time>2026-04-26T11:12:44.998Z</time></trkpt><trkpt lat="43.0675909" lon="11.4170487"><ele>497.0</ele><time>2026-04-26T11:12:45.989Z</time></trkpt><trkpt lat="43.0675099" lon="11.4171981"><ele>497.0</ele><time>2026-04-26T11:12:46.998Z</time></trkpt><trkpt lat="43.067421" lon="11.417338"><ele>498.75</ele><time>2026-04-26T11:12:47.989Z</time></trkpt><trkpt lat="43.0673301" lon="11.4174527"><ele>500.5</ele><time>2026-04-26T11:12:48.99Z</time></trkpt><trkpt lat="43.0672383" lon="11.4175337"><ele>502.25</ele><time>2026-04-26T11:12:49.984Z</time></trkpt><trkpt lat="43.0671396" lon="11.4175895"><ele>504.0</ele><time>2026-04-26T11:12:50.992Z</time></trkpt><trkpt lat="43.0670333" lon="11.4176351"><ele>504.0</ele><time>2026-04-26T11:12:51.978Z</time></trkpt><trkpt lat="43.0669307" lon="11.4176833"><ele>504.0</ele><time>2026-04-26T11:12:52.995Z</time></trkpt><trkpt lat="43.0668462" lon="11.4177407"><ele>504.0</ele><time>2026-04-26T11:12:53.998Z</time></trkpt><trkpt lat="43.066779" lon="11.417824"><ele>504.0</ele><time>2026-04-26T11:12:54.999Z</time></trkpt><trkpt lat="43.0667245" lon="11.4179403"><ele>504.0</ele><time>2026-04-26T11:12:56.002Z</time></trkpt><trkpt lat="43.0666741" lon="11.4180796"><ele>502.25</ele><time>2026-04-26T11:12:57.004Z</time></trkpt><trkpt lat="43.0666292" lon="11.4182286"><ele>500.5</ele><time>2026-04-26T11:12:57.999Z</time></trkpt><trkpt lat="43.0665946" lon="11.4183808"><ele>498.75</ele><time>2026-04-26T11:12:59.02Z</time></trkpt><trkpt lat="43.0665727" lon="11.4185378"><ele>497.0</ele><time>2026-04-26T11:13:00Z</time></trkpt><trkpt lat="43.0665593" lon="11.4187044"><ele>493.0</ele><time>2026-04-26T11:13:01.006Z</time></trkpt><trkpt lat="43.0665532" lon="11.4188766"><ele>489.0</ele><time>2026-04-26T11:13:02.015Z</time></trkpt><trkpt lat="43.0665541" lon="11.4190577"><ele>485.0</ele><time>2026-04-26T11:13:03.024Z</time></trkpt><trkpt lat="43.0665592" lon="11.4192503"><ele>481.0</ele><time>2026-04-26T11:13:04.027Z</time></trkpt><trkpt lat="43.0665676" lon="11.4194417"><ele>481.0</ele><time>2026-04-26T11:13:04.998Z</time></trkpt><trkpt lat="43.0665739" lon="11.4196265"><ele>481.0</ele><time>2026-04-26T11:13:05.994Z</time></trkpt><trkpt lat="43.0665693" lon="11.4197978"><ele>481.0</ele><time>2026-04-26T11:13:06.994Z</time></trkpt><trkpt lat="43.0665429" lon="11.4199568"><ele>481.0</ele><time>2026-04-26T11:13:07.989Z</time></trkpt><trkpt lat="43.0664882" lon="11.4201044"><ele>482.0</ele><time>2026-04-26T11:13:08.977Z</time></trkpt><trkpt lat="43.0664134" lon="11.4202504"><ele>483.0</ele><time>2026-04-26T11:13:09.985Z</time></trkpt><trkpt lat="43.0663328" lon="11.4204103"><ele>484.0</ele><time>2026-04-26T11:13:10.993Z</time></trkpt><trkpt lat="43.0662539" lon="11.4205849"><ele>485.0</ele><time>2026-04-26T11:13:11.98Z</time></trkpt><trkpt lat="43.066171" lon="11.4207666"><ele>487.3333333333333</ele><time>2026-04-26T11:13:12.978Z</time></trkpt><trkpt lat="43.0660806" lon="11.4209386"><ele>489.66666666666663</ele><time>2026-04-26T11:13:13.973Z</time></trkpt><trkpt lat="43.0659878" lon="11.4210991"><ele>492.0</ele><time>2026-04-26T11:13:14.976Z</time></trkpt><trkpt lat="43.0658976" lon="11.4212641"><ele>493.25</ele><time>2026-04-26T11:13:15.966Z</time></trkpt><trkpt lat="43.0658129" lon="11.4214323"><ele>494.5</ele><time>2026-04-26T11:13:16.976Z</time></trkpt><trkpt lat="43.0657388" lon="11.4215848"><ele>495.75</ele><time>2026-04-26T11:13:17.976Z</time></trkpt><trkpt lat="43.065665" lon="11.4217157"><ele>497.0</ele><time>2026-04-26T11:13:18.983Z</time></trkpt><trkpt lat="43.0655775" lon="11.4218266"><ele>496.25</ele><time>2026-04-26T11:13:19.991Z</time></trkpt><trkpt lat="43.0654722" lon="11.4219281"><ele>495.5</ele><time>2026-04-26T11:13:20.988Z</time></trkpt><trkpt lat="43.0653627" lon="11.4220285"><ele>494.75</ele><time>2026-04-26T11:13:21.978Z</time></trkpt><trkpt lat="43.0652561" lon="11.4221194"><ele>494.0</ele><time>2026-04-26T11:13:22.988Z</time></trkpt><trkpt lat="43.0651544" lon="11.4221852"><ele>494.0</ele><time>2026-04-26T11:13:23.991Z</time></trkpt><trkpt lat="43.0650548" lon="11.4222193"><ele>494.0</ele><time>2026-04-26T11:13:24.978Z</time></trkpt><trkpt lat="43.0649471" lon="11.4222343"><ele>494.0</ele><time>2026-04-26T11:13:25.99Z</time></trkpt><trkpt lat="43.0648272" lon="11.4222424"><ele>494.0</ele><time>2026-04-26T11:13:26.985Z</time></trkpt><trkpt lat="43.064692" lon="11.4222405"><ele>492.0</ele><time>2026-04-26T11:13:27.998Z</time></trkpt><trkpt lat="43.0645572" lon="11.4222194"><ele>490.0</ele><time>2026-04-26T11:13:29.01Z</time></trkpt><trkpt lat="43.0644324" lon="11.4221795"><ele>488.0</ele><time>2026-04-26T11:13:30.013Z</time></trkpt><trkpt lat="43.0643177" lon="11.4221287"><ele>486.0</ele><time>2026-04-26T11:13:30.989Z</time></trkpt><trkpt lat="43.0642121" lon="11.4220724"><ele>484.8333333333333</ele><time>2026-04-26T11:13:32.001Z</time></trkpt><trkpt lat="43.0641227" lon="11.4220197"><ele>483.66666666666663</ele><time>2026-04-26T11:13:33.008Z</time></trkpt><trkpt lat="43.064047" lon="11.4219792"><ele>482.5</ele><time>2026-04-26T11:13:33.991Z</time></trkpt><trkpt lat="43.0639737" lon="11.421962"><ele>481.3333333333333</ele><time>2026-04-26T11:13:35.002Z</time></trkpt><trkpt lat="43.0638925" lon="11.4219678"><ele>480.16666666666663</ele><time>2026-04-26T11:13:35.989Z</time></trkpt><trkpt lat="43.0637936" lon="11.4219868"><ele>479.0</ele><time>2026-04-26T11:13:36.991Z</time></trkpt><trkpt lat="43.0636905" lon="11.4220088"><ele>477.6</ele><time>2026-04-26T11:13:37.978Z</time></trkpt><trkpt lat="43.0636066" lon="11.4220322"><ele>476.2</ele><time>2026-04-26T11:13:38.983Z</time></trkpt><trkpt lat="43.0635113" lon="11.422128"><ele>474.80000000000007</ele><time>2026-04-26T11:13:40.987Z</time></trkpt><trkpt lat="43.0634899" lon="11.4222204"><ele>473.40000000000003</ele><time>2026-04-26T11:13:41.989Z</time></trkpt><trkpt lat="43.0634907" lon="11.4223348"><ele>472.0</ele><time>2026-04-26T11:13:42.999Z</time></trkpt><trkpt lat="43.0635149" lon="11.4224655"><ele>472.0</ele><time>2026-04-26T11:13:43.992Z</time></trkpt><trkpt lat="43.0635448" lon="11.4226108"><ele>472.00000000000006</ele><time>2026-04-26T11:13:45.002Z</time></trkpt><trkpt lat="43.0635532" lon="11.4227532"><ele>472.00000000000006</ele><time>2026-04-26T11:13:45.977Z</time></trkpt><trkpt lat="43.0635315" lon="11.4228972"><ele>472.0</ele><time>2026-04-26T11:13:46.987Z</time></trkpt><trkpt lat="43.0634837" lon="11.4230412"><ele>472.0</ele><time>2026-04-26T11:13:47.994Z</time></trkpt><trkpt lat="43.063425" lon="11.4231778"><ele>471.40000000000003</ele><time>2026-04-26T11:13:49Z</time></trkpt><trkpt lat="43.0633767" lon="11.4233043"><ele>470.80000000000007</ele><time>2026-04-26T11:13:50.005Z</time></trkpt><trkpt lat="43.0633484" lon="11.4234243"><ele>470.2</ele><time>2026-04-26T11:13:51.014Z</time></trkpt><trkpt lat="43.0633406" lon="11.4235406"><ele>469.6</ele><time>2026-04-26T11:13:51.996Z</time></trkpt><trkpt lat="43.0633502" lon="11.4236689"><ele>469.0</ele><time>2026-04-26T11:13:53.009Z</time></trkpt><trkpt lat="43.063373" lon="11.4238077"><ele>468.2</ele><time>2026-04-26T11:13:53.997Z</time></trkpt><trkpt lat="43.0633947" lon="11.4239377"><ele>467.4</ele><time>2026-04-26T11:13:55.01Z</time></trkpt><trkpt lat="43.0633993" lon="11.4240552"><ele>466.6</ele><time>2026-04-26T11:13:55.994Z</time></trkpt><trkpt lat="43.0633804" lon="11.4241886"><ele>465.8</ele><time>2026-04-26T11:13:57Z</time></trkpt><trkpt lat="43.0633404" lon="11.4243487"><ele>465.0</ele><time>2026-04-26T11:13:58.027Z</time></trkpt><trkpt lat="43.0632976" lon="11.4245159"><ele>464.25</ele><time>2026-04-26T11:13:59.033Z</time></trkpt><trkpt lat="43.0632665" lon="11.4246772"><ele>463.5</ele><time>2026-04-26T11:14:00.019Z</time></trkpt><trkpt lat="43.0632399" lon="11.4248391"><ele>462.75</ele><time>2026-04-26T11:14:00.99Z</time></trkpt><trkpt lat="43.0632038" lon="11.4249997"><ele>462.0</ele><time>2026-04-26T11:14:01.988Z</time></trkpt><trkpt lat="43.063148" lon="11.4251489"><ele>462.0</ele><time>2026-04-26T11:14:02.976Z</time></trkpt><trkpt lat="43.0630719" lon="11.425295"><ele>462.0</ele><time>2026-04-26T11:14:03.984Z</time></trkpt><trkpt lat="43.062993" lon="11.4254342"><ele>462.0</ele><time>2026-04-26T11:14:04.988Z</time></trkpt><trkpt lat="43.0629271" lon="11.425563"><ele>462.0</ele><time>2026-04-26T11:14:05.99Z</time></trkpt><trkpt lat="43.0628795" lon="11.4256948"><ele>463.0</ele><time>2026-04-26T11:14:07.009Z</time></trkpt><trkpt lat="43.0628508" lon="11.4258383"><ele>464.0</ele><time>2026-04-26T11:14:08Z</time></trkpt><trkpt lat="43.0628388" lon="11.4259971"><ele>465.0</ele><time>2026-04-26T11:14:09.004Z</time></trkpt><trkpt lat="43.0628362" lon="11.4261645"><ele>466.0</ele><time>2026-04-26T11:14:09.998Z</time></trkpt><trkpt lat="43.0628419" lon="11.4263431"><ele>467.0</ele><time>2026-04-26T11:14:11.014Z</time></trkpt><trkpt lat="43.0628587" lon="11.4265292"><ele>468.0</ele><time>2026-04-26T11:14:11.996Z</time></trkpt><trkpt lat="43.0628835" lon="11.4267124"><ele>469.0</ele><time>2026-04-26T11:14:13.018Z</time></trkpt><trkpt lat="43.0629018" lon="11.4268711"><ele>470.0</ele><time>2026-04-26T11:14:14.001Z</time></trkpt><trkpt lat="43.0628999" lon="11.4270105"><ele>470.0</ele><time>2026-04-26T11:14:15.01Z</time></trkpt><trkpt lat="43.0628703" lon="11.4271312"><ele>470.0</ele><time>2026-04-26T11:14:15.988Z</time></trkpt><trkpt lat="43.0628134" lon="11.4272441"><ele>470.0</ele><time>2026-04-26T11:14:16.989Z</time></trkpt><trkpt lat="43.0627331" lon="11.4273377"><ele>470.0</ele><time>2026-04-26T11:14:17.996Z</time></trkpt><trkpt lat="43.0626353" lon="11.427409"><ele>470.0</ele><time>2026-04-26T11:14:19.005Z</time></trkpt><trkpt lat="43.0625247" lon="11.4274646"><ele>470.0</ele><time>2026-04-26T11:14:20.008Z</time></trkpt><trkpt lat="43.0624059" lon="11.427516"><ele>470.0</ele><time>2026-04-26T11:14:20.999Z</time></trkpt><trkpt lat="43.0622835" lon="11.4275675"><ele>470.0</ele><time>2026-04-26T11:14:22.004Z</time></trkpt><trkpt lat="43.0621667" lon="11.4276065"><ele>470.0</ele><time>2026-04-26T11:14:23.01Z</time></trkpt><trkpt lat="43.0620592" lon="11.4276249"><ele>470.0</ele><time>2026-04-26T11:14:24Z</time></trkpt><trkpt lat="43.0619561" lon="11.4276204"><ele>470.0</ele><time>2026-04-26T11:14:25.001Z</time></trkpt><trkpt lat="43.0618526" lon="11.4275886"><ele>470.0</ele><time>2026-04-26T11:14:25.988Z</time></trkpt><trkpt lat="43.0617437" lon="11.4275304"><ele>470.0</ele><time>2026-04-26T11:14:26.991Z</time></trkpt><trkpt lat="43.0616379" lon="11.4274603"><ele>470.0</ele><time>2026-04-26T11:14:27.994Z</time></trkpt><trkpt lat="43.0615389" lon="11.427406"><ele>470.2</ele><time>2026-04-26T11:14:29.016Z</time></trkpt><trkpt lat="43.0614409" lon="11.4273845"><ele>470.4</ele><time>2026-04-26T11:14:30.002Z</time></trkpt><trkpt lat="43.0613377" lon="11.4273903"><ele>470.6</ele><time>2026-04-26T11:14:30.99Z</time></trkpt><trkpt lat="43.0612234" lon="11.4274159"><ele>470.8</ele><time>2026-04-26T11:14:31.991Z</time></trkpt><trkpt lat="43.0611001" lon="11.4274547"><ele>471.0</ele><time>2026-04-26T11:14:33.003Z</time></trkpt><trkpt lat="43.0609854" lon="11.4274891"><ele>471.0</ele><time>2026-04-26T11:14:33.994Z</time></trkpt><trkpt lat="43.060883" lon="11.4274951"><ele>471.0</ele><time>2026-04-26T11:14:34.998Z</time></trkpt><trkpt lat="43.060787" lon="11.4274639"><ele>471.0</ele><time>2026-04-26T11:14:36.003Z</time></trkpt><trkpt lat="43.0606928" lon="11.4273985"><ele>471.0</ele><time>2026-04-26T11:14:37Z</time></trkpt><trkpt lat="43.0605981" lon="11.4273258"><ele>471.0</ele><time>2026-04-26T11:14:37.993Z</time></trkpt><trkpt lat="43.0605092" lon="11.4272734"><ele>472.3333333333333</ele><time>2026-04-26T11:14:39Z</time></trkpt><trkpt lat="43.0604358" lon="11.427252"><ele>473.66666666666663</ele><time>2026-04-26T11:14:39.986Z</time></trkpt><trkpt lat="43.060331" lon="11.4273149"><ele>475.0</ele><time>2026-04-26T11:14:41.987Z</time></trkpt><trkpt lat="43.0603013" lon="11.4273939"><ele>476.3333333333333</ele><time>2026-04-26T11:14:42.998Z</time></trkpt><trkpt lat="43.0602858" lon="11.4274982"><ele>477.66666666666663</ele><time>2026-04-26T11:14:44.002Z</time></trkpt><trkpt lat="43.0602683" lon="11.4276137"><ele>479.0</ele><time>2026-04-26T11:14:45.007Z</time></trkpt><trkpt lat="43.0602311" lon="11.4277039"><ele>478.99999999999994</ele><time>2026-04-26T11:14:45.996Z</time></trkpt><trkpt lat="43.0601745" lon="11.4277648"><ele>479.0</ele><time>2026-04-26T11:14:47.002Z</time></trkpt><trkpt lat="43.060102" lon="11.4278132"><ele>479.0</ele><time>2026-04-26T11:14:47.99Z</time></trkpt><trkpt lat="43.0600189" lon="11.4278589"><ele>479.0</ele><time>2026-04-26T11:14:49.003Z</time></trkpt><trkpt lat="43.0599327" lon="11.4278917"><ele>478.99999999999994</ele><time>2026-04-26T11:14:50.004Z</time></trkpt><trkpt lat="43.0598549" lon="11.427897"><ele>479.0</ele><time>2026-04-26T11:14:50.988Z</time></trkpt><trkpt lat="43.0597845" lon="11.4278704"><ele>479.8333333333333</ele><time>2026-04-26T11:14:51.981Z</time></trkpt><trkpt lat="43.059721" lon="11.4278126"><ele>480.66666666666663</ele><time>2026-04-26T11:14:52.988Z</time></trkpt><trkpt lat="43.0596624" lon="11.4277299"><ele>481.5</ele><time>2026-04-26T11:14:53.993Z</time></trkpt><trkpt lat="43.0596037" lon="11.4276335"><ele>482.33333333333337</ele><time>2026-04-26T11:14:55Z</time></trkpt><trkpt lat="43.0595405" lon="11.4275339"><ele>483.1666666666667</ele><time>2026-04-26T11:14:55.985Z</time></trkpt><trkpt lat="43.0594698" lon="11.427436"><ele>484.0</ele><time>2026-04-26T11:14:56.996Z</time></trkpt><trkpt lat="43.0593961" lon="11.4273524"><ele>484.00000000000006</ele><time>2026-04-26T11:14:58.004Z</time></trkpt><trkpt lat="43.0593229" lon="11.4272947"><ele>484.0</ele><time>2026-04-26T11:14:59.026Z</time></trkpt><trkpt lat="43.0592485" lon="11.427265"><ele>484.0</ele><time>2026-04-26T11:15:00.015Z</time></trkpt><trkpt lat="43.0591716" lon="11.4272693"><ele>484.0</ele><time>2026-04-26T11:15:00.998Z</time></trkpt><trkpt lat="43.0590997" lon="11.4273109"><ele>484.00000000000006</ele><time>2026-04-26T11:15:01.989Z</time></trkpt><trkpt lat="43.0590457" lon="11.4273783"><ele>484.0</ele><time>2026-04-26T11:15:02.998Z</time></trkpt><trkpt lat="43.0590185" lon="11.4274605"><ele>484.0</ele><time>2026-04-26T11:15:03.998Z</time></trkpt><trkpt lat="43.0590405" lon="11.4276309"><ele>484.0</ele><time>2026-04-26T11:15:05.991Z</time></trkpt><trkpt lat="43.0590711" lon="11.4277256"><ele>484.0</ele><time>2026-04-26T11:15:07.003Z</time></trkpt><trkpt lat="43.0591114" lon="11.4278403"><ele>484.0</ele><time>2026-04-26T11:15:08.005Z</time></trkpt><trkpt lat="43.0591538" lon="11.4279736"><ele>484.0</ele><time>2026-04-26T11:15:09.008Z</time></trkpt><trkpt lat="43.0591848" lon="11.4281035"><ele>483.1666666666667</ele><time>2026-04-26T11:15:09.99Z</time></trkpt><trkpt lat="43.0591907" lon="11.4282112"><ele>482.33333333333337</ele><time>2026-04-26T11:15:10.997Z</time></trkpt><trkpt lat="43.0591671" lon="11.4282911"><ele>481.5</ele><time>2026-04-26T11:15:11.988Z</time></trkpt><trkpt lat="43.0591167" lon="11.428348"><ele>480.66666666666663</ele><time>2026-04-26T11:15:13.006Z</time></trkpt><trkpt lat="43.0590444" lon="11.4283798"><ele>479.8333333333333</ele><time>2026-04-26T11:15:13.991Z</time></trkpt><trkpt lat="43.0589594" lon="11.4284039"><ele>479.0</ele><time>2026-04-26T11:15:14.99Z</time></trkpt><trkpt lat="43.0588772" lon="11.4284497"><ele>480.4</ele><time>2026-04-26T11:15:15.982Z</time></trkpt><trkpt lat="43.0588" lon="11.4285282"><ele>481.79999999999995</ele><time>2026-04-26T11:15:16.99Z</time></trkpt><trkpt lat="43.0587232" lon="11.4286308"><ele>483.20000000000005</ele><time>2026-04-26T11:15:17.977Z</time></trkpt><trkpt lat="43.0586501" lon="11.4287571"><ele>484.6</ele><time>2026-04-26T11:15:18.99Z</time></trkpt><trkpt lat="43.0585834" lon="11.428906"><ele>486.0</ele><time>2026-04-26T11:15:19.997Z</time></trkpt><trkpt lat="43.058521" lon="11.4290743"><ele>486.0</ele><time>2026-04-26T11:15:21.003Z</time></trkpt><trkpt lat="43.0584619" lon="11.4292553"><ele>486.0</ele><time>2026-04-26T11:15:22.007Z</time></trkpt><trkpt lat="43.0584101" lon="11.4294431"><ele>486.0</ele><time>2026-04-26T11:15:22.996Z</time></trkpt><trkpt lat="43.058364" lon="11.4296391"><ele>486.0</ele><time>2026-04-26T11:15:24.004Z</time></trkpt><trkpt lat="43.0583256" lon="11.4298291"><ele>486.0</ele><time>2026-04-26T11:15:25.009Z</time></trkpt><trkpt lat="43.0582965" lon="11.4299963"><ele>486.0</ele><time>2026-04-26T11:15:25.992Z</time></trkpt><trkpt lat="43.05828" lon="11.43015"><ele>486.0</ele><time>2026-04-26T11:15:27.018Z</time></trkpt><trkpt lat="43.0582785" lon="11.4303049"><ele>486.0</ele><time>2026-04-26T11:15:28.004Z</time></trkpt><trkpt lat="43.0582861" lon="11.4304668"><ele>485.8</ele><time>2026-04-26T11:15:29.019Z</time></trkpt><trkpt lat="43.0582879" lon="11.43062"><ele>485.6</ele><time>2026-04-26T11:15:30.044Z</time></trkpt><trkpt lat="43.0582717" lon="11.4307554"><ele>485.4</ele><time>2026-04-26T11:15:31.028Z</time></trkpt><trkpt lat="43.0582317" lon="11.430865"><ele>485.2</ele><time>2026-04-26T11:15:32.008Z</time></trkpt><trkpt lat="43.0581646" lon="11.4309526"><ele>485.0</ele><time>2026-04-26T11:15:33.011Z</time></trkpt><trkpt lat="43.058071" lon="11.43103"><ele>485.75</ele><time>2026-04-26T11:15:33.996Z</time></trkpt><trkpt lat="43.0579504" lon="11.4311062"><ele>486.5</ele><time>2026-04-26T11:15:35.006Z</time></trkpt><trkpt lat="43.0578163" lon="11.4311886"><ele>487.25</ele><time>2026-04-26T11:15:35.992Z</time></trkpt><trkpt lat="43.0576851" lon="11.4312796"><ele>488.0</ele><time>2026-04-26T11:15:37.005Z</time></trkpt><trkpt lat="43.0575667" lon="11.4313792"><ele>488.0</ele><time>2026-04-26T11:15:38.009Z</time></trkpt><trkpt lat="43.0574587" lon="11.4314938"><ele>488.0</ele><time>2026-04-26T11:15:38.997Z</time></trkpt><trkpt lat="43.0573597" lon="11.4316182"><ele>488.0</ele><time>2026-04-26T11:15:40.001Z</time></trkpt><trkpt lat="43.0572708" lon="11.431744"><ele>488.0</ele><time>2026-04-26T11:15:40.99Z</time></trkpt><trkpt lat="43.0571876" lon="11.4318755"><ele>488.25</ele><time>2026-04-26T11:15:41.987Z</time></trkpt><trkpt lat="43.0571087" lon="11.4320168"><ele>488.5</ele><time>2026-04-26T11:15:42.98Z</time></trkpt><trkpt lat="43.0570397" lon="11.4321569"><ele>488.75</ele><time>2026-04-26T11:15:43.994Z</time></trkpt><trkpt lat="43.056978" lon="11.4322843"><ele>489.0</ele><time>2026-04-26T11:15:45Z</time></trkpt><trkpt lat="43.0569158" lon="11.4324076"><ele>489.25</ele><time>2026-04-26T11:15:46.004Z</time></trkpt><trkpt lat="43.0568477" lon="11.4325283"><ele>489.5</ele><time>2026-04-26T11:15:47.008Z</time></trkpt><trkpt lat="43.0567708" lon="11.4326428"><ele>489.75</ele><time>2026-04-26T11:15:47.999Z</time></trkpt><trkpt lat="43.0566861" lon="11.4327569"><ele>490.0</ele><time>2026-04-26T11:15:49.011Z</time></trkpt><trkpt lat="43.0566059" lon="11.432876"><ele>491.4</ele><time>2026-04-26T11:15:50Z</time></trkpt><trkpt lat="43.0565344" lon="11.4329909"><ele>492.8</ele><time>2026-04-26T11:15:50.999Z</time></trkpt><trkpt lat="43.0564653" lon="11.433082"><ele>494.20000000000005</ele><time>2026-04-26T11:15:51.988Z</time></trkpt><trkpt lat="43.0563798" lon="11.4331585"><ele>495.6</ele><time>2026-04-26T11:15:52.992Z</time></trkpt><trkpt lat="43.0562745" lon="11.4332258"><ele>497.0</ele><time>2026-04-26T11:15:54.002Z</time></trkpt><trkpt lat="43.0561519" lon="11.4332863"><ele>497.0</ele><time>2026-04-26T11:15:55.01Z</time></trkpt><trkpt lat="43.0560208" lon="11.4333383"><ele>497.0</ele><time>2026-04-26T11:15:55.994Z</time></trkpt><trkpt lat="43.0558892" lon="11.4333817"><ele>497.0</ele><time>2026-04-26T11:15:57.009Z</time></trkpt><trkpt lat="43.0557716" lon="11.4334202"><ele>497.0</ele><time>2026-04-26T11:15:57.995Z</time></trkpt><trkpt lat="43.0556687" lon="11.433462"><ele>496.8</ele><time>2026-04-26T11:15:59.016Z</time></trkpt><trkpt lat="43.0555742" lon="11.4335138"><ele>496.6</ele><time>2026-04-26T11:15:59.994Z</time></trkpt><trkpt lat="43.0554767" lon="11.4335733"><ele>496.40000000000003</ele><time>2026-04-26T11:16:00.998Z</time></trkpt><trkpt lat="43.055375" lon="11.4336315"><ele>496.20000000000005</ele><time>2026-04-26T11:16:01.988Z</time></trkpt><trkpt lat="43.0552568" lon="11.4336809"><ele>496.0</ele><time>2026-04-26T11:16:02.992Z</time></trkpt><trkpt lat="43.0551306" lon="11.4337211"><ele>496.0</ele><time>2026-04-26T11:16:03.996Z</time></trkpt><trkpt lat="43.0550068" lon="11.4337652"><ele>496.0</ele><time>2026-04-26T11:16:04.998Z</time></trkpt><trkpt lat="43.0548912" lon="11.4338245"><ele>496.0</ele><time>2026-04-26T11:16:05.983Z</time></trkpt><trkpt lat="43.0547762" lon="11.4339013"><ele>496.0</ele><time>2026-04-26T11:16:06.995Z</time></trkpt><trkpt lat="43.0546544" lon="11.4339877"><ele>493.5</ele><time>2026-04-26T11:16:07.984Z</time></trkpt><trkpt lat="43.0545228" lon="11.4340677"><ele>491.0</ele><time>2026-04-26T11:16:08.993Z</time></trkpt><trkpt lat="43.0543897" lon="11.434134"><ele>488.5</ele><time>2026-04-26T11:16:10Z</time></trkpt><trkpt lat="43.0542623" lon="11.4341929"><ele>486.0</ele><time>2026-04-26T11:16:11.006Z</time></trkpt><trkpt lat="43.0541379" lon="11.4342409"><ele>485.6</ele><time>2026-04-26T11:16:12.009Z</time></trkpt><trkpt lat="43.0540177" lon="11.434278"><ele>485.20000000000005</ele><time>2026-04-26T11:16:12.982Z</time></trkpt><trkpt lat="43.0539041" lon="11.4343093"><ele>484.79999999999995</ele><time>2026-04-26T11:16:14.002Z</time></trkpt><trkpt lat="43.0538005" lon="11.4343416"><ele>484.4</ele><time>2026-04-26T11:16:15.003Z</time></trkpt><trkpt lat="43.0537065" lon="11.434385"><ele>484.0</ele><time>2026-04-26T11:16:15.99Z</time></trkpt><trkpt lat="43.0536198" lon="11.4344464"><ele>484.0</ele><time>2026-04-26T11:16:16.999Z</time></trkpt><trkpt lat="43.0535354" lon="11.4345243"><ele>484.0</ele><time>2026-04-26T11:16:17.982Z</time></trkpt><trkpt lat="43.0534488" lon="11.4346228"><ele>484.0</ele><time>2026-04-26T11:16:18.997Z</time></trkpt><trkpt lat="43.0533705" lon="11.4347417"><ele>484.0</ele><time>2026-04-26T11:16:19.99Z</time></trkpt><trkpt lat="43.0532997" lon="11.4348805"><ele>482.25</ele><time>2026-04-26T11:16:20.992Z</time></trkpt><trkpt lat="43.0532361" lon="11.4350434"><ele>480.5</ele><time>2026-04-26T11:16:21.992Z</time></trkpt><trkpt lat="43.0531787" lon="11.4352263"><ele>478.75</ele><time>2026-04-26T11:16:22.982Z</time></trkpt><trkpt lat="43.0531309" lon="11.4354172"><ele>477.0</ele><time>2026-04-26T11:16:23.991Z</time></trkpt><trkpt lat="43.0530949" lon="11.4356175"><ele>474.75</ele><time>2026-04-26T11:16:24.999Z</time></trkpt><trkpt lat="43.0530711" lon="11.4358149"><ele>472.5</ele><time>2026-04-26T11:16:26.003Z</time></trkpt><trkpt lat="43.0530526" lon="11.435999"><ele>470.25</ele><time>2026-04-26T11:16:27.001Z</time></trkpt><trkpt lat="43.0530285" lon="11.436162"><ele>468.0</ele><time>2026-04-26T11:16:27.987Z</time></trkpt><trkpt lat="43.0529943" lon="11.4363059"><ele>468.0</ele><time>2026-04-26T11:16:29.002Z</time></trkpt><trkpt lat="43.0529479" lon="11.4364333"><ele>467.99999999999994</ele><time>2026-04-26T11:16:29.985Z</time></trkpt><trkpt lat="43.0528854" lon="11.4365542"><ele>467.99999999999994</ele><time>2026-04-26T11:16:30.985Z</time></trkpt><trkpt lat="43.0528052" lon="11.4366613"><ele>468.0</ele><time>2026-04-26T11:16:31.979Z</time></trkpt><trkpt lat="43.0527172" lon="11.4367402"><ele>468.0</ele><time>2026-04-26T11:16:32.982Z</time></trkpt><trkpt lat="43.0526287" lon="11.4367879"><ele>468.0</ele><time>2026-04-26T11:16:33.996Z</time></trkpt><trkpt lat="43.0525403" lon="11.4368018"><ele>467.99999999999994</ele><time>2026-04-26T11:16:34.998Z</time></trkpt><trkpt lat="43.0524437" lon="11.4367876"><ele>467.99999999999994</ele><time>2026-04-26T11:16:35.998Z</time></trkpt><trkpt lat="43.0523358" lon="11.4367634"><ele>468.0</ele><time>2026-04-26T11:16:36.997Z</time></trkpt><trkpt lat="43.0522181" lon="11.4367542"><ele>468.0</ele><time>2026-04-26T11:16:37.986Z</time></trkpt><trkpt lat="43.052089" lon="11.4367714"><ele>468.25</ele><time>2026-04-26T11:16:39.006Z</time></trkpt><trkpt lat="43.051955" lon="11.4368062"><ele>468.5</ele><time>2026-04-26T11:16:40.006Z</time></trkpt><trkpt lat="43.0518272" lon="11.4368424"><ele>468.75</ele><time>2026-04-26T11:16:40.997Z</time></trkpt><trkpt lat="43.0517169" lon="11.436879"><ele>469.0</ele><time>2026-04-26T11:16:42.008Z</time></trkpt><trkpt lat="43.0516254" lon="11.4369218"><ele>469.1666666666667</ele><time>2026-04-26T11:16:43.029Z</time></trkpt><trkpt lat="43.0515578" lon="11.4369719"><ele>469.33333333333337</ele><time>2026-04-26T11:16:43.998Z</time></trkpt><trkpt lat="43.0515025" lon="11.437035"><ele>469.5</ele><time>2026-04-26T11:16:45.011Z</time></trkpt><trkpt lat="43.0514503" lon="11.4371181"><ele>469.66666666666663</ele><time>2026-04-26T11:16:45.995Z</time></trkpt><trkpt lat="43.0513907" lon="11.4372249"><ele>469.8333333333333</ele><time>2026-04-26T11:16:47.002Z</time></trkpt><trkpt lat="43.0513148" lon="11.4373449"><ele>470.0</ele><time>2026-04-26T11:16:48.004Z</time></trkpt><trkpt lat="43.0512179" lon="11.4374608"><ele>470.0</ele><time>2026-04-26T11:16:49.013Z</time></trkpt><trkpt lat="43.0510992" lon="11.4375675"><ele>470.0</ele><time>2026-04-26T11:16:50.006Z</time></trkpt><trkpt lat="43.0509709" lon="11.4376604"><ele>470.0</ele><time>2026-04-26T11:16:51.011Z</time></trkpt><trkpt lat="43.0508541" lon="11.4377343"><ele>470.0</ele><time>2026-04-26T11:16:51.999Z</time></trkpt><trkpt lat="43.0507501" lon="11.4378007"><ele>471.16666666666663</ele><time>2026-04-26T11:16:53.007Z</time></trkpt><trkpt lat="43.0506641" lon="11.4378664"><ele>472.3333333333333</ele><time>2026-04-26T11:16:53.994Z</time></trkpt><trkpt lat="43.0505939" lon="11.4379377"><ele>473.5</ele><time>2026-04-26T11:16:54.998Z</time></trkpt><trkpt lat="43.0505382" lon="11.4380166"><ele>474.66666666666663</ele><time>2026-04-26T11:16:55.982Z</time></trkpt><trkpt lat="43.0504942" lon="11.438112"><ele>475.8333333333333</ele><time>2026-04-26T11:16:56.999Z</time></trkpt><trkpt lat="43.0504608" lon="11.4382268"><ele>477.0</ele><time>2026-04-26T11:16:57.996Z</time></trkpt><trkpt lat="43.0504376" lon="11.4383635"><ele>478.0</ele><time>2026-04-26T11:16:59.014Z</time></trkpt><trkpt lat="43.0504171" lon="11.4385135"><ele>479.00000000000006</ele><time>2026-04-26T11:17:00.034Z</time></trkpt><trkpt lat="43.0503963" lon="11.4386539"><ele>480.00000000000006</ele><time>2026-04-26T11:17:01.042Z</time></trkpt><trkpt lat="43.0503888" lon="11.4387799"><ele>481.0</ele><time>2026-04-26T11:17:02.014Z</time></trkpt><trkpt lat="43.0504044" lon="11.4389002"><ele>482.0</ele><time>2026-04-26T11:17:03.009Z</time></trkpt><trkpt lat="43.0504487" lon="11.4390235"><ele>483.25</ele><time>2026-04-26T11:17:04.005Z</time></trkpt><trkpt lat="43.0505161" lon="11.4391606"><ele>484.5</ele><time>2026-04-26T11:17:05.013Z</time></trkpt><trkpt lat="43.0505865" lon="11.4392973"><ele>485.75</ele><time>2026-04-26T11:17:05.994Z</time></trkpt><trkpt lat="43.0506444" lon="11.4394281"><ele>487.0</ele><time>2026-04-26T11:17:07.006Z</time></trkpt><trkpt lat="43.0506864" lon="11.4395704"><ele>485.5</ele><time>2026-04-26T11:17:07.988Z</time></trkpt><trkpt lat="43.050709" lon="11.4397408"><ele>484.0</ele><time>2026-04-26T11:17:08.998Z</time></trkpt><trkpt lat="43.0507072" lon="11.4399199"><ele>482.5</ele><time>2026-04-26T11:17:09.994Z</time></trkpt><trkpt lat="43.0506813" lon="11.440091"><ele>481.0</ele><time>2026-04-26T11:17:10.996Z</time></trkpt><trkpt lat="43.0506356" lon="11.4402444"><ele>481.0</ele><time>2026-04-26T11:17:11.999Z</time></trkpt><trkpt lat="43.0505699" lon="11.4403779"><ele>481.0</ele><time>2026-04-26T11:17:13.001Z</time></trkpt><trkpt lat="43.0504818" lon="11.4404921"><ele>481.0</ele><time>2026-04-26T11:17:13.991Z</time></trkpt><trkpt lat="43.0503759" lon="11.4405886"><ele>481.0</ele><time>2026-04-26T11:17:14.995Z</time></trkpt><trkpt lat="43.0502729" lon="11.4406758"><ele>478.20000000000005</ele><time>2026-04-26T11:17:15.994Z</time></trkpt><trkpt lat="43.0501898" lon="11.4407685"><ele>475.40000000000003</ele><time>2026-04-26T11:17:16.988Z</time></trkpt><trkpt lat="43.0501277" lon="11.4408798"><ele>472.6</ele><time>2026-04-26T11:17:17.989Z</time></trkpt><trkpt lat="43.050085" lon="11.441017"><ele>469.8</ele><time>2026-04-26T11:17:18.99Z</time></trkpt><trkpt lat="43.0500647" lon="11.4411775"><ele>467.0</ele><time>2026-04-26T11:17:19.991Z</time></trkpt><trkpt lat="43.0500639" lon="11.4413613"><ele>465.25</ele><time>2026-04-26T11:17:21.001Z</time></trkpt><trkpt lat="43.0500706" lon="11.4415524"><ele>463.5</ele><time>2026-04-26T11:17:22Z</time></trkpt><trkpt lat="43.0500771" lon="11.441726"><ele>461.75</ele><time>2026-04-26T11:17:23.002Z</time></trkpt><trkpt lat="43.0500807" lon="11.4418849"><ele>460.0</ele><time>2026-04-26T11:17:24.01Z</time></trkpt><trkpt lat="43.0500841" lon="11.4420404"><ele>461.0</ele><time>2026-04-26T11:17:25.017Z</time></trkpt><trkpt lat="43.0500882" lon="11.442198"><ele>462.0</ele><time>2026-04-26T11:17:26.007Z</time></trkpt><trkpt lat="43.0500951" lon="11.4423592"><ele>463.0</ele><time>2026-04-26T11:17:27.015Z</time></trkpt><trkpt lat="43.0501035" lon="11.442521"><ele>464.0</ele><time>2026-04-26T11:17:28.002Z</time></trkpt><trkpt lat="43.0501127" lon="11.4426857"><ele>464.0</ele><time>2026-04-26T11:17:29.018Z</time></trkpt><trkpt lat="43.0501227" lon="11.4428463"><ele>464.0</ele><time>2026-04-26T11:17:30.009Z</time></trkpt><trkpt lat="43.0501348" lon="11.443002"><ele>464.0</ele><time>2026-04-26T11:17:31.017Z</time></trkpt><trkpt lat="43.050144" lon="11.4431564"><ele>464.0</ele><time>2026-04-26T11:17:31.997Z</time></trkpt><trkpt lat="43.0501401" lon="11.4433171"><ele>465.75</ele><time>2026-04-26T11:17:33.007Z</time></trkpt><trkpt lat="43.0501175" lon="11.4434789"><ele>467.5</ele><time>2026-04-26T11:17:34.011Z</time></trkpt><trkpt lat="43.0500826" lon="11.4436456"><ele>469.25</ele><time>2026-04-26T11:17:35.002Z</time></trkpt><trkpt lat="43.0500456" lon="11.4438199"><ele>471.0</ele><time>2026-04-26T11:17:36.007Z</time></trkpt><trkpt lat="43.0500087" lon="11.4439928"><ele>470.75</ele><time>2026-04-26T11:17:37.017Z</time></trkpt><trkpt lat="43.0499734" lon="11.4441558"><ele>470.5</ele><time>2026-04-26T11:17:37.999Z</time></trkpt><trkpt lat="43.049944" lon="11.4443148"><ele>470.25</ele><time>2026-04-26T11:17:39.027Z</time></trkpt><trkpt lat="43.0499265" lon="11.4444711"><ele>470.0</ele><time>2026-04-26T11:17:40.013Z</time></trkpt><trkpt lat="43.0499233" lon="11.4446323"><ele>467.75</ele><time>2026-04-26T11:17:41.001Z</time></trkpt><trkpt lat="43.0499272" lon="11.4448024"><ele>465.5</ele><time>2026-04-26T11:17:41.99Z</time></trkpt><trkpt lat="43.0499265" lon="11.4449748"><ele>463.25</ele><time>2026-04-26T11:17:42.994Z</time></trkpt><trkpt lat="43.0499127" lon="11.4451328"><ele>461.0</ele><time>2026-04-26T11:17:43.993Z</time></trkpt><trkpt lat="43.0498806" lon="11.4452905"><ele>461.0</ele><time>2026-04-26T11:17:44.979Z</time></trkpt><trkpt lat="43.0498294" lon="11.4454453"><ele>461.0</ele><time>2026-04-26T11:17:45.984Z</time></trkpt><trkpt lat="43.049774" lon="11.4455833"><ele>461.0</ele><time>2026-04-26T11:17:46.984Z</time></trkpt><trkpt lat="43.0497246" lon="11.44572"><ele>461.0</ele><time>2026-04-26T11:17:47.987Z</time></trkpt><trkpt lat="43.0496854" lon="11.4458712"><ele>461.0</ele><time>2026-04-26T11:17:48.993Z</time></trkpt><trkpt lat="43.0496548" lon="11.4460388"><ele>461.0</ele><time>2026-04-26T11:17:49.987Z</time></trkpt><trkpt lat="43.0496306" lon="11.4462195"><ele>461.0</ele><time>2026-04-26T11:17:50.998Z</time></trkpt><trkpt lat="43.0496135" lon="11.4464051"><ele>461.0</ele><time>2026-04-26T11:17:51.983Z</time></trkpt><trkpt lat="43.0496045" lon="11.4465981"><ele>462.0</ele><time>2026-04-26T11:17:52.992Z</time></trkpt><trkpt lat="43.0495993" lon="11.4467957"><ele>463.0</ele><time>2026-04-26T11:17:53.993Z</time></trkpt><trkpt lat="43.0495963" lon="11.4469994"><ele>464.0</ele><time>2026-04-26T11:17:54.983Z</time></trkpt><trkpt lat="43.0495912" lon="11.4472013"><ele>465.0</ele><time>2026-04-26T11:17:55.991Z</time></trkpt><trkpt lat="43.0495848" lon="11.4473851"><ele>465.2</ele><time>2026-04-26T11:17:57.007Z</time></trkpt><trkpt lat="43.049581" lon="11.4475495"><ele>465.4</ele><time>2026-04-26T11:17:57.995Z</time></trkpt><trkpt lat="43.0495857" lon="11.4477059"><ele>465.6</ele><time>2026-04-26T11:17:59.005Z</time></trkpt><trkpt lat="43.049604" lon="11.4478507"><ele>465.8</ele><time>2026-04-26T11:18:00.005Z</time></trkpt><trkpt lat="43.0496351" lon="11.4479767"><ele>466.0</ele><time>2026-04-26T11:18:00.991Z</time></trkpt><trkpt lat="43.0496722" lon="11.4480976"><ele>466.6</ele><time>2026-04-26T11:18:01.993Z</time></trkpt><trkpt lat="43.049698" lon="11.4482208"><ele>467.20000000000005</ele><time>2026-04-26T11:18:02.989Z</time></trkpt><trkpt lat="43.0496927" lon="11.4483303"><ele>467.79999999999995</ele><time>2026-04-26T11:18:03.996Z</time></trkpt><trkpt lat="43.0496563" lon="11.448428"><ele>468.4</ele><time>2026-04-26T11:18:04.985Z</time></trkpt><trkpt lat="43.0495935" lon="11.4485207"><ele>469.0</ele><time>2026-04-26T11:18:05.991Z</time></trkpt><trkpt lat="43.0495113" lon="11.4486184"><ele>469.0</ele><time>2026-04-26T11:18:06.993Z</time></trkpt><trkpt lat="43.0494221" lon="11.4487293"><ele>469.0</ele><time>2026-04-26T11:18:07.974Z</time></trkpt><trkpt lat="43.049327" lon="11.4488536"><ele>469.0</ele><time>2026-04-26T11:18:08.988Z</time></trkpt><trkpt lat="43.0492271" lon="11.4489852"><ele>469.0</ele><time>2026-04-26T11:18:09.97Z</time></trkpt><trkpt lat="43.0491226" lon="11.4491321"><ele>469.6666666666667</ele><time>2026-04-26T11:18:10.976Z</time></trkpt><trkpt lat="43.0490141" lon="11.4492921"><ele>470.33333333333337</ele><time>2026-04-26T11:18:11.991Z</time></trkpt><trkpt lat="43.0489031" lon="11.4494528"><ele>471.0</ele><time>2026-04-26T11:18:12.98Z</time></trkpt><trkpt lat="43.0487906" lon="11.4496144"><ele>474.25</ele><time>2026-04-26T11:18:13.997Z</time></trkpt><trkpt lat="43.0486828" lon="11.4497671"><ele>477.5</ele><time>2026-04-26T11:18:14.992Z</time></trkpt><trkpt lat="43.0485805" lon="11.4499064"><ele>480.75</ele><time>2026-04-26T11:18:15.989Z</time></trkpt><trkpt lat="43.0484824" lon="11.4500354"><ele>484.0</ele><time>2026-04-26T11:18:16.978Z</time></trkpt><trkpt lat="43.0483791" lon="11.4501549"><ele>483.4</ele><time>2026-04-26T11:18:17.993Z</time></trkpt><trkpt lat="43.0482783" lon="11.450255"><ele>482.79999999999995</ele><time>2026-04-26T11:18:18.981Z</time></trkpt><trkpt lat="43.0481939" lon="11.4503519"><ele>482.20000000000005</ele><time>2026-04-26T11:18:19.989Z</time></trkpt><trkpt lat="43.0481307" lon="11.4504621"><ele>481.6</ele><time>2026-04-26T11:18:20.993Z</time></trkpt><trkpt lat="43.0480845" lon="11.4505875"><ele>481.0</ele><time>2026-04-26T11:18:21.991Z</time></trkpt><trkpt lat="43.0480517" lon="11.4507296"><ele>481.0</ele><time>2026-04-26T11:18:23.001Z</time></trkpt><trkpt lat="43.0480261" lon="11.4508909"><ele>481.0</ele><time>2026-04-26T11:18:23.991Z</time></trkpt><trkpt lat="43.0480024" lon="11.4510716"><ele>481.0</ele><time>2026-04-26T11:18:24.996Z</time></trkpt><trkpt lat="43.047977" lon="11.4512522"><ele>481.0</ele><time>2026-04-26T11:18:25.993Z</time></trkpt><trkpt lat="43.0479488" lon="11.4514168"><ele>482.0</ele><time>2026-04-26T11:18:26.997Z</time></trkpt><trkpt lat="43.0479102" lon="11.4515717"><ele>483.0</ele><time>2026-04-26T11:18:27.982Z</time></trkpt><trkpt lat="43.0478597" lon="11.4517283"><ele>484.0</ele><time>2026-04-26T11:18:28.997Z</time></trkpt><trkpt lat="43.0478059" lon="11.4518762"><ele>485.0</ele><time>2026-04-26T11:18:29.999Z</time></trkpt><trkpt lat="43.047756" lon="11.4520246"><ele>486.25</ele><time>2026-04-26T11:18:30.998Z</time></trkpt><trkpt lat="43.047713" lon="11.4521905"><ele>487.5</ele><time>2026-04-26T11:18:31.991Z</time></trkpt><trkpt lat="43.0476772" lon="11.4523771"><ele>488.75</ele><time>2026-04-26T11:18:32.995Z</time></trkpt><trkpt lat="43.0476427" lon="11.4525785"><ele>490.0</ele><time>2026-04-26T11:18:33.985Z</time></trkpt><trkpt lat="43.0476068" lon="11.4527866"><ele>490.75</ele><time>2026-04-26T11:18:34.988Z</time></trkpt><trkpt lat="43.0475727" lon="11.4529918"><ele>491.5</ele><time>2026-04-26T11:18:35.998Z</time></trkpt><trkpt lat="43.0475452" lon="11.4531856"><ele>492.25</ele><time>2026-04-26T11:18:37.014Z</time></trkpt><trkpt lat="43.0475256" lon="11.4533563"><ele>493.0</ele><time>2026-04-26T11:18:38.037Z</time></trkpt><trkpt lat="43.0475098" lon="11.4534979"><ele>493.00000000000006</ele><time>2026-04-26T11:18:39.029Z</time></trkpt><trkpt lat="43.0474923" lon="11.4536151"><ele>493.0</ele><time>2026-04-26T11:18:40.005Z</time></trkpt><trkpt lat="43.0474655" lon="11.4537182"><ele>493.0</ele><time>2026-04-26T11:18:40.99Z</time></trkpt><trkpt lat="43.0474209" lon="11.4538109"><ele>493.0</ele><time>2026-04-26T11:18:41.996Z</time></trkpt><trkpt lat="43.0473582" lon="11.4538848"><ele>493.00000000000006</ele><time>2026-04-26T11:18:43.001Z</time></trkpt><trkpt lat="43.0472804" lon="11.453946"><ele>493.0</ele><time>2026-04-26T11:18:43.997Z</time></trkpt><trkpt lat="43.0471925" lon="11.4540031"><ele>495.25</ele><time>2026-04-26T11:18:45.003Z</time></trkpt><trkpt lat="43.0470982" lon="11.4540624"><ele>497.5</ele><time>2026-04-26T11:18:46.001Z</time></trkpt><trkpt lat="43.0469949" lon="11.4541259"><ele>499.75</ele><time>2026-04-26T11:18:47.003Z</time></trkpt><trkpt lat="43.0468831" lon="11.4541941"><ele>502.0</ele><time>2026-04-26T11:18:48.008Z</time></trkpt><trkpt lat="43.0467679" lon="11.4542606"><ele>502.0</ele><time>2026-04-26T11:18:49.016Z</time></trkpt><trkpt lat="43.0466601" lon="11.454323"><ele>502.0</ele><time>2026-04-26T11:18:50.005Z</time></trkpt><trkpt lat="43.0465594" lon="11.454398"><ele>502.0</ele><time>2026-04-26T11:18:51.009Z</time></trkpt><trkpt lat="43.0464573" lon="11.4544904"><ele>502.0</ele><time>2026-04-26T11:18:51.997Z</time></trkpt><trkpt lat="43.0463477" lon="11.4545965"><ele>503.25</ele><time>2026-04-26T11:18:53.006Z</time></trkpt><trkpt lat="43.0462346" lon="11.454699"><ele>504.5</ele><time>2026-04-26T11:18:53.994Z</time></trkpt><trkpt lat="43.0461148" lon="11.4547898"><ele>505.75</ele><time>2026-04-26T11:18:55.007Z</time></trkpt><trkpt lat="43.0459942" lon="11.4548657"><ele>507.0</ele><time>2026-04-26T11:18:55.988Z</time></trkpt><trkpt lat="43.0458808" lon="11.4549344"><ele>506.8</ele><time>2026-04-26T11:18:56.985Z</time></trkpt><trkpt lat="43.0457779" lon="11.4550008"><ele>506.6</ele><time>2026-04-26T11:18:57.975Z</time></trkpt><trkpt lat="43.0456822" lon="11.4550678"><ele>506.40000000000003</ele><time>2026-04-26T11:18:58.974Z</time></trkpt><trkpt lat="43.045593" lon="11.4551394"><ele>506.20000000000005</ele><time>2026-04-26T11:18:59.983Z</time></trkpt><trkpt lat="43.0455139" lon="11.4552355"><ele>506.0</ele><time>2026-04-26T11:19:01.001Z</time></trkpt><trkpt lat="43.0454452" lon="11.4553616"><ele>505.5</ele><time>2026-04-26T11:19:02.001Z</time></trkpt><trkpt lat="43.0453774" lon="11.455511"><ele>505.0</ele><time>2026-04-26T11:19:03.004Z</time></trkpt><trkpt lat="43.0452995" lon="11.4556719"><ele>504.5</ele><time>2026-04-26T11:19:04.004Z</time></trkpt><trkpt lat="43.0452133" lon="11.4558348"><ele>504.0</ele><time>2026-04-26T11:19:04.996Z</time></trkpt><trkpt lat="43.0451282" lon="11.455991"><ele>504.0</ele><time>2026-04-26T11:19:06.004Z</time></trkpt><trkpt lat="43.0450518" lon="11.4561354"><ele>504.0</ele><time>2026-04-26T11:19:06.996Z</time></trkpt><trkpt lat="43.0449792" lon="11.456272"><ele>504.0</ele><time>2026-04-26T11:19:08.005Z</time></trkpt><trkpt lat="43.0449141" lon="11.4564021"><ele>504.0</ele><time>2026-04-26T11:19:08.991Z</time></trkpt><trkpt lat="43.0448588" lon="11.4565318"><ele>503.5</ele><time>2026-04-26T11:19:10.004Z</time></trkpt><trkpt lat="43.0448152" lon="11.4566729"><ele>503.0</ele><time>2026-04-26T11:19:11Z</time></trkpt><trkpt lat="43.044787" lon="11.4568283"><ele>502.5</ele><time>2026-04-26T11:19:11.991Z</time></trkpt><trkpt lat="43.0447664" lon="11.4569942"><ele>502.0</ele><time>2026-04-26T11:19:13.003Z</time></trkpt><trkpt lat="43.0447401" lon="11.4571545"><ele>503.6</ele><time>2026-04-26T11:19:13.991Z</time></trkpt><trkpt lat="43.0446991" lon="11.4572878"><ele>505.20000000000005</ele><time>2026-04-26T11:19:14.993Z</time></trkpt><trkpt lat="43.0446406" lon="11.4573904"><ele>506.8</ele><time>2026-04-26T11:19:15.985Z</time></trkpt><trkpt lat="43.0445644" lon="11.457477"><ele>508.4</ele><time>2026-04-26T11:19:16.993Z</time></trkpt><trkpt lat="43.0444751" lon="11.4575598"><ele>510.0</ele><time>2026-04-26T11:19:17.988Z</time></trkpt><trkpt lat="43.0443736" lon="11.4576455"><ele>510.0</ele><time>2026-04-26T11:19:18.997Z</time></trkpt><trkpt lat="43.0442705" lon="11.4577409"><ele>510.0</ele><time>2026-04-26T11:19:19.99Z</time></trkpt><trkpt lat="43.0441745" lon="11.4578502"><ele>510.0</ele><time>2026-04-26T11:19:20.983Z</time></trkpt><trkpt lat="43.0440818" lon="11.4579761"><ele>510.0</ele><time>2026-04-26T11:19:21.982Z</time></trkpt><trkpt lat="43.0439854" lon="11.4581198"><ele>509.0</ele><time>2026-04-26T11:19:22.971Z</time></trkpt><trkpt lat="43.0438858" lon="11.4582735"><ele>508.0</ele><time>2026-04-26T11:19:23.979Z</time></trkpt><trkpt lat="43.0437862" lon="11.4584329"><ele>507.0</ele><time>2026-04-26T11:19:24.985Z</time></trkpt><trkpt lat="43.0436858" lon="11.4585908"><ele>507.0</ele><time>2026-04-26T11:19:25.978Z</time></trkpt><trkpt lat="43.0435888" lon="11.4587407"><ele>507.0</ele><time>2026-04-26T11:19:27.002Z</time></trkpt><trkpt lat="43.0434904" lon="11.4588813"><ele>507.0</ele><time>2026-04-26T11:19:27.999Z</time></trkpt><trkpt lat="43.0433818" lon="11.4590074"><ele>507.0</ele><time>2026-04-26T11:19:28.985Z</time></trkpt><trkpt lat="43.043267" lon="11.4591065"><ele>507.0</ele><time>2026-04-26T11:19:29.994Z</time></trkpt><trkpt lat="43.043159" lon="11.4591786"><ele>507.00000000000006</ele><time>2026-04-26T11:19:30.995Z</time></trkpt><trkpt lat="43.0430626" lon="11.4592379"><ele>507.00000000000006</ele><time>2026-04-26T11:19:31.999Z</time></trkpt><trkpt lat="43.04298" lon="11.4593032"><ele>507.0</ele><time>2026-04-26T11:19:33.003Z</time></trkpt><trkpt lat="43.042912" lon="11.4593924"><ele>507.0</ele><time>2026-04-26T11:19:34.009Z</time></trkpt><trkpt lat="43.0428572" lon="11.4595047"><ele>507.8</ele><time>2026-04-26T11:19:34.994Z</time></trkpt><trkpt lat="43.0428067" lon="11.4596442"><ele>508.6</ele><time>2026-04-26T11:19:35.993Z</time></trkpt><trkpt lat="43.0427625" lon="11.4597965"><ele>509.40000000000003</ele><time>2026-04-26T11:19:37.003Z</time></trkpt><trkpt lat="43.0427299" lon="11.4599418"><ele>510.20000000000005</ele><time>2026-04-26T11:19:37.99Z</time></trkpt><trkpt lat="43.0427106" lon="11.4600725"><ele>511.0</ele><time>2026-04-26T11:19:38.998Z</time></trkpt><trkpt lat="43.0427104" lon="11.4601846"><ele>511.0</ele><time>2026-04-26T11:19:40Z</time></trkpt><trkpt lat="43.0427334" lon="11.4602956"><ele>511.0</ele><time>2026-04-26T11:19:41.003Z</time></trkpt><trkpt lat="43.0427768" lon="11.4604149"><ele>511.0</ele><time>2026-04-26T11:19:41.994Z</time></trkpt><trkpt lat="43.0428349" lon="11.4605452"><ele>511.0</ele><time>2026-04-26T11:19:42.998Z</time></trkpt><trkpt lat="43.0429023" lon="11.4606858"><ele>511.0</ele><time>2026-04-26T11:19:43.994Z</time></trkpt><trkpt lat="43.0429743" lon="11.46084"><ele>510.75</ele><time>2026-04-26T11:19:44.995Z</time></trkpt><trkpt lat="43.0430491" lon="11.4610062"><ele>510.5</ele><time>2026-04-26T11:19:45.987Z</time></trkpt><trkpt lat="43.043124" lon="11.4611781"><ele>510.25</ele><time>2026-04-26T11:19:46.985Z</time></trkpt><trkpt lat="43.0431945" lon="11.4613468"><ele>510.0</ele><time>2026-04-26T11:19:47.989Z</time></trkpt><trkpt lat="43.0432606" lon="11.4615117"><ele>507.75</ele><time>2026-04-26T11:19:48.997Z</time></trkpt><trkpt lat="43.0433267" lon="11.4616768"><ele>505.5</ele><time>2026-04-26T11:19:49.983Z</time></trkpt><trkpt lat="43.0433968" lon="11.4618488"><ele>503.25</ele><time>2026-04-26T11:19:50.999Z</time></trkpt><trkpt lat="43.0434629" lon="11.4620185"><ele>501.0</ele><time>2026-04-26T11:19:52.011Z</time></trkpt><trkpt lat="43.0435207" lon="11.4621753"><ele>501.0</ele><time>2026-04-26T11:19:53.01Z</time></trkpt><trkpt lat="43.0435695" lon="11.4623175"><ele>501.0</ele><time>2026-04-26T11:19:54.011Z</time></trkpt><trkpt lat="43.0436063" lon="11.462448"><ele>501.0</ele><time>2026-04-26T11:19:55.017Z</time></trkpt><trkpt lat="43.0436253" lon="11.4625706"><ele>501.0</ele><time>2026-04-26T11:19:55.994Z</time></trkpt><trkpt lat="43.04362" lon="11.4626891"><ele>501.0</ele><time>2026-04-26T11:19:57.005Z</time></trkpt><trkpt lat="43.0435892" lon="11.4627998"><ele>501.0</ele><time>2026-04-26T11:19:57.988Z</time></trkpt><trkpt lat="43.0435382" lon="11.4629074"><ele>501.0</ele><time>2026-04-26T11:19:59Z</time></trkpt><trkpt lat="43.0434722" lon="11.4630138"><ele>501.0</ele><time>2026-04-26T11:19:59.988Z</time></trkpt><trkpt lat="43.0433929" lon="11.4631323"><ele>501.0</ele><time>2026-04-26T11:20:00.995Z</time></trkpt><trkpt lat="43.0433129" lon="11.4632608"><ele>501.0</ele><time>2026-04-26T11:20:02Z</time></trkpt><trkpt lat="43.0432492" lon="11.4633829"><ele>500.5</ele><time>2026-04-26T11:20:02.999Z</time></trkpt><trkpt lat="43.043203" lon="11.4635064"><ele>500.0</ele><time>2026-04-26T11:20:04.001Z</time></trkpt><trkpt lat="43.0431701" lon="11.463647"><ele>499.5</ele><time>2026-04-26T11:20:05.009Z</time></trkpt><trkpt lat="43.0431443" lon="11.4638103"><ele>499.0</ele><time>2026-04-26T11:20:05.993Z</time></trkpt><trkpt lat="43.0431196" lon="11.4639991"><ele>499.0</ele><time>2026-04-26T11:20:06.995Z</time></trkpt><trkpt lat="43.043094" lon="11.4641964"><ele>499.0</ele><time>2026-04-26T11:20:07.998Z</time></trkpt><trkpt lat="43.043068" lon="11.4643761"><ele>499.0</ele><time>2026-04-26T11:20:08.989Z</time></trkpt><trkpt lat="43.0430394" lon="11.4645441"><ele>499.0</ele><time>2026-04-26T11:20:09.99Z</time></trkpt><trkpt lat="43.0430074" lon="11.4647071"><ele>500.0</ele><time>2026-04-26T11:20:10.981Z</time></trkpt><trkpt lat="43.0429682" lon="11.4648641"><ele>501.0</ele><time>2026-04-26T11:20:11.982Z</time></trkpt><trkpt lat="43.0429198" lon="11.4650132"><ele>502.0</ele><time>2026-04-26T11:20:12.979Z</time></trkpt><trkpt lat="43.0428615" lon="11.4651511"><ele>503.0</ele><time>2026-04-26T11:20:13.98Z</time></trkpt><trkpt lat="43.042802" lon="11.4652779"><ele>503.0</ele><time>2026-04-26T11:20:15.002Z</time></trkpt><trkpt lat="43.0427533" lon="11.4654019"><ele>503.0</ele><time>2026-04-26T11:20:15.989Z</time></trkpt><trkpt lat="43.0427185" lon="11.4655388"><ele>503.0</ele><time>2026-04-26T11:20:16.999Z</time></trkpt><trkpt lat="43.0426958" lon="11.4656941"><ele>503.0</ele><time>2026-04-26T11:20:18.005Z</time></trkpt><trkpt lat="43.0426824" lon="11.465869"><ele>502.75</ele><time>2026-04-26T11:20:19.013Z</time></trkpt><trkpt lat="43.0426714" lon="11.4660567"><ele>502.5</ele><time>2026-04-26T11:20:20.018Z</time></trkpt><trkpt lat="43.0426592" lon="11.4662515"><ele>502.25</ele><time>2026-04-26T11:20:21.025Z</time></trkpt><trkpt lat="43.0426461" lon="11.4664482"><ele>502.0</ele><time>2026-04-26T11:20:22.005Z</time></trkpt><trkpt lat="43.0426345" lon="11.466639"><ele>501.8</ele><time>2026-04-26T11:20:23.019Z</time></trkpt><trkpt lat="43.0426243" lon="11.4668055"><ele>501.6</ele><time>2026-04-26T11:20:24.007Z</time></trkpt><trkpt lat="43.0426126" lon="11.4669546"><ele>501.40000000000003</ele><time>2026-04-26T11:20:25.02Z</time></trkpt><trkpt lat="43.0425914" lon="11.4670917"><ele>501.20000000000005</ele><time>2026-04-26T11:20:26.027Z</time></trkpt><trkpt lat="43.0425549" lon="11.4672309"><ele>501.0</ele><time>2026-04-26T11:20:27.008Z</time></trkpt><trkpt lat="43.0425034" lon="11.4673816"><ele>501.5</ele><time>2026-04-26T11:20:28.012Z</time></trkpt><trkpt lat="43.0424455" lon="11.4675395"><ele>502.0</ele><time>2026-04-26T11:20:29.013Z</time></trkpt><trkpt lat="43.0423856" lon="11.467705"><ele>502.5</ele><time>2026-04-26T11:20:29.999Z</time></trkpt><trkpt lat="43.0423285" lon="11.4678782"><ele>503.0</ele><time>2026-04-26T11:20:31.02Z</time></trkpt><trkpt lat="43.0422827" lon="11.4680463"><ele>503.5</ele><time>2026-04-26T11:20:32.022Z</time></trkpt><trkpt lat="43.0422452" lon="11.4682115"><ele>504.0</ele><time>2026-04-26T11:20:33.013Z</time></trkpt><trkpt lat="43.0422095" lon="11.4683764"><ele>504.5</ele><time>2026-04-26T11:20:34.005Z</time></trkpt><trkpt lat="43.0421743" lon="11.4685342"><ele>505.0</ele><time>2026-04-26T11:20:34.993Z</time></trkpt><trkpt lat="43.0421417" lon="11.4686787"><ele>505.1666666666667</ele><time>2026-04-26T11:20:35.992Z</time></trkpt><trkpt lat="43.0421127" lon="11.4688053"><ele>505.33333333333337</ele><time>2026-04-26T11:20:37.003Z</time></trkpt><trkpt lat="43.0420839" lon="11.4689153"><ele>505.5</ele><time>2026-04-26T11:20:38.007Z</time></trkpt><trkpt lat="43.0420498" lon="11.4690156"><ele>505.66666666666663</ele><time>2026-04-26T11:20:39.021Z</time></trkpt><trkpt lat="43.0420051" lon="11.4691085"><ele>505.8333333333333</ele><time>2026-04-26T11:20:40.012Z</time></trkpt><trkpt lat="43.0419429" lon="11.4691901"><ele>506.0</ele><time>2026-04-26T11:20:41.019Z</time></trkpt><trkpt lat="43.0418637" lon="11.4692542"><ele>506.0</ele><time>2026-04-26T11:20:42.012Z</time></trkpt><trkpt lat="43.0417698" lon="11.469307"><ele>506.0</ele><time>2026-04-26T11:20:43.026Z</time></trkpt><trkpt lat="43.0416671" lon="11.4693555"><ele>506.0</ele><time>2026-04-26T11:20:44.007Z</time></trkpt><trkpt lat="43.0415575" lon="11.4694056"><ele>506.0</ele><time>2026-04-26T11:20:45.01Z</time></trkpt><trkpt lat="43.0414458" lon="11.4694619"><ele>506.0</ele><time>2026-04-26T11:20:45.998Z</time></trkpt><trkpt lat="43.041334" lon="11.4695268"><ele>507.5</ele><time>2026-04-26T11:20:46.998Z</time></trkpt><trkpt lat="43.0412243" lon="11.4695999"><ele>509.0</ele><time>2026-04-26T11:20:48.009Z</time></trkpt><trkpt lat="43.0411165" lon="11.4696839"><ele>510.5</ele><time>2026-04-26T11:20:49.016Z</time></trkpt><trkpt lat="43.041011" lon="11.4697813"><ele>512.0</ele><time>2026-04-26T11:20:49.994Z</time></trkpt><trkpt lat="43.0409055" lon="11.4698887"><ele>513.0</ele><time>2026-04-26T11:20:50.996Z</time></trkpt><trkpt lat="43.0407996" lon="11.4699998"><ele>514.0</ele><time>2026-04-26T11:20:51.998Z</time></trkpt><trkpt lat="43.0406942" lon="11.4701238"><ele>515.0</ele><time>2026-04-26T11:20:52.989Z</time></trkpt><trkpt lat="43.0405886" lon="11.4702745"><ele>516.0</ele><time>2026-04-26T11:20:53.994Z</time></trkpt><trkpt lat="43.0404856" lon="11.4704345"><ele>519.0</ele><time>2026-04-26T11:20:55.002Z</time></trkpt><trkpt lat="43.0403865" lon="11.4705696"><ele>522.0</ele><time>2026-04-26T11:20:55.993Z</time></trkpt><trkpt lat="43.0402807" lon="11.4706579"><ele>525.0</ele><time>2026-04-26T11:20:56.993Z</time></trkpt><trkpt lat="43.0401655" lon="11.4707072"><ele>528.0</ele><time>2026-04-26T11:20:57.995Z</time></trkpt><trkpt lat="43.0400479" lon="11.4707399"><ele>529.0</ele><time>2026-04-26T11:20:58.991Z</time></trkpt><trkpt lat="43.039932" lon="11.4707835"><ele>530.0</ele><time>2026-04-26T11:20:59.986Z</time></trkpt><trkpt lat="43.0398167" lon="11.4708459"><ele>531.0</ele><time>2026-04-26T11:21:00.997Z</time></trkpt><trkpt lat="43.0396955" lon="11.4709198"><ele>532.0</ele><time>2026-04-26T11:21:02.012Z</time></trkpt><trkpt lat="43.0395628" lon="11.4709936"><ele>532.0</ele><time>2026-04-26T11:21:03.003Z</time></trkpt><trkpt lat="43.0394205" lon="11.4710724"><ele>532.0</ele><time>2026-04-26T11:21:04.014Z</time></trkpt><trkpt lat="43.039281" lon="11.4711576"><ele>532.0</ele><time>2026-04-26T11:21:04.998Z</time></trkpt><trkpt lat="43.039145" lon="11.4712575"><ele>532.3333333333334</ele><time>2026-04-26T11:21:06.005Z</time></trkpt><trkpt lat="43.0390194" lon="11.4713801"><ele>532.6666666666666</ele><time>2026-04-26T11:21:07.019Z</time></trkpt><trkpt lat="43.0389071" lon="11.4715312"><ele>533.0</ele><time>2026-04-26T11:21:08.006Z</time></trkpt><trkpt lat="43.0388078" lon="11.4717036"><ele>533.0</ele><time>2026-04-26T11:21:09.009Z</time></trkpt><trkpt lat="43.0387314" lon="11.4718867"><ele>533.0</ele><time>2026-04-26T11:21:10.011Z</time></trkpt><trkpt lat="43.038683" lon="11.4720816"><ele>533.0</ele><time>2026-04-26T11:21:11.015Z</time></trkpt><trkpt lat="43.0386604" lon="11.4722887"><ele>538.0</ele><time>2026-04-26T11:21:11.995Z</time></trkpt><trkpt lat="43.0386613" lon="11.4725067"><ele>543.0</ele><time>2026-04-26T11:21:13.006Z</time></trkpt><trkpt lat="43.0386814" lon="11.472719"><ele>548.0</ele><time>2026-04-26T11:21:13.997Z</time></trkpt><trkpt lat="43.0387118" lon="11.472928"><ele>551.0</ele><time>2026-04-26T11:21:15Z</time></trkpt><trkpt lat="43.0387324" lon="11.4731424"><ele>554.0</ele><time>2026-04-26T11:21:16.002Z</time></trkpt><trkpt lat="43.0387245" lon="11.4733453"><ele>557.0</ele><time>2026-04-26T11:21:16.995Z</time></trkpt><trkpt lat="43.0386819" lon="11.4735233"><ele>560.0</ele><time>2026-04-26T11:21:18.013Z</time></trkpt><trkpt lat="43.0386031" lon="11.4736755"><ele>563.0</ele><time>2026-04-26T11:21:19.018Z</time></trkpt><trkpt lat="43.0384899" lon="11.4738"><ele>566.0</ele><time>2026-04-26T11:21:19.989Z</time></trkpt><trkpt lat="43.0383482" lon="11.4739015"><ele>569.0</ele><time>2026-04-26T11:21:20.999Z</time></trkpt><trkpt lat="43.0381877" lon="11.4739892"><ele>569.0</ele><time>2026-04-26T11:21:22.003Z</time></trkpt><trkpt lat="43.0380276" lon="11.47407"><ele>569.0</ele><time>2026-04-26T11:21:22.988Z</time></trkpt><trkpt lat="43.0378935" lon="11.4741522"><ele>569.0</ele><time>2026-04-26T11:21:23.992Z</time></trkpt><trkpt lat="43.0377906" lon="11.4742595"><ele>569.0</ele><time>2026-04-26T11:21:24.993Z</time></trkpt><trkpt lat="43.0377196" lon="11.4744038"><ele>569.0</ele><time>2026-04-26T11:21:25.984Z</time></trkpt><trkpt lat="43.0376824" lon="11.4745856"><ele>569.0</ele><time>2026-04-26T11:21:26.998Z</time></trkpt><trkpt lat="43.0376736" lon="11.4747945"><ele>569.0</ele><time>2026-04-26T11:21:28.001Z</time></trkpt><trkpt lat="43.0376813" lon="11.475018"><ele>573.0</ele><time>2026-04-26T11:21:28.995Z</time></trkpt><trkpt lat="43.037693" lon="11.4752487"><ele>577.0</ele><time>2026-04-26T11:21:30.005Z</time></trkpt><trkpt lat="43.0377039" lon="11.4754826"><ele>581.0</ele><time>2026-04-26T11:21:31.018Z</time></trkpt><trkpt lat="43.0377127" lon="11.4757197"><ele>583.6666666666666</ele><time>2026-04-26T11:21:32.005Z</time></trkpt><trkpt lat="43.0377235" lon="11.4759699"><ele>586.3333333333334</ele><time>2026-04-26T11:21:33.013Z</time></trkpt><trkpt lat="43.0377383" lon="11.4762283"><ele>589.0</ele><time>2026-04-26T11:21:34.049Z</time></trkpt><trkpt lat="43.037754" lon="11.4764772"><ele>590.0</ele><time>2026-04-26T11:21:35.018Z</time></trkpt><trkpt lat="43.0377674" lon="11.4767242"><ele>591.0</ele><time>2026-04-26T11:21:36.008Z</time></trkpt><trkpt lat="43.0377749" lon="11.4769608"><ele>592.0</ele><time>2026-04-26T11:21:36.994Z</time></trkpt><trkpt lat="43.0377735" lon="11.4771901"><ele>594.0</ele><time>2026-04-26T11:21:38.003Z</time></trkpt><trkpt lat="43.0377604" lon="11.4774161"><ele>596.0</ele><time>2026-04-26T11:21:38.992Z</time></trkpt><trkpt lat="43.0377341" lon="11.4776489"><ele>598.0</ele><time>2026-04-26T11:21:40.002Z</time></trkpt><trkpt lat="43.0377004" lon="11.477888"><ele>598.0</ele><time>2026-04-26T11:21:41.009Z</time></trkpt><trkpt lat="43.0376604" lon="11.4781219"><ele>598.0</ele><time>2026-04-26T11:21:42.011Z</time></trkpt><trkpt lat="43.0376112" lon="11.4783341"><ele>598.0</ele><time>2026-04-26T11:21:43.012Z</time></trkpt><trkpt lat="43.0375469" lon="11.4785234"><ele>598.3333333333334</ele><time>2026-04-26T11:21:43.995Z</time></trkpt><trkpt lat="43.0374589" lon="11.4787038"><ele>598.6666666666666</ele><time>2026-04-26T11:21:44.995Z</time></trkpt><trkpt lat="43.0373537" lon="11.4788813"><ele>599.0</ele><time>2026-04-26T11:21:45.996Z</time></trkpt><trkpt lat="43.037246" lon="11.4790482"><ele>599.0</ele><time>2026-04-26T11:21:47.003Z</time></trkpt><trkpt lat="43.0371473" lon="11.4791982"><ele>599.0</ele><time>2026-04-26T11:21:47.989Z</time></trkpt><trkpt lat="43.0370567" lon="11.4793388"><ele>599.0</ele><time>2026-04-26T11:21:48.992Z</time></trkpt><trkpt lat="43.0369764" lon="11.4794635"><ele>599.0</ele><time>2026-04-26T11:21:49.991Z</time></trkpt><trkpt lat="43.0369101" lon="11.479562"><ele>599.3333333333333</ele><time>2026-04-26T11:21:50.998Z</time></trkpt><trkpt lat="43.0368649" lon="11.4796352"><ele>599.6666666666666</ele><time>2026-04-26T11:21:51.987Z</time></trkpt><trkpt lat="43.0368308" lon="11.4797253"><ele>600.0</ele><time>2026-04-26T11:21:54.011Z</time></trkpt><trkpt lat="43.0368501" lon="11.4798303"><ele>600.3333333333334</ele><time>2026-04-26T11:21:57.013Z</time></trkpt><trkpt lat="43.036946" lon="11.4799266"><ele>600.6666666666667</ele><time>2026-04-26T11:21:59.012Z</time></trkpt><trkpt lat="43.0370179" lon="11.4799803"><ele>601.0</ele><time>2026-04-26T11:22:00.016Z</time></trkpt><trkpt lat="43.0371014" lon="11.4800425"><ele>601.0</ele><time>2026-04-26T11:22:01.021Z</time></trkpt><trkpt lat="43.0371995" lon="11.4801149"><ele>601.0</ele><time>2026-04-26T11:22:02.007Z</time></trkpt><trkpt lat="43.0373171" lon="11.4802068"><ele>601.0</ele><time>2026-04-26T11:22:03.038Z</time></trkpt><trkpt lat="43.0374439" lon="11.4803138"><ele>601.0</ele><time>2026-04-26T11:22:04.011Z</time></trkpt><trkpt lat="43.0375771" lon="11.4804312"><ele>598.0</ele><time>2026-04-26T11:22:05.02Z</time></trkpt><trkpt lat="43.037718" lon="11.4805559"><ele>595.0</ele><time>2026-04-26T11:22:06.026Z</time></trkpt><trkpt lat="43.0378672" lon="11.480689"><ele>592.0</ele><time>2026-04-26T11:22:07.018Z</time></trkpt><trkpt lat="43.0380231" lon="11.4808242"><ele>592.0</ele><time>2026-04-26T11:22:08.009Z</time></trkpt><trkpt lat="43.0381834" lon="11.4809633"><ele>592.0</ele><time>2026-04-26T11:22:09.012Z</time></trkpt><trkpt lat="43.038343" lon="11.4811024"><ele>592.0</ele><time>2026-04-26T11:22:10.009Z</time></trkpt><trkpt lat="43.0385009" lon="11.4812407"><ele>591.0</ele><time>2026-04-26T11:22:11.004Z</time></trkpt><trkpt lat="43.0386603" lon="11.4813796"><ele>590.0</ele><time>2026-04-26T11:22:11.999Z</time></trkpt><trkpt lat="43.0388221" lon="11.4815186"><ele>589.0</ele><time>2026-04-26T11:22:12.994Z</time></trkpt><trkpt lat="43.0389895" lon="11.4816604"><ele>591.3333333333334</ele><time>2026-04-26T11:22:13.991Z</time></trkpt><trkpt lat="43.0391599" lon="11.4818085"><ele>593.6666666666666</ele><time>2026-04-26T11:22:14.984Z</time></trkpt><trkpt lat="43.0393309" lon="11.4819636"><ele>596.0</ele><time>2026-04-26T11:22:15.994Z</time></trkpt><trkpt lat="43.0395015" lon="11.4821175"><ele>599.0</ele><time>2026-04-26T11:22:16.992Z</time></trkpt><trkpt lat="43.0396712" lon="11.4822694"><ele>602.0</ele><time>2026-04-26T11:22:17.981Z</time></trkpt><trkpt lat="43.0398408" lon="11.4824184"><ele>605.0</ele><time>2026-04-26T11:22:19.005Z</time></trkpt><trkpt lat="43.0400077" lon="11.4825549"><ele>606.6666666666666</ele><time>2026-04-26T11:22:19.992Z</time></trkpt><trkpt lat="43.0401805" lon="11.4826774"><ele>608.3333333333334</ele><time>2026-04-26T11:22:20.993Z</time></trkpt><trkpt lat="43.0403591" lon="11.4827843"><ele>610.0</ele><time>2026-04-26T11:22:21.984Z</time></trkpt><trkpt lat="43.0405465" lon="11.4828751"><ele>612.3333333333334</ele><time>2026-04-26T11:22:22.983Z</time></trkpt><trkpt lat="43.0407399" lon="11.4829513"><ele>614.6666666666666</ele><time>2026-04-26T11:22:23.987Z</time></trkpt><trkpt lat="43.0409371" lon="11.4830159"><ele>617.0</ele><time>2026-04-26T11:22:24.998Z</time></trkpt><trkpt lat="43.0411357" lon="11.4830745"><ele>617.3333333333333</ele><time>2026-04-26T11:22:25.999Z</time></trkpt><trkpt lat="43.0413331" lon="11.4831324"><ele>617.6666666666666</ele><time>2026-04-26T11:22:27.007Z</time></trkpt><trkpt lat="43.0415288" lon="11.4831917"><ele>618.0</ele><time>2026-04-26T11:22:28.024Z</time></trkpt><trkpt lat="43.0417199" lon="11.483249"><ele>616.0</ele><time>2026-04-26T11:22:29.013Z</time></trkpt><trkpt lat="43.0419104" lon="11.4833046"><ele>614.0</ele><time>2026-04-26T11:22:30.016Z</time></trkpt><trkpt lat="43.042094" lon="11.4833567"><ele>612.0</ele><time>2026-04-26T11:22:31.018Z</time></trkpt><trkpt lat="43.042265" lon="11.4834043"><ele>612.0</ele><time>2026-04-26T11:22:31.997Z</time></trkpt><trkpt lat="43.0424297" lon="11.4834533"><ele>612.0</ele><time>2026-04-26T11:22:33.004Z</time></trkpt><trkpt lat="43.0425918" lon="11.4835017"><ele>612.0</ele><time>2026-04-26T11:22:34.005Z</time></trkpt><trkpt lat="43.0427556" lon="11.4835502"><ele>612.3333333333334</ele><time>2026-04-26T11:22:35.007Z</time></trkpt><trkpt lat="43.0429197" lon="11.4835984"><ele>612.6666666666667</ele><time>2026-04-26T11:22:35.994Z</time></trkpt><trkpt lat="43.0430843" lon="11.4836463"><ele>613.0</ele><time>2026-04-26T11:22:36.993Z</time></trkpt><trkpt lat="43.0432448" lon="11.4836942"><ele>613.6666666666667</ele><time>2026-04-26T11:22:37.997Z</time></trkpt><trkpt lat="43.0433971" lon="11.4837444"><ele>614.3333333333334</ele><time>2026-04-26T11:22:39.003Z</time></trkpt><trkpt lat="43.0435405" lon="11.483805"><ele>615.0</ele><time>2026-04-26T11:22:40.007Z</time></trkpt><trkpt lat="43.0436749" lon="11.4838862"><ele>613.6666666666666</ele><time>2026-04-26T11:22:41.021Z</time></trkpt><trkpt lat="43.043805" lon="11.4839917"><ele>612.3333333333333</ele><time>2026-04-26T11:22:42.027Z</time></trkpt><trkpt lat="43.0439339" lon="11.4841151"><ele>611.0</ele><time>2026-04-26T11:22:43.03Z</time></trkpt><trkpt lat="43.0440619" lon="11.4842456"><ele>611.0</ele><time>2026-04-26T11:22:44.023Z</time></trkpt><trkpt lat="43.0441827" lon="11.4843724"><ele>611.0</ele><time>2026-04-26T11:22:45.027Z</time></trkpt><trkpt lat="43.044289" lon="11.4844899"><ele>611.0</ele><time>2026-04-26T11:22:46.001Z</time></trkpt><trkpt lat="43.044382" lon="11.48461"><ele>611.0</ele><time>2026-04-26T11:22:47.012Z</time></trkpt><trkpt lat="43.044458" lon="11.4847431"><ele>611.25</ele><time>2026-04-26T11:22:47.999Z</time></trkpt><trkpt lat="43.0445238" lon="11.4848962"><ele>611.5</ele><time>2026-04-26T11:22:49.013Z</time></trkpt><trkpt lat="43.0445832" lon="11.4850657"><ele>611.75</ele><time>2026-04-26T11:22:49.998Z</time></trkpt><trkpt lat="43.0446408" lon="11.4852598"><ele>612.0</ele><time>2026-04-26T11:22:51.006Z</time></trkpt><trkpt lat="43.0447003" lon="11.4854729"><ele>612.6666666666666</ele><time>2026-04-26T11:22:52.006Z</time></trkpt><trkpt lat="43.0447645" lon="11.4856977"><ele>613.3333333333333</ele><time>2026-04-26T11:22:53.006Z</time></trkpt><trkpt lat="43.0448318" lon="11.4859297"><ele>614.0</ele><time>2026-04-26T11:22:54.008Z</time></trkpt><trkpt lat="43.044898" lon="11.4861629"><ele>614.3333333333333</ele><time>2026-04-26T11:22:55.025Z</time></trkpt><trkpt lat="43.0449565" lon="11.4863814"><ele>614.6666666666666</ele><time>2026-04-26T11:22:56.004Z</time></trkpt><trkpt lat="43.0450108" lon="11.4865817"><ele>615.0</ele><time>2026-04-26T11:22:57.02Z</time></trkpt><trkpt lat="43.0450684" lon="11.4867507"><ele>615.0</ele><time>2026-04-26T11:22:57.994Z</time></trkpt><trkpt lat="43.0451438" lon="11.486894"><ele>615.0</ele><time>2026-04-26T11:22:59.005Z</time></trkpt><trkpt lat="43.0452447" lon="11.487"><ele>615.0</ele><time>2026-04-26T11:22:59.996Z</time></trkpt><trkpt lat="43.045369" lon="11.4870612"><ele>615.0</ele><time>2026-04-26T11:23:00.999Z</time></trkpt><trkpt lat="43.0455104" lon="11.487081"><ele>615.0</ele><time>2026-04-26T11:23:01.982Z</time></trkpt><trkpt lat="43.0456653" lon="11.4870914"><ele>615.0</ele><time>2026-04-26T11:23:02.99Z</time></trkpt><trkpt lat="43.0458132" lon="11.4871341"><ele>615.0</ele><time>2026-04-26T11:23:03.985Z</time></trkpt><trkpt lat="43.0459414" lon="11.4872342"><ele>614.3333333333334</ele><time>2026-04-26T11:23:05Z</time></trkpt><trkpt lat="43.0460491" lon="11.4873911"><ele>613.6666666666667</ele><time>2026-04-26T11:23:05.991Z</time></trkpt><trkpt lat="43.0461423" lon="11.48759"><ele>613.0</ele><time>2026-04-26T11:23:06.992Z</time></trkpt><trkpt lat="43.0462205" lon="11.4878168"><ele>609.3333333333334</ele><time>2026-04-26T11:23:07.999Z</time></trkpt><trkpt lat="43.0462808" lon="11.4880639"><ele>605.6666666666666</ele><time>2026-04-26T11:23:09.002Z</time></trkpt><trkpt lat="43.046328" lon="11.4883278"><ele>602.0</ele><time>2026-04-26T11:23:10.021Z</time></trkpt><trkpt lat="43.0463713" lon="11.4885826"><ele>599.3333333333333</ele><time>2026-04-26T11:23:11.003Z</time></trkpt><trkpt lat="43.046421" lon="11.4888183"><ele>596.6666666666666</ele><time>2026-04-26T11:23:12.008Z</time></trkpt><trkpt lat="43.0464815" lon="11.4890251"><ele>594.0</ele><time>2026-04-26T11:23:13.006Z</time></trkpt><trkpt lat="43.0465608" lon="11.4892036"><ele>601.0</ele><time>2026-04-26T11:23:14Z</time></trkpt><trkpt lat="43.0466682" lon="11.4893492"><ele>608.0</ele><time>2026-04-26T11:23:15.004Z</time></trkpt><trkpt lat="43.0468019" lon="11.4894542"><ele>615.0</ele><time>2026-04-26T11:23:16.004Z</time></trkpt><trkpt lat="43.0469533" lon="11.489514"><ele>615.0</ele><time>2026-04-26T11:23:17.007Z</time></trkpt><trkpt lat="43.0471097" lon="11.4895381"><ele>615.0</ele><time>2026-04-26T11:23:17.987Z</time></trkpt><trkpt lat="43.0472609" lon="11.4895625"><ele>615.0</ele><time>2026-04-26T11:23:19.01Z</time></trkpt><trkpt lat="43.0474032" lon="11.4896245"><ele>611.0</ele><time>2026-04-26T11:23:20.014Z</time></trkpt><trkpt lat="43.0475408" lon="11.4897366"><ele>607.0</ele><time>2026-04-26T11:23:21.02Z</time></trkpt><trkpt lat="43.0476662" lon="11.4898664"><ele>603.0</ele><time>2026-04-26T11:23:22.019Z</time></trkpt><trkpt lat="43.0477798" lon="11.4899787"><ele>603.0</ele><time>2026-04-26T11:23:23.002Z</time></trkpt><trkpt lat="43.0478991" lon="11.4900461"><ele>603.0</ele><time>2026-04-26T11:23:24.003Z</time></trkpt><trkpt lat="43.0480352" lon="11.4900564"><ele>603.0</ele><time>2026-04-26T11:23:24.98Z</time></trkpt><trkpt lat="43.0481895" lon="11.4900274"><ele>603.0</ele><time>2026-04-26T11:23:25.994Z</time></trkpt><trkpt lat="43.0483466" lon="11.4899887"><ele>603.0</ele><time>2026-04-26T11:23:26.995Z</time></trkpt><trkpt lat="43.0484917" lon="11.4899581"><ele>603.0</ele><time>2026-04-26T11:23:27.985Z</time></trkpt><trkpt lat="43.0486198" lon="11.4899524"><ele>603.0</ele><time>2026-04-26T11:23:28.998Z</time></trkpt><trkpt lat="43.0487303" lon="11.4899886"><ele>603.0</ele><time>2026-04-26T11:23:30.012Z</time></trkpt><trkpt lat="43.0488231" lon="11.4900742"><ele>603.0</ele><time>2026-04-26T11:23:31.018Z</time></trkpt><trkpt lat="43.048895" lon="11.4902113"><ele>603.0</ele><time>2026-04-26T11:23:32.014Z</time></trkpt><trkpt lat="43.0489505" lon="11.4903863"><ele>603.0</ele><time>2026-04-26T11:23:33.033Z</time></trkpt><trkpt lat="43.0489972" lon="11.4905665"><ele>603.0</ele><time>2026-04-26T11:23:34.012Z</time></trkpt><trkpt lat="43.0490427" lon="11.490737"><ele>601.0</ele><time>2026-04-26T11:23:35.016Z</time></trkpt><trkpt lat="43.0490965" lon="11.4908858"><ele>599.0</ele><time>2026-04-26T11:23:36.008Z</time></trkpt><trkpt lat="43.049175" lon="11.4909965"><ele>597.0</ele><time>2026-04-26T11:23:37.006Z</time></trkpt><trkpt lat="43.0492846" lon="11.4910533"><ele>595.0</ele><time>2026-04-26T11:23:38.008Z</time></trkpt><trkpt lat="43.049417" lon="11.491055"><ele>595.0</ele><time>2026-04-26T11:23:39.026Z</time></trkpt><trkpt lat="43.0495643" lon="11.4910226"><ele>595.0</ele><time>2026-04-26T11:23:40.01Z</time></trkpt><trkpt lat="43.0497216" lon="11.4909984"><ele>595.0</ele><time>2026-04-26T11:23:41.015Z</time></trkpt><trkpt lat="43.0498705" lon="11.4910064"><ele>595.5</ele><time>2026-04-26T11:23:42.015Z</time></trkpt><trkpt lat="43.0500035" lon="11.491021"><ele>596.0</ele><time>2026-04-26T11:23:43.005Z</time></trkpt><trkpt lat="43.0501222" lon="11.4909973"><ele>596.5</ele><time>2026-04-26T11:23:44.011Z</time></trkpt><trkpt lat="43.0502242" lon="11.4909169"><ele>597.0</ele><time>2026-04-26T11:23:45.009Z</time></trkpt><trkpt lat="43.0503105" lon="11.4907846"><ele>597.0</ele><time>2026-04-26T11:23:46.02Z</time></trkpt><trkpt lat="43.0503876" lon="11.4906152"><ele>597.0</ele><time>2026-04-26T11:23:47.007Z</time></trkpt><trkpt lat="43.0504709" lon="11.4904204"><ele>597.0</ele><time>2026-04-26T11:23:48.008Z</time></trkpt><trkpt lat="43.0505604" lon="11.4902211"><ele>595.0</ele><time>2026-04-26T11:23:49.008Z</time></trkpt><trkpt lat="43.0506461" lon="11.4900358"><ele>593.0</ele><time>2026-04-26T11:23:49.999Z</time></trkpt><trkpt lat="43.0507233" lon="11.4898711"><ele>591.0</ele><time>2026-04-26T11:23:51.003Z</time></trkpt><trkpt lat="43.0507937" lon="11.4897315"><ele>589.0</ele><time>2026-04-26T11:23:51.986Z</time></trkpt><trkpt lat="43.0508699" lon="11.4896137"><ele>589.0</ele><time>2026-04-26T11:23:52.981Z</time></trkpt><trkpt lat="43.0509659" lon="11.4895346"><ele>589.0</ele><time>2026-04-26T11:23:54.006Z</time></trkpt><trkpt lat="43.0510735" lon="11.489517"><ele>589.0</ele><time>2026-04-26T11:23:55.006Z</time></trkpt><trkpt lat="43.0511776" lon="11.4895652"><ele>589.0</ele><time>2026-04-26T11:23:56.015Z</time></trkpt><trkpt lat="43.0512667" lon="11.4896727"><ele>589.0</ele><time>2026-04-26T11:23:57.025Z</time></trkpt><trkpt lat="43.0513418" lon="11.4898227"><ele>589.0</ele><time>2026-04-26T11:23:58.016Z</time></trkpt><trkpt lat="43.0514161" lon="11.4900014"><ele>589.0</ele><time>2026-04-26T11:23:59.016Z</time></trkpt><trkpt lat="43.0514944" lon="11.4901913"><ele>589.0</ele><time>2026-04-26T11:24:00.009Z</time></trkpt><trkpt lat="43.0515741" lon="11.4903766"><ele>583.6666666666667</ele><time>2026-04-26T11:24:01.019Z</time></trkpt><trkpt lat="43.0516614" lon="11.4905385"><ele>578.3333333333334</ele><time>2026-04-26T11:24:02.007Z</time></trkpt><trkpt lat="43.051771" lon="11.4906808"><ele>573.0</ele><time>2026-04-26T11:24:03.004Z</time></trkpt><trkpt lat="43.0518942" lon="11.4908079"><ele>573.0</ele><time>2026-04-26T11:24:04.02Z</time></trkpt><trkpt lat="43.0520166" lon="11.4909115"><ele>573.0</ele><time>2026-04-26T11:24:05.007Z</time></trkpt><trkpt lat="43.0521467" lon="11.4909804"><ele>573.0</ele><time>2026-04-26T11:24:06.006Z</time></trkpt><trkpt lat="43.0522868" lon="11.4910005"><ele>573.0</ele><time>2026-04-26T11:24:07.014Z</time></trkpt><trkpt lat="43.0524312" lon="11.4909681"><ele>574.0</ele><time>2026-04-26T11:24:08.003Z</time></trkpt><trkpt lat="43.052576" lon="11.4909005"><ele>575.0</ele><time>2026-04-26T11:24:09.008Z</time></trkpt><trkpt lat="43.0527131" lon="11.4908235"><ele>576.0</ele><time>2026-04-26T11:24:10.001Z</time></trkpt><trkpt lat="43.0528408" lon="11.4907448"><ele>577.0</ele><time>2026-04-26T11:24:11.015Z</time></trkpt><trkpt lat="43.052952" lon="11.4906568"><ele>577.0</ele><time>2026-04-26T11:24:12.009Z</time></trkpt><trkpt lat="43.0530426" lon="11.4905372"><ele>577.0</ele><time>2026-04-26T11:24:13.013Z</time></trkpt><trkpt lat="43.0531108" lon="11.4903828"><ele>577.0</ele><time>2026-04-26T11:24:14.015Z</time></trkpt><trkpt lat="43.0531623" lon="11.4902005"><ele>577.0</ele><time>2026-04-26T11:24:15.025Z</time></trkpt><trkpt lat="43.0532042" lon="11.4900032"><ele>575.0</ele><time>2026-04-26T11:24:16.004Z</time></trkpt><trkpt lat="43.0532421" lon="11.4898021"><ele>573.0</ele><time>2026-04-26T11:24:17.003Z</time></trkpt><trkpt lat="43.0532772" lon="11.4896111"><ele>571.0</ele><time>2026-04-26T11:24:17.996Z</time></trkpt><trkpt lat="43.0533139" lon="11.4894303"><ele>569.0</ele><time>2026-04-26T11:24:19.011Z</time></trkpt><trkpt lat="43.053355" lon="11.4892649"><ele>569.0</ele><time>2026-04-26T11:24:20.019Z</time></trkpt><trkpt lat="43.0534086" lon="11.4891164"><ele>569.0</ele><time>2026-04-26T11:24:21.022Z</time></trkpt><trkpt lat="43.0534822" lon="11.4889973"><ele>569.0</ele><time>2026-04-26T11:24:22.008Z</time></trkpt><trkpt lat="43.0535751" lon="11.4889202"><ele>569.0</ele><time>2026-04-26T11:24:23.014Z</time></trkpt><trkpt lat="43.0536768" lon="11.4888819"><ele>569.0</ele><time>2026-04-26T11:24:24Z</time></trkpt><trkpt lat="43.053781" lon="11.4888568"><ele>569.0</ele><time>2026-04-26T11:24:25.019Z</time></trkpt><trkpt lat="43.0538828" lon="11.4888286"><ele>569.0</ele><time>2026-04-26T11:24:26.002Z</time></trkpt><trkpt lat="43.0539835" lon="11.4887953"><ele>569.0</ele><time>2026-04-26T11:24:27.002Z</time></trkpt><trkpt lat="43.0540826" lon="11.4887626"><ele>569.0</ele><time>2026-04-26T11:24:28.012Z</time></trkpt><trkpt lat="43.0541783" lon="11.4887316"><ele>569.0</ele><time>2026-04-26T11:24:29.019Z</time></trkpt><trkpt lat="43.0542739" lon="11.4887064"><ele>568.2</ele><time>2026-04-26T11:24:30.017Z</time></trkpt><trkpt lat="43.0543698" lon="11.4886936"><ele>567.4</ele><time>2026-04-26T11:24:31.01Z</time></trkpt><trkpt lat="43.0544641" lon="11.4886994"><ele>566.6</ele><time>2026-04-26T11:24:32.004Z</time></trkpt><trkpt lat="43.0545532" lon="11.4887224"><ele>565.8</ele><time>2026-04-26T11:24:33.013Z</time></trkpt><trkpt lat="43.0546379" lon="11.4887563"><ele>565.0</ele><time>2026-04-26T11:24:34.001Z</time></trkpt><trkpt lat="43.05472" lon="11.4887974"><ele>563.3333333333334</ele><time>2026-04-26T11:24:35.018Z</time></trkpt><trkpt lat="43.0547953" lon="11.488843"><ele>561.6666666666667</ele><time>2026-04-26T11:24:36.023Z</time></trkpt><trkpt lat="43.0548604" lon="11.4888948"><ele>560.0</ele><time>2026-04-26T11:24:37.018Z</time></trkpt><trkpt lat="43.0549148" lon="11.488949"><ele>558.3333333333334</ele><time>2026-04-26T11:24:38.006Z</time></trkpt><trkpt lat="43.0549909" lon="11.4890479"><ele>556.6666666666666</ele><time>2026-04-26T11:24:39.999Z</time></trkpt><trkpt lat="43.0550198" lon="11.4891627"><ele>555.0</ele><time>2026-04-26T11:24:41.994Z</time></trkpt><trkpt lat="43.0549445" lon="11.4892339"><ele>555.0</ele><time>2026-04-26T11:24:44.007Z</time></trkpt><trkpt lat="43.0548076" lon="11.4892262"><ele>555.0</ele><time>2026-04-26T11:24:45.997Z</time></trkpt><trkpt lat="43.0547183" lon="11.4892343"><ele>555.0</ele><time>2026-04-26T11:24:47.008Z</time></trkpt><trkpt lat="43.0546134" lon="11.489245"><ele>555.0</ele><time>2026-04-26T11:24:48.001Z</time></trkpt><trkpt lat="43.054498" lon="11.4892553"><ele>555.0</ele><time>2026-04-26T11:24:48.994Z</time></trkpt><trkpt lat="43.0543838" lon="11.4892724"><ele>555.0</ele><time>2026-04-26T11:24:49.995Z</time></trkpt><trkpt lat="43.0542781" lon="11.4893163"><ele>555.0</ele><time>2026-04-26T11:24:50.992Z</time></trkpt><trkpt lat="43.0541914" lon="11.4894077"><ele>555.0</ele><time>2026-04-26T11:24:51.997Z</time></trkpt><trkpt lat="43.0541356" lon="11.4895385"><ele>555.0</ele><time>2026-04-26T11:24:53.001Z</time></trkpt><trkpt lat="43.0541159" lon="11.4896865"><ele>555.0</ele><time>2026-04-26T11:24:54.006Z</time></trkpt><trkpt lat="43.0541324" lon="11.489831"><ele>552.75</ele><time>2026-04-26T11:24:55.004Z</time></trkpt><trkpt lat="43.0541828" lon="11.489958"><ele>550.5</ele><time>2026-04-26T11:24:55.988Z</time></trkpt><trkpt lat="43.0542623" lon="11.4900666"><ele>548.25</ele><time>2026-04-26T11:24:56.994Z</time></trkpt><trkpt lat="43.0543624" lon="11.4901694"><ele>546.0</ele><time>2026-04-26T11:24:57.997Z</time></trkpt><trkpt lat="43.0544749" lon="11.4902812"><ele>546.0</ele><time>2026-04-26T11:24:59.004Z</time></trkpt><trkpt lat="43.0545914" lon="11.4904039"><ele>546.0</ele><time>2026-04-26T11:25:00.006Z</time></trkpt><trkpt lat="43.0547032" lon="11.4905327"><ele>546.0</ele><time>2026-04-26T11:25:01.017Z</time></trkpt><trkpt lat="43.0548039" lon="11.4906641"><ele>546.0</ele><time>2026-04-26T11:25:02.003Z</time></trkpt><trkpt lat="43.0548925" lon="11.490797"><ele>544.2</ele><time>2026-04-26T11:25:02.997Z</time></trkpt><trkpt lat="43.0549655" lon="11.490928"><ele>542.4000000000001</ele><time>2026-04-26T11:25:03.997Z</time></trkpt><trkpt lat="43.0550243" lon="11.4910534"><ele>540.6</ele><time>2026-04-26T11:25:04.988Z</time></trkpt><trkpt lat="43.0550731" lon="11.4911677"><ele>538.8000000000001</ele><time>2026-04-26T11:25:05.991Z</time></trkpt><trkpt lat="43.0551208" lon="11.4912741"><ele>537.0</ele><time>2026-04-26T11:25:06.998Z</time></trkpt><trkpt lat="43.0551682" lon="11.4913766"><ele>533.6666666666666</ele><time>2026-04-26T11:25:07.994Z</time></trkpt><trkpt lat="43.0552122" lon="11.4914705"><ele>530.3333333333334</ele><time>2026-04-26T11:25:09.003Z</time></trkpt><trkpt lat="43.0552534" lon="11.4915542"><ele>527.0</ele><time>2026-04-26T11:25:10.006Z</time></trkpt><trkpt lat="43.055294" lon="11.4916263"><ele>523.6666666666667</ele><time>2026-04-26T11:25:11.009Z</time></trkpt><trkpt lat="43.0553529" lon="11.4917105"><ele>520.3333333333334</ele><time>2026-04-26T11:25:13.016Z</time></trkpt><trkpt lat="43.0554086" lon="11.4917812"><ele>517.0</ele><time>2026-04-26T11:25:21.005Z</time></trkpt><trkpt lat="43.0554122" lon="11.4918759"><ele>517.0</ele><time>2026-04-26T11:25:23.001Z</time></trkpt><trkpt lat="43.0553211" lon="11.4918136"><ele>517.0</ele><time>2026-04-26T11:25:26.001Z</time></trkpt><trkpt lat="43.0552792" lon="11.4917436"><ele>517.0</ele><time>2026-04-26T11:25:27.009Z</time></trkpt><trkpt lat="43.0552228" lon="11.4916663"><ele>517.0</ele><time>2026-04-26T11:25:27.992Z</time></trkpt><trkpt lat="43.0551584" lon="11.4915869"><ele>517.0</ele><time>2026-04-26T11:25:28.994Z</time></trkpt><trkpt lat="43.0550946" lon="11.491504"><ele>517.0</ele><time>2026-04-26T11:25:29.986Z</time></trkpt><trkpt lat="43.0550375" lon="11.4914194"><ele>517.0</ele><time>2026-04-26T11:25:30.987Z</time></trkpt><trkpt lat="43.0549848" lon="11.4913361"><ele>517.0</ele><time>2026-04-26T11:25:31.993Z</time></trkpt><trkpt lat="43.0549342" lon="11.4912581"><ele>517.0</ele><time>2026-04-26T11:25:32.997Z</time></trkpt><trkpt lat="43.0548851" lon="11.4911871"><ele>517.0</ele><time>2026-04-26T11:25:34Z</time></trkpt><trkpt lat="43.0548366" lon="11.4911208"><ele>517.0</ele><time>2026-04-26T11:25:35.007Z</time></trkpt><trkpt lat="43.0547912" lon="11.4910566"><ele>517.0</ele><time>2026-04-26T11:25:36.007Z</time></trkpt><trkpt lat="43.0547064" lon="11.490946"><ele>521.2</ele><time>2026-04-26T11:25:38.004Z</time></trkpt><trkpt lat="43.0545993" lon="11.4909002"><ele>525.4000000000001</ele><time>2026-04-26T11:25:40.003Z</time></trkpt><trkpt lat="43.0544901" lon="11.4909381"><ele>529.5999999999999</ele><time>2026-04-26T11:25:41.997Z</time></trkpt><trkpt lat="43.0544015" lon="11.4910526"><ele>533.8</ele><time>2026-04-26T11:25:44Z</time></trkpt><trkpt lat="43.0543699" lon="11.4911421"><ele>538.0</ele><time>2026-04-26T11:25:45.008Z</time></trkpt><trkpt lat="43.0543542" lon="11.4912546"><ele>537.6666666666667</ele><time>2026-04-26T11:25:46.016Z</time></trkpt><trkpt lat="43.0543522" lon="11.4913688"><ele>537.3333333333334</ele><time>2026-04-26T11:25:47.005Z</time></trkpt><trkpt lat="43.0543574" lon="11.4914773"><ele>537.0</ele><time>2026-04-26T11:25:48.002Z</time></trkpt><trkpt lat="43.0543646" lon="11.4915809"><ele>536.6666666666666</ele><time>2026-04-26T11:25:49.014Z</time></trkpt><trkpt lat="43.0543757" lon="11.4916838"><ele>536.3333333333333</ele><time>2026-04-26T11:25:50Z</time></trkpt><trkpt lat="43.0543927" lon="11.4917945"><ele>536.0</ele><time>2026-04-26T11:25:51.002Z</time></trkpt><trkpt lat="43.0544089" lon="11.4919132"><ele>536.0</ele><time>2026-04-26T11:25:52.001Z</time></trkpt><trkpt lat="43.0544214" lon="11.492041"><ele>536.0</ele><time>2026-04-26T11:25:52.987Z</time></trkpt><trkpt lat="43.0544306" lon="11.4921714"><ele>536.0</ele><time>2026-04-26T11:25:53.988Z</time></trkpt><trkpt lat="43.0544361" lon="11.4922963"><ele>536.0</ele><time>2026-04-26T11:25:54.98Z</time></trkpt><trkpt lat="43.0544378" lon="11.4924164"><ele>536.0</ele><time>2026-04-26T11:25:55.983Z</time></trkpt><trkpt lat="43.0544324" lon="11.4925362"><ele>533.6</ele><time>2026-04-26T11:25:56.995Z</time></trkpt><trkpt lat="43.0544217" lon="11.4926628"><ele>531.2</ele><time>2026-04-26T11:25:58.006Z</time></trkpt><trkpt lat="43.0544072" lon="11.4927939"><ele>528.8</ele><time>2026-04-26T11:25:59.006Z</time></trkpt><trkpt lat="43.0543851" lon="11.492917"><ele>526.4</ele><time>2026-04-26T11:25:59.993Z</time></trkpt><trkpt lat="43.0543509" lon="11.4930291"><ele>524.0</ele><time>2026-04-26T11:26:01.004Z</time></trkpt><trkpt lat="43.054305" lon="11.4931261"><ele>522.0</ele><time>2026-04-26T11:26:01.995Z</time></trkpt><trkpt lat="43.0542517" lon="11.4932169"><ele>520.0</ele><time>2026-04-26T11:26:03.006Z</time></trkpt><trkpt lat="43.054193" lon="11.4933106"><ele>518.0</ele><time>2026-04-26T11:26:04.01Z</time></trkpt><trkpt lat="43.0541209" lon="11.4934045"><ele>516.0</ele><time>2026-04-26T11:26:04.994Z</time></trkpt><trkpt lat="43.0540327" lon="11.4934922"><ele>514.0</ele><time>2026-04-26T11:26:06.006Z</time></trkpt><trkpt lat="43.0539337" lon="11.4935856"><ele>514.0</ele><time>2026-04-26T11:26:07.026Z</time></trkpt><trkpt lat="43.0538246" lon="11.4937063"><ele>514.0</ele><time>2026-04-26T11:26:07.999Z</time></trkpt><trkpt lat="43.0537068" lon="11.4938614"><ele>514.0</ele><time>2026-04-26T11:26:09.017Z</time></trkpt><trkpt lat="43.0536057" lon="11.4940373"><ele>512.0</ele><time>2026-04-26T11:26:10.001Z</time></trkpt><trkpt lat="43.0535339" lon="11.4942353"><ele>510.0</ele><time>2026-04-26T11:26:11.007Z</time></trkpt><trkpt lat="43.053496" lon="11.4944536"><ele>508.0</ele><time>2026-04-26T11:26:11.994Z</time></trkpt><trkpt lat="43.0534885" lon="11.4946769"><ele>507.25</ele><time>2026-04-26T11:26:13.012Z</time></trkpt><trkpt lat="43.0535013" lon="11.4948846"><ele>506.5</ele><time>2026-04-26T11:26:13.998Z</time></trkpt><trkpt lat="43.0535176" lon="11.4950847"><ele>505.75</ele><time>2026-04-26T11:26:15.004Z</time></trkpt><trkpt lat="43.0535298" lon="11.4952776"><ele>505.0</ele><time>2026-04-26T11:26:16.013Z</time></trkpt><trkpt lat="43.0535401" lon="11.4954683"><ele>504.75</ele><time>2026-04-26T11:26:16.994Z</time></trkpt><trkpt lat="43.0535466" lon="11.4956709"><ele>504.5</ele><time>2026-04-26T11:26:18Z</time></trkpt><trkpt lat="43.053544" lon="11.4958693"><ele>504.25</ele><time>2026-04-26T11:26:19Z</time></trkpt><trkpt lat="43.0535325" lon="11.4960522"><ele>504.0</ele><time>2026-04-26T11:26:19.99Z</time></trkpt><trkpt lat="43.0535169" lon="11.4962196"><ele>503.0</ele><time>2026-04-26T11:26:20.996Z</time></trkpt><trkpt lat="43.0534981" lon="11.4963742"><ele>502.0</ele><time>2026-04-26T11:26:22.003Z</time></trkpt><trkpt lat="43.0534776" lon="11.4965225"><ele>501.0</ele><time>2026-04-26T11:26:23.003Z</time></trkpt><trkpt lat="43.0534579" lon="11.4966702"><ele>500.0</ele><time>2026-04-26T11:26:24.003Z</time></trkpt><trkpt lat="43.0534367" lon="11.4968145"><ele>499.0</ele><time>2026-04-26T11:26:25.019Z</time></trkpt><trkpt lat="43.053413" lon="11.496954"><ele>498.25</ele><time>2026-04-26T11:26:25.995Z</time></trkpt><trkpt lat="43.0533815" lon="11.4971027"><ele>497.5</ele><time>2026-04-26T11:26:27.004Z</time></trkpt><trkpt lat="43.0533431" lon="11.4972566"><ele>496.75</ele><time>2026-04-26T11:26:28.007Z</time></trkpt><trkpt lat="43.0532975" lon="11.4974065"><ele>496.0</ele><time>2026-04-26T11:26:29Z</time></trkpt><trkpt lat="43.0532473" lon="11.4975498"><ele>497.0</ele><time>2026-04-26T11:26:30.008Z</time></trkpt><trkpt lat="43.053189" lon="11.497689"><ele>498.0</ele><time>2026-04-26T11:26:30.999Z</time></trkpt><trkpt lat="43.0531195" lon="11.4978296"><ele>499.0</ele><time>2026-04-26T11:26:32.013Z</time></trkpt><trkpt lat="43.0530506" lon="11.4979703"><ele>500.0</ele><time>2026-04-26T11:26:33.006Z</time></trkpt><trkpt lat="43.0529909" lon="11.4981054"><ele>500.0</ele><time>2026-04-26T11:26:34.003Z</time></trkpt><trkpt lat="43.0529369" lon="11.4982301"><ele>500.0</ele><time>2026-04-26T11:26:35.005Z</time></trkpt><trkpt lat="43.0528838" lon="11.4983521"><ele>500.0</ele><time>2026-04-26T11:26:35.999Z</time></trkpt><trkpt lat="43.0528307" lon="11.4984747"><ele>500.0</ele><time>2026-04-26T11:26:37.016Z</time></trkpt><trkpt lat="43.0527766" lon="11.4986005"><ele>500.0</ele><time>2026-04-26T11:26:38Z</time></trkpt><trkpt lat="43.0527178" lon="11.4987388"><ele>497.5</ele><time>2026-04-26T11:26:39.013Z</time></trkpt><trkpt lat="43.0526566" lon="11.4988885"><ele>495.0</ele><time>2026-04-26T11:26:39.998Z</time></trkpt><trkpt lat="43.052594" lon="11.4990449"><ele>492.5</ele><time>2026-04-26T11:26:41.007Z</time></trkpt><trkpt lat="43.052535" lon="11.4991958"><ele>490.0</ele><time>2026-04-26T11:26:41.998Z</time></trkpt><trkpt lat="43.0524765" lon="11.4993415"><ele>490.75</ele><time>2026-04-26T11:26:42.999Z</time></trkpt><trkpt lat="43.0524185" lon="11.4994826"><ele>491.5</ele><time>2026-04-26T11:26:43.987Z</time></trkpt><trkpt lat="43.0523597" lon="11.499629"><ele>492.25</ele><time>2026-04-26T11:26:45Z</time></trkpt><trkpt lat="43.0522995" lon="11.4997847"><ele>493.0</ele><time>2026-04-26T11:26:46.03Z</time></trkpt><trkpt lat="43.0522408" lon="11.4999373"><ele>490.2</ele><time>2026-04-26T11:26:47.018Z</time></trkpt><trkpt lat="43.0521831" lon="11.5000799"><ele>487.4</ele><time>2026-04-26T11:26:48.038Z</time></trkpt><trkpt lat="43.0521313" lon="11.5002017"><ele>484.59999999999997</ele><time>2026-04-26T11:26:49.017Z</time></trkpt><trkpt lat="43.0520827" lon="11.5003121"><ele>481.79999999999995</ele><time>2026-04-26T11:26:50.022Z</time></trkpt><trkpt lat="43.0520373" lon="11.5004183"><ele>479.0</ele><time>2026-04-26T11:26:51.003Z</time></trkpt><trkpt lat="43.0519969" lon="11.500535"><ele>478.0</ele><time>2026-04-26T11:26:52.018Z</time></trkpt><trkpt lat="43.0519643" lon="11.5006654"><ele>477.0</ele><time>2026-04-26T11:26:53.007Z</time></trkpt><trkpt lat="43.0519404" lon="11.5008054"><ele>476.0</ele><time>2026-04-26T11:26:54.01Z</time></trkpt><trkpt lat="43.0519259" lon="11.5009492"><ele>475.0</ele><time>2026-04-26T11:26:55.02Z</time></trkpt><trkpt lat="43.0519206" lon="11.5010946"><ele>474.0</ele><time>2026-04-26T11:26:56.015Z</time></trkpt><trkpt lat="43.0519202" lon="11.5012406"><ele>473.0</ele><time>2026-04-26T11:26:57.027Z</time></trkpt><trkpt lat="43.0519239" lon="11.5013867"><ele>472.0</ele><time>2026-04-26T11:26:58.014Z</time></trkpt><trkpt lat="43.0519302" lon="11.5015398"><ele>471.0</ele><time>2026-04-26T11:26:59.025Z</time></trkpt><trkpt lat="43.0519365" lon="11.5016916"><ele>470.0</ele><time>2026-04-26T11:27:00.008Z</time></trkpt><trkpt lat="43.0519381" lon="11.5018382"><ele>469.0</ele><time>2026-04-26T11:27:01.009Z</time></trkpt><trkpt lat="43.0519317" lon="11.5019773"><ele>468.4</ele><time>2026-04-26T11:27:02.013Z</time></trkpt><trkpt lat="43.0519154" lon="11.5021109"><ele>467.79999999999995</ele><time>2026-04-26T11:27:02.999Z</time></trkpt><trkpt lat="43.051887" lon="11.5022403"><ele>467.20000000000005</ele><time>2026-04-26T11:27:04.008Z</time></trkpt><trkpt lat="43.0518496" lon="11.5023625"><ele>466.6</ele><time>2026-04-26T11:27:05Z</time></trkpt><trkpt lat="43.0518127" lon="11.5024835"><ele>466.0</ele><time>2026-04-26T11:27:06.001Z</time></trkpt><trkpt lat="43.0517809" lon="11.5026043"><ele>466.0</ele><time>2026-04-26T11:27:07.003Z</time></trkpt><trkpt lat="43.0517539" lon="11.5027244"><ele>466.0</ele><time>2026-04-26T11:27:07.996Z</time></trkpt><trkpt lat="43.0517349" lon="11.5028446"><ele>466.0</ele><time>2026-04-26T11:27:08.986Z</time></trkpt><trkpt lat="43.0517301" lon="11.5029661"><ele>466.0</ele><time>2026-04-26T11:27:09.99Z</time></trkpt><trkpt lat="43.051741" lon="11.5030914"><ele>466.0</ele><time>2026-04-26T11:27:10.994Z</time></trkpt><trkpt lat="43.0517648" lon="11.5032217"><ele>465.6666666666667</ele><time>2026-04-26T11:27:11.996Z</time></trkpt><trkpt lat="43.0518007" lon="11.5033474"><ele>465.33333333333337</ele><time>2026-04-26T11:27:13Z</time></trkpt><trkpt lat="43.0518444" lon="11.5034605"><ele>465.0</ele><time>2026-04-26T11:27:14.007Z</time></trkpt><trkpt lat="43.0518879" lon="11.5035607"><ele>464.66666666666663</ele><time>2026-04-26T11:27:15.013Z</time></trkpt><trkpt lat="43.0519281" lon="11.5036556"><ele>464.3333333333333</ele><time>2026-04-26T11:27:16.014Z</time></trkpt><trkpt lat="43.0519651" lon="11.5037505"><ele>464.0</ele><time>2026-04-26T11:27:17.007Z</time></trkpt><trkpt lat="43.0520015" lon="11.5038458"><ele>462.66666666666663</ele><time>2026-04-26T11:27:18.003Z</time></trkpt><trkpt lat="43.0520414" lon="11.5039421"><ele>461.3333333333333</ele><time>2026-04-26T11:27:19.005Z</time></trkpt><trkpt lat="43.052084" lon="11.5040448"><ele>460.0</ele><time>2026-04-26T11:27:20.014Z</time></trkpt><trkpt lat="43.052126" lon="11.5041497"><ele>458.66666666666663</ele><time>2026-04-26T11:27:21.026Z</time></trkpt><trkpt lat="43.0521663" lon="11.5042521"><ele>457.3333333333333</ele><time>2026-04-26T11:27:22.013Z</time></trkpt><trkpt lat="43.0522029" lon="11.5043537"><ele>456.0</ele><time>2026-04-26T11:27:23.017Z</time></trkpt><trkpt lat="43.0522317" lon="11.5044512"><ele>456.0</ele><time>2026-04-26T11:27:24.001Z</time></trkpt><trkpt lat="43.0522515" lon="11.5045428"><ele>456.0</ele><time>2026-04-26T11:27:25.008Z</time></trkpt><trkpt lat="43.0522676" lon="11.5046779"><ele>456.0</ele><time>2026-04-26T11:27:27.009Z</time></trkpt><trkpt lat="43.0522725" lon="11.5047959"><ele>456.0</ele><time>2026-04-26T11:27:29.015Z</time></trkpt><trkpt lat="43.0522659" lon="11.5049158"><ele>456.0</ele><time>2026-04-26T11:27:31.014Z</time></trkpt><trkpt lat="43.0522489" lon="11.5050703"><ele>454.4</ele><time>2026-04-26T11:27:33.009Z</time></trkpt><trkpt lat="43.0522304" lon="11.5051625"><ele>452.8</ele><time>2026-04-26T11:27:34Z</time></trkpt><trkpt lat="43.0522018" lon="11.505263"><ele>451.19999999999993</ele><time>2026-04-26T11:27:35.016Z</time></trkpt><trkpt lat="43.052166" lon="11.5053675"><ele>449.59999999999997</ele><time>2026-04-26T11:27:36.018Z</time></trkpt><trkpt lat="43.0521297" lon="11.5054726"><ele>448.0</ele><time>2026-04-26T11:27:37.03Z</time></trkpt><trkpt lat="43.0520584" lon="11.5056677"><ele>448.00000000000006</ele><time>2026-04-26T11:27:39.026Z</time></trkpt><trkpt lat="43.0520253" lon="11.5057635"><ele>448.0</ele><time>2026-04-26T11:27:40.009Z</time></trkpt><trkpt lat="43.051992" lon="11.5058624"><ele>448.0</ele><time>2026-04-26T11:27:41.019Z</time></trkpt><trkpt lat="43.0519597" lon="11.5059566"><ele>448.0</ele><time>2026-04-26T11:27:42.012Z</time></trkpt><trkpt lat="43.0519313" lon="11.5060431"><ele>448.00000000000006</ele><time>2026-04-26T11:27:43.025Z</time></trkpt><trkpt lat="43.0518903" lon="11.5061673"><ele>448.0</ele><time>2026-04-26T11:27:45.023Z</time></trkpt><trkpt lat="43.0518662" lon="11.5062549"><ele>448.0</ele><time>2026-04-26T11:27:48.021Z</time></trkpt><trkpt lat="43.0519465" lon="11.5061875"><ele>448.0</ele><time>2026-04-26T11:27:53.018Z</time></trkpt><trkpt lat="43.0519709" lon="11.506104"><ele>448.0</ele><time>2026-04-26T11:27:54.019Z</time></trkpt><trkpt lat="43.0519972" lon="11.5060059"><ele>448.0</ele><time>2026-04-26T11:27:55.017Z</time></trkpt><trkpt lat="43.0521021" lon="11.5056374"><ele>448.0</ele><time>2026-04-26T11:27:58.001Z</time></trkpt><trkpt lat="43.0521464" lon="11.5055043"><ele>447.99999999999994</ele><time>2026-04-26T11:27:59.019Z</time></trkpt><trkpt lat="43.052191" lon="11.5053789"><ele>447.99999999999994</ele><time>2026-04-26T11:28:00.001Z</time></trkpt><trkpt lat="43.0522355" lon="11.5052689"><ele>448.0</ele><time>2026-04-26T11:28:01.026Z</time></trkpt><trkpt lat="43.0522786" lon="11.5051826"><ele>448.0</ele><time>2026-04-26T11:28:02.001Z</time></trkpt><trkpt lat="43.0523636" lon="11.505091"><ele>448.0</ele><time>2026-04-26T11:28:04.019Z</time></trkpt><trkpt lat="43.0524341" lon="11.5050658"><ele>447.99999999999994</ele><time>2026-04-26T11:28:07.035Z</time></trkpt><trkpt lat="43.0524308" lon="11.5049697"><ele>447.99999999999994</ele><time>2026-04-26T11:28:43.025Z</time></trkpt><trkpt lat="43.0523652" lon="11.5048731"><ele>448.0</ele><time>2026-04-26T11:28:45.017Z</time></trkpt><trkpt lat="43.0522784" lon="11.5048923"><ele>448.0</ele><time>2026-04-26T11:28:47.006Z</time></trkpt><trkpt lat="43.0522237" lon="11.5051642"><ele>448.0</ele><time>2026-04-26T11:28:50.006Z</time></trkpt><trkpt lat="43.0521923" lon="11.5052918"><ele>448.0</ele><time>2026-04-26T11:28:51.025Z</time></trkpt><trkpt lat="43.0521482" lon="11.5054342"><ele>448.0</ele><time>2026-04-26T11:28:52.025Z</time></trkpt><trkpt lat="43.0520452" lon="11.5057437"><ele>448.0</ele><time>2026-04-26T11:28:54.013Z</time></trkpt><trkpt lat="43.0519904" lon="11.5059071"><ele>448.0</ele><time>2026-04-26T11:28:55.034Z</time></trkpt><trkpt lat="43.0519372" lon="11.5060703"><ele>448.0</ele><time>2026-04-26T11:28:56.015Z</time></trkpt><trkpt lat="43.0518885" lon="11.5062318"><ele>448.0</ele><time>2026-04-26T11:28:57.019Z</time></trkpt><trkpt lat="43.0518485" lon="11.5063889"><ele>449.25</ele><time>2026-04-26T11:28:58.021Z</time></trkpt><trkpt lat="43.0518194" lon="11.5065506"><ele>450.5</ele><time>2026-04-26T11:28:59.026Z</time></trkpt><trkpt lat="43.0518043" lon="11.5067248"><ele>451.75</ele><time>2026-04-26T11:29:00.027Z</time></trkpt><trkpt lat="43.0518055" lon="11.5069155"><ele>453.0</ele><time>2026-04-26T11:29:01.019Z</time></trkpt><trkpt lat="43.0518189" lon="11.5071188"><ele>453.5</ele><time>2026-04-26T11:29:02.03Z</time></trkpt><trkpt lat="43.0518316" lon="11.5073151"><ele>454.0</ele><time>2026-04-26T11:29:03.01Z</time></trkpt><trkpt lat="43.0518344" lon="11.5075062"><ele>454.5</ele><time>2026-04-26T11:29:04.013Z</time></trkpt><trkpt lat="43.0518241" lon="11.5076896"><ele>455.0</ele><time>2026-04-26T11:29:05Z</time></trkpt><trkpt lat="43.0517967" lon="11.507866"><ele>454.5</ele><time>2026-04-26T11:29:06.022Z</time></trkpt><trkpt lat="43.0517477" lon="11.5080294"><ele>454.0</ele><time>2026-04-26T11:29:07.01Z</time></trkpt><trkpt lat="43.0516739" lon="11.5081897"><ele>453.5</ele><time>2026-04-26T11:29:08.016Z</time></trkpt><trkpt lat="43.0515787" lon="11.5083503"><ele>453.0</ele><time>2026-04-26T11:29:09.003Z</time></trkpt><trkpt lat="43.0514686" lon="11.5085173"><ele>453.0</ele><time>2026-04-26T11:29:10.008Z</time></trkpt><trkpt lat="43.0513538" lon="11.5086808"><ele>453.0</ele><time>2026-04-26T11:29:11Z</time></trkpt><trkpt lat="43.0512405" lon="11.5088374"><ele>453.0</ele><time>2026-04-26T11:29:12.01Z</time></trkpt><trkpt lat="43.0511274" lon="11.5089863"><ele>448.66666666666663</ele><time>2026-04-26T11:29:13.022Z</time></trkpt><trkpt lat="43.0510077" lon="11.5091317"><ele>444.3333333333333</ele><time>2026-04-26T11:29:14.011Z</time></trkpt><trkpt lat="43.0508701" lon="11.5092843"><ele>440.0</ele><time>2026-04-26T11:29:15.02Z</time></trkpt><trkpt lat="43.0507214" lon="11.5094405"><ele>436.66666666666663</ele><time>2026-04-26T11:29:16.019Z</time></trkpt><trkpt lat="43.0505746" lon="11.5095919"><ele>433.33333333333337</ele><time>2026-04-26T11:29:17.027Z</time></trkpt><trkpt lat="43.0504341" lon="11.509737"><ele>430.0</ele><time>2026-04-26T11:29:18.017Z</time></trkpt><trkpt lat="43.0502966" lon="11.5098797"><ele>430.0</ele><time>2026-04-26T11:29:19.034Z</time></trkpt><trkpt lat="43.0501647" lon="11.5100174"><ele>430.0</ele><time>2026-04-26T11:29:20.018Z</time></trkpt><trkpt lat="43.0500343" lon="11.5101517"><ele>430.0</ele><time>2026-04-26T11:29:21.027Z</time></trkpt><trkpt lat="43.0499052" lon="11.5102771"><ele>426.0</ele><time>2026-04-26T11:29:22.03Z</time></trkpt><trkpt lat="43.0497806" lon="11.5103987"><ele>422.0</ele><time>2026-04-26T11:29:23.017Z</time></trkpt><trkpt lat="43.0496655" lon="11.5105382"><ele>418.0</ele><time>2026-04-26T11:29:24.007Z</time></trkpt><trkpt lat="43.0495572" lon="11.5107014"><ele>417.33333333333337</ele><time>2026-04-26T11:29:25Z</time></trkpt><trkpt lat="43.049452" lon="11.5108716"><ele>416.66666666666663</ele><time>2026-04-26T11:29:26.021Z</time></trkpt><trkpt lat="43.0493559" lon="11.5110331"><ele>416.0</ele><time>2026-04-26T11:29:27.01Z</time></trkpt><trkpt lat="43.0492744" lon="11.5111959"><ele>415.25</ele><time>2026-04-26T11:29:28.019Z</time></trkpt><trkpt lat="43.0492139" lon="11.5113635"><ele>414.5</ele><time>2026-04-26T11:29:29.003Z</time></trkpt><trkpt lat="43.0491658" lon="11.5115414"><ele>413.75</ele><time>2026-04-26T11:29:30.01Z</time></trkpt><trkpt lat="43.049116" lon="11.5117331"><ele>413.0</ele><time>2026-04-26T11:29:31.017Z</time></trkpt><trkpt lat="43.0490603" lon="11.511931"><ele>411.0</ele><time>2026-04-26T11:29:31.999Z</time></trkpt><trkpt lat="43.048999" lon="11.5121256"><ele>409.0</ele><time>2026-04-26T11:29:33.002Z</time></trkpt><trkpt lat="43.0489343" lon="11.512312"><ele>407.0</ele><time>2026-04-26T11:29:34.01Z</time></trkpt><trkpt lat="43.0488692" lon="11.5124876"><ele>407.0</ele><time>2026-04-26T11:29:35.011Z</time></trkpt><trkpt lat="43.0488055" lon="11.5126434"><ele>407.0</ele><time>2026-04-26T11:29:35.995Z</time></trkpt><trkpt lat="43.0487515" lon="11.5127805"><ele>407.0</ele><time>2026-04-26T11:29:37.001Z</time></trkpt><trkpt lat="43.0487208" lon="11.5129087"><ele>407.0</ele><time>2026-04-26T11:29:38.006Z</time></trkpt><trkpt lat="43.0487215" lon="11.5130413"><ele>407.0</ele><time>2026-04-26T11:29:39.019Z</time></trkpt><trkpt lat="43.0487514" lon="11.5131771"><ele>407.0</ele><time>2026-04-26T11:29:40.014Z</time></trkpt><trkpt lat="43.0487969" lon="11.5133077"><ele>407.0</ele><time>2026-04-26T11:29:41.024Z</time></trkpt><trkpt lat="43.0488435" lon="11.5134278"><ele>407.0</ele><time>2026-04-26T11:29:42.011Z</time></trkpt><trkpt lat="43.0488831" lon="11.5135512"><ele>407.0</ele><time>2026-04-26T11:29:43.022Z</time></trkpt><trkpt lat="43.0489084" lon="11.5136828"><ele>407.0</ele><time>2026-04-26T11:29:44.002Z</time></trkpt><trkpt lat="43.0489126" lon="11.5138306"><ele>406.25</ele><time>2026-04-26T11:29:45.016Z</time></trkpt><trkpt lat="43.0488949" lon="11.5139818"><ele>405.5</ele><time>2026-04-26T11:29:46.015Z</time></trkpt><trkpt lat="43.048864" lon="11.5141315"><ele>404.75</ele><time>2026-04-26T11:29:47.006Z</time></trkpt><trkpt lat="43.0488286" lon="11.5142854"><ele>404.0</ele><time>2026-04-26T11:29:48.013Z</time></trkpt><trkpt lat="43.0487934" lon="11.5144368"><ele>403.0</ele><time>2026-04-26T11:29:49.034Z</time></trkpt><trkpt lat="43.0487613" lon="11.5145808"><ele>402.0</ele><time>2026-04-26T11:29:50.012Z</time></trkpt><trkpt lat="43.0487425" lon="11.5147214"><ele>401.0</ele><time>2026-04-26T11:29:51.023Z</time></trkpt><trkpt lat="43.0487512" lon="11.5148569"><ele>400.0</ele><time>2026-04-26T11:29:52.009Z</time></trkpt><trkpt lat="43.0487929" lon="11.5149854"><ele>399.0</ele><time>2026-04-26T11:29:53.007Z</time></trkpt><trkpt lat="43.0488658" lon="11.5150969"><ele>399.0</ele><time>2026-04-26T11:29:54.001Z</time></trkpt><trkpt lat="43.0489631" lon="11.5151814"><ele>399.0</ele><time>2026-04-26T11:29:55.008Z</time></trkpt><trkpt lat="43.0490735" lon="11.515235"><ele>399.0</ele><time>2026-04-26T11:29:56.007Z</time></trkpt><trkpt lat="43.0491957" lon="11.5152713"><ele>399.0</ele><time>2026-04-26T11:29:57.01Z</time></trkpt><trkpt lat="43.049326" lon="11.5153031"><ele>399.0</ele><time>2026-04-26T11:29:57.994Z</time></trkpt><trkpt lat="43.0494567" lon="11.5153423"><ele>399.0</ele><time>2026-04-26T11:29:58.999Z</time></trkpt><trkpt lat="43.049575" lon="11.5154045"><ele>399.0</ele><time>2026-04-26T11:30:00.011Z</time></trkpt><trkpt lat="43.049675" lon="11.5155037"><ele>399.0</ele><time>2026-04-26T11:30:01.022Z</time></trkpt><trkpt lat="43.0497586" lon="11.5156405"><ele>397.25</ele><time>2026-04-26T11:30:02.034Z</time></trkpt><trkpt lat="43.0498193" lon="11.5158032"><ele>395.5</ele><time>2026-04-26T11:30:03.008Z</time></trkpt><trkpt lat="43.0498469" lon="11.5159856"><ele>393.75</ele><time>2026-04-26T11:30:04.031Z</time></trkpt><trkpt lat="43.0498447" lon="11.5161724"><ele>392.0</ele><time>2026-04-26T11:30:05.031Z</time></trkpt><trkpt lat="43.0498298" lon="11.5163582"><ele>390.0</ele><time>2026-04-26T11:30:06.017Z</time></trkpt><trkpt lat="43.0498139" lon="11.5165441"><ele>388.0</ele><time>2026-04-26T11:30:07.03Z</time></trkpt><trkpt lat="43.0498018" lon="11.5167352"><ele>386.0</ele><time>2026-04-26T11:30:08.014Z</time></trkpt><trkpt lat="43.0497922" lon="11.5169409"><ele>384.0</ele><time>2026-04-26T11:30:09.034Z</time></trkpt><trkpt lat="43.0497826" lon="11.5171525"><ele>382.0</ele><time>2026-04-26T11:30:10.055Z</time></trkpt><trkpt lat="43.0497823" lon="11.5173684"><ele>380.0</ele><time>2026-04-26T11:30:11.025Z</time></trkpt><trkpt lat="43.0498048" lon="11.5176003"><ele>378.0</ele><time>2026-04-26T11:30:12.01Z</time></trkpt><trkpt lat="43.0498465" lon="11.5178433"><ele>376.6666666666667</ele><time>2026-04-26T11:30:13.02Z</time></trkpt><trkpt lat="43.049892" lon="11.5180802"><ele>375.33333333333337</ele><time>2026-04-26T11:30:14.002Z</time></trkpt><trkpt lat="43.0499385" lon="11.5183096"><ele>374.0</ele><time>2026-04-26T11:30:15.017Z</time></trkpt><trkpt lat="43.049988" lon="11.518524"><ele>374.0</ele><time>2026-04-26T11:30:16Z</time></trkpt><trkpt lat="43.0500459" lon="11.5187232"><ele>374.0</ele><time>2026-04-26T11:30:17.01Z</time></trkpt><trkpt lat="43.0501158" lon="11.5188969"><ele>374.0</ele><time>2026-04-26T11:30:18.019Z</time></trkpt><trkpt lat="43.0502099" lon="11.5190407"><ele>374.0</ele><time>2026-04-26T11:30:19.022Z</time></trkpt><trkpt lat="43.0503386" lon="11.5191573"><ele>371.33333333333337</ele><time>2026-04-26T11:30:20.008Z</time></trkpt><trkpt lat="43.0504906" lon="11.5192607"><ele>368.6666666666667</ele><time>2026-04-26T11:30:21.004Z</time></trkpt><trkpt lat="43.0506413" lon="11.5193577"><ele>366.0</ele><time>2026-04-26T11:30:21.999Z</time></trkpt><trkpt lat="43.0507856" lon="11.5194546"><ele>367.0</ele><time>2026-04-26T11:30:23.001Z</time></trkpt><trkpt lat="43.0509248" lon="11.5195499"><ele>368.0</ele><time>2026-04-26T11:30:23.997Z</time></trkpt><trkpt lat="43.0510606" lon="11.5196428"><ele>369.0</ele><time>2026-04-26T11:30:24.992Z</time></trkpt><trkpt lat="43.0511967" lon="11.5197331"><ele>366.0</ele><time>2026-04-26T11:30:25.995Z</time></trkpt><trkpt lat="43.05134" lon="11.519819"><ele>363.0</ele><time>2026-04-26T11:30:27Z</time></trkpt><trkpt lat="43.0514964" lon="11.5198947"><ele>360.0</ele><time>2026-04-26T11:30:28.002Z</time></trkpt><trkpt lat="43.0516717" lon="11.5199599"><ele>358.0</ele><time>2026-04-26T11:30:29.019Z</time></trkpt><trkpt lat="43.0518534" lon="11.5200198"><ele>356.0</ele><time>2026-04-26T11:30:30.021Z</time></trkpt><trkpt lat="43.0520281" lon="11.5200757"><ele>354.0</ele><time>2026-04-26T11:30:31.019Z</time></trkpt><trkpt lat="43.0521982" lon="11.5201304"><ele>354.0</ele><time>2026-04-26T11:30:32.007Z</time></trkpt><trkpt lat="43.0523707" lon="11.5201864"><ele>354.0</ele><time>2026-04-26T11:30:33.013Z</time></trkpt><trkpt lat="43.0525443" lon="11.5202426"><ele>354.0</ele><time>2026-04-26T11:30:34.045Z</time></trkpt><trkpt lat="43.0527106" lon="11.5202965"><ele>353.3333333333333</ele><time>2026-04-26T11:30:35.047Z</time></trkpt><trkpt lat="43.0528712" lon="11.5203493"><ele>352.66666666666663</ele><time>2026-04-26T11:30:36.015Z</time></trkpt><trkpt lat="43.0530365" lon="11.5204047"><ele>352.0</ele><time>2026-04-26T11:30:37.028Z</time></trkpt><trkpt lat="43.053209" lon="11.5204629"><ele>347.3333333333333</ele><time>2026-04-26T11:30:38.017Z</time></trkpt><trkpt lat="43.053388" lon="11.520525"><ele>342.6666666666667</ele><time>2026-04-26T11:30:39.021Z</time></trkpt><trkpt lat="43.0535649" lon="11.5205839"><ele>338.0</ele><time>2026-04-26T11:30:40.029Z</time></trkpt><trkpt lat="43.0537322" lon="11.5206403"><ele>338.0</ele><time>2026-04-26T11:30:41.019Z</time></trkpt><trkpt lat="43.0538873" lon="11.520693"><ele>338.0</ele><time>2026-04-26T11:30:42.02Z</time></trkpt><trkpt lat="43.0540289" lon="11.520737"><ele>338.0</ele><time>2026-04-26T11:30:43.023Z</time></trkpt><trkpt lat="43.0541654" lon="11.52076"><ele>338.0</ele><time>2026-04-26T11:30:44.012Z</time></trkpt><trkpt lat="43.0543081" lon="11.5207453"><ele>336.6666666666667</ele><time>2026-04-26T11:30:45.014Z</time></trkpt><trkpt lat="43.0544596" lon="11.5206891"><ele>335.3333333333333</ele><time>2026-04-26T11:30:46Z</time></trkpt><trkpt lat="43.0546148" lon="11.5206112"><ele>334.0</ele><time>2026-04-26T11:30:47.004Z</time></trkpt><trkpt lat="43.054765" lon="11.5205318"><ele>334.0</ele><time>2026-04-26T11:30:48.01Z</time></trkpt><trkpt lat="43.0549097" lon="11.5204651"><ele>334.0</ele><time>2026-04-26T11:30:48.982Z</time></trkpt><trkpt lat="43.0550602" lon="11.5204192"><ele>334.0</ele><time>2026-04-26T11:30:50.003Z</time></trkpt><trkpt lat="43.0552166" lon="11.5203998"><ele>331.66666666666663</ele><time>2026-04-26T11:30:51.017Z</time></trkpt><trkpt lat="43.0553777" lon="11.5204015"><ele>329.3333333333333</ele><time>2026-04-26T11:30:52.008Z</time></trkpt><trkpt lat="43.0555476" lon="11.5204123"><ele>327.0</ele><time>2026-04-26T11:30:53.027Z</time></trkpt><trkpt lat="43.0557168" lon="11.5204225"><ele>325.3333333333333</ele><time>2026-04-26T11:30:54.012Z</time></trkpt><trkpt lat="43.0558813" lon="11.5204295"><ele>323.66666666666663</ele><time>2026-04-26T11:30:55.03Z</time></trkpt><trkpt lat="43.0560353" lon="11.5204386"><ele>322.0</ele><time>2026-04-26T11:30:56.012Z</time></trkpt><trkpt lat="43.0561851" lon="11.5204542"><ele>322.0</ele><time>2026-04-26T11:30:57.026Z</time></trkpt><trkpt lat="43.0563266" lon="11.5204819"><ele>322.0</ele><time>2026-04-26T11:30:58.012Z</time></trkpt><trkpt lat="43.0564656" lon="11.5205419"><ele>322.0</ele><time>2026-04-26T11:30:59.03Z</time></trkpt><trkpt lat="43.0565987" lon="11.520641"><ele>322.0</ele><time>2026-04-26T11:31:00.021Z</time></trkpt><trkpt lat="43.0567175" lon="11.5207805"><ele>321.3333333333333</ele><time>2026-04-26T11:31:01.052Z</time></trkpt><trkpt lat="43.0568109" lon="11.5209527"><ele>320.6666666666667</ele><time>2026-04-26T11:31:02.038Z</time></trkpt><trkpt lat="43.0568857" lon="11.5211501"><ele>320.0</ele><time>2026-04-26T11:31:03.043Z</time></trkpt><trkpt lat="43.0569397" lon="11.5213472"><ele>319.0</ele><time>2026-04-26T11:31:04.011Z</time></trkpt><trkpt lat="43.0569792" lon="11.5215314"><ele>318.0</ele><time>2026-04-26T11:31:05.027Z</time></trkpt><trkpt lat="43.05701" lon="11.5216864"><ele>317.0</ele><time>2026-04-26T11:31:06.021Z</time></trkpt><trkpt lat="43.0570384" lon="11.5218268"><ele>316.0</ele><time>2026-04-26T11:31:07.022Z</time></trkpt><trkpt lat="43.0570649" lon="11.5219625"><ele>315.40000000000003</ele><time>2026-04-26T11:31:08.025Z</time></trkpt><trkpt lat="43.0570899" lon="11.522094"><ele>314.8</ele><time>2026-04-26T11:31:09.023Z</time></trkpt><trkpt lat="43.0571135" lon="11.5222222"><ele>314.20000000000005</ele><time>2026-04-26T11:31:10.008Z</time></trkpt><trkpt lat="43.0571397" lon="11.5223565"><ele>313.6</ele><time>2026-04-26T11:31:11.021Z</time></trkpt><trkpt lat="43.0571698" lon="11.5225017"><ele>313.0</ele><time>2026-04-26T11:31:12.001Z</time></trkpt><trkpt lat="43.0572033" lon="11.5226576"><ele>313.0</ele><time>2026-04-26T11:31:13.011Z</time></trkpt><trkpt lat="43.057238" lon="11.52281"><ele>313.0</ele><time>2026-04-26T11:31:14.002Z</time></trkpt><trkpt lat="43.0572808" lon="11.5229514"><ele>313.0</ele><time>2026-04-26T11:31:15.012Z</time></trkpt><trkpt lat="43.0573393" lon="11.523074"><ele>313.0</ele><time>2026-04-26T11:31:16.008Z</time></trkpt><trkpt lat="43.0574158" lon="11.5231753"><ele>313.0</ele><time>2026-04-26T11:31:17.011Z</time></trkpt><trkpt lat="43.0575088" lon="11.5232484"><ele>312.75</ele><time>2026-04-26T11:31:18.021Z</time></trkpt><trkpt lat="43.0576152" lon="11.5232855"><ele>312.5</ele><time>2026-04-26T11:31:19.028Z</time></trkpt><trkpt lat="43.0577277" lon="11.5232861"><ele>312.25</ele><time>2026-04-26T11:31:20.015Z</time></trkpt><trkpt lat="43.0578379" lon="11.5232492"><ele>312.0</ele><time>2026-04-26T11:31:21.02Z</time></trkpt><trkpt lat="43.0579393" lon="11.5231778"><ele>312.0</ele><time>2026-04-26T11:31:22.01Z</time></trkpt><trkpt lat="43.0580261" lon="11.5230765"><ele>312.0</ele><time>2026-04-26T11:31:23.021Z</time></trkpt><trkpt lat="43.0580982" lon="11.5229587"><ele>312.0</ele><time>2026-04-26T11:31:24.013Z</time></trkpt><trkpt lat="43.0581652" lon="11.5228391"><ele>312.0</ele><time>2026-04-26T11:31:25.03Z</time></trkpt><trkpt lat="43.0582308" lon="11.5227246"><ele>312.0</ele><time>2026-04-26T11:31:26.021Z</time></trkpt><trkpt lat="43.0582989" lon="11.5226065"><ele>310.5</ele><time>2026-04-26T11:31:27.035Z</time></trkpt><trkpt lat="43.0583707" lon="11.5224788"><ele>309.0</ele><time>2026-04-26T11:31:28.02Z</time></trkpt><trkpt lat="43.0584448" lon="11.5223456"><ele>307.5</ele><time>2026-04-26T11:31:29.031Z</time></trkpt><trkpt lat="43.0585142" lon="11.52222"><ele>306.0</ele><time>2026-04-26T11:31:30.004Z</time></trkpt><trkpt lat="43.0585811" lon="11.5220979"><ele>307.25</ele><time>2026-04-26T11:31:31.047Z</time></trkpt><trkpt lat="43.0586443" lon="11.5219811"><ele>308.5</ele><time>2026-04-26T11:31:32.025Z</time></trkpt><trkpt lat="43.0587116" lon="11.5218564"><ele>309.75</ele><time>2026-04-26T11:31:33.032Z</time></trkpt><trkpt lat="43.0587828" lon="11.5217238"><ele>311.0</ele><time>2026-04-26T11:31:34.011Z</time></trkpt><trkpt lat="43.0588575" lon="11.5215887"><ele>311.0</ele><time>2026-04-26T11:31:35.02Z</time></trkpt><trkpt lat="43.0589364" lon="11.5214684"><ele>311.0</ele><time>2026-04-26T11:31:36.005Z</time></trkpt><trkpt lat="43.0590312" lon="11.5213714"><ele>311.0</ele><time>2026-04-26T11:31:37.013Z</time></trkpt><trkpt lat="43.0591469" lon="11.5213068"><ele>311.0</ele><time>2026-04-26T11:31:38.002Z</time></trkpt><trkpt lat="43.0592807" lon="11.521279"><ele>307.75</ele><time>2026-04-26T11:31:39.009Z</time></trkpt><trkpt lat="43.0594169" lon="11.5212976"><ele>304.5</ele><time>2026-04-26T11:31:40.011Z</time></trkpt><trkpt lat="43.0595502" lon="11.5213656"><ele>301.25</ele><time>2026-04-26T11:31:41.032Z</time></trkpt><trkpt lat="43.0596868" lon="11.5214679"><ele>298.0</ele><time>2026-04-26T11:31:42.019Z</time></trkpt><trkpt lat="43.0598296" lon="11.5215923"><ele>296.0</ele><time>2026-04-26T11:31:43.06Z</time></trkpt><trkpt lat="43.0599704" lon="11.5217248"><ele>294.0</ele><time>2026-04-26T11:31:44.017Z</time></trkpt><trkpt lat="43.0601275" lon="11.5218715"><ele>292.0</ele><time>2026-04-26T11:31:45.036Z</time></trkpt><trkpt lat="43.0602869" lon="11.5220179"><ele>290.3333333333333</ele><time>2026-04-26T11:31:46.023Z</time></trkpt><trkpt lat="43.0604364" lon="11.5221611"><ele>288.6666666666667</ele><time>2026-04-26T11:31:47.029Z</time></trkpt><trkpt lat="43.060575" lon="11.5222989"><ele>287.0</ele><time>2026-04-26T11:31:48.02Z</time></trkpt><trkpt lat="43.0607072" lon="11.522432"><ele>287.33333333333337</ele><time>2026-04-26T11:31:49.032Z</time></trkpt><trkpt lat="43.0608332" lon="11.5225583"><ele>287.6666666666667</ele><time>2026-04-26T11:31:50.02Z</time></trkpt><trkpt lat="43.0609576" lon="11.5226925"><ele>288.0</ele><time>2026-04-26T11:31:51.037Z</time></trkpt><trkpt lat="43.0610761" lon="11.5228476"><ele>286.0</ele><time>2026-04-26T11:31:52.023Z</time></trkpt><trkpt lat="43.0611892" lon="11.52303"><ele>284.0</ele><time>2026-04-26T11:31:53.031Z</time></trkpt><trkpt lat="43.0612947" lon="11.5232271"><ele>282.0</ele><time>2026-04-26T11:31:54.022Z</time></trkpt><trkpt lat="43.0614035" lon="11.5234355"><ele>282.0</ele><time>2026-04-26T11:31:55.036Z</time></trkpt><trkpt lat="43.0615238" lon="11.523656"><ele>282.0</ele><time>2026-04-26T11:31:56.022Z</time></trkpt><trkpt lat="43.0616508" lon="11.5238923"><ele>282.0</ele><time>2026-04-26T11:31:57.03Z</time></trkpt><trkpt lat="43.0617734" lon="11.5241221"><ele>282.3333333333333</ele><time>2026-04-26T11:31:58.015Z</time></trkpt><trkpt lat="43.0618931" lon="11.5243417"><ele>282.66666666666663</ele><time>2026-04-26T11:31:59.025Z</time></trkpt><trkpt lat="43.0620005" lon="11.5245504"><ele>283.0</ele><time>2026-04-26T11:32:00.008Z</time></trkpt><trkpt lat="43.0620892" lon="11.5247673"><ele>280.3333333333333</ele><time>2026-04-26T11:32:01.026Z</time></trkpt><trkpt lat="43.0621542" lon="11.5250047"><ele>277.6666666666667</ele><time>2026-04-26T11:32:02.007Z</time></trkpt><trkpt lat="43.062209" lon="11.5252753"><ele>275.0</ele><time>2026-04-26T11:32:03.038Z</time></trkpt><trkpt lat="43.062259" lon="11.5255556"><ele>273.6666666666667</ele><time>2026-04-26T11:32:04.032Z</time></trkpt><trkpt lat="43.0623111" lon="11.5258341"><ele>272.3333333333333</ele><time>2026-04-26T11:32:05.038Z</time></trkpt><trkpt lat="43.0623685" lon="11.5260915"><ele>271.0</ele><time>2026-04-26T11:32:06.017Z</time></trkpt><trkpt lat="43.0624443" lon="11.5263307"><ele>273.3333333333333</ele><time>2026-04-26T11:32:07.04Z</time></trkpt><trkpt lat="43.0625473" lon="11.5265475"><ele>275.6666666666667</ele><time>2026-04-26T11:32:08.01Z</time></trkpt><trkpt lat="43.0626765" lon="11.5267681"><ele>278.0</ele><time>2026-04-26T11:32:09.029Z</time></trkpt><trkpt lat="43.0628155" lon="11.5269922"><ele>275.6666666666667</ele><time>2026-04-26T11:32:10.031Z</time></trkpt><trkpt lat="43.062956" lon="11.5272241"><ele>273.3333333333333</ele><time>2026-04-26T11:32:11.03Z</time></trkpt><trkpt lat="43.0630915" lon="11.5274523"><ele>271.0</ele><time>2026-04-26T11:32:12.033Z</time></trkpt><trkpt lat="43.0632183" lon="11.5276715"><ele>271.0</ele><time>2026-04-26T11:32:13.038Z</time></trkpt><trkpt lat="43.0633368" lon="11.5278823"><ele>271.0</ele><time>2026-04-26T11:32:14.027Z</time></trkpt><trkpt lat="43.0634417" lon="11.5280996"><ele>271.0</ele><time>2026-04-26T11:32:15.03Z</time></trkpt><trkpt lat="43.0635213" lon="11.5283383"><ele>271.0</ele><time>2026-04-26T11:32:16.014Z</time></trkpt><trkpt lat="43.0635702" lon="11.5286045"><ele>271.0</ele><time>2026-04-26T11:32:17.029Z</time></trkpt><trkpt lat="43.0635953" lon="11.5288741"><ele>271.0</ele><time>2026-04-26T11:32:18.033Z</time></trkpt><trkpt lat="43.0636184" lon="11.5291331"><ele>270.0</ele><time>2026-04-26T11:32:19.043Z</time></trkpt><trkpt lat="43.0636557" lon="11.5293726"><ele>269.0</ele><time>2026-04-26T11:32:20.014Z</time></trkpt><trkpt lat="43.0637179" lon="11.529606"><ele>268.0</ele><time>2026-04-26T11:32:21.017Z</time></trkpt><trkpt lat="43.0638066" lon="11.52984"><ele>266.66666666666663</ele><time>2026-04-26T11:32:22.013Z</time></trkpt><trkpt lat="43.0639117" lon="11.530077"><ele>265.3333333333333</ele><time>2026-04-26T11:32:23.018Z</time></trkpt><trkpt lat="43.0640219" lon="11.530306"><ele>264.0</ele><time>2026-04-26T11:32:24.01Z</time></trkpt><trkpt lat="43.064135" lon="11.5305212"><ele>264.0</ele><time>2026-04-26T11:32:25.031Z</time></trkpt><trkpt lat="43.0642574" lon="11.5307075"><ele>264.0</ele><time>2026-04-26T11:32:26.014Z</time></trkpt><trkpt lat="43.0644049" lon="11.5308636"><ele>264.0</ele><time>2026-04-26T11:32:27.013Z</time></trkpt><trkpt lat="43.0645731" lon="11.5309943"><ele>264.0</ele><time>2026-04-26T11:32:28.012Z</time></trkpt><trkpt lat="43.0647453" lon="11.5311146"><ele>264.0</ele><time>2026-04-26T11:32:29.022Z</time></trkpt><trkpt lat="43.0648978" lon="11.5312402"><ele>264.0</ele><time>2026-04-26T11:32:30.022Z</time></trkpt><trkpt lat="43.0650197" lon="11.5313924"><ele>262.6666666666667</ele><time>2026-04-26T11:32:31.033Z</time></trkpt><trkpt lat="43.0651058" lon="11.531581"><ele>261.33333333333337</ele><time>2026-04-26T11:32:32.039Z</time></trkpt><trkpt lat="43.0651541" lon="11.5318046"><ele>260.0</ele><time>2026-04-26T11:32:33.044Z</time></trkpt><trkpt lat="43.0651625" lon="11.5320511"><ele>258.6666666666667</ele><time>2026-04-26T11:32:34.038Z</time></trkpt><trkpt lat="43.0651368" lon="11.5323072"><ele>257.3333333333333</ele><time>2026-04-26T11:32:35.035Z</time></trkpt><trkpt lat="43.065099" lon="11.5325623"><ele>256.0</ele><time>2026-04-26T11:32:36.031Z</time></trkpt><trkpt lat="43.0650781" lon="11.5328209"><ele>255.33333333333331</ele><time>2026-04-26T11:32:37.03Z</time></trkpt><trkpt lat="43.0650938" lon="11.5330839"><ele>254.66666666666669</ele><time>2026-04-26T11:32:38.032Z</time></trkpt><trkpt lat="43.0651442" lon="11.5333527"><ele>254.0</ele><time>2026-04-26T11:32:39.037Z</time></trkpt><trkpt lat="43.0652164" lon="11.5336272"><ele>252.0</ele><time>2026-04-26T11:32:40.024Z</time></trkpt><trkpt lat="43.0652974" lon="11.5339124"><ele>250.0</ele><time>2026-04-26T11:32:41.029Z</time></trkpt><trkpt lat="43.0653825" lon="11.5342064"><ele>250.0</ele><time>2026-04-26T11:32:42.017Z</time></trkpt><trkpt lat="43.0654717" lon="11.5345086"><ele>250.0</ele><time>2026-04-26T11:32:43.034Z</time></trkpt><trkpt lat="43.0655593" lon="11.5348072"><ele>248.0</ele><time>2026-04-26T11:32:44.024Z</time></trkpt><trkpt lat="43.0656496" lon="11.5351181"><ele>246.0</ele><time>2026-04-26T11:32:45.039Z</time></trkpt><trkpt lat="43.0657397" lon="11.5354339"><ele>247.0</ele><time>2026-04-26T11:32:46.023Z</time></trkpt><trkpt lat="43.0658306" lon="11.535756"><ele>248.0</ele><time>2026-04-26T11:32:47.022Z</time></trkpt><trkpt lat="43.0659192" lon="11.5360781"><ele>246.0</ele><time>2026-04-26T11:32:48.015Z</time></trkpt><trkpt lat="43.066009" lon="11.5364012"><ele>244.0</ele><time>2026-04-26T11:32:49.032Z</time></trkpt><trkpt lat="43.0660969" lon="11.5367171"><ele>244.0</ele><time>2026-04-26T11:32:50.006Z</time></trkpt><trkpt lat="43.066187" lon="11.5370385"><ele>244.0</ele><time>2026-04-26T11:32:51.012Z</time></trkpt><trkpt lat="43.0662782" lon="11.53736"><ele>243.5</ele><time>2026-04-26T11:32:52.01Z</time></trkpt><trkpt lat="43.0663729" lon="11.5376855"><ele>243.0</ele><time>2026-04-26T11:32:53.018Z</time></trkpt><trkpt lat="43.0664667" lon="11.5380085"><ele>243.0</ele><time>2026-04-26T11:32:54.022Z</time></trkpt><trkpt lat="43.0665569" lon="11.5383192"><ele>243.0</ele><time>2026-04-26T11:32:55.031Z</time></trkpt><trkpt lat="43.0666412" lon="11.5386099"><ele>242.33333333333331</ele><time>2026-04-26T11:32:56.02Z</time></trkpt><trkpt lat="43.0667208" lon="11.5388875"><ele>241.66666666666666</ele><time>2026-04-26T11:32:57.031Z</time></trkpt><trkpt lat="43.0667899" lon="11.5391525"><ele>241.0</ele><time>2026-04-26T11:32:58.023Z</time></trkpt><trkpt lat="43.0668357" lon="11.5394235"><ele>241.33333333333331</ele><time>2026-04-26T11:32:59.027Z</time></trkpt><trkpt lat="43.0668496" lon="11.5397066"><ele>241.66666666666669</ele><time>2026-04-26T11:33:00.017Z</time></trkpt><trkpt lat="43.0668341" lon="11.5400041"><ele>242.0</ele><time>2026-04-26T11:33:01.031Z</time></trkpt><trkpt lat="43.0667918" lon="11.5403034"><ele>242.5</ele><time>2026-04-26T11:33:02.04Z</time></trkpt><trkpt lat="43.0667225" lon="11.5406011"><ele>243.0</ele><time>2026-04-26T11:33:03.03Z</time></trkpt><trkpt lat="43.0666396" lon="11.5409013"><ele>241.5</ele><time>2026-04-26T11:33:04.008Z</time></trkpt><trkpt lat="43.0665532" lon="11.5412094"><ele>240.0</ele><time>2026-04-26T11:33:05.003Z</time></trkpt><trkpt lat="43.0664678" lon="11.5415241"><ele>239.5</ele><time>2026-04-26T11:33:06.014Z</time></trkpt><trkpt lat="43.0663849" lon="11.5418407"><ele>239.0</ele><time>2026-04-26T11:33:07.022Z</time></trkpt><trkpt lat="43.0663037" lon="11.5421509"><ele>239.0</ele><time>2026-04-26T11:33:08.001Z</time></trkpt><trkpt lat="43.066223" lon="11.5424572"><ele>239.0</ele><time>2026-04-26T11:33:09.007Z</time></trkpt><trkpt lat="43.0661452" lon="11.5427503"><ele>239.0</ele><time>2026-04-26T11:33:10.031Z</time></trkpt><trkpt lat="43.0660701" lon="11.5430214"><ele>239.0</ele><time>2026-04-26T11:33:11.013Z</time></trkpt><trkpt lat="43.0659973" lon="11.5432816"><ele>239.0</ele><time>2026-04-26T11:33:12.009Z</time></trkpt><trkpt lat="43.0659308" lon="11.5435361"><ele>239.33333333333334</ele><time>2026-04-26T11:33:13.014Z</time></trkpt><trkpt lat="43.0658874" lon="11.5437977"><ele>239.66666666666669</ele><time>2026-04-26T11:33:14.004Z</time></trkpt><trkpt lat="43.065875" lon="11.5440753"><ele>240.0</ele><time>2026-04-26T11:33:15.01Z</time></trkpt><trkpt lat="43.0658891" lon="11.5443644"><ele>240.33333333333331</ele><time>2026-04-26T11:33:16.011Z</time></trkpt><trkpt lat="43.0659188" lon="11.5446626"><ele>240.66666666666666</ele><time>2026-04-26T11:33:17.004Z</time></trkpt><trkpt lat="43.065953" lon="11.5449713"><ele>241.0</ele><time>2026-04-26T11:33:18.018Z</time></trkpt><trkpt lat="43.0659863" lon="11.5452791"><ele>241.0</ele><time>2026-04-26T11:33:19.034Z</time></trkpt><trkpt lat="43.066015" lon="11.5455736"><ele>241.0</ele><time>2026-04-26T11:33:20.018Z</time></trkpt><trkpt lat="43.0660433" lon="11.5458558"><ele>241.0</ele><time>2026-04-26T11:33:21.032Z</time></trkpt><trkpt lat="43.0660713" lon="11.546118"><ele>240.66666666666666</ele><time>2026-04-26T11:33:22.006Z</time></trkpt><trkpt lat="43.0660981" lon="11.5463711"><ele>240.33333333333331</ele><time>2026-04-26T11:33:23.012Z</time></trkpt><trkpt lat="43.0661228" lon="11.5466094"><ele>240.0</ele><time>2026-04-26T11:33:24.013Z</time></trkpt><trkpt lat="43.0661468" lon="11.5468351"><ele>240.0</ele><time>2026-04-26T11:33:25.012Z</time></trkpt><trkpt lat="43.0661726" lon="11.547044"><ele>240.0</ele><time>2026-04-26T11:33:26.018Z</time></trkpt><trkpt lat="43.0662019" lon="11.5472238"><ele>240.0</ele><time>2026-04-26T11:33:27.004Z</time></trkpt><trkpt lat="43.0662354" lon="11.5473773"><ele>240.0</ele><time>2026-04-26T11:33:28.013Z</time></trkpt><trkpt lat="43.0662764" lon="11.5475194"><ele>239.75</ele><time>2026-04-26T11:33:29.019Z</time></trkpt><trkpt lat="43.0663289" lon="11.5476652"><ele>239.5</ele><time>2026-04-26T11:33:30.002Z</time></trkpt><trkpt lat="43.0663995" lon="11.5478189"><ele>239.25</ele><time>2026-04-26T11:33:31.022Z</time></trkpt><trkpt lat="43.0664909" lon="11.5479656"><ele>239.0</ele><time>2026-04-26T11:33:32.014Z</time></trkpt><trkpt lat="43.0666066" lon="11.5480909"><ele>239.66666666666669</ele><time>2026-04-26T11:33:33.048Z</time></trkpt><trkpt lat="43.0667416" lon="11.5481779"><ele>240.33333333333331</ele><time>2026-04-26T11:33:34.013Z</time></trkpt><trkpt lat="43.066896" lon="11.5482274"><ele>241.0</ele><time>2026-04-26T11:33:35.012Z</time></trkpt><trkpt lat="43.0670607" lon="11.5482353"><ele>241.0</ele><time>2026-04-26T11:33:36.003Z</time></trkpt><trkpt lat="43.067239" lon="11.5482101"><ele>241.0</ele><time>2026-04-26T11:33:37.018Z</time></trkpt><trkpt lat="43.0674282" lon="11.5481665"><ele>241.0</ele><time>2026-04-26T11:33:38.019Z</time></trkpt><trkpt lat="43.0676294" lon="11.5481203"><ele>240.0</ele><time>2026-04-26T11:33:39.009Z</time></trkpt><trkpt lat="43.0678395" lon="11.5480729"><ele>239.0</ele><time>2026-04-26T11:33:40.012Z</time></trkpt><trkpt lat="43.0680478" lon="11.5480321"><ele>238.0</ele><time>2026-04-26T11:33:41.019Z</time></trkpt><trkpt lat="43.0682441" lon="11.5479983"><ele>238.33333333333331</ele><time>2026-04-26T11:33:42.032Z</time></trkpt><trkpt lat="43.0684214" lon="11.5479675"><ele>238.66666666666669</ele><time>2026-04-26T11:33:43.022Z</time></trkpt><trkpt lat="43.0685789" lon="11.5479261"><ele>239.0</ele><time>2026-04-26T11:33:44.033Z</time></trkpt><trkpt lat="43.068714" lon="11.5478561"><ele>240.0</ele><time>2026-04-26T11:33:45.044Z</time></trkpt><trkpt lat="43.0688309" lon="11.5477472"><ele>241.0</ele><time>2026-04-26T11:33:46.02Z</time></trkpt><trkpt lat="43.0689422" lon="11.5476022"><ele>242.0</ele><time>2026-04-26T11:33:47.029Z</time></trkpt><trkpt lat="43.0690547" lon="11.5474404"><ele>242.0</ele><time>2026-04-26T11:33:48.035Z</time></trkpt><trkpt lat="43.0691768" lon="11.5472806"><ele>242.0</ele><time>2026-04-26T11:33:49.046Z</time></trkpt><trkpt lat="43.0693051" lon="11.5471427"><ele>242.0</ele><time>2026-04-26T11:33:50.029Z</time></trkpt><trkpt lat="43.069438" lon="11.5470359"><ele>243.66666666666669</ele><time>2026-04-26T11:33:51.039Z</time></trkpt><trkpt lat="43.069578" lon="11.5469654"><ele>245.33333333333331</ele><time>2026-04-26T11:33:52.021Z</time></trkpt><trkpt lat="43.069735" lon="11.5469268"><ele>247.0</ele><time>2026-04-26T11:33:53.03Z</time></trkpt><trkpt lat="43.0699036" lon="11.5469107"><ele>245.66666666666666</ele><time>2026-04-26T11:33:54.035Z</time></trkpt><trkpt lat="43.0700825" lon="11.5469021"><ele>244.33333333333331</ele><time>2026-04-26T11:33:55.04Z</time></trkpt><trkpt lat="43.0702695" lon="11.5468974"><ele>243.0</ele><time>2026-04-26T11:33:56.014Z</time></trkpt><trkpt lat="43.0704654" lon="11.5469089"><ele>243.0</ele><time>2026-04-26T11:33:57.024Z</time></trkpt><trkpt lat="43.0706648" lon="11.5469458"><ele>243.0</ele><time>2026-04-26T11:33:58.034Z</time></trkpt><trkpt lat="43.0708652" lon="11.5470001"><ele>243.0</ele><time>2026-04-26T11:33:59.039Z</time></trkpt><trkpt lat="43.071062" lon="11.5470583"><ele>242.66666666666669</ele><time>2026-04-26T11:34:00.02Z</time></trkpt><trkpt lat="43.0712652" lon="11.5471168"><ele>242.33333333333334</ele><time>2026-04-26T11:34:01.029Z</time></trkpt><trkpt lat="43.0714681" lon="11.5471758"><ele>242.0</ele><time>2026-04-26T11:34:02.014Z</time></trkpt><trkpt lat="43.071672" lon="11.5472394"><ele>241.66666666666669</ele><time>2026-04-26T11:34:03.021Z</time></trkpt><trkpt lat="43.071874" lon="11.5473043"><ele>241.33333333333331</ele><time>2026-04-26T11:34:04.017Z</time></trkpt><trkpt lat="43.0720772" lon="11.5473654"><ele>241.0</ele><time>2026-04-26T11:34:05.011Z</time></trkpt><trkpt lat="43.072282" lon="11.5474171"><ele>242.0</ele><time>2026-04-26T11:34:06.015Z</time></trkpt><trkpt lat="43.0724872" lon="11.5474609"><ele>243.0</ele><time>2026-04-26T11:34:07.035Z</time></trkpt><trkpt lat="43.0726884" lon="11.5474935"><ele>244.0</ele><time>2026-04-26T11:34:08.017Z</time></trkpt><trkpt lat="43.0728922" lon="11.5475159"><ele>244.0</ele><time>2026-04-26T11:34:09.034Z</time></trkpt><trkpt lat="43.0730906" lon="11.5475256"><ele>244.0</ele><time>2026-04-26T11:34:10.021Z</time></trkpt><trkpt lat="43.0732809" lon="11.5475277"><ele>244.0</ele><time>2026-04-26T11:34:11.023Z</time></trkpt><trkpt lat="43.0734578" lon="11.5475241"><ele>245.33333333333331</ele><time>2026-04-26T11:34:12.015Z</time></trkpt><trkpt lat="43.0736297" lon="11.5475098"><ele>246.66666666666669</ele><time>2026-04-26T11:34:13.027Z</time></trkpt><trkpt lat="43.0738037" lon="11.5474809"><ele>248.0</ele><time>2026-04-26T11:34:14.03Z</time></trkpt><trkpt lat="43.0739842" lon="11.5474384"><ele>248.33333333333334</ele><time>2026-04-26T11:34:15.011Z</time></trkpt><trkpt lat="43.0741751" lon="11.5473883"><ele>248.66666666666669</ele><time>2026-04-26T11:34:16.02Z</time></trkpt><trkpt lat="43.0743728" lon="11.547338"><ele>249.0</ele><time>2026-04-26T11:34:17.014Z</time></trkpt><trkpt lat="43.0745778" lon="11.5472875"><ele>249.0</ele><time>2026-04-26T11:34:18.018Z</time></trkpt><trkpt lat="43.0747874" lon="11.5472383"><ele>249.0</ele><time>2026-04-26T11:34:19.034Z</time></trkpt><trkpt lat="43.0749961" lon="11.5471884"><ele>249.0</ele><time>2026-04-26T11:34:20.016Z</time></trkpt><trkpt lat="43.0752082" lon="11.5471368"><ele>249.33333333333331</ele><time>2026-04-26T11:34:21.026Z</time></trkpt><trkpt lat="43.0754178" lon="11.5470839"><ele>249.66666666666666</ele><time>2026-04-26T11:34:22.017Z</time></trkpt><trkpt lat="43.0756287" lon="11.5470313"><ele>250.0</ele><time>2026-04-26T11:34:23.024Z</time></trkpt><trkpt lat="43.075838" lon="11.5469794"><ele>250.0</ele><time>2026-04-26T11:34:24.01Z</time></trkpt><trkpt lat="43.0760493" lon="11.5469279"><ele>250.0</ele><time>2026-04-26T11:34:25.023Z</time></trkpt><trkpt lat="43.0762577" lon="11.5468783"><ele>250.0</ele><time>2026-04-26T11:34:26.01Z</time></trkpt><trkpt lat="43.0764675" lon="11.5468241"><ele>248.66666666666666</ele><time>2026-04-26T11:34:27.017Z</time></trkpt><trkpt lat="43.0766739" lon="11.54677"><ele>247.33333333333331</ele><time>2026-04-26T11:34:28.003Z</time></trkpt><trkpt lat="43.0768794" lon="11.5467168"><ele>246.0</ele><time>2026-04-26T11:34:29.004Z</time></trkpt><trkpt lat="43.0770826" lon="11.5466677"><ele>246.0</ele><time>2026-04-26T11:34:29.994Z</time></trkpt><trkpt lat="43.077286" lon="11.5466261"><ele>246.0</ele><time>2026-04-26T11:34:31.009Z</time></trkpt><trkpt lat="43.0774861" lon="11.5465962"><ele>246.0</ele><time>2026-04-26T11:34:32.018Z</time></trkpt><trkpt lat="43.077683" lon="11.546577"><ele>245.0</ele><time>2026-04-26T11:34:33.035Z</time></trkpt><trkpt lat="43.0778726" lon="11.5465688"><ele>244.0</ele><time>2026-04-26T11:34:34.037Z</time></trkpt><trkpt lat="43.0780516" lon="11.5465694"><ele>243.0</ele><time>2026-04-26T11:34:35.036Z</time></trkpt><trkpt lat="43.078214" lon="11.5465726"><ele>243.0</ele><time>2026-04-26T11:34:36.024Z</time></trkpt><trkpt lat="43.0783625" lon="11.5465828"><ele>243.0</ele><time>2026-04-26T11:34:37.055Z</time></trkpt><trkpt lat="43.0785016" lon="11.5465979"><ele>243.0</ele><time>2026-04-26T11:34:38.023Z</time></trkpt><trkpt lat="43.0786486" lon="11.5466188"><ele>243.0</ele><time>2026-04-26T11:34:39.025Z</time></trkpt><trkpt lat="43.0788023" lon="11.5466484"><ele>243.0</ele><time>2026-04-26T11:34:40.022Z</time></trkpt><trkpt lat="43.0789635" lon="11.546687"><ele>243.0</ele><time>2026-04-26T11:34:41.026Z</time></trkpt><trkpt lat="43.0791299" lon="11.5467361"><ele>243.0</ele><time>2026-04-26T11:34:42.016Z</time></trkpt><trkpt lat="43.0793024" lon="11.5467964"><ele>243.33333333333331</ele><time>2026-04-26T11:34:43.026Z</time></trkpt><trkpt lat="43.0794781" lon="11.5468607"><ele>243.66666666666666</ele><time>2026-04-26T11:34:44.018Z</time></trkpt><trkpt lat="43.0796593" lon="11.5469299"><ele>244.0</ele><time>2026-04-26T11:34:45.045Z</time></trkpt><trkpt lat="43.0798377" lon="11.546998"><ele>244.0</ele><time>2026-04-26T11:34:46.019Z</time></trkpt><trkpt lat="43.0800194" lon="11.5470656"><ele>244.0</ele><time>2026-04-26T11:34:47.029Z</time></trkpt><trkpt lat="43.0801986" lon="11.5471265"><ele>244.0</ele><time>2026-04-26T11:34:48.03Z</time></trkpt><trkpt lat="43.0803766" lon="11.5471804"><ele>244.0</ele><time>2026-04-26T11:34:49.029Z</time></trkpt><trkpt lat="43.0805555" lon="11.5472264"><ele>244.0</ele><time>2026-04-26T11:34:50.013Z</time></trkpt><trkpt lat="43.0811035" lon="11.5473019"><ele>245.66666666666666</ele><time>2026-04-26T11:34:53.009Z</time></trkpt><trkpt lat="43.0812875" lon="11.5473051"><ele>247.33333333333331</ele><time>2026-04-26T11:34:54.001Z</time></trkpt><trkpt lat="43.0814719" lon="11.5472985"><ele>249.0</ele><time>2026-04-26T11:34:55.008Z</time></trkpt><trkpt lat="43.0816544" lon="11.5472795"><ele>249.66666666666669</ele><time>2026-04-26T11:34:56.011Z</time></trkpt><trkpt lat="43.0818375" lon="11.5472489"><ele>250.33333333333334</ele><time>2026-04-26T11:34:57.027Z</time></trkpt><trkpt lat="43.082017" lon="11.5472105"><ele>251.0</ele><time>2026-04-26T11:34:58.011Z</time></trkpt><trkpt lat="43.0821981" lon="11.5471631"><ele>251.0</ele><time>2026-04-26T11:34:59.019Z</time></trkpt><trkpt lat="43.0823775" lon="11.5471061"><ele>251.0</ele><time>2026-04-26T11:35:00.011Z</time></trkpt><trkpt lat="43.0825566" lon="11.5470365"><ele>251.0</ele><time>2026-04-26T11:35:01.019Z</time></trkpt><trkpt lat="43.0827318" lon="11.5469507"><ele>256.0</ele><time>2026-04-26T11:35:02.007Z</time></trkpt><trkpt lat="43.0829084" lon="11.5468505"><ele>261.0</ele><time>2026-04-26T11:35:03.039Z</time></trkpt><trkpt lat="43.0830789" lon="11.5467412"><ele>266.0</ele><time>2026-04-26T11:35:04.031Z</time></trkpt><trkpt lat="43.0832481" lon="11.5466211"><ele>266.6666666666667</ele><time>2026-04-26T11:35:05.037Z</time></trkpt><trkpt lat="43.0834106" lon="11.5464913"><ele>267.3333333333333</ele><time>2026-04-26T11:35:06.018Z</time></trkpt><trkpt lat="43.0835696" lon="11.5463527"><ele>268.0</ele><time>2026-04-26T11:35:07.027Z</time></trkpt><trkpt lat="43.0837222" lon="11.5462108"><ele>268.0</ele><time>2026-04-26T11:35:08.014Z</time></trkpt><trkpt lat="43.0838699" lon="11.5460583"><ele>268.0</ele><time>2026-04-26T11:35:09.021Z</time></trkpt><trkpt lat="43.084012" lon="11.5459001"><ele>268.0</ele><time>2026-04-26T11:35:10.014Z</time></trkpt><trkpt lat="43.0841508" lon="11.5457357"><ele>267.0</ele><time>2026-04-26T11:35:11.019Z</time></trkpt><trkpt lat="43.0842839" lon="11.545565"><ele>266.0</ele><time>2026-04-26T11:35:12.019Z</time></trkpt><trkpt lat="43.0844101" lon="11.5453826"><ele>265.0</ele><time>2026-04-26T11:35:13.025Z</time></trkpt><trkpt lat="43.0845297" lon="11.5451892"><ele>265.0</ele><time>2026-04-26T11:35:14.011Z</time></trkpt><trkpt lat="43.084647" lon="11.5449845"><ele>265.0</ele><time>2026-04-26T11:35:15.023Z</time></trkpt><trkpt lat="43.0847615" lon="11.5447815"><ele>265.0</ele><time>2026-04-26T11:35:15.999Z</time></trkpt><trkpt lat="43.0848729" lon="11.5445829"><ele>266.66666666666663</ele><time>2026-04-26T11:35:16.988Z</time></trkpt><trkpt lat="43.0849802" lon="11.5443918"><ele>268.3333333333333</ele><time>2026-04-26T11:35:17.976Z</time></trkpt><trkpt lat="43.0850833" lon="11.5442062"><ele>270.0</ele><time>2026-04-26T11:35:18.971Z</time></trkpt><trkpt lat="43.0851853" lon="11.5440228"><ele>270.0</ele><time>2026-04-26T11:35:19.946Z</time></trkpt><trkpt lat="43.0852898" lon="11.5438348"><ele>270.0</ele><time>2026-04-26T11:35:20.952Z</time></trkpt><trkpt lat="43.0853927" lon="11.5436496"><ele>270.0</ele><time>2026-04-26T11:35:21.944Z</time></trkpt><trkpt lat="43.0854969" lon="11.5434619"><ele>269.6666666666667</ele><time>2026-04-26T11:35:22.954Z</time></trkpt><trkpt lat="43.0856008" lon="11.5432748"><ele>269.33333333333337</ele><time>2026-04-26T11:35:23.961Z</time></trkpt><trkpt lat="43.0857026" lon="11.5430915"><ele>269.0</ele><time>2026-04-26T11:35:24.95Z</time></trkpt><trkpt lat="43.0858057" lon="11.5429058"><ele>264.6666666666667</ele><time>2026-04-26T11:35:25.953Z</time></trkpt><trkpt lat="43.0859087" lon="11.5427202"><ele>260.3333333333333</ele><time>2026-04-26T11:35:26.958Z</time></trkpt><trkpt lat="43.0860115" lon="11.5425349"><ele>256.0</ele><time>2026-04-26T11:35:27.962Z</time></trkpt><trkpt lat="43.0865069" lon="11.5422841"><ele>255.33333333333331</ele><time>2026-04-26T11:35:33.047Z</time></trkpt><trkpt lat="43.0866273" lon="11.5421889"><ele>254.66666666666669</ele><time>2026-04-26T11:35:34.024Z</time></trkpt><trkpt lat="43.0868811" lon="11.5420179"><ele>254.0</ele><time>2026-04-26T11:35:36.027Z</time></trkpt><trkpt lat="43.0870092" lon="11.5419413"><ele>250.75</ele><time>2026-04-26T11:35:37.055Z</time></trkpt><trkpt lat="43.087136" lon="11.5418705"><ele>247.5</ele><time>2026-04-26T11:35:38.023Z</time></trkpt><trkpt lat="43.0872706" lon="11.5418017"><ele>244.25</ele><time>2026-04-26T11:35:39.046Z</time></trkpt><trkpt lat="43.0874021" lon="11.5417362"><ele>241.0</ele><time>2026-04-26T11:35:40.003Z</time></trkpt><trkpt lat="43.0875358" lon="11.5416708"><ele>240.75</ele><time>2026-04-26T11:35:41.031Z</time></trkpt><trkpt lat="43.0876635" lon="11.5416116"><ele>240.5</ele><time>2026-04-26T11:35:42Z</time></trkpt><trkpt lat="43.0877924" lon="11.5415536"><ele>240.25</ele><time>2026-04-26T11:35:43.041Z</time></trkpt><trkpt lat="43.0879127" lon="11.5414998"><ele>240.0</ele><time>2026-04-26T11:35:44.001Z</time></trkpt><trkpt lat="43.088026" lon="11.5414478"><ele>240.0</ele><time>2026-04-26T11:35:45.039Z</time></trkpt><trkpt lat="43.0881222" lon="11.5414019"><ele>240.0</ele><time>2026-04-26T11:35:45.999Z</time></trkpt><trkpt lat="43.0882068" lon="11.5413598"><ele>240.0</ele><time>2026-04-26T11:35:47.013Z</time></trkpt><trkpt lat="43.0882716" lon="11.5413276"><ele>240.0</ele><time>2026-04-26T11:35:48.006Z</time></trkpt><trkpt lat="43.0883489" lon="11.5412789"><ele>240.0</ele><time>2026-04-26T11:35:50.019Z</time></trkpt><trkpt lat="43.0883332" lon="11.5411788"><ele>240.0</ele><time>2026-04-26T11:35:53.005Z</time></trkpt><trkpt lat="43.0882098" lon="11.5412235"><ele>240.0</ele><time>2026-04-26T11:35:55.026Z</time></trkpt><trkpt lat="43.088122" lon="11.5412795"><ele>240.0</ele><time>2026-04-26T11:35:56.019Z</time></trkpt><trkpt lat="43.0880188" lon="11.541344"><ele>240.0</ele><time>2026-04-26T11:35:57.03Z</time></trkpt><trkpt lat="43.0879028" lon="11.5414122"><ele>240.0</ele><time>2026-04-26T11:35:58.012Z</time></trkpt><trkpt lat="43.0877787" lon="11.5414807"><ele>240.0</ele><time>2026-04-26T11:35:59.026Z</time></trkpt><trkpt lat="43.0876441" lon="11.5415479"><ele>240.0</ele><time>2026-04-26T11:36:00.019Z</time></trkpt><trkpt lat="43.0874993" lon="11.5416172"><ele>240.0</ele><time>2026-04-26T11:36:01.041Z</time></trkpt><trkpt lat="43.0873533" lon="11.5416901"><ele>240.33333333333331</ele><time>2026-04-26T11:36:02.018Z</time></trkpt><trkpt lat="43.0872054" lon="11.5417696"><ele>240.66666666666666</ele><time>2026-04-26T11:36:03.022Z</time></trkpt><trkpt lat="43.0870573" lon="11.541853"><ele>241.0</ele><time>2026-04-26T11:36:04.022Z</time></trkpt><trkpt lat="43.0869108" lon="11.5419384"><ele>241.0</ele><time>2026-04-26T11:36:05.03Z</time></trkpt><trkpt lat="43.0867687" lon="11.5420174"><ele>241.0</ele><time>2026-04-26T11:36:06.009Z</time></trkpt><trkpt lat="43.0866246" lon="11.5420808"><ele>241.0</ele><time>2026-04-26T11:36:07.024Z</time></trkpt><trkpt lat="43.0864791" lon="11.5421256"><ele>246.0</ele><time>2026-04-26T11:36:07.997Z</time></trkpt><trkpt lat="43.0863226" lon="11.5421587"><ele>251.0</ele><time>2026-04-26T11:36:09.027Z</time></trkpt><trkpt lat="43.086169" lon="11.542175"><ele>256.0</ele><time>2026-04-26T11:36:10.03Z</time></trkpt><trkpt lat="43.0860233" lon="11.5421666"><ele>256.0</ele><time>2026-04-26T11:36:11.039Z</time></trkpt><trkpt lat="43.08588" lon="11.5421285"><ele>256.0</ele><time>2026-04-26T11:36:12.005Z</time></trkpt><trkpt lat="43.0857387" lon="11.5420664"><ele>256.0</ele><time>2026-04-26T11:36:13.026Z</time></trkpt><trkpt lat="43.0856143" lon="11.5420011"><ele>256.0</ele><time>2026-04-26T11:36:14.019Z</time></trkpt><trkpt lat="43.0854962" lon="11.5419518"><ele>256.5</ele><time>2026-04-26T11:36:15.03Z</time></trkpt><trkpt lat="43.0853769" lon="11.5419286"><ele>257.0</ele><time>2026-04-26T11:36:16.023Z</time></trkpt><trkpt lat="43.0852586" lon="11.5419398"><ele>257.5</ele><time>2026-04-26T11:36:17.017Z</time></trkpt><trkpt lat="43.0851476" lon="11.5419939"><ele>258.0</ele><time>2026-04-26T11:36:18.024Z</time></trkpt><trkpt lat="43.0850466" lon="11.542085"><ele>258.0</ele><time>2026-04-26T11:36:19.033Z</time></trkpt><trkpt lat="43.0849683" lon="11.5421993"><ele>258.0</ele><time>2026-04-26T11:36:20.027Z</time></trkpt><trkpt lat="43.0849191" lon="11.5423331"><ele>258.0</ele><time>2026-04-26T11:36:21.025Z</time></trkpt><trkpt lat="43.0848939" lon="11.5424862"><ele>258.0</ele><time>2026-04-26T11:36:22.019Z</time></trkpt><trkpt lat="43.0848953" lon="11.5426523"><ele>259.25</ele><time>2026-04-26T11:36:23.026Z</time></trkpt><trkpt lat="43.0849277" lon="11.5428162"><ele>260.5</ele><time>2026-04-26T11:36:24.019Z</time></trkpt><trkpt lat="43.0849922" lon="11.5429657"><ele>261.75</ele><time>2026-04-26T11:36:25.032Z</time></trkpt><trkpt lat="43.0850839" lon="11.5430861"><ele>263.0</ele><time>2026-04-26T11:36:26.01Z</time></trkpt><trkpt lat="43.0852014" lon="11.5431717"><ele>265.0</ele><time>2026-04-26T11:36:27.026Z</time></trkpt><trkpt lat="43.0853413" lon="11.5432187"><ele>267.0</ele><time>2026-04-26T11:36:28.017Z</time></trkpt><trkpt lat="43.085504" lon="11.5432457"><ele>269.0</ele><time>2026-04-26T11:36:29.029Z</time></trkpt><trkpt lat="43.0856794" lon="11.5432659"><ele>267.33333333333337</ele><time>2026-04-26T11:36:30.004Z</time></trkpt><trkpt lat="43.0858674" lon="11.5432884"><ele>265.6666666666667</ele><time>2026-04-26T11:36:31.014Z</time></trkpt><trkpt lat="43.0860573" lon="11.5433112"><ele>264.0</ele><time>2026-04-26T11:36:31.993Z</time></trkpt><trkpt lat="43.0862442" lon="11.5433325"><ele>264.0</ele><time>2026-04-26T11:36:32.996Z</time></trkpt><trkpt lat="43.0864207" lon="11.5433553"><ele>264.0</ele><time>2026-04-26T11:36:34.005Z</time></trkpt><trkpt lat="43.0865854" lon="11.5433778"><ele>264.0</ele><time>2026-04-26T11:36:35.018Z</time></trkpt><trkpt lat="43.0867321" lon="11.5433965"><ele>264.0</ele><time>2026-04-26T11:36:36.01Z</time></trkpt><trkpt lat="43.0868658" lon="11.5434004"><ele>264.0</ele><time>2026-04-26T11:36:37.018Z</time></trkpt><trkpt lat="43.0869895" lon="11.5433709"><ele>264.0</ele><time>2026-04-26T11:36:38.004Z</time></trkpt><trkpt lat="43.087105" lon="11.543299"><ele>264.0</ele><time>2026-04-26T11:36:39.004Z</time></trkpt><trkpt lat="43.0872153" lon="11.5431847"><ele>264.0</ele><time>2026-04-26T11:36:40.008Z</time></trkpt><trkpt lat="43.0873256" lon="11.5430366"><ele>264.0</ele><time>2026-04-26T11:36:41.026Z</time></trkpt><trkpt lat="43.0874284" lon="11.5428909"><ele>264.0</ele><time>2026-04-26T11:36:42.006Z</time></trkpt><trkpt lat="43.0875275" lon="11.5427773"><ele>264.0</ele><time>2026-04-26T11:36:43.021Z</time></trkpt><trkpt lat="43.0876262" lon="11.5427192"><ele>264.0</ele><time>2026-04-26T11:36:44.002Z</time></trkpt><trkpt lat="43.0877238" lon="11.5427191"><ele>264.0</ele><time>2026-04-26T11:36:45.017Z</time></trkpt><trkpt lat="43.0878034" lon="11.5427716"><ele>264.0</ele><time>2026-04-26T11:36:46.029Z</time></trkpt><trkpt lat="43.0878566" lon="11.5428615"><ele>264.0</ele><time>2026-04-26T11:36:47.009Z</time></trkpt><trkpt lat="43.0878829" lon="11.5429833"><ele>264.0</ele><time>2026-04-26T11:36:48.016Z</time></trkpt><trkpt lat="43.0878777" lon="11.5431234"><ele>264.0</ele><time>2026-04-26T11:36:49.018Z</time></trkpt><trkpt lat="43.0878408" lon="11.5432696"><ele>264.0</ele><time>2026-04-26T11:36:50.01Z</time></trkpt><trkpt lat="43.087775" lon="11.5434084"><ele>264.0</ele><time>2026-04-26T11:36:51.016Z</time></trkpt><trkpt lat="43.0876976" lon="11.5435418"><ele>264.0</ele><time>2026-04-26T11:36:52.015Z</time></trkpt><trkpt lat="43.0876217" lon="11.5436838"><ele>266.25</ele><time>2026-04-26T11:36:53.005Z</time></trkpt><trkpt lat="43.0875499" lon="11.5438294"><ele>268.5</ele><time>2026-04-26T11:36:54.012Z</time></trkpt><trkpt lat="43.087482" lon="11.543969"><ele>270.75</ele><time>2026-04-26T11:36:55.001Z</time></trkpt><trkpt lat="43.087419" lon="11.5441016"><ele>273.0</ele><time>2026-04-26T11:36:56.002Z</time></trkpt><trkpt lat="43.0873614" lon="11.5442276"><ele>273.0</ele><time>2026-04-26T11:36:56.991Z</time></trkpt><trkpt lat="43.0873021" lon="11.5443592"><ele>273.0</ele><time>2026-04-26T11:36:58Z</time></trkpt><trkpt lat="43.0872415" lon="11.5445004"><ele>273.0</ele><time>2026-04-26T11:36:59.015Z</time></trkpt><trkpt lat="43.0871852" lon="11.5446438"><ele>273.0</ele><time>2026-04-26T11:37:00.016Z</time></trkpt><trkpt lat="43.0871315" lon="11.5447853"><ele>272.5</ele><time>2026-04-26T11:37:01.019Z</time></trkpt><trkpt lat="43.0870792" lon="11.5449253"><ele>272.0</ele><time>2026-04-26T11:37:02.019Z</time></trkpt><trkpt lat="43.0870266" lon="11.5450658"><ele>271.5</ele><time>2026-04-26T11:37:03.02Z</time></trkpt><trkpt lat="43.0869715" lon="11.5452121"><ele>271.0</ele><time>2026-04-26T11:37:04.012Z</time></trkpt><trkpt lat="43.0869155" lon="11.5453706"><ele>270.0</ele><time>2026-04-26T11:37:05.047Z</time></trkpt><trkpt lat="43.0868662" lon="11.5455282"><ele>269.0</ele><time>2026-04-26T11:37:06.017Z</time></trkpt><trkpt lat="43.0868215" lon="11.5456861"><ele>268.0</ele><time>2026-04-26T11:37:07.026Z</time></trkpt><trkpt lat="43.0867828" lon="11.5458367"><ele>267.0</ele><time>2026-04-26T11:37:08.019Z</time></trkpt><trkpt lat="43.0867473" lon="11.5459826"><ele>267.0</ele><time>2026-04-26T11:37:09.04Z</time></trkpt><trkpt lat="43.0867145" lon="11.5461184"><ele>267.0</ele><time>2026-04-26T11:37:10.006Z</time></trkpt><trkpt lat="43.086686" lon="11.5462444"><ele>267.0</ele><time>2026-04-26T11:37:11.016Z</time></trkpt><trkpt lat="43.0866612" lon="11.5463617"><ele>267.0</ele><time>2026-04-26T11:37:12.004Z</time></trkpt><trkpt lat="43.0866367" lon="11.5464787"><ele>267.0</ele><time>2026-04-26T11:37:13.017Z</time></trkpt><trkpt lat="43.0866099" lon="11.5465928"><ele>265.6666666666667</ele><time>2026-04-26T11:37:14.007Z</time></trkpt><trkpt lat="43.0865799" lon="11.5467093"><ele>264.3333333333333</ele><time>2026-04-26T11:37:15.01Z</time></trkpt><trkpt lat="43.0865503" lon="11.5468259"><ele>263.0</ele><time>2026-04-26T11:37:16.009Z</time></trkpt><trkpt lat="43.0865255" lon="11.5469302"><ele>261.66666666666663</ele><time>2026-04-26T11:37:17.014Z</time></trkpt><trkpt lat="43.0865063" lon="11.5470149"><ele>260.3333333333333</ele><time>2026-04-26T11:37:18.014Z</time></trkpt><trkpt lat="43.0864765" lon="11.5471581"><ele>259.0</ele><time>2026-04-26T11:37:20.004Z</time></trkpt><trkpt lat="43.0864473" lon="11.5472667"><ele>259.0</ele><time>2026-04-26T11:37:21.997Z</time></trkpt><trkpt lat="43.0864298" lon="11.5473737"><ele>259.0</ele><time>2026-04-26T11:37:24.998Z</time></trkpt><trkpt lat="43.0864804" lon="11.5472929"><ele>259.0</ele><time>2026-04-26T11:37:30.013Z</time></trkpt><trkpt lat="43.0865054" lon="11.5471475"><ele>259.0</ele><time>2026-04-26T11:37:32.008Z</time></trkpt><trkpt lat="43.0865235" lon="11.5470537"><ele>259.0</ele><time>2026-04-26T11:37:33.028Z</time></trkpt><trkpt lat="43.0865446" lon="11.5469515"><ele>259.0</ele><time>2026-04-26T11:37:34.01Z</time></trkpt><trkpt lat="43.086569" lon="11.5468441"><ele>260.4</ele><time>2026-04-26T11:37:35.022Z</time></trkpt><trkpt lat="43.0865971" lon="11.5467307"><ele>261.79999999999995</ele><time>2026-04-26T11:37:36.029Z</time></trkpt><trkpt lat="43.0866266" lon="11.5466115"><ele>263.20000000000005</ele><time>2026-04-26T11:37:37.029Z</time></trkpt><trkpt lat="43.0866586" lon="11.5464838"><ele>264.6</ele><time>2026-04-26T11:37:38.021Z</time></trkpt><trkpt lat="43.0866906" lon="11.5463561"><ele>266.0</ele><time>2026-04-26T11:37:39.025Z</time></trkpt><trkpt lat="43.0867162" lon="11.5462475"><ele>266.2</ele><time>2026-04-26T11:37:40.014Z</time></trkpt><trkpt lat="43.0867319" lon="11.5461627"><ele>266.40000000000003</ele><time>2026-04-26T11:37:41.023Z</time></trkpt><trkpt lat="43.0866915" lon="11.5460582"><ele>266.6</ele><time>2026-04-26T11:37:43.018Z</time></trkpt><trkpt lat="43.0865701" lon="11.5460073"><ele>266.8</ele><time>2026-04-26T11:37:45.003Z</time></trkpt><trkpt lat="43.0864836" lon="11.5459795"><ele>267.0</ele><time>2026-04-26T11:37:45.995Z</time></trkpt><trkpt lat="43.0863824" lon="11.5459486"><ele>266.0</ele><time>2026-04-26T11:37:47.005Z</time></trkpt><trkpt lat="43.0862763" lon="11.5459142"><ele>265.0</ele><time>2026-04-26T11:37:48.012Z</time></trkpt><trkpt lat="43.0861747" lon="11.5458815"><ele>264.0</ele><time>2026-04-26T11:37:49.016Z</time></trkpt><trkpt lat="43.0860799" lon="11.54585"><ele>263.0</ele><time>2026-04-26T11:37:50.019Z</time></trkpt><trkpt lat="43.085991" lon="11.5458182"><ele>262.0</ele><time>2026-04-26T11:37:51.018Z</time></trkpt><trkpt lat="43.0859113" lon="11.5457866"><ele>262.0</ele><time>2026-04-26T11:37:52.023Z</time></trkpt><trkpt lat="43.0858433" lon="11.5457683"><ele>262.0</ele><time>2026-04-26T11:37:53.007Z</time></trkpt><trkpt lat="43.0857333" lon="11.5458245"><ele>262.0</ele><time>2026-04-26T11:37:55.006Z</time></trkpt><trkpt lat="43.0856881" lon="11.545903"><ele>262.0</ele><time>2026-04-26T11:37:56.015Z</time></trkpt><trkpt lat="43.0856432" lon="11.5460032"><ele>262.0</ele><time>2026-04-26T11:37:57.015Z</time></trkpt><trkpt lat="43.0855936" lon="11.5461172"><ele>262.0</ele><time>2026-04-26T11:37:58.005Z</time></trkpt><trkpt lat="43.0855366" lon="11.5462396"><ele>261.4</ele><time>2026-04-26T11:37:59.021Z</time></trkpt><trkpt lat="43.0854793" lon="11.5463593"><ele>260.79999999999995</ele><time>2026-04-26T11:38:00.005Z</time></trkpt><trkpt lat="43.0854236" lon="11.5464712"><ele>260.2</ele><time>2026-04-26T11:38:01.013Z</time></trkpt><trkpt lat="43.0853702" lon="11.5465765"><ele>259.59999999999997</ele><time>2026-04-26T11:38:02.015Z</time></trkpt><trkpt lat="43.0853183" lon="11.5466854"><ele>259.0</ele><time>2026-04-26T11:38:03.017Z</time></trkpt><trkpt lat="43.0852662" lon="11.5467975"><ele>259.0</ele><time>2026-04-26T11:38:04.008Z</time></trkpt><trkpt lat="43.0852149" lon="11.5469047"><ele>259.0</ele><time>2026-04-26T11:38:05.019Z</time></trkpt><trkpt lat="43.0851663" lon="11.5470067"><ele>259.0</ele><time>2026-04-26T11:38:06.007Z</time></trkpt><trkpt lat="43.0851185" lon="11.5471041"><ele>259.0</ele><time>2026-04-26T11:38:07.017Z</time></trkpt><trkpt lat="43.0850736" lon="11.5471963"><ele>259.0</ele><time>2026-04-26T11:38:08.006Z</time></trkpt><trkpt lat="43.0850283" lon="11.5472895"><ele>259.0</ele><time>2026-04-26T11:38:08.998Z</time></trkpt><trkpt lat="43.0849789" lon="11.5473926"><ele>258.0</ele><time>2026-04-26T11:38:10.005Z</time></trkpt><trkpt lat="43.0849279" lon="11.5475016"><ele>257.0</ele><time>2026-04-26T11:38:11.008Z</time></trkpt><trkpt lat="43.0848798" lon="11.5476069"><ele>256.0</ele><time>2026-04-26T11:38:11.999Z</time></trkpt><trkpt lat="43.0848328" lon="11.547707"><ele>255.0</ele><time>2026-04-26T11:38:13.015Z</time></trkpt><trkpt lat="43.0847898" lon="11.5477995"><ele>253.99999999999997</ele><time>2026-04-26T11:38:14.025Z</time></trkpt><trkpt lat="43.0847514" lon="11.5478822"><ele>253.0</ele><time>2026-04-26T11:38:15.018Z</time></trkpt><trkpt lat="43.0847155" lon="11.547958"><ele>252.33333333333331</ele><time>2026-04-26T11:38:16.011Z</time></trkpt><trkpt lat="43.0846549" lon="11.5480855"><ele>251.66666666666666</ele><time>2026-04-26T11:38:18.007Z</time></trkpt><trkpt lat="43.0846174" lon="11.5481792"><ele>251.0</ele><time>2026-04-26T11:38:20Z</time></trkpt><trkpt lat="43.0846131" lon="11.5482697"><ele>250.33333333333331</ele><time>2026-04-26T11:38:23.006Z</time></trkpt><trkpt lat="43.0846618" lon="11.5483359"><ele>249.66666666666666</ele><time>2026-04-26T11:38:26.017Z</time></trkpt><trkpt lat="43.0847151" lon="11.5483913"><ele>249.0</ele><time>2026-04-26T11:38:27.018Z</time></trkpt><trkpt lat="43.0847876" lon="11.548444"><ele>249.0</ele><time>2026-04-26T11:38:28.007Z</time></trkpt><trkpt lat="43.0848769" lon="11.5485017"><ele>248.99999999999997</ele><time>2026-04-26T11:38:29.007Z</time></trkpt><trkpt lat="43.0849705" lon="11.5485711"><ele>248.99999999999997</ele><time>2026-04-26T11:38:30.014Z</time></trkpt><trkpt lat="43.0850652" lon="11.5486539"><ele>249.0</ele><time>2026-04-26T11:38:31.006Z</time></trkpt><trkpt lat="43.0851544" lon="11.5487365"><ele>249.0</ele><time>2026-04-26T11:38:32.01Z</time></trkpt><trkpt lat="43.0852311" lon="11.5488088"><ele>249.33333333333334</ele><time>2026-04-26T11:38:32.994Z</time></trkpt><trkpt lat="43.0852988" lon="11.5488711"><ele>249.66666666666669</ele><time>2026-04-26T11:38:33.999Z</time></trkpt><trkpt lat="43.0853544" lon="11.5489236"><ele>250.0</ele><time>2026-04-26T11:38:35.005Z</time></trkpt><trkpt lat="43.0854167" lon="11.5489971"><ele>250.33333333333334</ele><time>2026-04-26T11:38:37.017Z</time></trkpt><trkpt lat="43.0854945" lon="11.5490777"><ele>250.66666666666669</ele><time>2026-04-26T11:38:39.02Z</time></trkpt><trkpt lat="43.0855546" lon="11.5491284"><ele>251.0</ele><time>2026-04-26T11:38:40.012Z</time></trkpt><trkpt lat="43.0856273" lon="11.5491814"><ele>251.0</ele><time>2026-04-26T11:38:41.015Z</time></trkpt><trkpt lat="43.0857135" lon="11.5492346"><ele>251.00000000000003</ele><time>2026-04-26T11:38:42.009Z</time></trkpt><trkpt lat="43.0858046" lon="11.5492814"><ele>251.00000000000003</ele><time>2026-04-26T11:38:43.023Z</time></trkpt><trkpt lat="43.0858798" lon="11.5493158"><ele>251.0</ele><time>2026-04-26T11:38:44.002Z</time></trkpt><trkpt lat="43.0859551" lon="11.5493766"><ele>251.0</ele><time>2026-04-26T11:38:46.011Z</time></trkpt><trkpt lat="43.0859186" lon="11.5495025"><ele>250.8</ele><time>2026-04-26T11:38:48.016Z</time></trkpt><trkpt lat="43.0858634" lon="11.5495932"><ele>250.60000000000002</ele><time>2026-04-26T11:38:49.015Z</time></trkpt><trkpt lat="43.0857952" lon="11.5496974"><ele>250.4</ele><time>2026-04-26T11:38:50.022Z</time></trkpt><trkpt lat="43.0857225" lon="11.5498147"><ele>250.2</ele><time>2026-04-26T11:38:51.006Z</time></trkpt><trkpt lat="43.0856495" lon="11.5499331"><ele>250.0</ele><time>2026-04-26T11:38:52.012Z</time></trkpt><trkpt lat="43.0855804" lon="11.5500468"><ele>250.0</ele><time>2026-04-26T11:38:53.021Z</time></trkpt><trkpt lat="43.0855125" lon="11.5501585"><ele>250.0</ele><time>2026-04-26T11:38:54.007Z</time></trkpt><trkpt lat="43.0854443" lon="11.5502722"><ele>250.0</ele><time>2026-04-26T11:38:55.012Z</time></trkpt><trkpt lat="43.0853786" lon="11.5503823"><ele>250.0</ele><time>2026-04-26T11:38:55.997Z</time></trkpt><trkpt lat="43.0853159" lon="11.5504876"><ele>250.0</ele><time>2026-04-26T11:38:57.008Z</time></trkpt><trkpt lat="43.0852511" lon="11.5505901"><ele>249.6</ele><time>2026-04-26T11:38:57.997Z</time></trkpt><trkpt lat="43.0851812" lon="11.5506944"><ele>249.2</ele><time>2026-04-26T11:38:58.99Z</time></trkpt><trkpt lat="43.0851129" lon="11.550801"><ele>248.8</ele><time>2026-04-26T11:38:59.995Z</time></trkpt><trkpt lat="43.0850393" lon="11.5509126"><ele>248.4</ele><time>2026-04-26T11:39:01.004Z</time></trkpt><trkpt lat="43.0849598" lon="11.551028"><ele>248.0</ele><time>2026-04-26T11:39:02.004Z</time></trkpt><trkpt lat="43.0848759" lon="11.5511501"><ele>247.5</ele><time>2026-04-26T11:39:03.012Z</time></trkpt><trkpt lat="43.0847825" lon="11.5512816"><ele>247.0</ele><time>2026-04-26T11:39:04.002Z</time></trkpt><trkpt lat="43.0846795" lon="11.5514241"><ele>246.5</ele><time>2026-04-26T11:39:05.008Z</time></trkpt><trkpt lat="43.0845731" lon="11.5515712"><ele>246.0</ele><time>2026-04-26T11:39:06.025Z</time></trkpt><trkpt lat="43.0844658" lon="11.5517237"><ele>246.0</ele><time>2026-04-26T11:39:07.016Z</time></trkpt><trkpt lat="43.084358" lon="11.5518777"><ele>246.0</ele><time>2026-04-26T11:39:08.025Z</time></trkpt><trkpt lat="43.0842614" lon="11.5520331"><ele>246.0</ele><time>2026-04-26T11:39:09.023Z</time></trkpt><trkpt lat="43.0841737" lon="11.5521998"><ele>244.66666666666669</ele><time>2026-04-26T11:39:10.014Z</time></trkpt><trkpt lat="43.0840904" lon="11.55238"><ele>243.33333333333334</ele><time>2026-04-26T11:39:11.019Z</time></trkpt><trkpt lat="43.08401" lon="11.5525707"><ele>242.0</ele><time>2026-04-26T11:39:12.03Z</time></trkpt><trkpt lat="43.0839372" lon="11.5527757"><ele>242.33333333333334</ele><time>2026-04-26T11:39:13.035Z</time></trkpt><trkpt lat="43.0838768" lon="11.5529956"><ele>242.66666666666669</ele><time>2026-04-26T11:39:14.018Z</time></trkpt><trkpt lat="43.0838273" lon="11.5532348"><ele>243.0</ele><time>2026-04-26T11:39:15.03Z</time></trkpt><trkpt lat="43.0837844" lon="11.5534856"><ele>244.0</ele><time>2026-04-26T11:39:16.038Z</time></trkpt><trkpt lat="43.0837452" lon="11.5537398"><ele>245.0</ele><time>2026-04-26T11:39:17.023Z</time></trkpt><trkpt lat="43.0837073" lon="11.5539973"><ele>246.0</ele><time>2026-04-26T11:39:18.023Z</time></trkpt><trkpt lat="43.0836711" lon="11.5542466"><ele>246.0</ele><time>2026-04-26T11:39:19.015Z</time></trkpt><trkpt lat="43.0836372" lon="11.5544778"><ele>246.0</ele><time>2026-04-26T11:39:20.019Z</time></trkpt><trkpt lat="43.0836048" lon="11.5546889"><ele>246.0</ele><time>2026-04-26T11:39:21.003Z</time></trkpt><trkpt lat="43.0835722" lon="11.5548975"><ele>247.66666666666669</ele><time>2026-04-26T11:39:22.011Z</time></trkpt><trkpt lat="43.0835374" lon="11.5551162"><ele>249.33333333333334</ele><time>2026-04-26T11:39:23.011Z</time></trkpt><trkpt lat="43.0835032" lon="11.5553489"><ele>251.0</ele><time>2026-04-26T11:39:24.01Z</time></trkpt><trkpt lat="43.0834814" lon="11.5555749"><ele>252.0</ele><time>2026-04-26T11:39:25.036Z</time></trkpt><trkpt lat="43.0834801" lon="11.5557721"><ele>253.0</ele><time>2026-04-26T11:39:26.019Z</time></trkpt><trkpt lat="43.0835053" lon="11.5559445"><ele>254.0</ele><time>2026-04-26T11:39:27.031Z</time></trkpt><trkpt lat="43.0835589" lon="11.5560829"><ele>255.0</ele><time>2026-04-26T11:39:28.038Z</time></trkpt><trkpt lat="43.0836424" lon="11.5561827"><ele>255.0</ele><time>2026-04-26T11:39:29.02Z</time></trkpt><trkpt lat="43.0837515" lon="11.5562495"><ele>255.0</ele><time>2026-04-26T11:39:30.011Z</time></trkpt><trkpt lat="43.0838798" lon="11.5563017"><ele>255.0</ele><time>2026-04-26T11:39:31.019Z</time></trkpt><trkpt lat="43.0840213" lon="11.556372"><ele>255.0</ele><time>2026-04-26T11:39:32.024Z</time></trkpt><trkpt lat="43.0841657" lon="11.556478"><ele>258.3333333333333</ele><time>2026-04-26T11:39:33.012Z</time></trkpt><trkpt lat="43.0843025" lon="11.5566161"><ele>261.66666666666663</ele><time>2026-04-26T11:39:34.013Z</time></trkpt><trkpt lat="43.0844218" lon="11.556774"><ele>265.0</ele><time>2026-04-26T11:39:35.006Z</time></trkpt><trkpt lat="43.0845068" lon="11.5569447"><ele>267.66666666666663</ele><time>2026-04-26T11:39:36.011Z</time></trkpt><trkpt lat="43.0845593" lon="11.5571337"><ele>270.3333333333333</ele><time>2026-04-26T11:39:37.032Z</time></trkpt><trkpt lat="43.0845854" lon="11.5573459"><ele>273.0</ele><time>2026-04-26T11:39:38.004Z</time></trkpt><trkpt lat="43.0845876" lon="11.5575803"><ele>273.0</ele><time>2026-04-26T11:39:39.016Z</time></trkpt><trkpt lat="43.0845603" lon="11.5578201"><ele>273.0</ele><time>2026-04-26T11:39:40.019Z</time></trkpt><trkpt lat="43.0845053" lon="11.5580572"><ele>273.0</ele><time>2026-04-26T11:39:41.031Z</time></trkpt><trkpt lat="43.0844367" lon="11.5582684"><ele>274.25</ele><time>2026-04-26T11:39:42.019Z</time></trkpt><trkpt lat="43.0843801" lon="11.5584598"><ele>275.5</ele><time>2026-04-26T11:39:43.023Z</time></trkpt><trkpt lat="43.0843535" lon="11.5586419"><ele>276.75</ele><time>2026-04-26T11:39:44.054Z</time></trkpt><trkpt lat="43.0843592" lon="11.5588156"><ele>278.0</ele><time>2026-04-26T11:39:45.016Z</time></trkpt><trkpt lat="43.0843849" lon="11.5589792"><ele>278.6</ele><time>2026-04-26T11:39:46.012Z</time></trkpt><trkpt lat="43.0844299" lon="11.5591099"><ele>279.20000000000005</ele><time>2026-04-26T11:39:46.996Z</time></trkpt><trkpt lat="43.0845046" lon="11.559198"><ele>279.8</ele><time>2026-04-26T11:39:48.013Z</time></trkpt><trkpt lat="43.0846104" lon="11.5592472"><ele>280.40000000000003</ele><time>2026-04-26T11:39:49.01Z</time></trkpt><trkpt lat="43.0847236" lon="11.5592963"><ele>281.0</ele><time>2026-04-26T11:39:50.014Z</time></trkpt><trkpt lat="43.0847989" lon="11.5593769"><ele>281.0</ele><time>2026-04-26T11:39:51.019Z</time></trkpt><trkpt lat="43.0848251" lon="11.5594913"><ele>281.0</ele><time>2026-04-26T11:39:52.012Z</time></trkpt><trkpt lat="43.0848147" lon="11.5596322"><ele>281.0</ele><time>2026-04-26T11:39:53.026Z</time></trkpt><trkpt lat="43.0847901" lon="11.5597878"><ele>281.0</ele><time>2026-04-26T11:39:54.031Z</time></trkpt><trkpt lat="43.0847907" lon="11.5599361"><ele>281.0</ele><time>2026-04-26T11:39:55.032Z</time></trkpt><trkpt lat="43.0848433" lon="11.56007"><ele>281.0</ele><time>2026-04-26T11:39:56.034Z</time></trkpt><trkpt lat="43.0849372" lon="11.5601965"><ele>281.0</ele><time>2026-04-26T11:39:57.017Z</time></trkpt><trkpt lat="43.0850338" lon="11.5603257"><ele>281.0</ele><time>2026-04-26T11:39:58.027Z</time></trkpt><trkpt lat="43.0850914" lon="11.5604566"><ele>281.0</ele><time>2026-04-26T11:39:59.032Z</time></trkpt><trkpt lat="43.085105" lon="11.5605939"><ele>283.5</ele><time>2026-04-26T11:40:00.012Z</time></trkpt><trkpt lat="43.0850713" lon="11.5607319"><ele>286.0</ele><time>2026-04-26T11:40:01.019Z</time></trkpt><trkpt lat="43.0849884" lon="11.5608542"><ele>288.5</ele><time>2026-04-26T11:40:02.02Z</time></trkpt><trkpt lat="43.0848878" lon="11.5609622"><ele>291.0</ele><time>2026-04-26T11:40:03.025Z</time></trkpt><trkpt lat="43.0848189" lon="11.5610727"><ele>292.75</ele><time>2026-04-26T11:40:04.017Z</time></trkpt><trkpt lat="43.0847966" lon="11.5612043"><ele>294.5</ele><time>2026-04-26T11:40:05.036Z</time></trkpt><trkpt lat="43.0848238" lon="11.5613505"><ele>296.25</ele><time>2026-04-26T11:40:06.032Z</time></trkpt><trkpt lat="43.0848853" lon="11.5615132"><ele>298.0</ele><time>2026-04-26T11:40:07.063Z</time></trkpt><trkpt lat="43.0849561" lon="11.5616871"><ele>298.0</ele><time>2026-04-26T11:40:08.042Z</time></trkpt><trkpt lat="43.0850265" lon="11.5618716"><ele>298.0</ele><time>2026-04-26T11:40:09.049Z</time></trkpt><trkpt lat="43.085085" lon="11.5620483"><ele>298.0</ele><time>2026-04-26T11:40:10.021Z</time></trkpt><trkpt lat="43.0851161" lon="11.5622232"><ele>298.0</ele><time>2026-04-26T11:40:11.046Z</time></trkpt><trkpt lat="43.0851036" lon="11.5623964"><ele>298.75</ele><time>2026-04-26T11:40:12.012Z</time></trkpt><trkpt lat="43.0850425" lon="11.5625669"><ele>299.5</ele><time>2026-04-26T11:40:13.038Z</time></trkpt><trkpt lat="43.0849414" lon="11.5627068"><ele>300.25</ele><time>2026-04-26T11:40:14.014Z</time></trkpt><trkpt lat="43.0848104" lon="11.5628004"><ele>301.0</ele><time>2026-04-26T11:40:15.022Z</time></trkpt><trkpt lat="43.0846592" lon="11.5628387"><ele>300.66666666666663</ele><time>2026-04-26T11:40:16.028Z</time></trkpt><trkpt lat="43.0844915" lon="11.5628447"><ele>300.3333333333333</ele><time>2026-04-26T11:40:17.037Z</time></trkpt><trkpt lat="43.0843193" lon="11.5628517"><ele>300.0</ele><time>2026-04-26T11:40:18.025Z</time></trkpt><trkpt lat="43.0841503" lon="11.5628804"><ele>300.3333333333333</ele><time>2026-04-26T11:40:19.046Z</time></trkpt><trkpt lat="43.0839926" lon="11.5629342"><ele>300.66666666666663</ele><time>2026-04-26T11:40:20.033Z</time></trkpt><trkpt lat="43.0838412" lon="11.5630162"><ele>301.0</ele><time>2026-04-26T11:40:21.034Z</time></trkpt><trkpt lat="43.0837016" lon="11.5631304"><ele>301.0</ele><time>2026-04-26T11:40:22.019Z</time></trkpt><trkpt lat="43.0835741" lon="11.5632844"><ele>301.0</ele><time>2026-04-26T11:40:23.036Z</time></trkpt><trkpt lat="43.0834577" lon="11.5634706"><ele>301.0</ele><time>2026-04-26T11:40:24.022Z</time></trkpt><trkpt lat="43.0833423" lon="11.5636782"><ele>301.0</ele><time>2026-04-26T11:40:25.046Z</time></trkpt><trkpt lat="43.0832339" lon="11.5638903"><ele>301.0</ele><time>2026-04-26T11:40:26.036Z</time></trkpt><trkpt lat="43.0831377" lon="11.5641134"><ele>301.0</ele><time>2026-04-26T11:40:27.036Z</time></trkpt><trkpt lat="43.0830544" lon="11.5643444"><ele>303.0</ele><time>2026-04-26T11:40:28.046Z</time></trkpt><trkpt lat="43.0829788" lon="11.5645736"><ele>305.0</ele><time>2026-04-26T11:40:29.018Z</time></trkpt><trkpt lat="43.0829013" lon="11.5648019"><ele>307.0</ele><time>2026-04-26T11:40:30.032Z</time></trkpt><trkpt lat="43.0828187" lon="11.5650161"><ele>307.0</ele><time>2026-04-26T11:40:31.039Z</time></trkpt><trkpt lat="43.0827236" lon="11.5652153"><ele>307.0</ele><time>2026-04-26T11:40:32.028Z</time></trkpt><trkpt lat="43.0826143" lon="11.5654075"><ele>307.0</ele><time>2026-04-26T11:40:33.031Z</time></trkpt><trkpt lat="43.0824968" lon="11.5655956"><ele>307.3333333333333</ele><time>2026-04-26T11:40:34.021Z</time></trkpt><trkpt lat="43.0823739" lon="11.5657862"><ele>307.6666666666667</ele><time>2026-04-26T11:40:35.019Z</time></trkpt><trkpt lat="43.0822479" lon="11.5659796"><ele>308.0</ele><time>2026-04-26T11:40:36.017Z</time></trkpt><trkpt lat="43.0821221" lon="11.5661725"><ele>311.6666666666667</ele><time>2026-04-26T11:40:37.022Z</time></trkpt><trkpt lat="43.0820021" lon="11.5663582"><ele>315.3333333333333</ele><time>2026-04-26T11:40:38.007Z</time></trkpt><trkpt lat="43.0818891" lon="11.5665397"><ele>319.0</ele><time>2026-04-26T11:40:39.016Z</time></trkpt><trkpt lat="43.0817897" lon="11.5667264"><ele>319.0</ele><time>2026-04-26T11:40:40.017Z</time></trkpt><trkpt lat="43.0817099" lon="11.5669328"><ele>319.0</ele><time>2026-04-26T11:40:41.025Z</time></trkpt><trkpt lat="43.0816503" lon="11.5671604"><ele>319.0</ele><time>2026-04-26T11:40:42.02Z</time></trkpt><trkpt lat="43.081606" lon="11.567398"><ele>316.0</ele><time>2026-04-26T11:40:43.034Z</time></trkpt><trkpt lat="43.0815783" lon="11.5676309"><ele>313.0</ele><time>2026-04-26T11:40:44.027Z</time></trkpt><trkpt lat="43.0815608" lon="11.5678644"><ele>310.0</ele><time>2026-04-26T11:40:45.042Z</time></trkpt><trkpt lat="43.0815479" lon="11.5680887"><ele>310.0</ele><time>2026-04-26T11:40:46.017Z</time></trkpt><trkpt lat="43.0815315" lon="11.5683045"><ele>310.0</ele><time>2026-04-26T11:40:47.025Z</time></trkpt><trkpt lat="43.0815052" lon="11.5685135"><ele>310.0</ele><time>2026-04-26T11:40:48.03Z</time></trkpt><trkpt lat="43.0814626" lon="11.5687279"><ele>313.66666666666663</ele><time>2026-04-26T11:40:49.043Z</time></trkpt><trkpt lat="43.0813991" lon="11.56895"><ele>317.3333333333333</ele><time>2026-04-26T11:40:50.031Z</time></trkpt><trkpt lat="43.0813192" lon="11.5691846"><ele>321.0</ele><time>2026-04-26T11:40:51.033Z</time></trkpt><trkpt lat="43.0812355" lon="11.5694106"><ele>324.6666666666667</ele><time>2026-04-26T11:40:52.007Z</time></trkpt><trkpt lat="43.0811521" lon="11.5696202"><ele>328.33333333333337</ele><time>2026-04-26T11:40:53.02Z</time></trkpt><trkpt lat="43.0810698" lon="11.5698047"><ele>332.0</ele><time>2026-04-26T11:40:54.012Z</time></trkpt><trkpt lat="43.0809829" lon="11.5699665"><ele>332.0</ele><time>2026-04-26T11:40:55.028Z</time></trkpt><trkpt lat="43.0808881" lon="11.5700986"><ele>332.0</ele><time>2026-04-26T11:40:56.027Z</time></trkpt><trkpt lat="43.0807848" lon="11.5701967"><ele>332.0</ele><time>2026-04-26T11:40:57.015Z</time></trkpt><trkpt lat="43.0806812" lon="11.5702588"><ele>332.0</ele><time>2026-04-26T11:40:58.016Z</time></trkpt><trkpt lat="43.0805888" lon="11.5702947"><ele>331.20000000000005</ele><time>2026-04-26T11:40:59Z</time></trkpt><trkpt lat="43.0805057" lon="11.5703276"><ele>330.4</ele><time>2026-04-26T11:40:59.997Z</time></trkpt><trkpt lat="43.0804235" lon="11.5703745"><ele>329.6</ele><time>2026-04-26T11:41:00.99Z</time></trkpt><trkpt lat="43.0803323" lon="11.5704159"><ele>328.79999999999995</ele><time>2026-04-26T11:41:01.993Z</time></trkpt><trkpt lat="43.0802301" lon="11.5704453"><ele>328.0</ele><time>2026-04-26T11:41:02.986Z</time></trkpt><trkpt lat="43.0801138" lon="11.5704745"><ele>330.2</ele><time>2026-04-26T11:41:03.999Z</time></trkpt><trkpt lat="43.0800047" lon="11.5705034"><ele>332.4</ele><time>2026-04-26T11:41:05Z</time></trkpt><trkpt lat="43.0799117" lon="11.570532"><ele>334.59999999999997</ele><time>2026-04-26T11:41:06.008Z</time></trkpt><trkpt lat="43.0798231" lon="11.5705604"><ele>336.79999999999995</ele><time>2026-04-26T11:41:07.012Z</time></trkpt><trkpt lat="43.0797483" lon="11.5705991"><ele>339.0</ele><time>2026-04-26T11:41:08.008Z</time></trkpt><trkpt lat="43.0797038" lon="11.5707235"><ele>339.0</ele><time>2026-04-26T11:41:10.029Z</time></trkpt><trkpt lat="43.0798009" lon="11.570813"><ele>339.0</ele><time>2026-04-26T11:41:12.027Z</time></trkpt><trkpt lat="43.0798856" lon="11.5708282"><ele>339.0</ele><time>2026-04-26T11:41:13.036Z</time></trkpt><trkpt lat="43.0799882" lon="11.5708464"><ele>339.0</ele><time>2026-04-26T11:41:14.024Z</time></trkpt><trkpt lat="43.0800985" lon="11.5708802"><ele>339.0</ele><time>2026-04-26T11:41:15.032Z</time></trkpt><trkpt lat="43.0802163" lon="11.5709372"><ele>338.5</ele><time>2026-04-26T11:41:16.023Z</time></trkpt><trkpt lat="43.0803467" lon="11.5710195"><ele>338.0</ele><time>2026-04-26T11:41:17.041Z</time></trkpt><trkpt lat="43.0804796" lon="11.5711094"><ele>337.5</ele><time>2026-04-26T11:41:18.029Z</time></trkpt><trkpt lat="43.0806158" lon="11.5712015"><ele>337.0</ele><time>2026-04-26T11:41:19.066Z</time></trkpt><trkpt lat="43.0807488" lon="11.5712923"><ele>339.66666666666663</ele><time>2026-04-26T11:41:20.032Z</time></trkpt><trkpt lat="43.0808844" lon="11.5713919"><ele>342.3333333333333</ele><time>2026-04-26T11:41:21.035Z</time></trkpt><trkpt lat="43.0810177" lon="11.5714976"><ele>345.0</ele><time>2026-04-26T11:41:22.019Z</time></trkpt><trkpt lat="43.081147" lon="11.5716084"><ele>345.0</ele><time>2026-04-26T11:41:23.025Z</time></trkpt><trkpt lat="43.0812627" lon="11.5717136"><ele>345.0</ele><time>2026-04-26T11:41:24.012Z</time></trkpt><trkpt lat="43.081367" lon="11.5717989"><ele>345.0</ele><time>2026-04-26T11:41:25.02Z</time></trkpt><trkpt lat="43.0814694" lon="11.5718684"><ele>345.0</ele><time>2026-04-26T11:41:26.005Z</time></trkpt><trkpt lat="43.0815773" lon="11.5719493"><ele>346.0</ele><time>2026-04-26T11:41:27.016Z</time></trkpt><trkpt lat="43.0816826" lon="11.5720563"><ele>347.0</ele><time>2026-04-26T11:41:28.018Z</time></trkpt><trkpt lat="43.081783" lon="11.5721961"><ele>348.0</ele><time>2026-04-26T11:41:29.032Z</time></trkpt><trkpt lat="43.0818764" lon="11.5723681"><ele>349.0</ele><time>2026-04-26T11:41:30.027Z</time></trkpt><trkpt lat="43.0819666" lon="11.572563"><ele>349.0</ele><time>2026-04-26T11:41:31.039Z</time></trkpt><trkpt lat="43.0820579" lon="11.5727662"><ele>349.0</ele><time>2026-04-26T11:41:32.028Z</time></trkpt><trkpt lat="43.0821515" lon="11.5729802"><ele>349.0</ele><time>2026-04-26T11:41:33.042Z</time></trkpt><trkpt lat="43.0822456" lon="11.5732002"><ele>349.0</ele><time>2026-04-26T11:41:34.045Z</time></trkpt><trkpt lat="43.0823409" lon="11.5734256"><ele>349.0</ele><time>2026-04-26T11:41:35.043Z</time></trkpt><trkpt lat="43.0824348" lon="11.5736518"><ele>349.0</ele><time>2026-04-26T11:41:36.031Z</time></trkpt><trkpt lat="43.0825296" lon="11.5738797"><ele>348.3333333333333</ele><time>2026-04-26T11:41:37.045Z</time></trkpt><trkpt lat="43.0826235" lon="11.5741062"><ele>347.6666666666667</ele><time>2026-04-26T11:41:38.025Z</time></trkpt><trkpt lat="43.0827186" lon="11.5743372"><ele>347.0</ele><time>2026-04-26T11:41:39.038Z</time></trkpt><trkpt lat="43.0828128" lon="11.5745689"><ele>347.0</ele><time>2026-04-26T11:41:40.027Z</time></trkpt><trkpt lat="43.0829044" lon="11.5747972"><ele>347.0</ele><time>2026-04-26T11:41:41.029Z</time></trkpt><trkpt lat="43.0829914" lon="11.5750075"><ele>347.0</ele><time>2026-04-26T11:41:42.03Z</time></trkpt><trkpt lat="43.0830758" lon="11.5752085"><ele>349.33333333333337</ele><time>2026-04-26T11:41:43.035Z</time></trkpt><trkpt lat="43.0831634" lon="11.5754089"><ele>351.6666666666667</ele><time>2026-04-26T11:41:44.028Z</time></trkpt><trkpt lat="43.0832543" lon="11.5756136"><ele>354.0</ele><time>2026-04-26T11:41:45.042Z</time></trkpt><trkpt lat="43.0833451" lon="11.5758187"><ele>354.0</ele><time>2026-04-26T11:41:46.023Z</time></trkpt><trkpt lat="43.0834379" lon="11.5760306"><ele>354.0</ele><time>2026-04-26T11:41:47.03Z</time></trkpt><trkpt lat="43.083527" lon="11.5762483"><ele>354.0</ele><time>2026-04-26T11:41:48.031Z</time></trkpt><trkpt lat="43.0836096" lon="11.576476"><ele>352.6666666666667</ele><time>2026-04-26T11:41:49.038Z</time></trkpt><trkpt lat="43.0836821" lon="11.5767136"><ele>351.33333333333337</ele><time>2026-04-26T11:41:50.014Z</time></trkpt><trkpt lat="43.0837464" lon="11.576964"><ele>350.0</ele><time>2026-04-26T11:41:51.033Z</time></trkpt><trkpt lat="43.0838051" lon="11.5772137"><ele>350.0</ele><time>2026-04-26T11:41:52.044Z</time></trkpt><trkpt lat="43.0838642" lon="11.5774593"><ele>350.0</ele><time>2026-04-26T11:41:53.05Z</time></trkpt><trkpt lat="43.0839202" lon="11.5776969"><ele>350.0</ele><time>2026-04-26T11:41:54.026Z</time></trkpt><trkpt lat="43.0839705" lon="11.5779257"><ele>350.0</ele><time>2026-04-26T11:41:55.043Z</time></trkpt><trkpt lat="43.0840138" lon="11.5781328"><ele>350.0</ele><time>2026-04-26T11:41:56.049Z</time></trkpt><trkpt lat="43.0840555" lon="11.5783306"><ele>350.0</ele><time>2026-04-26T11:41:57.05Z</time></trkpt><trkpt lat="43.0841001" lon="11.5785268"><ele>353.0</ele><time>2026-04-26T11:41:58.024Z</time></trkpt><trkpt lat="43.0841461" lon="11.5787212"><ele>356.0</ele><time>2026-04-26T11:41:59.026Z</time></trkpt><trkpt lat="43.0841931" lon="11.5788989"><ele>359.0</ele><time>2026-04-26T11:42:00.014Z</time></trkpt><trkpt lat="43.0842492" lon="11.5790591"><ele>362.0</ele><time>2026-04-26T11:42:01.018Z</time></trkpt><trkpt lat="43.0843228" lon="11.5792121"><ele>362.0</ele><time>2026-04-26T11:42:02.018Z</time></trkpt><trkpt lat="43.0844098" lon="11.5793671"><ele>362.0</ele><time>2026-04-26T11:42:03.036Z</time></trkpt><trkpt lat="43.084498" lon="11.5795226"><ele>362.0</ele><time>2026-04-26T11:42:04.027Z</time></trkpt><trkpt lat="43.0845848" lon="11.5796818"><ele>362.0</ele><time>2026-04-26T11:42:05.025Z</time></trkpt><trkpt lat="43.0846695" lon="11.5798432"><ele>364.0</ele><time>2026-04-26T11:42:06.029Z</time></trkpt><trkpt lat="43.0847489" lon="11.5799914"><ele>366.0</ele><time>2026-04-26T11:42:07.009Z</time></trkpt><trkpt lat="43.0848202" lon="11.5801168"><ele>368.0</ele><time>2026-04-26T11:42:08.016Z</time></trkpt><trkpt lat="43.084878" lon="11.5802324"><ele>370.0</ele><time>2026-04-26T11:42:09.019Z</time></trkpt><trkpt lat="43.0849231" lon="11.5803561"><ele>371.25</ele><time>2026-04-26T11:42:10.009Z</time></trkpt><trkpt lat="43.0849598" lon="11.5804951"><ele>372.5</ele><time>2026-04-26T11:42:11.01Z</time></trkpt><trkpt lat="43.0850003" lon="11.5806454"><ele>373.75</ele><time>2026-04-26T11:42:11.999Z</time></trkpt><trkpt lat="43.0850451" lon="11.5808061"><ele>375.0</ele><time>2026-04-26T11:42:13.007Z</time></trkpt><trkpt lat="43.0850879" lon="11.580966"><ele>375.0</ele><time>2026-04-26T11:42:14.001Z</time></trkpt><trkpt lat="43.0851244" lon="11.5811126"><ele>375.0</ele><time>2026-04-26T11:42:14.997Z</time></trkpt><trkpt lat="43.0851585" lon="11.5812551"><ele>375.0</ele><time>2026-04-26T11:42:15.993Z</time></trkpt><trkpt lat="43.085198" lon="11.5813919"><ele>375.0</ele><time>2026-04-26T11:42:17.002Z</time></trkpt><trkpt lat="43.0852411" lon="11.5815152"><ele>375.0</ele><time>2026-04-26T11:42:18.025Z</time></trkpt><trkpt lat="43.0852909" lon="11.5816295"><ele>374.2</ele><time>2026-04-26T11:42:19.017Z</time></trkpt><trkpt lat="43.0853524" lon="11.5817397"><ele>373.4</ele><time>2026-04-26T11:42:20.011Z</time></trkpt><trkpt lat="43.0854211" lon="11.5818466"><ele>372.6</ele><time>2026-04-26T11:42:21.021Z</time></trkpt><trkpt lat="43.0854932" lon="11.5819527"><ele>371.8</ele><time>2026-04-26T11:42:22.022Z</time></trkpt><trkpt lat="43.0855686" lon="11.5820612"><ele>371.0</ele><time>2026-04-26T11:42:23.026Z</time></trkpt><trkpt lat="43.0856417" lon="11.5821705"><ele>371.6666666666667</ele><time>2026-04-26T11:42:24.01Z</time></trkpt><trkpt lat="43.0857076" lon="11.582277"><ele>372.33333333333337</ele><time>2026-04-26T11:42:25.025Z</time></trkpt><trkpt lat="43.0857566" lon="11.5823759"><ele>373.0</ele><time>2026-04-26T11:42:26.009Z</time></trkpt><trkpt lat="43.0857985" lon="11.5824698"><ele>373.6666666666667</ele><time>2026-04-26T11:42:27.02Z</time></trkpt><trkpt lat="43.0858517" lon="11.5825544"><ele>374.3333333333333</ele><time>2026-04-26T11:42:28.009Z</time></trkpt><trkpt lat="43.0859276" lon="11.5826332"><ele>375.0</ele><time>2026-04-26T11:42:29.02Z</time></trkpt><trkpt lat="43.0860185" lon="11.5827126"><ele>375.0</ele><time>2026-04-26T11:42:30.009Z</time></trkpt><trkpt lat="43.0861179" lon="11.582802"><ele>375.0</ele><time>2026-04-26T11:42:31.021Z</time></trkpt><trkpt lat="43.0862161" lon="11.5828941"><ele>375.0</ele><time>2026-04-26T11:42:32.015Z</time></trkpt><trkpt lat="43.0863075" lon="11.582984"><ele>375.0</ele><time>2026-04-26T11:42:33.029Z</time></trkpt><trkpt lat="43.0863905" lon="11.5830672"><ele>373.5</ele><time>2026-04-26T11:42:34.019Z</time></trkpt><trkpt lat="43.0864707" lon="11.5831489"><ele>372.0</ele><time>2026-04-26T11:42:35.019Z</time></trkpt><trkpt lat="43.0865579" lon="11.5832334"><ele>370.5</ele><time>2026-04-26T11:42:36.046Z</time></trkpt><trkpt lat="43.0866541" lon="11.5833184"><ele>369.0</ele><time>2026-04-26T11:42:36.996Z</time></trkpt><trkpt lat="43.086766" lon="11.5834052"><ele>369.0</ele><time>2026-04-26T11:42:38.008Z</time></trkpt><trkpt lat="43.0868858" lon="11.5834933"><ele>369.0</ele><time>2026-04-26T11:42:39.01Z</time></trkpt><trkpt lat="43.0870051" lon="11.5835861"><ele>369.0</ele><time>2026-04-26T11:42:40.002Z</time></trkpt><trkpt lat="43.0871209" lon="11.5836782"><ele>369.0</ele><time>2026-04-26T11:42:41.01Z</time></trkpt><trkpt lat="43.08724" lon="11.5837742"><ele>365.5</ele><time>2026-04-26T11:42:42.019Z</time></trkpt><trkpt lat="43.0873675" lon="11.5838778"><ele>362.0</ele><time>2026-04-26T11:42:43.022Z</time></trkpt><trkpt lat="43.0874972" lon="11.5839843"><ele>358.5</ele><time>2026-04-26T11:42:44.027Z</time></trkpt><trkpt lat="43.0876245" lon="11.5840902"><ele>355.0</ele><time>2026-04-26T11:42:45.03Z</time></trkpt><trkpt lat="43.0877447" lon="11.5841909"><ele>355.0</ele><time>2026-04-26T11:42:46.035Z</time></trkpt><trkpt lat="43.0878594" lon="11.5842859"><ele>355.0</ele><time>2026-04-26T11:42:47.025Z</time></trkpt><trkpt lat="43.0879734" lon="11.5843828"><ele>355.0</ele><time>2026-04-26T11:42:48.04Z</time></trkpt><trkpt lat="43.0880892" lon="11.5844751"><ele>355.0</ele><time>2026-04-26T11:42:49.04Z</time></trkpt><trkpt lat="43.0882132" lon="11.5845618"><ele>356.25</ele><time>2026-04-26T11:42:50.031Z</time></trkpt><trkpt lat="43.0883365" lon="11.5846388"><ele>357.5</ele><time>2026-04-26T11:42:51.027Z</time></trkpt><trkpt lat="43.0884529" lon="11.5847058"><ele>358.75</ele><time>2026-04-26T11:42:52.015Z</time></trkpt><trkpt lat="43.0885673" lon="11.5847792"><ele>360.0</ele><time>2026-04-26T11:42:53.023Z</time></trkpt><trkpt lat="43.0886812" lon="11.5848688"><ele>360.0</ele><time>2026-04-26T11:42:54.019Z</time></trkpt><trkpt lat="43.0888025" lon="11.5849706"><ele>360.0</ele><time>2026-04-26T11:42:55.025Z</time></trkpt><trkpt lat="43.0889286" lon="11.5850783"><ele>360.0</ele><time>2026-04-26T11:42:56.014Z</time></trkpt><trkpt lat="43.0890556" lon="11.5851885"><ele>360.0</ele><time>2026-04-26T11:42:57.02Z</time></trkpt><trkpt lat="43.0891766" lon="11.5852954"><ele>362.5</ele><time>2026-04-26T11:42:58.026Z</time></trkpt><trkpt lat="43.0892882" lon="11.5853934"><ele>365.0</ele><time>2026-04-26T11:42:59.014Z</time></trkpt><trkpt lat="43.0894004" lon="11.5854921"><ele>367.5</ele><time>2026-04-26T11:43:00.011Z</time></trkpt><trkpt lat="43.0895186" lon="11.5855938"><ele>370.0</ele><time>2026-04-26T11:43:01.001Z</time></trkpt><trkpt lat="43.0896455" lon="11.5857001"><ele>370.0</ele><time>2026-04-26T11:43:02.008Z</time></trkpt><trkpt lat="43.0897729" lon="11.5858088"><ele>370.0</ele><time>2026-04-26T11:43:02.995Z</time></trkpt><trkpt lat="43.0898933" lon="11.5859153"><ele>370.0</ele><time>2026-04-26T11:43:04.004Z</time></trkpt><trkpt lat="43.0900015" lon="11.5860201"><ele>370.0</ele><time>2026-04-26T11:43:05.005Z</time></trkpt><trkpt lat="43.0901035" lon="11.5861369"><ele>372.66666666666663</ele><time>2026-04-26T11:43:05.99Z</time></trkpt><trkpt lat="43.0902003" lon="11.5862797"><ele>375.3333333333333</ele><time>2026-04-26T11:43:07.004Z</time></trkpt><trkpt lat="43.0902927" lon="11.5864447"><ele>378.0</ele><time>2026-04-26T11:43:08.006Z</time></trkpt><trkpt lat="43.0903887" lon="11.586626"><ele>378.0</ele><time>2026-04-26T11:43:09.012Z</time></trkpt><trkpt lat="43.0904778" lon="11.5868103"><ele>378.0</ele><time>2026-04-26T11:43:10.008Z</time></trkpt><trkpt lat="43.0905612" lon="11.5869797"><ele>378.0</ele><time>2026-04-26T11:43:11.01Z</time></trkpt><trkpt lat="43.0906374" lon="11.5871291"><ele>378.0</ele><time>2026-04-26T11:43:12.009Z</time></trkpt><trkpt lat="43.0907082" lon="11.5872658"><ele>375.5</ele><time>2026-04-26T11:43:13.013Z</time></trkpt><trkpt lat="43.0907776" lon="11.587399"><ele>373.0</ele><time>2026-04-26T11:43:14.015Z</time></trkpt><trkpt lat="43.0908495" lon="11.5875277"><ele>370.5</ele><time>2026-04-26T11:43:15.012Z</time></trkpt><trkpt lat="43.0909305" lon="11.5876418"><ele>368.0</ele><time>2026-04-26T11:43:16.02Z</time></trkpt><trkpt lat="43.0910272" lon="11.5877373"><ele>368.0</ele><time>2026-04-26T11:43:17.005Z</time></trkpt><trkpt lat="43.0911495" lon="11.5878236"><ele>368.0</ele><time>2026-04-26T11:43:18.02Z</time></trkpt><trkpt lat="43.0912884" lon="11.5879066"><ele>368.0</ele><time>2026-04-26T11:43:19.036Z</time></trkpt><trkpt lat="43.0914279" lon="11.5879914"><ele>368.0</ele><time>2026-04-26T11:43:20.04Z</time></trkpt><trkpt lat="43.0915605" lon="11.5880757"><ele>367.5</ele><time>2026-04-26T11:43:21.026Z</time></trkpt><trkpt lat="43.0916882" lon="11.5881615"><ele>367.0</ele><time>2026-04-26T11:43:22.031Z</time></trkpt><trkpt lat="43.0918145" lon="11.5882478"><ele>366.5</ele><time>2026-04-26T11:43:23.015Z</time></trkpt><trkpt lat="43.0919375" lon="11.5883291"><ele>366.0</ele><time>2026-04-26T11:43:24.021Z</time></trkpt><trkpt lat="43.0920546" lon="11.5884039"><ele>366.0</ele><time>2026-04-26T11:43:25.02Z</time></trkpt><trkpt lat="43.0921733" lon="11.5884786"><ele>366.0</ele><time>2026-04-26T11:43:26.005Z</time></trkpt><trkpt lat="43.0922977" lon="11.5885543"><ele>366.0</ele><time>2026-04-26T11:43:27.011Z</time></trkpt><trkpt lat="43.0924192" lon="11.5886289"><ele>366.0</ele><time>2026-04-26T11:43:28.001Z</time></trkpt><trkpt lat="43.0925351" lon="11.5887053"><ele>364.0</ele><time>2026-04-26T11:43:29.016Z</time></trkpt><trkpt lat="43.0926442" lon="11.5887896"><ele>362.0</ele><time>2026-04-26T11:43:30.013Z</time></trkpt><trkpt lat="43.0927507" lon="11.5888921"><ele>360.0</ele><time>2026-04-26T11:43:31.027Z</time></trkpt><trkpt lat="43.0928597" lon="11.5890146"><ele>358.0</ele><time>2026-04-26T11:43:32.011Z</time></trkpt><trkpt lat="43.0929669" lon="11.5891506"><ele>358.0</ele><time>2026-04-26T11:43:33.035Z</time></trkpt><trkpt lat="43.0930614" lon="11.589289"><ele>358.0</ele><time>2026-04-26T11:43:34.023Z</time></trkpt><trkpt lat="43.0931495" lon="11.5894436"><ele>358.0</ele><time>2026-04-26T11:43:35.039Z</time></trkpt><trkpt lat="43.0932325" lon="11.5896116"><ele>358.0</ele><time>2026-04-26T11:43:36.026Z</time></trkpt><trkpt lat="43.0933089" lon="11.5897823"><ele>355.5</ele><time>2026-04-26T11:43:37.048Z</time></trkpt><trkpt lat="43.0933793" lon="11.5899429"><ele>353.0</ele><time>2026-04-26T11:43:38.022Z</time></trkpt><trkpt lat="43.0934551" lon="11.5900934"><ele>350.5</ele><time>2026-04-26T11:43:39.043Z</time></trkpt><trkpt lat="43.0935369" lon="11.5902277"><ele>348.0</ele><time>2026-04-26T11:43:40.019Z</time></trkpt><trkpt lat="43.0936339" lon="11.5903541"><ele>343.6666666666667</ele><time>2026-04-26T11:43:41.024Z</time></trkpt><trkpt lat="43.0937492" lon="11.590472"><ele>339.33333333333337</ele><time>2026-04-26T11:43:42.016Z</time></trkpt><trkpt lat="43.0938776" lon="11.590591"><ele>335.0</ele><time>2026-04-26T11:43:43.034Z</time></trkpt><trkpt lat="43.0940027" lon="11.5907084"><ele>335.5</ele><time>2026-04-26T11:43:44.015Z</time></trkpt><trkpt lat="43.0941211" lon="11.590823"><ele>336.0</ele><time>2026-04-26T11:43:45.029Z</time></trkpt><trkpt lat="43.0942262" lon="11.5909289"><ele>336.5</ele><time>2026-04-26T11:43:46.016Z</time></trkpt><trkpt lat="43.0943205" lon="11.5910433"><ele>337.0</ele><time>2026-04-26T11:43:47.035Z</time></trkpt><trkpt lat="43.0943992" lon="11.5911802"><ele>337.0</ele><time>2026-04-26T11:43:48.012Z</time></trkpt><trkpt lat="43.0944641" lon="11.5913461"><ele>337.0</ele><time>2026-04-26T11:43:49.031Z</time></trkpt><trkpt lat="43.0945202" lon="11.5915285"><ele>337.0</ele><time>2026-04-26T11:43:50.016Z</time></trkpt><trkpt lat="43.0945809" lon="11.5917163"><ele>337.0</ele><time>2026-04-26T11:43:51.018Z</time></trkpt><trkpt lat="43.0946505" lon="11.5919035"><ele>335.0</ele><time>2026-04-26T11:43:52.007Z</time></trkpt><trkpt lat="43.0947263" lon="11.5920964"><ele>333.0</ele><time>2026-04-26T11:43:53.01Z</time></trkpt><trkpt lat="43.0948037" lon="11.5922908"><ele>331.0</ele><time>2026-04-26T11:43:54.014Z</time></trkpt><trkpt lat="43.0948822" lon="11.5924838"><ele>335.0</ele><time>2026-04-26T11:43:55.001Z</time></trkpt><trkpt lat="43.0949645" lon="11.592675"><ele>339.0</ele><time>2026-04-26T11:43:56.019Z</time></trkpt><trkpt lat="43.0950486" lon="11.5928633"><ele>343.0</ele><time>2026-04-26T11:43:57.018Z</time></trkpt><trkpt lat="43.0951316" lon="11.5930585"><ele>343.0</ele><time>2026-04-26T11:43:58.021Z</time></trkpt><trkpt lat="43.0952135" lon="11.5932575"><ele>343.0</ele><time>2026-04-26T11:43:59.009Z</time></trkpt><trkpt lat="43.0952984" lon="11.593464"><ele>343.0</ele><time>2026-04-26T11:44:00.018Z</time></trkpt><trkpt lat="43.0953839" lon="11.593672"><ele>340.0</ele><time>2026-04-26T11:44:01.021Z</time></trkpt><trkpt lat="43.0954656" lon="11.5938718"><ele>337.0</ele><time>2026-04-26T11:44:02.009Z</time></trkpt><trkpt lat="43.0955402" lon="11.594056"><ele>334.0</ele><time>2026-04-26T11:44:03.012Z</time></trkpt><trkpt lat="43.0956076" lon="11.594225"><ele>334.0</ele><time>2026-04-26T11:44:04.013Z</time></trkpt><trkpt lat="43.09567" lon="11.5943794"><ele>334.0</ele><time>2026-04-26T11:44:05.018Z</time></trkpt><trkpt lat="43.0957281" lon="11.5945156"><ele>334.0</ele><time>2026-04-26T11:44:06.017Z</time></trkpt><trkpt lat="43.0957855" lon="11.5946357"><ele>334.0</ele><time>2026-04-26T11:44:07.015Z</time></trkpt><trkpt lat="43.0958492" lon="11.5947422"><ele>334.0</ele><time>2026-04-26T11:44:08.01Z</time></trkpt><trkpt lat="43.0959205" lon="11.594833"><ele>337.25</ele><time>2026-04-26T11:44:09.019Z</time></trkpt><trkpt lat="43.0960071" lon="11.5949108"><ele>340.5</ele><time>2026-04-26T11:44:10.024Z</time></trkpt><trkpt lat="43.0961118" lon="11.5949868"><ele>343.75</ele><time>2026-04-26T11:44:11.003Z</time></trkpt><trkpt lat="43.0962182" lon="11.5950795"><ele>347.0</ele><time>2026-04-26T11:44:12.011Z</time></trkpt><trkpt lat="43.0963018" lon="11.5951903"><ele>347.0</ele><time>2026-04-26T11:44:13.019Z</time></trkpt><trkpt lat="43.0963663" lon="11.5953226"><ele>347.0</ele><time>2026-04-26T11:44:14.011Z</time></trkpt><trkpt lat="43.0964245" lon="11.5954748"><ele>347.0</ele><time>2026-04-26T11:44:15.013Z</time></trkpt><trkpt lat="43.0964775" lon="11.5956244"><ele>347.0</ele><time>2026-04-26T11:44:16.002Z</time></trkpt><trkpt lat="43.0965255" lon="11.5957675"><ele>346.75</ele><time>2026-04-26T11:44:16.996Z</time></trkpt><trkpt lat="43.0965694" lon="11.5959197"><ele>346.5</ele><time>2026-04-26T11:44:18.002Z</time></trkpt><trkpt lat="43.0966093" lon="11.5960835"><ele>346.25</ele><time>2026-04-26T11:44:18.993Z</time></trkpt><trkpt lat="43.0966483" lon="11.5962551"><ele>346.0</ele><time>2026-04-26T11:44:20.004Z</time></trkpt><trkpt lat="43.0966899" lon="11.5964308"><ele>348.75</ele><time>2026-04-26T11:44:21.018Z</time></trkpt><trkpt lat="43.0967333" lon="11.5966058"><ele>351.5</ele><time>2026-04-26T11:44:22.009Z</time></trkpt><trkpt lat="43.0967737" lon="11.596775"><ele>354.25</ele><time>2026-04-26T11:44:23.026Z</time></trkpt><trkpt lat="43.0968087" lon="11.5969288"><ele>357.0</ele><time>2026-04-26T11:44:24.011Z</time></trkpt><trkpt lat="43.0968438" lon="11.5970628"><ele>358.0</ele><time>2026-04-26T11:44:25.016Z</time></trkpt><trkpt lat="43.0968848" lon="11.597168"><ele>359.0</ele><time>2026-04-26T11:44:26.007Z</time></trkpt><trkpt lat="43.0969333" lon="11.5972379"><ele>360.0</ele><time>2026-04-26T11:44:27.008Z</time></trkpt><trkpt lat="43.0969915" lon="11.5972771"><ele>361.0</ele><time>2026-04-26T11:44:28.026Z</time></trkpt><trkpt lat="43.0970658" lon="11.5973103"><ele>362.0</ele><time>2026-04-26T11:44:29.006Z</time></trkpt><trkpt lat="43.0971565" lon="11.5973617"><ele>363.0</ele><time>2026-04-26T11:44:30.013Z</time></trkpt><trkpt lat="43.0972499" lon="11.5974424"><ele>363.0</ele><time>2026-04-26T11:44:31.018Z</time></trkpt><trkpt lat="43.0973418" lon="11.5975482"><ele>363.0</ele><time>2026-04-26T11:44:32.025Z</time></trkpt><trkpt lat="43.097432" lon="11.5976713"><ele>363.0</ele><time>2026-04-26T11:44:33.018Z</time></trkpt><trkpt lat="43.0975296" lon="11.597811"><ele>363.0</ele><time>2026-04-26T11:44:34.021Z</time></trkpt><trkpt lat="43.0976351" lon="11.5979637"><ele>364.5</ele><time>2026-04-26T11:44:35.005Z</time></trkpt><trkpt lat="43.0977363" lon="11.5981176"><ele>366.0</ele><time>2026-04-26T11:44:36.007Z</time></trkpt><trkpt lat="43.0978223" lon="11.5982601"><ele>367.5</ele><time>2026-04-26T11:44:37.015Z</time></trkpt><trkpt lat="43.0978952" lon="11.5983821"><ele>369.0</ele><time>2026-04-26T11:44:38.003Z</time></trkpt><trkpt lat="43.0979591" lon="11.5984791"><ele>369.0</ele><time>2026-04-26T11:44:39.012Z</time></trkpt><trkpt lat="43.0980229" lon="11.5985438"><ele>369.0</ele><time>2026-04-26T11:44:39.995Z</time></trkpt><trkpt lat="43.0980941" lon="11.5985828"><ele>369.0</ele><time>2026-04-26T11:44:41.001Z</time></trkpt><trkpt lat="43.0981716" lon="11.5985857"><ele>369.0</ele><time>2026-04-26T11:44:41.999Z</time></trkpt><trkpt lat="43.0982586" lon="11.5985553"><ele>369.0</ele><time>2026-04-26T11:44:43.001Z</time></trkpt><trkpt lat="43.0983422" lon="11.5985035"><ele>369.0</ele><time>2026-04-26T11:44:44.004Z</time></trkpt><trkpt lat="43.0984077" lon="11.5984313"><ele>368.6</ele><time>2026-04-26T11:44:45.01Z</time></trkpt><trkpt lat="43.0984577" lon="11.5983381"><ele>368.2</ele><time>2026-04-26T11:44:46.02Z</time></trkpt><trkpt lat="43.0984949" lon="11.5982146"><ele>367.8</ele><time>2026-04-26T11:44:47.023Z</time></trkpt><trkpt lat="43.0985285" lon="11.5980636"><ele>367.40000000000003</ele><time>2026-04-26T11:44:48.006Z</time></trkpt><trkpt lat="43.098569" lon="11.5978929"><ele>367.0</ele><time>2026-04-26T11:44:49.017Z</time></trkpt><trkpt lat="43.0986171" lon="11.5977251"><ele>366.0</ele><time>2026-04-26T11:44:50.019Z</time></trkpt><trkpt lat="43.0986707" lon="11.5975867"><ele>365.0</ele><time>2026-04-26T11:44:51.029Z</time></trkpt><trkpt lat="43.0987235" lon="11.5974855"><ele>364.0</ele><time>2026-04-26T11:44:52.011Z</time></trkpt><trkpt lat="43.0987779" lon="11.597424"><ele>363.0</ele><time>2026-04-26T11:44:53.016Z</time></trkpt><trkpt lat="43.0989052" lon="11.5974148"><ele>362.0</ele><time>2026-04-26T11:44:55.023Z</time></trkpt><trkpt lat="43.0989915" lon="11.5974627"><ele>361.0</ele><time>2026-04-26T11:44:56.01Z</time></trkpt><trkpt lat="43.0990902" lon="11.5975265"><ele>360.0</ele><time>2026-04-26T11:44:57.02Z</time></trkpt><trkpt lat="43.0991954" lon="11.5976152"><ele>359.0</ele><time>2026-04-26T11:44:58.024Z</time></trkpt><trkpt lat="43.0992935" lon="11.5977299"><ele>358.0</ele><time>2026-04-26T11:44:59.031Z</time></trkpt><trkpt lat="43.0993918" lon="11.597858"><ele>360.0</ele><time>2026-04-26T11:45:00.017Z</time></trkpt><trkpt lat="43.0994907" lon="11.5979961"><ele>362.0</ele><time>2026-04-26T11:45:01.018Z</time></trkpt><trkpt lat="43.0995888" lon="11.5981473"><ele>364.0</ele><time>2026-04-26T11:45:02.021Z</time></trkpt><trkpt lat="43.0996857" lon="11.5983053"><ele>366.0</ele><time>2026-04-26T11:45:03.02Z</time></trkpt><trkpt lat="43.0997764" lon="11.5984515"><ele>366.0</ele><time>2026-04-26T11:45:04.003Z</time></trkpt><trkpt lat="43.0998614" lon="11.598591"><ele>366.0</ele><time>2026-04-26T11:45:05.012Z</time></trkpt><trkpt lat="43.0999398" lon="11.5987252"><ele>366.0</ele><time>2026-04-26T11:45:06.004Z</time></trkpt><trkpt lat="43.1000155" lon="11.5988521"><ele>366.0</ele><time>2026-04-26T11:45:07.001Z</time></trkpt><trkpt lat="43.1000931" lon="11.5989657"><ele>363.6</ele><time>2026-04-26T11:45:08.011Z</time></trkpt><trkpt lat="43.1001735" lon="11.5990609"><ele>361.20000000000005</ele><time>2026-04-26T11:45:09.007Z</time></trkpt><trkpt lat="43.1002581" lon="11.5991359"><ele>358.79999999999995</ele><time>2026-04-26T11:45:10.016Z</time></trkpt><trkpt lat="43.1003491" lon="11.5991897"><ele>356.4</ele><time>2026-04-26T11:45:11.031Z</time></trkpt><trkpt lat="43.1004489" lon="11.5992241"><ele>354.0</ele><time>2026-04-26T11:45:12.023Z</time></trkpt><trkpt lat="43.1005621" lon="11.5992419"><ele>354.0</ele><time>2026-04-26T11:45:13.025Z</time></trkpt><trkpt lat="43.1006854" lon="11.5992431"><ele>354.0</ele><time>2026-04-26T11:45:14.024Z</time></trkpt><trkpt lat="43.1008174" lon="11.5992291"><ele>354.0</ele><time>2026-04-26T11:45:15.045Z</time></trkpt><trkpt lat="43.1009478" lon="11.5992102"><ele>354.0</ele><time>2026-04-26T11:45:16.031Z</time></trkpt><trkpt lat="43.1010744" lon="11.5991974"><ele>352.75</ele><time>2026-04-26T11:45:17.034Z</time></trkpt><trkpt lat="43.1012039" lon="11.5991966"><ele>351.5</ele><time>2026-04-26T11:45:18.034Z</time></trkpt><trkpt lat="43.1013316" lon="11.5992155"><ele>350.25</ele><time>2026-04-26T11:45:19.044Z</time></trkpt><trkpt lat="43.1014483" lon="11.5992602"><ele>349.0</ele><time>2026-04-26T11:45:20.011Z</time></trkpt><trkpt lat="43.1015661" lon="11.5993358"><ele>349.75</ele><time>2026-04-26T11:45:21.03Z</time></trkpt><trkpt lat="43.1016763" lon="11.599431"><ele>350.5</ele><time>2026-04-26T11:45:22.017Z</time></trkpt><trkpt lat="43.1017748" lon="11.5995355"><ele>351.25</ele><time>2026-04-26T11:45:23.023Z</time></trkpt><trkpt lat="43.1018632" lon="11.5996517"><ele>352.0</ele><time>2026-04-26T11:45:24.024Z</time></trkpt><trkpt lat="43.1019414" lon="11.5997855"><ele>352.0</ele><time>2026-04-26T11:45:25.036Z</time></trkpt><trkpt lat="43.1020111" lon="11.5999351"><ele>352.0</ele><time>2026-04-26T11:45:26.019Z</time></trkpt><trkpt lat="43.1020813" lon="11.6000919"><ele>352.0</ele><time>2026-04-26T11:45:27.023Z</time></trkpt><trkpt lat="43.1021543" lon="11.6002504"><ele>352.0</ele><time>2026-04-26T11:45:28.017Z</time></trkpt><trkpt lat="43.1022297" lon="11.6004104"><ele>350.20000000000005</ele><time>2026-04-26T11:45:29.022Z</time></trkpt><trkpt lat="43.1022985" lon="11.6005634"><ele>348.4</ele><time>2026-04-26T11:45:30.008Z</time></trkpt><trkpt lat="43.1023581" lon="11.6006983"><ele>346.6</ele><time>2026-04-26T11:45:31.018Z</time></trkpt><trkpt lat="43.1024121" lon="11.6008129"><ele>344.79999999999995</ele><time>2026-04-26T11:45:32.029Z</time></trkpt><trkpt lat="43.1024689" lon="11.6009103"><ele>343.0</ele><time>2026-04-26T11:45:33.032Z</time></trkpt><trkpt lat="43.1025333" lon="11.6009898"><ele>346.16666666666663</ele><time>2026-04-26T11:45:34.022Z</time></trkpt><trkpt lat="43.1026022" lon="11.6010439"><ele>349.3333333333333</ele><time>2026-04-26T11:45:35.032Z</time></trkpt><trkpt lat="43.1026727" lon="11.6010702"><ele>352.5</ele><time>2026-04-26T11:45:36.016Z</time></trkpt><trkpt lat="43.1027448" lon="11.6010633"><ele>355.6666666666667</ele><time>2026-04-26T11:45:37.036Z</time></trkpt><trkpt lat="43.1028099" lon="11.6010261"><ele>358.83333333333337</ele><time>2026-04-26T11:45:38.008Z</time></trkpt><trkpt lat="43.1028718" lon="11.6009619"><ele>362.0</ele><time>2026-04-26T11:45:39.022Z</time></trkpt><trkpt lat="43.102936" lon="11.6008755"><ele>362.0</ele><time>2026-04-26T11:45:40.013Z</time></trkpt><trkpt lat="43.1030079" lon="11.6007775"><ele>362.0</ele><time>2026-04-26T11:45:41.023Z</time></trkpt><trkpt lat="43.1030901" lon="11.6006776"><ele>362.0</ele><time>2026-04-26T11:45:42.031Z</time></trkpt><trkpt lat="43.1031776" lon="11.6005843"><ele>362.0</ele><time>2026-04-26T11:45:43.041Z</time></trkpt><trkpt lat="43.1032655" lon="11.6005173"><ele>362.0</ele><time>2026-04-26T11:45:44.018Z</time></trkpt><trkpt lat="43.1033643" lon="11.6004798"><ele>362.25</ele><time>2026-04-26T11:45:45.047Z</time></trkpt><trkpt lat="43.1034706" lon="11.6004717"><ele>362.5</ele><time>2026-04-26T11:45:46.003Z</time></trkpt><trkpt lat="43.1035904" lon="11.6004819"><ele>362.75</ele><time>2026-04-26T11:45:47.014Z</time></trkpt><trkpt lat="43.1037215" lon="11.6004996"><ele>363.0</ele><time>2026-04-26T11:45:48.019Z</time></trkpt><trkpt lat="43.1038577" lon="11.6005213"><ele>363.0</ele><time>2026-04-26T11:45:49.01Z</time></trkpt><trkpt lat="43.1039984" lon="11.600545"><ele>363.0</ele><time>2026-04-26T11:45:50.015Z</time></trkpt><trkpt lat="43.1041436" lon="11.6005693"><ele>363.0</ele><time>2026-04-26T11:45:51.015Z</time></trkpt><trkpt lat="43.1042886" lon="11.6005952"><ele>363.0</ele><time>2026-04-26T11:45:52.01Z</time></trkpt><trkpt lat="43.1044318" lon="11.6006223"><ele>363.5</ele><time>2026-04-26T11:45:53.011Z</time></trkpt><trkpt lat="43.1045758" lon="11.6006477"><ele>364.0</ele><time>2026-04-26T11:45:54.003Z</time></trkpt><trkpt lat="43.1047188" lon="11.6006718"><ele>364.5</ele><time>2026-04-26T11:45:55.006Z</time></trkpt><trkpt lat="43.1048626" lon="11.6006987"><ele>365.0</ele><time>2026-04-26T11:45:56.007Z</time></trkpt><trkpt lat="43.1050057" lon="11.6007237"><ele>365.5</ele><time>2026-04-26T11:45:57.015Z</time></trkpt><trkpt lat="43.1051462" lon="11.6007446"><ele>366.0</ele><time>2026-04-26T11:45:58Z</time></trkpt><trkpt lat="43.105281" lon="11.6007556"><ele>366.5</ele><time>2026-04-26T11:45:59.016Z</time></trkpt><trkpt lat="43.1054019" lon="11.6007394"><ele>367.0</ele><time>2026-04-26T11:46:00.004Z</time></trkpt><trkpt lat="43.1055219" lon="11.600695"><ele>367.0</ele><time>2026-04-26T11:46:01.027Z</time></trkpt><trkpt lat="43.1056417" lon="11.600643"><ele>367.0</ele><time>2026-04-26T11:46:02.009Z</time></trkpt><trkpt lat="43.105762" lon="11.6005804"><ele>367.0</ele><time>2026-04-26T11:46:03.018Z</time></trkpt><trkpt lat="43.1058759" lon="11.6005066"><ele>367.0</ele><time>2026-04-26T11:46:04.023Z</time></trkpt><trkpt lat="43.1059833" lon="11.6004342"><ele>367.20000000000005</ele><time>2026-04-26T11:46:05.024Z</time></trkpt><trkpt lat="43.1060812" lon="11.6003761"><ele>367.4</ele><time>2026-04-26T11:46:06.022Z</time></trkpt><trkpt lat="43.1061734" lon="11.6003395"><ele>367.6</ele><time>2026-04-26T11:46:07.017Z</time></trkpt><trkpt lat="43.1062681" lon="11.6003289"><ele>367.79999999999995</ele><time>2026-04-26T11:46:08.018Z</time></trkpt><trkpt lat="43.1063682" lon="11.6003445"><ele>368.0</ele><time>2026-04-26T11:46:09.021Z</time></trkpt><trkpt lat="43.106472" lon="11.6003819"><ele>372.0</ele><time>2026-04-26T11:46:10.021Z</time></trkpt><trkpt lat="43.1065792" lon="11.6004367"><ele>376.0</ele><time>2026-04-26T11:46:11.027Z</time></trkpt><trkpt lat="43.1066921" lon="11.6005053"><ele>380.0</ele><time>2026-04-26T11:46:12.008Z</time></trkpt><trkpt lat="43.1068144" lon="11.6005831"><ele>384.0</ele><time>2026-04-26T11:46:13.021Z</time></trkpt><trkpt lat="43.1069344" lon="11.6006621"><ele>384.0</ele><time>2026-04-26T11:46:14.028Z</time></trkpt><trkpt lat="43.1070483" lon="11.6007435"><ele>384.0</ele><time>2026-04-26T11:46:15.012Z</time></trkpt><trkpt lat="43.1071621" lon="11.6008276"><ele>384.0</ele><time>2026-04-26T11:46:16.01Z</time></trkpt><trkpt lat="43.1072748" lon="11.6009121"><ele>384.0</ele><time>2026-04-26T11:46:17.011Z</time></trkpt><trkpt lat="43.107384" lon="11.6009938"><ele>383.79999999999995</ele><time>2026-04-26T11:46:18.012Z</time></trkpt><trkpt lat="43.1074845" lon="11.6010696"><ele>383.59999999999997</ele><time>2026-04-26T11:46:18.998Z</time></trkpt><trkpt lat="43.1075724" lon="11.6011373"><ele>383.4</ele><time>2026-04-26T11:46:20.001Z</time></trkpt><trkpt lat="43.1076489" lon="11.6011966"><ele>383.2</ele><time>2026-04-26T11:46:20.994Z</time></trkpt><trkpt lat="43.1077167" lon="11.6012509"><ele>383.0</ele><time>2026-04-26T11:46:22.008Z</time></trkpt><trkpt lat="43.1077751" lon="11.6013037"><ele>384.6666666666667</ele><time>2026-04-26T11:46:23.019Z</time></trkpt><trkpt lat="43.1078255" lon="11.6013605"><ele>386.33333333333337</ele><time>2026-04-26T11:46:24.01Z</time></trkpt><trkpt lat="43.1078714" lon="11.6014235"><ele>388.0</ele><time>2026-04-26T11:46:25.016Z</time></trkpt><trkpt lat="43.1079164" lon="11.60149"><ele>389.6666666666667</ele><time>2026-04-26T11:46:26.02Z</time></trkpt><trkpt lat="43.1079602" lon="11.601556"><ele>391.3333333333333</ele><time>2026-04-26T11:46:27.025Z</time></trkpt><trkpt lat="43.1079999" lon="11.6016232"><ele>393.0</ele><time>2026-04-26T11:46:28.023Z</time></trkpt><trkpt lat="43.1080523" lon="11.6017846"><ele>393.0</ele><time>2026-04-26T11:46:30.02Z</time></trkpt><trkpt lat="43.1080642" lon="11.6018916"><ele>393.0</ele><time>2026-04-26T11:46:31.011Z</time></trkpt><trkpt lat="43.1080691" lon="11.602018"><ele>393.0</ele><time>2026-04-26T11:46:32.031Z</time></trkpt><trkpt lat="43.1080662" lon="11.6021515"><ele>393.0</ele><time>2026-04-26T11:46:33.03Z</time></trkpt><trkpt lat="43.1080526" lon="11.6022859"><ele>393.0</ele><time>2026-04-26T11:46:34.021Z</time></trkpt><trkpt lat="43.1080302" lon="11.6024237"><ele>392.2</ele><time>2026-04-26T11:46:35.026Z</time></trkpt><trkpt lat="43.1080035" lon="11.6025561"><ele>391.4</ele><time>2026-04-26T11:46:36.028Z</time></trkpt><trkpt lat="43.1079733" lon="11.6026831"><ele>390.59999999999997</ele><time>2026-04-26T11:46:37.037Z</time></trkpt><trkpt lat="43.107943" lon="11.6028064"><ele>389.79999999999995</ele><time>2026-04-26T11:46:38.023Z</time></trkpt><trkpt lat="43.107911" lon="11.6029284"><ele>389.0</ele><time>2026-04-26T11:46:39.036Z</time></trkpt><trkpt lat="43.1078799" lon="11.6030484"><ele>386.79999999999995</ele><time>2026-04-26T11:46:40.023Z</time></trkpt><trkpt lat="43.1078538" lon="11.6031696"><ele>384.59999999999997</ele><time>2026-04-26T11:46:41.02Z</time></trkpt><trkpt lat="43.1078389" lon="11.6032866"><ele>382.4</ele><time>2026-04-26T11:46:42.008Z</time></trkpt><trkpt lat="43.1078399" lon="11.603404"><ele>380.2</ele><time>2026-04-26T11:46:43.008Z</time></trkpt><trkpt lat="43.1078581" lon="11.6035311"><ele>378.0</ele><time>2026-04-26T11:46:43.998Z</time></trkpt><trkpt lat="43.1078914" lon="11.6036701"><ele>376.59999999999997</ele><time>2026-04-26T11:46:45.013Z</time></trkpt><trkpt lat="43.1079329" lon="11.6038109"><ele>375.2</ele><time>2026-04-26T11:46:46.022Z</time></trkpt><trkpt lat="43.1079742" lon="11.6039439"><ele>373.8</ele><time>2026-04-26T11:46:47.017Z</time></trkpt><trkpt lat="43.108012" lon="11.604068"><ele>372.4</ele><time>2026-04-26T11:46:48.024Z</time></trkpt><trkpt lat="43.1080488" lon="11.6041839"><ele>371.0</ele><time>2026-04-26T11:46:49.041Z</time></trkpt><trkpt lat="43.1080878" lon="11.6042894"><ele>371.0</ele><time>2026-04-26T11:46:50.014Z</time></trkpt><trkpt lat="43.1081347" lon="11.6043881"><ele>371.0</ele><time>2026-04-26T11:46:51.021Z</time></trkpt><trkpt lat="43.1081926" lon="11.6044775"><ele>371.0</ele><time>2026-04-26T11:46:52.037Z</time></trkpt><trkpt lat="43.1082614" lon="11.6045596"><ele>371.0</ele><time>2026-04-26T11:46:53.021Z</time></trkpt><trkpt lat="43.1083425" lon="11.6046443"><ele>371.0</ele><time>2026-04-26T11:46:54.03Z</time></trkpt><trkpt lat="43.1084327" lon="11.6047298"><ele>372.25</ele><time>2026-04-26T11:46:55.032Z</time></trkpt><trkpt lat="43.1085318" lon="11.6048191"><ele>373.5</ele><time>2026-04-26T11:46:56.022Z</time></trkpt><trkpt lat="43.1086347" lon="11.6049098"><ele>374.75</ele><time>2026-04-26T11:46:57.026Z</time></trkpt><trkpt lat="43.1087367" lon="11.6049998"><ele>376.0</ele><time>2026-04-26T11:46:58.033Z</time></trkpt><trkpt lat="43.1088431" lon="11.6050971"><ele>376.0</ele><time>2026-04-26T11:46:59.039Z</time></trkpt><trkpt lat="43.1089539" lon="11.6051982"><ele>376.0</ele><time>2026-04-26T11:47:00.018Z</time></trkpt><trkpt lat="43.1090719" lon="11.6053037"><ele>376.0</ele><time>2026-04-26T11:47:01.028Z</time></trkpt><trkpt lat="43.1091935" lon="11.6054137"><ele>376.0</ele><time>2026-04-26T11:47:02.035Z</time></trkpt><trkpt lat="43.1093177" lon="11.6055279"><ele>375.66666666666663</ele><time>2026-04-26T11:47:03.016Z</time></trkpt><trkpt lat="43.1094451" lon="11.6056504"><ele>375.3333333333333</ele><time>2026-04-26T11:47:04.032Z</time></trkpt><trkpt lat="43.1095732" lon="11.6057738"><ele>375.0</ele><time>2026-04-26T11:47:05.012Z</time></trkpt><trkpt lat="43.1097044" lon="11.6059003"><ele>375.0</ele><time>2026-04-26T11:47:06.024Z</time></trkpt><trkpt lat="43.1098313" lon="11.6060264"><ele>375.0</ele><time>2026-04-26T11:47:07.013Z</time></trkpt><trkpt lat="43.1099599" lon="11.6061496"><ele>375.0</ele><time>2026-04-26T11:47:08.01Z</time></trkpt><trkpt lat="43.1100822" lon="11.6062663"><ele>374.25</ele><time>2026-04-26T11:47:09.017Z</time></trkpt><trkpt lat="43.1101943" lon="11.6063768"><ele>373.5</ele><time>2026-04-26T11:47:10.037Z</time></trkpt><trkpt lat="43.1103047" lon="11.6064851"><ele>372.75</ele><time>2026-04-26T11:47:11.04Z</time></trkpt><trkpt lat="43.1104088" lon="11.6065873"><ele>372.0</ele><time>2026-04-26T11:47:12.032Z</time></trkpt><trkpt lat="43.1105047" lon="11.6066704"><ele>372.0</ele><time>2026-04-26T11:47:13.035Z</time></trkpt><trkpt lat="43.1106053" lon="11.6067321"><ele>372.0</ele><time>2026-04-26T11:47:14.024Z</time></trkpt><trkpt lat="43.1107217" lon="11.6067857"><ele>372.0</ele><time>2026-04-26T11:47:15.037Z</time></trkpt><trkpt lat="43.1108509" lon="11.6068472"><ele>372.0</ele><time>2026-04-26T11:47:16.037Z</time></trkpt><trkpt lat="43.1109836" lon="11.6069297"><ele>369.6666666666667</ele><time>2026-04-26T11:47:17.04Z</time></trkpt><trkpt lat="43.1111144" lon="11.6070334"><ele>367.33333333333337</ele><time>2026-04-26T11:47:18.02Z</time></trkpt><trkpt lat="43.1112481" lon="11.6071528"><ele>365.0</ele><time>2026-04-26T11:47:19.041Z</time></trkpt><trkpt lat="43.1113795" lon="11.6072746"><ele>365.0</ele><time>2026-04-26T11:47:20.019Z</time></trkpt><trkpt lat="43.111506" lon="11.6073921"><ele>365.0</ele><time>2026-04-26T11:47:21.031Z</time></trkpt><trkpt lat="43.1116174" lon="11.6074995"><ele>365.0</ele><time>2026-04-26T11:47:22.032Z</time></trkpt><trkpt lat="43.1117214" lon="11.6075977"><ele>365.0</ele><time>2026-04-26T11:47:23.037Z</time></trkpt><trkpt lat="43.111826" lon="11.6076875"><ele>365.0</ele><time>2026-04-26T11:47:24.027Z</time></trkpt><trkpt lat="43.1119366" lon="11.6077776"><ele>365.0</ele><time>2026-04-26T11:47:25.046Z</time></trkpt><trkpt lat="43.1120495" lon="11.6078719"><ele>365.0</ele><time>2026-04-26T11:47:26.022Z</time></trkpt><trkpt lat="43.112168" lon="11.6079783"><ele>365.0</ele><time>2026-04-26T11:47:27.035Z</time></trkpt><trkpt lat="43.1122876" lon="11.6080928"><ele>365.0</ele><time>2026-04-26T11:47:28.027Z</time></trkpt><trkpt lat="43.1124085" lon="11.6082184"><ele>365.0</ele><time>2026-04-26T11:47:29.038Z</time></trkpt><trkpt lat="43.1125295" lon="11.608351"><ele>365.0</ele><time>2026-04-26T11:47:30.042Z</time></trkpt><trkpt lat="43.11265" lon="11.6084872"><ele>365.0</ele><time>2026-04-26T11:47:31.024Z</time></trkpt><trkpt lat="43.1127669" lon="11.608633"><ele>365.0</ele><time>2026-04-26T11:47:32.022Z</time></trkpt><trkpt lat="43.112872" lon="11.6087908"><ele>365.0</ele><time>2026-04-26T11:47:33.014Z</time></trkpt><trkpt lat="43.1129667" lon="11.6089548"><ele>366.0</ele><time>2026-04-26T11:47:34.01Z</time></trkpt><trkpt lat="43.1130537" lon="11.6091235"><ele>367.0</ele><time>2026-04-26T11:47:35.026Z</time></trkpt><trkpt lat="43.1131311" lon="11.609297"><ele>368.0</ele><time>2026-04-26T11:47:36.03Z</time></trkpt><trkpt lat="43.1132018" lon="11.6094746"><ele>369.0</ele><time>2026-04-26T11:47:37.049Z</time></trkpt><trkpt lat="43.1132621" lon="11.6096447"><ele>369.0</ele><time>2026-04-26T11:47:38.056Z</time></trkpt><trkpt lat="43.1133156" lon="11.6098022"><ele>369.0</ele><time>2026-04-26T11:47:39.043Z</time></trkpt><trkpt lat="43.113371" lon="11.6099512"><ele>369.0</ele><time>2026-04-26T11:47:40.039Z</time></trkpt><trkpt lat="43.1134348" lon="11.6100976"><ele>369.0</ele><time>2026-04-26T11:47:41.047Z</time></trkpt><trkpt lat="43.1135075" lon="11.6102435"><ele>367.25</ele><time>2026-04-26T11:47:42.03Z</time></trkpt><trkpt lat="43.1135876" lon="11.6103959"><ele>365.5</ele><time>2026-04-26T11:47:43.04Z</time></trkpt><trkpt lat="43.1136695" lon="11.6105541"><ele>363.75</ele><time>2026-04-26T11:47:44.027Z</time></trkpt><trkpt lat="43.1137496" lon="11.6107123"><ele>362.0</ele><time>2026-04-26T11:47:45.028Z</time></trkpt><trkpt lat="43.1138255" lon="11.6108541"><ele>362.0</ele><time>2026-04-26T11:47:46.033Z</time></trkpt><trkpt lat="43.1139002" lon="11.6109789"><ele>362.0</ele><time>2026-04-26T11:47:47.023Z</time></trkpt><trkpt lat="43.1139806" lon="11.6110956"><ele>362.0</ele><time>2026-04-26T11:47:48.031Z</time></trkpt><trkpt lat="43.1140691" lon="11.6112053"><ele>362.0</ele><time>2026-04-26T11:47:49.034Z</time></trkpt><trkpt lat="43.1141659" lon="11.611312"><ele>363.5</ele><time>2026-04-26T11:47:50.031Z</time></trkpt><trkpt lat="43.1142663" lon="11.6114264"><ele>365.0</ele><time>2026-04-26T11:47:51.016Z</time></trkpt><trkpt lat="43.1143647" lon="11.6115615"><ele>366.5</ele><time>2026-04-26T11:47:52.033Z</time></trkpt><trkpt lat="43.1144555" lon="11.6117157"><ele>368.0</ele><time>2026-04-26T11:47:53.021Z</time></trkpt><trkpt lat="43.114537" lon="11.6118806"><ele>366.0</ele><time>2026-04-26T11:47:54.025Z</time></trkpt><trkpt lat="43.114603" lon="11.61205"><ele>364.0</ele><time>2026-04-26T11:47:55.025Z</time></trkpt><trkpt lat="43.1146527" lon="11.6122301"><ele>362.0</ele><time>2026-04-26T11:47:56.011Z</time></trkpt><trkpt lat="43.1146892" lon="11.6124074"><ele>360.0</ele><time>2026-04-26T11:47:57.017Z</time></trkpt><trkpt lat="43.1147251" lon="11.6125667"><ele>360.0</ele><time>2026-04-26T11:47:58.004Z</time></trkpt><trkpt lat="43.1147735" lon="11.6127118"><ele>360.0</ele><time>2026-04-26T11:47:59.02Z</time></trkpt><trkpt lat="43.114834" lon="11.6128426"><ele>360.0</ele><time>2026-04-26T11:48:00.025Z</time></trkpt><trkpt lat="43.1149089" lon="11.6129732"><ele>360.0</ele><time>2026-04-26T11:48:01.03Z</time></trkpt><trkpt lat="43.1149966" lon="11.6131099"><ele>361.25</ele><time>2026-04-26T11:48:02.027Z</time></trkpt><trkpt lat="43.115092" lon="11.6132536"><ele>362.5</ele><time>2026-04-26T11:48:03.047Z</time></trkpt><trkpt lat="43.1151883" lon="11.6134027"><ele>363.75</ele><time>2026-04-26T11:48:04.028Z</time></trkpt><trkpt lat="43.1152808" lon="11.6135534"><ele>365.0</ele><time>2026-04-26T11:48:05.041Z</time></trkpt><trkpt lat="43.1153663" lon="11.613685"><ele>365.0</ele><time>2026-04-26T11:48:06.043Z</time></trkpt><trkpt lat="43.1154564" lon="11.613804"><ele>365.0</ele><time>2026-04-26T11:48:07.043Z</time></trkpt><trkpt lat="43.1155562" lon="11.6139172"><ele>365.0</ele><time>2026-04-26T11:48:08.034Z</time></trkpt><trkpt lat="43.1156654" lon="11.6140285"><ele>365.0</ele><time>2026-04-26T11:48:09.056Z</time></trkpt><trkpt lat="43.1157723" lon="11.6141365"><ele>367.75</ele><time>2026-04-26T11:48:10.034Z</time></trkpt><trkpt lat="43.1158678" lon="11.6142493"><ele>370.5</ele><time>2026-04-26T11:48:11.046Z</time></trkpt><trkpt lat="43.115945" lon="11.6143749"><ele>373.25</ele><time>2026-04-26T11:48:12.048Z</time></trkpt><trkpt lat="43.1160076" lon="11.6145199"><ele>376.0</ele><time>2026-04-26T11:48:13.063Z</time></trkpt><trkpt lat="43.1160528" lon="11.6146807"><ele>376.25</ele><time>2026-04-26T11:48:14.049Z</time></trkpt><trkpt lat="43.1160796" lon="11.6148581"><ele>376.5</ele><time>2026-04-26T11:48:15.047Z</time></trkpt><trkpt lat="43.1160904" lon="11.6150462"><ele>376.75</ele><time>2026-04-26T11:48:16.039Z</time></trkpt><trkpt lat="43.1160882" lon="11.6152478"><ele>377.0</ele><time>2026-04-26T11:48:17.053Z</time></trkpt><trkpt lat="43.1160794" lon="11.6154571"><ele>377.5</ele><time>2026-04-26T11:48:18.036Z</time></trkpt><trkpt lat="43.1160674" lon="11.6156639"><ele>378.0</ele><time>2026-04-26T11:48:19.043Z</time></trkpt><trkpt lat="43.1160515" lon="11.615854"><ele>378.5</ele><time>2026-04-26T11:48:20.022Z</time></trkpt><trkpt lat="43.1160259" lon="11.6160325"><ele>379.0</ele><time>2026-04-26T11:48:21.022Z</time></trkpt><trkpt lat="43.1159879" lon="11.6161895"><ele>379.5</ele><time>2026-04-26T11:48:22.021Z</time></trkpt><trkpt lat="43.1159392" lon="11.6163313"><ele>380.0</ele><time>2026-04-26T11:48:23.028Z</time></trkpt><trkpt lat="43.1158826" lon="11.616469"><ele>380.5</ele><time>2026-04-26T11:48:24.043Z</time></trkpt><trkpt lat="43.1158212" lon="11.6166093"><ele>381.0</ele><time>2026-04-26T11:48:25.048Z</time></trkpt><trkpt lat="43.1157565" lon="11.6167573"><ele>381.25</ele><time>2026-04-26T11:48:26.039Z</time></trkpt><trkpt lat="43.1156884" lon="11.6169156"><ele>381.5</ele><time>2026-04-26T11:48:27.041Z</time></trkpt><trkpt lat="43.1156172" lon="11.6170807"><ele>381.75</ele><time>2026-04-26T11:48:28.048Z</time></trkpt><trkpt lat="43.1155447" lon="11.617247"><ele>382.0</ele><time>2026-04-26T11:48:29.027Z</time></trkpt><trkpt lat="43.1154728" lon="11.6174105"><ele>382.0</ele><time>2026-04-26T11:48:30.039Z</time></trkpt><trkpt lat="43.1154063" lon="11.6175592"><ele>382.0</ele><time>2026-04-26T11:48:31.049Z</time></trkpt><trkpt lat="43.1153467" lon="11.6176976"><ele>382.0</ele><time>2026-04-26T11:48:32.048Z</time></trkpt><trkpt lat="43.115294" lon="11.6178353"><ele>382.0</ele><time>2026-04-26T11:48:33.047Z</time></trkpt><trkpt lat="43.1152495" lon="11.6179699"><ele>383.16666666666663</ele><time>2026-04-26T11:48:34.036Z</time></trkpt><trkpt lat="43.1152137" lon="11.618094"><ele>384.3333333333333</ele><time>2026-04-26T11:48:35.047Z</time></trkpt><trkpt lat="43.1151878" lon="11.6181967"><ele>385.5</ele><time>2026-04-26T11:48:36.027Z</time></trkpt><trkpt lat="43.1151676" lon="11.6182857"><ele>386.66666666666663</ele><time>2026-04-26T11:48:37.045Z</time></trkpt><trkpt lat="43.1151442" lon="11.618429"><ele>387.8333333333333</ele><time>2026-04-26T11:48:39.051Z</time></trkpt><trkpt lat="43.1151504" lon="11.6185151"><ele>389.0</ele><time>2026-04-26T11:48:41.039Z</time></trkpt><trkpt lat="43.1152329" lon="11.6185298"><ele>389.0</ele><time>2026-04-26T11:48:45.021Z</time></trkpt><trkpt lat="43.115323" lon="11.6185394"><ele>389.0</ele><time>2026-04-26T11:48:47.018Z</time></trkpt><trkpt lat="43.1154553" lon="11.6185921"><ele>389.0</ele><time>2026-04-26T11:48:49.034Z</time></trkpt><trkpt lat="43.1155399" lon="11.6186158"><ele>389.0</ele><time>2026-04-26T11:48:50.024Z</time></trkpt><trkpt lat="43.1156357" lon="11.6186316"><ele>389.0</ele><time>2026-04-26T11:48:51.045Z</time></trkpt><trkpt lat="43.1157346" lon="11.618642"><ele>388.4</ele><time>2026-04-26T11:48:52.03Z</time></trkpt><trkpt lat="43.1158333" lon="11.6186502"><ele>387.79999999999995</ele><time>2026-04-26T11:48:53.041Z</time></trkpt><trkpt lat="43.1159274" lon="11.6186518"><ele>387.20000000000005</ele><time>2026-04-26T11:48:54.023Z</time></trkpt><trkpt lat="43.1160186" lon="11.6186401"><ele>386.6</ele><time>2026-04-26T11:48:55.043Z</time></trkpt><trkpt lat="43.1161131" lon="11.618615"><ele>386.0</ele><time>2026-04-26T11:48:56.047Z</time></trkpt><trkpt lat="43.1162201" lon="11.6185792"><ele>386.0</ele><time>2026-04-26T11:48:57.035Z</time></trkpt><trkpt lat="43.1163344" lon="11.6185375"><ele>386.0</ele><time>2026-04-26T11:48:58.032Z</time></trkpt><trkpt lat="43.116447" lon="11.6184983"><ele>386.0</ele><time>2026-04-26T11:48:59.051Z</time></trkpt><trkpt lat="43.1165585" lon="11.6184735"><ele>386.0</ele><time>2026-04-26T11:49:00.035Z</time></trkpt><trkpt lat="43.1166796" lon="11.6184624"><ele>384.0</ele><time>2026-04-26T11:49:01.042Z</time></trkpt><trkpt lat="43.1168029" lon="11.6184644"><ele>382.0</ele><time>2026-04-26T11:49:02.031Z</time></trkpt><trkpt lat="43.1169198" lon="11.6184749"><ele>380.0</ele><time>2026-04-26T11:49:03.042Z</time></trkpt><trkpt lat="43.117029" lon="11.618489"><ele>378.0</ele><time>2026-04-26T11:49:04.033Z</time></trkpt><trkpt lat="43.1171445" lon="11.618504"><ele>378.0</ele><time>2026-04-26T11:49:05.043Z</time></trkpt><trkpt lat="43.1172705" lon="11.6185197"><ele>378.0</ele><time>2026-04-26T11:49:06.034Z</time></trkpt><trkpt lat="43.117404" lon="11.6185353"><ele>378.0</ele><time>2026-04-26T11:49:07.04Z</time></trkpt><trkpt lat="43.1175441" lon="11.618548"><ele>378.0</ele><time>2026-04-26T11:49:08.028Z</time></trkpt><trkpt lat="43.1176935" lon="11.6185565"><ele>376.3333333333333</ele><time>2026-04-26T11:49:09.039Z</time></trkpt><trkpt lat="43.1178486" lon="11.6185591"><ele>374.66666666666663</ele><time>2026-04-26T11:49:10.014Z</time></trkpt><trkpt lat="43.118012" lon="11.6185606"><ele>373.0</ele><time>2026-04-26T11:49:11.017Z</time></trkpt><trkpt lat="43.1181761" lon="11.6185635"><ele>372.3333333333333</ele><time>2026-04-26T11:49:12.023Z</time></trkpt><trkpt lat="43.1183388" lon="11.6185667"><ele>371.6666666666667</ele><time>2026-04-26T11:49:13.029Z</time></trkpt><trkpt lat="43.1185001" lon="11.6185719"><ele>371.0</ele><time>2026-04-26T11:49:14.043Z</time></trkpt><trkpt lat="43.1186564" lon="11.6185813"><ele>371.0</ele><time>2026-04-26T11:49:15.024Z</time></trkpt><trkpt lat="43.1188132" lon="11.6185943"><ele>371.0</ele><time>2026-04-26T11:49:16.043Z</time></trkpt><trkpt lat="43.1189652" lon="11.6186112"><ele>371.0</ele><time>2026-04-26T11:49:17.043Z</time></trkpt><trkpt lat="43.1191127" lon="11.618631"><ele>370.5</ele><time>2026-04-26T11:49:18.035Z</time></trkpt><trkpt lat="43.1192601" lon="11.6186505"><ele>370.0</ele><time>2026-04-26T11:49:19.044Z</time></trkpt><trkpt lat="43.1194084" lon="11.618669"><ele>369.5</ele><time>2026-04-26T11:49:20.033Z</time></trkpt><trkpt lat="43.119559" lon="11.6186836"><ele>369.0</ele><time>2026-04-26T11:49:21.039Z</time></trkpt><trkpt lat="43.1197055" lon="11.6186941"><ele>369.0</ele><time>2026-04-26T11:49:22.032Z</time></trkpt><trkpt lat="43.1198408" lon="11.6187038"><ele>369.0</ele><time>2026-04-26T11:49:23.04Z</time></trkpt><trkpt lat="43.1199603" lon="11.6187147"><ele>369.0</ele><time>2026-04-26T11:49:24.033Z</time></trkpt><trkpt lat="43.1200681" lon="11.6187243"><ele>369.0</ele><time>2026-04-26T11:49:25.049Z</time></trkpt><trkpt lat="43.1201618" lon="11.6187328"><ele>370.0</ele><time>2026-04-26T11:49:26.035Z</time></trkpt><trkpt lat="43.1202449" lon="11.6187407"><ele>371.0</ele><time>2026-04-26T11:49:27.065Z</time></trkpt><trkpt lat="43.1203144" lon="11.6187492"><ele>372.0</ele><time>2026-04-26T11:49:28.041Z</time></trkpt><trkpt lat="43.1204154" lon="11.6187778"><ele>373.0</ele><time>2026-04-26T11:49:30.034Z</time></trkpt><trkpt lat="43.1204856" lon="11.6188063"><ele>374.0</ele><time>2026-04-26T11:49:33.031Z</time></trkpt><trkpt lat="43.1205736" lon="11.618777"><ele>375.0</ele><time>2026-04-26T11:52:54.033Z</time></trkpt><trkpt lat="43.1206777" lon="11.6187426"><ele>376.0</ele><time>2026-04-26T11:52:56.039Z</time></trkpt><trkpt lat="43.1207431" lon="11.6187129"><ele>377.0</ele><time>2026-04-26T11:52:57.051Z</time></trkpt><trkpt lat="43.1208171" lon="11.6186724"><ele>378.0</ele><time>2026-04-26T11:52:58.039Z</time></trkpt><trkpt lat="43.120898" lon="11.6186145"><ele>379.0</ele><time>2026-04-26T11:52:59.045Z</time></trkpt><trkpt lat="43.1209827" lon="11.6185396"><ele>380.0</ele><time>2026-04-26T11:53:00.032Z</time></trkpt><trkpt lat="43.1210705" lon="11.6184498"><ele>380.0</ele><time>2026-04-26T11:53:01.047Z</time></trkpt><trkpt lat="43.1211615" lon="11.6183487"><ele>380.0</ele><time>2026-04-26T11:53:02.047Z</time></trkpt><trkpt lat="43.1212568" lon="11.6182451"><ele>380.0</ele><time>2026-04-26T11:53:03.059Z</time></trkpt><trkpt lat="43.1213543" lon="11.6181447"><ele>380.0</ele><time>2026-04-26T11:53:04.039Z</time></trkpt><trkpt lat="43.1214521" lon="11.6180451"><ele>380.0</ele><time>2026-04-26T11:53:05.049Z</time></trkpt><trkpt lat="43.121544" lon="11.6179499"><ele>380.0</ele><time>2026-04-26T11:53:06.034Z</time></trkpt><trkpt lat="43.121634" lon="11.6178545"><ele>380.0</ele><time>2026-04-26T11:53:07.053Z</time></trkpt><trkpt lat="43.1217244" lon="11.6177585"><ele>380.0</ele><time>2026-04-26T11:53:08.03Z</time></trkpt><trkpt lat="43.121819" lon="11.6176591"><ele>380.75</ele><time>2026-04-26T11:53:09.041Z</time></trkpt><trkpt lat="43.1219182" lon="11.6175561"><ele>381.5</ele><time>2026-04-26T11:53:10.044Z</time></trkpt><trkpt lat="43.1220196" lon="11.6174523"><ele>382.25</ele><time>2026-04-26T11:53:11.043Z</time></trkpt><trkpt lat="43.1221186" lon="11.617352"><ele>383.0</ele><time>2026-04-26T11:53:12.033Z</time></trkpt><trkpt lat="43.1222164" lon="11.6172535"><ele>383.0</ele><time>2026-04-26T11:53:13.037Z</time></trkpt><trkpt lat="43.1223136" lon="11.6171544"><ele>383.0</ele><time>2026-04-26T11:53:14.027Z</time></trkpt><trkpt lat="43.1224111" lon="11.6170483"><ele>383.0</ele><time>2026-04-26T11:53:15.03Z</time></trkpt><trkpt lat="43.1225055" lon="11.6169311"><ele>383.0</ele><time>2026-04-26T11:53:16.016Z</time></trkpt><trkpt lat="43.1225956" lon="11.6168028"><ele>380.75</ele><time>2026-04-26T11:53:17.035Z</time></trkpt><trkpt lat="43.1226801" lon="11.6166697"><ele>378.5</ele><time>2026-04-26T11:53:18.027Z</time></trkpt><trkpt lat="43.1227627" lon="11.6165328"><ele>376.25</ele><time>2026-04-26T11:53:19.038Z</time></trkpt><trkpt lat="43.12284" lon="11.6163959"><ele>374.0</ele><time>2026-04-26T11:53:20.031Z</time></trkpt><trkpt lat="43.1229122" lon="11.616251"><ele>373.25</ele><time>2026-04-26T11:53:21.053Z</time></trkpt><trkpt lat="43.1229778" lon="11.6161023"><ele>372.5</ele><time>2026-04-26T11:53:22.049Z</time></trkpt><trkpt lat="43.1230416" lon="11.6159512"><ele>371.75</ele><time>2026-04-26T11:53:23.048Z</time></trkpt><trkpt lat="43.123107" lon="11.6158001"><ele>371.0</ele><time>2026-04-26T11:53:24.046Z</time></trkpt><trkpt lat="43.123174" lon="11.615658"><ele>371.8</ele><time>2026-04-26T11:53:25.053Z</time></trkpt><trkpt lat="43.1232384" lon="11.615531"><ele>372.6</ele><time>2026-04-26T11:53:26.042Z</time></trkpt><trkpt lat="43.1233034" lon="11.6154083"><ele>373.4</ele><time>2026-04-26T11:53:27.056Z</time></trkpt><trkpt lat="43.1233696" lon="11.6152873"><ele>374.2</ele><time>2026-04-26T11:53:28.045Z</time></trkpt><trkpt lat="43.1234366" lon="11.6151681"><ele>375.0</ele><time>2026-04-26T11:53:29.051Z</time></trkpt><trkpt lat="43.1235046" lon="11.6150565"><ele>376.4</ele><time>2026-04-26T11:53:30.043Z</time></trkpt><trkpt lat="43.1235741" lon="11.6149493"><ele>377.8</ele><time>2026-04-26T11:53:31.056Z</time></trkpt><trkpt lat="43.1236423" lon="11.6148474"><ele>379.20000000000005</ele><time>2026-04-26T11:53:32.047Z</time></trkpt><trkpt lat="43.123708" lon="11.6147534"><ele>380.6</ele><time>2026-04-26T11:53:33.056Z</time></trkpt><trkpt lat="43.123769" lon="11.6146741"><ele>382.0</ele><time>2026-04-26T11:53:34.047Z</time></trkpt><trkpt lat="43.1238269" lon="11.6146076"><ele>382.0</ele><time>2026-04-26T11:53:35.042Z</time></trkpt><trkpt lat="43.1238848" lon="11.6145503"><ele>382.0</ele><time>2026-04-26T11:53:36.028Z</time></trkpt><trkpt lat="43.1239443" lon="11.6144985"><ele>382.0</ele><time>2026-04-26T11:53:37.048Z</time></trkpt><trkpt lat="43.1240032" lon="11.6144527"><ele>382.0</ele><time>2026-04-26T11:53:38.021Z</time></trkpt><trkpt lat="43.1240632" lon="11.6144128"><ele>382.0</ele><time>2026-04-26T11:53:39.033Z</time></trkpt><trkpt lat="43.1241222" lon="11.6143817"><ele>382.0</ele><time>2026-04-26T11:53:40.012Z</time></trkpt><trkpt lat="43.1242351" lon="11.6143421"><ele>383.16666666666663</ele><time>2026-04-26T11:53:42.029Z</time></trkpt><trkpt lat="43.1243594" lon="11.6143171"><ele>384.3333333333333</ele><time>2026-04-26T11:53:44.039Z</time></trkpt><trkpt lat="43.1244299" lon="11.614299"><ele>385.5</ele><time>2026-04-26T11:53:45.05Z</time></trkpt><trkpt lat="43.1245061" lon="11.614279"><ele>386.66666666666663</ele><time>2026-04-26T11:53:46.035Z</time></trkpt><trkpt lat="43.1245877" lon="11.6142614"><ele>387.8333333333333</ele><time>2026-04-26T11:53:47.044Z</time></trkpt><trkpt lat="43.1246705" lon="11.614246"><ele>389.0</ele><time>2026-04-26T11:53:48.038Z</time></trkpt><trkpt lat="43.124757" lon="11.6142344"><ele>389.0</ele><time>2026-04-26T11:53:49.056Z</time></trkpt><trkpt lat="43.1248523" lon="11.6142335"><ele>389.0</ele><time>2026-04-26T11:53:50.036Z</time></trkpt><trkpt lat="43.1249573" lon="11.6142511"><ele>389.0</ele><time>2026-04-26T11:53:51.038Z</time></trkpt><trkpt lat="43.1250677" lon="11.6142866"><ele>389.0</ele><time>2026-04-26T11:53:52.042Z</time></trkpt><trkpt lat="43.1251815" lon="11.6143371"><ele>389.0</ele><time>2026-04-26T11:53:53.041Z</time></trkpt><trkpt lat="43.1252972" lon="11.6143978"><ele>387.25</ele><time>2026-04-26T11:53:54.04Z</time></trkpt><trkpt lat="43.1254144" lon="11.6144578"><ele>385.5</ele><time>2026-04-26T11:53:55.053Z</time></trkpt><trkpt lat="43.1255314" lon="11.6145069"><ele>383.75</ele><time>2026-04-26T11:53:56.04Z</time></trkpt><trkpt lat="43.1256493" lon="11.6145386"><ele>382.0</ele><time>2026-04-26T11:53:57.034Z</time></trkpt><trkpt lat="43.1257702" lon="11.6145493"><ele>381.25</ele><time>2026-04-26T11:53:58.041Z</time></trkpt><trkpt lat="43.1258927" lon="11.6145425"><ele>380.5</ele><time>2026-04-26T11:53:59.032Z</time></trkpt><trkpt lat="43.1260174" lon="11.6145243"><ele>379.75</ele><time>2026-04-26T11:54:00.04Z</time></trkpt><trkpt lat="43.1261412" lon="11.6145021"><ele>379.0</ele><time>2026-04-26T11:54:01.04Z</time></trkpt><trkpt lat="43.1262638" lon="11.6144828"><ele>379.0</ele><time>2026-04-26T11:54:02.032Z</time></trkpt><trkpt lat="43.1263895" lon="11.6144664"><ele>379.0</ele><time>2026-04-26T11:54:03.037Z</time></trkpt><trkpt lat="43.1265176" lon="11.6144522"><ele>379.0</ele><time>2026-04-26T11:54:04.017Z</time></trkpt><trkpt lat="43.1266477" lon="11.6144421"><ele>379.0</ele><time>2026-04-26T11:54:05.024Z</time></trkpt><trkpt lat="43.1267702" lon="11.6144328"><ele>378.79999999999995</ele><time>2026-04-26T11:54:06.018Z</time></trkpt><trkpt lat="43.1268835" lon="11.614424"><ele>378.59999999999997</ele><time>2026-04-26T11:54:07.033Z</time></trkpt><trkpt lat="43.1269866" lon="11.614412"><ele>378.4</ele><time>2026-04-26T11:54:08.023Z</time></trkpt><trkpt lat="43.1270836" lon="11.6143944"><ele>378.2</ele><time>2026-04-26T11:54:09.035Z</time></trkpt><trkpt lat="43.1271751" lon="11.6143677"><ele>378.0</ele><time>2026-04-26T11:54:10.025Z</time></trkpt><trkpt lat="43.1272653" lon="11.6143238"><ele>378.0</ele><time>2026-04-26T11:54:11.036Z</time></trkpt><trkpt lat="43.1273498" lon="11.6142613"><ele>378.0</ele><time>2026-04-26T11:54:12.023Z</time></trkpt><trkpt lat="43.1274294" lon="11.6141793"><ele>378.0</ele><time>2026-04-26T11:54:13.045Z</time></trkpt><trkpt lat="43.127506" lon="11.614078"><ele>378.0</ele><time>2026-04-26T11:54:14.044Z</time></trkpt><trkpt lat="43.1275867" lon="11.6139579"><ele>378.0</ele><time>2026-04-26T11:54:15.046Z</time></trkpt><trkpt lat="43.1276742" lon="11.6138264"><ele>377.25</ele><time>2026-04-26T11:54:16.038Z</time></trkpt><trkpt lat="43.127767" lon="11.6136984"><ele>376.5</ele><time>2026-04-26T11:54:17.052Z</time></trkpt><trkpt lat="43.1278559" lon="11.6135859"><ele>375.75</ele><time>2026-04-26T11:54:18.032Z</time></trkpt><trkpt lat="43.1279454" lon="11.6134897"><ele>375.0</ele><time>2026-04-26T11:54:19.033Z</time></trkpt><trkpt lat="43.1280384" lon="11.6134088"><ele>373.75</ele><time>2026-04-26T11:54:20.043Z</time></trkpt><trkpt lat="43.1281403" lon="11.6133309"><ele>372.5</ele><time>2026-04-26T11:54:21.057Z</time></trkpt><trkpt lat="43.1282501" lon="11.6132504"><ele>371.25</ele><time>2026-04-26T11:54:22.046Z</time></trkpt><trkpt lat="43.128361" lon="11.6131713"><ele>370.0</ele><time>2026-04-26T11:54:23.057Z</time></trkpt><trkpt lat="43.1284672" lon="11.6130985"><ele>369.6</ele><time>2026-04-26T11:54:24.048Z</time></trkpt><trkpt lat="43.1285668" lon="11.6130304"><ele>369.2</ele><time>2026-04-26T11:54:25.051Z</time></trkpt><trkpt lat="43.1286544" lon="11.6129609"><ele>368.79999999999995</ele><time>2026-04-26T11:54:26.036Z</time></trkpt><trkpt lat="43.1287269" lon="11.6128806"><ele>368.4</ele><time>2026-04-26T11:54:27.038Z</time></trkpt><trkpt lat="43.1287773" lon="11.6127869"><ele>368.0</ele><time>2026-04-26T11:54:28.023Z</time></trkpt><trkpt lat="43.1288049" lon="11.6126745"><ele>366.25</ele><time>2026-04-26T11:54:29.031Z</time></trkpt><trkpt lat="43.1288169" lon="11.6125406"><ele>364.5</ele><time>2026-04-26T11:54:30.029Z</time></trkpt><trkpt lat="43.1288191" lon="11.6123876"><ele>362.75</ele><time>2026-04-26T11:54:31.024Z</time></trkpt><trkpt lat="43.1288187" lon="11.6122129"><ele>361.0</ele><time>2026-04-26T11:54:32.027Z</time></trkpt><trkpt lat="43.1288201" lon="11.6120191"><ele>358.66666666666663</ele><time>2026-04-26T11:54:33.042Z</time></trkpt><trkpt lat="43.1288271" lon="11.6118145"><ele>356.3333333333333</ele><time>2026-04-26T11:54:34.018Z</time></trkpt><trkpt lat="43.1288395" lon="11.6115981"><ele>354.0</ele><time>2026-04-26T11:54:35.045Z</time></trkpt><trkpt lat="43.1288534" lon="11.61138"><ele>354.0</ele><time>2026-04-26T11:54:36.047Z</time></trkpt><trkpt lat="43.1288648" lon="11.6111606"><ele>354.0</ele><time>2026-04-26T11:54:37.036Z</time></trkpt><trkpt lat="43.1288724" lon="11.6109372"><ele>354.0</ele><time>2026-04-26T11:54:38.054Z</time></trkpt><trkpt lat="43.1288774" lon="11.6107231"><ele>353.5</ele><time>2026-04-26T11:54:39.041Z</time></trkpt><trkpt lat="43.1288753" lon="11.6105215"><ele>353.0</ele><time>2026-04-26T11:54:40.046Z</time></trkpt><trkpt lat="43.1288535" lon="11.6103206"><ele>352.5</ele><time>2026-04-26T11:54:41.058Z</time></trkpt><trkpt lat="43.1288104" lon="11.610119"><ele>352.0</ele><time>2026-04-26T11:54:42.037Z</time></trkpt><trkpt lat="43.1287528" lon="11.6099124"><ele>354.3333333333333</ele><time>2026-04-26T11:54:43.049Z</time></trkpt><trkpt lat="43.128684" lon="11.6097096"><ele>356.6666666666667</ele><time>2026-04-26T11:54:44.036Z</time></trkpt><trkpt lat="43.1286046" lon="11.6095077"><ele>359.0</ele><time>2026-04-26T11:54:45.044Z</time></trkpt><trkpt lat="43.1285184" lon="11.6093089"><ele>362.33333333333337</ele><time>2026-04-26T11:54:46.031Z</time></trkpt><trkpt lat="43.1284321" lon="11.6091098"><ele>365.6666666666667</ele><time>2026-04-26T11:54:47.036Z</time></trkpt><trkpt lat="43.1283529" lon="11.6089009"><ele>369.0</ele><time>2026-04-26T11:54:48.049Z</time></trkpt><trkpt lat="43.128272" lon="11.6086799"><ele>366.3333333333333</ele><time>2026-04-26T11:54:49.051Z</time></trkpt><trkpt lat="43.1281745" lon="11.608464"><ele>363.66666666666663</ele><time>2026-04-26T11:54:50.031Z</time></trkpt><trkpt lat="43.1280623" lon="11.6082632"><ele>361.0</ele><time>2026-04-26T11:54:51.05Z</time></trkpt><trkpt lat="43.1279556" lon="11.6080914"><ele>361.0</ele><time>2026-04-26T11:54:52.026Z</time></trkpt><trkpt lat="43.1278548" lon="11.6079298"><ele>361.0</ele><time>2026-04-26T11:54:53.032Z</time></trkpt><trkpt lat="43.1277609" lon="11.6077587"><ele>361.0</ele><time>2026-04-26T11:54:54.033Z</time></trkpt><trkpt lat="43.1276822" lon="11.6075773"><ele>363.25</ele><time>2026-04-26T11:54:55.021Z</time></trkpt><trkpt lat="43.1276202" lon="11.6073993"><ele>365.5</ele><time>2026-04-26T11:54:56.042Z</time></trkpt><trkpt lat="43.1275698" lon="11.6072374"><ele>367.75</ele><time>2026-04-26T11:54:57.052Z</time></trkpt><trkpt lat="43.1275191" lon="11.6070759"><ele>370.0</ele><time>2026-04-26T11:54:58.053Z</time></trkpt><trkpt lat="43.1274651" lon="11.6069034"><ele>370.5</ele><time>2026-04-26T11:54:59.057Z</time></trkpt><trkpt lat="43.1274162" lon="11.6067208"><ele>371.0</ele><time>2026-04-26T11:55:00.048Z</time></trkpt><trkpt lat="43.1273741" lon="11.6065313"><ele>371.5</ele><time>2026-04-26T11:55:01.06Z</time></trkpt><trkpt lat="43.127337" lon="11.606353"><ele>372.0</ele><time>2026-04-26T11:55:02.036Z</time></trkpt><trkpt lat="43.1272989" lon="11.6061817"><ele>369.5</ele><time>2026-04-26T11:55:03.056Z</time></trkpt><trkpt lat="43.1272535" lon="11.6060203"><ele>367.0</ele><time>2026-04-26T11:55:04.039Z</time></trkpt><trkpt lat="43.1271835" lon="11.6058575"><ele>364.5</ele><time>2026-04-26T11:55:05.042Z</time></trkpt><trkpt lat="43.1270855" lon="11.6056977"><ele>362.0</ele><time>2026-04-26T11:55:06.048Z</time></trkpt><trkpt lat="43.1269669" lon="11.6055529"><ele>362.0</ele><time>2026-04-26T11:55:07.052Z</time></trkpt><trkpt lat="43.126832" lon="11.6054191"><ele>362.0</ele><time>2026-04-26T11:55:08.039Z</time></trkpt><trkpt lat="43.126695" lon="11.6052816"><ele>362.0</ele><time>2026-04-26T11:55:09.05Z</time></trkpt><trkpt lat="43.126569" lon="11.6051422"><ele>361.6666666666667</ele><time>2026-04-26T11:55:10.037Z</time></trkpt><trkpt lat="43.1264513" lon="11.6049851"><ele>361.3333333333333</ele><time>2026-04-26T11:55:11.054Z</time></trkpt><trkpt lat="43.1263507" lon="11.6048028"><ele>361.0</ele><time>2026-04-26T11:55:12.039Z</time></trkpt><trkpt lat="43.126261" lon="11.6045943"><ele>362.66666666666663</ele><time>2026-04-26T11:55:13.054Z</time></trkpt><trkpt lat="43.1261731" lon="11.6043799"><ele>364.3333333333333</ele><time>2026-04-26T11:55:14.039Z</time></trkpt><trkpt lat="43.1260808" lon="11.6041558"><ele>366.0</ele><time>2026-04-26T11:55:15.041Z</time></trkpt><trkpt lat="43.1259864" lon="11.6039284"><ele>366.0</ele><time>2026-04-26T11:55:16.025Z</time></trkpt><trkpt lat="43.1258909" lon="11.6036978"><ele>366.0</ele><time>2026-04-26T11:55:17.031Z</time></trkpt><trkpt lat="43.1257974" lon="11.6034722"><ele>366.0</ele><time>2026-04-26T11:55:18.023Z</time></trkpt><trkpt lat="43.1257042" lon="11.6032476"><ele>364.6666666666667</ele><time>2026-04-26T11:55:19.031Z</time></trkpt><trkpt lat="43.1256117" lon="11.6030236"><ele>363.33333333333337</ele><time>2026-04-26T11:55:20.037Z</time></trkpt><trkpt lat="43.1255199" lon="11.6028008"><ele>362.0</ele><time>2026-04-26T11:55:21.051Z</time></trkpt><trkpt lat="43.1254301" lon="11.6025813"><ele>362.0</ele><time>2026-04-26T11:55:22.051Z</time></trkpt><trkpt lat="43.1253411" lon="11.6023639"><ele>362.0</ele><time>2026-04-26T11:55:23.057Z</time></trkpt><trkpt lat="43.1252532" lon="11.6021492"><ele>362.0</ele><time>2026-04-26T11:55:24.058Z</time></trkpt><trkpt lat="43.1251662" lon="11.6019347"><ele>363.6666666666667</ele><time>2026-04-26T11:55:25.071Z</time></trkpt><trkpt lat="43.1250876" lon="11.6017293"><ele>365.3333333333333</ele><time>2026-04-26T11:55:26.041Z</time></trkpt><trkpt lat="43.1250157" lon="11.6015252"><ele>367.0</ele><time>2026-04-26T11:55:27.072Z</time></trkpt><trkpt lat="43.1249475" lon="11.6013256"><ele>365.66666666666663</ele><time>2026-04-26T11:55:28.049Z</time></trkpt><trkpt lat="43.1248759" lon="11.6011211"><ele>364.3333333333333</ele><time>2026-04-26T11:55:29.068Z</time></trkpt><trkpt lat="43.1248038" lon="11.6009195"><ele>363.0</ele><time>2026-04-26T11:55:30.057Z</time></trkpt><trkpt lat="43.1247286" lon="11.6007199"><ele>363.0</ele><time>2026-04-26T11:55:31.058Z</time></trkpt><trkpt lat="43.1246474" lon="11.6005249"><ele>363.0</ele><time>2026-04-26T11:55:32.038Z</time></trkpt><trkpt lat="43.1245559" lon="11.6003307"><ele>363.0</ele><time>2026-04-26T11:55:33.043Z</time></trkpt><trkpt lat="43.124458" lon="11.6001419"><ele>365.0</ele><time>2026-04-26T11:55:34.05Z</time></trkpt><trkpt lat="43.1243616" lon="11.5999633"><ele>367.0</ele><time>2026-04-26T11:55:35.065Z</time></trkpt><trkpt lat="43.124274" lon="11.5998025"><ele>369.0</ele><time>2026-04-26T11:55:36.044Z</time></trkpt><trkpt lat="43.1241945" lon="11.5996558"><ele>371.0</ele><time>2026-04-26T11:55:37.057Z</time></trkpt><trkpt lat="43.1241278" lon="11.5995279"><ele>370.8</ele><time>2026-04-26T11:55:38.041Z</time></trkpt><trkpt lat="43.1240755" lon="11.5994069"><ele>370.6</ele><time>2026-04-26T11:55:39.049Z</time></trkpt><trkpt lat="43.1240416" lon="11.5992853"><ele>370.4</ele><time>2026-04-26T11:55:40.033Z</time></trkpt><trkpt lat="43.1240281" lon="11.5991587"><ele>370.2</ele><time>2026-04-26T11:55:41.043Z</time></trkpt><trkpt lat="43.1240366" lon="11.5990286"><ele>370.0</ele><time>2026-04-26T11:55:42.03Z</time></trkpt><trkpt lat="43.1240684" lon="11.5988914"><ele>369.5</ele><time>2026-04-26T11:55:43.032Z</time></trkpt><trkpt lat="43.1241184" lon="11.5987524"><ele>369.0</ele><time>2026-04-26T11:55:44.025Z</time></trkpt><trkpt lat="43.1241774" lon="11.5986073"><ele>368.5</ele><time>2026-04-26T11:55:45.052Z</time></trkpt><trkpt lat="43.1242338" lon="11.5984537"><ele>368.0</ele><time>2026-04-26T11:55:46.032Z</time></trkpt><trkpt lat="43.1242844" lon="11.5982842"><ele>368.0</ele><time>2026-04-26T11:55:47.044Z</time></trkpt><trkpt lat="43.1243238" lon="11.5981029"><ele>368.0</ele><time>2026-04-26T11:55:48.05Z</time></trkpt><trkpt lat="43.1243456" lon="11.5979081"><ele>368.0</ele><time>2026-04-26T11:55:49.038Z</time></trkpt><trkpt lat="43.1243559" lon="11.5976933"><ele>368.0</ele><time>2026-04-26T11:55:50.03Z</time></trkpt><trkpt lat="43.1243628" lon="11.5974617"><ele>367.33333333333337</ele><time>2026-04-26T11:55:51.037Z</time></trkpt><trkpt lat="43.1243706" lon="11.5972341"><ele>366.6666666666667</ele><time>2026-04-26T11:55:52.041Z</time></trkpt><trkpt lat="43.124381" lon="11.5970226"><ele>366.0</ele><time>2026-04-26T11:55:53.019Z</time></trkpt><trkpt lat="43.1243918" lon="11.5968204"><ele>364.25</ele><time>2026-04-26T11:55:54.025Z</time></trkpt><trkpt lat="43.1244031" lon="11.5966302"><ele>362.5</ele><time>2026-04-26T11:55:55.018Z</time></trkpt><trkpt lat="43.1244175" lon="11.5964488"><ele>360.75</ele><time>2026-04-26T11:55:56.033Z</time></trkpt><trkpt lat="43.1244351" lon="11.5962704"><ele>359.0</ele><time>2026-04-26T11:55:57.033Z</time></trkpt><trkpt lat="43.1244542" lon="11.5960954"><ele>359.0</ele><time>2026-04-26T11:55:58.025Z</time></trkpt><trkpt lat="43.1244706" lon="11.5959399"><ele>359.0</ele><time>2026-04-26T11:55:59.034Z</time></trkpt><trkpt lat="43.1244766" lon="11.5958043"><ele>359.0</ele><time>2026-04-26T11:56:00.026Z</time></trkpt><trkpt lat="43.1244715" lon="11.595679"><ele>359.0</ele><time>2026-04-26T11:56:01.04Z</time></trkpt><trkpt lat="43.1244583" lon="11.5955603"><ele>359.0</ele><time>2026-04-26T11:56:02.029Z</time></trkpt><trkpt lat="43.1244424" lon="11.5954501"><ele>359.0</ele><time>2026-04-26T11:56:03.034Z</time></trkpt><trkpt lat="43.1244226" lon="11.5953538"><ele>359.0</ele><time>2026-04-26T11:56:04.017Z</time></trkpt><trkpt lat="43.124399" lon="11.595264"><ele>359.0</ele><time>2026-04-26T11:56:05.024Z</time></trkpt><trkpt lat="43.1243782" lon="11.5951821"><ele>359.0</ele><time>2026-04-26T11:56:06.017Z</time></trkpt><trkpt lat="43.1243362" lon="11.5950317"><ele>359.0</ele><time>2026-04-26T11:56:08.001Z</time></trkpt><trkpt lat="43.1242946" lon="11.5948938"><ele>359.0</ele><time>2026-04-26T11:56:10.018Z</time></trkpt><trkpt lat="43.1242498" lon="11.59477"><ele>360.0</ele><time>2026-04-26T11:56:12.025Z</time></trkpt><trkpt lat="43.1241981" lon="11.5946252"><ele>361.0</ele><time>2026-04-26T11:56:14.02Z</time></trkpt><trkpt lat="43.1241527" lon="11.5945035"><ele>362.0</ele><time>2026-04-26T11:56:16.03Z</time></trkpt><trkpt lat="43.1241213" lon="11.5943936"><ele>363.0</ele><time>2026-04-26T11:56:18.023Z</time></trkpt><trkpt lat="43.1240887" lon="11.5942516"><ele>364.0</ele><time>2026-04-26T11:56:20.017Z</time></trkpt><trkpt lat="43.124071" lon="11.5941126"><ele>364.4</ele><time>2026-04-26T11:56:22.032Z</time></trkpt><trkpt lat="43.1240767" lon="11.5939599"><ele>364.79999999999995</ele><time>2026-04-26T11:56:24.013Z</time></trkpt><trkpt lat="43.1240855" lon="11.5938036"><ele>365.20000000000005</ele><time>2026-04-26T11:56:26.023Z</time></trkpt><trkpt lat="43.1240928" lon="11.5936672"><ele>365.6</ele><time>2026-04-26T11:56:28.022Z</time></trkpt><trkpt lat="43.1240956" lon="11.5935221"><ele>366.0</ele><time>2026-04-26T11:56:30.009Z</time></trkpt><trkpt lat="43.1241001" lon="11.5934305"><ele>366.6</ele><time>2026-04-26T11:56:31.015Z</time></trkpt><trkpt lat="43.1241115" lon="11.5933388"><ele>367.20000000000005</ele><time>2026-04-26T11:56:32.023Z</time></trkpt><trkpt lat="43.1241816" lon="11.5932113"><ele>367.79999999999995</ele><time>2026-04-26T11:56:34.007Z</time></trkpt><trkpt lat="43.1242528" lon="11.5931908"><ele>368.4</ele><time>2026-04-26T11:56:35.021Z</time></trkpt><trkpt lat="43.1243452" lon="11.593174"><ele>369.0</ele><time>2026-04-26T11:56:36.01Z</time></trkpt><trkpt lat="43.1244515" lon="11.5931347"><ele>369.0</ele><time>2026-04-26T11:56:37.019Z</time></trkpt><trkpt lat="43.1245614" lon="11.5930719"><ele>369.0</ele><time>2026-04-26T11:56:38.026Z</time></trkpt><trkpt lat="43.1246768" lon="11.5929992"><ele>369.0</ele><time>2026-04-26T11:56:39.005Z</time></trkpt><trkpt lat="43.12479" lon="11.5929268"><ele>369.0</ele><time>2026-04-26T11:56:40.02Z</time></trkpt><trkpt lat="43.1248994" lon="11.5928654"><ele>370.0</ele><time>2026-04-26T11:56:41.023Z</time></trkpt><trkpt lat="43.1250009" lon="11.5928104"><ele>371.0</ele><time>2026-04-26T11:56:42.024Z</time></trkpt><trkpt lat="43.1250935" lon="11.5927602"><ele>372.0</ele><time>2026-04-26T11:56:43.024Z</time></trkpt><trkpt lat="43.1251843" lon="11.5927177"><ele>373.0</ele><time>2026-04-26T11:56:44.029Z</time></trkpt><trkpt lat="43.1252822" lon="11.5926794"><ele>374.0</ele><time>2026-04-26T11:56:45.033Z</time></trkpt><trkpt lat="43.125394" lon="11.5926428"><ele>374.0</ele><time>2026-04-26T11:56:46.014Z</time></trkpt><trkpt lat="43.1255165" lon="11.5926131"><ele>374.0</ele><time>2026-04-26T11:56:47.025Z</time></trkpt><trkpt lat="43.1256341" lon="11.5925871"><ele>374.0</ele><time>2026-04-26T11:56:48.016Z</time></trkpt><trkpt lat="43.1257425" lon="11.592558"><ele>374.0</ele><time>2026-04-26T11:56:49.02Z</time></trkpt><trkpt lat="43.1258395" lon="11.5925243"><ele>371.0</ele><time>2026-04-26T11:56:50.019Z</time></trkpt><trkpt lat="43.1259234" lon="11.5924825"><ele>368.0</ele><time>2026-04-26T11:56:51.008Z</time></trkpt><trkpt lat="43.1260017" lon="11.5924212"><ele>365.0</ele><time>2026-04-26T11:56:52.014Z</time></trkpt><trkpt lat="43.1260763" lon="11.5923256"><ele>362.0</ele><time>2026-04-26T11:56:53.014Z</time></trkpt><trkpt lat="43.1261441" lon="11.5921961"><ele>359.0</ele><time>2026-04-26T11:56:54.013Z</time></trkpt><trkpt lat="43.1262168" lon="11.5920465"><ele>359.75</ele><time>2026-04-26T11:56:55.005Z</time></trkpt><trkpt lat="43.1262868" lon="11.5918971"><ele>360.5</ele><time>2026-04-26T11:56:56.008Z</time></trkpt><trkpt lat="43.1263439" lon="11.5917536"><ele>361.25</ele><time>2026-04-26T11:56:57.001Z</time></trkpt><trkpt lat="43.1263881" lon="11.5916173"><ele>362.0</ele><time>2026-04-26T11:56:58.007Z</time></trkpt><trkpt lat="43.1264234" lon="11.5914888"><ele>362.0</ele><time>2026-04-26T11:56:59.016Z</time></trkpt><trkpt lat="43.1264475" lon="11.5913692"><ele>362.0</ele><time>2026-04-26T11:57:00.019Z</time></trkpt><trkpt lat="43.1264521" lon="11.5912654"><ele>362.0</ele><time>2026-04-26T11:57:01.01Z</time></trkpt><trkpt lat="43.1264442" lon="11.5911622"><ele>362.0</ele><time>2026-04-26T11:57:02.022Z</time></trkpt><trkpt lat="43.1264183" lon="11.5910395"><ele>362.0</ele><time>2026-04-26T11:57:03.013Z</time></trkpt><trkpt lat="43.1263772" lon="11.5909031"><ele>362.0</ele><time>2026-04-26T11:57:04.018Z</time></trkpt><trkpt lat="43.1263325" lon="11.590777"><ele>359.8</ele><time>2026-04-26T11:57:05.008Z</time></trkpt><trkpt lat="43.1262942" lon="11.5906564"><ele>357.6</ele><time>2026-04-26T11:57:06.019Z</time></trkpt><trkpt lat="43.1262667" lon="11.5905311"><ele>355.40000000000003</ele><time>2026-04-26T11:57:07.019Z</time></trkpt><trkpt lat="43.1262642" lon="11.5903928"><ele>353.20000000000005</ele><time>2026-04-26T11:57:08.023Z</time></trkpt><trkpt lat="43.1262976" lon="11.590257"><ele>351.0</ele><time>2026-04-26T11:57:09.016Z</time></trkpt><trkpt lat="43.1263448" lon="11.59013"><ele>349.5</ele><time>2026-04-26T11:57:10.014Z</time></trkpt><trkpt lat="43.1264055" lon="11.5899977"><ele>348.0</ele><time>2026-04-26T11:57:11.005Z</time></trkpt><trkpt lat="43.1264842" lon="11.5898524"><ele>346.5</ele><time>2026-04-26T11:57:12.008Z</time></trkpt><trkpt lat="43.1265804" lon="11.5897041"><ele>345.0</ele><time>2026-04-26T11:57:13.01Z</time></trkpt><trkpt lat="43.1266871" lon="11.5895555"><ele>342.6666666666667</ele><time>2026-04-26T11:57:14.017Z</time></trkpt><trkpt lat="43.1267999" lon="11.5894118"><ele>340.33333333333337</ele><time>2026-04-26T11:57:15.012Z</time></trkpt><trkpt lat="43.1269112" lon="11.5892661"><ele>338.0</ele><time>2026-04-26T11:57:16.018Z</time></trkpt><trkpt lat="43.1270182" lon="11.5891141"><ele>338.0</ele><time>2026-04-26T11:57:17.025Z</time></trkpt><trkpt lat="43.1271247" lon="11.5889718"><ele>338.0</ele><time>2026-04-26T11:57:18.016Z</time></trkpt><trkpt lat="43.1272277" lon="11.588834"><ele>338.0</ele><time>2026-04-26T11:57:19.025Z</time></trkpt><trkpt lat="43.1273255" lon="11.5887074"><ele>338.0</ele><time>2026-04-26T11:57:20.016Z</time></trkpt><trkpt lat="43.1274191" lon="11.5885883"><ele>337.5</ele><time>2026-04-26T11:57:21.021Z</time></trkpt><trkpt lat="43.1275069" lon="11.588468"><ele>337.0</ele><time>2026-04-26T11:57:22.006Z</time></trkpt><trkpt lat="43.1275923" lon="11.5883474"><ele>336.5</ele><time>2026-04-26T11:57:23.02Z</time></trkpt><trkpt lat="43.1276684" lon="11.588238"><ele>336.0</ele><time>2026-04-26T11:57:24.028Z</time></trkpt><trkpt lat="43.1277345" lon="11.5881338"><ele>336.0</ele><time>2026-04-26T11:57:25.036Z</time></trkpt><trkpt lat="43.127791" lon="11.5880201"><ele>336.0</ele><time>2026-04-26T11:57:26.032Z</time></trkpt><trkpt lat="43.1278383" lon="11.5878805"><ele>336.0</ele><time>2026-04-26T11:57:27.031Z</time></trkpt><trkpt lat="43.127879" lon="11.5877141"><ele>336.0</ele><time>2026-04-26T11:57:28.034Z</time></trkpt><trkpt lat="43.1279139" lon="11.5875288"><ele>335.3333333333333</ele><time>2026-04-26T11:57:29.021Z</time></trkpt><trkpt lat="43.1279441" lon="11.5873266"><ele>334.66666666666663</ele><time>2026-04-26T11:57:30.031Z</time></trkpt><trkpt lat="43.1279755" lon="11.5871202"><ele>334.0</ele><time>2026-04-26T11:57:31.037Z</time></trkpt><trkpt lat="43.1280072" lon="11.5869213"><ele>333.25</ele><time>2026-04-26T11:57:32.04Z</time></trkpt><trkpt lat="43.1280399" lon="11.5867351"><ele>332.5</ele><time>2026-04-26T11:57:33.05Z</time></trkpt><trkpt lat="43.1280776" lon="11.5865685"><ele>331.75</ele><time>2026-04-26T11:57:34.037Z</time></trkpt><trkpt lat="43.1281171" lon="11.5864082"><ele>331.0</ele><time>2026-04-26T11:57:35.044Z</time></trkpt><trkpt lat="43.1281565" lon="11.5862444"><ele>331.0</ele><time>2026-04-26T11:57:36.027Z</time></trkpt><trkpt lat="43.1281908" lon="11.5860681"><ele>331.0</ele><time>2026-04-26T11:57:37.039Z</time></trkpt><trkpt lat="43.128214" lon="11.5858808"><ele>331.0</ele><time>2026-04-26T11:57:38.043Z</time></trkpt><trkpt lat="43.1282319" lon="11.5856962"><ele>331.0</ele><time>2026-04-26T11:57:39.025Z</time></trkpt><trkpt lat="43.1282464" lon="11.5855233"><ele>329.25</ele><time>2026-04-26T11:57:40.022Z</time></trkpt><trkpt lat="43.1282587" lon="11.5853554"><ele>327.5</ele><time>2026-04-26T11:57:41.012Z</time></trkpt><trkpt lat="43.1282712" lon="11.5851923"><ele>325.75</ele><time>2026-04-26T11:57:42.02Z</time></trkpt><trkpt lat="43.1282831" lon="11.5850479"><ele>324.0</ele><time>2026-04-26T11:57:43.013Z</time></trkpt><trkpt lat="43.1282936" lon="11.5849063"><ele>323.0</ele><time>2026-04-26T11:57:44.016Z</time></trkpt><trkpt lat="43.1283056" lon="11.5847599"><ele>322.0</ele><time>2026-04-26T11:57:45.003Z</time></trkpt><trkpt lat="43.1283234" lon="11.5846021"><ele>321.0</ele><time>2026-04-26T11:57:46.011Z</time></trkpt><trkpt lat="43.1283542" lon="11.5844417"><ele>320.0</ele><time>2026-04-26T11:57:47.019Z</time></trkpt><trkpt lat="43.1284055" lon="11.5842881"><ele>318.0</ele><time>2026-04-26T11:57:48.031Z</time></trkpt><trkpt lat="43.1284731" lon="11.5841416"><ele>316.0</ele><time>2026-04-26T11:57:49.03Z</time></trkpt><trkpt lat="43.1285478" lon="11.5840125"><ele>314.0</ele><time>2026-04-26T11:57:50.042Z</time></trkpt><trkpt lat="43.1286211" lon="11.5839117"><ele>312.0</ele><time>2026-04-26T11:57:51.023Z</time></trkpt><trkpt lat="43.1287089" lon="11.583837"><ele>312.0</ele><time>2026-04-26T11:57:52.034Z</time></trkpt><trkpt lat="43.1288134" lon="11.5837837"><ele>312.0</ele><time>2026-04-26T11:57:53.04Z</time></trkpt><trkpt lat="43.1289165" lon="11.5837386"><ele>312.0</ele><time>2026-04-26T11:57:54.023Z</time></trkpt><trkpt lat="43.1290087" lon="11.583677"><ele>312.0</ele><time>2026-04-26T11:57:55.049Z</time></trkpt><trkpt lat="43.1290821" lon="11.5835822"><ele>312.0</ele><time>2026-04-26T11:57:56.051Z</time></trkpt><trkpt lat="43.1291355" lon="11.583455"><ele>307.5</ele><time>2026-04-26T11:57:57.033Z</time></trkpt><trkpt lat="43.1291761" lon="11.5833087"><ele>303.0</ele><time>2026-04-26T11:57:58.038Z</time></trkpt><trkpt lat="43.1292172" lon="11.5831595"><ele>298.5</ele><time>2026-04-26T11:57:59.066Z</time></trkpt><trkpt lat="43.1292544" lon="11.5830167"><ele>294.0</ele><time>2026-04-26T11:58:00.043Z</time></trkpt><trkpt lat="43.1292843" lon="11.5828694"><ele>291.25</ele><time>2026-04-26T11:58:01.062Z</time></trkpt><trkpt lat="43.1293085" lon="11.582722"><ele>288.5</ele><time>2026-04-26T11:58:02.052Z</time></trkpt><trkpt lat="43.1293295" lon="11.5825694"><ele>285.75</ele><time>2026-04-26T11:58:03.041Z</time></trkpt><trkpt lat="43.1293513" lon="11.5824073"><ele>283.0</ele><time>2026-04-26T11:58:04.048Z</time></trkpt><trkpt lat="43.129374" lon="11.5822287"><ele>283.0</ele><time>2026-04-26T11:58:05.035Z</time></trkpt><trkpt lat="43.1294006" lon="11.5820232"><ele>283.0</ele><time>2026-04-26T11:58:06.032Z</time></trkpt><trkpt lat="43.1294303" lon="11.5817866"><ele>283.0</ele><time>2026-04-26T11:58:07.045Z</time></trkpt><trkpt lat="43.1294613" lon="11.5815451"><ele>279.0</ele><time>2026-04-26T11:58:08.042Z</time></trkpt><trkpt lat="43.1294934" lon="11.581319"><ele>275.0</ele><time>2026-04-26T11:58:09.035Z</time></trkpt><trkpt lat="43.1295256" lon="11.5811049"><ele>271.0</ele><time>2026-04-26T11:58:10.02Z</time></trkpt><trkpt lat="43.1295545" lon="11.5809013"><ele>269.25</ele><time>2026-04-26T11:58:11.023Z</time></trkpt><trkpt lat="43.1295805" lon="11.5807217"><ele>267.5</ele><time>2026-04-26T11:58:12.016Z</time></trkpt><trkpt lat="43.1296041" lon="11.5805659"><ele>265.75</ele><time>2026-04-26T11:58:13.026Z</time></trkpt><trkpt lat="43.1296233" lon="11.5804216"><ele>264.0</ele><time>2026-04-26T11:58:14.029Z</time></trkpt><trkpt lat="43.1296419" lon="11.5802748"><ele>263.5</ele><time>2026-04-26T11:58:15.023Z</time></trkpt><trkpt lat="43.1296665" lon="11.5801107"><ele>263.0</ele><time>2026-04-26T11:58:16.029Z</time></trkpt><trkpt lat="43.1297098" lon="11.5799313"><ele>262.5</ele><time>2026-04-26T11:58:17.038Z</time></trkpt><trkpt lat="43.1297793" lon="11.5797312"><ele>262.0</ele><time>2026-04-26T11:58:18.044Z</time></trkpt><trkpt lat="43.1298685" lon="11.5795218"><ele>262.0</ele><time>2026-04-26T11:58:19.021Z</time></trkpt><trkpt lat="43.1299613" lon="11.5793219"><ele>262.0</ele><time>2026-04-26T11:58:20.045Z</time></trkpt><trkpt lat="43.1300431" lon="11.5791427"><ele>262.0</ele><time>2026-04-26T11:58:21.029Z</time></trkpt><trkpt lat="43.1301121" lon="11.5789741"><ele>262.0</ele><time>2026-04-26T11:58:22.052Z</time></trkpt><trkpt lat="43.1301646" lon="11.5788209"><ele>262.0</ele><time>2026-04-26T11:58:23.036Z</time></trkpt><trkpt lat="43.1302048" lon="11.578675"><ele>262.0</ele><time>2026-04-26T11:58:24.036Z</time></trkpt><trkpt lat="43.1302293" lon="11.578533"><ele>262.0</ele><time>2026-04-26T11:58:25.048Z</time></trkpt><trkpt lat="43.130236" lon="11.5783954"><ele>262.0</ele><time>2026-04-26T11:58:26.048Z</time></trkpt><trkpt lat="43.1302303" lon="11.5782597"><ele>261.6</ele><time>2026-04-26T11:58:27.03Z</time></trkpt><trkpt lat="43.1302154" lon="11.5781258"><ele>261.2</ele><time>2026-04-26T11:58:28.03Z</time></trkpt><trkpt lat="43.1301894" lon="11.5780073"><ele>260.8</ele><time>2026-04-26T11:58:29.043Z</time></trkpt><trkpt lat="43.1301472" lon="11.577901"><ele>260.4</ele><time>2026-04-26T11:58:30.027Z</time></trkpt><trkpt lat="43.1300825" lon="11.5777747"><ele>260.0</ele><time>2026-04-26T11:58:31.044Z</time></trkpt><trkpt lat="43.1300022" lon="11.5776384"><ele>258.75</ele><time>2026-04-26T11:58:32.022Z</time></trkpt><trkpt lat="43.1299154" lon="11.5775193"><ele>257.5</ele><time>2026-04-26T11:58:33.025Z</time></trkpt><trkpt lat="43.1298228" lon="11.5774276"><ele>256.25</ele><time>2026-04-26T11:58:34.02Z</time></trkpt><trkpt lat="43.1297204" lon="11.5773654"><ele>255.0</ele><time>2026-04-26T11:58:35.012Z</time></trkpt><trkpt lat="43.1296048" lon="11.5773337"><ele>254.5</ele><time>2026-04-26T11:58:36.009Z</time></trkpt><trkpt lat="43.1294771" lon="11.5773136"><ele>254.0</ele><time>2026-04-26T11:58:37.018Z</time></trkpt><trkpt lat="43.1293559" lon="11.5772823"><ele>253.5</ele><time>2026-04-26T11:58:38.032Z</time></trkpt><trkpt lat="43.1292566" lon="11.5772281"><ele>253.0</ele><time>2026-04-26T11:58:39.038Z</time></trkpt><trkpt lat="43.1291793" lon="11.5771524"><ele>253.0</ele><time>2026-04-26T11:58:40.034Z</time></trkpt><trkpt lat="43.1291249" lon="11.5770575"><ele>253.0</ele><time>2026-04-26T11:58:41.021Z</time></trkpt><trkpt lat="43.1290963" lon="11.5769406"><ele>253.0</ele><time>2026-04-26T11:58:42.031Z</time></trkpt><trkpt lat="43.129087" lon="11.5768095"><ele>253.0</ele><time>2026-04-26T11:58:43.036Z</time></trkpt><trkpt lat="43.1290878" lon="11.576658"><ele>253.0</ele><time>2026-04-26T11:58:44.041Z</time></trkpt><trkpt lat="43.1290914" lon="11.5764819"><ele>253.5</ele><time>2026-04-26T11:58:45.031Z</time></trkpt><trkpt lat="43.1290961" lon="11.576286"><ele>254.0</ele><time>2026-04-26T11:58:46.049Z</time></trkpt><trkpt lat="43.1291058" lon="11.5760809"><ele>254.5</ele><time>2026-04-26T11:58:47.055Z</time></trkpt><trkpt lat="43.129118" lon="11.5758735"><ele>255.0</ele><time>2026-04-26T11:58:48.04Z</time></trkpt><trkpt lat="43.1291324" lon="11.5756765"><ele>255.6</ele><time>2026-04-26T11:58:49.053Z</time></trkpt><trkpt lat="43.1291465" lon="11.5755046"><ele>256.2</ele><time>2026-04-26T11:58:50.028Z</time></trkpt><trkpt lat="43.1291657" lon="11.5753538"><ele>256.8</ele><time>2026-04-26T11:58:51.027Z</time></trkpt><trkpt lat="43.1291905" lon="11.5752219"><ele>257.4</ele><time>2026-04-26T11:58:52.046Z</time></trkpt><trkpt lat="43.1292261" lon="11.5751029"><ele>258.0</ele><time>2026-04-26T11:58:53.04Z</time></trkpt><trkpt lat="43.1292871" lon="11.5750029"><ele>258.4</ele><time>2026-04-26T11:58:54.033Z</time></trkpt><trkpt lat="43.1293672" lon="11.574934"><ele>258.8</ele><time>2026-04-26T11:58:55.036Z</time></trkpt><trkpt lat="43.129456" lon="11.5748992"><ele>259.2</ele><time>2026-04-26T11:58:56.035Z</time></trkpt><trkpt lat="43.1295525" lon="11.5748804"><ele>259.6</ele><time>2026-04-26T11:58:57.035Z</time></trkpt><trkpt lat="43.129665" lon="11.5748743"><ele>260.0</ele><time>2026-04-26T11:58:58.03Z</time></trkpt><trkpt lat="43.1298022" lon="11.5748873"><ele>260.0</ele><time>2026-04-26T11:58:59.036Z</time></trkpt><trkpt lat="43.1299516" lon="11.574917"><ele>260.0</ele><time>2026-04-26T11:59:00.022Z</time></trkpt><trkpt lat="43.1301062" lon="11.5749557"><ele>260.0</ele><time>2026-04-26T11:59:01.042Z</time></trkpt><trkpt lat="43.1302715" lon="11.5749992"><ele>260.0</ele><time>2026-04-26T11:59:02.045Z</time></trkpt><trkpt lat="43.1304523" lon="11.5750469"><ele>260.0</ele><time>2026-04-26T11:59:03.056Z</time></trkpt><trkpt lat="43.1306361" lon="11.5750984"><ele>260.0</ele><time>2026-04-26T11:59:04.048Z</time></trkpt><trkpt lat="43.1308241" lon="11.5751518"><ele>260.33333333333337</ele><time>2026-04-26T11:59:05.06Z</time></trkpt><trkpt lat="43.1310158" lon="11.5752049"><ele>260.6666666666667</ele><time>2026-04-26T11:59:06.054Z</time></trkpt><trkpt lat="43.1312118" lon="11.5752571"><ele>261.0</ele><time>2026-04-26T11:59:07.061Z</time></trkpt><trkpt lat="43.1314071" lon="11.5753079"><ele>261.6666666666667</ele><time>2026-04-26T11:59:08.041Z</time></trkpt><trkpt lat="43.131606" lon="11.5753631"><ele>262.33333333333337</ele><time>2026-04-26T11:59:09.053Z</time></trkpt><trkpt lat="43.1318046" lon="11.5754168"><ele>263.0</ele><time>2026-04-26T11:59:10.03Z</time></trkpt><trkpt lat="43.1320076" lon="11.5754675"><ele>263.0</ele><time>2026-04-26T11:59:11.032Z</time></trkpt><trkpt lat="43.1322093" lon="11.57552"><ele>263.0</ele><time>2026-04-26T11:59:12.041Z</time></trkpt><trkpt lat="43.1324105" lon="11.5755801"><ele>263.0</ele><time>2026-04-26T11:59:13.059Z</time></trkpt><trkpt lat="43.132609" lon="11.5756447"><ele>263.6666666666667</ele><time>2026-04-26T11:59:14.044Z</time></trkpt><trkpt lat="43.1328106" lon="11.5757122"><ele>264.3333333333333</ele><time>2026-04-26T11:59:15.056Z</time></trkpt><trkpt lat="43.1330111" lon="11.5757786"><ele>265.0</ele><time>2026-04-26T11:59:16.06Z</time></trkpt><trkpt lat="43.1332105" lon="11.5758448"><ele>265.0</ele><time>2026-04-26T11:59:17.047Z</time></trkpt><trkpt lat="43.1334127" lon="11.5759121"><ele>265.0</ele><time>2026-04-26T11:59:18.05Z</time></trkpt><trkpt lat="43.1336143" lon="11.5759784"><ele>265.0</ele><time>2026-04-26T11:59:19.039Z</time></trkpt><trkpt lat="43.133816" lon="11.5760452"><ele>265.0</ele><time>2026-04-26T11:59:20.035Z</time></trkpt><trkpt lat="43.1340164" lon="11.5761119"><ele>265.0</ele><time>2026-04-26T11:59:21.046Z</time></trkpt><trkpt lat="43.1342068" lon="11.5761756"><ele>265.0</ele><time>2026-04-26T11:59:22.029Z</time></trkpt><trkpt lat="43.1343871" lon="11.5762362"><ele>264.3333333333333</ele><time>2026-04-26T11:59:23.028Z</time></trkpt><trkpt lat="43.1345598" lon="11.5762954"><ele>263.6666666666667</ele><time>2026-04-26T11:59:24.031Z</time></trkpt><trkpt lat="43.1347308" lon="11.5763608"><ele>263.0</ele><time>2026-04-26T11:59:25.041Z</time></trkpt><trkpt lat="43.1349" lon="11.5764418"><ele>263.0</ele><time>2026-04-26T11:59:26.041Z</time></trkpt><trkpt lat="43.1350675" lon="11.5765496"><ele>263.0</ele><time>2026-04-26T11:59:27.055Z</time></trkpt><trkpt lat="43.1352348" lon="11.5766807"><ele>263.0</ele><time>2026-04-26T11:59:28.048Z</time></trkpt><trkpt lat="43.1354042" lon="11.5768265"><ele>263.0</ele><time>2026-04-26T11:59:29.054Z</time></trkpt><trkpt lat="43.1355725" lon="11.5769785"><ele>263.0</ele><time>2026-04-26T11:59:30.046Z</time></trkpt><trkpt lat="43.1357414" lon="11.5771335"><ele>263.0</ele><time>2026-04-26T11:59:31.06Z</time></trkpt><trkpt lat="43.1359078" lon="11.577284"><ele>262.6666666666667</ele><time>2026-04-26T11:59:32.047Z</time></trkpt><trkpt lat="43.1360723" lon="11.5774316"><ele>262.3333333333333</ele><time>2026-04-26T11:59:33.049Z</time></trkpt><trkpt lat="43.136229" lon="11.5775711"><ele>262.0</ele><time>2026-04-26T11:59:34.056Z</time></trkpt><trkpt lat="43.1363756" lon="11.5777016"><ele>262.0</ele><time>2026-04-26T11:59:35.061Z</time></trkpt><trkpt lat="43.1365119" lon="11.5778244"><ele>262.0</ele><time>2026-04-26T11:59:36.047Z</time></trkpt><trkpt lat="43.1366412" lon="11.5779415"><ele>262.0</ele><time>2026-04-26T11:59:37.063Z</time></trkpt><trkpt lat="43.1367613" lon="11.5780498"><ele>262.5</ele><time>2026-04-26T11:59:38.049Z</time></trkpt><trkpt lat="43.1368765" lon="11.5781526"><ele>263.0</ele><time>2026-04-26T11:59:39.059Z</time></trkpt><trkpt lat="43.1369851" lon="11.5782477"><ele>263.5</ele><time>2026-04-26T11:59:40.045Z</time></trkpt><trkpt lat="43.1370892" lon="11.5783356"><ele>264.0</ele><time>2026-04-26T11:59:41.036Z</time></trkpt><trkpt lat="43.1371882" lon="11.5784183"><ele>264.0</ele><time>2026-04-26T11:59:42.036Z</time></trkpt><trkpt lat="43.1372843" lon="11.5785017"><ele>264.0</ele><time>2026-04-26T11:59:43.058Z</time></trkpt><trkpt lat="43.1373767" lon="11.5785864"><ele>264.0</ele><time>2026-04-26T11:59:44.043Z</time></trkpt><trkpt lat="43.1374615" lon="11.5786664"><ele>264.0</ele><time>2026-04-26T11:59:45.05Z</time></trkpt><trkpt lat="43.1375335" lon="11.5787213"><ele>264.0</ele><time>2026-04-26T11:59:46.039Z</time></trkpt><trkpt lat="43.1375961" lon="11.5787321"><ele>264.8</ele><time>2026-04-26T11:59:47.033Z</time></trkpt><trkpt lat="43.1376983" lon="11.5786326"><ele>265.59999999999997</ele><time>2026-04-26T11:59:49.037Z</time></trkpt><trkpt lat="43.1377501" lon="11.5785381"><ele>266.4</ele><time>2026-04-26T11:59:50.032Z</time></trkpt><trkpt lat="43.1378117" lon="11.5784214"><ele>267.2</ele><time>2026-04-26T11:59:51.022Z</time></trkpt><trkpt lat="43.1378708" lon="11.5783153"><ele>268.0</ele><time>2026-04-26T11:59:52.038Z</time></trkpt><trkpt lat="43.137913" lon="11.5782494"><ele>268.0</ele><time>2026-04-26T11:59:53.052Z</time></trkpt><trkpt lat="43.1379559" lon="11.5781565"><ele>268.0</ele><time>2026-04-26T12:00:43.062Z</time></trkpt><trkpt lat="43.1379963" lon="11.5780666"><ele>268.0</ele><time>2026-04-26T12:00:45.041Z</time></trkpt><trkpt lat="43.1380761" lon="11.5779309"><ele>268.0</ele><time>2026-04-26T12:00:47.059Z</time></trkpt><trkpt lat="43.138118" lon="11.5778576"><ele>268.0</ele><time>2026-04-26T12:00:48.044Z</time></trkpt><trkpt lat="43.1381644" lon="11.5777739"><ele>268.0</ele><time>2026-04-26T12:00:49.052Z</time></trkpt><trkpt lat="43.1382166" lon="11.5776822"><ele>269.4</ele><time>2026-04-26T12:00:50.053Z</time></trkpt><trkpt lat="43.1382777" lon="11.5775788"><ele>270.8</ele><time>2026-04-26T12:00:51.071Z</time></trkpt><trkpt lat="43.1383431" lon="11.5774692"><ele>272.2</ele><time>2026-04-26T12:00:52.045Z</time></trkpt><trkpt lat="43.1384095" lon="11.577356"><ele>273.6</ele><time>2026-04-26T12:00:53.05Z</time></trkpt><trkpt lat="43.1384776" lon="11.5772387"><ele>275.0</ele><time>2026-04-26T12:00:54.044Z</time></trkpt><trkpt lat="43.1385486" lon="11.5771183"><ele>275.75</ele><time>2026-04-26T12:00:55.054Z</time></trkpt><trkpt lat="43.1386181" lon="11.5769962"><ele>276.5</ele><time>2026-04-26T12:00:56.035Z</time></trkpt><trkpt lat="43.1386791" lon="11.5768643"><ele>277.25</ele><time>2026-04-26T12:00:57.033Z</time></trkpt><trkpt lat="43.1387268" lon="11.5767167"><ele>278.0</ele><time>2026-04-26T12:00:58.028Z</time></trkpt><trkpt lat="43.138759" lon="11.5765472"><ele>278.0</ele><time>2026-04-26T12:00:59.028Z</time></trkpt><trkpt lat="43.138774" lon="11.5763624"><ele>278.0</ele><time>2026-04-26T12:01:00.023Z</time></trkpt><trkpt lat="43.1387774" lon="11.5761725"><ele>278.0</ele><time>2026-04-26T12:01:01.028Z</time></trkpt><trkpt lat="43.1387741" lon="11.5759861"><ele>278.0</ele><time>2026-04-26T12:01:02.012Z</time></trkpt><trkpt lat="43.1387651" lon="11.5758109"><ele>279.75</ele><time>2026-04-26T12:01:03.026Z</time></trkpt><trkpt lat="43.1387467" lon="11.5756549"><ele>281.5</ele><time>2026-04-26T12:01:04.028Z</time></trkpt><trkpt lat="43.1387102" lon="11.5755086"><ele>283.25</ele><time>2026-04-26T12:01:05.027Z</time></trkpt><trkpt lat="43.1386505" lon="11.5753742"><ele>285.0</ele><time>2026-04-26T12:01:06.036Z</time></trkpt><trkpt lat="43.1385725" lon="11.5752487"><ele>288.25</ele><time>2026-04-26T12:01:07.027Z</time></trkpt><trkpt lat="43.138482" lon="11.5751309"><ele>291.5</ele><time>2026-04-26T12:01:08.029Z</time></trkpt><trkpt lat="43.1383795" lon="11.5750145"><ele>294.75</ele><time>2026-04-26T12:01:09.03Z</time></trkpt><trkpt lat="43.1382682" lon="11.5748918"><ele>298.0</ele><time>2026-04-26T12:01:10.038Z</time></trkpt><trkpt lat="43.1381653" lon="11.5747687"><ele>298.6</ele><time>2026-04-26T12:01:11.04Z</time></trkpt><trkpt lat="43.1380871" lon="11.5746458"><ele>299.20000000000005</ele><time>2026-04-26T12:01:12.033Z</time></trkpt><trkpt lat="43.1380343" lon="11.5745133"><ele>299.8</ele><time>2026-04-26T12:01:13.055Z</time></trkpt><trkpt lat="43.1380061" lon="11.5743753"><ele>300.40000000000003</ele><time>2026-04-26T12:01:14.031Z</time></trkpt><trkpt lat="43.1379945" lon="11.574221"><ele>301.0</ele><time>2026-04-26T12:01:15.04Z</time></trkpt><trkpt lat="43.1379879" lon="11.5740418"><ele>301.0</ele><time>2026-04-26T12:01:16.032Z</time></trkpt><trkpt lat="43.1379834" lon="11.5738381"><ele>301.0</ele><time>2026-04-26T12:01:17.053Z</time></trkpt><trkpt lat="43.137978" lon="11.5736274"><ele>301.0</ele><time>2026-04-26T12:01:18.038Z</time></trkpt><trkpt lat="43.1379712" lon="11.5734123"><ele>300.0</ele><time>2026-04-26T12:01:19.043Z</time></trkpt><trkpt lat="43.137962" lon="11.5731945"><ele>299.0</ele><time>2026-04-26T12:01:20.042Z</time></trkpt><trkpt lat="43.1379533" lon="11.572978"><ele>298.0</ele><time>2026-04-26T12:01:21.045Z</time></trkpt><trkpt lat="43.1379456" lon="11.5727691"><ele>297.0</ele><time>2026-04-26T12:01:22.032Z</time></trkpt><trkpt lat="43.1379413" lon="11.5725743"><ele>296.0</ele><time>2026-04-26T12:01:23.033Z</time></trkpt><trkpt lat="43.1379418" lon="11.5724125"><ele>295.0</ele><time>2026-04-26T12:01:24.023Z</time></trkpt><trkpt lat="43.1379536" lon="11.572275"><ele>294.0</ele><time>2026-04-26T12:01:25.032Z</time></trkpt><trkpt lat="43.1379856" lon="11.5721528"><ele>294.0</ele><time>2026-04-26T12:01:26.008Z</time></trkpt><trkpt lat="43.1380426" lon="11.5720439"><ele>294.0</ele><time>2026-04-26T12:01:27.034Z</time></trkpt><trkpt lat="43.1381243" lon="11.5719627"><ele>294.0</ele><time>2026-04-26T12:01:28.015Z</time></trkpt><trkpt lat="43.1382324" lon="11.5718961"><ele>294.0</ele><time>2026-04-26T12:01:29.026Z</time></trkpt><trkpt lat="43.138345" lon="11.5718394"><ele>294.0</ele><time>2026-04-26T12:01:30.029Z</time></trkpt><trkpt lat="43.1384453" lon="11.5717758"><ele>295.2</ele><time>2026-04-26T12:01:31.043Z</time></trkpt><trkpt lat="43.1385283" lon="11.5716958"><ele>296.4</ele><time>2026-04-26T12:01:32.023Z</time></trkpt><trkpt lat="43.1385974" lon="11.5715947"><ele>297.6</ele><time>2026-04-26T12:01:33.038Z</time></trkpt><trkpt lat="43.1386573" lon="11.5714682"><ele>298.8</ele><time>2026-04-26T12:01:34.028Z</time></trkpt><trkpt lat="43.138699" lon="11.5713199"><ele>300.0</ele><time>2026-04-26T12:01:35.036Z</time></trkpt><trkpt lat="43.138713" lon="11.5711656"><ele>300.0</ele><time>2026-04-26T12:01:36.037Z</time></trkpt><trkpt lat="43.1386981" lon="11.5710178"><ele>300.0</ele><time>2026-04-26T12:01:37.047Z</time></trkpt><trkpt lat="43.1386599" lon="11.570883"><ele>300.0</ele><time>2026-04-26T12:01:38.033Z</time></trkpt><trkpt lat="43.1385961" lon="11.5707533"><ele>300.0</ele><time>2026-04-26T12:01:39.035Z</time></trkpt><trkpt lat="43.1385232" lon="11.5706267"><ele>300.0</ele><time>2026-04-26T12:01:40.036Z</time></trkpt><trkpt lat="43.1384711" lon="11.5705025"><ele>300.0</ele><time>2026-04-26T12:01:41.024Z</time></trkpt><trkpt lat="43.1384478" lon="11.570361"><ele>300.0</ele><time>2026-04-26T12:01:42.035Z</time></trkpt><trkpt lat="43.1384537" lon="11.5702034"><ele>300.0</ele><time>2026-04-26T12:01:43.052Z</time></trkpt><trkpt lat="43.1384807" lon="11.5700375"><ele>300.0</ele><time>2026-04-26T12:01:44.033Z</time></trkpt><trkpt lat="43.1385104" lon="11.569856"><ele>301.6666666666667</ele><time>2026-04-26T12:01:45.056Z</time></trkpt><trkpt lat="43.1385256" lon="11.5696548"><ele>303.33333333333337</ele><time>2026-04-26T12:01:46.044Z</time></trkpt><trkpt lat="43.1385258" lon="11.5694382"><ele>305.0</ele><time>2026-04-26T12:01:47.037Z</time></trkpt><trkpt lat="43.1385152" lon="11.5692317"><ele>305.25</ele><time>2026-04-26T12:01:48.04Z</time></trkpt><trkpt lat="43.1384892" lon="11.5690513"><ele>305.5</ele><time>2026-04-26T12:01:49.033Z</time></trkpt><trkpt lat="43.1384463" lon="11.5688849"><ele>305.75</ele><time>2026-04-26T12:01:50.024Z</time></trkpt><trkpt lat="43.1383838" lon="11.5687317"><ele>306.0</ele><time>2026-04-26T12:01:51.012Z</time></trkpt><trkpt lat="43.1383" lon="11.5685845"><ele>300.0</ele><time>2026-04-26T12:01:52.019Z</time></trkpt><trkpt lat="43.1381958" lon="11.5684381"><ele>294.0</ele><time>2026-04-26T12:01:53.026Z</time></trkpt><trkpt lat="43.1380861" lon="11.5682988"><ele>288.0</ele><time>2026-04-26T12:01:54.039Z</time></trkpt><trkpt lat="43.1379947" lon="11.5681717"><ele>282.0</ele><time>2026-04-26T12:01:55.047Z</time></trkpt><trkpt lat="43.1379263" lon="11.5680436"><ele>282.0</ele><time>2026-04-26T12:01:56.024Z</time></trkpt><trkpt lat="43.1378819" lon="11.5679063"><ele>282.0</ele><time>2026-04-26T12:01:57.027Z</time></trkpt><trkpt lat="43.1378646" lon="11.5677577"><ele>282.0</ele><time>2026-04-26T12:01:58.037Z</time></trkpt><trkpt lat="43.137868" lon="11.5675948"><ele>282.0</ele><time>2026-04-26T12:01:59.024Z</time></trkpt><trkpt lat="43.1378865" lon="11.5674167"><ele>283.5</ele><time>2026-04-26T12:02:00.036Z</time></trkpt><trkpt lat="43.1379101" lon="11.5672248"><ele>285.0</ele><time>2026-04-26T12:02:01.045Z</time></trkpt><trkpt lat="43.1379254" lon="11.5670273"><ele>286.5</ele><time>2026-04-26T12:02:02.022Z</time></trkpt><trkpt lat="43.1379236" lon="11.5668197"><ele>288.0</ele><time>2026-04-26T12:02:03.045Z</time></trkpt><trkpt lat="43.137908" lon="11.5666092"><ele>288.0</ele><time>2026-04-26T12:02:04.025Z</time></trkpt><trkpt lat="43.1378911" lon="11.5663909"><ele>288.0</ele><time>2026-04-26T12:02:05.039Z</time></trkpt><trkpt lat="43.1378775" lon="11.5661823"><ele>288.0</ele><time>2026-04-26T12:02:06.036Z</time></trkpt><trkpt lat="43.1378657" lon="11.5659817"><ele>288.0</ele><time>2026-04-26T12:02:07.039Z</time></trkpt><trkpt lat="43.1378546" lon="11.5657874"><ele>288.0</ele><time>2026-04-26T12:02:08.03Z</time></trkpt><trkpt lat="43.1378448" lon="11.5656065"><ele>288.0</ele><time>2026-04-26T12:02:09.035Z</time></trkpt><trkpt lat="43.137836" lon="11.5654446"><ele>288.0</ele><time>2026-04-26T12:02:10.021Z</time></trkpt><trkpt lat="43.1378206" lon="11.565292"><ele>288.0</ele><time>2026-04-26T12:02:11.027Z</time></trkpt><trkpt lat="43.1377866" lon="11.5651386"><ele>288.0</ele><time>2026-04-26T12:02:12.031Z</time></trkpt><trkpt lat="43.1377292" lon="11.5649831"><ele>288.0</ele><time>2026-04-26T12:02:13.031Z</time></trkpt><trkpt lat="43.137659" lon="11.5648362"><ele>288.0</ele><time>2026-04-26T12:02:14.013Z</time></trkpt><trkpt lat="43.1375894" lon="11.5647021"><ele>288.0</ele><time>2026-04-26T12:02:15.022Z</time></trkpt><trkpt lat="43.1375285" lon="11.5645828"><ele>288.0</ele><time>2026-04-26T12:02:16.015Z</time></trkpt><trkpt lat="43.1374783" lon="11.5644811"><ele>288.0</ele><time>2026-04-26T12:02:17.026Z</time></trkpt><trkpt lat="43.1374304" lon="11.5644042"><ele>288.0</ele><time>2026-04-26T12:02:18.031Z</time></trkpt><trkpt lat="43.137372" lon="11.5643575"><ele>288.0</ele><time>2026-04-26T12:02:19.039Z</time></trkpt><trkpt lat="43.1372997" lon="11.5643433"><ele>288.0</ele><time>2026-04-26T12:02:20.033Z</time></trkpt><trkpt lat="43.1372181" lon="11.5643613"><ele>284.8333333333333</ele><time>2026-04-26T12:02:21.048Z</time></trkpt><trkpt lat="43.137139" lon="11.5644071"><ele>281.6666666666667</ele><time>2026-04-26T12:02:22.037Z</time></trkpt><trkpt lat="43.1370661" lon="11.5644713"><ele>278.5</ele><time>2026-04-26T12:02:23.048Z</time></trkpt><trkpt lat="43.1370066" lon="11.5645508"><ele>275.33333333333337</ele><time>2026-04-26T12:02:24.039Z</time></trkpt><trkpt lat="43.1369684" lon="11.564646"><ele>272.1666666666667</ele><time>2026-04-26T12:02:25.052Z</time></trkpt><trkpt lat="43.1369524" lon="11.5647536"><ele>269.0</ele><time>2026-04-26T12:02:26.027Z</time></trkpt><trkpt lat="43.1369553" lon="11.5648779"><ele>269.0</ele><time>2026-04-26T12:02:27.041Z</time></trkpt><trkpt lat="43.1369801" lon="11.565001"><ele>269.0</ele><time>2026-04-26T12:02:28.023Z</time></trkpt><trkpt lat="43.1370309" lon="11.5651304"><ele>269.0</ele><time>2026-04-26T12:02:29.039Z</time></trkpt><trkpt lat="43.137099" lon="11.5652713"><ele>269.0</ele><time>2026-04-26T12:02:30.058Z</time></trkpt><trkpt lat="43.1371617" lon="11.5654061"><ele>269.0</ele><time>2026-04-26T12:02:31.042Z</time></trkpt><trkpt lat="43.1372058" lon="11.5655335"><ele>268.59999999999997</ele><time>2026-04-26T12:02:32.041Z</time></trkpt><trkpt lat="43.1372285" lon="11.5656601"><ele>268.2</ele><time>2026-04-26T12:02:33.046Z</time></trkpt><trkpt lat="43.1372279" lon="11.5657948"><ele>267.79999999999995</ele><time>2026-04-26T12:02:34.038Z</time></trkpt><trkpt lat="43.1371999" lon="11.5659328"><ele>267.4</ele><time>2026-04-26T12:02:35.044Z</time></trkpt><trkpt lat="43.1371467" lon="11.5660606"><ele>267.0</ele><time>2026-04-26T12:02:36.028Z</time></trkpt><trkpt lat="43.137073" lon="11.5661769"><ele>268.0</ele><time>2026-04-26T12:02:37.028Z</time></trkpt><trkpt lat="43.1369792" lon="11.5662724"><ele>269.0</ele><time>2026-04-26T12:02:38.014Z</time></trkpt><trkpt lat="43.1368562" lon="11.566351"><ele>270.0</ele><time>2026-04-26T12:02:39.016Z</time></trkpt><trkpt lat="43.136705" lon="11.5664178"><ele>271.0</ele><time>2026-04-26T12:02:40.009Z</time></trkpt><trkpt lat="43.1365469" lon="11.5664819"><ele>266.40000000000003</ele><time>2026-04-26T12:02:41.016Z</time></trkpt><trkpt lat="43.1364152" lon="11.566538"><ele>261.8</ele><time>2026-04-26T12:02:42.018Z</time></trkpt><trkpt lat="43.1363155" lon="11.5665787"><ele>257.20000000000005</ele><time>2026-04-26T12:02:43.007Z</time></trkpt><trkpt lat="43.1362338" lon="11.5665923"><ele>252.60000000000002</ele><time>2026-04-26T12:02:44.034Z</time></trkpt><trkpt lat="43.1361635" lon="11.5665655"><ele>248.0</ele><time>2026-04-26T12:02:45.047Z</time></trkpt><trkpt lat="43.1361148" lon="11.5664962"><ele>248.0</ele><time>2026-04-26T12:02:46.032Z</time></trkpt><trkpt lat="43.1361015" lon="11.5663943"><ele>248.0</ele><time>2026-04-26T12:02:47.052Z</time></trkpt><trkpt lat="43.1361236" lon="11.566276"><ele>248.0</ele><time>2026-04-26T12:02:48.023Z</time></trkpt><trkpt lat="43.1361801" lon="11.5661492"><ele>248.0</ele><time>2026-04-26T12:02:49.056Z</time></trkpt><trkpt lat="43.1362526" lon="11.5660316"><ele>248.0</ele><time>2026-04-26T12:02:50.035Z</time></trkpt><trkpt lat="43.1363177" lon="11.5659188"><ele>248.0</ele><time>2026-04-26T12:02:51.039Z</time></trkpt><trkpt lat="43.1363585" lon="11.565799"><ele>248.0</ele><time>2026-04-26T12:02:52.037Z</time></trkpt><trkpt lat="43.1363689" lon="11.5656712"><ele>248.0</ele><time>2026-04-26T12:02:53.022Z</time></trkpt><trkpt lat="43.1363469" lon="11.565544"><ele>248.0</ele><time>2026-04-26T12:02:54.037Z</time></trkpt><trkpt lat="43.1362933" lon="11.565427"><ele>248.0</ele><time>2026-04-26T12:02:55.028Z</time></trkpt><trkpt lat="43.1362147" lon="11.5653117"><ele>247.4</ele><time>2026-04-26T12:02:56.029Z</time></trkpt><trkpt lat="43.1361333" lon="11.5651989"><ele>246.8</ele><time>2026-04-26T12:02:57.033Z</time></trkpt><trkpt lat="43.1360743" lon="11.5650886"><ele>246.2</ele><time>2026-04-26T12:02:58.038Z</time></trkpt><trkpt lat="43.1360438" lon="11.564964"><ele>245.6</ele><time>2026-04-26T12:02:59.044Z</time></trkpt><trkpt lat="43.1360429" lon="11.5648203"><ele>245.0</ele><time>2026-04-26T12:03:00.031Z</time></trkpt><trkpt lat="43.136071" lon="11.5646613"><ele>243.75</ele><time>2026-04-26T12:03:01.034Z</time></trkpt><trkpt lat="43.1361242" lon="11.5645"><ele>242.5</ele><time>2026-04-26T12:03:02.017Z</time></trkpt><trkpt lat="43.1361936" lon="11.5643514"><ele>241.25</ele><time>2026-04-26T12:03:03.023Z</time></trkpt><trkpt lat="43.13626" lon="11.5642201"><ele>240.0</ele><time>2026-04-26T12:03:04.016Z</time></trkpt><trkpt lat="43.1363122" lon="11.564095"><ele>240.0</ele><time>2026-04-26T12:03:05.014Z</time></trkpt><trkpt lat="43.1363489" lon="11.563961"><ele>240.0</ele><time>2026-04-26T12:03:06.02Z</time></trkpt><trkpt lat="43.136369" lon="11.5638114"><ele>240.0</ele><time>2026-04-26T12:03:07.032Z</time></trkpt><trkpt lat="43.1363679" lon="11.5636634"><ele>240.0</ele><time>2026-04-26T12:03:08.019Z</time></trkpt><trkpt lat="43.1363462" lon="11.5635267"><ele>240.0</ele><time>2026-04-26T12:03:09.027Z</time></trkpt><trkpt lat="43.1363048" lon="11.5633981"><ele>240.25</ele><time>2026-04-26T12:03:10.031Z</time></trkpt><trkpt lat="43.1362423" lon="11.563268"><ele>240.5</ele><time>2026-04-26T12:03:11.022Z</time></trkpt><trkpt lat="43.1361569" lon="11.5631392"><ele>240.75</ele><time>2026-04-26T12:03:12.024Z</time></trkpt><trkpt lat="43.1360495" lon="11.5630099"><ele>241.0</ele><time>2026-04-26T12:03:13.032Z</time></trkpt><trkpt lat="43.1359359" lon="11.5628765"><ele>243.0</ele><time>2026-04-26T12:03:14.02Z</time></trkpt><trkpt lat="43.1358282" lon="11.5627463"><ele>245.0</ele><time>2026-04-26T12:03:15.028Z</time></trkpt><trkpt lat="43.1357254" lon="11.5626188"><ele>247.0</ele><time>2026-04-26T12:03:16.02Z</time></trkpt><trkpt lat="43.1356202" lon="11.5624849"><ele>249.0</ele><time>2026-04-26T12:03:17.019Z</time></trkpt><trkpt lat="43.1355136" lon="11.5623375"><ele>243.66666666666669</ele><time>2026-04-26T12:03:18.024Z</time></trkpt><trkpt lat="43.1354115" lon="11.5621779"><ele>238.33333333333334</ele><time>2026-04-26T12:03:19.037Z</time></trkpt><trkpt lat="43.1353146" lon="11.5620093"><ele>233.0</ele><time>2026-04-26T12:03:20.038Z</time></trkpt><trkpt lat="43.1352183" lon="11.5618337"><ele>233.0</ele><time>2026-04-26T12:03:21.03Z</time></trkpt><trkpt lat="43.1351187" lon="11.5616476"><ele>233.0</ele><time>2026-04-26T12:03:22.035Z</time></trkpt><trkpt lat="43.1350151" lon="11.5614522"><ele>233.0</ele><time>2026-04-26T12:03:23.029Z</time></trkpt><trkpt lat="43.134908" lon="11.5612473"><ele>226.0</ele><time>2026-04-26T12:03:24.033Z</time></trkpt><trkpt lat="43.1347996" lon="11.5610413"><ele>219.0</ele><time>2026-04-26T12:03:25.034Z</time></trkpt><trkpt lat="43.1346936" lon="11.5608396"><ele>212.0</ele><time>2026-04-26T12:03:26.025Z</time></trkpt><trkpt lat="43.1345907" lon="11.5606429"><ele>212.0</ele><time>2026-04-26T12:03:27.031Z</time></trkpt><trkpt lat="43.1344915" lon="11.5604544"><ele>212.0</ele><time>2026-04-26T12:03:28.038Z</time></trkpt><trkpt lat="43.1343976" lon="11.560279"><ele>212.0</ele><time>2026-04-26T12:03:29.021Z</time></trkpt><trkpt lat="43.1343101" lon="11.5601196"><ele>213.0</ele><time>2026-04-26T12:03:30.033Z</time></trkpt><trkpt lat="43.1342315" lon="11.5599769"><ele>214.0</ele><time>2026-04-26T12:03:31.025Z</time></trkpt><trkpt lat="43.1341593" lon="11.5598418"><ele>215.0</ele><time>2026-04-26T12:03:32.03Z</time></trkpt><trkpt lat="43.1340963" lon="11.5597078"><ele>216.0</ele><time>2026-04-26T12:03:33.039Z</time></trkpt><trkpt lat="43.1340473" lon="11.559566"><ele>212.0</ele><time>2026-04-26T12:03:34.03Z</time></trkpt><trkpt lat="43.1340125" lon="11.5594104"><ele>208.0</ele><time>2026-04-26T12:03:35.032Z</time></trkpt><trkpt lat="43.1339936" lon="11.5592474"><ele>204.0</ele><time>2026-04-26T12:03:36.024Z</time></trkpt><trkpt lat="43.1339878" lon="11.5590665"><ele>200.0</ele><time>2026-04-26T12:03:37.046Z</time></trkpt><trkpt lat="43.1339897" lon="11.5588687"><ele>200.0</ele><time>2026-04-26T12:03:38.025Z</time></trkpt><trkpt lat="43.1339955" lon="11.5586597"><ele>200.0</ele><time>2026-04-26T12:03:39.036Z</time></trkpt><trkpt lat="43.1340031" lon="11.5584597"><ele>200.0</ele><time>2026-04-26T12:03:40.039Z</time></trkpt><trkpt lat="43.13401" lon="11.5582692"><ele>200.0</ele><time>2026-04-26T12:03:41.025Z</time></trkpt><trkpt lat="43.1340103" lon="11.5580748"><ele>200.0</ele><time>2026-04-26T12:03:42.042Z</time></trkpt><trkpt lat="43.1339999" lon="11.5578743"><ele>200.0</ele><time>2026-04-26T12:03:43.026Z</time></trkpt><trkpt lat="43.1339778" lon="11.5576597"><ele>200.0</ele><time>2026-04-26T12:03:44.021Z</time></trkpt><trkpt lat="43.1339464" lon="11.5574345"><ele>200.0</ele><time>2026-04-26T12:03:45.03Z</time></trkpt><trkpt lat="43.133914" lon="11.5572192"><ele>200.0</ele><time>2026-04-26T12:03:46.014Z</time></trkpt><trkpt lat="43.1338836" lon="11.5570148"><ele>200.0</ele><time>2026-04-26T12:03:47.018Z</time></trkpt><trkpt lat="43.1338527" lon="11.5568213"><ele>201.25</ele><time>2026-04-26T12:03:48.029Z</time></trkpt><trkpt lat="43.1338202" lon="11.5566359"><ele>202.5</ele><time>2026-04-26T12:03:49.02Z</time></trkpt><trkpt lat="43.1337868" lon="11.5564632"><ele>203.75</ele><time>2026-04-26T12:03:50.025Z</time></trkpt><trkpt lat="43.133755" lon="11.5563144"><ele>205.0</ele><time>2026-04-26T12:03:51.028Z</time></trkpt><trkpt lat="43.1337188" lon="11.5561905"><ele>207.0</ele><time>2026-04-26T12:03:52.012Z</time></trkpt><trkpt lat="43.1336672" lon="11.5560828"><ele>209.0</ele><time>2026-04-26T12:03:53.019Z</time></trkpt><trkpt lat="43.1335973" lon="11.5559882"><ele>211.0</ele><time>2026-04-26T12:03:54.034Z</time></trkpt><trkpt lat="43.1335166" lon="11.5559152"><ele>213.0</ele><time>2026-04-26T12:03:55.015Z</time></trkpt><trkpt lat="43.1334265" lon="11.5558683"><ele>215.0</ele><time>2026-04-26T12:03:56.028Z</time></trkpt><trkpt lat="43.1333261" lon="11.5558482"><ele>215.6</ele><time>2026-04-26T12:03:57.014Z</time></trkpt><trkpt lat="43.1332212" lon="11.5558591"><ele>216.2</ele><time>2026-04-26T12:03:58.024Z</time></trkpt><trkpt lat="43.1331219" lon="11.5559008"><ele>216.8</ele><time>2026-04-26T12:03:59.024Z</time></trkpt><trkpt lat="43.133024" lon="11.555973"><ele>217.4</ele><time>2026-04-26T12:04:00.03Z</time></trkpt><trkpt lat="43.1329235" lon="11.5560795"><ele>218.0</ele><time>2026-04-26T12:04:01.029Z</time></trkpt><trkpt lat="43.1328226" lon="11.5562101"><ele>218.0</ele><time>2026-04-26T12:04:02.03Z</time></trkpt><trkpt lat="43.132719" lon="11.5563559"><ele>218.0</ele><time>2026-04-26T12:04:03.022Z</time></trkpt><trkpt lat="43.1326058" lon="11.5565209"><ele>218.0</ele><time>2026-04-26T12:04:04.025Z</time></trkpt><trkpt lat="43.1324932" lon="11.5566862"><ele>217.0</ele><time>2026-04-26T12:04:05.029Z</time></trkpt><trkpt lat="43.1323884" lon="11.5568337"><ele>216.0</ele><time>2026-04-26T12:04:06.032Z</time></trkpt><trkpt lat="43.1322797" lon="11.5569582"><ele>215.0</ele><time>2026-04-26T12:04:07.034Z</time></trkpt><trkpt lat="43.1321665" lon="11.5570546"><ele>214.0</ele><time>2026-04-26T12:04:08.025Z</time></trkpt><trkpt lat="43.1320584" lon="11.5571262"><ele>213.99999999999997</ele><time>2026-04-26T12:04:09.028Z</time></trkpt><trkpt lat="43.1319628" lon="11.5571769"><ele>214.0</ele><time>2026-04-26T12:04:10.03Z</time></trkpt><trkpt lat="43.1318757" lon="11.5572155"><ele>214.0</ele><time>2026-04-26T12:04:11.031Z</time></trkpt><trkpt lat="43.131794" lon="11.5572503"><ele>214.0</ele><time>2026-04-26T12:04:12.03Z</time></trkpt><trkpt lat="43.1317171" lon="11.5572848"><ele>213.99999999999997</ele><time>2026-04-26T12:04:13.038Z</time></trkpt><trkpt lat="43.1316434" lon="11.5573201"><ele>214.0</ele><time>2026-04-26T12:04:14.031Z</time></trkpt><trkpt lat="43.1315702" lon="11.5573535"><ele>213.66666666666666</ele><time>2026-04-26T12:04:15.028Z</time></trkpt><trkpt lat="43.1314971" lon="11.5573773"><ele>213.33333333333331</ele><time>2026-04-26T12:04:16.021Z</time></trkpt><trkpt lat="43.1314217" lon="11.5573869"><ele>213.0</ele><time>2026-04-26T12:04:17.021Z</time></trkpt><trkpt lat="43.1313458" lon="11.5573757"><ele>212.66666666666669</ele><time>2026-04-26T12:04:18.029Z</time></trkpt><trkpt lat="43.1312718" lon="11.5573395"><ele>212.33333333333334</ele><time>2026-04-26T12:04:19.019Z</time></trkpt><trkpt lat="43.1312015" lon="11.5572816"><ele>212.0</ele><time>2026-04-26T12:04:20.031Z</time></trkpt><trkpt lat="43.1311415" lon="11.5572021"><ele>212.00000000000003</ele><time>2026-04-26T12:04:21.035Z</time></trkpt><trkpt lat="43.1310958" lon="11.5571011"><ele>212.0</ele><time>2026-04-26T12:04:22.033Z</time></trkpt><trkpt lat="43.1310706" lon="11.556982"><ele>212.0</ele><time>2026-04-26T12:04:23.053Z</time></trkpt><trkpt lat="43.1310699" lon="11.5568573"><ele>212.0</ele><time>2026-04-26T12:04:24.033Z</time></trkpt><trkpt lat="43.1310976" lon="11.556743"><ele>212.00000000000003</ele><time>2026-04-26T12:04:25.036Z</time></trkpt><trkpt lat="43.1311531" lon="11.556644"><ele>212.0</ele><time>2026-04-26T12:04:26.041Z</time></trkpt><trkpt lat="43.1312359" lon="11.5565517"><ele>216.5</ele><time>2026-04-26T12:04:27.05Z</time></trkpt><trkpt lat="43.1313453" lon="11.5564634"><ele>221.0</ele><time>2026-04-26T12:04:28.027Z</time></trkpt><trkpt lat="43.1314785" lon="11.5563702"><ele>225.5</ele><time>2026-04-26T12:04:29.03Z</time></trkpt><trkpt lat="43.131629" lon="11.5562666"><ele>230.0</ele><time>2026-04-26T12:04:30.025Z</time></trkpt><trkpt lat="43.1317882" lon="11.5561412"><ele>234.33333333333334</ele><time>2026-04-26T12:04:31.032Z</time></trkpt><trkpt lat="43.1319477" lon="11.5559915"><ele>238.66666666666669</ele><time>2026-04-26T12:04:32.024Z</time></trkpt><trkpt lat="43.1321124" lon="11.555826"><ele>243.0</ele><time>2026-04-26T12:04:33.03Z</time></trkpt><trkpt lat="43.1322775" lon="11.5556579"><ele>244.0</ele><time>2026-04-26T12:04:34.038Z</time></trkpt><trkpt lat="43.1324317" lon="11.5555015"><ele>245.0</ele><time>2026-04-26T12:04:35.044Z</time></trkpt><trkpt lat="43.1325656" lon="11.5553625"><ele>246.0</ele><time>2026-04-26T12:04:36.028Z</time></trkpt><trkpt lat="43.1326799" lon="11.5552325"><ele>246.0</ele><time>2026-04-26T12:04:37.039Z</time></trkpt><trkpt lat="43.1327669" lon="11.5551104"><ele>246.00000000000003</ele><time>2026-04-26T12:04:38.039Z</time></trkpt><trkpt lat="43.1328279" lon="11.5549857"><ele>246.00000000000003</ele><time>2026-04-26T12:04:39.025Z</time></trkpt><trkpt lat="43.132864" lon="11.5548523"><ele>246.0</ele><time>2026-04-26T12:04:40.036Z</time></trkpt><trkpt lat="43.1328705" lon="11.5547239"><ele>246.0</ele><time>2026-04-26T12:04:41.02Z</time></trkpt><trkpt lat="43.1328483" lon="11.554598"><ele>246.8</ele><time>2026-04-26T12:04:42.025Z</time></trkpt><trkpt lat="43.1328014" lon="11.5544764"><ele>247.60000000000002</ele><time>2026-04-26T12:04:43.029Z</time></trkpt><trkpt lat="43.1327356" lon="11.5543583"><ele>248.4</ele><time>2026-04-26T12:04:44.029Z</time></trkpt><trkpt lat="43.1326596" lon="11.5542521"><ele>249.2</ele><time>2026-04-26T12:04:45.058Z</time></trkpt><trkpt lat="43.1325857" lon="11.5541724"><ele>250.0</ele><time>2026-04-26T12:04:46.038Z</time></trkpt><trkpt lat="43.1325067" lon="11.5541099"><ele>250.0</ele><time>2026-04-26T12:04:47.048Z</time></trkpt><trkpt lat="43.1324203" lon="11.5540706"><ele>250.0</ele><time>2026-04-26T12:04:48.038Z</time></trkpt><trkpt lat="43.13233" lon="11.5540665"><ele>250.0</ele><time>2026-04-26T12:04:49.038Z</time></trkpt><trkpt lat="43.1322343" lon="11.5541023"><ele>250.0</ele><time>2026-04-26T12:04:50.029Z</time></trkpt><trkpt lat="43.1321337" lon="11.5541763"><ele>250.0</ele><time>2026-04-26T12:04:51.035Z</time></trkpt><trkpt lat="43.1320363" lon="11.5542903"><ele>252.0</ele><time>2026-04-26T12:04:52.041Z</time></trkpt><trkpt lat="43.1319375" lon="11.5544395"><ele>254.0</ele><time>2026-04-26T12:04:53.029Z</time></trkpt><trkpt lat="43.1318334" lon="11.5546033"><ele>256.0</ele><time>2026-04-26T12:04:54.034Z</time></trkpt><trkpt lat="43.1317207" lon="11.554764"><ele>256.0</ele><time>2026-04-26T12:04:55.055Z</time></trkpt><trkpt lat="43.1316066" lon="11.5549073"><ele>256.0</ele><time>2026-04-26T12:04:56.04Z</time></trkpt><trkpt lat="43.1314999" lon="11.555023"><ele>256.0</ele><time>2026-04-26T12:04:57.03Z</time></trkpt><trkpt lat="43.1313991" lon="11.5551048"><ele>256.0</ele><time>2026-04-26T12:04:58.044Z</time></trkpt><trkpt lat="43.1313009" lon="11.555152"><ele>257.2</ele><time>2026-04-26T12:04:59.028Z</time></trkpt><trkpt lat="43.1311966" lon="11.5551712"><ele>258.40000000000003</ele><time>2026-04-26T12:05:00.036Z</time></trkpt><trkpt lat="43.131092" lon="11.5551595"><ele>259.6</ele><time>2026-04-26T12:05:01.049Z</time></trkpt><trkpt lat="43.1309946" lon="11.5551101"><ele>260.8</ele><time>2026-04-26T12:05:02.061Z</time></trkpt><trkpt lat="43.130903" lon="11.5550241"><ele>262.0</ele><time>2026-04-26T12:05:03.036Z</time></trkpt><trkpt lat="43.1308123" lon="11.5549028"><ele>263.0</ele><time>2026-04-26T12:05:04.04Z</time></trkpt><trkpt lat="43.1307231" lon="11.5547589"><ele>264.0</ele><time>2026-04-26T12:05:05.046Z</time></trkpt><trkpt lat="43.1306336" lon="11.5546277"><ele>265.0</ele><time>2026-04-26T12:05:06.025Z</time></trkpt><trkpt lat="43.1305325" lon="11.5545232"><ele>266.0</ele><time>2026-04-26T12:05:07.031Z</time></trkpt><trkpt lat="43.1304165" lon="11.5544259"><ele>266.0</ele><time>2026-04-26T12:05:08.026Z</time></trkpt><trkpt lat="43.1302977" lon="11.5543136"><ele>266.0</ele><time>2026-04-26T12:05:09.03Z</time></trkpt><trkpt lat="43.1301864" lon="11.5541832"><ele>266.0</ele><time>2026-04-26T12:05:10.039Z</time></trkpt><trkpt lat="43.1300779" lon="11.5540534"><ele>266.0</ele><time>2026-04-26T12:05:11.04Z</time></trkpt><trkpt lat="43.1299693" lon="11.5539474"><ele>266.25</ele><time>2026-04-26T12:05:12.03Z</time></trkpt><trkpt lat="43.1298518" lon="11.5538738"><ele>266.5</ele><time>2026-04-26T12:05:13.052Z</time></trkpt><trkpt lat="43.1297246" lon="11.5538301"><ele>266.75</ele><time>2026-04-26T12:05:14.042Z</time></trkpt><trkpt lat="43.1295987" lon="11.5538068"><ele>267.0</ele><time>2026-04-26T12:05:15.052Z</time></trkpt><trkpt lat="43.1294958" lon="11.5537858"><ele>267.0</ele><time>2026-04-26T12:05:16.061Z</time></trkpt><trkpt lat="43.1294165" lon="11.5537424"><ele>267.0</ele><time>2026-04-26T12:05:17.047Z</time></trkpt><trkpt lat="43.129359" lon="11.5536637"><ele>267.0</ele><time>2026-04-26T12:05:18.04Z</time></trkpt><trkpt lat="43.1293258" lon="11.5535571"><ele>267.0</ele><time>2026-04-26T12:05:19.05Z</time></trkpt><trkpt lat="43.1293223" lon="11.5534428"><ele>267.0</ele><time>2026-04-26T12:05:20.051Z</time></trkpt><trkpt lat="43.1293487" lon="11.5533365"><ele>267.0</ele><time>2026-04-26T12:05:21.057Z</time></trkpt><trkpt lat="43.1294025" lon="11.5532484"><ele>269.2</ele><time>2026-04-26T12:05:22.036Z</time></trkpt><trkpt lat="43.1294812" lon="11.5531841"><ele>271.4</ele><time>2026-04-26T12:05:23.045Z</time></trkpt><trkpt lat="43.1295784" lon="11.5531483"><ele>273.6</ele><time>2026-04-26T12:05:24.043Z</time></trkpt><trkpt lat="43.1296903" lon="11.5531405"><ele>275.8</ele><time>2026-04-26T12:05:25.048Z</time></trkpt><trkpt lat="43.1298121" lon="11.5531602"><ele>278.0</ele><time>2026-04-26T12:05:26.051Z</time></trkpt><trkpt lat="43.1299446" lon="11.553205"><ele>278.0</ele><time>2026-04-26T12:05:27.057Z</time></trkpt><trkpt lat="43.1300852" lon="11.5532652"><ele>278.0</ele><time>2026-04-26T12:05:28.041Z</time></trkpt><trkpt lat="43.1302295" lon="11.5533281"><ele>278.0</ele><time>2026-04-26T12:05:29.04Z</time></trkpt><trkpt lat="43.1303644" lon="11.5533812"><ele>278.0</ele><time>2026-04-26T12:05:30.033Z</time></trkpt><trkpt lat="43.1304825" lon="11.553415"><ele>278.0</ele><time>2026-04-26T12:05:31.026Z</time></trkpt><trkpt lat="43.1305937" lon="11.5534292"><ele>278.0</ele><time>2026-04-26T12:05:32.021Z</time></trkpt><trkpt lat="43.1307053" lon="11.553421"><ele>278.0</ele><time>2026-04-26T12:05:33.033Z</time></trkpt><trkpt lat="43.1308113" lon="11.5533826"><ele>278.0</ele><time>2026-04-26T12:05:34.036Z</time></trkpt><trkpt lat="43.13091" lon="11.5533137"><ele>278.0</ele><time>2026-04-26T12:05:35.046Z</time></trkpt><trkpt lat="43.1309927" lon="11.5532249"><ele>278.83333333333337</ele><time>2026-04-26T12:05:36.065Z</time></trkpt><trkpt lat="43.1310518" lon="11.553128"><ele>279.6666666666667</ele><time>2026-04-26T12:05:37.046Z</time></trkpt><trkpt lat="43.131093" lon="11.5530184"><ele>280.5</ele><time>2026-04-26T12:05:38.048Z</time></trkpt><trkpt lat="43.1311139" lon="11.5529041"><ele>281.3333333333333</ele><time>2026-04-26T12:05:39.064Z</time></trkpt><trkpt lat="43.1311159" lon="11.5527943"><ele>282.16666666666663</ele><time>2026-04-26T12:05:40.043Z</time></trkpt><trkpt lat="43.1311086" lon="11.5526916"><ele>283.0</ele><time>2026-04-26T12:05:41.053Z</time></trkpt><trkpt lat="43.1310986" lon="11.5526021"><ele>284.5</ele><time>2026-04-26T12:05:42.041Z</time></trkpt><trkpt lat="43.1310806" lon="11.5524421"><ele>286.0</ele><time>2026-04-26T12:05:44.051Z</time></trkpt><trkpt lat="43.1310689" lon="11.5522793"><ele>287.5</ele><time>2026-04-26T12:05:46.042Z</time></trkpt><trkpt lat="43.131065" lon="11.5521901"><ele>289.0</ele><time>2026-04-26T12:05:47.04Z</time></trkpt><trkpt lat="43.1310657" lon="11.5520979"><ele>290.5</ele><time>2026-04-26T12:05:48.039Z</time></trkpt><trkpt lat="43.1310749" lon="11.5520053"><ele>292.0</ele><time>2026-04-26T12:05:49.047Z</time></trkpt><trkpt lat="43.1310927" lon="11.5519152"><ele>293.5</ele><time>2026-04-26T12:05:50.041Z</time></trkpt><trkpt lat="43.1311177" lon="11.5518259"><ele>295.0</ele><time>2026-04-26T12:05:51.052Z</time></trkpt><trkpt lat="43.1311483" lon="11.5517375"><ele>296.5</ele><time>2026-04-26T12:05:52.036Z</time></trkpt><trkpt lat="43.1311866" lon="11.5516472"><ele>298.0</ele><time>2026-04-26T12:05:53.039Z</time></trkpt><trkpt lat="43.1312341" lon="11.5515554"><ele>299.5</ele><time>2026-04-26T12:05:54.039Z</time></trkpt><trkpt lat="43.1312895" lon="11.5514586"><ele>301.0</ele><time>2026-04-26T12:05:55.029Z</time></trkpt><trkpt lat="43.1313513" lon="11.551356"><ele>301.0</ele><time>2026-04-26T12:05:56.027Z</time></trkpt><trkpt lat="43.1314185" lon="11.5512473"><ele>301.0</ele><time>2026-04-26T12:05:57.045Z</time></trkpt><trkpt lat="43.1314898" lon="11.5511278"><ele>301.0</ele><time>2026-04-26T12:05:58.03Z</time></trkpt><trkpt lat="43.1315682" lon="11.5509922"><ele>301.0</ele><time>2026-04-26T12:05:59.042Z</time></trkpt><trkpt lat="43.13165" lon="11.5508451"><ele>300.0</ele><time>2026-04-26T12:06:00.028Z</time></trkpt><trkpt lat="43.1317384" lon="11.5506844"><ele>299.0</ele><time>2026-04-26T12:06:01.054Z</time></trkpt><trkpt lat="43.1318291" lon="11.550517"><ele>298.0</ele><time>2026-04-26T12:06:02.039Z</time></trkpt><trkpt lat="43.1319219" lon="11.5503453"><ele>301.0</ele><time>2026-04-26T12:06:03.053Z</time></trkpt><trkpt lat="43.1320136" lon="11.5501732"><ele>304.0</ele><time>2026-04-26T12:06:04.043Z</time></trkpt><trkpt lat="43.1321058" lon="11.5499973"><ele>307.0</ele><time>2026-04-26T12:06:05.049Z</time></trkpt><trkpt lat="43.1321981" lon="11.5498235"><ele>307.0</ele><time>2026-04-26T12:06:06.041Z</time></trkpt><trkpt lat="43.1322922" lon="11.5496552"><ele>307.0</ele><time>2026-04-26T12:06:07.053Z</time></trkpt><trkpt lat="43.1323858" lon="11.5495023"><ele>307.0</ele><time>2026-04-26T12:06:08.036Z</time></trkpt><trkpt lat="43.1324874" lon="11.5493651"><ele>307.0</ele><time>2026-04-26T12:06:09.041Z</time></trkpt><trkpt lat="43.1326023" lon="11.5492474"><ele>307.5</ele><time>2026-04-26T12:06:10.052Z</time></trkpt><trkpt lat="43.1327198" lon="11.5491508"><ele>308.0</ele><time>2026-04-26T12:06:11.055Z</time></trkpt><trkpt lat="43.1328329" lon="11.5490701"><ele>308.5</ele><time>2026-04-26T12:06:12.044Z</time></trkpt><trkpt lat="43.132943" lon="11.5489934"><ele>309.0</ele><time>2026-04-26T12:06:13.064Z</time></trkpt><trkpt lat="43.1330412" lon="11.548923"><ele>309.0</ele><time>2026-04-26T12:06:14.039Z</time></trkpt><trkpt lat="43.1331291" lon="11.5488571"><ele>309.0</ele><time>2026-04-26T12:06:15.058Z</time></trkpt><trkpt lat="43.1332044" lon="11.5487947"><ele>309.0</ele><time>2026-04-26T12:06:16.048Z</time></trkpt><trkpt lat="43.1332733" lon="11.548721"><ele>309.0</ele><time>2026-04-26T12:06:17.04Z</time></trkpt><trkpt lat="43.1333316" lon="11.5486293"><ele>309.0</ele><time>2026-04-26T12:06:18.029Z</time></trkpt><trkpt lat="43.1333792" lon="11.5485275"><ele>309.3333333333333</ele><time>2026-04-26T12:06:19.039Z</time></trkpt><trkpt lat="43.1334155" lon="11.5484282"><ele>309.6666666666667</ele><time>2026-04-26T12:06:20.022Z</time></trkpt><trkpt lat="43.1334407" lon="11.5483334"><ele>310.0</ele><time>2026-04-26T12:06:21.029Z</time></trkpt><trkpt lat="43.1334567" lon="11.5482447"><ele>310.33333333333337</ele><time>2026-04-26T12:06:22.039Z</time></trkpt><trkpt lat="43.1334616" lon="11.5480728"><ele>310.6666666666667</ele><time>2026-04-26T12:06:24.036Z</time></trkpt><trkpt lat="43.1334486" lon="11.5479781"><ele>311.0</ele><time>2026-04-26T12:06:25.048Z</time></trkpt><trkpt lat="43.1334288" lon="11.547873"><ele>311.0</ele><time>2026-04-26T12:06:26.037Z</time></trkpt><trkpt lat="43.1334036" lon="11.547755"><ele>311.0</ele><time>2026-04-26T12:06:27.052Z</time></trkpt><trkpt lat="43.1333744" lon="11.547631"><ele>311.0</ele><time>2026-04-26T12:06:28.034Z</time></trkpt><trkpt lat="43.133343" lon="11.5475036"><ele>311.0</ele><time>2026-04-26T12:06:29.053Z</time></trkpt><trkpt lat="43.1333124" lon="11.5473781"><ele>311.0</ele><time>2026-04-26T12:06:30.036Z</time></trkpt><trkpt lat="43.1332815" lon="11.5472469"><ele>311.0</ele><time>2026-04-26T12:06:31.051Z</time></trkpt><trkpt lat="43.1332534" lon="11.547113"><ele>311.0</ele><time>2026-04-26T12:06:32.038Z</time></trkpt><trkpt lat="43.1332258" lon="11.5469712"><ele>311.0</ele><time>2026-04-26T12:06:33.051Z</time></trkpt><trkpt lat="43.1331953" lon="11.5468203"><ele>311.0</ele><time>2026-04-26T12:06:34.041Z</time></trkpt><trkpt lat="43.13316" lon="11.5466562"><ele>311.0</ele><time>2026-04-26T12:06:35.049Z</time></trkpt><trkpt lat="43.1331205" lon="11.5464799"><ele>305.6666666666667</ele><time>2026-04-26T12:06:36.049Z</time></trkpt><trkpt lat="43.1330752" lon="11.5462888"><ele>300.3333333333333</ele><time>2026-04-26T12:06:37.052Z</time></trkpt><trkpt lat="43.133026" lon="11.5460871"><ele>295.0</ele><time>2026-04-26T12:06:38.036Z</time></trkpt><trkpt lat="43.132976" lon="11.5458767"><ele>295.0</ele><time>2026-04-26T12:06:39.041Z</time></trkpt><trkpt lat="43.1329271" lon="11.5456574"><ele>295.0</ele><time>2026-04-26T12:06:40.042Z</time></trkpt><trkpt lat="43.1328772" lon="11.5454305"><ele>295.0</ele><time>2026-04-26T12:06:41.03Z</time></trkpt><trkpt lat="43.1328241" lon="11.5451983"><ele>296.0</ele><time>2026-04-26T12:06:42.031Z</time></trkpt><trkpt lat="43.1327704" lon="11.5449621"><ele>297.0</ele><time>2026-04-26T12:06:43.035Z</time></trkpt><trkpt lat="43.1327163" lon="11.5447287"><ele>298.0</ele><time>2026-04-26T12:06:44.019Z</time></trkpt><trkpt lat="43.1326634" lon="11.5445064"><ele>299.3333333333333</ele><time>2026-04-26T12:06:45.025Z</time></trkpt><trkpt lat="43.1326107" lon="11.5442996"><ele>300.6666666666667</ele><time>2026-04-26T12:06:46.016Z</time></trkpt><trkpt lat="43.1325539" lon="11.5440944"><ele>302.0</ele><time>2026-04-26T12:06:47.029Z</time></trkpt><trkpt lat="43.1324895" lon="11.5438871"><ele>302.0</ele><time>2026-04-26T12:06:48.036Z</time></trkpt><trkpt lat="43.1324173" lon="11.5436782"><ele>302.0</ele><time>2026-04-26T12:06:49.027Z</time></trkpt><trkpt lat="43.1323356" lon="11.5434657"><ele>302.0</ele><time>2026-04-26T12:06:50.034Z</time></trkpt><trkpt lat="43.1322525" lon="11.5432576"><ele>302.0</ele><time>2026-04-26T12:06:51.045Z</time></trkpt><trkpt lat="43.1321766" lon="11.5430636"><ele>302.0</ele><time>2026-04-26T12:06:52.031Z</time></trkpt><trkpt lat="43.1321043" lon="11.5428798"><ele>302.0</ele><time>2026-04-26T12:06:53.038Z</time></trkpt><trkpt lat="43.1320352" lon="11.5427102"><ele>302.5</ele><time>2026-04-26T12:06:54.042Z</time></trkpt><trkpt lat="43.1319697" lon="11.5425514"><ele>303.0</ele><time>2026-04-26T12:06:55.049Z</time></trkpt><trkpt lat="43.1319094" lon="11.5423997"><ele>303.5</ele><time>2026-04-26T12:06:56.036Z</time></trkpt><trkpt lat="43.1318603" lon="11.5422507"><ele>304.0</ele><time>2026-04-26T12:06:57.04Z</time></trkpt><trkpt lat="43.1318302" lon="11.5420984"><ele>304.25</ele><time>2026-04-26T12:06:58.038Z</time></trkpt><trkpt lat="43.1318219" lon="11.5419318"><ele>304.5</ele><time>2026-04-26T12:06:59.03Z</time></trkpt><trkpt lat="43.1318372" lon="11.5417462"><ele>304.75</ele><time>2026-04-26T12:07:00.04Z</time></trkpt><trkpt lat="43.1318696" lon="11.5415489"><ele>305.0</ele><time>2026-04-26T12:07:01.026Z</time></trkpt><trkpt lat="43.131904" lon="11.5413415"><ele>305.33333333333337</ele><time>2026-04-26T12:07:02.039Z</time></trkpt><trkpt lat="43.1319334" lon="11.5411215"><ele>305.6666666666667</ele><time>2026-04-26T12:07:03.038Z</time></trkpt><trkpt lat="43.1319616" lon="11.5408999"><ele>306.0</ele><time>2026-04-26T12:07:04.026Z</time></trkpt><trkpt lat="43.1319949" lon="11.5406877"><ele>306.0</ele><time>2026-04-26T12:07:05.031Z</time></trkpt><trkpt lat="43.1320371" lon="11.5404907"><ele>306.0</ele><time>2026-04-26T12:07:06.036Z</time></trkpt><trkpt lat="43.1320848" lon="11.5403153"><ele>306.0</ele><time>2026-04-26T12:07:07.023Z</time></trkpt><trkpt lat="43.1321286" lon="11.5401542"><ele>306.0</ele><time>2026-04-26T12:07:08.021Z</time></trkpt><trkpt lat="43.1321637" lon="11.5399901"><ele>306.0</ele><time>2026-04-26T12:07:09.014Z</time></trkpt><trkpt lat="43.1321872" lon="11.539814"><ele>306.0</ele><time>2026-04-26T12:07:10.017Z</time></trkpt><trkpt lat="43.132196" lon="11.5396235"><ele>306.0</ele><time>2026-04-26T12:07:11.027Z</time></trkpt><trkpt lat="43.1321937" lon="11.5394231"><ele>306.0</ele><time>2026-04-26T12:07:12.022Z</time></trkpt><trkpt lat="43.1321908" lon="11.5392232"><ele>304.3333333333333</ele><time>2026-04-26T12:07:13.029Z</time></trkpt><trkpt lat="43.1321981" lon="11.5390255"><ele>302.66666666666663</ele><time>2026-04-26T12:07:14.035Z</time></trkpt><trkpt lat="43.1322174" lon="11.538821"><ele>301.0</ele><time>2026-04-26T12:07:15.026Z</time></trkpt><trkpt lat="43.1322448" lon="11.5386085"><ele>298.3333333333333</ele><time>2026-04-26T12:07:16.026Z</time></trkpt><trkpt lat="43.1322823" lon="11.5383931"><ele>295.6666666666667</ele><time>2026-04-26T12:07:17.041Z</time></trkpt><trkpt lat="43.1323338" lon="11.5381803"><ele>293.0</ele><time>2026-04-26T12:07:18.033Z</time></trkpt><trkpt lat="43.1323942" lon="11.5379704"><ele>290.5</ele><time>2026-04-26T12:07:19.041Z</time></trkpt><trkpt lat="43.1324567" lon="11.5377725"><ele>288.0</ele><time>2026-04-26T12:07:20.045Z</time></trkpt><trkpt lat="43.1325179" lon="11.5375872"><ele>285.5</ele><time>2026-04-26T12:07:21.033Z</time></trkpt><trkpt lat="43.132581" lon="11.537412"><ele>283.0</ele><time>2026-04-26T12:07:22.039Z</time></trkpt><trkpt lat="43.1326496" lon="11.5372506"><ele>283.0</ele><time>2026-04-26T12:07:23.031Z</time></trkpt><trkpt lat="43.1327293" lon="11.5370962"><ele>283.0</ele><time>2026-04-26T12:07:24.035Z</time></trkpt><trkpt lat="43.1328244" lon="11.5369443"><ele>283.0</ele><time>2026-04-26T12:07:25.042Z</time></trkpt><trkpt lat="43.132932" lon="11.5367896"><ele>283.0</ele><time>2026-04-26T12:07:26.032Z</time></trkpt><trkpt lat="43.1330491" lon="11.5366276"><ele>280.66666666666663</ele><time>2026-04-26T12:07:27.026Z</time></trkpt><trkpt lat="43.1331685" lon="11.5364644"><ele>278.3333333333333</ele><time>2026-04-26T12:07:28.027Z</time></trkpt><trkpt lat="43.1332811" lon="11.5363056"><ele>276.0</ele><time>2026-04-26T12:07:29.035Z</time></trkpt><trkpt lat="43.1333856" lon="11.5361438"><ele>275.0</ele><time>2026-04-26T12:07:30.034Z</time></trkpt><trkpt lat="43.1334846" lon="11.5359658"><ele>274.0</ele><time>2026-04-26T12:07:31.027Z</time></trkpt><trkpt lat="43.1335798" lon="11.5357708"><ele>273.0</ele><time>2026-04-26T12:07:32.029Z</time></trkpt><trkpt lat="43.1336718" lon="11.5355621"><ele>270.0</ele><time>2026-04-26T12:07:33.021Z</time></trkpt><trkpt lat="43.1337644" lon="11.5353449"><ele>267.0</ele><time>2026-04-26T12:07:34.023Z</time></trkpt><trkpt lat="43.1338586" lon="11.5351281"><ele>264.0</ele><time>2026-04-26T12:07:35.032Z</time></trkpt><trkpt lat="43.1339529" lon="11.5349145"><ele>264.0</ele><time>2026-04-26T12:07:36.023Z</time></trkpt><trkpt lat="43.1340481" lon="11.5347012"><ele>264.0</ele><time>2026-04-26T12:07:37.033Z</time></trkpt><trkpt lat="43.1341395" lon="11.534492"><ele>264.0</ele><time>2026-04-26T12:07:38.041Z</time></trkpt><trkpt lat="43.1342273" lon="11.534285"><ele>264.0</ele><time>2026-04-26T12:07:39.051Z</time></trkpt><trkpt lat="43.1343126" lon="11.5340788"><ele>264.0</ele><time>2026-04-26T12:07:40.036Z</time></trkpt><trkpt lat="43.1343939" lon="11.5338629"><ele>264.0</ele><time>2026-04-26T12:07:41.039Z</time></trkpt><trkpt lat="43.1344693" lon="11.5336418"><ele>264.0</ele><time>2026-04-26T12:07:42.039Z</time></trkpt><trkpt lat="43.134539" lon="11.5334168"><ele>264.0</ele><time>2026-04-26T12:07:43.042Z</time></trkpt><trkpt lat="43.1346047" lon="11.5331905"><ele>264.0</ele><time>2026-04-26T12:07:44.039Z</time></trkpt><trkpt lat="43.1346669" lon="11.5329672"><ele>263.6666666666667</ele><time>2026-04-26T12:07:45.055Z</time></trkpt><trkpt lat="43.134723" lon="11.5327546"><ele>263.33333333333337</ele><time>2026-04-26T12:07:46.034Z</time></trkpt><trkpt lat="43.1347754" lon="11.532541"><ele>263.0</ele><time>2026-04-26T12:07:47.035Z</time></trkpt><trkpt lat="43.1348239" lon="11.532321"><ele>263.0</ele><time>2026-04-26T12:07:48.042Z</time></trkpt><trkpt lat="43.1348687" lon="11.5321018"><ele>263.0</ele><time>2026-04-26T12:07:49.047Z</time></trkpt><trkpt lat="43.1349089" lon="11.5318914"><ele>263.0</ele><time>2026-04-26T12:07:50.039Z</time></trkpt><trkpt lat="43.1349467" lon="11.5316782"><ele>265.0</ele><time>2026-04-26T12:07:51.049Z</time></trkpt><trkpt lat="43.1349789" lon="11.5314691"><ele>267.0</ele><time>2026-04-26T12:07:52.044Z</time></trkpt><trkpt lat="43.135003" lon="11.5312725"><ele>269.0</ele><time>2026-04-26T12:07:53.05Z</time></trkpt><trkpt lat="43.1350221" lon="11.5310954"><ele>271.0</ele><time>2026-04-26T12:07:54.043Z</time></trkpt><trkpt lat="43.1350366" lon="11.5309343"><ele>271.8</ele><time>2026-04-26T12:07:55.041Z</time></trkpt><trkpt lat="43.1350446" lon="11.530788"><ele>272.6</ele><time>2026-04-26T12:07:56.019Z</time></trkpt><trkpt lat="43.1350375" lon="11.5306485"><ele>273.4</ele><time>2026-04-26T12:07:57.023Z</time></trkpt><trkpt lat="43.135011" lon="11.5305089"><ele>274.2</ele><time>2026-04-26T12:07:58.025Z</time></trkpt><trkpt lat="43.1349683" lon="11.5303642"><ele>275.0</ele><time>2026-04-26T12:07:59.015Z</time></trkpt><trkpt lat="43.1349152" lon="11.5302085"><ele>271.75</ele><time>2026-04-26T12:08:00.023Z</time></trkpt><trkpt lat="43.1348587" lon="11.5300398"><ele>268.5</ele><time>2026-04-26T12:08:01.03Z</time></trkpt><trkpt lat="43.1347993" lon="11.5298619"><ele>265.25</ele><time>2026-04-26T12:08:02.021Z</time></trkpt><trkpt lat="43.1347381" lon="11.5296821"><ele>262.0</ele><time>2026-04-26T12:08:03.036Z</time></trkpt><trkpt lat="43.1346779" lon="11.5295168"><ele>262.0</ele><time>2026-04-26T12:08:04.026Z</time></trkpt><trkpt lat="43.1346179" lon="11.5293597"><ele>262.0</ele><time>2026-04-26T12:08:05.035Z</time></trkpt><trkpt lat="43.1345608" lon="11.5292088"><ele>262.0</ele><time>2026-04-26T12:08:06.042Z</time></trkpt><trkpt lat="43.1345067" lon="11.529062"><ele>262.0</ele><time>2026-04-26T12:08:07.034Z</time></trkpt><trkpt lat="43.1344552" lon="11.5289107"><ele>262.0</ele><time>2026-04-26T12:08:08.026Z</time></trkpt><trkpt lat="43.1344076" lon="11.5287488"><ele>262.0</ele><time>2026-04-26T12:08:09.033Z</time></trkpt><trkpt lat="43.1343709" lon="11.5285805"><ele>262.0</ele><time>2026-04-26T12:08:10.032Z</time></trkpt><trkpt lat="43.1343522" lon="11.5284091"><ele>262.0</ele><time>2026-04-26T12:08:11.024Z</time></trkpt><trkpt lat="43.1343535" lon="11.528229"><ele>262.3333333333333</ele><time>2026-04-26T12:08:12.029Z</time></trkpt><trkpt lat="43.1343654" lon="11.5280349"><ele>262.6666666666667</ele><time>2026-04-26T12:08:13.034Z</time></trkpt><trkpt lat="43.1343807" lon="11.527825"><ele>263.0</ele><time>2026-04-26T12:08:14.03Z</time></trkpt><trkpt lat="43.1343973" lon="11.5275981"><ele>262.0</ele><time>2026-04-26T12:08:15.055Z</time></trkpt><trkpt lat="43.1344141" lon="11.5273651"><ele>261.0</ele><time>2026-04-26T12:08:16.038Z</time></trkpt><trkpt lat="43.1344321" lon="11.5271266"><ele>260.0</ele><time>2026-04-26T12:08:17.04Z</time></trkpt><trkpt lat="43.1344519" lon="11.5268964"><ele>258.5</ele><time>2026-04-26T12:08:18.043Z</time></trkpt><trkpt lat="43.1344702" lon="11.5266797"><ele>257.0</ele><time>2026-04-26T12:08:19.046Z</time></trkpt><trkpt lat="43.1344871" lon="11.5264827"><ele>255.5</ele><time>2026-04-26T12:08:20.022Z</time></trkpt><trkpt lat="43.134504" lon="11.5262995"><ele>254.0</ele><time>2026-04-26T12:08:21.027Z</time></trkpt><trkpt lat="43.1345237" lon="11.5261326"><ele>253.0</ele><time>2026-04-26T12:08:22.014Z</time></trkpt><trkpt lat="43.1345512" lon="11.5259757"><ele>252.0</ele><time>2026-04-26T12:08:23.018Z</time></trkpt><trkpt lat="43.1345923" lon="11.5258184"><ele>251.0</ele><time>2026-04-26T12:08:24.023Z</time></trkpt><trkpt lat="43.1346487" lon="11.5256507"><ele>250.0</ele><time>2026-04-26T12:08:25.034Z</time></trkpt><trkpt lat="43.1347158" lon="11.5254734"><ele>249.66666666666666</ele><time>2026-04-26T12:08:26.017Z</time></trkpt><trkpt lat="43.1347905" lon="11.5252858"><ele>249.33333333333331</ele><time>2026-04-26T12:08:27.028Z</time></trkpt><trkpt lat="43.1348664" lon="11.5250911"><ele>249.0</ele><time>2026-04-26T12:08:28.033Z</time></trkpt><trkpt lat="43.1349372" lon="11.5248909"><ele>249.75</ele><time>2026-04-26T12:08:29.021Z</time></trkpt><trkpt lat="43.134994" lon="11.52469"><ele>250.5</ele><time>2026-04-26T12:08:30.035Z</time></trkpt><trkpt lat="43.1350311" lon="11.5244956"><ele>251.25</ele><time>2026-04-26T12:08:31.022Z</time></trkpt><trkpt lat="43.1350537" lon="11.524301"><ele>252.0</ele><time>2026-04-26T12:08:32.028Z</time></trkpt><trkpt lat="43.1350576" lon="11.5241012"><ele>252.0</ele><time>2026-04-26T12:08:33.023Z</time></trkpt><trkpt lat="43.1350427" lon="11.5238799"><ele>252.0</ele><time>2026-04-26T12:08:34.033Z</time></trkpt><trkpt lat="43.1350213" lon="11.5236358"><ele>252.0</ele><time>2026-04-26T12:08:35.032Z</time></trkpt><trkpt lat="43.135004" lon="11.5233753"><ele>250.33333333333331</ele><time>2026-04-26T12:08:36.034Z</time></trkpt><trkpt lat="43.1349897" lon="11.5231208"><ele>248.66666666666666</ele><time>2026-04-26T12:08:37.024Z</time></trkpt><trkpt lat="43.1349758" lon="11.522875"><ele>247.0</ele><time>2026-04-26T12:08:38.03Z</time></trkpt><trkpt lat="43.1349643" lon="11.5226336"><ele>245.0</ele><time>2026-04-26T12:08:39.036Z</time></trkpt><trkpt lat="43.1349598" lon="11.5223927"><ele>243.0</ele><time>2026-04-26T12:08:40.018Z</time></trkpt><trkpt lat="43.1349636" lon="11.5221469"><ele>241.0</ele><time>2026-04-26T12:08:41.04Z</time></trkpt><trkpt lat="43.1349747" lon="11.5219071"><ele>239.66666666666666</ele><time>2026-04-26T12:08:42.027Z</time></trkpt><trkpt lat="43.1349862" lon="11.5216634"><ele>238.33333333333331</ele><time>2026-04-26T12:08:43.037Z</time></trkpt><trkpt lat="43.1349943" lon="11.5214148"><ele>237.0</ele><time>2026-04-26T12:08:44.026Z</time></trkpt><trkpt lat="43.1349959" lon="11.5211678"><ele>236.66666666666669</ele><time>2026-04-26T12:08:45.03Z</time></trkpt><trkpt lat="43.1349899" lon="11.5209376"><ele>236.33333333333334</ele><time>2026-04-26T12:08:46.021Z</time></trkpt><trkpt lat="43.1349748" lon="11.5207128"><ele>236.0</ele><time>2026-04-26T12:08:47.021Z</time></trkpt><trkpt lat="43.1349507" lon="11.5204896"><ele>238.0</ele><time>2026-04-26T12:08:48.023Z</time></trkpt><trkpt lat="43.1349114" lon="11.5202572"><ele>240.0</ele><time>2026-04-26T12:08:49.029Z</time></trkpt><trkpt lat="43.1348577" lon="11.5200061"><ele>242.0</ele><time>2026-04-26T12:08:50.035Z</time></trkpt><trkpt lat="43.134795" lon="11.5197558"><ele>238.0</ele><time>2026-04-26T12:08:51.035Z</time></trkpt><trkpt lat="43.1347363" lon="11.5195254"><ele>234.0</ele><time>2026-04-26T12:08:52.035Z</time></trkpt><trkpt lat="43.1346895" lon="11.5192953"><ele>230.0</ele><time>2026-04-26T12:08:53.022Z</time></trkpt><trkpt lat="43.1346579" lon="11.5190459"><ele>230.0</ele><time>2026-04-26T12:08:54.028Z</time></trkpt><trkpt lat="43.1346383" lon="11.5187899"><ele>230.0</ele><time>2026-04-26T12:08:55.031Z</time></trkpt><trkpt lat="43.1346279" lon="11.5185504"><ele>230.0</ele><time>2026-04-26T12:08:56.037Z</time></trkpt><trkpt lat="43.1346295" lon="11.5183365"><ele>233.25</ele><time>2026-04-26T12:08:57.032Z</time></trkpt><trkpt lat="43.1346452" lon="11.5181471"><ele>236.5</ele><time>2026-04-26T12:08:58.037Z</time></trkpt><trkpt lat="43.1346747" lon="11.5179767"><ele>239.75</ele><time>2026-04-26T12:08:59.021Z</time></trkpt><trkpt lat="43.1347225" lon="11.5178138"><ele>243.0</ele><time>2026-04-26T12:09:00.042Z</time></trkpt><trkpt lat="43.1347921" lon="11.5176648"><ele>244.66666666666669</ele><time>2026-04-26T12:09:01.025Z</time></trkpt><trkpt lat="43.1348847" lon="11.517521"><ele>246.33333333333334</ele><time>2026-04-26T12:09:02.038Z</time></trkpt><trkpt lat="43.1349917" lon="11.5173636"><ele>248.0</ele><time>2026-04-26T12:09:03.039Z</time></trkpt><trkpt lat="43.135108" lon="11.5171778"><ele>245.33333333333334</ele><time>2026-04-26T12:09:04.048Z</time></trkpt><trkpt lat="43.1352293" lon="11.5169739"><ele>242.66666666666669</ele><time>2026-04-26T12:09:05.057Z</time></trkpt><trkpt lat="43.1353459" lon="11.5167778"><ele>240.0</ele><time>2026-04-26T12:09:06.035Z</time></trkpt><trkpt lat="43.1354576" lon="11.5165879"><ele>240.0</ele><time>2026-04-26T12:09:07.051Z</time></trkpt><trkpt lat="43.1355638" lon="11.5164056"><ele>240.0</ele><time>2026-04-26T12:09:08.046Z</time></trkpt><trkpt lat="43.1356703" lon="11.516234"><ele>240.0</ele><time>2026-04-26T12:09:09.039Z</time></trkpt><trkpt lat="43.135788" lon="11.5160746"><ele>237.25</ele><time>2026-04-26T12:09:10.04Z</time></trkpt><trkpt lat="43.1359145" lon="11.515935"><ele>234.5</ele><time>2026-04-26T12:09:11.025Z</time></trkpt><trkpt lat="43.1360359" lon="11.515813"><ele>231.75</ele><time>2026-04-26T12:09:12.028Z</time></trkpt><trkpt lat="43.136139" lon="11.5156923"><ele>229.0</ele><time>2026-04-26T12:09:13.073Z</time></trkpt><trkpt lat="43.136214" lon="11.5155622"><ele>229.0</ele><time>2026-04-26T12:09:14.029Z</time></trkpt><trkpt lat="43.1362678" lon="11.5154076"><ele>229.0</ele><time>2026-04-26T12:09:15.057Z</time></trkpt><trkpt lat="43.1363006" lon="11.5152373"><ele>229.0</ele><time>2026-04-26T12:09:16.038Z</time></trkpt><trkpt lat="43.1363168" lon="11.5150488"><ele>229.0</ele><time>2026-04-26T12:09:17.036Z</time></trkpt><trkpt lat="43.136313" lon="11.5148661"><ele>229.0</ele><time>2026-04-26T12:09:18.027Z</time></trkpt><trkpt lat="43.1362894" lon="11.5146946"><ele>229.0</ele><time>2026-04-26T12:09:19.039Z</time></trkpt><trkpt lat="43.1362445" lon="11.5145204"><ele>229.0</ele><time>2026-04-26T12:09:20.026Z</time></trkpt><trkpt lat="43.1361769" lon="11.5143418"><ele>229.0</ele><time>2026-04-26T12:09:21.03Z</time></trkpt><trkpt lat="43.13609" lon="11.5141656"><ele>229.0</ele><time>2026-04-26T12:09:22.033Z</time></trkpt><trkpt lat="43.1359925" lon="11.5139854"><ele>229.0</ele><time>2026-04-26T12:09:23.038Z</time></trkpt><trkpt lat="43.1358946" lon="11.5138009"><ele>229.0</ele><time>2026-04-26T12:09:24.03Z</time></trkpt><trkpt lat="43.1358039" lon="11.5136102"><ele>226.66666666666666</ele><time>2026-04-26T12:09:25.046Z</time></trkpt><trkpt lat="43.1357213" lon="11.5134216"><ele>224.33333333333331</ele><time>2026-04-26T12:09:26.036Z</time></trkpt><trkpt lat="43.1356388" lon="11.513225"><ele>222.0</ele><time>2026-04-26T12:09:27.046Z</time></trkpt><trkpt lat="43.1355636" lon="11.5130186"><ele>223.66666666666669</ele><time>2026-04-26T12:09:28.043Z</time></trkpt><trkpt lat="43.1355002" lon="11.5128046"><ele>225.33333333333334</ele><time>2026-04-26T12:09:29.044Z</time></trkpt><trkpt lat="43.1354425" lon="11.5125963"><ele>227.0</ele><time>2026-04-26T12:09:30.033Z</time></trkpt><trkpt lat="43.1353756" lon="11.5123926"><ele>227.0</ele><time>2026-04-26T12:09:31.051Z</time></trkpt><trkpt lat="43.1352891" lon="11.5121996"><ele>227.0</ele><time>2026-04-26T12:09:32.027Z</time></trkpt><trkpt lat="43.1351835" lon="11.5120081"><ele>227.0</ele><time>2026-04-26T12:09:33.038Z</time></trkpt><trkpt lat="43.1350697" lon="11.5118172"><ele>228.33333333333334</ele><time>2026-04-26T12:09:34.023Z</time></trkpt><trkpt lat="43.1349577" lon="11.5116221"><ele>229.66666666666669</ele><time>2026-04-26T12:09:35.027Z</time></trkpt><trkpt lat="43.1348586" lon="11.5114317"><ele>231.0</ele><time>2026-04-26T12:09:36.019Z</time></trkpt><trkpt lat="43.1347722" lon="11.5112483"><ele>233.0</ele><time>2026-04-26T12:09:37.019Z</time></trkpt><trkpt lat="43.1347005" lon="11.5110825"><ele>235.0</ele><time>2026-04-26T12:09:38.027Z</time></trkpt><trkpt lat="43.1346322" lon="11.5109235"><ele>237.0</ele><time>2026-04-26T12:09:39.033Z</time></trkpt><trkpt lat="43.1345574" lon="11.5107533"><ele>239.0</ele><time>2026-04-26T12:09:40.031Z</time></trkpt><trkpt lat="43.1344768" lon="11.5105732"><ele>237.0</ele><time>2026-04-26T12:09:41.024Z</time></trkpt><trkpt lat="43.134392" lon="11.5103902"><ele>235.0</ele><time>2026-04-26T12:09:42.031Z</time></trkpt><trkpt lat="43.1343064" lon="11.5102107"><ele>233.0</ele><time>2026-04-26T12:09:43.033Z</time></trkpt><trkpt lat="43.1342244" lon="11.5100371"><ele>233.0</ele><time>2026-04-26T12:09:44.021Z</time></trkpt><trkpt lat="43.1341439" lon="11.5098691"><ele>233.0</ele><time>2026-04-26T12:09:45.031Z</time></trkpt><trkpt lat="43.134067" lon="11.509705"><ele>233.0</ele><time>2026-04-26T12:09:46.034Z</time></trkpt><trkpt lat="43.1339924" lon="11.5095429"><ele>233.0</ele><time>2026-04-26T12:09:47.023Z</time></trkpt><trkpt lat="43.1339223" lon="11.50938"><ele>230.66666666666669</ele><time>2026-04-26T12:09:48.031Z</time></trkpt><trkpt lat="43.1338575" lon="11.5092077"><ele>228.33333333333331</ele><time>2026-04-26T12:09:49.024Z</time></trkpt><trkpt lat="43.1337976" lon="11.5090145"><ele>226.0</ele><time>2026-04-26T12:09:50.021Z</time></trkpt><trkpt lat="43.1337436" lon="11.508812"><ele>224.0</ele><time>2026-04-26T12:09:51.033Z</time></trkpt><trkpt lat="43.1336951" lon="11.5086126"><ele>222.0</ele><time>2026-04-26T12:09:52.019Z</time></trkpt><trkpt lat="43.1336469" lon="11.5084162"><ele>220.0</ele><time>2026-04-26T12:09:53.03Z</time></trkpt><trkpt lat="43.1336024" lon="11.5082261"><ele>220.0</ele><time>2026-04-26T12:09:54.019Z</time></trkpt><trkpt lat="43.1335653" lon="11.5080371"><ele>220.0</ele><time>2026-04-26T12:09:55.03Z</time></trkpt><trkpt lat="43.1335446" lon="11.507845"><ele>220.0</ele><time>2026-04-26T12:09:56.033Z</time></trkpt><trkpt lat="43.1335389" lon="11.5076403"><ele>220.0</ele><time>2026-04-26T12:09:57.04Z</time></trkpt><trkpt lat="43.1335487" lon="11.507426"><ele>218.0</ele><time>2026-04-26T12:09:58.025Z</time></trkpt><trkpt lat="43.1335678" lon="11.5072026"><ele>216.0</ele><time>2026-04-26T12:09:59.033Z</time></trkpt><trkpt lat="43.1335936" lon="11.5069753"><ele>214.0</ele><time>2026-04-26T12:10:00.032Z</time></trkpt><trkpt lat="43.1336257" lon="11.5067414"><ele>213.33333333333331</ele><time>2026-04-26T12:10:01.025Z</time></trkpt><trkpt lat="43.1336599" lon="11.5065008"><ele>212.66666666666669</ele><time>2026-04-26T12:10:02.032Z</time></trkpt><trkpt lat="43.1336937" lon="11.5062553"><ele>212.0</ele><time>2026-04-26T12:10:03.052Z</time></trkpt><trkpt lat="43.1337261" lon="11.5060084"><ele>211.66666666666669</ele><time>2026-04-26T12:10:04.052Z</time></trkpt><trkpt lat="43.1337547" lon="11.5057648"><ele>211.33333333333331</ele><time>2026-04-26T12:10:05.057Z</time></trkpt><trkpt lat="43.133781" lon="11.5055384"><ele>211.0</ele><time>2026-04-26T12:10:06.049Z</time></trkpt><trkpt lat="43.1338084" lon="11.505319"><ele>211.0</ele><time>2026-04-26T12:10:07.058Z</time></trkpt><trkpt lat="43.1338365" lon="11.5050975"><ele>211.0</ele><time>2026-04-26T12:10:08.043Z</time></trkpt><trkpt lat="43.1338642" lon="11.504874"><ele>211.0</ele><time>2026-04-26T12:10:09.053Z</time></trkpt><trkpt lat="43.1338902" lon="11.5046585"><ele>211.66666666666666</ele><time>2026-04-26T12:10:10.04Z</time></trkpt><trkpt lat="43.1339178" lon="11.5044362"><ele>212.33333333333331</ele><time>2026-04-26T12:10:11.044Z</time></trkpt><trkpt lat="43.1339487" lon="11.5042054"><ele>213.0</ele><time>2026-04-26T12:10:12.046Z</time></trkpt><trkpt lat="43.133988" lon="11.5039652"><ele>211.66666666666669</ele><time>2026-04-26T12:10:13.058Z</time></trkpt><trkpt lat="43.134035" lon="11.5037196"><ele>210.33333333333334</ele><time>2026-04-26T12:10:14.037Z</time></trkpt><trkpt lat="43.1340876" lon="11.5034679"><ele>209.0</ele><time>2026-04-26T12:10:15.048Z</time></trkpt><trkpt lat="43.1341385" lon="11.5032245"><ele>209.0</ele><time>2026-04-26T12:10:16.041Z</time></trkpt><trkpt lat="43.1341881" lon="11.50298"><ele>209.0</ele><time>2026-04-26T12:10:17.049Z</time></trkpt><trkpt lat="43.1342364" lon="11.5027316"><ele>209.0</ele><time>2026-04-26T12:10:18.028Z</time></trkpt><trkpt lat="43.1342823" lon="11.5024801"><ele>206.66666666666669</ele><time>2026-04-26T12:10:19.058Z</time></trkpt><trkpt lat="43.1343256" lon="11.5022417"><ele>204.33333333333331</ele><time>2026-04-26T12:10:20.047Z</time></trkpt><trkpt lat="43.1343712" lon="11.5020093"><ele>202.0</ele><time>2026-04-26T12:10:21.045Z</time></trkpt><trkpt lat="43.1344171" lon="11.5017844"><ele>199.33333333333331</ele><time>2026-04-26T12:10:22.032Z</time></trkpt><trkpt lat="43.1344613" lon="11.5015646"><ele>196.66666666666669</ele><time>2026-04-26T12:10:23.033Z</time></trkpt><trkpt lat="43.1345028" lon="11.5013528"><ele>194.0</ele><time>2026-04-26T12:10:24.02Z</time></trkpt><trkpt lat="43.1345422" lon="11.5011446"><ele>191.0</ele><time>2026-04-26T12:10:25.021Z</time></trkpt><trkpt lat="43.1345797" lon="11.5009417"><ele>188.0</ele><time>2026-04-26T12:10:26.013Z</time></trkpt><trkpt lat="43.1346174" lon="11.5007355"><ele>185.0</ele><time>2026-04-26T12:10:27.025Z</time></trkpt><trkpt lat="43.1346587" lon="11.5005208"><ele>182.0</ele><time>2026-04-26T12:10:28.025Z</time></trkpt><trkpt lat="43.1347023" lon="11.500298"><ele>179.0</ele><time>2026-04-26T12:10:29.032Z</time></trkpt><trkpt lat="43.1347483" lon="11.5000786"><ele>176.0</ele><time>2026-04-26T12:10:30.037Z</time></trkpt><trkpt lat="43.1347973" lon="11.4998622"><ele>176.0</ele><time>2026-04-26T12:10:31.027Z</time></trkpt><trkpt lat="43.1348507" lon="11.4996455"><ele>176.0</ele><time>2026-04-26T12:10:32.034Z</time></trkpt><trkpt lat="43.1349089" lon="11.4994313"><ele>176.0</ele><time>2026-04-26T12:10:33.031Z</time></trkpt><trkpt lat="43.134971" lon="11.4992157"><ele>173.66666666666666</ele><time>2026-04-26T12:10:34.036Z</time></trkpt><trkpt lat="43.1350362" lon="11.4989969"><ele>171.33333333333334</ele><time>2026-04-26T12:10:35.033Z</time></trkpt><trkpt lat="43.1351045" lon="11.4987736"><ele>169.0</ele><time>2026-04-26T12:10:36.04Z</time></trkpt><trkpt lat="43.1351719" lon="11.4985478"><ele>166.66666666666669</ele><time>2026-04-26T12:10:37.031Z</time></trkpt><trkpt lat="43.1352414" lon="11.498313"><ele>164.33333333333334</ele><time>2026-04-26T12:10:38.044Z</time></trkpt><trkpt lat="43.1353126" lon="11.4980769"><ele>162.0</ele><time>2026-04-26T12:10:39.035Z</time></trkpt><trkpt lat="43.1353872" lon="11.4978427"><ele>161.66666666666666</ele><time>2026-04-26T12:10:40.046Z</time></trkpt><trkpt lat="43.1354634" lon="11.4976227"><ele>161.33333333333331</ele><time>2026-04-26T12:10:41.037Z</time></trkpt><trkpt lat="43.1355486" lon="11.4974098"><ele>161.0</ele><time>2026-04-26T12:10:42.04Z</time></trkpt><trkpt lat="43.1356474" lon="11.4972037"><ele>161.33333333333331</ele><time>2026-04-26T12:10:43.032Z</time></trkpt><trkpt lat="43.1357591" lon="11.4970037"><ele>161.66666666666666</ele><time>2026-04-26T12:10:44.042Z</time></trkpt><trkpt lat="43.135875" lon="11.4968124"><ele>162.0</ele><time>2026-04-26T12:10:45.05Z</time></trkpt><trkpt lat="43.1359874" lon="11.4966269"><ele>162.0</ele><time>2026-04-26T12:10:46.04Z</time></trkpt><trkpt lat="43.136098" lon="11.4964397"><ele>162.0</ele><time>2026-04-26T12:10:47.041Z</time></trkpt><trkpt lat="43.1362056" lon="11.4962502"><ele>162.0</ele><time>2026-04-26T12:10:48.028Z</time></trkpt><trkpt lat="43.1363146" lon="11.4960561"><ele>162.33333333333334</ele><time>2026-04-26T12:10:49.045Z</time></trkpt><trkpt lat="43.136424" lon="11.4958649"><ele>162.66666666666669</ele><time>2026-04-26T12:10:50.022Z</time></trkpt><trkpt lat="43.1365383" lon="11.4956711"><ele>163.0</ele><time>2026-04-26T12:10:51.027Z</time></trkpt><trkpt lat="43.1366536" lon="11.4954762"><ele>164.33333333333334</ele><time>2026-04-26T12:10:52.04Z</time></trkpt><trkpt lat="43.1367691" lon="11.4952802"><ele>165.66666666666666</ele><time>2026-04-26T12:10:53.045Z</time></trkpt><trkpt lat="43.1368858" lon="11.4950826"><ele>167.0</ele><time>2026-04-26T12:10:54.051Z</time></trkpt><trkpt lat="43.1370008" lon="11.4948883"><ele>167.0</ele><time>2026-04-26T12:10:55.055Z</time></trkpt><trkpt lat="43.1371097" lon="11.4947065"><ele>167.0</ele><time>2026-04-26T12:10:56.038Z</time></trkpt><trkpt lat="43.1372094" lon="11.4945338"><ele>167.0</ele><time>2026-04-26T12:10:57.047Z</time></trkpt><trkpt lat="43.1372957" lon="11.4943701"><ele>166.5</ele><time>2026-04-26T12:10:58.05Z</time></trkpt><trkpt lat="43.1373638" lon="11.4941995"><ele>166.0</ele><time>2026-04-26T12:10:59.051Z</time></trkpt><trkpt lat="43.1374152" lon="11.4940112"><ele>165.5</ele><time>2026-04-26T12:11:00.054Z</time></trkpt><trkpt lat="43.1374521" lon="11.4938043"><ele>165.0</ele><time>2026-04-26T12:11:01.062Z</time></trkpt><trkpt lat="43.1374771" lon="11.4935866"><ele>166.33333333333334</ele><time>2026-04-26T12:11:02.044Z</time></trkpt><trkpt lat="43.1374987" lon="11.4933603"><ele>167.66666666666669</ele><time>2026-04-26T12:11:03.063Z</time></trkpt><trkpt lat="43.1375206" lon="11.4931374"><ele>169.0</ele><time>2026-04-26T12:11:04.055Z</time></trkpt><trkpt lat="43.1375459" lon="11.4929148"><ele>169.66666666666669</ele><time>2026-04-26T12:11:05.059Z</time></trkpt><trkpt lat="43.1375736" lon="11.4926954"><ele>170.33333333333334</ele><time>2026-04-26T12:11:06.044Z</time></trkpt><trkpt lat="43.1376014" lon="11.4924733"><ele>171.0</ele><time>2026-04-26T12:11:07.055Z</time></trkpt><trkpt lat="43.1376273" lon="11.4922527"><ele>173.33333333333334</ele><time>2026-04-26T12:11:08.044Z</time></trkpt><trkpt lat="43.1376546" lon="11.4920339"><ele>175.66666666666669</ele><time>2026-04-26T12:11:09.059Z</time></trkpt><trkpt lat="43.1376826" lon="11.4918289"><ele>178.0</ele><time>2026-04-26T12:11:10.058Z</time></trkpt><trkpt lat="43.1377085" lon="11.4916419"><ele>178.0</ele><time>2026-04-26T12:11:11.044Z</time></trkpt><trkpt lat="43.1377313" lon="11.491475"><ele>178.0</ele><time>2026-04-26T12:11:12.033Z</time></trkpt><trkpt lat="43.1377499" lon="11.491331"><ele>178.0</ele><time>2026-04-26T12:11:13.044Z</time></trkpt><trkpt lat="43.1377662" lon="11.4912036"><ele>178.0</ele><time>2026-04-26T12:11:14.023Z</time></trkpt><trkpt lat="43.137781" lon="11.4910797"><ele>178.0</ele><time>2026-04-26T12:11:15.022Z</time></trkpt><trkpt lat="43.1377913" lon="11.4909556"><ele>177.75</ele><time>2026-04-26T12:11:16.024Z</time></trkpt><trkpt lat="43.1377977" lon="11.4908234"><ele>177.5</ele><time>2026-04-26T12:11:17.028Z</time></trkpt><trkpt lat="43.1377978" lon="11.4906744"><ele>177.25</ele><time>2026-04-26T12:11:18.038Z</time></trkpt><trkpt lat="43.1377894" lon="11.4905101"><ele>177.0</ele><time>2026-04-26T12:11:19.043Z</time></trkpt><trkpt lat="43.1377761" lon="11.4903378"><ele>177.0</ele><time>2026-04-26T12:11:20.029Z</time></trkpt><trkpt lat="43.1377606" lon="11.4901611"><ele>177.0</ele><time>2026-04-26T12:11:21.043Z</time></trkpt><trkpt lat="43.1377452" lon="11.4899859"><ele>177.0</ele><time>2026-04-26T12:11:22.038Z</time></trkpt><trkpt lat="43.1377323" lon="11.4898067"><ele>177.0</ele><time>2026-04-26T12:11:23.059Z</time></trkpt><trkpt lat="43.1377211" lon="11.4896274"><ele>174.0</ele><time>2026-04-26T12:11:24.041Z</time></trkpt><trkpt lat="43.1377108" lon="11.4894421"><ele>171.0</ele><time>2026-04-26T12:11:25.054Z</time></trkpt><trkpt lat="43.1377041" lon="11.489257"><ele>168.0</ele><time>2026-04-26T12:11:26.029Z</time></trkpt><trkpt lat="43.1376992" lon="11.4890668"><ele>165.0</ele><time>2026-04-26T12:11:27.033Z</time></trkpt><trkpt lat="43.1376941" lon="11.4888807"><ele>163.0</ele><time>2026-04-26T12:11:28.026Z</time></trkpt><trkpt lat="43.1376898" lon="11.4887101"><ele>161.0</ele><time>2026-04-26T12:11:29.043Z</time></trkpt><trkpt lat="43.1376897" lon="11.4885795"><ele>159.0</ele><time>2026-04-26T12:11:30.03Z</time></trkpt><trkpt lat="43.1376998" lon="11.4884493"><ele>157.0</ele><time>2026-04-26T12:11:32.031Z</time></trkpt><trkpt lat="43.1377969" lon="11.4884302"><ele>155.0</ele><time>2026-04-26T12:11:36.03Z</time></trkpt><trkpt lat="43.1378586" lon="11.4884575"><ele>155.0</ele><time>2026-04-26T12:11:37.038Z</time></trkpt><trkpt lat="43.137937" lon="11.4884783"><ele>155.0</ele><time>2026-04-26T12:11:38.017Z</time></trkpt><trkpt lat="43.1380336" lon="11.4884898"><ele>155.0</ele><time>2026-04-26T12:11:39.032Z</time></trkpt><trkpt lat="43.1382684" lon="11.4884952"><ele>155.0</ele><time>2026-04-26T12:11:41.028Z</time></trkpt><trkpt lat="43.1384001" lon="11.4884938"><ele>154.6</ele><time>2026-04-26T12:11:42.032Z</time></trkpt><trkpt lat="43.13853" lon="11.4884878"><ele>154.2</ele><time>2026-04-26T12:11:43.043Z</time></trkpt><trkpt lat="43.1386481" lon="11.4884764"><ele>153.8</ele><time>2026-04-26T12:11:44.029Z</time></trkpt><trkpt lat="43.1387552" lon="11.488463"><ele>153.4</ele><time>2026-04-26T12:11:45.038Z</time></trkpt><trkpt lat="43.1388482" lon="11.4884555"><ele>153.0</ele><time>2026-04-26T12:11:46.038Z</time></trkpt><trkpt lat="43.1389235" lon="11.4884545"><ele>153.0</ele><time>2026-04-26T12:11:47.043Z</time></trkpt><trkpt lat="43.1390096" lon="11.488403"><ele>153.0</ele><time>2026-04-26T12:11:49.05Z</time></trkpt><trkpt lat="43.1389991" lon="11.4882709"><ele>153.0</ele><time>2026-04-26T12:11:51.051Z</time></trkpt><trkpt lat="43.1389738" lon="11.4881728"><ele>153.0</ele><time>2026-04-26T12:11:52.062Z</time></trkpt><trkpt lat="43.1389533" lon="11.4880469"><ele>153.0</ele><time>2026-04-26T12:11:53.051Z</time></trkpt><trkpt lat="43.1389394" lon="11.4878985"><ele>152.5</ele><time>2026-04-26T12:11:54.056Z</time></trkpt><trkpt lat="43.1389277" lon="11.4877347"><ele>152.0</ele><time>2026-04-26T12:11:55.09Z</time></trkpt><trkpt lat="43.1389169" lon="11.4875717"><ele>151.5</ele><time>2026-04-26T12:11:56.056Z</time></trkpt><trkpt lat="43.1389069" lon="11.4874156"><ele>151.0</ele><time>2026-04-26T12:11:57.043Z</time></trkpt><trkpt lat="43.1389002" lon="11.4872644"><ele>151.0</ele><time>2026-04-26T12:11:58.048Z</time></trkpt><trkpt lat="43.1388975" lon="11.4871052"><ele>151.0</ele><time>2026-04-26T12:11:59.046Z</time></trkpt><trkpt lat="43.1388977" lon="11.4869339"><ele>151.0</ele><time>2026-04-26T12:12:00.037Z</time></trkpt><trkpt lat="43.1389004" lon="11.4867564"><ele>151.0</ele><time>2026-04-26T12:12:01.04Z</time></trkpt><trkpt lat="43.1389046" lon="11.4865805"><ele>150.4</ele><time>2026-04-26T12:12:02.035Z</time></trkpt><trkpt lat="43.138909" lon="11.4864142"><ele>149.8</ele><time>2026-04-26T12:12:03.03Z</time></trkpt><trkpt lat="43.1389117" lon="11.4862624"><ele>149.20000000000002</ele><time>2026-04-26T12:12:04.013Z</time></trkpt><trkpt lat="43.1389122" lon="11.4861136"><ele>148.6</ele><time>2026-04-26T12:12:05.036Z</time></trkpt><trkpt lat="43.1389092" lon="11.4859694"><ele>148.0</ele><time>2026-04-26T12:12:06.029Z</time></trkpt><trkpt lat="43.1389031" lon="11.4858274"><ele>147.6</ele><time>2026-04-26T12:12:07.04Z</time></trkpt><trkpt lat="43.1388942" lon="11.4856831"><ele>147.20000000000002</ele><time>2026-04-26T12:12:08.046Z</time></trkpt><trkpt lat="43.138884" lon="11.485548"><ele>146.8</ele><time>2026-04-26T12:12:09.048Z</time></trkpt><trkpt lat="43.1388776" lon="11.4854417"><ele>146.4</ele><time>2026-04-26T12:12:10.034Z</time></trkpt><trkpt lat="43.1389068" lon="11.4853238"><ele>146.0</ele><time>2026-04-26T12:12:12.019Z</time></trkpt><trkpt lat="43.1390098" lon="11.4852856"><ele>145.8</ele><time>2026-04-26T12:12:14.034Z</time></trkpt><trkpt lat="43.1390873" lon="11.485265"><ele>145.6</ele><time>2026-04-26T12:12:15.048Z</time></trkpt><trkpt lat="43.1391833" lon="11.485234"><ele>145.4</ele><time>2026-04-26T12:12:16.051Z</time></trkpt><trkpt lat="43.1392861" lon="11.4852003"><ele>145.2</ele><time>2026-04-26T12:12:17.031Z</time></trkpt><trkpt lat="43.1393837" lon="11.4851681"><ele>145.0</ele><time>2026-04-26T12:12:18.04Z</time></trkpt><trkpt lat="43.1394704" lon="11.4851386"><ele>145.0</ele><time>2026-04-26T12:12:19.049Z</time></trkpt><trkpt lat="43.1395448" lon="11.4851125"><ele>145.0</ele><time>2026-04-26T12:12:20.028Z</time></trkpt><trkpt lat="43.1396057" lon="11.4850896"><ele>145.0</ele><time>2026-04-26T12:12:21.036Z</time></trkpt><trkpt lat="43.1396666" lon="11.4850568"><ele>145.0</ele><time>2026-04-26T12:12:23.03Z</time></trkpt><trkpt lat="43.1396839" lon="11.484907"><ele>145.0</ele><time>2026-04-26T12:12:28.021Z</time></trkpt><trkpt lat="43.1396718" lon="11.4848045"><ele>145.0</ele><time>2026-04-26T12:12:29.025Z</time></trkpt><trkpt lat="43.1396486" lon="11.48468"><ele>144.75</ele><time>2026-04-26T12:12:30.04Z</time></trkpt><trkpt lat="43.1396202" lon="11.4845376"><ele>144.5</ele><time>2026-04-26T12:12:31.049Z</time></trkpt><trkpt lat="43.1395867" lon="11.4843807"><ele>144.25</ele><time>2026-04-26T12:12:32.036Z</time></trkpt><trkpt lat="43.1395471" lon="11.4842159"><ele>144.0</ele><time>2026-04-26T12:12:33.055Z</time></trkpt><trkpt lat="43.1395024" lon="11.4840541"><ele>144.0</ele><time>2026-04-26T12:12:34.038Z</time></trkpt><trkpt lat="43.1394545" lon="11.4838909"><ele>144.0</ele><time>2026-04-26T12:12:35.044Z</time></trkpt><trkpt lat="43.139408" lon="11.4837269"><ele>144.0</ele><time>2026-04-26T12:12:36.046Z</time></trkpt><trkpt lat="43.1393638" lon="11.4835668"><ele>144.0</ele><time>2026-04-26T12:12:37.036Z</time></trkpt><trkpt lat="43.1393235" lon="11.4834216"><ele>144.16666666666666</ele><time>2026-04-26T12:12:38.043Z</time></trkpt><trkpt lat="43.1392908" lon="11.4833016"><ele>144.33333333333334</ele><time>2026-04-26T12:12:39.041Z</time></trkpt><trkpt lat="43.1392689" lon="11.4832101"><ele>144.5</ele><time>2026-04-26T12:12:40.043Z</time></trkpt><trkpt lat="43.1392504" lon="11.4830887"><ele>144.66666666666669</ele><time>2026-04-26T12:12:42.044Z</time></trkpt><trkpt lat="43.1392703" lon="11.4830008"><ele>144.83333333333334</ele><time>2026-04-26T12:12:44.046Z</time></trkpt><trkpt lat="43.1393629" lon="11.4829119"><ele>145.0</ele><time>2026-04-26T12:12:46.036Z</time></trkpt><trkpt lat="43.1394352" lon="11.4828646"><ele>145.4</ele><time>2026-04-26T12:12:47.051Z</time></trkpt><trkpt lat="43.1395198" lon="11.482807"><ele>145.8</ele><time>2026-04-26T12:12:48.037Z</time></trkpt><trkpt lat="43.139612" lon="11.4827425"><ele>146.2</ele><time>2026-04-26T12:12:49.045Z</time></trkpt><trkpt lat="43.1397111" lon="11.4826731"><ele>146.6</ele><time>2026-04-26T12:12:50.037Z</time></trkpt><trkpt lat="43.1398161" lon="11.4825997"><ele>147.0</ele><time>2026-04-26T12:12:51.032Z</time></trkpt><trkpt lat="43.1399248" lon="11.4825243"><ele>146.0</ele><time>2026-04-26T12:12:52.033Z</time></trkpt><trkpt lat="43.1400355" lon="11.4824486"><ele>145.0</ele><time>2026-04-26T12:12:53.022Z</time></trkpt><trkpt lat="43.140149" lon="11.4823698"><ele>144.0</ele><time>2026-04-26T12:12:54.04Z</time></trkpt><trkpt lat="43.140267" lon="11.4822864"><ele>143.0</ele><time>2026-04-26T12:12:55.057Z</time></trkpt><trkpt lat="43.1403894" lon="11.4822002"><ele>143.0</ele><time>2026-04-26T12:12:56.044Z</time></trkpt><trkpt lat="43.1405168" lon="11.48211"><ele>143.0</ele><time>2026-04-26T12:12:57.057Z</time></trkpt><trkpt lat="43.1406482" lon="11.4820162"><ele>143.0</ele><time>2026-04-26T12:12:58.041Z</time></trkpt><trkpt lat="43.1407859" lon="11.4819183"><ele>143.0</ele><time>2026-04-26T12:12:59.056Z</time></trkpt><trkpt lat="43.1409255" lon="11.4818199"><ele>142.33333333333331</ele><time>2026-04-26T12:13:00.054Z</time></trkpt><trkpt lat="43.1410664" lon="11.4817202"><ele>141.66666666666666</ele><time>2026-04-26T12:13:01.065Z</time></trkpt><trkpt lat="43.1412044" lon="11.4816211"><ele>141.0</ele><time>2026-04-26T12:13:02.043Z</time></trkpt><trkpt lat="43.141342" lon="11.481519"><ele>141.0</ele><time>2026-04-26T12:13:03.042Z</time></trkpt><trkpt lat="43.1414765" lon="11.4814109"><ele>141.0</ele><time>2026-04-26T12:13:04.071Z</time></trkpt><trkpt lat="43.1416018" lon="11.4812894"><ele>141.0</ele><time>2026-04-26T12:13:05.086Z</time></trkpt><trkpt lat="43.1417216" lon="11.4811514"><ele>141.33333333333334</ele><time>2026-04-26T12:13:06.062Z</time></trkpt><trkpt lat="43.1418424" lon="11.4809987"><ele>141.66666666666669</ele><time>2026-04-26T12:13:07.055Z</time></trkpt><trkpt lat="43.1419645" lon="11.4808422"><ele>142.0</ele><time>2026-04-26T12:13:08.037Z</time></trkpt><trkpt lat="43.1420895" lon="11.4806852"><ele>142.0</ele><time>2026-04-26T12:13:09.064Z</time></trkpt><trkpt lat="43.1422101" lon="11.4805349"><ele>142.0</ele><time>2026-04-26T12:13:10.045Z</time></trkpt><trkpt lat="43.1423276" lon="11.4803872"><ele>142.0</ele><time>2026-04-26T12:13:11.057Z</time></trkpt><trkpt lat="43.1424375" lon="11.4802461"><ele>142.66666666666669</ele><time>2026-04-26T12:13:12.045Z</time></trkpt><trkpt lat="43.1425416" lon="11.4801009"><ele>143.33333333333334</ele><time>2026-04-26T12:13:13.047Z</time></trkpt><trkpt lat="43.1426349" lon="11.4799426"><ele>144.0</ele><time>2026-04-26T12:13:14.035Z</time></trkpt><trkpt lat="43.1427107" lon="11.4797581"><ele>143.66666666666666</ele><time>2026-04-26T12:13:15.035Z</time></trkpt><trkpt lat="43.1427679" lon="11.47955"><ele>143.33333333333331</ele><time>2026-04-26T12:13:16.025Z</time></trkpt><trkpt lat="43.1428152" lon="11.4793251"><ele>143.0</ele><time>2026-04-26T12:13:17.028Z</time></trkpt><trkpt lat="43.1428569" lon="11.479092"><ele>143.0</ele><time>2026-04-26T12:13:18.039Z</time></trkpt><trkpt lat="43.1428964" lon="11.4788562"><ele>143.0</ele><time>2026-04-26T12:13:19.046Z</time></trkpt><trkpt lat="43.1429352" lon="11.4786189"><ele>143.0</ele><time>2026-04-26T12:13:20.048Z</time></trkpt><trkpt lat="43.1429743" lon="11.4783802"><ele>143.0</ele><time>2026-04-26T12:13:21.061Z</time></trkpt><trkpt lat="43.1430172" lon="11.4781521"><ele>143.0</ele><time>2026-04-26T12:13:22.045Z</time></trkpt><trkpt lat="43.1430646" lon="11.4779388"><ele>143.0</ele><time>2026-04-26T12:13:23.066Z</time></trkpt><trkpt lat="43.1431161" lon="11.4777497"><ele>143.0</ele><time>2026-04-26T12:13:24.045Z</time></trkpt><trkpt lat="43.1431776" lon="11.4775721"><ele>143.0</ele><time>2026-04-26T12:13:25.059Z</time></trkpt><trkpt lat="43.1432557" lon="11.4774016"><ele>143.0</ele><time>2026-04-26T12:13:26.05Z</time></trkpt><trkpt lat="43.1433537" lon="11.4772344"><ele>143.0</ele><time>2026-04-26T12:13:27.061Z</time></trkpt><trkpt lat="43.1434674" lon="11.4770783"><ele>143.0</ele><time>2026-04-26T12:13:28.04Z</time></trkpt><trkpt lat="43.143598" lon="11.4769277"><ele>143.0</ele><time>2026-04-26T12:13:29.056Z</time></trkpt><trkpt lat="43.1437424" lon="11.4767756"><ele>143.0</ele><time>2026-04-26T12:13:30.059Z</time></trkpt><trkpt lat="43.1438914" lon="11.4766211"><ele>143.0</ele><time>2026-04-26T12:13:31.065Z</time></trkpt><trkpt lat="43.1440289" lon="11.4764792"><ele>143.0</ele><time>2026-04-26T12:13:32.044Z</time></trkpt><trkpt lat="43.1441632" lon="11.476355"><ele>143.0</ele><time>2026-04-26T12:13:33.04Z</time></trkpt><trkpt lat="43.1442996" lon="11.4762679"><ele>142.66666666666666</ele><time>2026-04-26T12:13:34.041Z</time></trkpt><trkpt lat="43.1444433" lon="11.4762289"><ele>142.33333333333334</ele><time>2026-04-26T12:13:35.046Z</time></trkpt><trkpt lat="43.1446006" lon="11.4762322"><ele>142.0</ele><time>2026-04-26T12:13:36.046Z</time></trkpt><trkpt lat="43.144769" lon="11.4762578"><ele>147.66666666666669</ele><time>2026-04-26T12:13:37.032Z</time></trkpt><trkpt lat="43.1449423" lon="11.4762803"><ele>153.33333333333334</ele><time>2026-04-26T12:13:38.031Z</time></trkpt><trkpt lat="43.1451175" lon="11.476286"><ele>159.0</ele><time>2026-04-26T12:13:39.023Z</time></trkpt><trkpt lat="43.1452991" lon="11.4762705"><ele>154.33333333333334</ele><time>2026-04-26T12:13:40.036Z</time></trkpt><trkpt lat="43.1454884" lon="11.4762321"><ele>149.66666666666669</ele><time>2026-04-26T12:13:41.031Z</time></trkpt><trkpt lat="43.1456862" lon="11.4761734"><ele>145.0</ele><time>2026-04-26T12:13:42.027Z</time></trkpt><trkpt lat="43.1458908" lon="11.4760972"><ele>145.0</ele><time>2026-04-26T12:13:43.027Z</time></trkpt><trkpt lat="43.1461023" lon="11.4760146"><ele>145.0</ele><time>2026-04-26T12:13:44.026Z</time></trkpt><trkpt lat="43.1463164" lon="11.4759348"><ele>145.0</ele><time>2026-04-26T12:13:45.047Z</time></trkpt><trkpt lat="43.1465266" lon="11.4758591"><ele>146.0</ele><time>2026-04-26T12:13:46.046Z</time></trkpt><trkpt lat="43.1467351" lon="11.4757811"><ele>147.0</ele><time>2026-04-26T12:13:47.037Z</time></trkpt><trkpt lat="43.1469451" lon="11.475704"><ele>148.0</ele><time>2026-04-26T12:13:48.035Z</time></trkpt><trkpt lat="43.1471571" lon="11.4756281"><ele>148.0</ele><time>2026-04-26T12:13:49.039Z</time></trkpt><trkpt lat="43.1473704" lon="11.4755511"><ele>148.0</ele><time>2026-04-26T12:13:50.047Z</time></trkpt><trkpt lat="43.1475837" lon="11.4754728"><ele>148.0</ele><time>2026-04-26T12:13:51.038Z</time></trkpt><trkpt lat="43.1477981" lon="11.4753899"><ele>147.33333333333334</ele><time>2026-04-26T12:13:52.044Z</time></trkpt><trkpt lat="43.1480119" lon="11.4753052"><ele>146.66666666666666</ele><time>2026-04-26T12:13:53.054Z</time></trkpt><trkpt lat="43.148225" lon="11.4752249"><ele>146.0</ele><time>2026-04-26T12:13:54.044Z</time></trkpt><trkpt lat="43.1484407" lon="11.4751455"><ele>146.0</ele><time>2026-04-26T12:13:55.051Z</time></trkpt><trkpt lat="43.148655" lon="11.4750698"><ele>146.0</ele><time>2026-04-26T12:13:56.035Z</time></trkpt><trkpt lat="43.1488701" lon="11.4749927"><ele>146.0</ele><time>2026-04-26T12:13:57.041Z</time></trkpt><trkpt lat="43.1490817" lon="11.4749101"><ele>145.66666666666666</ele><time>2026-04-26T12:13:58.039Z</time></trkpt><trkpt lat="43.14929" lon="11.4748098"><ele>145.33333333333334</ele><time>2026-04-26T12:13:59.034Z</time></trkpt><trkpt lat="43.1494981" lon="11.4746914"><ele>145.0</ele><time>2026-04-26T12:14:00.051Z</time></trkpt><trkpt lat="43.1497024" lon="11.4745622"><ele>145.66666666666669</ele><time>2026-04-26T12:14:01.054Z</time></trkpt><trkpt lat="43.1499054" lon="11.4744308"><ele>146.33333333333334</ele><time>2026-04-26T12:14:02.039Z</time></trkpt><trkpt lat="43.1501083" lon="11.4742976"><ele>147.0</ele><time>2026-04-26T12:14:03.049Z</time></trkpt><trkpt lat="43.150303" lon="11.474166"><ele>147.0</ele><time>2026-04-26T12:14:04.031Z</time></trkpt><trkpt lat="43.150489" lon="11.4740242"><ele>147.0</ele><time>2026-04-26T12:14:05.026Z</time></trkpt><trkpt lat="43.1506636" lon="11.4738705"><ele>147.0</ele><time>2026-04-26T12:14:06.016Z</time></trkpt><trkpt lat="43.1508335" lon="11.4737036"><ele>147.33333333333334</ele><time>2026-04-26T12:14:07.047Z</time></trkpt><trkpt lat="43.1509969" lon="11.4735386"><ele>147.66666666666669</ele><time>2026-04-26T12:14:08.04Z</time></trkpt><trkpt lat="43.1511548" lon="11.4733791"><ele>148.0</ele><time>2026-04-26T12:14:09.045Z</time></trkpt><trkpt lat="43.1513059" lon="11.4732309"><ele>148.0</ele><time>2026-04-26T12:14:10.044Z</time></trkpt><trkpt lat="43.1514592" lon="11.4730915"><ele>148.0</ele><time>2026-04-26T12:14:11.055Z</time></trkpt><trkpt lat="43.1516198" lon="11.4729639"><ele>148.0</ele><time>2026-04-26T12:14:12.047Z</time></trkpt><trkpt lat="43.1517913" lon="11.4728466"><ele>146.33333333333334</ele><time>2026-04-26T12:14:13.048Z</time></trkpt><trkpt lat="43.1519707" lon="11.4727384"><ele>144.66666666666666</ele><time>2026-04-26T12:14:14.049Z</time></trkpt><trkpt lat="43.1521563" lon="11.472644"><ele>143.0</ele><time>2026-04-26T12:14:15.037Z</time></trkpt><trkpt lat="43.1523498" lon="11.4725654"><ele>143.0</ele><time>2026-04-26T12:14:16.046Z</time></trkpt><trkpt lat="43.152551" lon="11.4725055"><ele>143.0</ele><time>2026-04-26T12:14:17.037Z</time></trkpt><trkpt lat="43.1527595" lon="11.4724558"><ele>143.0</ele><time>2026-04-26T12:14:18.047Z</time></trkpt><trkpt lat="43.1529568" lon="11.4724134"><ele>143.0</ele><time>2026-04-26T12:14:19.032Z</time></trkpt><trkpt lat="43.1531427" lon="11.4723727"><ele>143.0</ele><time>2026-04-26T12:14:20.048Z</time></trkpt><trkpt lat="43.1533198" lon="11.4723328"><ele>143.0</ele><time>2026-04-26T12:14:21.059Z</time></trkpt><trkpt lat="43.1534943" lon="11.4722926"><ele>143.0</ele><time>2026-04-26T12:14:22.035Z</time></trkpt><trkpt lat="43.1536728" lon="11.4722512"><ele>143.0</ele><time>2026-04-26T12:14:23.047Z</time></trkpt><trkpt lat="43.1538529" lon="11.47221"><ele>143.0</ele><time>2026-04-26T12:14:24.036Z</time></trkpt><trkpt lat="43.1540428" lon="11.4721666"><ele>143.33333333333331</ele><time>2026-04-26T12:14:25.057Z</time></trkpt><trkpt lat="43.1542364" lon="11.4721221"><ele>143.66666666666666</ele><time>2026-04-26T12:14:26.043Z</time></trkpt><trkpt lat="43.1544329" lon="11.4720766"><ele>144.0</ele><time>2026-04-26T12:14:27.047Z</time></trkpt><trkpt lat="43.1546274" lon="11.4720305"><ele>144.0</ele><time>2026-04-26T12:14:28.035Z</time></trkpt><trkpt lat="43.1548206" lon="11.4719832"><ele>144.0</ele><time>2026-04-26T12:14:29.03Z</time></trkpt><trkpt lat="43.1550138" lon="11.4719387"><ele>144.0</ele><time>2026-04-26T12:14:30.034Z</time></trkpt><trkpt lat="43.1552075" lon="11.4718938"><ele>144.33333333333334</ele><time>2026-04-26T12:14:31.039Z</time></trkpt><trkpt lat="43.155402" lon="11.4718485"><ele>144.66666666666669</ele><time>2026-04-26T12:14:32.031Z</time></trkpt><trkpt lat="43.1555987" lon="11.4718024"><ele>145.0</ele><time>2026-04-26T12:14:33.046Z</time></trkpt><trkpt lat="43.1557917" lon="11.4717573"><ele>146.0</ele><time>2026-04-26T12:14:34.033Z</time></trkpt><trkpt lat="43.155983" lon="11.4717133"><ele>147.0</ele><time>2026-04-26T12:14:35.049Z</time></trkpt><trkpt lat="43.1561631" lon="11.4716728"><ele>148.0</ele><time>2026-04-26T12:14:36.046Z</time></trkpt><trkpt lat="43.1563313" lon="11.4716354"><ele>148.0</ele><time>2026-04-26T12:14:37.031Z</time></trkpt><trkpt lat="43.1564932" lon="11.4716009"><ele>148.0</ele><time>2026-04-26T12:14:38.043Z</time></trkpt><trkpt lat="43.1566533" lon="11.4715685"><ele>148.0</ele><time>2026-04-26T12:14:39.035Z</time></trkpt><trkpt lat="43.1568183" lon="11.4715323"><ele>148.33333333333334</ele><time>2026-04-26T12:14:40.046Z</time></trkpt><trkpt lat="43.1569848" lon="11.4714934"><ele>148.66666666666666</ele><time>2026-04-26T12:14:41.038Z</time></trkpt><trkpt lat="43.1571591" lon="11.4714527"><ele>149.0</ele><time>2026-04-26T12:14:42.063Z</time></trkpt><trkpt lat="43.1573357" lon="11.4714105"><ele>149.0</ele><time>2026-04-26T12:14:43.05Z</time></trkpt><trkpt lat="43.1575151" lon="11.4713637"><ele>149.0</ele><time>2026-04-26T12:14:44.047Z</time></trkpt><trkpt lat="43.1576933" lon="11.4713093"><ele>149.0</ele><time>2026-04-26T12:14:45.049Z</time></trkpt><trkpt lat="43.1578672" lon="11.4712326"><ele>148.33333333333331</ele><time>2026-04-26T12:14:46.039Z</time></trkpt><trkpt lat="43.1580419" lon="11.4711294"><ele>147.66666666666666</ele><time>2026-04-26T12:14:47.052Z</time></trkpt><trkpt lat="43.1582147" lon="11.4710122"><ele>147.0</ele><time>2026-04-26T12:14:48.04Z</time></trkpt><trkpt lat="43.1583841" lon="11.4708896"><ele>147.0</ele><time>2026-04-26T12:14:49.061Z</time></trkpt><trkpt lat="43.1585427" lon="11.4707684"><ele>147.0</ele><time>2026-04-26T12:14:50.05Z</time></trkpt><trkpt lat="43.1586925" lon="11.4706514"><ele>147.0</ele><time>2026-04-26T12:14:51.042Z</time></trkpt><trkpt lat="43.1588368" lon="11.4705357"><ele>147.0</ele><time>2026-04-26T12:14:52.034Z</time></trkpt><trkpt lat="43.1589814" lon="11.4704135"><ele>147.0</ele><time>2026-04-26T12:14:53.035Z</time></trkpt><trkpt lat="43.159129" lon="11.470286"><ele>147.0</ele><time>2026-04-26T12:14:54.043Z</time></trkpt><trkpt lat="43.1592784" lon="11.4701516"><ele>147.0</ele><time>2026-04-26T12:14:55.03Z</time></trkpt><trkpt lat="43.1594325" lon="11.4700095"><ele>147.0</ele><time>2026-04-26T12:14:56.042Z</time></trkpt><trkpt lat="43.1595851" lon="11.4698649"><ele>147.0</ele><time>2026-04-26T12:14:57.052Z</time></trkpt><trkpt lat="43.159735" lon="11.4697213"><ele>146.66666666666666</ele><time>2026-04-26T12:14:58.035Z</time></trkpt><trkpt lat="43.1598858" lon="11.4695752"><ele>146.33333333333331</ele><time>2026-04-26T12:14:59.058Z</time></trkpt><trkpt lat="43.1600323" lon="11.4694373"><ele>146.0</ele><time>2026-04-26T12:15:00.059Z</time></trkpt><trkpt lat="43.1601721" lon="11.469307"><ele>146.0</ele><time>2026-04-26T12:15:01.063Z</time></trkpt><trkpt lat="43.1603028" lon="11.4691862"><ele>146.0</ele><time>2026-04-26T12:15:02.045Z</time></trkpt><trkpt lat="43.1604276" lon="11.4690712"><ele>146.0</ele><time>2026-04-26T12:15:03.057Z</time></trkpt><trkpt lat="43.1605471" lon="11.4689653"><ele>146.0</ele><time>2026-04-26T12:15:04.048Z</time></trkpt><trkpt lat="43.1606698" lon="11.4688692"><ele>146.0</ele><time>2026-04-26T12:15:05.045Z</time></trkpt><trkpt lat="43.1608015" lon="11.4687912"><ele>146.0</ele><time>2026-04-26T12:15:06.047Z</time></trkpt><trkpt lat="43.1609427" lon="11.4687327"><ele>146.0</ele><time>2026-04-26T12:15:07.068Z</time></trkpt><trkpt lat="43.1610892" lon="11.468692"><ele>147.0</ele><time>2026-04-26T12:15:08.048Z</time></trkpt><trkpt lat="43.1612449" lon="11.4686592"><ele>148.0</ele><time>2026-04-26T12:15:09.039Z</time></trkpt><trkpt lat="43.161408" lon="11.4686332"><ele>149.0</ele><time>2026-04-26T12:15:10.031Z</time></trkpt><trkpt lat="43.1615724" lon="11.468608"><ele>149.66666666666666</ele><time>2026-04-26T12:15:11.032Z</time></trkpt><trkpt lat="43.1617335" lon="11.4685777"><ele>150.33333333333334</ele><time>2026-04-26T12:15:12.043Z</time></trkpt><trkpt lat="43.1618908" lon="11.468545"><ele>151.0</ele><time>2026-04-26T12:15:13.035Z</time></trkpt><trkpt lat="43.1620499" lon="11.4685138"><ele>151.0</ele><time>2026-04-26T12:15:14.043Z</time></trkpt><trkpt lat="43.1622106" lon="11.4684866"><ele>151.0</ele><time>2026-04-26T12:15:15.053Z</time></trkpt><trkpt lat="43.162371" lon="11.4684608"><ele>151.0</ele><time>2026-04-26T12:15:16.03Z</time></trkpt><trkpt lat="43.1625286" lon="11.4684319"><ele>150.25</ele><time>2026-04-26T12:15:17.037Z</time></trkpt><trkpt lat="43.162675" lon="11.4684"><ele>149.5</ele><time>2026-04-26T12:15:18.044Z</time></trkpt><trkpt lat="43.1628111" lon="11.4683583"><ele>148.75</ele><time>2026-04-26T12:15:19.026Z</time></trkpt><trkpt lat="43.1629389" lon="11.468306"><ele>148.0</ele><time>2026-04-26T12:15:20.027Z</time></trkpt><trkpt lat="43.1630548" lon="11.4682428"><ele>148.0</ele><time>2026-04-26T12:15:21.043Z</time></trkpt><trkpt lat="43.1631589" lon="11.4681715"><ele>148.0</ele><time>2026-04-26T12:15:22.046Z</time></trkpt><trkpt lat="43.1632577" lon="11.468095"><ele>148.0</ele><time>2026-04-26T12:15:23.06Z</time></trkpt><trkpt lat="43.1633558" lon="11.4680187"><ele>148.0</ele><time>2026-04-26T12:15:24.049Z</time></trkpt><trkpt lat="43.1634582" lon="11.4679455"><ele>147.20000000000002</ele><time>2026-04-26T12:15:25.06Z</time></trkpt><trkpt lat="43.1635595" lon="11.4678776"><ele>146.4</ele><time>2026-04-26T12:15:26.047Z</time></trkpt><trkpt lat="43.1636567" lon="11.4678119"><ele>145.60000000000002</ele><time>2026-04-26T12:15:27.057Z</time></trkpt><trkpt lat="43.1637523" lon="11.4677465"><ele>144.8</ele><time>2026-04-26T12:15:28.047Z</time></trkpt><trkpt lat="43.163854" lon="11.4676771"><ele>144.0</ele><time>2026-04-26T12:15:29.052Z</time></trkpt><trkpt lat="43.1639614" lon="11.4676037"><ele>144.5</ele><time>2026-04-26T12:15:30.044Z</time></trkpt><trkpt lat="43.1640754" lon="11.4675244"><ele>145.0</ele><time>2026-04-26T12:15:31.055Z</time></trkpt><trkpt lat="43.1641945" lon="11.4674391"><ele>145.5</ele><time>2026-04-26T12:15:32.045Z</time></trkpt><trkpt lat="43.1643219" lon="11.4673479"><ele>146.0</ele><time>2026-04-26T12:15:33.068Z</time></trkpt><trkpt lat="43.1644519" lon="11.4672559"><ele>146.0</ele><time>2026-04-26T12:15:34.048Z</time></trkpt><trkpt lat="43.1645821" lon="11.4671648"><ele>146.0</ele><time>2026-04-26T12:15:35.058Z</time></trkpt><trkpt lat="43.1647037" lon="11.4670818"><ele>146.0</ele><time>2026-04-26T12:15:36.065Z</time></trkpt><trkpt lat="43.1648178" lon="11.4670036"><ele>146.0</ele><time>2026-04-26T12:15:37.089Z</time></trkpt><trkpt lat="43.1649238" lon="11.4669313"><ele>146.4</ele><time>2026-04-26T12:15:38.066Z</time></trkpt><trkpt lat="43.1650265" lon="11.4668614"><ele>146.8</ele><time>2026-04-26T12:15:39.063Z</time></trkpt><trkpt lat="43.1651254" lon="11.4667928"><ele>147.20000000000002</ele><time>2026-04-26T12:15:40.051Z</time></trkpt><trkpt lat="43.1652224" lon="11.4667232"><ele>147.6</ele><time>2026-04-26T12:15:41.052Z</time></trkpt><trkpt lat="43.1653194" lon="11.4666557"><ele>148.0</ele><time>2026-04-26T12:15:42.038Z</time></trkpt><trkpt lat="43.1654229" lon="11.4665949"><ele>148.0</ele><time>2026-04-26T12:15:43.038Z</time></trkpt><trkpt lat="43.1655348" lon="11.4665431"><ele>148.0</ele><time>2026-04-26T12:15:44.021Z</time></trkpt><trkpt lat="43.1656539" lon="11.4664867"><ele>148.0</ele><time>2026-04-26T12:15:45.034Z</time></trkpt><trkpt lat="43.1657633" lon="11.4664154"><ele>148.0</ele><time>2026-04-26T12:15:46.024Z</time></trkpt><trkpt lat="43.1658532" lon="11.4663209"><ele>147.20000000000002</ele><time>2026-04-26T12:15:47.046Z</time></trkpt><trkpt lat="43.1659292" lon="11.4662158"><ele>146.4</ele><time>2026-04-26T12:15:48.058Z</time></trkpt><trkpt lat="43.1660001" lon="11.4661168"><ele>145.60000000000002</ele><time>2026-04-26T12:15:49.066Z</time></trkpt><trkpt lat="43.1660652" lon="11.4660288"><ele>144.8</ele><time>2026-04-26T12:15:50.042Z</time></trkpt><trkpt lat="43.1661269" lon="11.4659451"><ele>144.0</ele><time>2026-04-26T12:15:51.067Z</time></trkpt><trkpt lat="43.1661858" lon="11.4658638"><ele>144.0</ele><time>2026-04-26T12:15:52.052Z</time></trkpt><trkpt lat="43.1662495" lon="11.4657773"><ele>144.0</ele><time>2026-04-26T12:15:53.057Z</time></trkpt><trkpt lat="43.1663185" lon="11.4656871"><ele>144.0</ele><time>2026-04-26T12:15:54.046Z</time></trkpt><trkpt lat="43.166391" lon="11.4655974"><ele>144.0</ele><time>2026-04-26T12:15:55.067Z</time></trkpt><trkpt lat="43.1664616" lon="11.4655165"><ele>144.0</ele><time>2026-04-26T12:15:56.048Z</time></trkpt><trkpt lat="43.1665342" lon="11.4654409"><ele>144.66666666666666</ele><time>2026-04-26T12:15:57.06Z</time></trkpt><trkpt lat="43.1666091" lon="11.465372"><ele>145.33333333333334</ele><time>2026-04-26T12:15:58.041Z</time></trkpt><trkpt lat="43.1666884" lon="11.4653089"><ele>146.0</ele><time>2026-04-26T12:15:59.055Z</time></trkpt><trkpt lat="43.1667692" lon="11.4652551"><ele>146.66666666666669</ele><time>2026-04-26T12:16:00.045Z</time></trkpt><trkpt lat="43.1668519" lon="11.4652103"><ele>147.33333333333334</ele><time>2026-04-26T12:16:01.055Z</time></trkpt><trkpt lat="43.166935" lon="11.4651707"><ele>148.0</ele><time>2026-04-26T12:16:02.038Z</time></trkpt><trkpt lat="43.1670223" lon="11.4651293"><ele>148.0</ele><time>2026-04-26T12:16:03.037Z</time></trkpt><trkpt lat="43.1671166" lon="11.465093"><ele>148.0</ele><time>2026-04-26T12:16:04.04Z</time></trkpt><trkpt lat="43.1672247" lon="11.4650752"><ele>148.0</ele><time>2026-04-26T12:16:05.031Z</time></trkpt><trkpt lat="43.1673469" lon="11.4650768"><ele>148.0</ele><time>2026-04-26T12:16:06.034Z</time></trkpt><trkpt lat="43.167477" lon="11.4650947"><ele>148.25</ele><time>2026-04-26T12:16:07.05Z</time></trkpt><trkpt lat="43.1676085" lon="11.4651256"><ele>148.5</ele><time>2026-04-26T12:16:08.033Z</time></trkpt><trkpt lat="43.1677413" lon="11.4651684"><ele>148.75</ele><time>2026-04-26T12:16:09.042Z</time></trkpt><trkpt lat="43.1678693" lon="11.4652239"><ele>149.0</ele><time>2026-04-26T12:16:10.031Z</time></trkpt><trkpt lat="43.1679926" lon="11.4652931"><ele>149.0</ele><time>2026-04-26T12:16:11.049Z</time></trkpt><trkpt lat="43.1681097" lon="11.4653684"><ele>149.0</ele><time>2026-04-26T12:16:12.037Z</time></trkpt><trkpt lat="43.1682264" lon="11.4654444"><ele>149.0</ele><time>2026-04-26T12:16:13.054Z</time></trkpt><trkpt lat="43.1683403" lon="11.4655123"><ele>149.0</ele><time>2026-04-26T12:16:14.038Z</time></trkpt><trkpt lat="43.1684515" lon="11.465571"><ele>149.0</ele><time>2026-04-26T12:16:15.041Z</time></trkpt><trkpt lat="43.1685576" lon="11.4656189"><ele>149.0</ele><time>2026-04-26T12:16:16.048Z</time></trkpt><trkpt lat="43.1686587" lon="11.4656564"><ele>149.0</ele><time>2026-04-26T12:16:17.039Z</time></trkpt><trkpt lat="43.1687564" lon="11.4656871"><ele>149.0</ele><time>2026-04-26T12:16:18.049Z</time></trkpt><trkpt lat="43.1688529" lon="11.4657148"><ele>149.0</ele><time>2026-04-26T12:16:19.056Z</time></trkpt><trkpt lat="43.168953" lon="11.4657408"><ele>149.2</ele><time>2026-04-26T12:16:20.042Z</time></trkpt><trkpt lat="43.1690544" lon="11.4657621"><ele>149.4</ele><time>2026-04-26T12:16:21.04Z</time></trkpt><trkpt lat="43.169151" lon="11.4657739"><ele>149.6</ele><time>2026-04-26T12:16:22.042Z</time></trkpt><trkpt lat="43.1692471" lon="11.4657774"><ele>149.8</ele><time>2026-04-26T12:16:23.046Z</time></trkpt><trkpt lat="43.1693418" lon="11.4657761"><ele>150.0</ele><time>2026-04-26T12:16:24.037Z</time></trkpt><trkpt lat="43.1694318" lon="11.4657731"><ele>150.0</ele><time>2026-04-26T12:16:25.047Z</time></trkpt><trkpt lat="43.1695198" lon="11.4657677"><ele>150.0</ele><time>2026-04-26T12:16:26.055Z</time></trkpt><trkpt lat="43.1696119" lon="11.4657577"><ele>150.0</ele><time>2026-04-26T12:16:27.042Z</time></trkpt><trkpt lat="43.1697094" lon="11.4657411"><ele>150.0</ele><time>2026-04-26T12:16:28.043Z</time></trkpt><trkpt lat="43.1698096" lon="11.4657163"><ele>150.0</ele><time>2026-04-26T12:16:29.041Z</time></trkpt><trkpt lat="43.1699107" lon="11.465685"><ele>149.8</ele><time>2026-04-26T12:16:30.041Z</time></trkpt><trkpt lat="43.1700103" lon="11.4656496"><ele>149.6</ele><time>2026-04-26T12:16:31.029Z</time></trkpt><trkpt lat="43.1701096" lon="11.465611"><ele>149.4</ele><time>2026-04-26T12:16:32.035Z</time></trkpt><trkpt lat="43.1702109" lon="11.4655714"><ele>149.2</ele><time>2026-04-26T12:16:33.015Z</time></trkpt><trkpt lat="43.1703168" lon="11.4655307"><ele>149.0</ele><time>2026-04-26T12:16:34.027Z</time></trkpt><trkpt lat="43.1704229" lon="11.4654898"><ele>149.0</ele><time>2026-04-26T12:16:35.039Z</time></trkpt><trkpt lat="43.1705281" lon="11.4654484"><ele>149.0</ele><time>2026-04-26T12:16:36.038Z</time></trkpt><trkpt lat="43.1706353" lon="11.465405"><ele>149.0</ele><time>2026-04-26T12:16:37.057Z</time></trkpt><trkpt lat="43.170741" lon="11.465362"><ele>149.0</ele><time>2026-04-26T12:16:38.048Z</time></trkpt><trkpt lat="43.1708451" lon="11.4653188"><ele>149.0</ele><time>2026-04-26T12:16:39.048Z</time></trkpt><trkpt lat="43.1709472" lon="11.4652759"><ele>149.0</ele><time>2026-04-26T12:16:40.058Z</time></trkpt><trkpt lat="43.1710491" lon="11.4652357"><ele>149.0</ele><time>2026-04-26T12:16:41.059Z</time></trkpt><trkpt lat="43.1711529" lon="11.4651972"><ele>149.0</ele><time>2026-04-26T12:16:42.044Z</time></trkpt><trkpt lat="43.171261" lon="11.4651581"><ele>149.0</ele><time>2026-04-26T12:16:43.066Z</time></trkpt><trkpt lat="43.1713704" lon="11.4651162"><ele>149.0</ele><time>2026-04-26T12:16:44.042Z</time></trkpt><trkpt lat="43.1714852" lon="11.4650707"><ele>148.75</ele><time>2026-04-26T12:16:45.057Z</time></trkpt><trkpt lat="43.1715999" lon="11.4650231"><ele>148.5</ele><time>2026-04-26T12:16:46.041Z</time></trkpt><trkpt lat="43.1717194" lon="11.4649743"><ele>148.25</ele><time>2026-04-26T12:16:47.05Z</time></trkpt><trkpt lat="43.1718445" lon="11.4649239"><ele>148.0</ele><time>2026-04-26T12:16:48.042Z</time></trkpt><trkpt lat="43.1719786" lon="11.4648698"><ele>148.0</ele><time>2026-04-26T12:16:49.064Z</time></trkpt><trkpt lat="43.1721173" lon="11.4648129"><ele>148.0</ele><time>2026-04-26T12:16:50.057Z</time></trkpt><trkpt lat="43.1722616" lon="11.4647519"><ele>148.0</ele><time>2026-04-26T12:16:51.064Z</time></trkpt><trkpt lat="43.1724095" lon="11.4646907"><ele>148.33333333333334</ele><time>2026-04-26T12:16:52.046Z</time></trkpt><trkpt lat="43.1725636" lon="11.4646296"><ele>148.66666666666666</ele><time>2026-04-26T12:16:53.047Z</time></trkpt><trkpt lat="43.1727226" lon="11.4645674"><ele>149.0</ele><time>2026-04-26T12:16:54.038Z</time></trkpt><trkpt lat="43.1728897" lon="11.4645042"><ele>149.33333333333331</ele><time>2026-04-26T12:16:55.05Z</time></trkpt><trkpt lat="43.1730601" lon="11.4644401"><ele>149.66666666666666</ele><time>2026-04-26T12:16:56.052Z</time></trkpt><trkpt lat="43.1732327" lon="11.4643744"><ele>150.0</ele><time>2026-04-26T12:16:57.039Z</time></trkpt><trkpt lat="43.1734081" lon="11.4643062"><ele>150.0</ele><time>2026-04-26T12:16:58.042Z</time></trkpt><trkpt lat="43.1735831" lon="11.4642354"><ele>150.0</ele><time>2026-04-26T12:16:59.049Z</time></trkpt><trkpt lat="43.1737538" lon="11.4641665"><ele>150.0</ele><time>2026-04-26T12:17:00.057Z</time></trkpt><trkpt lat="43.173921" lon="11.4640989"><ele>149.33333333333334</ele><time>2026-04-26T12:17:01.062Z</time></trkpt><trkpt lat="43.1740917" lon="11.4640298"><ele>148.66666666666669</ele><time>2026-04-26T12:17:02.059Z</time></trkpt><trkpt lat="43.174267" lon="11.4639579"><ele>148.0</ele><time>2026-04-26T12:17:03.068Z</time></trkpt><trkpt lat="43.1744449" lon="11.4638866"><ele>148.0</ele><time>2026-04-26T12:17:04.059Z</time></trkpt><trkpt lat="43.1746266" lon="11.4638165"><ele>148.0</ele><time>2026-04-26T12:17:05.047Z</time></trkpt><trkpt lat="43.1748114" lon="11.4637475"><ele>148.0</ele><time>2026-04-26T12:17:06.057Z</time></trkpt><trkpt lat="43.1749979" lon="11.4636757"><ele>148.66666666666669</ele><time>2026-04-26T12:17:07.097Z</time></trkpt><trkpt lat="43.1751794" lon="11.4636029"><ele>149.33333333333334</ele><time>2026-04-26T12:17:08.062Z</time></trkpt><trkpt lat="43.1753679" lon="11.4635276"><ele>150.0</ele><time>2026-04-26T12:17:09.094Z</time></trkpt><trkpt lat="43.1755508" lon="11.4634546"><ele>150.66666666666666</ele><time>2026-04-26T12:17:10.05Z</time></trkpt><trkpt lat="43.1757383" lon="11.4633793"><ele>151.33333333333331</ele><time>2026-04-26T12:17:11.051Z</time></trkpt><trkpt lat="43.1759238" lon="11.4633035"><ele>152.0</ele><time>2026-04-26T12:17:12.052Z</time></trkpt><trkpt lat="43.1761092" lon="11.4632277"><ele>152.0</ele><time>2026-04-26T12:17:13.067Z</time></trkpt><trkpt lat="43.1762901" lon="11.4631541"><ele>152.0</ele><time>2026-04-26T12:17:14.04Z</time></trkpt><trkpt lat="43.176471" lon="11.4630814"><ele>152.0</ele><time>2026-04-26T12:17:15.058Z</time></trkpt><trkpt lat="43.1766414" lon="11.4630137"><ele>152.0</ele><time>2026-04-26T12:17:16.058Z</time></trkpt><trkpt lat="43.1768018" lon="11.4629504"><ele>152.0</ele><time>2026-04-26T12:17:17.047Z</time></trkpt><trkpt lat="43.176959" lon="11.4628881"><ele>152.0</ele><time>2026-04-26T12:17:18.053Z</time></trkpt><trkpt lat="43.1771175" lon="11.462825"><ele>152.33333333333331</ele><time>2026-04-26T12:17:19.056Z</time></trkpt><trkpt lat="43.1772776" lon="11.4627606"><ele>152.66666666666666</ele><time>2026-04-26T12:17:20.037Z</time></trkpt><trkpt lat="43.177442" lon="11.4626944"><ele>153.0</ele><time>2026-04-26T12:17:21.052Z</time></trkpt><trkpt lat="43.1776056" lon="11.4626288"><ele>153.33333333333334</ele><time>2026-04-26T12:17:22.044Z</time></trkpt><trkpt lat="43.1777693" lon="11.4625637"><ele>153.66666666666669</ele><time>2026-04-26T12:17:23.044Z</time></trkpt><trkpt lat="43.1779301" lon="11.4625032"><ele>154.0</ele><time>2026-04-26T12:17:24.043Z</time></trkpt><trkpt lat="43.1780927" lon="11.4624617"><ele>153.66666666666669</ele><time>2026-04-26T12:17:25.069Z</time></trkpt><trkpt lat="43.1782591" lon="11.4624609"><ele>153.33333333333334</ele><time>2026-04-26T12:17:26.043Z</time></trkpt><trkpt lat="43.1784357" lon="11.4625033"><ele>153.0</ele><time>2026-04-26T12:17:27.055Z</time></trkpt><trkpt lat="43.1786052" lon="11.4625637"><ele>153.0</ele><time>2026-04-26T12:17:28.055Z</time></trkpt><trkpt lat="43.1787611" lon="11.4626238"><ele>153.0</ele><time>2026-04-26T12:17:29.062Z</time></trkpt><trkpt lat="43.1789092" lon="11.462678"><ele>153.0</ele><time>2026-04-26T12:17:30.047Z</time></trkpt><trkpt lat="43.1790606" lon="11.4627262"><ele>154.33333333333334</ele><time>2026-04-26T12:17:31.06Z</time></trkpt><trkpt lat="43.1792118" lon="11.4627697"><ele>155.66666666666669</ele><time>2026-04-26T12:17:32.053Z</time></trkpt><trkpt lat="43.1793631" lon="11.4628032"><ele>157.0</ele><time>2026-04-26T12:17:33.053Z</time></trkpt><trkpt lat="43.1795149" lon="11.4628124"><ele>157.0</ele><time>2026-04-26T12:17:34.054Z</time></trkpt><trkpt lat="43.1796678" lon="11.462785"><ele>157.0</ele><time>2026-04-26T12:17:35.047Z</time></trkpt><trkpt lat="43.1798186" lon="11.4627162"><ele>157.0</ele><time>2026-04-26T12:17:36.051Z</time></trkpt><trkpt lat="43.1799614" lon="11.4626104"><ele>157.33333333333334</ele><time>2026-04-26T12:17:37.064Z</time></trkpt><trkpt lat="43.1800857" lon="11.4624709"><ele>157.66666666666666</ele><time>2026-04-26T12:17:38.074Z</time></trkpt><trkpt lat="43.1801845" lon="11.462301"><ele>158.0</ele><time>2026-04-26T12:17:39.093Z</time></trkpt><trkpt lat="43.1802646" lon="11.4621116"><ele>161.0</ele><time>2026-04-26T12:17:40.037Z</time></trkpt><trkpt lat="43.1803414" lon="11.4619066"><ele>164.0</ele><time>2026-04-26T12:17:41.039Z</time></trkpt><trkpt lat="43.1804184" lon="11.4617036"><ele>167.0</ele><time>2026-04-26T12:17:42.041Z</time></trkpt><trkpt lat="43.1805047" lon="11.4615101"><ele>167.0</ele><time>2026-04-26T12:17:43.043Z</time></trkpt><trkpt lat="43.1806054" lon="11.461333"><ele>167.0</ele><time>2026-04-26T12:17:44.033Z</time></trkpt><trkpt lat="43.18072" lon="11.4611689"><ele>167.0</ele><time>2026-04-26T12:17:45.036Z</time></trkpt><trkpt lat="43.1808478" lon="11.461018"><ele>165.33333333333331</ele><time>2026-04-26T12:17:46.025Z</time></trkpt><trkpt lat="43.1809874" lon="11.4608712"><ele>163.66666666666666</ele><time>2026-04-26T12:17:47.03Z</time></trkpt><trkpt lat="43.1811328" lon="11.4607226"><ele>162.0</ele><time>2026-04-26T12:17:48.025Z</time></trkpt><trkpt lat="43.1812806" lon="11.4605699"><ele>161.33333333333334</ele><time>2026-04-26T12:17:49.043Z</time></trkpt><trkpt lat="43.1814263" lon="11.4604191"><ele>160.66666666666669</ele><time>2026-04-26T12:17:50.043Z</time></trkpt><trkpt lat="43.1815702" lon="11.4602716"><ele>160.0</ele><time>2026-04-26T12:17:51.051Z</time></trkpt><trkpt lat="43.1817142" lon="11.4601267"><ele>160.0</ele><time>2026-04-26T12:17:52.05Z</time></trkpt><trkpt lat="43.181861" lon="11.4599776"><ele>160.0</ele><time>2026-04-26T12:17:53.068Z</time></trkpt><trkpt lat="43.1820058" lon="11.4598307"><ele>160.0</ele><time>2026-04-26T12:17:54.047Z</time></trkpt><trkpt lat="43.1821529" lon="11.4596842"><ele>160.0</ele><time>2026-04-26T12:17:55.047Z</time></trkpt><trkpt lat="43.1823002" lon="11.459542"><ele>160.0</ele><time>2026-04-26T12:17:56.05Z</time></trkpt><trkpt lat="43.1824467" lon="11.4594014"><ele>160.0</ele><time>2026-04-26T12:17:57.067Z</time></trkpt><trkpt lat="43.1825883" lon="11.4592654"><ele>160.0</ele><time>2026-04-26T12:17:58.045Z</time></trkpt><trkpt lat="43.1827238" lon="11.4591308"><ele>160.0</ele><time>2026-04-26T12:17:59.058Z</time></trkpt><trkpt lat="43.182848" lon="11.459005"><ele>160.0</ele><time>2026-04-26T12:18:00.05Z</time></trkpt><trkpt lat="43.1829671" lon="11.4588841"><ele>160.66666666666669</ele><time>2026-04-26T12:18:01.062Z</time></trkpt><trkpt lat="43.1830862" lon="11.4587639"><ele>161.33333333333334</ele><time>2026-04-26T12:18:02.052Z</time></trkpt><trkpt lat="43.1832117" lon="11.4586376"><ele>162.0</ele><time>2026-04-26T12:18:03.053Z</time></trkpt><trkpt lat="43.183341" lon="11.4585074"><ele>162.0</ele><time>2026-04-26T12:18:04.044Z</time></trkpt><trkpt lat="43.1834706" lon="11.4583758"><ele>162.0</ele><time>2026-04-26T12:18:05.059Z</time></trkpt><trkpt lat="43.1835952" lon="11.4582483"><ele>162.0</ele><time>2026-04-26T12:18:06.031Z</time></trkpt><trkpt lat="43.1837236" lon="11.4581134"><ele>162.0</ele><time>2026-04-26T12:18:07.044Z</time></trkpt><trkpt lat="43.1838542" lon="11.4579686"><ele>162.0</ele><time>2026-04-26T12:18:08.037Z</time></trkpt><trkpt lat="43.1839902" lon="11.457815"><ele>162.0</ele><time>2026-04-26T12:18:09.031Z</time></trkpt><trkpt lat="43.1841258" lon="11.4576585"><ele>162.33333333333334</ele><time>2026-04-26T12:18:10.041Z</time></trkpt><trkpt lat="43.1842526" lon="11.4575084"><ele>162.66666666666669</ele><time>2026-04-26T12:18:11.029Z</time></trkpt><trkpt lat="43.1843719" lon="11.4573673"><ele>163.0</ele><time>2026-04-26T12:18:12.032Z</time></trkpt><trkpt lat="43.184484" lon="11.4572328"><ele>163.0</ele><time>2026-04-26T12:18:13.058Z</time></trkpt><trkpt lat="43.1845873" lon="11.4571046"><ele>163.0</ele><time>2026-04-26T12:18:14.044Z</time></trkpt><trkpt lat="43.1846885" lon="11.4569759"><ele>163.0</ele><time>2026-04-26T12:18:15.055Z</time></trkpt><trkpt lat="43.1847915" lon="11.4568472"><ele>163.0</ele><time>2026-04-26T12:18:16.028Z</time></trkpt><trkpt lat="43.1849039" lon="11.4567117"><ele>163.0</ele><time>2026-04-26T12:18:17.042Z</time></trkpt><trkpt lat="43.185022" lon="11.456568"><ele>163.0</ele><time>2026-04-26T12:18:18.03Z</time></trkpt><trkpt lat="43.1851487" lon="11.4564106"><ele>163.0</ele><time>2026-04-26T12:18:19.038Z</time></trkpt><trkpt lat="43.1852805" lon="11.4562426"><ele>164.0</ele><time>2026-04-26T12:18:20.054Z</time></trkpt><trkpt lat="43.1854146" lon="11.4560733"><ele>165.0</ele><time>2026-04-26T12:18:21.057Z</time></trkpt><trkpt lat="43.1855445" lon="11.4559106"><ele>166.0</ele><time>2026-04-26T12:18:22.038Z</time></trkpt><trkpt lat="43.1856689" lon="11.4557568"><ele>165.66666666666669</ele><time>2026-04-26T12:18:23.058Z</time></trkpt><trkpt lat="43.1857872" lon="11.4556176"><ele>165.33333333333334</ele><time>2026-04-26T12:18:24.049Z</time></trkpt><trkpt lat="43.1859088" lon="11.4554845"><ele>165.0</ele><time>2026-04-26T12:18:25.059Z</time></trkpt><trkpt lat="43.1860374" lon="11.4553597"><ele>166.33333333333334</ele><time>2026-04-26T12:18:26.047Z</time></trkpt><trkpt lat="43.1861752" lon="11.4552419"><ele>167.66666666666669</ele><time>2026-04-26T12:18:27.053Z</time></trkpt><trkpt lat="43.1863203" lon="11.4551342"><ele>169.0</ele><time>2026-04-26T12:18:28.044Z</time></trkpt><trkpt lat="43.1864722" lon="11.4550349"><ele>169.25</ele><time>2026-04-26T12:18:29.039Z</time></trkpt><trkpt lat="43.1866203" lon="11.4549482"><ele>169.5</ele><time>2026-04-26T12:18:30.039Z</time></trkpt><trkpt lat="43.186759" lon="11.4548705"><ele>169.75</ele><time>2026-04-26T12:18:31.079Z</time></trkpt><trkpt lat="43.1868821" lon="11.4548006"><ele>170.0</ele><time>2026-04-26T12:18:32.048Z</time></trkpt><trkpt lat="43.1869959" lon="11.4547344"><ele>170.0</ele><time>2026-04-26T12:18:33.054Z</time></trkpt><trkpt lat="43.1870981" lon="11.4546731"><ele>170.0</ele><time>2026-04-26T12:18:34.039Z</time></trkpt><trkpt lat="43.1871966" lon="11.4546137"><ele>170.0</ele><time>2026-04-26T12:18:35.046Z</time></trkpt><trkpt lat="43.1872975" lon="11.4545537"><ele>170.0</ele><time>2026-04-26T12:18:36.031Z</time></trkpt><trkpt lat="43.187407" lon="11.454491"><ele>170.0</ele><time>2026-04-26T12:18:37.051Z</time></trkpt><trkpt lat="43.1875218" lon="11.4544276"><ele>172.25</ele><time>2026-04-26T12:18:38.073Z</time></trkpt><trkpt lat="43.1876382" lon="11.4543633"><ele>174.5</ele><time>2026-04-26T12:18:39.085Z</time></trkpt><trkpt lat="43.1877549" lon="11.4542966"><ele>176.75</ele><time>2026-04-26T12:18:40.057Z</time></trkpt><trkpt lat="43.1878759" lon="11.4542291"><ele>179.0</ele><time>2026-04-26T12:18:41.067Z</time></trkpt><trkpt lat="43.1879969" lon="11.4541663"><ele>179.0</ele><time>2026-04-26T12:18:42.051Z</time></trkpt><trkpt lat="43.1881195" lon="11.4541112"><ele>179.0</ele><time>2026-04-26T12:18:43.07Z</time></trkpt><trkpt lat="43.1882355" lon="11.4540749"><ele>179.0</ele><time>2026-04-26T12:18:44.041Z</time></trkpt><trkpt lat="43.1883482" lon="11.4540576"><ele>179.0</ele><time>2026-04-26T12:18:45.047Z</time></trkpt><trkpt lat="43.18846" lon="11.4540536"><ele>179.5</ele><time>2026-04-26T12:18:46.059Z</time></trkpt><trkpt lat="43.1885775" lon="11.454055"><ele>180.0</ele><time>2026-04-26T12:18:47.051Z</time></trkpt><trkpt lat="43.1887049" lon="11.4540584"><ele>180.5</ele><time>2026-04-26T12:18:48.049Z</time></trkpt><trkpt lat="43.1888409" lon="11.4540601"><ele>181.0</ele><time>2026-04-26T12:18:49.064Z</time></trkpt><trkpt lat="43.1889799" lon="11.4540603"><ele>180.0</ele><time>2026-04-26T12:18:50.047Z</time></trkpt><trkpt lat="43.189119" lon="11.4540597"><ele>179.0</ele><time>2026-04-26T12:18:51.073Z</time></trkpt><trkpt lat="43.1892482" lon="11.4540629"><ele>178.0</ele><time>2026-04-26T12:18:52.054Z</time></trkpt><trkpt lat="43.1893726" lon="11.4540684"><ele>177.0</ele><time>2026-04-26T12:18:53.062Z</time></trkpt><trkpt lat="43.1894913" lon="11.4540708"><ele>177.0</ele><time>2026-04-26T12:18:54.05Z</time></trkpt><trkpt lat="43.1896122" lon="11.4540595"><ele>177.0</ele><time>2026-04-26T12:18:55.064Z</time></trkpt><trkpt lat="43.1897376" lon="11.4540209"><ele>177.0</ele><time>2026-04-26T12:18:56.041Z</time></trkpt><trkpt lat="43.1898714" lon="11.453951"><ele>177.0</ele><time>2026-04-26T12:18:57.045Z</time></trkpt><trkpt lat="43.1900085" lon="11.4538649"><ele>177.0</ele><time>2026-04-26T12:18:58.035Z</time></trkpt><trkpt lat="43.1901451" lon="11.4537759"><ele>177.0</ele><time>2026-04-26T12:18:59.039Z</time></trkpt><trkpt lat="43.1902747" lon="11.453692"><ele>177.0</ele><time>2026-04-26T12:19:00.022Z</time></trkpt><trkpt lat="43.1904014" lon="11.4536143"><ele>177.0</ele><time>2026-04-26T12:19:01.039Z</time></trkpt><trkpt lat="43.1905227" lon="11.4535446"><ele>177.0</ele><time>2026-04-26T12:19:02.036Z</time></trkpt><trkpt lat="43.1906418" lon="11.4534836"><ele>177.0</ele><time>2026-04-26T12:19:03.051Z</time></trkpt><trkpt lat="43.1907604" lon="11.453437"><ele>177.0</ele><time>2026-04-26T12:19:04.058Z</time></trkpt><trkpt lat="43.1908836" lon="11.453404"><ele>177.0</ele><time>2026-04-26T12:19:05.056Z</time></trkpt><trkpt lat="43.1910162" lon="11.4533807"><ele>175.5</ele><time>2026-04-26T12:19:06.063Z</time></trkpt><trkpt lat="43.1911521" lon="11.453367"><ele>174.0</ele><time>2026-04-26T12:19:07.065Z</time></trkpt><trkpt lat="43.1912813" lon="11.4533704"><ele>172.5</ele><time>2026-04-26T12:19:08.081Z</time></trkpt><trkpt lat="43.1913967" lon="11.453408"><ele>171.0</ele><time>2026-04-26T12:19:09.104Z</time></trkpt><trkpt lat="43.1914912" lon="11.4534831"><ele>171.0</ele><time>2026-04-26T12:19:10.056Z</time></trkpt><trkpt lat="43.191572" lon="11.4535894"><ele>171.0</ele><time>2026-04-26T12:19:11.068Z</time></trkpt><trkpt lat="43.1916412" lon="11.4537176"><ele>171.0</ele><time>2026-04-26T12:19:12.068Z</time></trkpt><trkpt lat="43.1917002" lon="11.4538681"><ele>171.0</ele><time>2026-04-26T12:19:13.068Z</time></trkpt><trkpt lat="43.191756" lon="11.4540332"><ele>169.75</ele><time>2026-04-26T12:19:14.051Z</time></trkpt><trkpt lat="43.1918205" lon="11.4542051"><ele>168.5</ele><time>2026-04-26T12:19:15.075Z</time></trkpt><trkpt lat="43.1918871" lon="11.454369"><ele>167.25</ele><time>2026-04-26T12:19:16.062Z</time></trkpt><trkpt lat="43.1919461" lon="11.4545244"><ele>166.0</ele><time>2026-04-26T12:19:17.07Z</time></trkpt><trkpt lat="43.1920048" lon="11.4546632"><ele>166.0</ele><time>2026-04-26T12:19:18.052Z</time></trkpt><trkpt lat="43.1920746" lon="11.4547813"><ele>166.0</ele><time>2026-04-26T12:19:19.064Z</time></trkpt><trkpt lat="43.1921613" lon="11.4548701"><ele>166.0</ele><time>2026-04-26T12:19:20.046Z</time></trkpt><trkpt lat="43.1922716" lon="11.4549356"><ele>166.0</ele><time>2026-04-26T12:19:21.056Z</time></trkpt><trkpt lat="43.192393" lon="11.4549861"><ele>166.0</ele><time>2026-04-26T12:19:22.049Z</time></trkpt><trkpt lat="43.1925109" lon="11.4550289"><ele>166.0</ele><time>2026-04-26T12:19:23.05Z</time></trkpt><trkpt lat="43.1926247" lon="11.4550552"><ele>166.0</ele><time>2026-04-26T12:19:24.029Z</time></trkpt><trkpt lat="43.1927379" lon="11.4550418"><ele>166.0</ele><time>2026-04-26T12:19:25.046Z</time></trkpt><trkpt lat="43.1928427" lon="11.4549901"><ele>166.0</ele><time>2026-04-26T12:19:26.031Z</time></trkpt><trkpt lat="43.1929362" lon="11.4549214"><ele>166.0</ele><time>2026-04-26T12:19:27.06Z</time></trkpt><trkpt lat="43.1930131" lon="11.454853"><ele>166.0</ele><time>2026-04-26T12:19:28.061Z</time></trkpt><trkpt lat="43.1930769" lon="11.4547846"><ele>166.0</ele><time>2026-04-26T12:19:29.059Z</time></trkpt><trkpt lat="43.1931231" lon="11.4547056"><ele>166.0</ele><time>2026-04-26T12:19:30.049Z</time></trkpt><trkpt lat="43.193148" lon="11.454606"><ele>166.0</ele><time>2026-04-26T12:19:31.061Z</time></trkpt><trkpt lat="43.1931511" lon="11.4544844"><ele>166.5</ele><time>2026-04-26T12:19:32.044Z</time></trkpt><trkpt lat="43.193138" lon="11.4543435"><ele>167.0</ele><time>2026-04-26T12:19:33.049Z</time></trkpt><trkpt lat="43.1931158" lon="11.4541915"><ele>167.5</ele><time>2026-04-26T12:19:34.052Z</time></trkpt><trkpt lat="43.1930901" lon="11.4540341"><ele>168.0</ele><time>2026-04-26T12:19:35.047Z</time></trkpt><trkpt lat="43.1930625" lon="11.4538782"><ele>167.75</ele><time>2026-04-26T12:19:36.053Z</time></trkpt><trkpt lat="43.1930271" lon="11.4537324"><ele>167.5</ele><time>2026-04-26T12:19:37.061Z</time></trkpt><trkpt lat="43.1929749" lon="11.4535989"><ele>167.25</ele><time>2026-04-26T12:19:38.041Z</time></trkpt><trkpt lat="43.1929073" lon="11.4534707"><ele>167.0</ele><time>2026-04-26T12:19:39.053Z</time></trkpt><trkpt lat="43.192841" lon="11.4533468"><ele>167.0</ele><time>2026-04-26T12:19:40.047Z</time></trkpt><trkpt lat="43.1927845" lon="11.4532255"><ele>167.0</ele><time>2026-04-26T12:19:41.046Z</time></trkpt><trkpt lat="43.1927436" lon="11.4531079"><ele>167.0</ele><time>2026-04-26T12:19:42.036Z</time></trkpt><trkpt lat="43.1927188" lon="11.4529886"><ele>167.0</ele><time>2026-04-26T12:19:43.063Z</time></trkpt><trkpt lat="43.1927147" lon="11.4528716"><ele>167.0</ele><time>2026-04-26T12:19:44.041Z</time></trkpt><trkpt lat="43.1927331" lon="11.4527538"><ele>166.5</ele><time>2026-04-26T12:19:45.055Z</time></trkpt><trkpt lat="43.1927767" lon="11.4526334"><ele>166.0</ele><time>2026-04-26T12:19:46.042Z</time></trkpt><trkpt lat="43.1928439" lon="11.452505"><ele>165.5</ele><time>2026-04-26T12:19:47.036Z</time></trkpt><trkpt lat="43.1929266" lon="11.4523669"><ele>165.0</ele><time>2026-04-26T12:19:48.026Z</time></trkpt><trkpt lat="43.1930192" lon="11.452215"><ele>164.33333333333334</ele><time>2026-04-26T12:19:49.054Z</time></trkpt><trkpt lat="43.1931151" lon="11.4520526"><ele>163.66666666666669</ele><time>2026-04-26T12:19:50.037Z</time></trkpt><trkpt lat="43.1932164" lon="11.4518778"><ele>163.0</ele><time>2026-04-26T12:19:51.043Z</time></trkpt><trkpt lat="43.1933185" lon="11.4517045"><ele>161.33333333333334</ele><time>2026-04-26T12:19:52.043Z</time></trkpt><trkpt lat="43.1934191" lon="11.4515364"><ele>159.66666666666666</ele><time>2026-04-26T12:19:53.048Z</time></trkpt><trkpt lat="43.1935223" lon="11.4513629"><ele>158.0</ele><time>2026-04-26T12:19:54.05Z</time></trkpt><trkpt lat="43.1936313" lon="11.451179"><ele>158.0</ele><time>2026-04-26T12:19:55.062Z</time></trkpt><trkpt lat="43.1937432" lon="11.4509862"><ele>158.0</ele><time>2026-04-26T12:19:56.041Z</time></trkpt><trkpt lat="43.1938574" lon="11.4507895"><ele>158.0</ele><time>2026-04-26T12:19:57.049Z</time></trkpt><trkpt lat="43.1939633" lon="11.4506061"><ele>158.5</ele><time>2026-04-26T12:19:58.055Z</time></trkpt><trkpt lat="43.1940599" lon="11.4504372"><ele>159.0</ele><time>2026-04-26T12:19:59.043Z</time></trkpt><trkpt lat="43.1941503" lon="11.4502778"><ele>159.5</ele><time>2026-04-26T12:20:00.055Z</time></trkpt><trkpt lat="43.1942386" lon="11.4501269"><ele>160.0</ele><time>2026-04-26T12:20:01.066Z</time></trkpt><trkpt lat="43.1943271" lon="11.4499766"><ele>160.0</ele><time>2026-04-26T12:20:02.044Z</time></trkpt><trkpt lat="43.1944193" lon="11.4498197"><ele>160.0</ele><time>2026-04-26T12:20:03.056Z</time></trkpt><trkpt lat="43.1945121" lon="11.4496595"><ele>160.0</ele><time>2026-04-26T12:20:04.043Z</time></trkpt><trkpt lat="43.1946073" lon="11.4494942"><ele>159.33333333333334</ele><time>2026-04-26T12:20:05.054Z</time></trkpt><trkpt lat="43.1947033" lon="11.4493282"><ele>158.66666666666666</ele><time>2026-04-26T12:20:06.045Z</time></trkpt><trkpt lat="43.194802" lon="11.4491592"><ele>158.0</ele><time>2026-04-26T12:20:07.056Z</time></trkpt><trkpt lat="43.1949013" lon="11.4489881"><ele>158.0</ele><time>2026-04-26T12:20:08.047Z</time></trkpt><trkpt lat="43.1949974" lon="11.4488126"><ele>158.0</ele><time>2026-04-26T12:20:09.049Z</time></trkpt><trkpt lat="43.1950817" lon="11.4486307"><ele>158.0</ele><time>2026-04-26T12:20:10.056Z</time></trkpt><trkpt lat="43.1951536" lon="11.4484411"><ele>159.0</ele><time>2026-04-26T12:20:11.038Z</time></trkpt><trkpt lat="43.1952173" lon="11.4482458"><ele>160.0</ele><time>2026-04-26T12:20:12.039Z</time></trkpt><trkpt lat="43.1952743" lon="11.44805"><ele>161.0</ele><time>2026-04-26T12:20:13.052Z</time></trkpt><trkpt lat="43.195325" lon="11.4478572"><ele>162.25</ele><time>2026-04-26T12:20:14.031Z</time></trkpt><trkpt lat="43.1953712" lon="11.447665"><ele>163.5</ele><time>2026-04-26T12:20:15.044Z</time></trkpt><trkpt lat="43.1954131" lon="11.4474825"><ele>164.75</ele><time>2026-04-26T12:20:16.044Z</time></trkpt><trkpt lat="43.1954514" lon="11.4473083"><ele>166.0</ele><time>2026-04-26T12:20:17.037Z</time></trkpt><trkpt lat="43.1954871" lon="11.44714"><ele>166.75</ele><time>2026-04-26T12:20:18.051Z</time></trkpt><trkpt lat="43.1955219" lon="11.4469755"><ele>167.5</ele><time>2026-04-26T12:20:19.059Z</time></trkpt><trkpt lat="43.195557" lon="11.4468078"><ele>168.25</ele><time>2026-04-26T12:20:20.041Z</time></trkpt><trkpt lat="43.1955932" lon="11.446632"><ele>169.0</ele><time>2026-04-26T12:20:21.063Z</time></trkpt><trkpt lat="43.1956317" lon="11.4464559"><ele>166.5</ele><time>2026-04-26T12:20:22.048Z</time></trkpt><trkpt lat="43.195672" lon="11.4462735"><ele>164.0</ele><time>2026-04-26T12:20:23.05Z</time></trkpt><trkpt lat="43.1957133" lon="11.4460827"><ele>161.5</ele><time>2026-04-26T12:20:24.058Z</time></trkpt><trkpt lat="43.1957554" lon="11.4458825"><ele>159.0</ele><time>2026-04-26T12:20:25.069Z</time></trkpt><trkpt lat="43.1957978" lon="11.4456829"><ele>159.0</ele><time>2026-04-26T12:20:26.042Z</time></trkpt><trkpt lat="43.1958468" lon="11.4454854"><ele>159.0</ele><time>2026-04-26T12:20:27.064Z</time></trkpt><trkpt lat="43.1959067" lon="11.445303"><ele>159.0</ele><time>2026-04-26T12:20:28.04Z</time></trkpt><trkpt lat="43.1959807" lon="11.4451323"><ele>159.0</ele><time>2026-04-26T12:20:29.054Z</time></trkpt><trkpt lat="43.1960611" lon="11.4449783"><ele>159.5</ele><time>2026-04-26T12:20:30.056Z</time></trkpt><trkpt lat="43.1961419" lon="11.4448349"><ele>160.0</ele><time>2026-04-26T12:20:31.047Z</time></trkpt><trkpt lat="43.1962256" lon="11.444699"><ele>160.5</ele><time>2026-04-26T12:20:32.047Z</time></trkpt><trkpt lat="43.1963218" lon="11.4445725"><ele>161.0</ele><time>2026-04-26T12:20:33.057Z</time></trkpt><trkpt lat="43.1964346" lon="11.4444597"><ele>160.25</ele><time>2026-04-26T12:20:34.043Z</time></trkpt><trkpt lat="43.1965599" lon="11.4443578"><ele>159.5</ele><time>2026-04-26T12:20:35.049Z</time></trkpt><trkpt lat="43.1966912" lon="11.4442671"><ele>158.75</ele><time>2026-04-26T12:20:36.05Z</time></trkpt><trkpt lat="43.1968258" lon="11.4441847"><ele>158.0</ele><time>2026-04-26T12:20:37.035Z</time></trkpt><trkpt lat="43.1969649" lon="11.4441091"><ele>158.0</ele><time>2026-04-26T12:20:38.042Z</time></trkpt><trkpt lat="43.1971053" lon="11.4440399"><ele>158.0</ele><time>2026-04-26T12:20:39.069Z</time></trkpt><trkpt lat="43.1972426" lon="11.4439764"><ele>158.0</ele><time>2026-04-26T12:20:40.044Z</time></trkpt><trkpt lat="43.1973817" lon="11.4439105"><ele>158.0</ele><time>2026-04-26T12:20:41.07Z</time></trkpt><trkpt lat="43.1975179" lon="11.4438424"><ele>158.33333333333331</ele><time>2026-04-26T12:20:42.06Z</time></trkpt><trkpt lat="43.1976573" lon="11.4437726"><ele>158.66666666666666</ele><time>2026-04-26T12:20:43.073Z</time></trkpt><trkpt lat="43.1977986" lon="11.4437035"><ele>159.0</ele><time>2026-04-26T12:20:44.056Z</time></trkpt><trkpt lat="43.1979408" lon="11.443632"><ele>159.0</ele><time>2026-04-26T12:20:45.073Z</time></trkpt><trkpt lat="43.1980729" lon="11.4435659"><ele>159.0</ele><time>2026-04-26T12:20:46.052Z</time></trkpt><trkpt lat="43.1981956" lon="11.4435052"><ele>159.0</ele><time>2026-04-26T12:20:47.062Z</time></trkpt><trkpt lat="43.1983015" lon="11.4434548"><ele>159.0</ele><time>2026-04-26T12:20:48.071Z</time></trkpt><trkpt lat="43.198389" lon="11.4434164"><ele>158.83333333333334</ele><time>2026-04-26T12:20:49.06Z</time></trkpt><trkpt lat="43.1984585" lon="11.4433989"><ele>158.66666666666666</ele><time>2026-04-26T12:20:50.055Z</time></trkpt><trkpt lat="43.1985306" lon="11.4434595"><ele>158.5</ele><time>2026-04-26T12:20:52.057Z</time></trkpt><trkpt lat="43.1985688" lon="11.4436096"><ele>158.33333333333331</ele><time>2026-04-26T12:20:54.048Z</time></trkpt><trkpt lat="43.1985912" lon="11.4437154"><ele>158.16666666666666</ele><time>2026-04-26T12:20:55.057Z</time></trkpt><trkpt lat="43.1986196" lon="11.443843"><ele>158.0</ele><time>2026-04-26T12:20:56.063Z</time></trkpt><trkpt lat="43.198653" lon="11.4439867"><ele>157.75</ele><time>2026-04-26T12:20:57.067Z</time></trkpt><trkpt lat="43.19869" lon="11.4441461"><ele>157.5</ele><time>2026-04-26T12:20:58.047Z</time></trkpt><trkpt lat="43.1987314" lon="11.4443234"><ele>157.25</ele><time>2026-04-26T12:20:59.053Z</time></trkpt><trkpt lat="43.1987759" lon="11.4445092"><ele>157.0</ele><time>2026-04-26T12:21:00.05Z</time></trkpt><trkpt lat="43.1988254" lon="11.4447125"><ele>156.66666666666669</ele><time>2026-04-26T12:21:01.048Z</time></trkpt><trkpt lat="43.1988773" lon="11.444929"><ele>156.33333333333334</ele><time>2026-04-26T12:21:02.043Z</time></trkpt><trkpt lat="43.1989314" lon="11.4451502"><ele>156.0</ele><time>2026-04-26T12:21:03.038Z</time></trkpt><trkpt lat="43.1989886" lon="11.4453733"><ele>156.0</ele><time>2026-04-26T12:21:04.049Z</time></trkpt><trkpt lat="43.1990463" lon="11.4455948"><ele>156.0</ele><time>2026-04-26T12:21:05.059Z</time></trkpt><trkpt lat="43.1991015" lon="11.4458177"><ele>156.0</ele><time>2026-04-26T12:21:06.053Z</time></trkpt><trkpt lat="43.199155" lon="11.4460466"><ele>156.0</ele><time>2026-04-26T12:21:07.064Z</time></trkpt><trkpt lat="43.1992076" lon="11.4462777"><ele>156.0</ele><time>2026-04-26T12:21:08.055Z</time></trkpt><trkpt lat="43.1992624" lon="11.4465144"><ele>156.0</ele><time>2026-04-26T12:21:09.073Z</time></trkpt><trkpt lat="43.1993173" lon="11.4467475"><ele>155.66666666666666</ele><time>2026-04-26T12:21:10.053Z</time></trkpt><trkpt lat="43.1993747" lon="11.4469831"><ele>155.33333333333331</ele><time>2026-04-26T12:21:11.062Z</time></trkpt><trkpt lat="43.1994311" lon="11.4472173"><ele>155.0</ele><time>2026-04-26T12:21:12.056Z</time></trkpt><trkpt lat="43.1994881" lon="11.4474526"><ele>155.0</ele><time>2026-04-26T12:21:13.065Z</time></trkpt><trkpt lat="43.199545" lon="11.4476849"><ele>155.0</ele><time>2026-04-26T12:21:14.052Z</time></trkpt><trkpt lat="43.1996021" lon="11.4479185"><ele>155.0</ele><time>2026-04-26T12:21:15.074Z</time></trkpt><trkpt lat="43.1996574" lon="11.4481479"><ele>155.0</ele><time>2026-04-26T12:21:16.053Z</time></trkpt><trkpt lat="43.1997132" lon="11.4483824"><ele>155.0</ele><time>2026-04-26T12:21:17.069Z</time></trkpt><trkpt lat="43.1997664" lon="11.4486096"><ele>155.0</ele><time>2026-04-26T12:21:18.045Z</time></trkpt><trkpt lat="43.1998219" lon="11.4488378"><ele>155.33333333333331</ele><time>2026-04-26T12:21:19.067Z</time></trkpt><trkpt lat="43.1998759" lon="11.4490618"><ele>155.66666666666666</ele><time>2026-04-26T12:21:20.045Z</time></trkpt><trkpt lat="43.1999292" lon="11.4492881"><ele>156.0</ele><time>2026-04-26T12:21:21.059Z</time></trkpt><trkpt lat="43.1999795" lon="11.4495098"><ele>156.0</ele><time>2026-04-26T12:21:22.043Z</time></trkpt><trkpt lat="43.2000311" lon="11.4497312"><ele>156.0</ele><time>2026-04-26T12:21:23.049Z</time></trkpt><trkpt lat="43.2000843" lon="11.4499452"><ele>156.0</ele><time>2026-04-26T12:21:24.039Z</time></trkpt><trkpt lat="43.2001375" lon="11.4501536"><ele>156.0</ele><time>2026-04-26T12:21:25.05Z</time></trkpt><trkpt lat="43.2001877" lon="11.4503504"><ele>156.0</ele><time>2026-04-26T12:21:26.033Z</time></trkpt><trkpt lat="43.2002367" lon="11.4505435"><ele>156.0</ele><time>2026-04-26T12:21:27.039Z</time></trkpt><trkpt lat="43.200285" lon="11.4507394"><ele>156.0</ele><time>2026-04-26T12:21:28.048Z</time></trkpt><trkpt lat="43.2003327" lon="11.4509411"><ele>156.0</ele><time>2026-04-26T12:21:29.036Z</time></trkpt><trkpt lat="43.2003812" lon="11.4511516"><ele>156.0</ele><time>2026-04-26T12:21:30.042Z</time></trkpt><trkpt lat="43.2004296" lon="11.4513681"><ele>155.5</ele><time>2026-04-26T12:21:31.055Z</time></trkpt><trkpt lat="43.2004734" lon="11.4515801"><ele>155.0</ele><time>2026-04-26T12:21:32.054Z</time></trkpt><trkpt lat="43.2005117" lon="11.4517759"><ele>154.5</ele><time>2026-04-26T12:21:33.061Z</time></trkpt><trkpt lat="43.2005476" lon="11.4519543"><ele>154.0</ele><time>2026-04-26T12:21:34.035Z</time></trkpt><trkpt lat="43.2005809" lon="11.4521214"><ele>153.8</ele><time>2026-04-26T12:21:35.039Z</time></trkpt><trkpt lat="43.2006117" lon="11.452274"><ele>153.60000000000002</ele><time>2026-04-26T12:21:36.045Z</time></trkpt><trkpt lat="43.2006439" lon="11.4524099"><ele>153.4</ele><time>2026-04-26T12:21:37.036Z</time></trkpt><trkpt lat="43.2006825" lon="11.4525285"><ele>153.20000000000002</ele><time>2026-04-26T12:21:38.051Z</time></trkpt><trkpt lat="43.2007252" lon="11.452639"><ele>153.0</ele><time>2026-04-26T12:21:39.057Z</time></trkpt><trkpt lat="43.2007691" lon="11.4527536"><ele>152.8</ele><time>2026-04-26T12:21:40.05Z</time></trkpt><trkpt lat="43.2008121" lon="11.4528662"><ele>152.60000000000002</ele><time>2026-04-26T12:21:41.047Z</time></trkpt><trkpt lat="43.2008499" lon="11.4529814"><ele>152.39999999999998</ele><time>2026-04-26T12:21:42.043Z</time></trkpt><trkpt lat="43.2008733" lon="11.4531077"><ele>152.2</ele><time>2026-04-26T12:21:43.057Z</time></trkpt><trkpt lat="43.2008778" lon="11.453238"><ele>152.0</ele><time>2026-04-26T12:21:44.042Z</time></trkpt><trkpt lat="43.2008751" lon="11.4533783"><ele>152.0</ele><time>2026-04-26T12:21:45.043Z</time></trkpt><trkpt lat="43.2008706" lon="11.4535297"><ele>152.0</ele><time>2026-04-26T12:21:46.042Z</time></trkpt><trkpt lat="43.2008678" lon="11.4536863"><ele>152.0</ele><time>2026-04-26T12:21:47.036Z</time></trkpt><trkpt lat="43.2008709" lon="11.4538409"><ele>152.0</ele><time>2026-04-26T12:21:48.04Z</time></trkpt><trkpt lat="43.2008837" lon="11.4539783"><ele>152.0</ele><time>2026-04-26T12:21:49.033Z</time></trkpt><trkpt lat="43.2009046" lon="11.4540961"><ele>153.16666666666666</ele><time>2026-04-26T12:21:50.032Z</time></trkpt><trkpt lat="43.2009291" lon="11.454207"><ele>154.33333333333331</ele><time>2026-04-26T12:21:51.038Z</time></trkpt><trkpt lat="43.2009499" lon="11.4543147"><ele>155.5</ele><time>2026-04-26T12:21:52.029Z</time></trkpt><trkpt lat="43.2009637" lon="11.4544157"><ele>156.66666666666666</ele><time>2026-04-26T12:21:53.037Z</time></trkpt><trkpt lat="43.2009704" lon="11.4545055"><ele>157.83333333333334</ele><time>2026-04-26T12:21:54.033Z</time></trkpt><trkpt lat="43.2009726" lon="11.4546759"><ele>159.0</ele><time>2026-04-26T12:21:56.04Z</time></trkpt><trkpt lat="43.2009686" lon="11.4547691"><ele>159.66666666666666</ele><time>2026-04-26T12:21:57.054Z</time></trkpt><trkpt lat="43.2009661" lon="11.454866"><ele>160.33333333333334</ele><time>2026-04-26T12:21:58.037Z</time></trkpt><trkpt lat="43.2009662" lon="11.4549745"><ele>161.0</ele><time>2026-04-26T12:21:59.075Z</time></trkpt><trkpt lat="43.2009652" lon="11.4550867"><ele>161.66666666666669</ele><time>2026-04-26T12:22:00.073Z</time></trkpt><trkpt lat="43.2009562" lon="11.4552008"><ele>162.33333333333334</ele><time>2026-04-26T12:22:01.047Z</time></trkpt><trkpt lat="43.2009311" lon="11.4553178"><ele>163.0</ele><time>2026-04-26T12:22:02.038Z</time></trkpt><trkpt lat="43.2008804" lon="11.455429"><ele>163.75</ele><time>2026-04-26T12:22:03.03Z</time></trkpt><trkpt lat="43.2008075" lon="11.4555345"><ele>164.5</ele><time>2026-04-26T12:22:04.039Z</time></trkpt><trkpt lat="43.2007255" lon="11.4556474"><ele>165.25</ele><time>2026-04-26T12:22:05.052Z</time></trkpt><trkpt lat="43.2006398" lon="11.4557672"><ele>166.0</ele><time>2026-04-26T12:22:06.048Z</time></trkpt><trkpt lat="43.2005505" lon="11.4558894"><ele>166.0</ele><time>2026-04-26T12:22:07.042Z</time></trkpt><trkpt lat="43.2004606" lon="11.4560139"><ele>166.0</ele><time>2026-04-26T12:22:08.056Z</time></trkpt><trkpt lat="43.2003737" lon="11.4561399"><ele>166.0</ele><time>2026-04-26T12:22:09.065Z</time></trkpt><trkpt lat="43.20029" lon="11.4562606"><ele>166.0</ele><time>2026-04-26T12:22:10.044Z</time></trkpt><trkpt lat="43.2002138" lon="11.4563703"><ele>166.0</ele><time>2026-04-26T12:22:11.045Z</time></trkpt><trkpt lat="43.200149" lon="11.4564631"><ele>166.0</ele><time>2026-04-26T12:22:12.038Z</time></trkpt><trkpt lat="43.2000864" lon="11.4565481"><ele>166.0</ele><time>2026-04-26T12:22:13.028Z</time></trkpt><trkpt lat="43.2000152" lon="11.4566401"><ele>166.0</ele><time>2026-04-26T12:22:14.03Z</time></trkpt><trkpt lat="43.19993" lon="11.4567485"><ele>166.0</ele><time>2026-04-26T12:22:15.035Z</time></trkpt><trkpt lat="43.199836" lon="11.4568686"><ele>165.75</ele><time>2026-04-26T12:22:16.024Z</time></trkpt><trkpt lat="43.1997376" lon="11.4569974"><ele>165.5</ele><time>2026-04-26T12:22:17.034Z</time></trkpt><trkpt lat="43.1996382" lon="11.4571314"><ele>165.25</ele><time>2026-04-26T12:22:18.026Z</time></trkpt><trkpt lat="43.1995327" lon="11.4572671"><ele>165.0</ele><time>2026-04-26T12:22:19.033Z</time></trkpt><trkpt lat="43.199426" lon="11.4573972"><ele>165.0</ele><time>2026-04-26T12:22:20.032Z</time></trkpt><trkpt lat="43.199317" lon="11.4575222"><ele>165.0</ele><time>2026-04-26T12:22:21.035Z</time></trkpt><trkpt lat="43.1992107" lon="11.4576405"><ele>165.0</ele><time>2026-04-26T12:22:22.04Z</time></trkpt><trkpt lat="43.1991177" lon="11.4577449"><ele>165.0</ele><time>2026-04-26T12:22:23.045Z</time></trkpt><trkpt lat="43.1990362" lon="11.4578389"><ele>164.16666666666666</ele><time>2026-04-26T12:22:24.053Z</time></trkpt><trkpt lat="43.1989656" lon="11.4579248"><ele>163.33333333333334</ele><time>2026-04-26T12:22:25.061Z</time></trkpt><trkpt lat="43.1989064" lon="11.4580031"><ele>162.5</ele><time>2026-04-26T12:22:26.044Z</time></trkpt><trkpt lat="43.1988545" lon="11.4580779"><ele>161.66666666666669</ele><time>2026-04-26T12:22:27.055Z</time></trkpt><trkpt lat="43.198807" lon="11.4581525"><ele>160.83333333333334</ele><time>2026-04-26T12:22:28.038Z</time></trkpt><trkpt lat="43.1987593" lon="11.4582302"><ele>160.0</ele><time>2026-04-26T12:22:29.055Z</time></trkpt><trkpt lat="43.1987066" lon="11.4583119"><ele>160.0</ele><time>2026-04-26T12:22:30.059Z</time></trkpt><trkpt lat="43.1986468" lon="11.4584056"><ele>160.0</ele><time>2026-04-26T12:22:31.046Z</time></trkpt><trkpt lat="43.1985843" lon="11.4585091"><ele>160.0</ele><time>2026-04-26T12:22:32.058Z</time></trkpt><trkpt lat="43.1985229" lon="11.4586129"><ele>160.0</ele><time>2026-04-26T12:22:33.063Z</time></trkpt><trkpt lat="43.1984605" lon="11.4587153"><ele>160.0</ele><time>2026-04-26T12:22:34.059Z</time></trkpt><trkpt lat="43.1983948" lon="11.4588207"><ele>159.5</ele><time>2026-04-26T12:22:35.044Z</time></trkpt><trkpt lat="43.1983251" lon="11.4589316"><ele>159.0</ele><time>2026-04-26T12:22:36.059Z</time></trkpt><trkpt lat="43.1982563" lon="11.4590439"><ele>158.5</ele><time>2026-04-26T12:22:37.047Z</time></trkpt><trkpt lat="43.1981826" lon="11.4591655"><ele>158.0</ele><time>2026-04-26T12:22:38.036Z</time></trkpt><trkpt lat="43.1981023" lon="11.4592964"><ele>157.25</ele><time>2026-04-26T12:22:39.04Z</time></trkpt><trkpt lat="43.1980167" lon="11.4594333"><ele>156.5</ele><time>2026-04-26T12:22:40.032Z</time></trkpt><trkpt lat="43.1979278" lon="11.4595774"><ele>155.75</ele><time>2026-04-26T12:22:41.042Z</time></trkpt><trkpt lat="43.1978399" lon="11.4597223"><ele>155.0</ele><time>2026-04-26T12:22:42.028Z</time></trkpt><trkpt lat="43.1977502" lon="11.4598686"><ele>155.0</ele><time>2026-04-26T12:22:43.041Z</time></trkpt><trkpt lat="43.1976588" lon="11.4600142"><ele>155.0</ele><time>2026-04-26T12:22:44.052Z</time></trkpt><trkpt lat="43.1975646" lon="11.4601601"><ele>155.0</ele><time>2026-04-26T12:22:45.073Z</time></trkpt><trkpt lat="43.1974685" lon="11.4603049"><ele>155.0</ele><time>2026-04-26T12:22:46.05Z</time></trkpt><trkpt lat="43.1973693" lon="11.4604532"><ele>155.25</ele><time>2026-04-26T12:22:47.056Z</time></trkpt><trkpt lat="43.1972752" lon="11.4605955"><ele>155.5</ele><time>2026-04-26T12:22:48.045Z</time></trkpt><trkpt lat="43.1971875" lon="11.4607294"><ele>155.75</ele><time>2026-04-26T12:22:49.056Z</time></trkpt><trkpt lat="43.1970986" lon="11.4608601"><ele>156.0</ele><time>2026-04-26T12:22:50.049Z</time></trkpt><trkpt lat="43.1970076" lon="11.4609956"><ele>156.0</ele><time>2026-04-26T12:22:51.055Z</time></trkpt><trkpt lat="43.1969187" lon="11.4611317"><ele>156.0</ele><time>2026-04-26T12:22:52.048Z</time></trkpt><trkpt lat="43.1968322" lon="11.4612669"><ele>156.0</ele><time>2026-04-26T12:22:53.057Z</time></trkpt><trkpt lat="43.1967477" lon="11.4613982"><ele>156.0</ele><time>2026-04-26T12:22:54.047Z</time></trkpt><trkpt lat="43.1966621" lon="11.4615318"><ele>155.75</ele><time>2026-04-26T12:22:55.071Z</time></trkpt><trkpt lat="43.1965769" lon="11.4616672"><ele>155.5</ele><time>2026-04-26T12:22:56.051Z</time></trkpt><trkpt lat="43.1964932" lon="11.4617997"><ele>155.25</ele><time>2026-04-26T12:22:57.058Z</time></trkpt><trkpt lat="43.1964194" lon="11.461918"><ele>155.0</ele><time>2026-04-26T12:22:58.046Z</time></trkpt><trkpt lat="43.1963522" lon="11.4620276"><ele>154.2</ele><time>2026-04-26T12:22:59.052Z</time></trkpt><trkpt lat="43.196287" lon="11.4621387"><ele>153.4</ele><time>2026-04-26T12:23:00.052Z</time></trkpt><trkpt lat="43.1962192" lon="11.4622581"><ele>152.6</ele><time>2026-04-26T12:23:01.067Z</time></trkpt><trkpt lat="43.1961559" lon="11.4623752"><ele>151.8</ele><time>2026-04-26T12:23:02.045Z</time></trkpt><trkpt lat="43.1960986" lon="11.4624882"><ele>151.0</ele><time>2026-04-26T12:23:03.049Z</time></trkpt><trkpt lat="43.1960442" lon="11.4626036"><ele>151.0</ele><time>2026-04-26T12:23:04.033Z</time></trkpt><trkpt lat="43.1959924" lon="11.4627257"><ele>151.0</ele><time>2026-04-26T12:23:05.046Z</time></trkpt><trkpt lat="43.1959463" lon="11.462845"><ele>151.0</ele><time>2026-04-26T12:23:06.038Z</time></trkpt><trkpt lat="43.1959031" lon="11.4629683"><ele>151.0</ele><time>2026-04-26T12:23:07.043Z</time></trkpt><trkpt lat="43.1958581" lon="11.4630995"><ele>151.0</ele><time>2026-04-26T12:23:08.048Z</time></trkpt><trkpt lat="43.1958107" lon="11.4632349"><ele>151.0</ele><time>2026-04-26T12:23:09.068Z</time></trkpt><trkpt lat="43.1957639" lon="11.463366"><ele>151.0</ele><time>2026-04-26T12:23:10.05Z</time></trkpt><trkpt lat="43.1957156" lon="11.4634934"><ele>151.0</ele><time>2026-04-26T12:23:11.064Z</time></trkpt><trkpt lat="43.1956658" lon="11.4636185"><ele>151.0</ele><time>2026-04-26T12:23:12.038Z</time></trkpt><trkpt lat="43.1956109" lon="11.4637508"><ele>151.0</ele><time>2026-04-26T12:23:13.061Z</time></trkpt><trkpt lat="43.1955552" lon="11.4638873"><ele>151.0</ele><time>2026-04-26T12:23:14.047Z</time></trkpt><trkpt lat="43.1954974" lon="11.4640316"><ele>151.0</ele><time>2026-04-26T12:23:15.058Z</time></trkpt><trkpt lat="43.1954377" lon="11.4641794"><ele>151.0</ele><time>2026-04-26T12:23:16.063Z</time></trkpt><trkpt lat="43.195377" lon="11.4643293"><ele>151.0</ele><time>2026-04-26T12:23:17.038Z</time></trkpt><trkpt lat="43.1953125" lon="11.4644857"><ele>151.5</ele><time>2026-04-26T12:23:18.057Z</time></trkpt><trkpt lat="43.195247" lon="11.4646447"><ele>152.0</ele><time>2026-04-26T12:23:19.061Z</time></trkpt><trkpt lat="43.195181" lon="11.4648041"><ele>152.5</ele><time>2026-04-26T12:23:20.067Z</time></trkpt><trkpt lat="43.1951179" lon="11.4649555"><ele>153.0</ele><time>2026-04-26T12:23:21.047Z</time></trkpt><trkpt lat="43.1950598" lon="11.4650952"><ele>153.0</ele><time>2026-04-26T12:23:22.055Z</time></trkpt><trkpt lat="43.1950086" lon="11.4652195"><ele>153.0</ele><time>2026-04-26T12:23:23.061Z</time></trkpt><trkpt lat="43.1949636" lon="11.4653304"><ele>153.0</ele><time>2026-04-26T12:23:24.067Z</time></trkpt><trkpt lat="43.194927" lon="11.4654256"><ele>153.0</ele><time>2026-04-26T12:23:25.072Z</time></trkpt><trkpt lat="43.1948928" lon="11.4655709"><ele>153.0</ele><time>2026-04-26T12:23:27.066Z</time></trkpt><trkpt lat="43.1949145" lon="11.4657027"><ele>153.33333333333334</ele><time>2026-04-26T12:23:29.051Z</time></trkpt><trkpt lat="43.1949447" lon="11.4657829"><ele>153.66666666666666</ele><time>2026-04-26T12:23:30.054Z</time></trkpt><trkpt lat="43.1949893" lon="11.465871"><ele>154.0</ele><time>2026-04-26T12:23:31.065Z</time></trkpt><trkpt lat="43.1950505" lon="11.4659618"><ele>154.33333333333331</ele><time>2026-04-26T12:23:32.057Z</time></trkpt><trkpt lat="43.1951254" lon="11.4660597"><ele>154.66666666666666</ele><time>2026-04-26T12:23:33.072Z</time></trkpt><trkpt lat="43.1952048" lon="11.4661636"><ele>155.0</ele><time>2026-04-26T12:23:34.062Z</time></trkpt><trkpt lat="43.1952809" lon="11.4662728"><ele>155.6</ele><time>2026-04-26T12:23:35.076Z</time></trkpt><trkpt lat="43.1953425" lon="11.4663835"><ele>156.2</ele><time>2026-04-26T12:23:36.077Z</time></trkpt><trkpt lat="43.1953873" lon="11.4665051"><ele>156.8</ele><time>2026-04-26T12:23:37.063Z</time></trkpt><trkpt lat="43.1954186" lon="11.4666424"><ele>157.4</ele><time>2026-04-26T12:23:38.069Z</time></trkpt><trkpt lat="43.195442" lon="11.4667882"><ele>158.0</ele><time>2026-04-26T12:23:39.071Z</time></trkpt><trkpt lat="43.1954605" lon="11.4669382"><ele>158.0</ele><time>2026-04-26T12:23:40.048Z</time></trkpt><trkpt lat="43.1954772" lon="11.467092"><ele>158.0</ele><time>2026-04-26T12:23:41.063Z</time></trkpt><trkpt lat="43.1954958" lon="11.4672364"><ele>158.0</ele><time>2026-04-26T12:23:42.056Z</time></trkpt><trkpt lat="43.1955208" lon="11.4673604"><ele>158.0</ele><time>2026-04-26T12:23:43.061Z</time></trkpt><trkpt lat="43.1955552" lon="11.4674635"><ele>158.0</ele><time>2026-04-26T12:23:44.063Z</time></trkpt><trkpt lat="43.1956068" lon="11.4675498"><ele>159.4</ele><time>2026-04-26T12:23:45.052Z</time></trkpt><trkpt lat="43.1956752" lon="11.4676122"><ele>160.8</ele><time>2026-04-26T12:23:46.048Z</time></trkpt><trkpt lat="43.1957571" lon="11.4676522"><ele>162.2</ele><time>2026-04-26T12:23:47.065Z</time></trkpt><trkpt lat="43.1958504" lon="11.4676802"><ele>163.6</ele><time>2026-04-26T12:23:48.052Z</time></trkpt><trkpt lat="43.1959498" lon="11.4677135"><ele>165.0</ele><time>2026-04-26T12:23:49.054Z</time></trkpt><trkpt lat="43.1960498" lon="11.4677659"><ele>165.0</ele><time>2026-04-26T12:23:50.049Z</time></trkpt><trkpt lat="43.1961489" lon="11.4678422"><ele>165.0</ele><time>2026-04-26T12:23:51.063Z</time></trkpt><trkpt lat="43.1962394" lon="11.4679354"><ele>165.0</ele><time>2026-04-26T12:23:52.049Z</time></trkpt><trkpt lat="43.196323" lon="11.4680443"><ele>165.0</ele><time>2026-04-26T12:23:53.057Z</time></trkpt><trkpt lat="43.1963964" lon="11.4681659"><ele>165.4</ele><time>2026-04-26T12:23:54.052Z</time></trkpt><trkpt lat="43.1964626" lon="11.4682868"><ele>165.8</ele><time>2026-04-26T12:23:55.068Z</time></trkpt><trkpt lat="43.19652" lon="11.468397"><ele>166.2</ele><time>2026-04-26T12:23:56.049Z</time></trkpt><trkpt lat="43.1965678" lon="11.4685172"><ele>166.6</ele><time>2026-04-26T12:23:57.056Z</time></trkpt><trkpt lat="43.1965968" lon="11.4686513"><ele>167.0</ele><time>2026-04-26T12:23:58.047Z</time></trkpt><trkpt lat="43.1966126" lon="11.468784"><ele>169.8</ele><time>2026-04-26T12:23:59.056Z</time></trkpt><trkpt lat="43.196631" lon="11.4688933"><ele>172.6</ele><time>2026-04-26T12:24:00.062Z</time></trkpt><trkpt lat="43.196666" lon="11.4689859"><ele>175.4</ele><time>2026-04-26T12:24:01.06Z</time></trkpt><trkpt lat="43.1967203" lon="11.4690812"><ele>178.20000000000002</ele><time>2026-04-26T12:24:02.048Z</time></trkpt><trkpt lat="43.1967874" lon="11.4691836"><ele>181.0</ele><time>2026-04-26T12:24:03.049Z</time></trkpt><trkpt lat="43.1968581" lon="11.469291"><ele>181.0</ele><time>2026-04-26T12:24:04.056Z</time></trkpt><trkpt lat="43.196929" lon="11.469406"><ele>181.0</ele><time>2026-04-26T12:24:05.042Z</time></trkpt><trkpt lat="43.196995" lon="11.4695333"><ele>181.0</ele><time>2026-04-26T12:24:06.064Z</time></trkpt><trkpt lat="43.1970538" lon="11.4696665"><ele>181.0</ele><time>2026-04-26T12:24:07.033Z</time></trkpt><trkpt lat="43.1971052" lon="11.469794"><ele>181.0</ele><time>2026-04-26T12:24:08.041Z</time></trkpt><trkpt lat="43.1971474" lon="11.469906"><ele>181.14285714285714</ele><time>2026-04-26T12:24:09.03Z</time></trkpt><trkpt lat="43.1971851" lon="11.4700098"><ele>181.28571428571428</ele><time>2026-04-26T12:24:10.047Z</time></trkpt><trkpt lat="43.1972173" lon="11.4700995"><ele>181.42857142857144</ele><time>2026-04-26T12:24:11.058Z</time></trkpt><trkpt lat="43.1972483" lon="11.4701813"><ele>181.57142857142856</ele><time>2026-04-26T12:24:12.046Z</time></trkpt><trkpt lat="43.1972815" lon="11.4702582"><ele>181.71428571428572</ele><time>2026-04-26T12:24:13.046Z</time></trkpt><trkpt lat="43.1973169" lon="11.4703342"><ele>181.85714285714286</ele><time>2026-04-26T12:24:14.056Z</time></trkpt><trkpt lat="43.197357" lon="11.4704059"><ele>182.0</ele><time>2026-04-26T12:24:15.044Z</time></trkpt><trkpt lat="43.1974062" lon="11.4704701"><ele>185.0</ele><time>2026-04-26T12:24:16.026Z</time></trkpt><trkpt lat="43.1974659" lon="11.4705265"><ele>188.0</ele><time>2026-04-26T12:24:17.03Z</time></trkpt><trkpt lat="43.1975372" lon="11.4705674"><ele>191.0</ele><time>2026-04-26T12:24:18.039Z</time></trkpt><trkpt lat="43.1976177" lon="11.4705925"><ele>194.0</ele><time>2026-04-26T12:24:19.031Z</time></trkpt><trkpt lat="43.1977084" lon="11.4706094"><ele>197.00000000000003</ele><time>2026-04-26T12:24:20.032Z</time></trkpt><trkpt lat="43.1978066" lon="11.470624"><ele>200.0</ele><time>2026-04-26T12:24:21.038Z</time></trkpt><trkpt lat="43.1979052" lon="11.4706537"><ele>200.0</ele><time>2026-04-26T12:24:22.038Z</time></trkpt><trkpt lat="43.1979997" lon="11.4707117"><ele>200.0</ele><time>2026-04-26T12:24:23.031Z</time></trkpt><trkpt lat="43.1980921" lon="11.4707904"><ele>200.0</ele><time>2026-04-26T12:24:24.035Z</time></trkpt><trkpt lat="43.1981818" lon="11.4708795"><ele>200.0</ele><time>2026-04-26T12:24:25.031Z</time></trkpt><trkpt lat="43.1982633" lon="11.4709815"><ele>200.0</ele><time>2026-04-26T12:24:26.035Z</time></trkpt><trkpt lat="43.1983293" lon="11.4710978"><ele>200.8</ele><time>2026-04-26T12:24:27.041Z</time></trkpt><trkpt lat="43.1983866" lon="11.4712266"><ele>201.6</ele><time>2026-04-26T12:24:28.044Z</time></trkpt><trkpt lat="43.198436" lon="11.4713641"><ele>202.39999999999998</ele><time>2026-04-26T12:24:29.033Z</time></trkpt><trkpt lat="43.1984761" lon="11.4715091"><ele>203.2</ele><time>2026-04-26T12:24:30.046Z</time></trkpt><trkpt lat="43.1985081" lon="11.4716528"><ele>204.0</ele><time>2026-04-26T12:24:31.027Z</time></trkpt><trkpt lat="43.1985319" lon="11.4718037"><ele>205.5</ele><time>2026-04-26T12:24:32.043Z</time></trkpt><trkpt lat="43.198543" lon="11.4719606"><ele>207.0</ele><time>2026-04-26T12:24:33.032Z</time></trkpt><trkpt lat="43.1985386" lon="11.4721221"><ele>208.5</ele><time>2026-04-26T12:24:34.033Z</time></trkpt><trkpt lat="43.1985197" lon="11.4722923"><ele>210.0</ele><time>2026-04-26T12:24:35.027Z</time></trkpt><trkpt lat="43.1984992" lon="11.4724652"><ele>210.6</ele><time>2026-04-26T12:24:36.047Z</time></trkpt><trkpt lat="43.1984915" lon="11.4726218"><ele>211.2</ele><time>2026-04-26T12:24:37.037Z</time></trkpt><trkpt lat="43.198503" lon="11.4727651"><ele>211.8</ele><time>2026-04-26T12:24:38.039Z</time></trkpt><trkpt lat="43.198533" lon="11.472896"><ele>212.4</ele><time>2026-04-26T12:24:39.047Z</time></trkpt><trkpt lat="43.1985804" lon="11.4730167"><ele>213.0</ele><time>2026-04-26T12:24:40.025Z</time></trkpt><trkpt lat="43.1986408" lon="11.4731342"><ele>213.2</ele><time>2026-04-26T12:24:41.034Z</time></trkpt><trkpt lat="43.198706" lon="11.473263"><ele>213.4</ele><time>2026-04-26T12:24:42.036Z</time></trkpt><trkpt lat="43.1987713" lon="11.4733931"><ele>213.59999999999997</ele><time>2026-04-26T12:24:43.025Z</time></trkpt><trkpt lat="43.1988245" lon="11.4735185"><ele>213.79999999999998</ele><time>2026-04-26T12:24:44.032Z</time></trkpt><trkpt lat="43.1988607" lon="11.4736522"><ele>214.0</ele><time>2026-04-26T12:24:45.046Z</time></trkpt><trkpt lat="43.1988757" lon="11.4738026"><ele>212.2</ele><time>2026-04-26T12:24:46.034Z</time></trkpt><trkpt lat="43.1988746" lon="11.4739574"><ele>210.39999999999998</ele><time>2026-04-26T12:24:47.048Z</time></trkpt><trkpt lat="43.1988735" lon="11.4740965"><ele>208.6</ele><time>2026-04-26T12:24:48.067Z</time></trkpt><trkpt lat="43.198882" lon="11.4742228"><ele>206.8</ele><time>2026-04-26T12:24:49.06Z</time></trkpt><trkpt lat="43.1989056" lon="11.4743482"><ele>205.0</ele><time>2026-04-26T12:24:50.044Z</time></trkpt><trkpt lat="43.1989496" lon="11.4744807"><ele>203.5</ele><time>2026-04-26T12:24:51.068Z</time></trkpt><trkpt lat="43.1990126" lon="11.4746189"><ele>202.0</ele><time>2026-04-26T12:24:52.048Z</time></trkpt><trkpt lat="43.1990909" lon="11.4747681"><ele>200.5</ele><time>2026-04-26T12:24:53.057Z</time></trkpt><trkpt lat="43.199175" lon="11.4749229"><ele>199.0</ele><time>2026-04-26T12:24:54.064Z</time></trkpt><trkpt lat="43.199256" lon="11.475074"><ele>199.0</ele><time>2026-04-26T12:24:55.069Z</time></trkpt><trkpt lat="43.1993296" lon="11.47521"><ele>199.0</ele><time>2026-04-26T12:24:56.07Z</time></trkpt><trkpt lat="43.1994029" lon="11.4753324"><ele>199.0</ele><time>2026-04-26T12:24:57.071Z</time></trkpt><trkpt lat="43.1994847" lon="11.4754489"><ele>199.0</ele><time>2026-04-26T12:24:58.053Z</time></trkpt><trkpt lat="43.1995749" lon="11.4755595"><ele>200.75</ele><time>2026-04-26T12:24:59.063Z</time></trkpt><trkpt lat="43.1996676" lon="11.4756534"><ele>202.5</ele><time>2026-04-26T12:25:00.053Z</time></trkpt><trkpt lat="43.1997654" lon="11.4757288"><ele>204.25</ele><time>2026-04-26T12:25:01.052Z</time></trkpt><trkpt lat="43.19987" lon="11.4757995"><ele>206.0</ele><time>2026-04-26T12:25:02.041Z</time></trkpt><trkpt lat="43.1999774" lon="11.4758848"><ele>206.0</ele><time>2026-04-26T12:25:03.052Z</time></trkpt><trkpt lat="43.2000777" lon="11.4759946"><ele>206.0</ele><time>2026-04-26T12:25:04.042Z</time></trkpt><trkpt lat="43.2001769" lon="11.4761177"><ele>206.0</ele><time>2026-04-26T12:25:05.058Z</time></trkpt><trkpt lat="43.2002916" lon="11.4762403"><ele>206.0</ele><time>2026-04-26T12:25:06.074Z</time></trkpt><trkpt lat="43.2004149" lon="11.4763598"><ele>207.0</ele><time>2026-04-26T12:25:07.059Z</time></trkpt><trkpt lat="43.2005241" lon="11.4764787"><ele>208.0</ele><time>2026-04-26T12:25:08.031Z</time></trkpt><trkpt lat="43.2006224" lon="11.4766072"><ele>209.0</ele><time>2026-04-26T12:25:09.038Z</time></trkpt><trkpt lat="43.2007156" lon="11.4767538"><ele>210.0</ele><time>2026-04-26T12:25:10.06Z</time></trkpt><trkpt lat="43.2008015" lon="11.4769136"><ele>210.0</ele><time>2026-04-26T12:25:11.055Z</time></trkpt><trkpt lat="43.2008772" lon="11.4770748"><ele>210.0</ele><time>2026-04-26T12:25:12.056Z</time></trkpt><trkpt lat="43.2009389" lon="11.4772223"><ele>210.0</ele><time>2026-04-26T12:25:13.046Z</time></trkpt><trkpt lat="43.2009923" lon="11.4773582"><ele>210.0</ele><time>2026-04-26T12:25:14.054Z</time></trkpt><trkpt lat="43.201042" lon="11.4774884"><ele>209.0</ele><time>2026-04-26T12:25:15.064Z</time></trkpt><trkpt lat="43.2010939" lon="11.4776235"><ele>208.0</ele><time>2026-04-26T12:25:16.052Z</time></trkpt><trkpt lat="43.2011476" lon="11.4777673"><ele>207.0</ele><time>2026-04-26T12:25:17.065Z</time></trkpt><trkpt lat="43.2012032" lon="11.4779143"><ele>206.0</ele><time>2026-04-26T12:25:18.044Z</time></trkpt><trkpt lat="43.2012635" lon="11.4780699"><ele>206.75</ele><time>2026-04-26T12:25:19.068Z</time></trkpt><trkpt lat="43.201328" lon="11.4782281"><ele>207.5</ele><time>2026-04-26T12:25:20.052Z</time></trkpt><trkpt lat="43.2013978" lon="11.478392"><ele>208.25</ele><time>2026-04-26T12:25:21.051Z</time></trkpt><trkpt lat="43.2014703" lon="11.4785625"><ele>209.0</ele><time>2026-04-26T12:25:22.062Z</time></trkpt><trkpt lat="43.2015401" lon="11.4787393"><ele>210.0</ele><time>2026-04-26T12:25:23.047Z</time></trkpt><trkpt lat="43.201606" lon="11.4789242"><ele>211.0</ele><time>2026-04-26T12:25:24.053Z</time></trkpt><trkpt lat="43.2016656" lon="11.4791113"><ele>212.0</ele><time>2026-04-26T12:25:25.042Z</time></trkpt><trkpt lat="43.2017185" lon="11.4793048"><ele>213.0</ele><time>2026-04-26T12:25:26.036Z</time></trkpt><trkpt lat="43.2017677" lon="11.4795004"><ele>212.75</ele><time>2026-04-26T12:25:27.044Z</time></trkpt><trkpt lat="43.2018171" lon="11.4796896"><ele>212.5</ele><time>2026-04-26T12:25:28.043Z</time></trkpt><trkpt lat="43.2018703" lon="11.4798732"><ele>212.25</ele><time>2026-04-26T12:25:29.03Z</time></trkpt><trkpt lat="43.2019279" lon="11.4800528"><ele>212.0</ele><time>2026-04-26T12:25:30.037Z</time></trkpt><trkpt lat="43.20199" lon="11.4802305"><ele>212.0</ele><time>2026-04-26T12:25:31.027Z</time></trkpt><trkpt lat="43.2020562" lon="11.4804076"><ele>212.0</ele><time>2026-04-26T12:25:32.028Z</time></trkpt><trkpt lat="43.2021152" lon="11.480573"><ele>212.0</ele><time>2026-04-26T12:25:33.02Z</time></trkpt><trkpt lat="43.2021646" lon="11.480734"><ele>212.0</ele><time>2026-04-26T12:25:34.04Z</time></trkpt><trkpt lat="43.202204" lon="11.4809029"><ele>212.5</ele><time>2026-04-26T12:25:35.05Z</time></trkpt><trkpt lat="43.2022331" lon="11.4810796"><ele>213.0</ele><time>2026-04-26T12:25:36.057Z</time></trkpt><trkpt lat="43.2022578" lon="11.481262"><ele>213.5</ele><time>2026-04-26T12:25:37.072Z</time></trkpt><trkpt lat="43.2022826" lon="11.4814457"><ele>214.0</ele><time>2026-04-26T12:25:38.057Z</time></trkpt><trkpt lat="43.2023021" lon="11.4816312"><ele>214.0</ele><time>2026-04-26T12:25:39.056Z</time></trkpt><trkpt lat="43.2023077" lon="11.4818084"><ele>214.0</ele><time>2026-04-26T12:25:40.058Z</time></trkpt><trkpt lat="43.202296" lon="11.4819741"><ele>214.0</ele><time>2026-04-26T12:25:41.045Z</time></trkpt><trkpt lat="43.2022696" lon="11.4821414"><ele>214.0</ele><time>2026-04-26T12:25:42.047Z</time></trkpt><trkpt lat="43.2022352" lon="11.4823192"><ele>216.25</ele><time>2026-04-26T12:25:43.076Z</time></trkpt><trkpt lat="43.2022068" lon="11.4824993"><ele>218.5</ele><time>2026-04-26T12:25:44.043Z</time></trkpt><trkpt lat="43.2021932" lon="11.482687"><ele>220.75</ele><time>2026-04-26T12:25:45.058Z</time></trkpt><trkpt lat="43.202193" lon="11.4828608"><ele>223.0</ele><time>2026-04-26T12:25:46.044Z</time></trkpt><trkpt lat="43.2021944" lon="11.4830116"><ele>225.8</ele><time>2026-04-26T12:25:47.048Z</time></trkpt><trkpt lat="43.2021832" lon="11.4831464"><ele>228.60000000000002</ele><time>2026-04-26T12:25:48.043Z</time></trkpt><trkpt lat="43.2021515" lon="11.4832695"><ele>231.39999999999998</ele><time>2026-04-26T12:25:49.054Z</time></trkpt><trkpt lat="43.2021005" lon="11.4833858"><ele>234.2</ele><time>2026-04-26T12:25:50.042Z</time></trkpt><trkpt lat="43.2020324" lon="11.4835041"><ele>237.0</ele><time>2026-04-26T12:25:51.063Z</time></trkpt><trkpt lat="43.2019541" lon="11.4836285"><ele>237.0</ele><time>2026-04-26T12:25:52.051Z</time></trkpt><trkpt lat="43.2018793" lon="11.4837481"><ele>237.0</ele><time>2026-04-26T12:25:53.045Z</time></trkpt><trkpt lat="43.201821" lon="11.4838551"><ele>237.0</ele><time>2026-04-26T12:25:54.039Z</time></trkpt><trkpt lat="43.2017807" lon="11.483961"><ele>237.0</ele><time>2026-04-26T12:25:55.041Z</time></trkpt><trkpt lat="43.2017638" lon="11.4840674"><ele>237.0</ele><time>2026-04-26T12:25:56.028Z</time></trkpt><trkpt lat="43.2017706" lon="11.484171"><ele>239.66666666666666</ele><time>2026-04-26T12:25:57.031Z</time></trkpt><trkpt lat="43.2017991" lon="11.4842666"><ele>242.33333333333331</ele><time>2026-04-26T12:25:58.037Z</time></trkpt><trkpt lat="43.2018452" lon="11.4843599"><ele>245.0</ele><time>2026-04-26T12:25:59.037Z</time></trkpt><trkpt lat="43.2018991" lon="11.4844593"><ele>247.66666666666666</ele><time>2026-04-26T12:26:00.037Z</time></trkpt><trkpt lat="43.2019517" lon="11.4845659"><ele>250.33333333333331</ele><time>2026-04-26T12:26:01.039Z</time></trkpt><trkpt lat="43.2020005" lon="11.4846852"><ele>253.0</ele><time>2026-04-26T12:26:02.032Z</time></trkpt><trkpt lat="43.2020452" lon="11.4848277"><ele>253.25</ele><time>2026-04-26T12:26:03.043Z</time></trkpt><trkpt lat="43.2020833" lon="11.4849876"><ele>253.5</ele><time>2026-04-26T12:26:04.031Z</time></trkpt><trkpt lat="43.2021168" lon="11.4851562"><ele>253.75</ele><time>2026-04-26T12:26:05.037Z</time></trkpt><trkpt lat="43.2021464" lon="11.4853131"><ele>254.0</ele><time>2026-04-26T12:26:06.043Z</time></trkpt><trkpt lat="43.2021717" lon="11.4854428"><ele>254.0</ele><time>2026-04-26T12:26:07.053Z</time></trkpt><trkpt lat="43.2022019" lon="11.4855652"><ele>253.99999999999997</ele><time>2026-04-26T12:26:08.03Z</time></trkpt><trkpt lat="43.2022345" lon="11.4856969"><ele>253.99999999999997</ele><time>2026-04-26T12:26:09.057Z</time></trkpt><trkpt lat="43.2022655" lon="11.4858217"><ele>254.0</ele><time>2026-04-26T12:26:10.041Z</time></trkpt><trkpt lat="43.2023044" lon="11.4859394"><ele>254.0</ele><time>2026-04-26T12:26:11.039Z</time></trkpt><trkpt lat="43.2023494" lon="11.4860555"><ele>254.39999999999998</ele><time>2026-04-26T12:26:12.048Z</time></trkpt><trkpt lat="43.2024045" lon="11.4861701"><ele>254.79999999999998</ele><time>2026-04-26T12:26:13.039Z</time></trkpt><trkpt lat="43.2024724" lon="11.4862824"><ele>255.20000000000002</ele><time>2026-04-26T12:26:14.039Z</time></trkpt><trkpt lat="43.2025495" lon="11.4863955"><ele>255.60000000000002</ele><time>2026-04-26T12:26:15.045Z</time></trkpt><trkpt lat="43.2026404" lon="11.4865104"><ele>256.0</ele><time>2026-04-26T12:26:16.042Z</time></trkpt><trkpt lat="43.2027369" lon="11.4866295"><ele>254.0</ele><time>2026-04-26T12:26:17.033Z</time></trkpt><trkpt lat="43.2028354" lon="11.4867554"><ele>252.0</ele><time>2026-04-26T12:26:18.037Z</time></trkpt><trkpt lat="43.2029349" lon="11.4868805"><ele>250.0</ele><time>2026-04-26T12:26:19.028Z</time></trkpt><trkpt lat="43.2030294" lon="11.4870106"><ele>248.0</ele><time>2026-04-26T12:26:20.024Z</time></trkpt><trkpt lat="43.2031247" lon="11.4871436"><ele>248.25</ele><time>2026-04-26T12:26:21.028Z</time></trkpt><trkpt lat="43.2032252" lon="11.4872701"><ele>248.5</ele><time>2026-04-26T12:26:22.018Z</time></trkpt><trkpt lat="43.2033161" lon="11.4873884"><ele>248.75</ele><time>2026-04-26T12:26:23.028Z</time></trkpt><trkpt lat="43.203393" lon="11.4874945"><ele>249.0</ele><time>2026-04-26T12:26:24.032Z</time></trkpt><trkpt lat="43.2034686" lon="11.4875892"><ele>249.0</ele><time>2026-04-26T12:26:25.035Z</time></trkpt><trkpt lat="43.2035443" lon="11.487676"><ele>248.99999999999997</ele><time>2026-04-26T12:26:26.024Z</time></trkpt><trkpt lat="43.2036115" lon="11.4877608"><ele>248.99999999999997</ele><time>2026-04-26T12:26:27.035Z</time></trkpt><trkpt lat="43.2036681" lon="11.4878557"><ele>249.0</ele><time>2026-04-26T12:26:28.045Z</time></trkpt><trkpt lat="43.2037282" lon="11.4879639"><ele>249.0</ele><time>2026-04-26T12:26:29.035Z</time></trkpt><trkpt lat="43.2037951" lon="11.4880838"><ele>245.75</ele><time>2026-04-26T12:26:30.045Z</time></trkpt><trkpt lat="43.2038656" lon="11.488212"><ele>242.5</ele><time>2026-04-26T12:26:31.043Z</time></trkpt><trkpt lat="43.2039402" lon="11.4883499"><ele>239.25</ele><time>2026-04-26T12:26:32.052Z</time></trkpt><trkpt lat="43.2040155" lon="11.4884838"><ele>236.0</ele><time>2026-04-26T12:26:33.041Z</time></trkpt><trkpt lat="43.2040906" lon="11.4886074"><ele>239.0</ele><time>2026-04-26T12:26:34.046Z</time></trkpt><trkpt lat="43.2041693" lon="11.4887327"><ele>242.0</ele><time>2026-04-26T12:26:35.061Z</time></trkpt><trkpt lat="43.2042551" lon="11.4888599"><ele>245.0</ele><time>2026-04-26T12:26:36.045Z</time></trkpt><trkpt lat="43.2043461" lon="11.4889885"><ele>248.0</ele><time>2026-04-26T12:26:37.052Z</time></trkpt><trkpt lat="43.2044291" lon="11.4891263"><ele>248.0</ele><time>2026-04-26T12:26:38.038Z</time></trkpt><trkpt lat="43.2045036" lon="11.4892839"><ele>248.0</ele><time>2026-04-26T12:26:39.048Z</time></trkpt><trkpt lat="43.2045655" lon="11.4894505"><ele>248.0</ele><time>2026-04-26T12:26:40.049Z</time></trkpt><trkpt lat="43.2046158" lon="11.4896129"><ele>248.0</ele><time>2026-04-26T12:26:41.055Z</time></trkpt><trkpt lat="43.2046619" lon="11.4897683"><ele>247.4</ele><time>2026-04-26T12:26:42.039Z</time></trkpt><trkpt lat="43.204708" lon="11.4899128"><ele>246.8</ele><time>2026-04-26T12:26:43.052Z</time></trkpt><trkpt lat="43.204751" lon="11.4900476"><ele>246.2</ele><time>2026-04-26T12:26:44.044Z</time></trkpt><trkpt lat="43.2047959" lon="11.4901785"><ele>245.6</ele><time>2026-04-26T12:26:45.04Z</time></trkpt><trkpt lat="43.2048514" lon="11.4903041"><ele>245.0</ele><time>2026-04-26T12:26:46.043Z</time></trkpt><trkpt lat="43.2049243" lon="11.4904261"><ele>245.0</ele><time>2026-04-26T12:26:47.045Z</time></trkpt><trkpt lat="43.2050143" lon="11.4905485"><ele>245.0</ele><time>2026-04-26T12:26:48.053Z</time></trkpt><trkpt lat="43.2051069" lon="11.4906614"><ele>245.0</ele><time>2026-04-26T12:26:49.064Z</time></trkpt><trkpt lat="43.2051898" lon="11.4907533"><ele>245.0</ele><time>2026-04-26T12:26:50.053Z</time></trkpt><trkpt lat="43.2052722" lon="11.4908258"><ele>245.0</ele><time>2026-04-26T12:26:51.059Z</time></trkpt><trkpt lat="43.2053582" lon="11.490875"><ele>245.0</ele><time>2026-04-26T12:26:52.044Z</time></trkpt><trkpt lat="43.2054524" lon="11.4909038"><ele>245.0</ele><time>2026-04-26T12:26:53.054Z</time></trkpt><trkpt lat="43.2055521" lon="11.490916"><ele>245.0</ele><time>2026-04-26T12:26:54.057Z</time></trkpt><trkpt lat="43.2056588" lon="11.4909194"><ele>245.0</ele><time>2026-04-26T12:26:55.058Z</time></trkpt><trkpt lat="43.2057713" lon="11.490914"><ele>248.25</ele><time>2026-04-26T12:26:56.042Z</time></trkpt><trkpt lat="43.2058877" lon="11.4909011"><ele>251.5</ele><time>2026-04-26T12:26:57.065Z</time></trkpt><trkpt lat="43.2060038" lon="11.49089"><ele>254.75</ele><time>2026-04-26T12:26:58.041Z</time></trkpt><trkpt lat="43.2061223" lon="11.4908932"><ele>258.0</ele><time>2026-04-26T12:26:59.046Z</time></trkpt><trkpt lat="43.2062356" lon="11.4909103"><ele>258.0</ele><time>2026-04-26T12:27:00.048Z</time></trkpt><trkpt lat="43.2063365" lon="11.4909394"><ele>258.0</ele><time>2026-04-26T12:27:01.06Z</time></trkpt><trkpt lat="43.2064209" lon="11.4909797"><ele>258.0</ele><time>2026-04-26T12:27:02.045Z</time></trkpt><trkpt lat="43.2064976" lon="11.4910288"><ele>258.0</ele><time>2026-04-26T12:27:03.048Z</time></trkpt><trkpt lat="43.2065689" lon="11.4910944"><ele>258.0</ele><time>2026-04-26T12:27:04.059Z</time></trkpt><trkpt lat="43.2066367" lon="11.4911867"><ele>257.0</ele><time>2026-04-26T12:27:05.058Z</time></trkpt><trkpt lat="43.2066999" lon="11.491303"><ele>256.0</ele><time>2026-04-26T12:27:06.047Z</time></trkpt><trkpt lat="43.2067593" lon="11.491437"><ele>255.0</ele><time>2026-04-26T12:27:07.053Z</time></trkpt><trkpt lat="43.2068129" lon="11.4915714"><ele>254.0</ele><time>2026-04-26T12:27:08.043Z</time></trkpt><trkpt lat="43.2068643" lon="11.4916894"><ele>253.0</ele><time>2026-04-26T12:27:09.045Z</time></trkpt><trkpt lat="43.2069175" lon="11.4917961"><ele>253.0</ele><time>2026-04-26T12:27:10.037Z</time></trkpt><trkpt lat="43.2069779" lon="11.491904"><ele>253.0</ele><time>2026-04-26T12:27:11.039Z</time></trkpt><trkpt lat="43.2070487" lon="11.4920107"><ele>253.0</ele><time>2026-04-26T12:27:12.045Z</time></trkpt><trkpt lat="43.207131" lon="11.492106"><ele>253.0</ele><time>2026-04-26T12:27:13.064Z</time></trkpt><trkpt lat="43.2072237" lon="11.4921981"><ele>253.0</ele><time>2026-04-26T12:27:14.062Z</time></trkpt><trkpt lat="43.2073244" lon="11.4922924"><ele>251.75</ele><time>2026-04-26T12:27:15.045Z</time></trkpt><trkpt lat="43.2074302" lon="11.4923953"><ele>250.5</ele><time>2026-04-26T12:27:16.053Z</time></trkpt><trkpt lat="43.2075385" lon="11.4925044"><ele>249.25</ele><time>2026-04-26T12:27:17.045Z</time></trkpt><trkpt lat="43.207648" lon="11.4926174"><ele>248.0</ele><time>2026-04-26T12:27:18.05Z</time></trkpt><trkpt lat="43.2077512" lon="11.4927343"><ele>248.0</ele><time>2026-04-26T12:27:19.04Z</time></trkpt><trkpt lat="43.207857" lon="11.4928504"><ele>248.0</ele><time>2026-04-26T12:27:20.061Z</time></trkpt><trkpt lat="43.2079676" lon="11.4929622"><ele>248.0</ele><time>2026-04-26T12:27:21.048Z</time></trkpt><trkpt lat="43.2080809" lon="11.4930759"><ele>248.0</ele><time>2026-04-26T12:27:22.064Z</time></trkpt><trkpt lat="43.2081895" lon="11.49318"><ele>248.5</ele><time>2026-04-26T12:27:23.07Z</time></trkpt><trkpt lat="43.2082909" lon="11.4932739"><ele>249.0</ele><time>2026-04-26T12:27:24.045Z</time></trkpt><trkpt lat="43.2083985" lon="11.4933657"><ele>249.5</ele><time>2026-04-26T12:27:25.059Z</time></trkpt><trkpt lat="43.2085089" lon="11.493455"><ele>250.0</ele><time>2026-04-26T12:27:26.042Z</time></trkpt><trkpt lat="43.2086129" lon="11.4935443"><ele>250.0</ele><time>2026-04-26T12:27:27.054Z</time></trkpt><trkpt lat="43.2086994" lon="11.4936339"><ele>250.0</ele><time>2026-04-26T12:27:28.053Z</time></trkpt><trkpt lat="43.2087765" lon="11.4937333"><ele>250.0</ele><time>2026-04-26T12:27:29.066Z</time></trkpt><trkpt lat="43.2088443" lon="11.493849"><ele>250.0</ele><time>2026-04-26T12:27:30.069Z</time></trkpt><trkpt lat="43.2089064" lon="11.4939825"><ele>250.0</ele><time>2026-04-26T12:27:31.048Z</time></trkpt><trkpt lat="43.208967" lon="11.4941341"><ele>252.25</ele><time>2026-04-26T12:27:32.053Z</time></trkpt><trkpt lat="43.2090211" lon="11.4942933"><ele>254.5</ele><time>2026-04-26T12:27:33.07Z</time></trkpt><trkpt lat="43.2090683" lon="11.4944544"><ele>256.75</ele><time>2026-04-26T12:27:34.037Z</time></trkpt><trkpt lat="43.2091131" lon="11.494621"><ele>259.0</ele><time>2026-04-26T12:27:35.04Z</time></trkpt><trkpt lat="43.2091513" lon="11.4947891"><ele>259.4</ele><time>2026-04-26T12:27:36.035Z</time></trkpt><trkpt lat="43.20918" lon="11.4949595"><ele>259.79999999999995</ele><time>2026-04-26T12:27:37.057Z</time></trkpt><trkpt lat="43.2091988" lon="11.495113"><ele>260.20000000000005</ele><time>2026-04-26T12:27:38.049Z</time></trkpt><trkpt lat="43.2092126" lon="11.4952442"><ele>260.6</ele><time>2026-04-26T12:27:39.049Z</time></trkpt><trkpt lat="43.2092288" lon="11.495356"><ele>261.0</ele><time>2026-04-26T12:27:40.051Z</time></trkpt><trkpt lat="43.2092524" lon="11.4954544"><ele>261.40000000000003</ele><time>2026-04-26T12:27:41.073Z</time></trkpt><trkpt lat="43.2092851" lon="11.4955506"><ele>261.8</ele><time>2026-04-26T12:27:42.064Z</time></trkpt><trkpt lat="43.209326" lon="11.4956496"><ele>262.20000000000005</ele><time>2026-04-26T12:27:43.071Z</time></trkpt><trkpt lat="43.2093697" lon="11.4957551"><ele>262.6</ele><time>2026-04-26T12:27:44.053Z</time></trkpt><trkpt lat="43.2094138" lon="11.4958784"><ele>263.0</ele><time>2026-04-26T12:27:45.052Z</time></trkpt><trkpt lat="43.2094572" lon="11.4960209"><ele>263.0</ele><time>2026-04-26T12:27:46.061Z</time></trkpt><trkpt lat="43.2094982" lon="11.4961618"><ele>263.0</ele><time>2026-04-26T12:27:47.047Z</time></trkpt><trkpt lat="43.2095401" lon="11.496286"><ele>263.0</ele><time>2026-04-26T12:27:48.053Z</time></trkpt><trkpt lat="43.2095877" lon="11.4964033"><ele>263.0</ele><time>2026-04-26T12:27:49.064Z</time></trkpt><trkpt lat="43.2096463" lon="11.4965165"><ele>263.0</ele><time>2026-04-26T12:27:50.045Z</time></trkpt><trkpt lat="43.2097127" lon="11.4966201"><ele>263.4</ele><time>2026-04-26T12:27:51.061Z</time></trkpt><trkpt lat="43.2097846" lon="11.4967093"><ele>263.8</ele><time>2026-04-26T12:27:52.059Z</time></trkpt><trkpt lat="43.2098727" lon="11.4967927"><ele>264.2</ele><time>2026-04-26T12:27:53.057Z</time></trkpt><trkpt lat="43.2099791" lon="11.4968752"><ele>264.6</ele><time>2026-04-26T12:27:54.048Z</time></trkpt><trkpt lat="43.2100874" lon="11.4969549"><ele>265.0</ele><time>2026-04-26T12:27:55.057Z</time></trkpt><trkpt lat="43.2101895" lon="11.4970315"><ele>264.6</ele><time>2026-04-26T12:27:56.048Z</time></trkpt><trkpt lat="43.2102854" lon="11.4971061"><ele>264.2</ele><time>2026-04-26T12:27:57.05Z</time></trkpt><trkpt lat="43.210377" lon="11.4971773"><ele>263.8</ele><time>2026-04-26T12:27:58.038Z</time></trkpt><trkpt lat="43.2104665" lon="11.497247"><ele>263.4</ele><time>2026-04-26T12:27:59.039Z</time></trkpt><trkpt lat="43.2105537" lon="11.4973166"><ele>263.0</ele><time>2026-04-26T12:28:00.049Z</time></trkpt><trkpt lat="43.2106361" lon="11.4973881"><ele>263.2</ele><time>2026-04-26T12:28:01.057Z</time></trkpt><trkpt lat="43.2107058" lon="11.4974643"><ele>263.4</ele><time>2026-04-26T12:28:02.045Z</time></trkpt><trkpt lat="43.2107599" lon="11.4975519"><ele>263.59999999999997</ele><time>2026-04-26T12:28:03.057Z</time></trkpt><trkpt lat="43.2108065" lon="11.4976596"><ele>263.8</ele><time>2026-04-26T12:28:04.061Z</time></trkpt><trkpt lat="43.2108446" lon="11.4977915"><ele>264.0</ele><time>2026-04-26T12:28:05.05Z</time></trkpt><trkpt lat="43.2108736" lon="11.497944"><ele>263.0</ele><time>2026-04-26T12:28:06.058Z</time></trkpt><trkpt lat="43.2108967" lon="11.4980984"><ele>262.0</ele><time>2026-04-26T12:28:07.065Z</time></trkpt><trkpt lat="43.2109155" lon="11.4982264"><ele>261.0</ele><time>2026-04-26T12:28:08.053Z</time></trkpt><trkpt lat="43.2109404" lon="11.4983379"><ele>260.0</ele><time>2026-04-26T12:28:09.079Z</time></trkpt><trkpt lat="43.210981" lon="11.4984392"><ele>259.0</ele><time>2026-04-26T12:28:10.065Z</time></trkpt><trkpt lat="43.2110408" lon="11.4985287"><ele>259.0</ele><time>2026-04-26T12:28:11.08Z</time></trkpt><trkpt lat="43.2111138" lon="11.4986008"><ele>259.0</ele><time>2026-04-26T12:28:12.053Z</time></trkpt><trkpt lat="43.2111915" lon="11.4986512"><ele>259.0</ele><time>2026-04-26T12:28:13.064Z</time></trkpt><trkpt lat="43.21127" lon="11.498679"><ele>259.0</ele><time>2026-04-26T12:28:14.046Z</time></trkpt><trkpt lat="43.2113621" lon="11.4986894"><ele>259.0</ele><time>2026-04-26T12:28:15.057Z</time></trkpt><trkpt lat="43.211465" lon="11.4986835"><ele>257.5</ele><time>2026-04-26T12:28:16.05Z</time></trkpt><trkpt lat="43.2115696" lon="11.4986645"><ele>256.0</ele><time>2026-04-26T12:28:17.053Z</time></trkpt><trkpt lat="43.2116674" lon="11.4986398"><ele>254.5</ele><time>2026-04-26T12:28:18.063Z</time></trkpt><trkpt lat="43.2117501" lon="11.4986164"><ele>253.0</ele><time>2026-04-26T12:28:19.064Z</time></trkpt><trkpt lat="43.211819" lon="11.4985985"><ele>251.49999999999997</ele><time>2026-04-26T12:28:20.045Z</time></trkpt><trkpt lat="43.211885" lon="11.4985937"><ele>250.0</ele><time>2026-04-26T12:28:21.055Z</time></trkpt><trkpt lat="43.2119519" lon="11.498616"><ele>249.99999999999997</ele><time>2026-04-26T12:28:22.041Z</time></trkpt><trkpt lat="43.2120176" lon="11.4986705"><ele>250.0</ele><time>2026-04-26T12:28:23.047Z</time></trkpt><trkpt lat="43.21208" lon="11.498754"><ele>250.0</ele><time>2026-04-26T12:28:24.041Z</time></trkpt><trkpt lat="43.2121379" lon="11.4988615"><ele>250.0</ele><time>2026-04-26T12:28:25.06Z</time></trkpt><trkpt lat="43.2121792" lon="11.498981"><ele>249.99999999999997</ele><time>2026-04-26T12:28:26.046Z</time></trkpt><trkpt lat="43.2122011" lon="11.4991028"><ele>250.0</ele><time>2026-04-26T12:28:27.047Z</time></trkpt><trkpt lat="43.2122041" lon="11.4992162"><ele>248.99999999999997</ele><time>2026-04-26T12:28:28.05Z</time></trkpt><trkpt lat="43.2121914" lon="11.49932"><ele>248.0</ele><time>2026-04-26T12:28:29.04Z</time></trkpt><trkpt lat="43.2121619" lon="11.4994178"><ele>247.0</ele><time>2026-04-26T12:28:30.052Z</time></trkpt><trkpt lat="43.2121154" lon="11.4995025"><ele>246.0</ele><time>2026-04-26T12:28:31.081Z</time></trkpt><trkpt lat="43.2120493" lon="11.4995661"><ele>244.99999999999997</ele><time>2026-04-26T12:28:32.046Z</time></trkpt><trkpt lat="43.2119562" lon="11.4996145"><ele>244.0</ele><time>2026-04-26T12:28:33.051Z</time></trkpt><trkpt lat="43.2118521" lon="11.4996505"><ele>241.39999999999998</ele><time>2026-04-26T12:28:34.041Z</time></trkpt><trkpt lat="43.2117599" lon="11.4996852"><ele>238.79999999999998</ele><time>2026-04-26T12:28:35.044Z</time></trkpt><trkpt lat="43.2116835" lon="11.499737"><ele>236.20000000000002</ele><time>2026-04-26T12:28:36.053Z</time></trkpt><trkpt lat="43.2116239" lon="11.4998151"><ele>233.60000000000002</ele><time>2026-04-26T12:28:37.052Z</time></trkpt><trkpt lat="43.2115779" lon="11.4999181"><ele>231.0</ele><time>2026-04-26T12:28:38.068Z</time></trkpt><trkpt lat="43.2115391" lon="11.5000438"><ele>231.0</ele><time>2026-04-26T12:28:39.05Z</time></trkpt><trkpt lat="43.2115058" lon="11.5001901"><ele>231.0</ele><time>2026-04-26T12:28:40.05Z</time></trkpt><trkpt lat="43.2114756" lon="11.5003515"><ele>231.0</ele><time>2026-04-26T12:28:41.05Z</time></trkpt><trkpt lat="43.2114445" lon="11.5005142"><ele>231.0</ele><time>2026-04-26T12:28:42.056Z</time></trkpt><trkpt lat="43.2114149" lon="11.5006634"><ele>228.60000000000002</ele><time>2026-04-26T12:28:43.048Z</time></trkpt><trkpt lat="43.21138" lon="11.5007936"><ele>226.20000000000002</ele><time>2026-04-26T12:28:44.05Z</time></trkpt><trkpt lat="43.2113331" lon="11.5008999"><ele>223.79999999999998</ele><time>2026-04-26T12:28:45.046Z</time></trkpt><trkpt lat="43.2112699" lon="11.5009855"><ele>221.39999999999998</ele><time>2026-04-26T12:28:46.041Z</time></trkpt><trkpt lat="43.2111913" lon="11.5010517"><ele>219.0</ele><time>2026-04-26T12:28:47.029Z</time></trkpt><trkpt lat="43.2110973" lon="11.5011035"><ele>219.0</ele><time>2026-04-26T12:28:48.033Z</time></trkpt><trkpt lat="43.2109929" lon="11.5011594"><ele>219.0</ele><time>2026-04-26T12:28:49.049Z</time></trkpt><trkpt lat="43.2108866" lon="11.5012313"><ele>219.0</ele><time>2026-04-26T12:28:50.047Z</time></trkpt><trkpt lat="43.210783" lon="11.5013199"><ele>219.0</ele><time>2026-04-26T12:28:51.048Z</time></trkpt><trkpt lat="43.2106913" lon="11.5014244"><ele>219.2</ele><time>2026-04-26T12:28:52.059Z</time></trkpt><trkpt lat="43.2106185" lon="11.5015409"><ele>219.39999999999998</ele><time>2026-04-26T12:28:53.062Z</time></trkpt><trkpt lat="43.2105586" lon="11.5016722"><ele>219.6</ele><time>2026-04-26T12:28:54.045Z</time></trkpt><trkpt lat="43.2105085" lon="11.5018147"><ele>219.8</ele><time>2026-04-26T12:28:55.066Z</time></trkpt><trkpt lat="43.2104693" lon="11.5019438"><ele>220.0</ele><time>2026-04-26T12:28:56.047Z</time></trkpt><trkpt lat="43.2104319" lon="11.5020666"><ele>222.0</ele><time>2026-04-26T12:28:57.049Z</time></trkpt><trkpt lat="43.2103905" lon="11.5021811"><ele>224.0</ele><time>2026-04-26T12:28:58.054Z</time></trkpt><trkpt lat="43.210343" lon="11.5022808"><ele>226.0</ele><time>2026-04-26T12:28:59.04Z</time></trkpt><trkpt lat="43.2102827" lon="11.5023663"><ele>228.0</ele><time>2026-04-26T12:29:00.045Z</time></trkpt><trkpt lat="43.2102018" lon="11.5024524"><ele>230.0</ele><time>2026-04-26T12:29:01.044Z</time></trkpt><trkpt lat="43.2101048" lon="11.502552"><ele>230.0</ele><time>2026-04-26T12:29:02.036Z</time></trkpt><trkpt lat="43.210005" lon="11.5026559"><ele>230.0</ele><time>2026-04-26T12:29:03.05Z</time></trkpt><trkpt lat="43.2099072" lon="11.5027554"><ele>230.0</ele><time>2026-04-26T12:29:04.041Z</time></trkpt><trkpt lat="43.2098018" lon="11.502859"><ele>230.0</ele><time>2026-04-26T12:29:05.046Z</time></trkpt><trkpt lat="43.209694" lon="11.5029686"><ele>227.25</ele><time>2026-04-26T12:29:06.056Z</time></trkpt><trkpt lat="43.2095926" lon="11.503077"><ele>224.5</ele><time>2026-04-26T12:29:07.065Z</time></trkpt><trkpt lat="43.2094972" lon="11.5031816"><ele>221.75</ele><time>2026-04-26T12:29:08.053Z</time></trkpt><trkpt lat="43.2094068" lon="11.5032823"><ele>219.0</ele><time>2026-04-26T12:29:09.055Z</time></trkpt><trkpt lat="43.2093226" lon="11.5033907"><ele>219.0</ele><time>2026-04-26T12:29:10.05Z</time></trkpt><trkpt lat="43.2092363" lon="11.5035245"><ele>219.0</ele><time>2026-04-26T12:29:11.035Z</time></trkpt><trkpt lat="43.2091481" lon="11.5036776"><ele>219.0</ele><time>2026-04-26T12:29:12.045Z</time></trkpt><trkpt lat="43.2090683" lon="11.5038283"><ele>219.0</ele><time>2026-04-26T12:29:13.038Z</time></trkpt><trkpt lat="43.2089905" lon="11.5039743"><ele>216.79999999999998</ele><time>2026-04-26T12:29:14.04Z</time></trkpt><trkpt lat="43.2089113" lon="11.5041127"><ele>214.59999999999997</ele><time>2026-04-26T12:29:15.045Z</time></trkpt><trkpt lat="43.2088362" lon="11.5042371"><ele>212.4</ele><time>2026-04-26T12:29:16.046Z</time></trkpt><trkpt lat="43.2087654" lon="11.5043427"><ele>210.2</ele><time>2026-04-26T12:29:17.039Z</time></trkpt><trkpt lat="43.2086928" lon="11.504432"><ele>208.0</ele><time>2026-04-26T12:29:18.047Z</time></trkpt><trkpt lat="43.2086092" lon="11.5045023"><ele>208.0</ele><time>2026-04-26T12:29:19.051Z</time></trkpt><trkpt lat="43.2085073" lon="11.5045492"><ele>208.0</ele><time>2026-04-26T12:29:20.051Z</time></trkpt><trkpt lat="43.2083879" lon="11.5045784"><ele>208.0</ele><time>2026-04-26T12:29:21.057Z</time></trkpt><trkpt lat="43.2082627" lon="11.5045952"><ele>208.0</ele><time>2026-04-26T12:29:22.045Z</time></trkpt><trkpt lat="43.208145" lon="11.5046024"><ele>205.33333333333331</ele><time>2026-04-26T12:29:23.05Z</time></trkpt><trkpt lat="43.2080424" lon="11.5045967"><ele>202.66666666666666</ele><time>2026-04-26T12:29:24.04Z</time></trkpt><trkpt lat="43.2079557" lon="11.5045787"><ele>200.0</ele><time>2026-04-26T12:29:25.06Z</time></trkpt><trkpt lat="43.2078847" lon="11.5045583"><ele>197.33333333333331</ele><time>2026-04-26T12:29:26.055Z</time></trkpt><trkpt lat="43.2077836" lon="11.5045716"><ele>194.66666666666666</ele><time>2026-04-26T12:29:28.048Z</time></trkpt><trkpt lat="43.2077518" lon="11.5046654"><ele>192.0</ele><time>2026-04-26T12:29:30.075Z</time></trkpt><trkpt lat="43.2078103" lon="11.5047463"><ele>192.0</ele><time>2026-04-26T12:29:32.057Z</time></trkpt><trkpt lat="43.2079415" lon="11.5048159"><ele>192.0</ele><time>2026-04-26T12:29:34.041Z</time></trkpt><trkpt lat="43.208036" lon="11.504861"><ele>192.0</ele><time>2026-04-26T12:29:35.042Z</time></trkpt><trkpt lat="43.2081482" lon="11.5049165"><ele>192.0</ele><time>2026-04-26T12:29:36.041Z</time></trkpt><trkpt lat="43.2082586" lon="11.5049795"><ele>192.0</ele><time>2026-04-26T12:29:37.05Z</time></trkpt><trkpt lat="43.2083556" lon="11.5050359"><ele>192.0</ele><time>2026-04-26T12:29:38.052Z</time></trkpt><trkpt lat="43.2084412" lon="11.5050758"><ele>192.0</ele><time>2026-04-26T12:29:39.059Z</time></trkpt><trkpt lat="43.2085142" lon="11.5050986"><ele>192.0</ele><time>2026-04-26T12:29:40.057Z</time></trkpt><trkpt lat="43.2085768" lon="11.5051124"><ele>192.0</ele><time>2026-04-26T12:29:41.062Z</time></trkpt><trkpt lat="43.2086733" lon="11.5051245"><ele>192.0</ele><time>2026-04-26T12:29:43.064Z</time></trkpt><trkpt lat="43.2088048" lon="11.5051372"><ele>192.0</ele><time>2026-04-26T12:29:45.054Z</time></trkpt><trkpt lat="43.2088877" lon="11.5051538"><ele>192.0</ele><time>2026-04-26T12:29:46.058Z</time></trkpt><trkpt lat="43.2089601" lon="11.5051634"><ele>192.0</ele><time>2026-04-26T12:29:47.05Z</time></trkpt><trkpt lat="43.2090387" lon="11.5051518"><ele>192.0</ele><time>2026-04-26T12:29:48.057Z</time></trkpt><trkpt lat="43.2091268" lon="11.5051162"><ele>192.0</ele><time>2026-04-26T12:29:49.064Z</time></trkpt><trkpt lat="43.2092123" lon="11.5050655"><ele>192.0</ele><time>2026-04-26T12:29:50.047Z</time></trkpt><trkpt lat="43.2092932" lon="11.5050081"><ele>190.83333333333334</ele><time>2026-04-26T12:29:51.053Z</time></trkpt><trkpt lat="43.209364" lon="11.5049571"><ele>189.66666666666666</ele><time>2026-04-26T12:29:52.053Z</time></trkpt><trkpt lat="43.2094337" lon="11.5049214"><ele>188.5</ele><time>2026-04-26T12:29:53.045Z</time></trkpt><trkpt lat="43.2095145" lon="11.5049031"><ele>187.33333333333331</ele><time>2026-04-26T12:29:54.057Z</time></trkpt><trkpt lat="43.2096051" lon="11.504907"><ele>186.16666666666666</ele><time>2026-04-26T12:29:55.069Z</time></trkpt><trkpt lat="43.2096946" lon="11.5049366"><ele>185.0</ele><time>2026-04-26T12:29:56.051Z</time></trkpt><trkpt lat="43.2097776" lon="11.5049897"><ele>183.4</ele><time>2026-04-26T12:29:57.054Z</time></trkpt><trkpt lat="43.2098599" lon="11.5050651"><ele>181.8</ele><time>2026-04-26T12:29:58.049Z</time></trkpt><trkpt lat="43.2099493" lon="11.5051575"><ele>180.2</ele><time>2026-04-26T12:29:59.038Z</time></trkpt><trkpt lat="43.2100354" lon="11.5052466"><ele>178.6</ele><time>2026-04-26T12:30:00.035Z</time></trkpt><trkpt lat="43.2101199" lon="11.5053209"><ele>177.0</ele><time>2026-04-26T12:30:01.035Z</time></trkpt><trkpt lat="43.2102089" lon="11.5053755"><ele>174.8</ele><time>2026-04-26T12:30:02.028Z</time></trkpt><trkpt lat="43.2103052" lon="11.5054134"><ele>172.6</ele><time>2026-04-26T12:30:03.042Z</time></trkpt><trkpt lat="43.2104002" lon="11.5054393"><ele>170.4</ele><time>2026-04-26T12:30:04.058Z</time></trkpt><trkpt lat="43.210488" lon="11.5054577"><ele>168.20000000000002</ele><time>2026-04-26T12:30:05.047Z</time></trkpt><trkpt lat="43.2105694" lon="11.5054683"><ele>166.0</ele><time>2026-04-26T12:30:06.05Z</time></trkpt><trkpt lat="43.2106525" lon="11.505466"><ele>165.66666666666669</ele><time>2026-04-26T12:30:07.052Z</time></trkpt><trkpt lat="43.210741" lon="11.5054492"><ele>165.33333333333334</ele><time>2026-04-26T12:30:08.054Z</time></trkpt><trkpt lat="43.2108293" lon="11.5054225"><ele>165.0</ele><time>2026-04-26T12:30:09.057Z</time></trkpt><trkpt lat="43.2109209" lon="11.5053942"><ele>164.66666666666666</ele><time>2026-04-26T12:30:10.103Z</time></trkpt><trkpt lat="43.2110078" lon="11.5053674"><ele>164.33333333333331</ele><time>2026-04-26T12:30:11.044Z</time></trkpt><trkpt lat="43.211093" lon="11.5053502"><ele>164.0</ele><time>2026-04-26T12:30:12.055Z</time></trkpt><trkpt lat="43.2111752" lon="11.505358"><ele>164.0</ele><time>2026-04-26T12:30:13.059Z</time></trkpt><trkpt lat="43.2112499" lon="11.5053977"><ele>164.0</ele><time>2026-04-26T12:30:14.044Z</time></trkpt><trkpt lat="43.2113141" lon="11.5054732"><ele>164.0</ele><time>2026-04-26T12:30:15.075Z</time></trkpt><trkpt lat="43.2113696" lon="11.5055816"><ele>164.0</ele><time>2026-04-26T12:30:16.056Z</time></trkpt><trkpt lat="43.2114184" lon="11.5057214"><ele>164.0</ele><time>2026-04-26T12:30:17.062Z</time></trkpt><trkpt lat="43.2114644" lon="11.5058875"><ele>164.33333333333331</ele><time>2026-04-26T12:30:18.049Z</time></trkpt><trkpt lat="43.2115157" lon="11.5060762"><ele>164.66666666666666</ele><time>2026-04-26T12:30:19.06Z</time></trkpt><trkpt lat="43.2115728" lon="11.5062743"><ele>165.0</ele><time>2026-04-26T12:30:20.044Z</time></trkpt><trkpt lat="43.2116345" lon="11.5064881"><ele>165.0</ele><time>2026-04-26T12:30:21.063Z</time></trkpt><trkpt lat="43.2116931" lon="11.5066911"><ele>165.0</ele><time>2026-04-26T12:30:22.048Z</time></trkpt><trkpt lat="43.2117461" lon="11.5068757"><ele>165.0</ele><time>2026-04-26T12:30:23.049Z</time></trkpt><trkpt lat="43.2117931" lon="11.5070446"><ele>165.0</ele><time>2026-04-26T12:30:24.044Z</time></trkpt><trkpt lat="43.2118354" lon="11.5072011"><ele>164.8</ele><time>2026-04-26T12:30:25.044Z</time></trkpt><trkpt lat="43.2118759" lon="11.5073413"><ele>164.6</ele><time>2026-04-26T12:30:26.032Z</time></trkpt><trkpt lat="43.2119187" lon="11.507465"><ele>164.39999999999998</ele><time>2026-04-26T12:30:27.047Z</time></trkpt><trkpt lat="43.2119682" lon="11.5075706"><ele>164.2</ele><time>2026-04-26T12:30:28.036Z</time></trkpt><trkpt lat="43.2120334" lon="11.5076642"><ele>164.0</ele><time>2026-04-26T12:30:29.045Z</time></trkpt><trkpt lat="43.2121225" lon="11.5077468"><ele>164.0</ele><time>2026-04-26T12:30:30.046Z</time></trkpt><trkpt lat="43.2122316" lon="11.5078159"><ele>164.0</ele><time>2026-04-26T12:30:31.054Z</time></trkpt><trkpt lat="43.2123433" lon="11.5078775"><ele>164.0</ele><time>2026-04-26T12:30:32.047Z</time></trkpt><trkpt lat="43.2124436" lon="11.5079475"><ele>164.0</ele><time>2026-04-26T12:30:33.049Z</time></trkpt><trkpt lat="43.2125295" lon="11.5080409"><ele>163.5</ele><time>2026-04-26T12:30:34.047Z</time></trkpt><trkpt lat="43.2126067" lon="11.5081715"><ele>163.0</ele><time>2026-04-26T12:30:35.046Z</time></trkpt><trkpt lat="43.2126792" lon="11.5083294"><ele>162.5</ele><time>2026-04-26T12:30:36.053Z</time></trkpt><trkpt lat="43.2127517" lon="11.5084975"><ele>162.0</ele><time>2026-04-26T12:30:37.041Z</time></trkpt><trkpt lat="43.2128287" lon="11.5086659"><ele>161.75</ele><time>2026-04-26T12:30:38.05Z</time></trkpt><trkpt lat="43.2129115" lon="11.5088338"><ele>161.5</ele><time>2026-04-26T12:30:39.056Z</time></trkpt><trkpt lat="43.2129964" lon="11.5090042"><ele>161.25</ele><time>2026-04-26T12:30:40.048Z</time></trkpt><trkpt lat="43.2130756" lon="11.5091692"><ele>161.0</ele><time>2026-04-26T12:30:41.052Z</time></trkpt><trkpt lat="43.2131477" lon="11.5093191"><ele>161.5</ele><time>2026-04-26T12:30:42.043Z</time></trkpt><trkpt lat="43.2132172" lon="11.5094507"><ele>162.0</ele><time>2026-04-26T12:30:43.061Z</time></trkpt><trkpt lat="43.2132901" lon="11.5095683"><ele>162.5</ele><time>2026-04-26T12:30:44.062Z</time></trkpt><trkpt lat="43.2133784" lon="11.5096859"><ele>163.0</ele><time>2026-04-26T12:30:45.063Z</time></trkpt><trkpt lat="43.2134814" lon="11.5098075"><ele>163.0</ele><time>2026-04-26T12:30:46.047Z</time></trkpt><trkpt lat="43.2135942" lon="11.5099387"><ele>163.0</ele><time>2026-04-26T12:30:47.056Z</time></trkpt><trkpt lat="43.2137022" lon="11.5100718"><ele>163.0</ele><time>2026-04-26T12:30:48.036Z</time></trkpt><trkpt lat="43.2138011" lon="11.5102101"><ele>163.0</ele><time>2026-04-26T12:30:49.041Z</time></trkpt><trkpt lat="43.213896" lon="11.5103599"><ele>163.25</ele><time>2026-04-26T12:30:50.033Z</time></trkpt><trkpt lat="43.213984" lon="11.5105141"><ele>163.5</ele><time>2026-04-26T12:30:51.035Z</time></trkpt><trkpt lat="43.214063" lon="11.51066"><ele>163.75</ele><time>2026-04-26T12:30:52.049Z</time></trkpt><trkpt lat="43.2141337" lon="11.510796"><ele>164.0</ele><time>2026-04-26T12:30:53.051Z</time></trkpt><trkpt lat="43.2141931" lon="11.5109257"><ele>164.0</ele><time>2026-04-26T12:30:54.055Z</time></trkpt><trkpt lat="43.2142364" lon="11.5110586"><ele>164.0</ele><time>2026-04-26T12:30:55.059Z</time></trkpt><trkpt lat="43.2142558" lon="11.5111985"><ele>164.0</ele><time>2026-04-26T12:30:56.052Z</time></trkpt><trkpt lat="43.2142495" lon="11.5113491"><ele>164.0</ele><time>2026-04-26T12:30:57.062Z</time></trkpt><trkpt lat="43.2142247" lon="11.5115022"><ele>164.0</ele><time>2026-04-26T12:30:58.044Z</time></trkpt><trkpt lat="43.2141992" lon="11.5116392"><ele>164.39999999999998</ele><time>2026-04-26T12:30:59.051Z</time></trkpt><trkpt lat="43.2141911" lon="11.5117638"><ele>164.8</ele><time>2026-04-26T12:31:00.061Z</time></trkpt><trkpt lat="43.2142015" lon="11.5118877"><ele>165.2</ele><time>2026-04-26T12:31:01.051Z</time></trkpt><trkpt lat="43.2142274" lon="11.5120077"><ele>165.60000000000002</ele><time>2026-04-26T12:31:02.051Z</time></trkpt><trkpt lat="43.2142716" lon="11.5121247"><ele>166.0</ele><time>2026-04-26T12:31:03.058Z</time></trkpt><trkpt lat="43.2143345" lon="11.5122359"><ele>166.5</ele><time>2026-04-26T12:31:04.066Z</time></trkpt><trkpt lat="43.2144121" lon="11.5123363"><ele>167.0</ele><time>2026-04-26T12:31:05.053Z</time></trkpt><trkpt lat="43.2145025" lon="11.512429"><ele>167.5</ele><time>2026-04-26T12:31:06.047Z</time></trkpt><trkpt lat="43.2146011" lon="11.5125194"><ele>168.0</ele><time>2026-04-26T12:31:07.06Z</time></trkpt><trkpt lat="43.2147001" lon="11.5126095"><ele>168.0</ele><time>2026-04-26T12:31:08.047Z</time></trkpt><trkpt lat="43.2147986" lon="11.5126993"><ele>168.0</ele><time>2026-04-26T12:31:09.077Z</time></trkpt><trkpt lat="43.2148914" lon="11.5127881"><ele>168.0</ele><time>2026-04-26T12:31:10.081Z</time></trkpt><trkpt lat="43.2149807" lon="11.5128761"><ele>168.0</ele><time>2026-04-26T12:31:11.067Z</time></trkpt><trkpt lat="43.2150675" lon="11.5129648"><ele>170.4</ele><time>2026-04-26T12:31:12.051Z</time></trkpt><trkpt lat="43.2151508" lon="11.5130576"><ele>172.8</ele><time>2026-04-26T12:31:13.058Z</time></trkpt><trkpt lat="43.215228" lon="11.5131539"><ele>175.2</ele><time>2026-04-26T12:31:14.034Z</time></trkpt><trkpt lat="43.215301" lon="11.5132587"><ele>177.6</ele><time>2026-04-26T12:31:15.036Z</time></trkpt><trkpt lat="43.2153653" lon="11.5133721"><ele>180.0</ele><time>2026-04-26T12:31:16.031Z</time></trkpt><trkpt lat="43.2154181" lon="11.513493"><ele>180.0</ele><time>2026-04-26T12:31:17.052Z</time></trkpt><trkpt lat="43.2154578" lon="11.513616"><ele>180.0</ele><time>2026-04-26T12:31:18.042Z</time></trkpt><trkpt lat="43.2154841" lon="11.5137367"><ele>180.0</ele><time>2026-04-26T12:31:19.047Z</time></trkpt><trkpt lat="43.2155009" lon="11.5138506"><ele>180.0</ele><time>2026-04-26T12:31:20.054Z</time></trkpt><trkpt lat="43.2155154" lon="11.5139584"><ele>180.0</ele><time>2026-04-26T12:31:21.052Z</time></trkpt><trkpt lat="43.2155335" lon="11.5140667"><ele>180.0</ele><time>2026-04-26T12:31:22.044Z</time></trkpt><trkpt lat="43.2155627" lon="11.5141883"><ele>180.5</ele><time>2026-04-26T12:31:23.046Z</time></trkpt><trkpt lat="43.2156052" lon="11.5143233"><ele>181.0</ele><time>2026-04-26T12:31:24.045Z</time></trkpt><trkpt lat="43.215657" lon="11.5144719"><ele>181.5</ele><time>2026-04-26T12:31:25.065Z</time></trkpt><trkpt lat="43.21571" lon="11.5146236"><ele>182.0</ele><time>2026-04-26T12:31:26.052Z</time></trkpt><trkpt lat="43.2157626" lon="11.5147748"><ele>180.0</ele><time>2026-04-26T12:31:27.066Z</time></trkpt><trkpt lat="43.2158158" lon="11.5149283"><ele>178.0</ele><time>2026-04-26T12:31:28.049Z</time></trkpt><trkpt lat="43.2158724" lon="11.5150927"><ele>176.0</ele><time>2026-04-26T12:31:29.059Z</time></trkpt><trkpt lat="43.2159306" lon="11.5152625"><ele>174.0</ele><time>2026-04-26T12:31:30.056Z</time></trkpt><trkpt lat="43.215994" lon="11.5154399"><ele>172.0</ele><time>2026-04-26T12:31:31.061Z</time></trkpt><trkpt lat="43.2160643" lon="11.5156191"><ele>170.0</ele><time>2026-04-26T12:31:32.057Z</time></trkpt><trkpt lat="43.2161433" lon="11.5157972"><ele>168.0</ele><time>2026-04-26T12:31:33.052Z</time></trkpt><trkpt lat="43.2162305" lon="11.5159778"><ele>168.0</ele><time>2026-04-26T12:31:34.054Z</time></trkpt><trkpt lat="43.2163185" lon="11.5161533"><ele>168.0</ele><time>2026-04-26T12:31:35.053Z</time></trkpt><trkpt lat="43.2164032" lon="11.5163172"><ele>168.0</ele><time>2026-04-26T12:31:36.057Z</time></trkpt><trkpt lat="43.2164895" lon="11.5164801"><ele>168.0</ele><time>2026-04-26T12:31:37.047Z</time></trkpt><trkpt lat="43.2165765" lon="11.5166471"><ele>168.25</ele><time>2026-04-26T12:31:38.039Z</time></trkpt><trkpt lat="43.2166615" lon="11.5168169"><ele>168.5</ele><time>2026-04-26T12:31:39.041Z</time></trkpt><trkpt lat="43.2167436" lon="11.5169869"><ele>168.75</ele><time>2026-04-26T12:31:40.036Z</time></trkpt><trkpt lat="43.2168204" lon="11.5171588"><ele>169.0</ele><time>2026-04-26T12:31:41.04Z</time></trkpt><trkpt lat="43.2168927" lon="11.5173306"><ele>169.0</ele><time>2026-04-26T12:31:42.047Z</time></trkpt><trkpt lat="43.216963" lon="11.517504"><ele>169.0</ele><time>2026-04-26T12:31:43.058Z</time></trkpt><trkpt lat="43.2170324" lon="11.5176811"><ele>169.0</ele><time>2026-04-26T12:31:44.074Z</time></trkpt><trkpt lat="43.2170994" lon="11.5178561"><ele>169.0</ele><time>2026-04-26T12:31:45.063Z</time></trkpt><trkpt lat="43.2171655" lon="11.5180321"><ele>169.0</ele><time>2026-04-26T12:31:46.067Z</time></trkpt><trkpt lat="43.2172307" lon="11.5182043"><ele>169.0</ele><time>2026-04-26T12:31:47.05Z</time></trkpt><trkpt lat="43.2172927" lon="11.5183678"><ele>169.0</ele><time>2026-04-26T12:31:48.057Z</time></trkpt><trkpt lat="43.2173473" lon="11.5185208"><ele>169.0</ele><time>2026-04-26T12:31:49.061Z</time></trkpt><trkpt lat="43.2173955" lon="11.5186838"><ele>170.25</ele><time>2026-04-26T12:31:50.046Z</time></trkpt><trkpt lat="43.2174373" lon="11.5188617"><ele>171.5</ele><time>2026-04-26T12:31:51.048Z</time></trkpt><trkpt lat="43.2174672" lon="11.519043"><ele>172.75</ele><time>2026-04-26T12:31:52.052Z</time></trkpt><trkpt lat="43.2174784" lon="11.5192308"><ele>174.0</ele><time>2026-04-26T12:31:53.05Z</time></trkpt><trkpt lat="43.2174703" lon="11.5194254"><ele>175.5</ele><time>2026-04-26T12:31:54.056Z</time></trkpt><trkpt lat="43.2174536" lon="11.5196195"><ele>177.0</ele><time>2026-04-26T12:31:55.049Z</time></trkpt><trkpt lat="43.2174374" lon="11.5198139"><ele>178.5</ele><time>2026-04-26T12:31:56.05Z</time></trkpt><trkpt lat="43.2174256" lon="11.520009"><ele>180.0</ele><time>2026-04-26T12:31:57.051Z</time></trkpt><trkpt lat="43.2174155" lon="11.5202065"><ele>180.0</ele><time>2026-04-26T12:31:58.065Z</time></trkpt><trkpt lat="43.2174066" lon="11.5203925"><ele>180.0</ele><time>2026-04-26T12:31:59.056Z</time></trkpt><trkpt lat="43.2173996" lon="11.5205523"><ele>180.0</ele><time>2026-04-26T12:32:00.052Z</time></trkpt><trkpt lat="43.2173999" lon="11.5206848"><ele>180.0</ele><time>2026-04-26T12:32:01.059Z</time></trkpt><trkpt lat="43.2174094" lon="11.5208006"><ele>180.0</ele><time>2026-04-26T12:32:02.053Z</time></trkpt><trkpt lat="43.2174306" lon="11.520913"><ele>179.8</ele><time>2026-04-26T12:32:03.048Z</time></trkpt><trkpt lat="43.2174691" lon="11.5210249"><ele>179.6</ele><time>2026-04-26T12:32:04.039Z</time></trkpt><trkpt lat="43.2175253" lon="11.5211389"><ele>179.39999999999998</ele><time>2026-04-26T12:32:05.05Z</time></trkpt><trkpt lat="43.217593" lon="11.5212446"><ele>179.2</ele><time>2026-04-26T12:32:06.037Z</time></trkpt><trkpt lat="43.2176719" lon="11.5213391"><ele>179.0</ele><time>2026-04-26T12:32:07.048Z</time></trkpt><trkpt lat="43.2177643" lon="11.5214201"><ele>179.0</ele><time>2026-04-26T12:32:08.049Z</time></trkpt><trkpt lat="43.21787" lon="11.5214893"><ele>179.0</ele><time>2026-04-26T12:32:09.071Z</time></trkpt><trkpt lat="43.2179712" lon="11.5215504"><ele>179.0</ele><time>2026-04-26T12:32:10.048Z</time></trkpt><trkpt lat="43.2180568" lon="11.5216178"><ele>179.0</ele><time>2026-04-26T12:32:11.053Z</time></trkpt><trkpt lat="43.2181167" lon="11.5217016"><ele>179.0</ele><time>2026-04-26T12:32:12.063Z</time></trkpt><trkpt lat="43.2181522" lon="11.5218017"><ele>179.2</ele><time>2026-04-26T12:32:13.043Z</time></trkpt><trkpt lat="43.2181707" lon="11.5219246"><ele>179.39999999999998</ele><time>2026-04-26T12:32:14.049Z</time></trkpt><trkpt lat="43.218181" lon="11.5220695"><ele>179.6</ele><time>2026-04-26T12:32:15.058Z</time></trkpt><trkpt lat="43.2181994" lon="11.5222248"><ele>179.8</ele><time>2026-04-26T12:32:16.056Z</time></trkpt><trkpt lat="43.2182317" lon="11.5223775"><ele>180.0</ele><time>2026-04-26T12:32:17.067Z</time></trkpt><trkpt lat="43.2182739" lon="11.522526"><ele>180.0</ele><time>2026-04-26T12:32:18.051Z</time></trkpt><trkpt lat="43.2183215" lon="11.5226837"><ele>180.0</ele><time>2026-04-26T12:32:19.06Z</time></trkpt><trkpt lat="43.2183691" lon="11.5228395"><ele>180.0</ele><time>2026-04-26T12:32:20.063Z</time></trkpt><trkpt lat="43.2184195" lon="11.5229867"><ele>180.0</ele><time>2026-04-26T12:32:21.064Z</time></trkpt><trkpt lat="43.2184744" lon="11.5231257"><ele>178.0</ele><time>2026-04-26T12:32:22.049Z</time></trkpt><trkpt lat="43.2185364" lon="11.5232647"><ele>176.0</ele><time>2026-04-26T12:32:23.067Z</time></trkpt><trkpt lat="43.2186064" lon="11.523406"><ele>174.0</ele><time>2026-04-26T12:32:24.049Z</time></trkpt><trkpt lat="43.2186871" lon="11.5235575"><ele>172.0</ele><time>2026-04-26T12:32:25.053Z</time></trkpt><trkpt lat="43.2187769" lon="11.5237176"><ele>172.0</ele><time>2026-04-26T12:32:26.045Z</time></trkpt><trkpt lat="43.2188744" lon="11.5238865"><ele>172.0</ele><time>2026-04-26T12:32:27.057Z</time></trkpt><trkpt lat="43.2189745" lon="11.5240555"><ele>172.0</ele><time>2026-04-26T12:32:28.04Z</time></trkpt><trkpt lat="43.2190757" lon="11.5242237"><ele>172.0</ele><time>2026-04-26T12:32:29.044Z</time></trkpt><trkpt lat="43.2191706" lon="11.5243817"><ele>172.0</ele><time>2026-04-26T12:32:30.034Z</time></trkpt><trkpt lat="43.2192598" lon="11.5245312"><ele>172.0</ele><time>2026-04-26T12:32:31.055Z</time></trkpt><trkpt lat="43.2193425" lon="11.5246657"><ele>172.0</ele><time>2026-04-26T12:32:32.044Z</time></trkpt><trkpt lat="43.2194215" lon="11.5247841"><ele>172.2</ele><time>2026-04-26T12:32:33.054Z</time></trkpt><trkpt lat="43.2194978" lon="11.5248776"><ele>172.39999999999998</ele><time>2026-04-26T12:32:34.056Z</time></trkpt><trkpt lat="43.2195741" lon="11.5249444"><ele>172.60000000000002</ele><time>2026-04-26T12:32:35.048Z</time></trkpt><trkpt lat="43.2196535" lon="11.5249906"><ele>172.8</ele><time>2026-04-26T12:32:36.053Z</time></trkpt><trkpt lat="43.2197373" lon="11.5250148"><ele>173.0</ele><time>2026-04-26T12:32:37.06Z</time></trkpt><trkpt lat="43.2198283" lon="11.5250129"><ele>173.0</ele><time>2026-04-26T12:32:38.067Z</time></trkpt><trkpt lat="43.2199307" lon="11.5249898"><ele>173.0</ele><time>2026-04-26T12:32:39.074Z</time></trkpt><trkpt lat="43.2200424" lon="11.5249511"><ele>173.0</ele><time>2026-04-26T12:32:40.054Z</time></trkpt><trkpt lat="43.2201612" lon="11.5249009"><ele>173.0</ele><time>2026-04-26T12:32:41.068Z</time></trkpt><trkpt lat="43.2202768" lon="11.5248589"><ele>173.0</ele><time>2026-04-26T12:32:42.05Z</time></trkpt><trkpt lat="43.220389" lon="11.5248486"><ele>173.0</ele><time>2026-04-26T12:32:43.069Z</time></trkpt><trkpt lat="43.2205011" lon="11.5248788"><ele>173.0</ele><time>2026-04-26T12:32:44.05Z</time></trkpt><trkpt lat="43.2206153" lon="11.5249454"><ele>173.0</ele><time>2026-04-26T12:32:45.061Z</time></trkpt><trkpt lat="43.220721" lon="11.5250323"><ele>174.25</ele><time>2026-04-26T12:32:46.064Z</time></trkpt><trkpt lat="43.2208153" lon="11.5251182"><ele>175.5</ele><time>2026-04-26T12:32:47.052Z</time></trkpt><trkpt lat="43.2209104" lon="11.5251874"><ele>176.75</ele><time>2026-04-26T12:32:48.056Z</time></trkpt><trkpt lat="43.2210162" lon="11.5252355"><ele>178.0</ele><time>2026-04-26T12:32:49.06Z</time></trkpt><trkpt lat="43.2211364" lon="11.5252686"><ele>178.0</ele><time>2026-04-26T12:32:50.042Z</time></trkpt><trkpt lat="43.2212712" lon="11.5252965"><ele>178.0</ele><time>2026-04-26T12:32:51.063Z</time></trkpt><trkpt lat="43.2214091" lon="11.5253222"><ele>178.0</ele><time>2026-04-26T12:32:52.042Z</time></trkpt><trkpt lat="43.2215574" lon="11.5253477"><ele>178.0</ele><time>2026-04-26T12:32:53.042Z</time></trkpt><trkpt lat="43.2217164" lon="11.5253738"><ele>175.66666666666669</ele><time>2026-04-26T12:32:54.05Z</time></trkpt><trkpt lat="43.2218771" lon="11.525398"><ele>173.33333333333334</ele><time>2026-04-26T12:32:55.065Z</time></trkpt><trkpt lat="43.222028" lon="11.5254216"><ele>171.0</ele><time>2026-04-26T12:32:56.051Z</time></trkpt><trkpt lat="43.2221714" lon="11.5254455"><ele>171.0</ele><time>2026-04-26T12:32:57.069Z</time></trkpt><trkpt lat="43.2223019" lon="11.5254666"><ele>171.0</ele><time>2026-04-26T12:32:58.06Z</time></trkpt><trkpt lat="43.222425" lon="11.5254783"><ele>171.0</ele><time>2026-04-26T12:32:59.062Z</time></trkpt><trkpt lat="43.2225433" lon="11.5254851"><ele>171.0</ele><time>2026-04-26T12:33:00.069Z</time></trkpt><trkpt lat="43.2226558" lon="11.5255071"><ele>170.5</ele><time>2026-04-26T12:33:01.049Z</time></trkpt><trkpt lat="43.2227655" lon="11.5255583"><ele>170.0</ele><time>2026-04-26T12:33:02.037Z</time></trkpt><trkpt lat="43.2228698" lon="11.5256442"><ele>169.5</ele><time>2026-04-26T12:33:03.06Z</time></trkpt><trkpt lat="43.2229643" lon="11.5257509"><ele>169.0</ele><time>2026-04-26T12:33:04.058Z</time></trkpt><trkpt lat="43.2230549" lon="11.5258439"><ele>169.0</ele><time>2026-04-26T12:33:05.059Z</time></trkpt><trkpt lat="43.2231434" lon="11.5259076"><ele>169.0</ele><time>2026-04-26T12:33:06.069Z</time></trkpt><trkpt lat="43.2232308" lon="11.5259489"><ele>169.0</ele><time>2026-04-26T12:33:07.074Z</time></trkpt><trkpt lat="43.2233145" lon="11.5259718"><ele>169.0</ele><time>2026-04-26T12:33:08.053Z</time></trkpt><trkpt lat="43.2234005" lon="11.5259765"><ele>169.0</ele><time>2026-04-26T12:33:09.064Z</time></trkpt><trkpt lat="43.2234984" lon="11.5259705"><ele>170.39999999999998</ele><time>2026-04-26T12:33:10.075Z</time></trkpt><trkpt lat="43.2236084" lon="11.5259645"><ele>171.8</ele><time>2026-04-26T12:33:11.076Z</time></trkpt><trkpt lat="43.2237185" lon="11.5259633"><ele>173.2</ele><time>2026-04-26T12:33:12.062Z</time></trkpt><trkpt lat="43.2238202" lon="11.5259615"><ele>174.60000000000002</ele><time>2026-04-26T12:33:13.074Z</time></trkpt><trkpt lat="43.2239139" lon="11.5259556"><ele>176.0</ele><time>2026-04-26T12:33:14.053Z</time></trkpt><trkpt lat="43.2240106" lon="11.5259403"><ele>176.25</ele><time>2026-04-26T12:33:15.058Z</time></trkpt><trkpt lat="43.224116" lon="11.5259178"><ele>176.5</ele><time>2026-04-26T12:33:16.047Z</time></trkpt><trkpt lat="43.2242329" lon="11.525904"><ele>176.75</ele><time>2026-04-26T12:33:17.06Z</time></trkpt><trkpt lat="43.2243546" lon="11.5259094"><ele>177.0</ele><time>2026-04-26T12:33:18.041Z</time></trkpt><trkpt lat="43.2244849" lon="11.5259356"><ele>177.0</ele><time>2026-04-26T12:33:19.061Z</time></trkpt><trkpt lat="43.2246181" lon="11.5259736"><ele>177.0</ele><time>2026-04-26T12:33:20.044Z</time></trkpt><trkpt lat="43.2247569" lon="11.5260153"><ele>177.0</ele><time>2026-04-26T12:33:21.073Z</time></trkpt><trkpt lat="43.2248951" lon="11.5260545"><ele>177.0</ele><time>2026-04-26T12:33:22.067Z</time></trkpt><trkpt lat="43.225036" lon="11.526092"><ele>177.75</ele><time>2026-04-26T12:33:23.064Z</time></trkpt><trkpt lat="43.2251799" lon="11.5261282"><ele>178.5</ele><time>2026-04-26T12:33:24.053Z</time></trkpt><trkpt lat="43.2253258" lon="11.5261671"><ele>179.25</ele><time>2026-04-26T12:33:25.078Z</time></trkpt><trkpt lat="43.2254677" lon="11.5262093"><ele>180.0</ele><time>2026-04-26T12:33:26.058Z</time></trkpt><trkpt lat="43.2256094" lon="11.5262564"><ele>178.75</ele><time>2026-04-26T12:33:27.064Z</time></trkpt><trkpt lat="43.2257387" lon="11.5263063"><ele>177.5</ele><time>2026-04-26T12:33:28.057Z</time></trkpt><trkpt lat="43.2258485" lon="11.5263533"><ele>176.25</ele><time>2026-04-26T12:33:29.055Z</time></trkpt><trkpt lat="43.2259469" lon="11.5263881"><ele>175.0</ele><time>2026-04-26T12:33:30.046Z</time></trkpt><trkpt lat="43.2260481" lon="11.5264033"><ele>175.0</ele><time>2026-04-26T12:33:31.052Z</time></trkpt><trkpt lat="43.2261571" lon="11.5264049"><ele>175.0</ele><time>2026-04-26T12:33:32.048Z</time></trkpt><trkpt lat="43.2262783" lon="11.5264036"><ele>175.0</ele><time>2026-04-26T12:33:33.052Z</time></trkpt><trkpt lat="43.2264088" lon="11.5264008"><ele>175.0</ele><time>2026-04-26T12:33:34.042Z</time></trkpt><trkpt lat="43.226538" lon="11.5263967"><ele>175.4</ele><time>2026-04-26T12:33:35.047Z</time></trkpt><trkpt lat="43.2266599" lon="11.5263944"><ele>175.8</ele><time>2026-04-26T12:33:36.049Z</time></trkpt><trkpt lat="43.2267762" lon="11.5263912"><ele>176.2</ele><time>2026-04-26T12:33:37.048Z</time></trkpt><trkpt lat="43.2268826" lon="11.5263876"><ele>176.6</ele><time>2026-04-26T12:33:38.039Z</time></trkpt><trkpt lat="43.2269814" lon="11.5263891"><ele>177.0</ele><time>2026-04-26T12:33:39.043Z</time></trkpt><trkpt lat="43.2270753" lon="11.5264019"><ele>177.0</ele><time>2026-04-26T12:33:40.044Z</time></trkpt><trkpt lat="43.2271611" lon="11.5264275"><ele>177.0</ele><time>2026-04-26T12:33:41.028Z</time></trkpt><trkpt lat="43.2272374" lon="11.5264654"><ele>177.0</ele><time>2026-04-26T12:33:42.034Z</time></trkpt><trkpt lat="43.2273087" lon="11.52652"><ele>177.0</ele><time>2026-04-26T12:33:43.051Z</time></trkpt><trkpt lat="43.2273827" lon="11.526589"><ele>177.0</ele><time>2026-04-26T12:33:44.034Z</time></trkpt><trkpt lat="43.2274667" lon="11.5266728"><ele>177.0</ele><time>2026-04-26T12:33:45.051Z</time></trkpt><trkpt lat="43.2275583" lon="11.5267693"><ele>176.0</ele><time>2026-04-26T12:33:46.058Z</time></trkpt><trkpt lat="43.2276588" lon="11.5268773"><ele>175.0</ele><time>2026-04-26T12:33:47.063Z</time></trkpt><trkpt lat="43.2277655" lon="11.5269862"><ele>174.0</ele><time>2026-04-26T12:33:48.04Z</time></trkpt><trkpt lat="43.2278727" lon="11.5270883"><ele>173.0</ele><time>2026-04-26T12:33:49.051Z</time></trkpt><trkpt lat="43.2279824" lon="11.5271739"><ele>172.75</ele><time>2026-04-26T12:33:50.058Z</time></trkpt><trkpt lat="43.2281042" lon="11.5272449"><ele>172.5</ele><time>2026-04-26T12:33:51.083Z</time></trkpt><trkpt lat="43.2282313" lon="11.5273058"><ele>172.25</ele><time>2026-04-26T12:33:52.057Z</time></trkpt><trkpt lat="43.2283602" lon="11.5273649"><ele>172.0</ele><time>2026-04-26T12:33:53.053Z</time></trkpt><trkpt lat="43.2284813" lon="11.5274215"><ele>171.0</ele><time>2026-04-26T12:33:54.049Z</time></trkpt><trkpt lat="43.2285986" lon="11.5274847"><ele>170.0</ele><time>2026-04-26T12:33:55.077Z</time></trkpt><trkpt lat="43.228713" lon="11.5275701"><ele>169.0</ele><time>2026-04-26T12:33:56.046Z</time></trkpt><trkpt lat="43.228829" lon="11.5276874"><ele>168.0</ele><time>2026-04-26T12:33:57.053Z</time></trkpt><trkpt lat="43.2289455" lon="11.5278206"><ele>170.0</ele><time>2026-04-26T12:33:58.059Z</time></trkpt><trkpt lat="43.229062" lon="11.5279575"><ele>172.0</ele><time>2026-04-26T12:33:59.053Z</time></trkpt><trkpt lat="43.2291769" lon="11.528098"><ele>174.0</ele><time>2026-04-26T12:34:00.062Z</time></trkpt><trkpt lat="43.2292855" lon="11.5282313"><ele>174.0</ele><time>2026-04-26T12:34:01.054Z</time></trkpt><trkpt lat="43.229383" lon="11.5283523"><ele>174.0</ele><time>2026-04-26T12:34:02.06Z</time></trkpt><trkpt lat="43.2294716" lon="11.5284564"><ele>174.0</ele><time>2026-04-26T12:34:03.043Z</time></trkpt><trkpt lat="43.2295579" lon="11.5285508"><ele>174.0</ele><time>2026-04-26T12:34:04.049Z</time></trkpt><trkpt lat="43.2296373" lon="11.5286331"><ele>174.0</ele><time>2026-04-26T12:34:05.038Z</time></trkpt><trkpt lat="43.2297095" lon="11.5287017"><ele>174.0</ele><time>2026-04-26T12:34:06.047Z</time></trkpt><trkpt lat="43.2297746" lon="11.5287548"><ele>174.0</ele><time>2026-04-26T12:34:07.039Z</time></trkpt><trkpt lat="43.2298355" lon="11.5287922"><ele>174.0</ele><time>2026-04-26T12:34:08.046Z</time></trkpt><trkpt lat="43.2298962" lon="11.5288295"><ele>174.0</ele><time>2026-04-26T12:34:09.065Z</time></trkpt><trkpt lat="43.2299596" lon="11.5288863"><ele>174.0</ele><time>2026-04-26T12:34:10.064Z</time></trkpt><trkpt lat="43.2300276" lon="11.5289669"><ele>174.5</ele><time>2026-04-26T12:34:11.061Z</time></trkpt><trkpt lat="43.2301019" lon="11.5290669"><ele>175.0</ele><time>2026-04-26T12:34:12.069Z</time></trkpt><trkpt lat="43.2301842" lon="11.529181"><ele>175.5</ele><time>2026-04-26T12:34:13.079Z</time></trkpt><trkpt lat="43.2302723" lon="11.5293072"><ele>176.0</ele><time>2026-04-26T12:34:14.063Z</time></trkpt><trkpt lat="43.2303678" lon="11.5294453"><ele>174.66666666666666</ele><time>2026-04-26T12:34:15.079Z</time></trkpt><trkpt lat="43.2304702" lon="11.5295891"><ele>173.33333333333334</ele><time>2026-04-26T12:34:16.069Z</time></trkpt><trkpt lat="43.2305813" lon="11.5297395"><ele>172.0</ele><time>2026-04-26T12:34:17.077Z</time></trkpt><trkpt lat="43.230697" lon="11.5298933"><ele>172.0</ele><time>2026-04-26T12:34:18.061Z</time></trkpt><trkpt lat="43.2308181" lon="11.5300536"><ele>172.0</ele><time>2026-04-26T12:34:19.084Z</time></trkpt><trkpt lat="43.2309382" lon="11.5302107"><ele>172.0</ele><time>2026-04-26T12:34:20.079Z</time></trkpt><trkpt lat="43.2310526" lon="11.5303644"><ele>171.25</ele><time>2026-04-26T12:34:21.076Z</time></trkpt><trkpt lat="43.2311553" lon="11.5305156"><ele>170.5</ele><time>2026-04-26T12:34:22.065Z</time></trkpt><trkpt lat="43.2312454" lon="11.5306714"><ele>169.75</ele><time>2026-04-26T12:34:23.065Z</time></trkpt><trkpt lat="43.2313215" lon="11.5308398"><ele>169.0</ele><time>2026-04-26T12:34:24.049Z</time></trkpt><trkpt lat="43.2313839" lon="11.5310283"><ele>169.0</ele><time>2026-04-26T12:34:25.044Z</time></trkpt><trkpt lat="43.2314371" lon="11.5312337"><ele>169.0</ele><time>2026-04-26T12:34:26.05Z</time></trkpt><trkpt lat="43.2314842" lon="11.5314451"><ele>169.0</ele><time>2026-04-26T12:34:27.055Z</time></trkpt><trkpt lat="43.2315267" lon="11.531654"><ele>169.33333333333334</ele><time>2026-04-26T12:34:28.042Z</time></trkpt><trkpt lat="43.231569" lon="11.5318676"><ele>169.66666666666666</ele><time>2026-04-26T12:34:29.049Z</time></trkpt><trkpt lat="43.2316132" lon="11.5320868"><ele>170.0</ele><time>2026-04-26T12:34:30.054Z</time></trkpt><trkpt lat="43.23166" lon="11.5323172"><ele>170.0</ele><time>2026-04-26T12:34:31.042Z</time></trkpt><trkpt lat="43.2317099" lon="11.5325649"><ele>170.0</ele><time>2026-04-26T12:34:32.056Z</time></trkpt><trkpt lat="43.2317607" lon="11.5328184"><ele>170.0</ele><time>2026-04-26T12:34:33.063Z</time></trkpt><trkpt lat="43.2318111" lon="11.5330702"><ele>170.0</ele><time>2026-04-26T12:34:34.064Z</time></trkpt><trkpt lat="43.2318587" lon="11.5333121"><ele>170.0</ele><time>2026-04-26T12:34:35.076Z</time></trkpt><trkpt lat="43.2319015" lon="11.5335367"><ele>170.0</ele><time>2026-04-26T12:34:36.062Z</time></trkpt><trkpt lat="43.2319481" lon="11.5337487"><ele>169.33333333333331</ele><time>2026-04-26T12:34:37.082Z</time></trkpt><trkpt lat="43.2320121" lon="11.5339433"><ele>168.66666666666666</ele><time>2026-04-26T12:34:38.065Z</time></trkpt><trkpt lat="43.2321075" lon="11.534126"><ele>168.0</ele><time>2026-04-26T12:34:39.068Z</time></trkpt><trkpt lat="43.2322341" lon="11.5342909"><ele>168.66666666666666</ele><time>2026-04-26T12:34:40.069Z</time></trkpt><trkpt lat="43.2323855" lon="11.5344384"><ele>169.33333333333331</ele><time>2026-04-26T12:34:41.074Z</time></trkpt><trkpt lat="43.2325506" lon="11.5345733"><ele>170.0</ele><time>2026-04-26T12:34:42.053Z</time></trkpt><trkpt lat="43.2327254" lon="11.5347074"><ele>170.0</ele><time>2026-04-26T12:34:43.075Z</time></trkpt><trkpt lat="43.2328974" lon="11.5348371"><ele>170.0</ele><time>2026-04-26T12:34:44.06Z</time></trkpt><trkpt lat="43.2330688" lon="11.5349657"><ele>170.0</ele><time>2026-04-26T12:34:45.069Z</time></trkpt><trkpt lat="43.2332363" lon="11.5350959"><ele>169.66666666666666</ele><time>2026-04-26T12:34:46.074Z</time></trkpt><trkpt lat="43.2333989" lon="11.5352329"><ele>169.33333333333334</ele><time>2026-04-26T12:34:47.061Z</time></trkpt><trkpt lat="43.2335502" lon="11.5353964"><ele>169.0</ele><time>2026-04-26T12:34:48.069Z</time></trkpt><trkpt lat="43.2336822" lon="11.5355902"><ele>169.0</ele><time>2026-04-26T12:34:49.076Z</time></trkpt><trkpt lat="43.2338011" lon="11.5358062"><ele>169.0</ele><time>2026-04-26T12:34:50.084Z</time></trkpt><trkpt lat="43.2339161" lon="11.5360306"><ele>169.0</ele><time>2026-04-26T12:34:51.073Z</time></trkpt><trkpt lat="43.2340347" lon="11.5362591"><ele>170.0</ele><time>2026-04-26T12:34:52.072Z</time></trkpt><trkpt lat="43.2341562" lon="11.5364868"><ele>171.0</ele><time>2026-04-26T12:34:53.064Z</time></trkpt><trkpt lat="43.2342814" lon="11.5367134"><ele>172.0</ele><time>2026-04-26T12:34:54.057Z</time></trkpt><trkpt lat="43.2344096" lon="11.5369413"><ele>172.0</ele><time>2026-04-26T12:34:55.065Z</time></trkpt><trkpt lat="43.2345382" lon="11.5371738"><ele>172.0</ele><time>2026-04-26T12:34:56.045Z</time></trkpt><trkpt lat="43.2346706" lon="11.5374197"><ele>172.0</ele><time>2026-04-26T12:34:57.055Z</time></trkpt><trkpt lat="43.2348031" lon="11.5376674"><ele>172.66666666666669</ele><time>2026-04-26T12:34:58.065Z</time></trkpt><trkpt lat="43.2349357" lon="11.5379155"><ele>173.33333333333334</ele><time>2026-04-26T12:34:59.067Z</time></trkpt><trkpt lat="43.2350684" lon="11.5381632"><ele>174.0</ele><time>2026-04-26T12:35:00.062Z</time></trkpt><trkpt lat="43.2352016" lon="11.5384095"><ele>174.0</ele><time>2026-04-26T12:35:01.066Z</time></trkpt><trkpt lat="43.2353304" lon="11.5386456"><ele>174.0</ele><time>2026-04-26T12:35:02.056Z</time></trkpt><trkpt lat="43.2354541" lon="11.5388718"><ele>174.0</ele><time>2026-04-26T12:35:03.077Z</time></trkpt><trkpt lat="43.2355694" lon="11.5390836"><ele>174.33333333333334</ele><time>2026-04-26T12:35:04.065Z</time></trkpt><trkpt lat="43.2356798" lon="11.5392878"><ele>174.66666666666669</ele><time>2026-04-26T12:35:05.071Z</time></trkpt><trkpt lat="43.235778" lon="11.5394864"><ele>175.0</ele><time>2026-04-26T12:35:06.056Z</time></trkpt><trkpt lat="43.2358508" lon="11.5397001"><ele>175.0</ele><time>2026-04-26T12:35:07.065Z</time></trkpt><trkpt lat="43.2358883" lon="11.5399368"><ele>175.0</ele><time>2026-04-26T12:35:08.055Z</time></trkpt><trkpt lat="43.2358956" lon="11.5401946"><ele>175.0</ele><time>2026-04-26T12:35:09.06Z</time></trkpt><trkpt lat="43.2358808" lon="11.5404643"><ele>175.0</ele><time>2026-04-26T12:35:10.071Z</time></trkpt><trkpt lat="43.2358599" lon="11.5407434"><ele>175.0</ele><time>2026-04-26T12:35:11.063Z</time></trkpt><trkpt lat="43.2358421" lon="11.5410307"><ele>175.0</ele><time>2026-04-26T12:35:12.067Z</time></trkpt><trkpt lat="43.2358303" lon="11.5413208"><ele>176.33333333333334</ele><time>2026-04-26T12:35:13.072Z</time></trkpt><trkpt lat="43.23582" lon="11.5416117"><ele>177.66666666666666</ele><time>2026-04-26T12:35:14.055Z</time></trkpt><trkpt lat="43.2358068" lon="11.5419096"><ele>179.0</ele><time>2026-04-26T12:35:15.078Z</time></trkpt><trkpt lat="43.2357932" lon="11.5422046"><ele>179.0</ele><time>2026-04-26T12:35:16.054Z</time></trkpt><trkpt lat="43.2357793" lon="11.5425066"><ele>179.0</ele><time>2026-04-26T12:35:17.057Z</time></trkpt><trkpt lat="43.235766" lon="11.5428036"><ele>179.0</ele><time>2026-04-26T12:35:18.042Z</time></trkpt><trkpt lat="43.2357544" lon="11.543094"><ele>178.66666666666666</ele><time>2026-04-26T12:35:19.054Z</time></trkpt><trkpt lat="43.2357453" lon="11.543366"><ele>178.33333333333334</ele><time>2026-04-26T12:35:20.035Z</time></trkpt><trkpt lat="43.2357378" lon="11.543632"><ele>178.0</ele><time>2026-04-26T12:35:21.065Z</time></trkpt><trkpt lat="43.2357294" lon="11.5438958"><ele>177.66666666666669</ele><time>2026-04-26T12:35:22.05Z</time></trkpt><trkpt lat="43.2357168" lon="11.5441646"><ele>177.33333333333334</ele><time>2026-04-26T12:35:23.053Z</time></trkpt><trkpt lat="43.235707" lon="11.5444184"><ele>177.0</ele><time>2026-04-26T12:35:24.057Z</time></trkpt><trkpt lat="43.2357044" lon="11.5446587"><ele>176.66666666666666</ele><time>2026-04-26T12:35:25.065Z</time></trkpt><trkpt lat="43.2357154" lon="11.5448924"><ele>176.33333333333331</ele><time>2026-04-26T12:35:26.057Z</time></trkpt><trkpt lat="43.2357456" lon="11.545133"><ele>176.0</ele><time>2026-04-26T12:35:27.078Z</time></trkpt><trkpt lat="43.2357991" lon="11.5453742"><ele>176.0</ele><time>2026-04-26T12:35:28.069Z</time></trkpt><trkpt lat="43.2358736" lon="11.5456183"><ele>176.0</ele><time>2026-04-26T12:35:29.056Z</time></trkpt><trkpt lat="43.2359602" lon="11.5458616"><ele>176.0</ele><time>2026-04-26T12:35:30.057Z</time></trkpt><trkpt lat="43.2360555" lon="11.5460925"><ele>175.0</ele><time>2026-04-26T12:35:31.069Z</time></trkpt><trkpt lat="43.2361626" lon="11.5463083"><ele>174.0</ele><time>2026-04-26T12:35:32.071Z</time></trkpt><trkpt lat="43.236285" lon="11.5465119"><ele>173.0</ele><time>2026-04-26T12:35:33.071Z</time></trkpt><trkpt lat="43.2364175" lon="11.5467099"><ele>173.33333333333331</ele><time>2026-04-26T12:35:34.08Z</time></trkpt><trkpt lat="43.2365545" lon="11.5469051"><ele>173.66666666666666</ele><time>2026-04-26T12:35:35.064Z</time></trkpt><trkpt lat="43.236699" lon="11.5471024"><ele>174.0</ele><time>2026-04-26T12:35:36.07Z</time></trkpt><trkpt lat="43.2368494" lon="11.5472938"><ele>174.0</ele><time>2026-04-26T12:35:37.085Z</time></trkpt><trkpt lat="43.2370024" lon="11.5474758"><ele>174.0</ele><time>2026-04-26T12:35:38.06Z</time></trkpt><trkpt lat="43.2371612" lon="11.5476561"><ele>174.0</ele><time>2026-04-26T12:35:39.075Z</time></trkpt><trkpt lat="43.2373181" lon="11.5478323"><ele>174.66666666666666</ele><time>2026-04-26T12:35:40.064Z</time></trkpt><trkpt lat="43.2374745" lon="11.5480089"><ele>175.33333333333331</ele><time>2026-04-26T12:35:41.055Z</time></trkpt><trkpt lat="43.2376305" lon="11.5481847"><ele>176.0</ele><time>2026-04-26T12:35:42.058Z</time></trkpt><trkpt lat="43.2377873" lon="11.5483573"><ele>176.0</ele><time>2026-04-26T12:35:43.063Z</time></trkpt><trkpt lat="43.2379466" lon="11.5485224"><ele>176.0</ele><time>2026-04-26T12:35:44.051Z</time></trkpt><trkpt lat="43.2381114" lon="11.5486808"><ele>176.0</ele><time>2026-04-26T12:35:45.06Z</time></trkpt><trkpt lat="43.2382764" lon="11.54883"><ele>176.0</ele><time>2026-04-26T12:35:46.039Z</time></trkpt><trkpt lat="43.2384424" lon="11.548974"><ele>176.0</ele><time>2026-04-26T12:35:47.06Z</time></trkpt><trkpt lat="43.2386031" lon="11.5491038"><ele>176.0</ele><time>2026-04-26T12:35:48.055Z</time></trkpt><trkpt lat="43.2387606" lon="11.549225"><ele>176.0</ele><time>2026-04-26T12:35:49.068Z</time></trkpt><trkpt lat="43.2389163" lon="11.549338"><ele>176.0</ele><time>2026-04-26T12:35:50.068Z</time></trkpt><trkpt lat="43.2390707" lon="11.549452"><ele>176.0</ele><time>2026-04-26T12:35:51.071Z</time></trkpt><trkpt lat="43.2392179" lon="11.5495767"><ele>175.66666666666666</ele><time>2026-04-26T12:35:52.07Z</time></trkpt><trkpt lat="43.2393577" lon="11.5497229"><ele>175.33333333333334</ele><time>2026-04-26T12:35:53.082Z</time></trkpt><trkpt lat="43.2394909" lon="11.5498906"><ele>175.0</ele><time>2026-04-26T12:35:54.065Z</time></trkpt><trkpt lat="43.2396235" lon="11.5500704"><ele>175.0</ele><time>2026-04-26T12:35:55.086Z</time></trkpt><trkpt lat="43.23975" lon="11.5502444"><ele>175.0</ele><time>2026-04-26T12:35:56.062Z</time></trkpt><trkpt lat="43.2398733" lon="11.5504157"><ele>175.0</ele><time>2026-04-26T12:35:57.085Z</time></trkpt><trkpt lat="43.2399906" lon="11.5505773"><ele>174.33333333333334</ele><time>2026-04-26T12:35:58.081Z</time></trkpt><trkpt lat="43.2401075" lon="11.5507351"><ele>173.66666666666666</ele><time>2026-04-26T12:35:59.072Z</time></trkpt><trkpt lat="43.2402233" lon="11.5508919"><ele>173.0</ele><time>2026-04-26T12:36:00.071Z</time></trkpt><trkpt lat="43.2403365" lon="11.5510475"><ele>173.0</ele><time>2026-04-26T12:36:01.086Z</time></trkpt><trkpt lat="43.2404443" lon="11.5511991"><ele>173.0</ele><time>2026-04-26T12:36:02.065Z</time></trkpt><trkpt lat="43.2405478" lon="11.5513457"><ele>173.0</ele><time>2026-04-26T12:36:03.068Z</time></trkpt><trkpt lat="43.2406395" lon="11.5514788"><ele>173.0</ele><time>2026-04-26T12:36:04.07Z</time></trkpt><trkpt lat="43.2407173" lon="11.5515938"><ele>174.2</ele><time>2026-04-26T12:36:05.061Z</time></trkpt><trkpt lat="43.2407813" lon="11.5516986"><ele>175.4</ele><time>2026-04-26T12:36:06.056Z</time></trkpt><trkpt lat="43.2408222" lon="11.5518074"><ele>176.6</ele><time>2026-04-26T12:36:07.045Z</time></trkpt><trkpt lat="43.2408252" lon="11.5519304"><ele>177.79999999999998</ele><time>2026-04-26T12:36:08.042Z</time></trkpt><trkpt lat="43.2407884" lon="11.5520652"><ele>179.0</ele><time>2026-04-26T12:36:09.035Z</time></trkpt><trkpt lat="43.2407252" lon="11.5522078"><ele>179.25</ele><time>2026-04-26T12:36:10.058Z</time></trkpt><trkpt lat="43.2406574" lon="11.5523518"><ele>179.5</ele><time>2026-04-26T12:36:11.057Z</time></trkpt><trkpt lat="43.2405951" lon="11.5524958"><ele>179.75</ele><time>2026-04-26T12:36:12.064Z</time></trkpt><trkpt lat="43.2405375" lon="11.5526395"><ele>180.0</ele><time>2026-04-26T12:36:13.064Z</time></trkpt><trkpt lat="43.2404783" lon="11.5527759"><ele>178.6</ele><time>2026-04-26T12:36:14.061Z</time></trkpt><trkpt lat="43.2404175" lon="11.5528855"><ele>177.2</ele><time>2026-04-26T12:36:15.075Z</time></trkpt><trkpt lat="43.2403695" lon="11.5529666"><ele>175.8</ele><time>2026-04-26T12:36:16.061Z</time></trkpt><trkpt lat="43.2403666" lon="11.5530904"><ele>174.4</ele><time>2026-04-26T12:36:18.061Z</time></trkpt><trkpt lat="43.2404662" lon="11.5531782"><ele>173.0</ele><time>2026-04-26T12:36:20.077Z</time></trkpt><trkpt lat="43.2405391" lon="11.5532259"><ele>173.0</ele><time>2026-04-26T12:36:21.059Z</time></trkpt><trkpt lat="43.2406216" lon="11.5532811"><ele>173.0</ele><time>2026-04-26T12:36:22.063Z</time></trkpt><trkpt lat="43.240711" lon="11.5533398"><ele>173.0</ele><time>2026-04-26T12:36:23.051Z</time></trkpt><trkpt lat="43.2408092" lon="11.5534033"><ele>173.0</ele><time>2026-04-26T12:36:24.055Z</time></trkpt><trkpt lat="43.2409107" lon="11.553473"><ele>173.0</ele><time>2026-04-26T12:36:25.067Z</time></trkpt><trkpt lat="43.2410093" lon="11.553549"><ele>173.0</ele><time>2026-04-26T12:36:26.057Z</time></trkpt><trkpt lat="43.2411013" lon="11.5536238"><ele>173.0</ele><time>2026-04-26T12:36:27.056Z</time></trkpt><trkpt lat="43.2411838" lon="11.5536883"><ele>173.0</ele><time>2026-04-26T12:36:28.053Z</time></trkpt><trkpt lat="43.241264" lon="11.5537454"><ele>173.0</ele><time>2026-04-26T12:36:29.048Z</time></trkpt><trkpt lat="43.2413525" lon="11.5537927"><ele>173.0</ele><time>2026-04-26T12:36:30.055Z</time></trkpt><trkpt lat="43.2414488" lon="11.5538207"><ele>174.0</ele><time>2026-04-26T12:36:31.059Z</time></trkpt><trkpt lat="43.2415529" lon="11.5538274"><ele>175.0</ele><time>2026-04-26T12:36:32.051Z</time></trkpt><trkpt lat="43.2416643" lon="11.5538259"><ele>176.0</ele><time>2026-04-26T12:36:33.053Z</time></trkpt><trkpt lat="43.2417787" lon="11.5538352"><ele>177.0</ele><time>2026-04-26T12:36:34.04Z</time></trkpt><trkpt lat="43.2418958" lon="11.5538623"><ele>178.0</ele><time>2026-04-26T12:36:35.053Z</time></trkpt><trkpt lat="43.2420092" lon="11.5539111"><ele>178.0</ele><time>2026-04-26T12:36:36.046Z</time></trkpt><trkpt lat="43.242121" lon="11.5539825"><ele>178.0</ele><time>2026-04-26T12:36:37.059Z</time></trkpt><trkpt lat="43.2422402" lon="11.5540703"><ele>178.0</ele><time>2026-04-26T12:36:38.061Z</time></trkpt><trkpt lat="43.2423636" lon="11.5541661"><ele>178.0</ele><time>2026-04-26T12:36:39.052Z</time></trkpt><trkpt lat="43.2424808" lon="11.5542583"><ele>182.0</ele><time>2026-04-26T12:36:40.056Z</time></trkpt><trkpt lat="43.2425853" lon="11.5543387"><ele>186.0</ele><time>2026-04-26T12:36:41.079Z</time></trkpt><trkpt lat="43.2426794" lon="11.5544086"><ele>190.0</ele><time>2026-04-26T12:36:42.059Z</time></trkpt><trkpt lat="43.2427822" lon="11.5544664"><ele>194.0</ele><time>2026-04-26T12:36:43.066Z</time></trkpt><trkpt lat="43.2428929" lon="11.5545079"><ele>194.0</ele><time>2026-04-26T12:36:44.061Z</time></trkpt><trkpt lat="43.2430083" lon="11.5545345"><ele>194.0</ele><time>2026-04-26T12:36:45.06Z</time></trkpt><trkpt lat="43.2431264" lon="11.5545441"><ele>194.0</ele><time>2026-04-26T12:36:46.062Z</time></trkpt><trkpt lat="43.2432506" lon="11.5545381"><ele>194.0</ele><time>2026-04-26T12:36:47.057Z</time></trkpt><trkpt lat="43.2433766" lon="11.5545206"><ele>195.2</ele><time>2026-04-26T12:36:48.052Z</time></trkpt><trkpt lat="43.2434947" lon="11.5545003"><ele>196.39999999999998</ele><time>2026-04-26T12:36:49.061Z</time></trkpt><trkpt lat="43.2436047" lon="11.5544844"><ele>197.6</ele><time>2026-04-26T12:36:50.064Z</time></trkpt><trkpt lat="43.2437114" lon="11.5544723"><ele>198.8</ele><time>2026-04-26T12:36:51.078Z</time></trkpt><trkpt lat="43.2438168" lon="11.5544592"><ele>200.0</ele><time>2026-04-26T12:36:52.06Z</time></trkpt><trkpt lat="43.2439212" lon="11.5544443"><ele>198.0</ele><time>2026-04-26T12:36:53.071Z</time></trkpt><trkpt lat="43.2440206" lon="11.5544291"><ele>196.0</ele><time>2026-04-26T12:36:54.054Z</time></trkpt><trkpt lat="43.2441181" lon="11.5544138"><ele>194.0</ele><time>2026-04-26T12:36:55.071Z</time></trkpt><trkpt lat="43.2442126" lon="11.5543986"><ele>192.0</ele><time>2026-04-26T12:36:56.053Z</time></trkpt><trkpt lat="43.2443073" lon="11.5543857"><ele>190.0</ele><time>2026-04-26T12:36:57.056Z</time></trkpt><trkpt lat="43.2444001" lon="11.5543762"><ele>190.0</ele><time>2026-04-26T12:36:58.043Z</time></trkpt><trkpt lat="43.2444927" lon="11.5543663"><ele>190.0</ele><time>2026-04-26T12:36:59.056Z</time></trkpt><trkpt lat="43.244582" lon="11.5543568"><ele>190.0</ele><time>2026-04-26T12:37:00.057Z</time></trkpt><trkpt lat="43.2446693" lon="11.5543485"><ele>190.0</ele><time>2026-04-26T12:37:01.073Z</time></trkpt><trkpt lat="43.2447522" lon="11.554342"><ele>190.0</ele><time>2026-04-26T12:37:02.059Z</time></trkpt><trkpt lat="43.2448326" lon="11.5543346"><ele>190.0</ele><time>2026-04-26T12:37:03.072Z</time></trkpt><trkpt lat="43.2449097" lon="11.5543255"><ele>189.42857142857144</ele><time>2026-04-26T12:37:04.069Z</time></trkpt><trkpt lat="43.2449846" lon="11.5543149"><ele>188.85714285714286</ele><time>2026-04-26T12:37:05.071Z</time></trkpt><trkpt lat="43.2450575" lon="11.5543037"><ele>188.28571428571428</ele><time>2026-04-26T12:37:06.063Z</time></trkpt><trkpt lat="43.2451294" lon="11.5542927"><ele>187.71428571428572</ele><time>2026-04-26T12:37:07.071Z</time></trkpt><trkpt lat="43.2451991" lon="11.554282"><ele>187.14285714285714</ele><time>2026-04-26T12:37:08.058Z</time></trkpt><trkpt lat="43.2452684" lon="11.554272"><ele>186.57142857142858</ele><time>2026-04-26T12:37:09.079Z</time></trkpt><trkpt lat="43.2453348" lon="11.5542626"><ele>186.0</ele><time>2026-04-26T12:37:10.049Z</time></trkpt><trkpt lat="43.2454006" lon="11.5542511"><ele>186.0</ele><time>2026-04-26T12:37:11.069Z</time></trkpt><trkpt lat="43.2454655" lon="11.5542383"><ele>186.0</ele><time>2026-04-26T12:37:12.071Z</time></trkpt><trkpt lat="43.2455364" lon="11.5542247"><ele>186.0</ele><time>2026-04-26T12:37:13.085Z</time></trkpt><trkpt lat="43.2456156" lon="11.5542109"><ele>186.0</ele><time>2026-04-26T12:37:14.062Z</time></trkpt><trkpt lat="43.2457042" lon="11.5541966"><ele>186.0</ele><time>2026-04-26T12:37:15.065Z</time></trkpt><trkpt lat="43.2458039" lon="11.554182"><ele>186.0</ele><time>2026-04-26T12:37:16.051Z</time></trkpt><trkpt lat="43.245919" lon="11.5541656"><ele>183.75</ele><time>2026-04-26T12:37:17.063Z</time></trkpt><trkpt lat="43.2460454" lon="11.5541479"><ele>181.5</ele><time>2026-04-26T12:37:18.052Z</time></trkpt><trkpt lat="43.2461792" lon="11.5541305"><ele>179.25</ele><time>2026-04-26T12:37:19.054Z</time></trkpt><trkpt lat="43.2463092" lon="11.5541166"><ele>177.0</ele><time>2026-04-26T12:37:20.044Z</time></trkpt><trkpt lat="43.2464363" lon="11.5541128"><ele>175.75</ele><time>2026-04-26T12:37:21.057Z</time></trkpt><trkpt lat="43.24656" lon="11.554125"><ele>174.5</ele><time>2026-04-26T12:37:22.046Z</time></trkpt><trkpt lat="43.2466821" lon="11.5541597"><ele>173.25</ele><time>2026-04-26T12:37:23.052Z</time></trkpt><trkpt lat="43.2468051" lon="11.5542176"><ele>172.0</ele><time>2026-04-26T12:37:24.061Z</time></trkpt><trkpt lat="43.2469284" lon="11.5542922"><ele>172.0</ele><time>2026-04-26T12:37:25.067Z</time></trkpt><trkpt lat="43.2470514" lon="11.5543782"><ele>172.0</ele><time>2026-04-26T12:37:26.057Z</time></trkpt><trkpt lat="43.2471753" lon="11.5544705"><ele>172.0</ele><time>2026-04-26T12:37:27.076Z</time></trkpt><trkpt lat="43.2472953" lon="11.5545613"><ele>172.0</ele><time>2026-04-26T12:37:28.061Z</time></trkpt><trkpt lat="43.2474119" lon="11.5546526"><ele>173.75</ele><time>2026-04-26T12:37:29.069Z</time></trkpt><trkpt lat="43.2475228" lon="11.554741"><ele>175.5</ele><time>2026-04-26T12:37:30.059Z</time></trkpt><trkpt lat="43.2476299" lon="11.5548221"><ele>177.25</ele><time>2026-04-26T12:37:31.065Z</time></trkpt><trkpt lat="43.2477282" lon="11.5549027"><ele>179.0</ele><time>2026-04-26T12:37:32.054Z</time></trkpt><trkpt lat="43.2478152" lon="11.5550016"><ele>179.0</ele><time>2026-04-26T12:37:33.073Z</time></trkpt><trkpt lat="43.2478854" lon="11.555119"><ele>179.0</ele><time>2026-04-26T12:37:34.06Z</time></trkpt><trkpt lat="43.2479513" lon="11.555249"><ele>179.0</ele><time>2026-04-26T12:37:35.093Z</time></trkpt><trkpt lat="43.2480254" lon="11.5553722"><ele>179.0</ele><time>2026-04-26T12:37:36.058Z</time></trkpt><trkpt lat="43.2481205" lon="11.5554956"><ele>181.66666666666666</ele><time>2026-04-26T12:37:37.078Z</time></trkpt><trkpt lat="43.2483609" lon="11.5557232"><ele>184.33333333333334</ele><time>2026-04-26T12:37:39.082Z</time></trkpt><trkpt lat="43.2484887" lon="11.5558289"><ele>187.0</ele><time>2026-04-26T12:37:40.056Z</time></trkpt><trkpt lat="43.2486041" lon="11.5559238"><ele>187.0</ele><time>2026-04-26T12:37:41.08Z</time></trkpt><trkpt lat="43.2487066" lon="11.5559989"><ele>187.0</ele><time>2026-04-26T12:37:42.06Z</time></trkpt><trkpt lat="43.2488088" lon="11.556053"><ele>187.0</ele><time>2026-04-26T12:37:43.065Z</time></trkpt><trkpt lat="43.2489161" lon="11.556081"><ele>187.0</ele><time>2026-04-26T12:37:44.051Z</time></trkpt><trkpt lat="43.2490335" lon="11.5560833"><ele>189.25</ele><time>2026-04-26T12:37:45.061Z</time></trkpt><trkpt lat="43.2491542" lon="11.5560638"><ele>191.5</ele><time>2026-04-26T12:37:46.04Z</time></trkpt><trkpt lat="43.2492824" lon="11.5560361"><ele>193.75</ele><time>2026-04-26T12:37:47.05Z</time></trkpt><trkpt lat="43.2494152" lon="11.5560105"><ele>196.0</ele><time>2026-04-26T12:37:48.052Z</time></trkpt><trkpt lat="43.2495496" lon="11.5559916"><ele>196.0</ele><time>2026-04-26T12:37:49.061Z</time></trkpt><trkpt lat="43.2496736" lon="11.5559792"><ele>196.0</ele><time>2026-04-26T12:37:50.047Z</time></trkpt><trkpt lat="43.2497799" lon="11.555974"><ele>196.0</ele><time>2026-04-26T12:37:51.062Z</time></trkpt><trkpt lat="43.2498583" lon="11.5559718"><ele>196.0</ele><time>2026-04-26T12:37:52.039Z</time></trkpt><trkpt lat="43.2499388" lon="11.5559662"><ele>196.0</ele><time>2026-04-26T12:37:54.057Z</time></trkpt><trkpt lat="43.2500027" lon="11.5559347"><ele>196.49999999999997</ele><time>2026-04-26T12:38:00.06Z</time></trkpt><trkpt lat="43.2500994" lon="11.5558738"><ele>197.0</ele><time>2026-04-26T12:38:02.059Z</time></trkpt><trkpt lat="43.2501604" lon="11.5558354"><ele>197.5</ele><time>2026-04-26T12:38:03.06Z</time></trkpt><trkpt lat="43.2502241" lon="11.5557909"><ele>198.0</ele><time>2026-04-26T12:38:04.048Z</time></trkpt><trkpt lat="43.2502891" lon="11.55574"><ele>198.49999999999997</ele><time>2026-04-26T12:38:05.045Z</time></trkpt><trkpt lat="43.2503578" lon="11.555682"><ele>199.0</ele><time>2026-04-26T12:38:06.05Z</time></trkpt><trkpt lat="43.2504256" lon="11.5556167"><ele>198.99999999999997</ele><time>2026-04-26T12:38:07.056Z</time></trkpt><trkpt lat="43.2504913" lon="11.5555481"><ele>199.0</ele><time>2026-04-26T12:38:08.043Z</time></trkpt><trkpt lat="43.2505573" lon="11.5554785"><ele>199.0</ele><time>2026-04-26T12:38:09.039Z</time></trkpt><trkpt lat="43.2506228" lon="11.5554068"><ele>199.0</ele><time>2026-04-26T12:38:10.033Z</time></trkpt><trkpt lat="43.2506864" lon="11.5553321"><ele>198.99999999999997</ele><time>2026-04-26T12:38:11.034Z</time></trkpt><trkpt lat="43.2507475" lon="11.5552557"><ele>199.0</ele><time>2026-04-26T12:38:12.042Z</time></trkpt><trkpt lat="43.2508088" lon="11.5551822"><ele>202.2</ele><time>2026-04-26T12:38:13.043Z</time></trkpt><trkpt lat="43.2508752" lon="11.5551144"><ele>205.39999999999998</ele><time>2026-04-26T12:38:14.045Z</time></trkpt><trkpt lat="43.2509485" lon="11.5550527"><ele>208.6</ele><time>2026-04-26T12:38:15.053Z</time></trkpt><trkpt lat="43.2510313" lon="11.5549949"><ele>211.8</ele><time>2026-04-26T12:38:16.046Z</time></trkpt><trkpt lat="43.2511255" lon="11.5549443"><ele>215.0</ele><time>2026-04-26T12:38:17.041Z</time></trkpt><trkpt lat="43.2512281" lon="11.5549001"><ele>215.0</ele><time>2026-04-26T12:38:18.052Z</time></trkpt><trkpt lat="43.2513355" lon="11.5548562"><ele>215.0</ele><time>2026-04-26T12:38:19.057Z</time></trkpt><trkpt lat="43.2514475" lon="11.5548139"><ele>215.0</ele><time>2026-04-26T12:38:20.055Z</time></trkpt><trkpt lat="43.2515636" lon="11.5547766"><ele>215.0</ele><time>2026-04-26T12:38:21.066Z</time></trkpt><trkpt lat="43.2516777" lon="11.5547419"><ele>214.66666666666669</ele><time>2026-04-26T12:38:22.067Z</time></trkpt><trkpt lat="43.2517888" lon="11.554707"><ele>214.33333333333334</ele><time>2026-04-26T12:38:23.054Z</time></trkpt><trkpt lat="43.2518897" lon="11.5546774"><ele>214.0</ele><time>2026-04-26T12:38:24.057Z</time></trkpt><trkpt lat="43.2519725" lon="11.5546583"><ele>213.66666666666669</ele><time>2026-04-26T12:38:25.071Z</time></trkpt><trkpt lat="43.2520398" lon="11.5546444"><ele>213.33333333333334</ele><time>2026-04-26T12:38:26.062Z</time></trkpt><trkpt lat="43.2521094" lon="11.5546384"><ele>213.0</ele><time>2026-04-26T12:38:27.064Z</time></trkpt><trkpt lat="43.2521931" lon="11.5546458"><ele>213.0</ele><time>2026-04-26T12:38:28.048Z</time></trkpt><trkpt lat="43.2522886" lon="11.5546703"><ele>213.0</ele><time>2026-04-26T12:38:29.057Z</time></trkpt><trkpt lat="43.2523934" lon="11.5547071"><ele>213.0</ele><time>2026-04-26T12:38:30.066Z</time></trkpt><trkpt lat="43.2525054" lon="11.5547409"><ele>213.0</ele><time>2026-04-26T12:38:31.054Z</time></trkpt><trkpt lat="43.2526198" lon="11.5547577"><ele>213.0</ele><time>2026-04-26T12:38:32.061Z</time></trkpt><trkpt lat="43.2527332" lon="11.5547521"><ele>213.25</ele><time>2026-04-26T12:38:33.062Z</time></trkpt><trkpt lat="43.252851" lon="11.5547307"><ele>213.5</ele><time>2026-04-26T12:38:34.063Z</time></trkpt><trkpt lat="43.2529764" lon="11.554701"><ele>213.75</ele><time>2026-04-26T12:38:35.053Z</time></trkpt><trkpt lat="43.2531066" lon="11.5546661"><ele>214.0</ele><time>2026-04-26T12:38:36.061Z</time></trkpt><trkpt lat="43.2532253" lon="11.5546189"><ele>215.6</ele><time>2026-04-26T12:38:37.051Z</time></trkpt><trkpt lat="43.2533268" lon="11.5545623"><ele>217.2</ele><time>2026-04-26T12:38:38.057Z</time></trkpt><trkpt lat="43.2534153" lon="11.5545013"><ele>218.79999999999998</ele><time>2026-04-26T12:38:39.064Z</time></trkpt><trkpt lat="43.2535031" lon="11.5544347"><ele>220.39999999999998</ele><time>2026-04-26T12:38:40.082Z</time></trkpt><trkpt lat="43.2535962" lon="11.5543662"><ele>222.0</ele><time>2026-04-26T12:38:41.063Z</time></trkpt><trkpt lat="43.253697" lon="11.5542888"><ele>224.5</ele><time>2026-04-26T12:38:42.078Z</time></trkpt><trkpt lat="43.253795" lon="11.5541936"><ele>227.0</ele><time>2026-04-26T12:38:43.082Z</time></trkpt><trkpt lat="43.2538822" lon="11.5540764"><ele>229.5</ele><time>2026-04-26T12:38:44.056Z</time></trkpt><trkpt lat="43.2539533" lon="11.5539345"><ele>232.0</ele><time>2026-04-26T12:38:45.072Z</time></trkpt><trkpt lat="43.2540001" lon="11.5537794"><ele>235.25</ele><time>2026-04-26T12:38:46.064Z</time></trkpt><trkpt lat="43.2540283" lon="11.5536148"><ele>238.5</ele><time>2026-04-26T12:38:47.076Z</time></trkpt><trkpt lat="43.2540505" lon="11.5534525"><ele>241.75</ele><time>2026-04-26T12:38:48.052Z</time></trkpt><trkpt lat="43.2540805" lon="11.5532959"><ele>245.0</ele><time>2026-04-26T12:38:49.072Z</time></trkpt><trkpt lat="43.2541234" lon="11.5531637"><ele>245.0</ele><time>2026-04-26T12:38:50.072Z</time></trkpt><trkpt lat="43.2541819" lon="11.5530658"><ele>245.0</ele><time>2026-04-26T12:38:51.062Z</time></trkpt><trkpt lat="43.2542546" lon="11.552998"><ele>245.0</ele><time>2026-04-26T12:38:52.063Z</time></trkpt><trkpt lat="43.2543378" lon="11.5529597"><ele>245.0</ele><time>2026-04-26T12:38:53.081Z</time></trkpt><trkpt lat="43.2544284" lon="11.55295"><ele>245.0</ele><time>2026-04-26T12:38:54.082Z</time></trkpt><trkpt lat="43.2545286" lon="11.5529521"><ele>245.0</ele><time>2026-04-26T12:38:55.071Z</time></trkpt><trkpt lat="43.2546336" lon="11.5529498"><ele>245.0</ele><time>2026-04-26T12:38:56.062Z</time></trkpt><trkpt lat="43.2547395" lon="11.552941"><ele>245.0</ele><time>2026-04-26T12:38:57.074Z</time></trkpt><trkpt lat="43.2548387" lon="11.5529302"><ele>245.0</ele><time>2026-04-26T12:38:58.057Z</time></trkpt><trkpt lat="43.2549299" lon="11.5529234"><ele>245.0</ele><time>2026-04-26T12:38:59.063Z</time></trkpt><trkpt lat="43.2550146" lon="11.5529188"><ele>245.50000000000003</ele><time>2026-04-26T12:39:00.048Z</time></trkpt><trkpt lat="43.2550949" lon="11.5529127"><ele>246.0</ele><time>2026-04-26T12:39:01.062Z</time></trkpt><trkpt lat="43.2551668" lon="11.5529034"><ele>246.5</ele><time>2026-04-26T12:39:02.058Z</time></trkpt><trkpt lat="43.2552363" lon="11.5528928"><ele>247.0</ele><time>2026-04-26T12:39:03.062Z</time></trkpt><trkpt lat="43.2553101" lon="11.5528892"><ele>247.50000000000003</ele><time>2026-04-26T12:39:04.055Z</time></trkpt><trkpt lat="43.2553867" lon="11.5528932"><ele>248.0</ele><time>2026-04-26T12:39:05.062Z</time></trkpt><trkpt lat="43.2554647" lon="11.5529033"><ele>248.0</ele><time>2026-04-26T12:39:06.083Z</time></trkpt><trkpt lat="43.2555472" lon="11.5529249"><ele>248.0</ele><time>2026-04-26T12:39:07.066Z</time></trkpt><trkpt lat="43.2556324" lon="11.5529608"><ele>248.0</ele><time>2026-04-26T12:39:08.064Z</time></trkpt><trkpt lat="43.2557173" lon="11.5530129"><ele>248.0</ele><time>2026-04-26T12:39:09.093Z</time></trkpt><trkpt lat="43.2558023" lon="11.5530717"><ele>248.0</ele><time>2026-04-26T12:39:10.079Z</time></trkpt><trkpt lat="43.255894" lon="11.5531336"><ele>248.8</ele><time>2026-04-26T12:39:11.077Z</time></trkpt><trkpt lat="43.2559905" lon="11.5531973"><ele>249.60000000000002</ele><time>2026-04-26T12:39:12.084Z</time></trkpt><trkpt lat="43.256086" lon="11.5532602"><ele>250.39999999999998</ele><time>2026-04-26T12:39:13.061Z</time></trkpt><trkpt lat="43.2561817" lon="11.553323"><ele>251.2</ele><time>2026-04-26T12:39:14.092Z</time></trkpt><trkpt lat="43.256276" lon="11.5533851"><ele>252.0</ele><time>2026-04-26T12:39:15.073Z</time></trkpt><trkpt lat="43.2563694" lon="11.5534467"><ele>251.8</ele><time>2026-04-26T12:39:16.074Z</time></trkpt><trkpt lat="43.2564596" lon="11.5535063"><ele>251.6</ele><time>2026-04-26T12:39:17.076Z</time></trkpt><trkpt lat="43.2565489" lon="11.5535651"><ele>251.40000000000003</ele><time>2026-04-26T12:39:18.058Z</time></trkpt><trkpt lat="43.2566406" lon="11.5536222"><ele>251.20000000000002</ele><time>2026-04-26T12:39:19.084Z</time></trkpt><trkpt lat="43.2567318" lon="11.553671"><ele>251.0</ele><time>2026-04-26T12:39:20.068Z</time></trkpt><trkpt lat="43.2568239" lon="11.5537084"><ele>251.0</ele><time>2026-04-26T12:39:21.067Z</time></trkpt><trkpt lat="43.2569177" lon="11.5537301"><ele>251.00000000000003</ele><time>2026-04-26T12:39:22.065Z</time></trkpt><trkpt lat="43.2570147" lon="11.5537327"><ele>251.00000000000003</ele><time>2026-04-26T12:39:23.05Z</time></trkpt><trkpt lat="43.2571136" lon="11.5537194"><ele>251.0</ele><time>2026-04-26T12:39:24.053Z</time></trkpt><trkpt lat="43.2572136" lon="11.553696"><ele>251.0</ele><time>2026-04-26T12:39:25.066Z</time></trkpt><trkpt lat="43.2573152" lon="11.5536654"><ele>251.25</ele><time>2026-04-26T12:39:26.049Z</time></trkpt><trkpt lat="43.2574225" lon="11.5536292"><ele>251.5</ele><time>2026-04-26T12:39:27.063Z</time></trkpt><trkpt lat="43.2575328" lon="11.5535873"><ele>251.75</ele><time>2026-04-26T12:39:28.062Z</time></trkpt><trkpt lat="43.2576462" lon="11.5535373"><ele>252.0</ele><time>2026-04-26T12:39:29.067Z</time></trkpt><trkpt lat="43.2577584" lon="11.5534773"><ele>252.0</ele><time>2026-04-26T12:39:30.073Z</time></trkpt><trkpt lat="43.2578627" lon="11.5534175"><ele>252.0</ele><time>2026-04-26T12:39:31.08Z</time></trkpt><trkpt lat="43.2579621" lon="11.5533658"><ele>252.0</ele><time>2026-04-26T12:39:32.067Z</time></trkpt><trkpt lat="43.2580678" lon="11.5533205"><ele>252.0</ele><time>2026-04-26T12:39:33.074Z</time></trkpt><trkpt lat="43.2581813" lon="11.5532835"><ele>252.0</ele><time>2026-04-26T12:39:34.082Z</time></trkpt><trkpt lat="43.2583029" lon="11.5532573"><ele>252.0</ele><time>2026-04-26T12:39:35.068Z</time></trkpt><trkpt lat="43.2584252" lon="11.5532343"><ele>252.0</ele><time>2026-04-26T12:39:36.063Z</time></trkpt><trkpt lat="43.2585402" lon="11.5532075"><ele>252.0</ele><time>2026-04-26T12:39:37.074Z</time></trkpt><trkpt lat="43.2586474" lon="11.55318"><ele>252.0</ele><time>2026-04-26T12:39:38.058Z</time></trkpt><trkpt lat="43.2587489" lon="11.5531472"><ele>252.0</ele><time>2026-04-26T12:39:39.07Z</time></trkpt><trkpt lat="43.2588429" lon="11.5531078"><ele>252.0</ele><time>2026-04-26T12:39:40.074Z</time></trkpt><trkpt lat="43.2589332" lon="11.553059"><ele>252.0</ele><time>2026-04-26T12:39:41.074Z</time></trkpt><trkpt lat="43.2590213" lon="11.5529967"><ele>252.0</ele><time>2026-04-26T12:39:42.09Z</time></trkpt><trkpt lat="43.2591031" lon="11.5529162"><ele>252.0</ele><time>2026-04-26T12:39:43.077Z</time></trkpt><trkpt lat="43.2591834" lon="11.5528161"><ele>250.5</ele><time>2026-04-26T12:39:44.068Z</time></trkpt><trkpt lat="43.2592663" lon="11.5527051"><ele>249.0</ele><time>2026-04-26T12:39:45.071Z</time></trkpt><trkpt lat="43.2593497" lon="11.5525888"><ele>247.5</ele><time>2026-04-26T12:39:46.079Z</time></trkpt><trkpt lat="43.2594241" lon="11.5524605"><ele>246.0</ele><time>2026-04-26T12:39:47.07Z</time></trkpt><trkpt lat="43.2594816" lon="11.552317"><ele>246.0</ele><time>2026-04-26T12:39:48.062Z</time></trkpt><trkpt lat="43.2595253" lon="11.552167"><ele>246.0</ele><time>2026-04-26T12:39:49.069Z</time></trkpt><trkpt lat="43.2595645" lon="11.5520197"><ele>246.0</ele><time>2026-04-26T12:39:50.05Z</time></trkpt><trkpt lat="43.259602" lon="11.5518694"><ele>246.0</ele><time>2026-04-26T12:39:51.073Z</time></trkpt><trkpt lat="43.2596351" lon="11.5517246"><ele>246.0</ele><time>2026-04-26T12:39:52.064Z</time></trkpt><trkpt lat="43.2596659" lon="11.5515958"><ele>246.00000000000003</ele><time>2026-04-26T12:39:53.075Z</time></trkpt><trkpt lat="43.259692" lon="11.5514852"><ele>246.00000000000003</ele><time>2026-04-26T12:39:54.067Z</time></trkpt><trkpt lat="43.2597169" lon="11.5513713"><ele>246.0</ele><time>2026-04-26T12:39:55.082Z</time></trkpt><trkpt lat="43.2597509" lon="11.5512417"><ele>246.0</ele><time>2026-04-26T12:39:56.085Z</time></trkpt><trkpt lat="43.2597986" lon="11.5510984"><ele>246.5</ele><time>2026-04-26T12:39:57.063Z</time></trkpt><trkpt lat="43.2598615" lon="11.5509507"><ele>247.0</ele><time>2026-04-26T12:39:58.083Z</time></trkpt><trkpt lat="43.2599381" lon="11.5508054"><ele>247.5</ele><time>2026-04-26T12:39:59.085Z</time></trkpt><trkpt lat="43.2600267" lon="11.550654"><ele>248.0</ele><time>2026-04-26T12:40:00.076Z</time></trkpt><trkpt lat="43.2601223" lon="11.5504978"><ele>246.25</ele><time>2026-04-26T12:40:01.087Z</time></trkpt><trkpt lat="43.2602213" lon="11.5503483"><ele>244.5</ele><time>2026-04-26T12:40:02.057Z</time></trkpt><trkpt lat="43.2603326" lon="11.5502114"><ele>242.75</ele><time>2026-04-26T12:40:03.068Z</time></trkpt><trkpt lat="43.2604582" lon="11.5501038"><ele>241.0</ele><time>2026-04-26T12:40:04.057Z</time></trkpt><trkpt lat="43.2606011" lon="11.5500232"><ele>238.33333333333331</ele><time>2026-04-26T12:40:05.068Z</time></trkpt><trkpt lat="43.2607552" lon="11.5499704"><ele>235.66666666666669</ele><time>2026-04-26T12:40:06.066Z</time></trkpt><trkpt lat="43.2609151" lon="11.5499474"><ele>233.0</ele><time>2026-04-26T12:40:07.101Z</time></trkpt><trkpt lat="43.261068" lon="11.5499542"><ele>233.0</ele><time>2026-04-26T12:40:08.061Z</time></trkpt><trkpt lat="43.2612132" lon="11.5499743"><ele>233.0</ele><time>2026-04-26T12:40:09.081Z</time></trkpt><trkpt lat="43.261345" lon="11.5499833"><ele>233.0</ele><time>2026-04-26T12:40:10.068Z</time></trkpt><trkpt lat="43.2614779" lon="11.5499672"><ele>233.0</ele><time>2026-04-26T12:40:11.057Z</time></trkpt><trkpt lat="43.2616113" lon="11.5499229"><ele>233.5</ele><time>2026-04-26T12:40:12.06Z</time></trkpt><trkpt lat="43.2617446" lon="11.5498547"><ele>234.0</ele><time>2026-04-26T12:40:13.069Z</time></trkpt><trkpt lat="43.2618759" lon="11.5497661"><ele>234.5</ele><time>2026-04-26T12:40:14.052Z</time></trkpt><trkpt lat="43.2620069" lon="11.5496511"><ele>235.0</ele><time>2026-04-26T12:40:15.083Z</time></trkpt><trkpt lat="43.2621322" lon="11.5495199"><ele>235.66666666666666</ele><time>2026-04-26T12:40:16.061Z</time></trkpt><trkpt lat="43.2622559" lon="11.5493781"><ele>236.33333333333331</ele><time>2026-04-26T12:40:17.067Z</time></trkpt><trkpt lat="43.2623715" lon="11.5492368"><ele>237.0</ele><time>2026-04-26T12:40:18.077Z</time></trkpt><trkpt lat="43.2624753" lon="11.5490945"><ele>239.25</ele><time>2026-04-26T12:40:19.082Z</time></trkpt><trkpt lat="43.2625694" lon="11.54894"><ele>241.5</ele><time>2026-04-26T12:40:20.085Z</time></trkpt><trkpt lat="43.2626546" lon="11.5487744"><ele>243.75</ele><time>2026-04-26T12:40:21.064Z</time></trkpt><trkpt lat="43.2627381" lon="11.5486041"><ele>246.0</ele><time>2026-04-26T12:40:22.079Z</time></trkpt><trkpt lat="43.2628249" lon="11.5484421"><ele>248.0</ele><time>2026-04-26T12:40:23.082Z</time></trkpt><trkpt lat="43.2629129" lon="11.5482932"><ele>250.0</ele><time>2026-04-26T12:40:24.071Z</time></trkpt><trkpt lat="43.2629925" lon="11.5481365"><ele>252.0</ele><time>2026-04-26T12:40:25.094Z</time></trkpt><trkpt lat="43.2630584" lon="11.5479686"><ele>254.0</ele><time>2026-04-26T12:40:26.07Z</time></trkpt><trkpt lat="43.2631207" lon="11.5477974"><ele>256.5</ele><time>2026-04-26T12:40:27.084Z</time></trkpt><trkpt lat="43.2631876" lon="11.5476353"><ele>259.0</ele><time>2026-04-26T12:40:28.064Z</time></trkpt><trkpt lat="43.2632679" lon="11.5474861"><ele>261.5</ele><time>2026-04-26T12:40:29.071Z</time></trkpt><trkpt lat="43.2633586" lon="11.5473612"><ele>264.0</ele><time>2026-04-26T12:40:30.074Z</time></trkpt><trkpt lat="43.263449" lon="11.5472585"><ele>264.0</ele><time>2026-04-26T12:40:31.077Z</time></trkpt><trkpt lat="43.2635365" lon="11.5471664"><ele>264.0</ele><time>2026-04-26T12:40:32.068Z</time></trkpt><trkpt lat="43.2636349" lon="11.5470682"><ele>264.0</ele><time>2026-04-26T12:40:33.076Z</time></trkpt><trkpt lat="43.2637459" lon="11.5469636"><ele>264.0</ele><time>2026-04-26T12:40:34.063Z</time></trkpt><trkpt lat="43.2638621" lon="11.5468572"><ele>264.0</ele><time>2026-04-26T12:40:35.066Z</time></trkpt><trkpt lat="43.263969" lon="11.5467579"><ele>264.0</ele><time>2026-04-26T12:40:36.052Z</time></trkpt><trkpt lat="43.2640712" lon="11.5466551"><ele>264.0</ele><time>2026-04-26T12:40:37.053Z</time></trkpt><trkpt lat="43.2641693" lon="11.5465468"><ele>264.0</ele><time>2026-04-26T12:40:38.044Z</time></trkpt><trkpt lat="43.2642552" lon="11.5464352"><ele>264.0</ele><time>2026-04-26T12:40:39.055Z</time></trkpt><trkpt lat="43.2643291" lon="11.5463163"><ele>264.0</ele><time>2026-04-26T12:40:40.054Z</time></trkpt><trkpt lat="43.2643952" lon="11.5461783"><ele>264.0</ele><time>2026-04-26T12:40:41.057Z</time></trkpt><trkpt lat="43.2644495" lon="11.5460218"><ele>264.0</ele><time>2026-04-26T12:40:42.073Z</time></trkpt><trkpt lat="43.2644918" lon="11.5458527"><ele>267.0</ele><time>2026-04-26T12:40:43.087Z</time></trkpt><trkpt lat="43.2645241" lon="11.5456759"><ele>270.0</ele><time>2026-04-26T12:40:44.057Z</time></trkpt><trkpt lat="43.2645547" lon="11.5454828"><ele>273.0</ele><time>2026-04-26T12:40:45.079Z</time></trkpt><trkpt lat="43.2645857" lon="11.5452948"><ele>276.0</ele><time>2026-04-26T12:40:46.051Z</time></trkpt><trkpt lat="43.2646139" lon="11.5451276"><ele>276.2</ele><time>2026-04-26T12:40:47.066Z</time></trkpt><trkpt lat="43.2646353" lon="11.5449836"><ele>276.40000000000003</ele><time>2026-04-26T12:40:48.058Z</time></trkpt><trkpt lat="43.2646546" lon="11.5448477"><ele>276.6</ele><time>2026-04-26T12:40:49.079Z</time></trkpt><trkpt lat="43.2646793" lon="11.5447196"><ele>276.8</ele><time>2026-04-26T12:40:50.083Z</time></trkpt><trkpt lat="43.2647165" lon="11.5445972"><ele>277.0</ele><time>2026-04-26T12:40:51.071Z</time></trkpt><trkpt lat="43.2647683" lon="11.5444769"><ele>271.0</ele><time>2026-04-26T12:40:52.074Z</time></trkpt><trkpt lat="43.264831" lon="11.5443589"><ele>265.0</ele><time>2026-04-26T12:40:53.086Z</time></trkpt><trkpt lat="43.2649007" lon="11.544234"><ele>259.0</ele><time>2026-04-26T12:40:54.077Z</time></trkpt><trkpt lat="43.2649714" lon="11.5440936"><ele>253.0</ele><time>2026-04-26T12:40:55.084Z</time></trkpt><trkpt lat="43.2650334" lon="11.5439478"><ele>253.0</ele><time>2026-04-26T12:40:56.071Z</time></trkpt><trkpt lat="43.265089" lon="11.5437963"><ele>253.0</ele><time>2026-04-26T12:40:57.073Z</time></trkpt><trkpt lat="43.2651384" lon="11.5436413"><ele>253.0</ele><time>2026-04-26T12:40:58.076Z</time></trkpt><trkpt lat="43.265179" lon="11.5434827"><ele>253.0</ele><time>2026-04-26T12:40:59.073Z</time></trkpt><trkpt lat="43.2652045" lon="11.5433209"><ele>250.75</ele><time>2026-04-26T12:41:00.055Z</time></trkpt><trkpt lat="43.2652095" lon="11.5431583"><ele>248.5</ele><time>2026-04-26T12:41:01.064Z</time></trkpt><trkpt lat="43.2651999" lon="11.5430061"><ele>246.25</ele><time>2026-04-26T12:41:02.053Z</time></trkpt><trkpt lat="43.2651889" lon="11.5428526"><ele>244.0</ele><time>2026-04-26T12:41:03.078Z</time></trkpt><trkpt lat="43.2651885" lon="11.5426906"><ele>242.25</ele><time>2026-04-26T12:41:04.059Z</time></trkpt><trkpt lat="43.2652041" lon="11.5425192"><ele>240.5</ele><time>2026-04-26T12:41:05.063Z</time></trkpt><trkpt lat="43.2652379" lon="11.5423501"><ele>238.75</ele><time>2026-04-26T12:41:06.08Z</time></trkpt><trkpt lat="43.2652894" lon="11.5421907"><ele>237.0</ele><time>2026-04-26T12:41:07.08Z</time></trkpt><trkpt lat="43.2653489" lon="11.5420262"><ele>236.25</ele><time>2026-04-26T12:41:08.085Z</time></trkpt><trkpt lat="43.2654033" lon="11.5418475"><ele>235.5</ele><time>2026-04-26T12:41:09.066Z</time></trkpt><trkpt lat="43.2654488" lon="11.5416576"><ele>234.75</ele><time>2026-04-26T12:41:10.072Z</time></trkpt><trkpt lat="43.2654837" lon="11.5414645"><ele>234.0</ele><time>2026-04-26T12:41:11.081Z</time></trkpt><trkpt lat="43.2655072" lon="11.5412689"><ele>235.0</ele><time>2026-04-26T12:41:12.071Z</time></trkpt><trkpt lat="43.2655218" lon="11.5410735"><ele>236.0</ele><time>2026-04-26T12:41:13.092Z</time></trkpt><trkpt lat="43.2655343" lon="11.5409028"><ele>237.0</ele><time>2026-04-26T12:41:14.066Z</time></trkpt><trkpt lat="43.2655533" lon="11.5407558"><ele>238.0</ele><time>2026-04-26T12:41:15.112Z</time></trkpt><trkpt lat="43.2655849" lon="11.5406436"><ele>239.25</ele><time>2026-04-26T12:41:16.074Z</time></trkpt><trkpt lat="43.2656341" lon="11.5405395"><ele>240.5</ele><time>2026-04-26T12:41:17.078Z</time></trkpt><trkpt lat="43.2657016" lon="11.5404246"><ele>241.75</ele><time>2026-04-26T12:41:18.07Z</time></trkpt><trkpt lat="43.2657856" lon="11.5402967"><ele>243.0</ele><time>2026-04-26T12:41:19.079Z</time></trkpt><trkpt lat="43.2658802" lon="11.5401614"><ele>244.0</ele><time>2026-04-26T12:41:20.069Z</time></trkpt><trkpt lat="43.265979" lon="11.5400206"><ele>245.0</ele><time>2026-04-26T12:41:21.08Z</time></trkpt><trkpt lat="43.2660755" lon="11.5398795"><ele>246.0</ele><time>2026-04-26T12:41:22.064Z</time></trkpt><trkpt lat="43.2661707" lon="11.5397336"><ele>247.0</ele><time>2026-04-26T12:41:23.057Z</time></trkpt><trkpt lat="43.266261" lon="11.5395871"><ele>248.25</ele><time>2026-04-26T12:41:24.058Z</time></trkpt><trkpt lat="43.2663467" lon="11.5394354"><ele>249.5</ele><time>2026-04-26T12:41:25.062Z</time></trkpt><trkpt lat="43.2664219" lon="11.5392936"><ele>250.75</ele><time>2026-04-26T12:41:26.044Z</time></trkpt><trkpt lat="43.2664893" lon="11.5391795"><ele>252.0</ele><time>2026-04-26T12:41:27.047Z</time></trkpt><trkpt lat="43.2665572" lon="11.5391001"><ele>248.5</ele><time>2026-04-26T12:41:28.039Z</time></trkpt><trkpt lat="43.2666421" lon="11.5390395"><ele>245.0</ele><time>2026-04-26T12:41:29.051Z</time></trkpt><trkpt lat="43.2667495" lon="11.5389836"><ele>241.5</ele><time>2026-04-26T12:41:30.055Z</time></trkpt><trkpt lat="43.2668664" lon="11.5389252"><ele>238.0</ele><time>2026-04-26T12:41:31.08Z</time></trkpt><trkpt lat="43.2669732" lon="11.538866"><ele>238.0</ele><time>2026-04-26T12:41:32.056Z</time></trkpt><trkpt lat="43.2670785" lon="11.5388022"><ele>238.0</ele><time>2026-04-26T12:41:33.078Z</time></trkpt><trkpt lat="43.2671873" lon="11.5387313"><ele>238.0</ele><time>2026-04-26T12:41:34.062Z</time></trkpt><trkpt lat="43.2673017" lon="11.5386543"><ele>238.0</ele><time>2026-04-26T12:41:35.067Z</time></trkpt><trkpt lat="43.2674077" lon="11.5385803"><ele>237.0</ele><time>2026-04-26T12:41:36.06Z</time></trkpt><trkpt lat="43.2675071" lon="11.5385093"><ele>236.0</ele><time>2026-04-26T12:41:37.07Z</time></trkpt><trkpt lat="43.2675945" lon="11.5384471"><ele>235.0</ele><time>2026-04-26T12:41:38.061Z</time></trkpt><trkpt lat="43.2676699" lon="11.5383941"><ele>234.0</ele><time>2026-04-26T12:41:39.079Z</time></trkpt><trkpt lat="43.2677397" lon="11.5383431"><ele>233.0</ele><time>2026-04-26T12:41:40.051Z</time></trkpt><trkpt lat="43.2678119" lon="11.5382851"><ele>233.0</ele><time>2026-04-26T12:41:41.062Z</time></trkpt><trkpt lat="43.2678948" lon="11.5382216"><ele>233.0</ele><time>2026-04-26T12:41:42.075Z</time></trkpt><trkpt lat="43.2679977" lon="11.5381487"><ele>233.0</ele><time>2026-04-26T12:41:43.087Z</time></trkpt><trkpt lat="43.26811" lon="11.5380696"><ele>233.0</ele><time>2026-04-26T12:41:44.058Z</time></trkpt><trkpt lat="43.268224" lon="11.5379897"><ele>229.75</ele><time>2026-04-26T12:41:45.086Z</time></trkpt><trkpt lat="43.2683339" lon="11.5379124"><ele>226.5</ele><time>2026-04-26T12:41:46.067Z</time></trkpt><trkpt lat="43.2684423" lon="11.5378349"><ele>223.25</ele><time>2026-04-26T12:41:47.07Z</time></trkpt><trkpt lat="43.268544" lon="11.5377687"><ele>220.0</ele><time>2026-04-26T12:41:48.067Z</time></trkpt><trkpt lat="43.2686411" lon="11.5377235"><ele>219.49999999999997</ele><time>2026-04-26T12:41:49.088Z</time></trkpt><trkpt lat="43.2687342" lon="11.5377054"><ele>219.0</ele><time>2026-04-26T12:41:50.061Z</time></trkpt><trkpt lat="43.2688207" lon="11.5377137"><ele>218.5</ele><time>2026-04-26T12:41:51.06Z</time></trkpt><trkpt lat="43.2688929" lon="11.5377381"><ele>218.0</ele><time>2026-04-26T12:41:52.05Z</time></trkpt><trkpt lat="43.2689963" lon="11.537783"><ele>217.49999999999997</ele><time>2026-04-26T12:41:54.082Z</time></trkpt><trkpt lat="43.2690632" lon="11.5378078"><ele>217.0</ele><time>2026-04-26T12:41:57.089Z</time></trkpt><trkpt lat="43.2691287" lon="11.5378144"><ele>214.66666666666666</ele><time>2026-04-26T12:42:25.099Z</time></trkpt><trkpt lat="43.269224" lon="11.5378245"><ele>212.33333333333331</ele><time>2026-04-26T12:42:27.079Z</time></trkpt><trkpt lat="43.2692971" lon="11.5378279"><ele>210.0</ele><time>2026-04-26T12:42:28.065Z</time></trkpt><trkpt lat="43.269378" lon="11.5378218"><ele>207.66666666666669</ele><time>2026-04-26T12:42:29.077Z</time></trkpt><trkpt lat="43.2694622" lon="11.5378032"><ele>205.33333333333334</ele><time>2026-04-26T12:42:30.069Z</time></trkpt><trkpt lat="43.2695585" lon="11.53777"><ele>203.0</ele><time>2026-04-26T12:42:31.076Z</time></trkpt><trkpt lat="43.2696682" lon="11.5377211"><ele>199.75</ele><time>2026-04-26T12:42:32.07Z</time></trkpt><trkpt lat="43.2697839" lon="11.5376618"><ele>196.5</ele><time>2026-04-26T12:42:33.085Z</time></trkpt><trkpt lat="43.269895" lon="11.537605"><ele>193.25</ele><time>2026-04-26T12:42:34.063Z</time></trkpt><trkpt lat="43.270007" lon="11.5375707"><ele>190.0</ele><time>2026-04-26T12:42:35.084Z</time></trkpt><trkpt lat="43.2701194" lon="11.5375736"><ele>190.0</ele><time>2026-04-26T12:42:36.069Z</time></trkpt><trkpt lat="43.2702407" lon="11.5376066"><ele>190.0</ele><time>2026-04-26T12:42:37.086Z</time></trkpt><trkpt lat="43.2703623" lon="11.5376539"><ele>190.0</ele><time>2026-04-26T12:42:38.06Z</time></trkpt><trkpt lat="43.2704769" lon="11.5376908"><ele>190.0</ele><time>2026-04-26T12:42:39.064Z</time></trkpt><trkpt lat="43.2705805" lon="11.5377152"><ele>189.0</ele><time>2026-04-26T12:42:40.049Z</time></trkpt><trkpt lat="43.2706759" lon="11.5377474"><ele>188.0</ele><time>2026-04-26T12:42:41.051Z</time></trkpt><trkpt lat="43.270767" lon="11.5377962"><ele>187.0</ele><time>2026-04-26T12:42:42.059Z</time></trkpt><trkpt lat="43.2708534" lon="11.5378549"><ele>186.0</ele><time>2026-04-26T12:42:43.063Z</time></trkpt><trkpt lat="43.2709348" lon="11.5379177"><ele>185.0</ele><time>2026-04-26T12:42:44.069Z</time></trkpt><trkpt lat="43.2710065" lon="11.5379799"><ele>184.66666666666666</ele><time>2026-04-26T12:42:45.089Z</time></trkpt><trkpt lat="43.2710631" lon="11.5380385"><ele>184.33333333333331</ele><time>2026-04-26T12:42:46.093Z</time></trkpt><trkpt lat="43.271139" lon="11.5381422"><ele>184.0</ele><time>2026-04-26T12:42:48.077Z</time></trkpt><trkpt lat="43.2711836" lon="11.5382254"><ele>183.66666666666666</ele><time>2026-04-26T12:43:17.077Z</time></trkpt><trkpt lat="43.2712387" lon="11.5383418"><ele>183.33333333333334</ele><time>2026-04-26T12:43:19.084Z</time></trkpt><trkpt lat="43.2712751" lon="11.53842"><ele>183.0</ele><time>2026-04-26T12:43:20.067Z</time></trkpt><trkpt lat="43.2713162" lon="11.5385152"><ele>183.0</ele><time>2026-04-26T12:43:21.064Z</time></trkpt><trkpt lat="43.2713656" lon="11.5386318"><ele>183.0</ele><time>2026-04-26T12:43:22.064Z</time></trkpt><trkpt lat="43.271421" lon="11.5387639"><ele>183.0</ele><time>2026-04-26T12:43:23.055Z</time></trkpt><trkpt lat="43.2714827" lon="11.5389099"><ele>183.0</ele><time>2026-04-26T12:43:24.075Z</time></trkpt><trkpt lat="43.271548" lon="11.5390707"><ele>184.0</ele><time>2026-04-26T12:43:25.078Z</time></trkpt><trkpt lat="43.2716142" lon="11.5392346"><ele>185.0</ele><time>2026-04-26T12:43:26.06Z</time></trkpt><trkpt lat="43.2716788" lon="11.5393965"><ele>186.0</ele><time>2026-04-26T12:43:27.064Z</time></trkpt><trkpt lat="43.2717405" lon="11.5395538"><ele>187.0</ele><time>2026-04-26T12:43:28.051Z</time></trkpt><trkpt lat="43.2718031" lon="11.5397106"><ele>187.5</ele><time>2026-04-26T12:43:29.058Z</time></trkpt><trkpt lat="43.2718665" lon="11.5398678"><ele>188.0</ele><time>2026-04-26T12:43:30.045Z</time></trkpt><trkpt lat="43.2719318" lon="11.5400311"><ele>188.5</ele><time>2026-04-26T12:43:31.052Z</time></trkpt><trkpt lat="43.2719985" lon="11.5401995"><ele>189.0</ele><time>2026-04-26T12:43:32.057Z</time></trkpt><trkpt lat="43.2720687" lon="11.5403707"><ele>189.5</ele><time>2026-04-26T12:43:33.065Z</time></trkpt><trkpt lat="43.2721385" lon="11.5405436"><ele>190.0</ele><time>2026-04-26T12:43:34.053Z</time></trkpt><trkpt lat="43.2722071" lon="11.5407205"><ele>190.5</ele><time>2026-04-26T12:43:35.069Z</time></trkpt><trkpt lat="43.2722716" lon="11.5408965"><ele>191.0</ele><time>2026-04-26T12:43:36.071Z</time></trkpt><trkpt lat="43.2723327" lon="11.5410742"><ele>194.0</ele><time>2026-04-26T12:43:37.074Z</time></trkpt><trkpt lat="43.2723868" lon="11.5412547"><ele>197.0</ele><time>2026-04-26T12:43:38.077Z</time></trkpt><trkpt lat="43.2724279" lon="11.5414389"><ele>200.0</ele><time>2026-04-26T12:43:39.08Z</time></trkpt><trkpt lat="43.2724583" lon="11.5416245"><ele>203.0</ele><time>2026-04-26T12:43:40.07Z</time></trkpt><trkpt lat="43.2724827" lon="11.5418131"><ele>203.0</ele><time>2026-04-26T12:43:41.094Z</time></trkpt><trkpt lat="43.2725043" lon="11.5419938"><ele>203.0</ele><time>2026-04-26T12:43:42.076Z</time></trkpt><trkpt lat="43.2725231" lon="11.5421744"><ele>203.0</ele><time>2026-04-26T12:43:43.087Z</time></trkpt><trkpt lat="43.2725428" lon="11.542353"><ele>203.0</ele><time>2026-04-26T12:43:44.069Z</time></trkpt><trkpt lat="43.2725686" lon="11.5425202"><ele>204.33333333333334</ele><time>2026-04-26T12:43:45.093Z</time></trkpt><trkpt lat="43.2725995" lon="11.5426622"><ele>205.66666666666669</ele><time>2026-04-26T12:43:46.069Z</time></trkpt><trkpt lat="43.272637" lon="11.5427872"><ele>207.0</ele><time>2026-04-26T12:43:47.087Z</time></trkpt><trkpt lat="43.2726797" lon="11.5428762"><ele>208.33333333333331</ele><time>2026-04-26T12:43:48.071Z</time></trkpt><trkpt lat="43.2727314" lon="11.5429293"><ele>209.66666666666666</ele><time>2026-04-26T12:43:49.081Z</time></trkpt><trkpt lat="43.2727931" lon="11.5429493"><ele>211.0</ele><time>2026-04-26T12:43:50.064Z</time></trkpt><trkpt lat="43.2728602" lon="11.5429407"><ele>212.49999999999997</ele><time>2026-04-26T12:43:51.074Z</time></trkpt><trkpt lat="43.2729287" lon="11.5429153"><ele>214.0</ele><time>2026-04-26T12:43:52.062Z</time></trkpt><trkpt lat="43.2730001" lon="11.5428921"><ele>215.5</ele><time>2026-04-26T12:43:53.061Z</time></trkpt><trkpt lat="43.2730767" lon="11.5428886"><ele>217.0</ele><time>2026-04-26T12:43:54.052Z</time></trkpt><trkpt lat="43.2731566" lon="11.542909"><ele>218.49999999999997</ele><time>2026-04-26T12:43:55.061Z</time></trkpt><trkpt lat="43.2732362" lon="11.5429509"><ele>220.0</ele><time>2026-04-26T12:43:56.046Z</time></trkpt><trkpt lat="43.273319" lon="11.543013"><ele>222.4</ele><time>2026-04-26T12:43:57.077Z</time></trkpt><trkpt lat="43.2734029" lon="11.5430923"><ele>224.8</ele><time>2026-04-26T12:43:58.075Z</time></trkpt><trkpt lat="43.2734864" lon="11.5431822"><ele>227.2</ele><time>2026-04-26T12:43:59.075Z</time></trkpt><trkpt lat="43.2735527" lon="11.5432697"><ele>229.6</ele><time>2026-04-26T12:44:00.095Z</time></trkpt><trkpt lat="43.2735964" lon="11.5433574"><ele>232.0</ele><time>2026-04-26T12:44:01.071Z</time></trkpt><trkpt lat="43.273623" lon="11.5434596"><ele>231.99999999999997</ele><time>2026-04-26T12:44:02.077Z</time></trkpt><trkpt lat="43.2736281" lon="11.5435695"><ele>232.0</ele><time>2026-04-26T12:44:03.096Z</time></trkpt><trkpt lat="43.2736102" lon="11.5436775"><ele>232.0</ele><time>2026-04-26T12:44:04.058Z</time></trkpt><trkpt lat="43.2735685" lon="11.5437855"><ele>232.0</ele><time>2026-04-26T12:44:05.063Z</time></trkpt><trkpt lat="43.273511" lon="11.5438876"><ele>231.99999999999997</ele><time>2026-04-26T12:44:06.073Z</time></trkpt><trkpt lat="43.2734476" lon="11.5439881"><ele>232.0</ele><time>2026-04-26T12:44:07.085Z</time></trkpt><trkpt lat="43.2733799" lon="11.5440905"><ele>233.6</ele><time>2026-04-26T12:44:08.065Z</time></trkpt><trkpt lat="43.2733075" lon="11.5442023"><ele>235.2</ele><time>2026-04-26T12:44:09.08Z</time></trkpt><trkpt lat="43.2732449" lon="11.5443234"><ele>236.8</ele><time>2026-04-26T12:44:10.085Z</time></trkpt><trkpt lat="43.2732027" lon="11.5444502"><ele>238.4</ele><time>2026-04-26T12:44:11.085Z</time></trkpt><trkpt lat="43.2731804" lon="11.5445871"><ele>240.0</ele><time>2026-04-26T12:44:12.059Z</time></trkpt><trkpt lat="43.2731692" lon="11.5447477"><ele>241.25</ele><time>2026-04-26T12:44:13.072Z</time></trkpt><trkpt lat="43.2731622" lon="11.5449247"><ele>242.5</ele><time>2026-04-26T12:44:14.08Z</time></trkpt><trkpt lat="43.2731519" lon="11.5451111"><ele>243.75</ele><time>2026-04-26T12:44:15.065Z</time></trkpt><trkpt lat="43.2731423" lon="11.5453013"><ele>245.0</ele><time>2026-04-26T12:44:16.069Z</time></trkpt><trkpt lat="43.2731404" lon="11.5454913"><ele>246.75</ele><time>2026-04-26T12:44:17.06Z</time></trkpt><trkpt lat="43.2731481" lon="11.5456866"><ele>248.5</ele><time>2026-04-26T12:44:18.057Z</time></trkpt><trkpt lat="43.2731681" lon="11.5458814"><ele>250.25</ele><time>2026-04-26T12:44:19.048Z</time></trkpt><trkpt lat="43.2731999" lon="11.5460727"><ele>252.0</ele><time>2026-04-26T12:44:20.062Z</time></trkpt><trkpt lat="43.2732422" lon="11.5462561"><ele>254.25</ele><time>2026-04-26T12:44:21.074Z</time></trkpt><trkpt lat="43.2732944" lon="11.5464301"><ele>256.5</ele><time>2026-04-26T12:44:22.057Z</time></trkpt><trkpt lat="43.2733563" lon="11.5465956"><ele>258.75</ele><time>2026-04-26T12:44:23.082Z</time></trkpt><trkpt lat="43.2734187" lon="11.546737"><ele>261.0</ele><time>2026-04-26T12:44:24.069Z</time></trkpt><trkpt lat="43.2734894" lon="11.5468581"><ele>261.0</ele><time>2026-04-26T12:44:25.084Z</time></trkpt><trkpt lat="43.2735737" lon="11.5469611"><ele>261.0</ele><time>2026-04-26T12:44:26.068Z</time></trkpt><trkpt lat="43.2736724" lon="11.5470416"><ele>261.0</ele><time>2026-04-26T12:44:27.077Z</time></trkpt><trkpt lat="43.2737824" lon="11.5470914"><ele>261.0</ele><time>2026-04-26T12:44:28.054Z</time></trkpt><trkpt lat="43.2739078" lon="11.5471152"><ele>265.5</ele><time>2026-04-26T12:44:29.078Z</time></trkpt><trkpt lat="43.2740383" lon="11.5471197"><ele>270.0</ele><time>2026-04-26T12:44:30.069Z</time></trkpt><trkpt lat="43.2741687" lon="11.5471144"><ele>274.5</ele><time>2026-04-26T12:44:31.068Z</time></trkpt><trkpt lat="43.2742932" lon="11.5471045"><ele>279.0</ele><time>2026-04-26T12:44:32.075Z</time></trkpt><trkpt lat="43.2744053" lon="11.5470904"><ele>279.0</ele><time>2026-04-26T12:44:33.071Z</time></trkpt><trkpt lat="43.2745049" lon="11.5470808"><ele>279.0</ele><time>2026-04-26T12:44:34.063Z</time></trkpt><trkpt lat="43.2745995" lon="11.5470984"><ele>279.0</ele><time>2026-04-26T12:44:35.065Z</time></trkpt><trkpt lat="43.2746932" lon="11.5471491"><ele>279.0</ele><time>2026-04-26T12:44:36.067Z</time></trkpt><trkpt lat="43.2747901" lon="11.5472183"><ele>279.0</ele><time>2026-04-26T12:44:37.081Z</time></trkpt><trkpt lat="43.2748855" lon="11.5472936"><ele>280.4</ele><time>2026-04-26T12:44:38.072Z</time></trkpt><trkpt lat="43.2749808" lon="11.5473715"><ele>281.79999999999995</ele><time>2026-04-26T12:44:39.084Z</time></trkpt><trkpt lat="43.2750745" lon="11.5474498"><ele>283.20000000000005</ele><time>2026-04-26T12:44:40.064Z</time></trkpt><trkpt lat="43.2751706" lon="11.547533"><ele>284.6</ele><time>2026-04-26T12:44:41.068Z</time></trkpt><trkpt lat="43.2752664" lon="11.5476181"><ele>286.0</ele><time>2026-04-26T12:44:42.06Z</time></trkpt><trkpt lat="43.2753637" lon="11.5477047"><ele>286.0</ele><time>2026-04-26T12:44:43.065Z</time></trkpt><trkpt lat="43.2754601" lon="11.5477891"><ele>286.0</ele><time>2026-04-26T12:44:44.058Z</time></trkpt><trkpt lat="43.2755585" lon="11.5478679"><ele>286.0</ele><time>2026-04-26T12:44:45.069Z</time></trkpt><trkpt lat="43.2756586" lon="11.5479408"><ele>286.0</ele><time>2026-04-26T12:44:46.07Z</time></trkpt><trkpt lat="43.275763" lon="11.5480051"><ele>289.75</ele><time>2026-04-26T12:44:47.087Z</time></trkpt><trkpt lat="43.2758746" lon="11.5480587"><ele>293.5</ele><time>2026-04-26T12:44:48.075Z</time></trkpt><trkpt lat="43.2759975" lon="11.5481102"><ele>297.25</ele><time>2026-04-26T12:44:49.066Z</time></trkpt><trkpt lat="43.2761231" lon="11.5481564"><ele>301.0</ele><time>2026-04-26T12:44:50.056Z</time></trkpt><trkpt lat="43.2762365" lon="11.5481959"><ele>301.0</ele><time>2026-04-26T12:44:51.083Z</time></trkpt><trkpt lat="43.2763364" lon="11.5482314"><ele>301.0</ele><time>2026-04-26T12:44:52.061Z</time></trkpt><trkpt lat="43.2764324" lon="11.5482689"><ele>301.0</ele><time>2026-04-26T12:44:53.068Z</time></trkpt><trkpt lat="43.2765257" lon="11.5483156"><ele>301.0</ele><time>2026-04-26T12:44:54.055Z</time></trkpt><trkpt lat="43.2766283" lon="11.548379"><ele>301.0</ele><time>2026-04-26T12:44:55.077Z</time></trkpt><trkpt lat="43.2767357" lon="11.5484586"><ele>301.5</ele><time>2026-04-26T12:44:56.063Z</time></trkpt><trkpt lat="43.2768436" lon="11.5485539"><ele>302.0</ele><time>2026-04-26T12:44:57.083Z</time></trkpt><trkpt lat="43.2769458" lon="11.548657"><ele>302.5</ele><time>2026-04-26T12:44:58.067Z</time></trkpt><trkpt lat="43.2770493" lon="11.5487615"><ele>303.0</ele><time>2026-04-26T12:44:59.075Z</time></trkpt><trkpt lat="43.2771496" lon="11.5488571"><ele>303.0</ele><time>2026-04-26T12:45:00.066Z</time></trkpt><trkpt lat="43.2772469" lon="11.5489418"><ele>303.0</ele><time>2026-04-26T12:45:01.081Z</time></trkpt><trkpt lat="43.2773435" lon="11.5490211"><ele>303.0</ele><time>2026-04-26T12:45:02.063Z</time></trkpt><trkpt lat="43.2774449" lon="11.5491063"><ele>303.0</ele><time>2026-04-26T12:45:03.08Z</time></trkpt><trkpt lat="43.2775416" lon="11.5491928"><ele>300.2</ele><time>2026-04-26T12:45:04.066Z</time></trkpt><trkpt lat="43.277632" lon="11.5492725"><ele>297.4</ele><time>2026-04-26T12:45:05.065Z</time></trkpt><trkpt lat="43.2777146" lon="11.5493385"><ele>294.59999999999997</ele><time>2026-04-26T12:45:06.057Z</time></trkpt><trkpt lat="43.2777984" lon="11.5493872"><ele>291.8</ele><time>2026-04-26T12:45:07.063Z</time></trkpt><trkpt lat="43.2778927" lon="11.5494199"><ele>289.0</ele><time>2026-04-26T12:45:08.046Z</time></trkpt><trkpt lat="43.2780019" lon="11.5494371"><ele>285.25</ele><time>2026-04-26T12:45:09.055Z</time></trkpt><trkpt lat="43.2781192" lon="11.549439"><ele>281.5</ele><time>2026-04-26T12:45:10.082Z</time></trkpt><trkpt lat="43.2782385" lon="11.549434"><ele>277.75</ele><time>2026-04-26T12:45:11.085Z</time></trkpt><trkpt lat="43.2783617" lon="11.5494333"><ele>274.0</ele><time>2026-04-26T12:45:12.074Z</time></trkpt><trkpt lat="43.2784872" lon="11.5494384"><ele>274.0</ele><time>2026-04-26T12:45:13.077Z</time></trkpt><trkpt lat="43.2786069" lon="11.5494472"><ele>274.0</ele><time>2026-04-26T12:45:14.082Z</time></trkpt><trkpt lat="43.2787198" lon="11.5494595"><ele>274.0</ele><time>2026-04-26T12:45:15.105Z</time></trkpt><trkpt lat="43.2788216" lon="11.5494848"><ele>274.0</ele><time>2026-04-26T12:45:16.067Z</time></trkpt><trkpt lat="43.2789233" lon="11.5495287"><ele>274.0</ele><time>2026-04-26T12:45:17.069Z</time></trkpt><trkpt lat="43.2790315" lon="11.5495934"><ele>273.5</ele><time>2026-04-26T12:45:18.083Z</time></trkpt><trkpt lat="43.2791457" lon="11.5496728"><ele>273.0</ele><time>2026-04-26T12:45:19.1Z</time></trkpt><trkpt lat="43.2792578" lon="11.5497523"><ele>272.5</ele><time>2026-04-26T12:45:20.073Z</time></trkpt><trkpt lat="43.2793679" lon="11.5498234"><ele>272.0</ele><time>2026-04-26T12:45:21.076Z</time></trkpt><trkpt lat="43.2794772" lon="11.5498784"><ele>272.0</ele><time>2026-04-26T12:45:22.068Z</time></trkpt><trkpt lat="43.2795907" lon="11.549915"><ele>272.0</ele><time>2026-04-26T12:45:23.08Z</time></trkpt><trkpt lat="43.2797059" lon="11.5499303"><ele>272.0</ele><time>2026-04-26T12:45:24.071Z</time></trkpt><trkpt lat="43.2798208" lon="11.5499242"><ele>272.0</ele><time>2026-04-26T12:45:25.082Z</time></trkpt><trkpt lat="43.2799374" lon="11.5499017"><ele>271.25</ele><time>2026-04-26T12:45:26.074Z</time></trkpt><trkpt lat="43.2800633" lon="11.5498613"><ele>270.5</ele><time>2026-04-26T12:45:27.083Z</time></trkpt><trkpt lat="43.2801954" lon="11.5497965"><ele>269.75</ele><time>2026-04-26T12:45:28.084Z</time></trkpt><trkpt lat="43.2803294" lon="11.5497121"><ele>269.0</ele><time>2026-04-26T12:45:29.069Z</time></trkpt><trkpt lat="43.2804547" lon="11.5496275"><ele>269.0</ele><time>2026-04-26T12:45:30.066Z</time></trkpt><trkpt lat="43.2805606" lon="11.5495486"><ele>269.0</ele><time>2026-04-26T12:45:31.07Z</time></trkpt><trkpt lat="43.2806532" lon="11.5494582"><ele>269.0</ele><time>2026-04-26T12:45:32.053Z</time></trkpt><trkpt lat="43.2807341" lon="11.5493429"><ele>269.0</ele><time>2026-04-26T12:45:33.061Z</time></trkpt><trkpt lat="43.2808048" lon="11.5492125"><ele>272.0</ele><time>2026-04-26T12:45:34.06Z</time></trkpt><trkpt lat="43.2808743" lon="11.5490822"><ele>275.0</ele><time>2026-04-26T12:45:35.051Z</time></trkpt><trkpt lat="43.2809506" lon="11.5489562"><ele>278.0</ele><time>2026-04-26T12:45:36.055Z</time></trkpt><trkpt lat="43.2810351" lon="11.5488351"><ele>281.0</ele><time>2026-04-26T12:45:37.067Z</time></trkpt><trkpt lat="43.2811243" lon="11.5487203"><ele>280.75</ele><time>2026-04-26T12:45:38.051Z</time></trkpt><trkpt lat="43.2812231" lon="11.5486108"><ele>280.5</ele><time>2026-04-26T12:45:39.06Z</time></trkpt><trkpt lat="43.2813257" lon="11.5485076"><ele>280.25</ele><time>2026-04-26T12:45:40.065Z</time></trkpt><trkpt lat="43.2814257" lon="11.5484057"><ele>280.0</ele><time>2026-04-26T12:45:41.082Z</time></trkpt><trkpt lat="43.2815175" lon="11.5483111"><ele>284.2</ele><time>2026-04-26T12:45:42.069Z</time></trkpt><trkpt lat="43.2816061" lon="11.5482292"><ele>288.4</ele><time>2026-04-26T12:45:43.078Z</time></trkpt><trkpt lat="43.2816954" lon="11.5481609"><ele>292.6</ele><time>2026-04-26T12:45:44.057Z</time></trkpt><trkpt lat="43.2817877" lon="11.5481115"><ele>296.8</ele><time>2026-04-26T12:45:45.066Z</time></trkpt><trkpt lat="43.2818819" lon="11.5480931"><ele>301.0</ele><time>2026-04-26T12:45:46.072Z</time></trkpt><trkpt lat="43.2819647" lon="11.5481016"><ele>301.0</ele><time>2026-04-26T12:45:47.072Z</time></trkpt><trkpt lat="43.2820572" lon="11.5481269"><ele>301.0</ele><time>2026-04-26T12:45:49.064Z</time></trkpt><trkpt lat="43.2821238" lon="11.5481339"><ele>301.0</ele><time>2026-04-26T12:45:56.047Z</time></trkpt><trkpt lat="43.2822044" lon="11.5481112"><ele>301.0</ele><time>2026-04-26T12:45:58.05Z</time></trkpt><trkpt lat="43.2823392" lon="11.5481177"><ele>301.0</ele><time>2026-04-26T12:46:00.059Z</time></trkpt><trkpt lat="43.2824265" lon="11.5481323"><ele>302.40000000000003</ele><time>2026-04-26T12:46:01.065Z</time></trkpt><trkpt lat="43.2825273" lon="11.5481501"><ele>303.8</ele><time>2026-04-26T12:46:02.071Z</time></trkpt><trkpt lat="43.2826337" lon="11.548173"><ele>305.20000000000005</ele><time>2026-04-26T12:46:03.047Z</time></trkpt><trkpt lat="43.2827395" lon="11.548208"><ele>306.6</ele><time>2026-04-26T12:46:04.059Z</time></trkpt><trkpt lat="43.2828432" lon="11.5482601"><ele>308.0</ele><time>2026-04-26T12:46:05.05Z</time></trkpt><trkpt lat="43.2829483" lon="11.5483275"><ele>308.0</ele><time>2026-04-26T12:46:06.063Z</time></trkpt><trkpt lat="43.2830514" lon="11.5484043"><ele>308.0</ele><time>2026-04-26T12:46:07.052Z</time></trkpt><trkpt lat="43.2831467" lon="11.5484863"><ele>308.0</ele><time>2026-04-26T12:46:08.062Z</time></trkpt><trkpt lat="43.2832382" lon="11.5485684"><ele>308.0</ele><time>2026-04-26T12:46:09.05Z</time></trkpt><trkpt lat="43.2833388" lon="11.5486445"><ele>310.0</ele><time>2026-04-26T12:46:10.055Z</time></trkpt><trkpt lat="43.2834455" lon="11.5487068"><ele>312.0</ele><time>2026-04-26T12:46:11.058Z</time></trkpt><trkpt lat="43.2835615" lon="11.5487555"><ele>314.0</ele><time>2026-04-26T12:46:12.049Z</time></trkpt><trkpt lat="43.2836808" lon="11.5487879"><ele>316.0</ele><time>2026-04-26T12:46:13.055Z</time></trkpt><trkpt lat="43.2837928" lon="11.5488105"><ele>316.0</ele><time>2026-04-26T12:46:14.06Z</time></trkpt><trkpt lat="43.2838948" lon="11.5488245"><ele>316.0</ele><time>2026-04-26T12:46:15.047Z</time></trkpt><trkpt lat="43.2839908" lon="11.5488258"><ele>316.0</ele><time>2026-04-26T12:46:16.056Z</time></trkpt><trkpt lat="43.2840808" lon="11.5488066"><ele>316.0</ele><time>2026-04-26T12:46:17.069Z</time></trkpt><trkpt lat="43.2841655" lon="11.5487639"><ele>316.0</ele><time>2026-04-26T12:46:18.062Z</time></trkpt><trkpt lat="43.2842462" lon="11.5487"><ele>311.8</ele><time>2026-04-26T12:46:19.065Z</time></trkpt><trkpt lat="43.2843142" lon="11.5486133"><ele>307.6</ele><time>2026-04-26T12:46:20.051Z</time></trkpt><trkpt lat="43.2843728" lon="11.5485053"><ele>303.4</ele><time>2026-04-26T12:46:21.052Z</time></trkpt><trkpt lat="43.2844305" lon="11.5483769"><ele>299.2</ele><time>2026-04-26T12:46:22.046Z</time></trkpt><trkpt lat="43.2844907" lon="11.5482297"><ele>295.0</ele><time>2026-04-26T12:46:23.056Z</time></trkpt><trkpt lat="43.2845519" lon="11.5480753"><ele>295.0</ele><time>2026-04-26T12:46:24.047Z</time></trkpt><trkpt lat="43.2846141" lon="11.5479169"><ele>295.0</ele><time>2026-04-26T12:46:25.059Z</time></trkpt><trkpt lat="43.2846681" lon="11.5477651"><ele>295.0</ele><time>2026-04-26T12:46:26.077Z</time></trkpt><trkpt lat="43.2847044" lon="11.5476175"><ele>295.0</ele><time>2026-04-26T12:46:27.074Z</time></trkpt><trkpt lat="43.2847263" lon="11.5474599"><ele>293.0</ele><time>2026-04-26T12:46:28.058Z</time></trkpt><trkpt lat="43.2847404" lon="11.5472947"><ele>291.0</ele><time>2026-04-26T12:46:29.068Z</time></trkpt><trkpt lat="43.2847597" lon="11.5471381"><ele>289.0</ele><time>2026-04-26T12:46:30.076Z</time></trkpt><trkpt lat="43.2847972" lon="11.5469993"><ele>287.0</ele><time>2026-04-26T12:46:31.062Z</time></trkpt><trkpt lat="43.2848553" lon="11.5468793"><ele>285.0</ele><time>2026-04-26T12:46:32.062Z</time></trkpt><trkpt lat="43.2849284" lon="11.5467765"><ele>290.0</ele><time>2026-04-26T12:46:33.059Z</time></trkpt><trkpt lat="43.2850103" lon="11.5466927"><ele>295.0</ele><time>2026-04-26T12:46:34.047Z</time></trkpt><trkpt lat="43.2850992" lon="11.5466225"><ele>300.0</ele><time>2026-04-26T12:46:35.056Z</time></trkpt><trkpt lat="43.2851849" lon="11.5465574"><ele>305.0</ele><time>2026-04-26T12:46:36.047Z</time></trkpt><trkpt lat="43.2852708" lon="11.5464993"><ele>310.0</ele><time>2026-04-26T12:46:37.043Z</time></trkpt><trkpt lat="43.2853587" lon="11.5464461"><ele>310.0</ele><time>2026-04-26T12:46:38.056Z</time></trkpt><trkpt lat="43.2854481" lon="11.5464065"><ele>310.0</ele><time>2026-04-26T12:46:39.044Z</time></trkpt><trkpt lat="43.285542" lon="11.5463724"><ele>310.0</ele><time>2026-04-26T12:46:40.058Z</time></trkpt><trkpt lat="43.2856348" lon="11.5463233"><ele>310.0</ele><time>2026-04-26T12:46:41.073Z</time></trkpt><trkpt lat="43.2857286" lon="11.5462595"><ele>310.0</ele><time>2026-04-26T12:46:42.053Z</time></trkpt><trkpt lat="43.2858256" lon="11.5461823"><ele>310.8</ele><time>2026-04-26T12:46:43.057Z</time></trkpt><trkpt lat="43.2859188" lon="11.5461008"><ele>311.6</ele><time>2026-04-26T12:46:44.06Z</time></trkpt><trkpt lat="43.286004" lon="11.5460252"><ele>312.4</ele><time>2026-04-26T12:46:45.059Z</time></trkpt><trkpt lat="43.2860873" lon="11.54596"><ele>313.2</ele><time>2026-04-26T12:46:46.046Z</time></trkpt><trkpt lat="43.286174" lon="11.5459098"><ele>314.0</ele><time>2026-04-26T12:46:47.051Z</time></trkpt><trkpt lat="43.2862621" lon="11.5458766"><ele>314.0</ele><time>2026-04-26T12:46:48.053Z</time></trkpt><trkpt lat="43.2863533" lon="11.545868"><ele>314.0</ele><time>2026-04-26T12:46:49.068Z</time></trkpt><trkpt lat="43.2864407" lon="11.5458913"><ele>314.0</ele><time>2026-04-26T12:46:50.06Z</time></trkpt><trkpt lat="43.2865241" lon="11.5459391"><ele>314.0</ele><time>2026-04-26T12:46:51.052Z</time></trkpt><trkpt lat="43.2866099" lon="11.5460058"><ele>314.0</ele><time>2026-04-26T12:46:52.058Z</time></trkpt><trkpt lat="43.2866949" lon="11.546076"><ele>313.59999999999997</ele><time>2026-04-26T12:46:53.056Z</time></trkpt><trkpt lat="43.2867784" lon="11.5461274"><ele>313.2</ele><time>2026-04-26T12:46:54.048Z</time></trkpt><trkpt lat="43.2868696" lon="11.5461495"><ele>312.79999999999995</ele><time>2026-04-26T12:46:55.054Z</time></trkpt><trkpt lat="43.2869686" lon="11.546141"><ele>312.4</ele><time>2026-04-26T12:46:56.06Z</time></trkpt><trkpt lat="43.287061" lon="11.5461083"><ele>312.0</ele><time>2026-04-26T12:46:57.046Z</time></trkpt><trkpt lat="43.2871385" lon="11.5460527"><ele>312.0</ele><time>2026-04-26T12:46:58.055Z</time></trkpt><trkpt lat="43.2871966" lon="11.54597"><ele>312.0</ele><time>2026-04-26T12:46:59.059Z</time></trkpt><trkpt lat="43.2872359" lon="11.5458573"><ele>312.0</ele><time>2026-04-26T12:47:00.044Z</time></trkpt><trkpt lat="43.2872662" lon="11.5457153"><ele>312.0</ele><time>2026-04-26T12:47:01.058Z</time></trkpt><trkpt lat="43.2872971" lon="11.5455575"><ele>312.0</ele><time>2026-04-26T12:47:02.057Z</time></trkpt><trkpt lat="43.2873283" lon="11.5453865"><ele>309.25</ele><time>2026-04-26T12:47:03.061Z</time></trkpt><trkpt lat="43.2873522" lon="11.5452105"><ele>306.5</ele><time>2026-04-26T12:47:04.067Z</time></trkpt><trkpt lat="43.2873657" lon="11.54504"><ele>303.75</ele><time>2026-04-26T12:47:05.053Z</time></trkpt><trkpt lat="43.2873767" lon="11.5448657"><ele>301.0</ele><time>2026-04-26T12:47:06.061Z</time></trkpt><trkpt lat="43.2873994" lon="11.5446848"><ele>300.5</ele><time>2026-04-26T12:47:07.07Z</time></trkpt><trkpt lat="43.2874385" lon="11.5445045"><ele>300.0</ele><time>2026-04-26T12:47:08.058Z</time></trkpt><trkpt lat="43.2874885" lon="11.5443364"><ele>299.5</ele><time>2026-04-26T12:47:09.049Z</time></trkpt><trkpt lat="43.2875406" lon="11.5441893"><ele>299.0</ele><time>2026-04-26T12:47:10.052Z</time></trkpt><trkpt lat="43.2875847" lon="11.5440587"><ele>299.0</ele><time>2026-04-26T12:47:11.049Z</time></trkpt><trkpt lat="43.2876126" lon="11.5439286"><ele>299.0</ele><time>2026-04-26T12:47:12.054Z</time></trkpt><trkpt lat="43.2876245" lon="11.5437813"><ele>299.0</ele><time>2026-04-26T12:47:13.07Z</time></trkpt><trkpt lat="43.2876236" lon="11.5436172"><ele>299.0</ele><time>2026-04-26T12:47:14.057Z</time></trkpt><trkpt lat="43.2876217" lon="11.5434406"><ele>297.75</ele><time>2026-04-26T12:47:15.067Z</time></trkpt><trkpt lat="43.2876357" lon="11.5432613"><ele>296.5</ele><time>2026-04-26T12:47:16.078Z</time></trkpt><trkpt lat="43.2876698" lon="11.543083"><ele>295.25</ele><time>2026-04-26T12:47:17.077Z</time></trkpt><trkpt lat="43.2877164" lon="11.5429033"><ele>294.0</ele><time>2026-04-26T12:47:18.066Z</time></trkpt><trkpt lat="43.2877676" lon="11.5427363"><ele>291.0</ele><time>2026-04-26T12:47:19.078Z</time></trkpt><trkpt lat="43.2878215" lon="11.5425925"><ele>288.0</ele><time>2026-04-26T12:47:20.066Z</time></trkpt><trkpt lat="43.2878883" lon="11.5424551"><ele>285.0</ele><time>2026-04-26T12:47:21.08Z</time></trkpt><trkpt lat="43.2879672" lon="11.5423201"><ele>282.0</ele><time>2026-04-26T12:47:22.073Z</time></trkpt><trkpt lat="43.2880502" lon="11.5421756"><ele>287.0</ele><time>2026-04-26T12:47:23.073Z</time></trkpt><trkpt lat="43.2881275" lon="11.5420255"><ele>292.0</ele><time>2026-04-26T12:47:24.063Z</time></trkpt><trkpt lat="43.2881894" lon="11.5418784"><ele>297.0</ele><time>2026-04-26T12:47:25.082Z</time></trkpt><trkpt lat="43.2882363" lon="11.5417441"><ele>302.0</ele><time>2026-04-26T12:47:26.092Z</time></trkpt><trkpt lat="43.2882809" lon="11.5416265"><ele>302.0</ele><time>2026-04-26T12:47:27.073Z</time></trkpt><trkpt lat="43.2883365" lon="11.541521"><ele>302.0</ele><time>2026-04-26T12:47:28.079Z</time></trkpt><trkpt lat="43.2884096" lon="11.5414273"><ele>302.0</ele><time>2026-04-26T12:47:29.089Z</time></trkpt><trkpt lat="43.2884996" lon="11.5413496"><ele>302.0</ele><time>2026-04-26T12:47:30.057Z</time></trkpt><trkpt lat="43.2886089" lon="11.541285"><ele>302.0</ele><time>2026-04-26T12:47:31.064Z</time></trkpt><trkpt lat="43.2887332" lon="11.541236"><ele>302.0</ele><time>2026-04-26T12:47:32.066Z</time></trkpt><trkpt lat="43.2888672" lon="11.5411962"><ele>302.0</ele><time>2026-04-26T12:47:33.052Z</time></trkpt><trkpt lat="43.2889979" lon="11.541159"><ele>302.0</ele><time>2026-04-26T12:47:34.053Z</time></trkpt><trkpt lat="43.2891152" lon="11.5411243"><ele>302.0</ele><time>2026-04-26T12:47:35.063Z</time></trkpt><trkpt lat="43.2892192" lon="11.5411025"><ele>302.0</ele><time>2026-04-26T12:47:36.048Z</time></trkpt><trkpt lat="43.2893163" lon="11.5411015"><ele>302.0</ele><time>2026-04-26T12:47:37.065Z</time></trkpt><trkpt lat="43.2894133" lon="11.5411202"><ele>302.0</ele><time>2026-04-26T12:47:38.062Z</time></trkpt><trkpt lat="43.289517" lon="11.5411544"><ele>302.0</ele><time>2026-04-26T12:47:39.062Z</time></trkpt><trkpt lat="43.2896312" lon="11.541192"><ele>302.0</ele><time>2026-04-26T12:47:40.073Z</time></trkpt><trkpt lat="43.2897527" lon="11.5412191"><ele>302.0</ele><time>2026-04-26T12:47:41.065Z</time></trkpt><trkpt lat="43.2898775" lon="11.5412234"><ele>302.0</ele><time>2026-04-26T12:47:42.07Z</time></trkpt><trkpt lat="43.2899992" lon="11.5412127"><ele>302.0</ele><time>2026-04-26T12:47:43.076Z</time></trkpt><trkpt lat="43.2901154" lon="11.5412028"><ele>302.0</ele><time>2026-04-26T12:47:44.065Z</time></trkpt><trkpt lat="43.2902291" lon="11.5412037"><ele>304.0</ele><time>2026-04-26T12:47:45.078Z</time></trkpt><trkpt lat="43.2903442" lon="11.5412229"><ele>306.0</ele><time>2026-04-26T12:47:46.064Z</time></trkpt><trkpt lat="43.290463" lon="11.541261"><ele>308.0</ele><time>2026-04-26T12:47:47.063Z</time></trkpt><trkpt lat="43.2905772" lon="11.5413099"><ele>310.0</ele><time>2026-04-26T12:47:48.057Z</time></trkpt><trkpt lat="43.2906837" lon="11.5413594"><ele>310.0</ele><time>2026-04-26T12:47:49.074Z</time></trkpt><trkpt lat="43.2907837" lon="11.5413922"><ele>310.0</ele><time>2026-04-26T12:47:50.062Z</time></trkpt><trkpt lat="43.2908806" lon="11.5413986"><ele>310.0</ele><time>2026-04-26T12:47:51.072Z</time></trkpt><trkpt lat="43.2909722" lon="11.5413784"><ele>310.0</ele><time>2026-04-26T12:47:52.085Z</time></trkpt><trkpt lat="43.2910534" lon="11.5413384"><ele>310.0</ele><time>2026-04-26T12:47:53.064Z</time></trkpt><trkpt lat="43.2911228" lon="11.5412873"><ele>310.0</ele><time>2026-04-26T12:47:54.074Z</time></trkpt><trkpt lat="43.2911745" lon="11.5412377"><ele>310.0</ele><time>2026-04-26T12:47:55.095Z</time></trkpt><trkpt lat="43.291241" lon="11.5411702"><ele>310.0</ele><time>2026-04-26T12:47:57.088Z</time></trkpt><trkpt lat="43.2913032" lon="11.5411421"><ele>310.0</ele><time>2026-04-26T12:48:02.071Z</time></trkpt><trkpt lat="43.2913286" lon="11.5410593"><ele>310.0</ele><time>2026-04-26T12:50:22.074Z</time></trkpt><trkpt lat="43.2913416" lon="11.5408931"><ele>310.0</ele><time>2026-04-26T12:50:24.075Z</time></trkpt><trkpt lat="43.2913434" lon="11.5407881"><ele>308.8</ele><time>2026-04-26T12:50:25.1Z</time></trkpt><trkpt lat="43.2913365" lon="11.5406674"><ele>307.6</ele><time>2026-04-26T12:50:26.069Z</time></trkpt><trkpt lat="43.2913231" lon="11.5405329"><ele>306.4</ele><time>2026-04-26T12:50:27.077Z</time></trkpt><trkpt lat="43.291314" lon="11.5403975"><ele>305.2</ele><time>2026-04-26T12:50:28.095Z</time></trkpt><trkpt lat="43.2913174" lon="11.5402623"><ele>304.0</ele><time>2026-04-26T12:50:29.099Z</time></trkpt><trkpt lat="43.2913362" lon="11.5401262"><ele>303.5</ele><time>2026-04-26T12:50:30.092Z</time></trkpt><trkpt lat="43.2913697" lon="11.5399861"><ele>303.0</ele><time>2026-04-26T12:50:31.091Z</time></trkpt><trkpt lat="43.2914118" lon="11.539841"><ele>302.5</ele><time>2026-04-26T12:50:32.072Z</time></trkpt><trkpt lat="43.2914616" lon="11.53969"><ele>302.0</ele><time>2026-04-26T12:50:33.08Z</time></trkpt><trkpt lat="43.2915174" lon="11.5395363"><ele>305.0</ele><time>2026-04-26T12:50:34.104Z</time></trkpt><trkpt lat="43.2915709" lon="11.5393926"><ele>308.0</ele><time>2026-04-26T12:50:35.076Z</time></trkpt><trkpt lat="43.2916194" lon="11.5392659"><ele>311.0</ele><time>2026-04-26T12:50:36.077Z</time></trkpt><trkpt lat="43.2916638" lon="11.5391547"><ele>314.0</ele><time>2026-04-26T12:50:37.086Z</time></trkpt><trkpt lat="43.2917072" lon="11.5390566"><ele>317.0</ele><time>2026-04-26T12:50:38.072Z</time></trkpt><trkpt lat="43.2917519" lon="11.5389699"><ele>317.0</ele><time>2026-04-26T12:50:39.076Z</time></trkpt><trkpt lat="43.2918056" lon="11.5388966"><ele>317.0</ele><time>2026-04-26T12:50:40.057Z</time></trkpt><trkpt lat="43.2918744" lon="11.5388421"><ele>317.0</ele><time>2026-04-26T12:50:41.069Z</time></trkpt><trkpt lat="43.2919542" lon="11.5388129"><ele>317.0</ele><time>2026-04-26T12:50:42.084Z</time></trkpt><trkpt lat="43.2920436" lon="11.5388108"><ele>317.0</ele><time>2026-04-26T12:50:43.086Z</time></trkpt><trkpt lat="43.2921427" lon="11.5388338"><ele>317.0</ele><time>2026-04-26T12:50:44.07Z</time></trkpt><trkpt lat="43.2922506" lon="11.5388714"><ele>317.0</ele><time>2026-04-26T12:50:45.086Z</time></trkpt><trkpt lat="43.2923612" lon="11.5389065"><ele>317.0</ele><time>2026-04-26T12:50:46.069Z</time></trkpt><trkpt lat="43.2924712" lon="11.5389254"><ele>317.0</ele><time>2026-04-26T12:50:47.069Z</time></trkpt><trkpt lat="43.2925689" lon="11.538929"><ele>317.0</ele><time>2026-04-26T12:50:48.077Z</time></trkpt><trkpt lat="43.2926532" lon="11.5389201"><ele>317.0</ele><time>2026-04-26T12:50:49.079Z</time></trkpt><trkpt lat="43.2927276" lon="11.5388901"><ele>317.0</ele><time>2026-04-26T12:50:50.09Z</time></trkpt><trkpt lat="43.2927938" lon="11.5388351"><ele>317.0</ele><time>2026-04-26T12:50:51.074Z</time></trkpt><trkpt lat="43.2928633" lon="11.5387637"><ele>317.0</ele><time>2026-04-26T12:50:52.076Z</time></trkpt><trkpt lat="43.2929426" lon="11.5386851"><ele>317.0</ele><time>2026-04-26T12:50:53.096Z</time></trkpt><trkpt lat="43.2930353" lon="11.5385962"><ele>317.0</ele><time>2026-04-26T12:50:54.071Z</time></trkpt><trkpt lat="43.2931441" lon="11.5384908"><ele>315.33333333333337</ele><time>2026-04-26T12:50:55.089Z</time></trkpt><trkpt lat="43.293267" lon="11.5383773"><ele>313.6666666666667</ele><time>2026-04-26T12:50:56.097Z</time></trkpt><trkpt lat="43.2934043" lon="11.5382545"><ele>312.0</ele><time>2026-04-26T12:50:57.085Z</time></trkpt><trkpt lat="43.2935517" lon="11.5381231"><ele>312.0</ele><time>2026-04-26T12:50:58.075Z</time></trkpt><trkpt lat="43.2937033" lon="11.5379856"><ele>312.0</ele><time>2026-04-26T12:50:59.079Z</time></trkpt><trkpt lat="43.293853" lon="11.5378434"><ele>312.0</ele><time>2026-04-26T12:51:00.084Z</time></trkpt><trkpt lat="43.2939999" lon="11.5376964"><ele>312.3333333333333</ele><time>2026-04-26T12:51:01.11Z</time></trkpt><trkpt lat="43.2941353" lon="11.5375512"><ele>312.66666666666663</ele><time>2026-04-26T12:51:02.086Z</time></trkpt><trkpt lat="43.2942558" lon="11.5374101"><ele>313.0</ele><time>2026-04-26T12:51:03.097Z</time></trkpt><trkpt lat="43.2943611" lon="11.5372833"><ele>313.0</ele><time>2026-04-26T12:51:04.085Z</time></trkpt><trkpt lat="43.2944546" lon="11.5371737"><ele>313.0</ele><time>2026-04-26T12:51:05.103Z</time></trkpt><trkpt lat="43.2945428" lon="11.5370876"><ele>313.0</ele><time>2026-04-26T12:51:06.092Z</time></trkpt><trkpt lat="43.2946377" lon="11.5370187"><ele>313.0</ele><time>2026-04-26T12:51:07.09Z</time></trkpt><trkpt lat="43.2947402" lon="11.5369572"><ele>311.8</ele><time>2026-04-26T12:51:08.081Z</time></trkpt><trkpt lat="43.2948477" lon="11.5368938"><ele>310.6</ele><time>2026-04-26T12:51:09.091Z</time></trkpt><trkpt lat="43.294951" lon="11.5368386"><ele>309.4</ele><time>2026-04-26T12:51:10.074Z</time></trkpt><trkpt lat="43.2950539" lon="11.5368035"><ele>308.2</ele><time>2026-04-26T12:51:11.089Z</time></trkpt><trkpt lat="43.2951529" lon="11.5367892"><ele>307.0</ele><time>2026-04-26T12:51:12.081Z</time></trkpt><trkpt lat="43.2952472" lon="11.5367704"><ele>307.0</ele><time>2026-04-26T12:51:13.087Z</time></trkpt><trkpt lat="43.2953369" lon="11.5367257"><ele>307.0</ele><time>2026-04-26T12:51:14.068Z</time></trkpt><trkpt lat="43.295423" lon="11.5366514"><ele>307.0</ele><time>2026-04-26T12:51:15.077Z</time></trkpt><trkpt lat="43.2954962" lon="11.5365518"><ele>307.0</ele><time>2026-04-26T12:51:16.064Z</time></trkpt><trkpt lat="43.2955569" lon="11.5364299"><ele>307.0</ele><time>2026-04-26T12:51:17.082Z</time></trkpt><trkpt lat="43.2956093" lon="11.5362932"><ele>311.0</ele><time>2026-04-26T12:51:18.07Z</time></trkpt><trkpt lat="43.295662" lon="11.536143"><ele>315.0</ele><time>2026-04-26T12:51:19.087Z</time></trkpt><trkpt lat="43.2957147" lon="11.5359832"><ele>319.0</ele><time>2026-04-26T12:51:20.103Z</time></trkpt><trkpt lat="43.2957616" lon="11.5358215"><ele>323.0</ele><time>2026-04-26T12:51:21.084Z</time></trkpt><trkpt lat="43.2957931" lon="11.5356578"><ele>323.0</ele><time>2026-04-26T12:51:22.091Z</time></trkpt><trkpt lat="43.2958077" lon="11.5354976"><ele>323.0</ele><time>2026-04-26T12:51:23.084Z</time></trkpt><trkpt lat="43.2958175" lon="11.5353348"><ele>323.0</ele><time>2026-04-26T12:51:24.089Z</time></trkpt><trkpt lat="43.2958317" lon="11.535179"><ele>323.0</ele><time>2026-04-26T12:51:25.096Z</time></trkpt><trkpt lat="43.2958439" lon="11.5350383"><ele>323.79999999999995</ele><time>2026-04-26T12:51:26.077Z</time></trkpt><trkpt lat="43.2958435" lon="11.5349061"><ele>324.6</ele><time>2026-04-26T12:51:27.099Z</time></trkpt><trkpt lat="43.2958224" lon="11.5347905"><ele>325.4</ele><time>2026-04-26T12:51:28.067Z</time></trkpt><trkpt lat="43.2957743" lon="11.534692"><ele>326.20000000000005</ele><time>2026-04-26T12:51:29.086Z</time></trkpt><trkpt lat="43.2956998" lon="11.5346139"><ele>327.0</ele><time>2026-04-26T12:51:30.092Z</time></trkpt><trkpt lat="43.2956063" lon="11.5345429"><ele>327.75</ele><time>2026-04-26T12:51:31.097Z</time></trkpt><trkpt lat="43.2955026" lon="11.5344675"><ele>328.5</ele><time>2026-04-26T12:51:32.087Z</time></trkpt><trkpt lat="43.2953952" lon="11.5343829"><ele>329.25</ele><time>2026-04-26T12:51:33.11Z</time></trkpt><trkpt lat="43.2953015" lon="11.5342882"><ele>330.0</ele><time>2026-04-26T12:51:34.101Z</time></trkpt><trkpt lat="43.2952248" lon="11.5341878"><ele>330.0</ele><time>2026-04-26T12:51:35.099Z</time></trkpt><trkpt lat="43.2951587" lon="11.5340902"><ele>330.0</ele><time>2026-04-26T12:51:36.082Z</time></trkpt><trkpt lat="43.2950892" lon="11.5339983"><ele>330.0</ele><time>2026-04-26T12:51:37.091Z</time></trkpt><trkpt lat="43.2950052" lon="11.5339197"><ele>330.0</ele><time>2026-04-26T12:51:38.069Z</time></trkpt><trkpt lat="43.2949" lon="11.5338547"><ele>330.0</ele><time>2026-04-26T12:51:39.066Z</time></trkpt><trkpt lat="43.2947851" lon="11.5338007"><ele>328.6</ele><time>2026-04-26T12:51:40.071Z</time></trkpt><trkpt lat="43.2946785" lon="11.5337438"><ele>327.2</ele><time>2026-04-26T12:51:41.075Z</time></trkpt><trkpt lat="43.2945896" lon="11.5336701"><ele>325.79999999999995</ele><time>2026-04-26T12:51:42.064Z</time></trkpt><trkpt lat="43.2945227" lon="11.5335708"><ele>324.4</ele><time>2026-04-26T12:51:43.087Z</time></trkpt><trkpt lat="43.2944839" lon="11.5334514"><ele>323.0</ele><time>2026-04-26T12:51:44.102Z</time></trkpt><trkpt lat="43.294472" lon="11.5333193"><ele>323.0</ele><time>2026-04-26T12:51:45.102Z</time></trkpt><trkpt lat="43.2944707" lon="11.5331701"><ele>323.0</ele><time>2026-04-26T12:51:46.09Z</time></trkpt><trkpt lat="43.2944684" lon="11.5330005"><ele>323.0</ele><time>2026-04-26T12:51:47.095Z</time></trkpt><trkpt lat="43.2944681" lon="11.5328225"><ele>323.0</ele><time>2026-04-26T12:51:48.086Z</time></trkpt><trkpt lat="43.2944769" lon="11.5326498"><ele>323.5</ele><time>2026-04-26T12:51:49.087Z</time></trkpt><trkpt lat="43.2944982" lon="11.5324881"><ele>324.0</ele><time>2026-04-26T12:51:50.094Z</time></trkpt><trkpt lat="43.2945309" lon="11.5323279"><ele>324.5</ele><time>2026-04-26T12:51:51.083Z</time></trkpt><trkpt lat="43.294575" lon="11.5321644"><ele>325.0</ele><time>2026-04-26T12:51:52.077Z</time></trkpt><trkpt lat="43.2946249" lon="11.5320089"><ele>325.5</ele><time>2026-04-26T12:51:53.085Z</time></trkpt><trkpt lat="43.294684" lon="11.5318582"><ele>326.0</ele><time>2026-04-26T12:51:54.078Z</time></trkpt><trkpt lat="43.2947568" lon="11.5317045"><ele>326.5</ele><time>2026-04-26T12:51:55.079Z</time></trkpt><trkpt lat="43.2948381" lon="11.5315478"><ele>327.0</ele><time>2026-04-26T12:51:56.083Z</time></trkpt><trkpt lat="43.2949216" lon="11.5313935"><ele>325.25</ele><time>2026-04-26T12:51:57.092Z</time></trkpt><trkpt lat="43.2950021" lon="11.5312504"><ele>323.5</ele><time>2026-04-26T12:51:58.079Z</time></trkpt><trkpt lat="43.2950856" lon="11.5311185"><ele>321.75</ele><time>2026-04-26T12:51:59.079Z</time></trkpt><trkpt lat="43.2951815" lon="11.5310003"><ele>320.0</ele><time>2026-04-26T12:52:00.075Z</time></trkpt><trkpt lat="43.2952924" lon="11.5308942"><ele>320.0</ele><time>2026-04-26T12:52:01.079Z</time></trkpt><trkpt lat="43.2954103" lon="11.5308016"><ele>320.0</ele><time>2026-04-26T12:52:02.066Z</time></trkpt><trkpt lat="43.295528" lon="11.5307203"><ele>320.0</ele><time>2026-04-26T12:52:03.071Z</time></trkpt><trkpt lat="43.295648" lon="11.5306499"><ele>320.0</ele><time>2026-04-26T12:52:04.06Z</time></trkpt><trkpt lat="43.2957798" lon="11.5305827"><ele>317.0</ele><time>2026-04-26T12:52:05.065Z</time></trkpt><trkpt lat="43.2959144" lon="11.5305235"><ele>314.0</ele><time>2026-04-26T12:52:06.071Z</time></trkpt><trkpt lat="43.2960416" lon="11.5304706"><ele>311.0</ele><time>2026-04-26T12:52:07.071Z</time></trkpt><trkpt lat="43.2961598" lon="11.5304218"><ele>308.0</ele><time>2026-04-26T12:52:08.079Z</time></trkpt><trkpt lat="43.2962667" lon="11.5303796"><ele>308.0</ele><time>2026-04-26T12:52:09.095Z</time></trkpt><trkpt lat="43.296362" lon="11.5303415"><ele>308.0</ele><time>2026-04-26T12:52:10.081Z</time></trkpt><trkpt lat="43.2964485" lon="11.530302"><ele>308.0</ele><time>2026-04-26T12:52:11.098Z</time></trkpt><trkpt lat="43.2965215" lon="11.5302595"><ele>308.0</ele><time>2026-04-26T12:52:12.101Z</time></trkpt><trkpt lat="43.2965788" lon="11.530206"><ele>308.0</ele><time>2026-04-26T12:52:13.082Z</time></trkpt><trkpt lat="43.296621" lon="11.530138"><ele>308.0</ele><time>2026-04-26T12:52:14.077Z</time></trkpt><trkpt lat="43.2966398" lon="11.5299756"><ele>308.0</ele><time>2026-04-26T12:52:16.076Z</time></trkpt><trkpt lat="43.296609" lon="11.5298939"><ele>308.0</ele><time>2026-04-26T12:52:17.086Z</time></trkpt><trkpt lat="43.2965525" lon="11.5298221"><ele>308.0</ele><time>2026-04-26T12:52:18.078Z</time></trkpt><trkpt lat="43.2964713" lon="11.5297634"><ele>308.0</ele><time>2026-04-26T12:52:19.088Z</time></trkpt><trkpt lat="43.2963689" lon="11.529712"><ele>308.0</ele><time>2026-04-26T12:52:20.074Z</time></trkpt><trkpt lat="43.2962518" lon="11.5296629"><ele>308.0</ele><time>2026-04-26T12:52:21.091Z</time></trkpt><trkpt lat="43.2961376" lon="11.5296268"><ele>308.0</ele><time>2026-04-26T12:52:22.07Z</time></trkpt><trkpt lat="43.2960301" lon="11.5296028"><ele>308.0</ele><time>2026-04-26T12:52:23.08Z</time></trkpt><trkpt lat="43.2959259" lon="11.5295676"><ele>308.0</ele><time>2026-04-26T12:52:24.072Z</time></trkpt><trkpt lat="43.2958168" lon="11.5295041"><ele>305.8</ele><time>2026-04-26T12:52:25.084Z</time></trkpt><trkpt lat="43.2957073" lon="11.5294247"><ele>303.6</ele><time>2026-04-26T12:52:26.062Z</time></trkpt><trkpt lat="43.2955976" lon="11.5293549"><ele>301.4</ele><time>2026-04-26T12:52:27.091Z</time></trkpt><trkpt lat="43.2954989" lon="11.5293057"><ele>299.2</ele><time>2026-04-26T12:52:28.063Z</time></trkpt><trkpt lat="43.2954125" lon="11.5292633"><ele>297.0</ele><time>2026-04-26T12:52:29.063Z</time></trkpt><trkpt lat="43.2953493" lon="11.5292138"><ele>297.0</ele><time>2026-04-26T12:52:30.052Z</time></trkpt><trkpt lat="43.2953086" lon="11.5290714"><ele>297.0</ele><time>2026-04-26T12:52:32.086Z</time></trkpt><trkpt lat="43.295375" lon="11.5289299"><ele>297.0</ele><time>2026-04-26T12:52:34.09Z</time></trkpt><trkpt lat="43.2954396" lon="11.5288707"><ele>297.0</ele><time>2026-04-26T12:52:35.08Z</time></trkpt><trkpt lat="43.2955206" lon="11.5288109"><ele>297.0</ele><time>2026-04-26T12:52:36.085Z</time></trkpt><trkpt lat="43.295612" lon="11.5287415"><ele>296.0</ele><time>2026-04-26T12:52:37.091Z</time></trkpt><trkpt lat="43.2957013" lon="11.5286653"><ele>295.0</ele><time>2026-04-26T12:52:38.075Z</time></trkpt><trkpt lat="43.2957797" lon="11.5285835"><ele>294.0</ele><time>2026-04-26T12:52:39.095Z</time></trkpt><trkpt lat="43.2958411" lon="11.528489"><ele>293.0</ele><time>2026-04-26T12:52:40.083Z</time></trkpt><trkpt lat="43.2958853" lon="11.5283698"><ele>292.0</ele><time>2026-04-26T12:52:41.087Z</time></trkpt><trkpt lat="43.2959129" lon="11.5282242"><ele>292.0</ele><time>2026-04-26T12:52:42.087Z</time></trkpt><trkpt lat="43.2959293" lon="11.5280585"><ele>292.0</ele><time>2026-04-26T12:52:43.09Z</time></trkpt><trkpt lat="43.2959457" lon="11.52788"><ele>292.0</ele><time>2026-04-26T12:52:44.077Z</time></trkpt><trkpt lat="43.295967" lon="11.5276958"><ele>292.0</ele><time>2026-04-26T12:52:45.091Z</time></trkpt><trkpt lat="43.2959893" lon="11.5275253"><ele>292.0</ele><time>2026-04-26T12:52:46.067Z</time></trkpt><trkpt lat="43.2960131" lon="11.5273682"><ele>292.0</ele><time>2026-04-26T12:52:47.081Z</time></trkpt><trkpt lat="43.2960462" lon="11.5272208"><ele>292.0</ele><time>2026-04-26T12:52:48.074Z</time></trkpt><trkpt lat="43.2960987" lon="11.5270732"><ele>292.0</ele><time>2026-04-26T12:52:49.085Z</time></trkpt><trkpt lat="43.2961673" lon="11.5269291"><ele>291.25</ele><time>2026-04-26T12:52:50.067Z</time></trkpt><trkpt lat="43.2962473" lon="11.5267829"><ele>290.5</ele><time>2026-04-26T12:52:51.091Z</time></trkpt><trkpt lat="43.2963309" lon="11.5266388"><ele>289.75</ele><time>2026-04-26T12:52:52.062Z</time></trkpt><trkpt lat="43.2964177" lon="11.5264994"><ele>289.0</ele><time>2026-04-26T12:52:53.068Z</time></trkpt><trkpt lat="43.2965014" lon="11.5263788"><ele>289.0</ele><time>2026-04-26T12:52:54.078Z</time></trkpt><trkpt lat="43.2965795" lon="11.5262813"><ele>289.0</ele><time>2026-04-26T12:52:55.066Z</time></trkpt><trkpt lat="43.2966519" lon="11.526199"><ele>289.0</ele><time>2026-04-26T12:52:56.079Z</time></trkpt><trkpt lat="43.2967106" lon="11.5261154"><ele>289.0</ele><time>2026-04-26T12:52:57.098Z</time></trkpt><trkpt lat="43.2967492" lon="11.5260119"><ele>289.0</ele><time>2026-04-26T12:52:58.082Z</time></trkpt><trkpt lat="43.296766" lon="11.5258857"><ele>289.0</ele><time>2026-04-26T12:52:59.094Z</time></trkpt><trkpt lat="43.2967618" lon="11.525751"><ele>289.0</ele><time>2026-04-26T12:53:00.076Z</time></trkpt><trkpt lat="43.2967469" lon="11.5256002"><ele>289.0</ele><time>2026-04-26T12:53:01.109Z</time></trkpt><trkpt lat="43.2967407" lon="11.5254385"><ele>289.0</ele><time>2026-04-26T12:53:02.088Z</time></trkpt><trkpt lat="43.2967461" lon="11.5252742"><ele>289.0</ele><time>2026-04-26T12:53:03.103Z</time></trkpt><trkpt lat="43.2967487" lon="11.5251187"><ele>289.75</ele><time>2026-04-26T12:53:04.084Z</time></trkpt><trkpt lat="43.2967323" lon="11.5249671"><ele>290.5</ele><time>2026-04-26T12:53:05.112Z</time></trkpt><trkpt lat="43.2966958" lon="11.5248246"><ele>291.25</ele><time>2026-04-26T12:53:06.092Z</time></trkpt><trkpt lat="43.2966471" lon="11.5246806"><ele>292.0</ele><time>2026-04-26T12:53:07.096Z</time></trkpt><trkpt lat="43.2966007" lon="11.5245347"><ele>294.5</ele><time>2026-04-26T12:53:08.089Z</time></trkpt><trkpt lat="43.2965664" lon="11.5243758"><ele>297.0</ele><time>2026-04-26T12:53:09.097Z</time></trkpt><trkpt lat="43.296543" lon="11.5242023"><ele>299.5</ele><time>2026-04-26T12:53:10.1Z</time></trkpt><trkpt lat="43.2965216" lon="11.5240233"><ele>302.0</ele><time>2026-04-26T12:53:11.073Z</time></trkpt><trkpt lat="43.2964956" lon="11.523839"><ele>303.0</ele><time>2026-04-26T12:53:12.085Z</time></trkpt><trkpt lat="43.2964698" lon="11.5236658"><ele>304.0</ele><time>2026-04-26T12:53:13.085Z</time></trkpt><trkpt lat="43.2964488" lon="11.5235141"><ele>305.0</ele><time>2026-04-26T12:53:14.076Z</time></trkpt><trkpt lat="43.2964333" lon="11.523375"><ele>306.0</ele><time>2026-04-26T12:53:15.077Z</time></trkpt><trkpt lat="43.2964238" lon="11.5232367"><ele>307.0</ele><time>2026-04-26T12:53:16.068Z</time></trkpt><trkpt lat="43.2964185" lon="11.5230938"><ele>306.8</ele><time>2026-04-26T12:53:17.072Z</time></trkpt><trkpt lat="43.2964179" lon="11.5229569"><ele>306.6</ele><time>2026-04-26T12:53:18.076Z</time></trkpt><trkpt lat="43.2964247" lon="11.5228309"><ele>306.40000000000003</ele><time>2026-04-26T12:53:19.078Z</time></trkpt><trkpt lat="43.2964415" lon="11.5227129"><ele>306.2</ele><time>2026-04-26T12:53:20.077Z</time></trkpt><trkpt lat="43.2964728" lon="11.5225957"><ele>306.0</ele><time>2026-04-26T12:53:21.083Z</time></trkpt><trkpt lat="43.2965232" lon="11.5224789"><ele>306.0</ele><time>2026-04-26T12:53:22.076Z</time></trkpt><trkpt lat="43.2965836" lon="11.5223707"><ele>306.0</ele><time>2026-04-26T12:53:23.09Z</time></trkpt><trkpt lat="43.2966335" lon="11.5222675"><ele>306.0</ele><time>2026-04-26T12:53:24.098Z</time></trkpt><trkpt lat="43.2966671" lon="11.5221565"><ele>306.0</ele><time>2026-04-26T12:53:25.087Z</time></trkpt><trkpt lat="43.2966911" lon="11.5220291"><ele>306.0</ele><time>2026-04-26T12:53:26.091Z</time></trkpt><trkpt lat="43.2967114" lon="11.5218978"><ele>304.3333333333333</ele><time>2026-04-26T12:53:27.075Z</time></trkpt><trkpt lat="43.2967357" lon="11.5217789"><ele>302.6666666666667</ele><time>2026-04-26T12:53:28.076Z</time></trkpt><trkpt lat="43.2967751" lon="11.5216783"><ele>301.0</ele><time>2026-04-26T12:53:29.081Z</time></trkpt><trkpt lat="43.2968338" lon="11.5215977"><ele>299.33333333333337</ele><time>2026-04-26T12:53:30.088Z</time></trkpt><trkpt lat="43.2969102" lon="11.5215309"><ele>297.6666666666667</ele><time>2026-04-26T12:53:31.068Z</time></trkpt><trkpt lat="43.297002" lon="11.5214722"><ele>296.0</ele><time>2026-04-26T12:53:32.066Z</time></trkpt><trkpt lat="43.2970998" lon="11.5214236"><ele>296.0</ele><time>2026-04-26T12:53:33.078Z</time></trkpt><trkpt lat="43.2971977" lon="11.5213855"><ele>296.0</ele><time>2026-04-26T12:53:34.083Z</time></trkpt><trkpt lat="43.2973018" lon="11.521362"><ele>296.0</ele><time>2026-04-26T12:53:35.069Z</time></trkpt><trkpt lat="43.2974109" lon="11.5213633"><ele>296.0</ele><time>2026-04-26T12:53:36.076Z</time></trkpt><trkpt lat="43.297517" lon="11.5213947"><ele>296.0</ele><time>2026-04-26T12:53:37.088Z</time></trkpt><trkpt lat="43.2976189" lon="11.5214555"><ele>298.0</ele><time>2026-04-26T12:53:38.076Z</time></trkpt><trkpt lat="43.2977189" lon="11.5215415"><ele>300.0</ele><time>2026-04-26T12:53:39.088Z</time></trkpt><trkpt lat="43.2978118" lon="11.5216381"><ele>302.0</ele><time>2026-04-26T12:53:40.064Z</time></trkpt><trkpt lat="43.2978984" lon="11.5217441"><ele>304.0</ele><time>2026-04-26T12:53:41.075Z</time></trkpt><trkpt lat="43.2979776" lon="11.5218648"><ele>304.0</ele><time>2026-04-26T12:53:42.053Z</time></trkpt><trkpt lat="43.2980519" lon="11.5220028"><ele>304.0</ele><time>2026-04-26T12:53:43.066Z</time></trkpt><trkpt lat="43.2981197" lon="11.5221322"><ele>304.0</ele><time>2026-04-26T12:53:44.065Z</time></trkpt><trkpt lat="43.2981869" lon="11.5222307"><ele>304.0</ele><time>2026-04-26T12:53:45.058Z</time></trkpt><trkpt lat="43.2982616" lon="11.5222905"><ele>304.0</ele><time>2026-04-26T12:53:46.072Z</time></trkpt><trkpt lat="43.2983459" lon="11.5223119"><ele>304.2</ele><time>2026-04-26T12:53:47.083Z</time></trkpt><trkpt lat="43.298438" lon="11.5223022"><ele>304.4</ele><time>2026-04-26T12:53:48.066Z</time></trkpt><trkpt lat="43.2985314" lon="11.5222798"><ele>304.6</ele><time>2026-04-26T12:53:49.082Z</time></trkpt><trkpt lat="43.2986218" lon="11.5222782"><ele>304.8</ele><time>2026-04-26T12:53:50.06Z</time></trkpt><trkpt lat="43.298716" lon="11.5223208"><ele>305.0</ele><time>2026-04-26T12:53:51.099Z</time></trkpt><trkpt lat="43.298802" lon="11.5223971"><ele>305.0</ele><time>2026-04-26T12:53:52.07Z</time></trkpt><trkpt lat="43.2988818" lon="11.5224755"><ele>305.0</ele><time>2026-04-26T12:53:53.068Z</time></trkpt><trkpt lat="43.2989715" lon="11.5225238"><ele>305.0</ele><time>2026-04-26T12:53:54.075Z</time></trkpt><trkpt lat="43.2990755" lon="11.5225399"><ele>305.0</ele><time>2026-04-26T12:53:55.068Z</time></trkpt><trkpt lat="43.2991872" lon="11.5225346"><ele>305.0</ele><time>2026-04-26T12:53:56.097Z</time></trkpt><trkpt lat="43.2992913" lon="11.5225165"><ele>303.8</ele><time>2026-04-26T12:53:57.1Z</time></trkpt><trkpt lat="43.2993902" lon="11.522486"><ele>302.6</ele><time>2026-04-26T12:53:58.07Z</time></trkpt><trkpt lat="43.2994871" lon="11.5224376"><ele>301.4</ele><time>2026-04-26T12:53:59.075Z</time></trkpt><trkpt lat="43.2995783" lon="11.5223763"><ele>300.2</ele><time>2026-04-26T12:54:00.081Z</time></trkpt><trkpt lat="43.2996676" lon="11.5223157"><ele>299.0</ele><time>2026-04-26T12:54:01.089Z</time></trkpt><trkpt lat="43.29976" lon="11.5222686"><ele>299.0</ele><time>2026-04-26T12:54:02.062Z</time></trkpt><trkpt lat="43.2998681" lon="11.5222441"><ele>299.0</ele><time>2026-04-26T12:54:03.067Z</time></trkpt><trkpt lat="43.299988" lon="11.5222388"><ele>299.0</ele><time>2026-04-26T12:54:04.054Z</time></trkpt><trkpt lat="43.3001132" lon="11.5222453"><ele>299.0</ele><time>2026-04-26T12:54:05.068Z</time></trkpt><trkpt lat="43.3002255" lon="11.5222672"><ele>299.0</ele><time>2026-04-26T12:54:06.052Z</time></trkpt><trkpt lat="43.30032" lon="11.5223074"><ele>299.0</ele><time>2026-04-26T12:54:07.056Z</time></trkpt><trkpt lat="43.3004068" lon="11.5223569"><ele>299.0</ele><time>2026-04-26T12:54:08.063Z</time></trkpt><trkpt lat="43.3004987" lon="11.5224089"><ele>299.0</ele><time>2026-04-26T12:54:09.066Z</time></trkpt><trkpt lat="43.3005997" lon="11.5224596"><ele>299.0</ele><time>2026-04-26T12:54:10.064Z</time></trkpt><trkpt lat="43.3007096" lon="11.5225016"><ele>298.0</ele><time>2026-04-26T12:54:11.067Z</time></trkpt><trkpt lat="43.3008232" lon="11.5225324"><ele>297.0</ele><time>2026-04-26T12:54:12.075Z</time></trkpt><trkpt lat="43.3009345" lon="11.5225625"><ele>296.0</ele><time>2026-04-26T12:54:13.079Z</time></trkpt><trkpt lat="43.3010354" lon="11.5226004"><ele>295.0</ele><time>2026-04-26T12:54:14.067Z</time></trkpt><trkpt lat="43.30113" lon="11.5226456"><ele>294.0</ele><time>2026-04-26T12:54:15.081Z</time></trkpt><trkpt lat="43.301219" lon="11.5226927"><ele>294.0</ele><time>2026-04-26T12:54:16.056Z</time></trkpt><trkpt lat="43.3013014" lon="11.5227426"><ele>294.0</ele><time>2026-04-26T12:54:17.07Z</time></trkpt><trkpt lat="43.3013805" lon="11.522794"><ele>294.0</ele><time>2026-04-26T12:54:18.058Z</time></trkpt><trkpt lat="43.3014666" lon="11.522838"><ele>294.0</ele><time>2026-04-26T12:54:19.072Z</time></trkpt><trkpt lat="43.3015604" lon="11.5228694"><ele>294.0</ele><time>2026-04-26T12:54:20.088Z</time></trkpt><trkpt lat="43.3016616" lon="11.5228912"><ele>297.8</ele><time>2026-04-26T12:54:21.063Z</time></trkpt><trkpt lat="43.3017742" lon="11.5229096"><ele>301.59999999999997</ele><time>2026-04-26T12:54:22.073Z</time></trkpt><trkpt lat="43.3018892" lon="11.5229255"><ele>305.4</ele><time>2026-04-26T12:54:23.085Z</time></trkpt><trkpt lat="43.3019931" lon="11.5229379"><ele>309.2</ele><time>2026-04-26T12:54:24.074Z</time></trkpt><trkpt lat="43.3020912" lon="11.5229424"><ele>313.0</ele><time>2026-04-26T12:54:25.066Z</time></trkpt><trkpt lat="43.3021921" lon="11.52293"><ele>307.75</ele><time>2026-04-26T12:54:26.055Z</time></trkpt><trkpt lat="43.3022988" lon="11.522895"><ele>302.5</ele><time>2026-04-26T12:54:27.056Z</time></trkpt><trkpt lat="43.3024127" lon="11.5228435"><ele>297.25</ele><time>2026-04-26T12:54:28.062Z</time></trkpt><trkpt lat="43.3025315" lon="11.5227905"><ele>292.0</ele><time>2026-04-26T12:54:29.064Z</time></trkpt><trkpt lat="43.302645" lon="11.5227442"><ele>292.0</ele><time>2026-04-26T12:54:30.051Z</time></trkpt><trkpt lat="43.3027576" lon="11.52271"><ele>292.0</ele><time>2026-04-26T12:54:31.06Z</time></trkpt><trkpt lat="43.3028708" lon="11.522691"><ele>292.0</ele><time>2026-04-26T12:54:32.048Z</time></trkpt><trkpt lat="43.302982" lon="11.5226858"><ele>292.0</ele><time>2026-04-26T12:54:33.059Z</time></trkpt><trkpt lat="43.3030873" lon="11.5226925"><ele>292.0</ele><time>2026-04-26T12:54:34.071Z</time></trkpt><trkpt lat="43.3031817" lon="11.5227108"><ele>291.4</ele><time>2026-04-26T12:54:35.072Z</time></trkpt><trkpt lat="43.3032699" lon="11.5227486"><ele>290.79999999999995</ele><time>2026-04-26T12:54:36.085Z</time></trkpt><trkpt lat="43.3033533" lon="11.5228114"><ele>290.2</ele><time>2026-04-26T12:54:37.086Z</time></trkpt><trkpt lat="43.3034294" lon="11.5228997"><ele>289.59999999999997</ele><time>2026-04-26T12:54:38.067Z</time></trkpt><trkpt lat="43.3035017" lon="11.5230145"><ele>289.0</ele><time>2026-04-26T12:54:39.076Z</time></trkpt><trkpt lat="43.3035748" lon="11.5231493"><ele>293.75</ele><time>2026-04-26T12:54:40.073Z</time></trkpt><trkpt lat="43.3036539" lon="11.5232961"><ele>298.5</ele><time>2026-04-26T12:54:41.085Z</time></trkpt><trkpt lat="43.3037342" lon="11.5234387"><ele>303.25</ele><time>2026-04-26T12:54:42.074Z</time></trkpt><trkpt lat="43.3038073" lon="11.523567"><ele>308.0</ele><time>2026-04-26T12:54:43.072Z</time></trkpt><trkpt lat="43.3038771" lon="11.5236775"><ele>305.2</ele><time>2026-04-26T12:54:44.076Z</time></trkpt><trkpt lat="43.3039488" lon="11.5237638"><ele>302.4</ele><time>2026-04-26T12:54:45.068Z</time></trkpt><trkpt lat="43.3040271" lon="11.5238239"><ele>299.59999999999997</ele><time>2026-04-26T12:54:46.065Z</time></trkpt><trkpt lat="43.3041094" lon="11.5238558"><ele>296.8</ele><time>2026-04-26T12:54:47.054Z</time></trkpt><trkpt lat="43.3041976" lon="11.523854"><ele>294.0</ele><time>2026-04-26T12:54:48.068Z</time></trkpt><trkpt lat="43.3042887" lon="11.5238196"><ele>294.0</ele><time>2026-04-26T12:54:49.074Z</time></trkpt><trkpt lat="43.3043745" lon="11.5237537"><ele>294.0</ele><time>2026-04-26T12:54:50.075Z</time></trkpt><trkpt lat="43.3044548" lon="11.5236572"><ele>294.0</ele><time>2026-04-26T12:54:51.075Z</time></trkpt><trkpt lat="43.3045337" lon="11.5235374"><ele>294.0</ele><time>2026-04-26T12:54:52.055Z</time></trkpt><trkpt lat="43.3046082" lon="11.5234135"><ele>294.0</ele><time>2026-04-26T12:54:53.06Z</time></trkpt><trkpt lat="43.3046796" lon="11.5233091"><ele>297.0</ele><time>2026-04-26T12:54:54.052Z</time></trkpt><trkpt lat="43.3047645" lon="11.5232235"><ele>300.0</ele><time>2026-04-26T12:54:55.057Z</time></trkpt><trkpt lat="43.3048647" lon="11.5231509"><ele>303.0</ele><time>2026-04-26T12:54:56.04Z</time></trkpt><trkpt lat="43.3049777" lon="11.5230855"><ele>306.0</ele><time>2026-04-26T12:54:57.051Z</time></trkpt><trkpt lat="43.305097" lon="11.5230209"><ele>306.0</ele><time>2026-04-26T12:54:58.05Z</time></trkpt><trkpt lat="43.3052202" lon="11.5229544"><ele>306.0</ele><time>2026-04-26T12:54:59.058Z</time></trkpt><trkpt lat="43.3053455" lon="11.5228957"><ele>306.0</ele><time>2026-04-26T12:55:00.086Z</time></trkpt><trkpt lat="43.3054628" lon="11.5228471"><ele>306.0</ele><time>2026-04-26T12:55:01.062Z</time></trkpt><trkpt lat="43.305569" lon="11.5228085"><ele>307.6</ele><time>2026-04-26T12:55:02.067Z</time></trkpt><trkpt lat="43.3056651" lon="11.5227916"><ele>309.20000000000005</ele><time>2026-04-26T12:55:03.054Z</time></trkpt><trkpt lat="43.3057591" lon="11.5228005"><ele>310.79999999999995</ele><time>2026-04-26T12:55:04.053Z</time></trkpt><trkpt lat="43.3058584" lon="11.5228306"><ele>312.4</ele><time>2026-04-26T12:55:05.056Z</time></trkpt><trkpt lat="43.3059647" lon="11.5228753"><ele>314.0</ele><time>2026-04-26T12:55:06.059Z</time></trkpt><trkpt lat="43.3060755" lon="11.5229248"><ele>315.0</ele><time>2026-04-26T12:55:07.048Z</time></trkpt><trkpt lat="43.3061874" lon="11.5229709"><ele>316.0</ele><time>2026-04-26T12:55:08.054Z</time></trkpt><trkpt lat="43.3062987" lon="11.5230005"><ele>317.0</ele><time>2026-04-26T12:55:09.05Z</time></trkpt><trkpt lat="43.3064164" lon="11.5230198"><ele>318.0</ele><time>2026-04-26T12:55:10.052Z</time></trkpt><trkpt lat="43.3065372" lon="11.5230346"><ele>319.75</ele><time>2026-04-26T12:55:11.043Z</time></trkpt><trkpt lat="43.3066608" lon="11.5230482"><ele>321.5</ele><time>2026-04-26T12:55:12.059Z</time></trkpt><trkpt lat="43.3067848" lon="11.5230628"><ele>323.25</ele><time>2026-04-26T12:55:13.042Z</time></trkpt><trkpt lat="43.3069114" lon="11.5230715"><ele>325.0</ele><time>2026-04-26T12:55:14.054Z</time></trkpt><trkpt lat="43.3070383" lon="11.523076"><ele>325.0</ele><time>2026-04-26T12:55:15.062Z</time></trkpt><trkpt lat="43.3071611" lon="11.5230821"><ele>325.0</ele><time>2026-04-26T12:55:16.061Z</time></trkpt><trkpt lat="43.3072773" lon="11.523095"><ele>325.0</ele><time>2026-04-26T12:55:17.051Z</time></trkpt><trkpt lat="43.307382" lon="11.5231217"><ele>325.0</ele><time>2026-04-26T12:55:18.052Z</time></trkpt><trkpt lat="43.3074679" lon="11.5231652"><ele>325.0</ele><time>2026-04-26T12:55:19.047Z</time></trkpt><trkpt lat="43.3075418" lon="11.5232277"><ele>325.2</ele><time>2026-04-26T12:55:20.057Z</time></trkpt><trkpt lat="43.3076064" lon="11.5233041"><ele>325.4</ele><time>2026-04-26T12:55:21.063Z</time></trkpt><trkpt lat="43.3076717" lon="11.5233822"><ele>325.6</ele><time>2026-04-26T12:55:22.084Z</time></trkpt><trkpt lat="43.3077496" lon="11.523454"><ele>325.8</ele><time>2026-04-26T12:55:23.074Z</time></trkpt><trkpt lat="43.307842" lon="11.5235271"><ele>326.0</ele><time>2026-04-26T12:55:24.078Z</time></trkpt><trkpt lat="43.3079431" lon="11.5236052"><ele>326.0</ele><time>2026-04-26T12:55:25.083Z</time></trkpt><trkpt lat="43.3080456" lon="11.5236862"><ele>326.0</ele><time>2026-04-26T12:55:26.068Z</time></trkpt><trkpt lat="43.308142" lon="11.5237633"><ele>326.0</ele><time>2026-04-26T12:55:27.068Z</time></trkpt><trkpt lat="43.3082286" lon="11.5238294"><ele>326.0</ele><time>2026-04-26T12:55:28.084Z</time></trkpt><trkpt lat="43.3083052" lon="11.523887"><ele>326.0</ele><time>2026-04-26T12:55:29.066Z</time></trkpt><trkpt lat="43.3083748" lon="11.5239429"><ele>326.0</ele><time>2026-04-26T12:55:30.079Z</time></trkpt><trkpt lat="43.3084355" lon="11.5240015"><ele>326.0</ele><time>2026-04-26T12:55:31.094Z</time></trkpt><trkpt lat="43.3084898" lon="11.5240683"><ele>326.0</ele><time>2026-04-26T12:55:32.078Z</time></trkpt><trkpt lat="43.3085421" lon="11.5241439"><ele>326.0</ele><time>2026-04-26T12:55:33.076Z</time></trkpt><trkpt lat="43.3085895" lon="11.524224"><ele>326.0</ele><time>2026-04-26T12:55:34.057Z</time></trkpt><trkpt lat="43.3086331" lon="11.5243015"><ele>326.0</ele><time>2026-04-26T12:55:35.068Z</time></trkpt><trkpt lat="43.3087084" lon="11.5244116"><ele>326.0</ele><time>2026-04-26T12:55:37.076Z</time></trkpt><trkpt lat="43.3087823" lon="11.5244149"><ele>326.0</ele><time>2026-04-26T12:55:39.082Z</time></trkpt><trkpt lat="43.3088275" lon="11.5243053"><ele>326.0</ele><time>2026-04-26T12:55:41.076Z</time></trkpt><trkpt lat="43.3088512" lon="11.5242205"><ele>326.0</ele><time>2026-04-26T12:55:42.07Z</time></trkpt><trkpt lat="43.3088758" lon="11.5241215"><ele>326.0</ele><time>2026-04-26T12:55:43.058Z</time></trkpt><trkpt lat="43.3088955" lon="11.5240078"><ele>326.0</ele><time>2026-04-26T12:55:44.057Z</time></trkpt><trkpt lat="43.3089051" lon="11.5238818"><ele>326.0</ele><time>2026-04-26T12:55:45.049Z</time></trkpt><trkpt lat="43.3088996" lon="11.5237484"><ele>326.0</ele><time>2026-04-26T12:55:46.061Z</time></trkpt><trkpt lat="43.3088801" lon="11.5236183"><ele>326.0</ele><time>2026-04-26T12:55:47.063Z</time></trkpt><trkpt lat="43.3088583" lon="11.5234953"><ele>326.0</ele><time>2026-04-26T12:55:48.053Z</time></trkpt><trkpt lat="43.3088523" lon="11.5233766"><ele>326.0</ele><time>2026-04-26T12:55:49.057Z</time></trkpt><trkpt lat="43.3088731" lon="11.5232658"><ele>324.0</ele><time>2026-04-26T12:55:50.068Z</time></trkpt><trkpt lat="43.3089141" lon="11.5231688"><ele>322.0</ele><time>2026-04-26T12:55:51.069Z</time></trkpt><trkpt lat="43.3089694" lon="11.5230772"><ele>320.0</ele><time>2026-04-26T12:55:52.073Z</time></trkpt><trkpt lat="43.3090377" lon="11.5229829"><ele>318.0</ele><time>2026-04-26T12:55:53.075Z</time></trkpt><trkpt lat="43.3091189" lon="11.5228937"><ele>316.0</ele><time>2026-04-26T12:55:54.054Z</time></trkpt><trkpt lat="43.3092151" lon="11.5228159"><ele>314.5</ele><time>2026-04-26T12:55:55.082Z</time></trkpt><trkpt lat="43.3093195" lon="11.5227447"><ele>313.0</ele><time>2026-04-26T12:55:56.074Z</time></trkpt><trkpt lat="43.3094271" lon="11.5226717"><ele>311.5</ele><time>2026-04-26T12:55:57.081Z</time></trkpt><trkpt lat="43.3095321" lon="11.5225959"><ele>310.0</ele><time>2026-04-26T12:55:58.083Z</time></trkpt><trkpt lat="43.3096309" lon="11.5225125"><ele>310.0</ele><time>2026-04-26T12:55:59.09Z</time></trkpt><trkpt lat="43.3097179" lon="11.522409"><ele>310.0</ele><time>2026-04-26T12:56:00.083Z</time></trkpt><trkpt lat="43.3097895" lon="11.5222781"><ele>310.0</ele><time>2026-04-26T12:56:01.11Z</time></trkpt><trkpt lat="43.3098387" lon="11.5221252"><ele>310.0</ele><time>2026-04-26T12:56:02.102Z</time></trkpt><trkpt lat="43.309862" lon="11.5219547"><ele>308.75</ele><time>2026-04-26T12:56:03.091Z</time></trkpt><trkpt lat="43.3098557" lon="11.5217745"><ele>307.5</ele><time>2026-04-26T12:56:04.074Z</time></trkpt><trkpt lat="43.3098205" lon="11.5215896"><ele>306.25</ele><time>2026-04-26T12:56:05.085Z</time></trkpt><trkpt lat="43.3097712" lon="11.5214083"><ele>305.0</ele><time>2026-04-26T12:56:06.069Z</time></trkpt><trkpt lat="43.3097274" lon="11.5212217"><ele>299.33333333333337</ele><time>2026-04-26T12:56:07.076Z</time></trkpt><trkpt lat="43.3096998" lon="11.5210229"><ele>293.6666666666667</ele><time>2026-04-26T12:56:08.097Z</time></trkpt><trkpt lat="43.3096839" lon="11.5208145"><ele>288.0</ele><time>2026-04-26T12:56:09.081Z</time></trkpt><trkpt lat="43.3096708" lon="11.5206024"><ele>288.0</ele><time>2026-04-26T12:56:10.083Z</time></trkpt><trkpt lat="43.3096576" lon="11.5204007"><ele>288.0</ele><time>2026-04-26T12:56:11.074Z</time></trkpt><trkpt lat="43.3096468" lon="11.5202112"><ele>288.0</ele><time>2026-04-26T12:56:12.091Z</time></trkpt><trkpt lat="43.3096413" lon="11.5200381"><ele>288.0</ele><time>2026-04-26T12:56:13.091Z</time></trkpt><trkpt lat="43.3096506" lon="11.5198667"><ele>290.0</ele><time>2026-04-26T12:56:14.096Z</time></trkpt><trkpt lat="43.3096877" lon="11.5196903"><ele>292.0</ele><time>2026-04-26T12:56:15.083Z</time></trkpt><trkpt lat="43.3097467" lon="11.5195048"><ele>294.0</ele><time>2026-04-26T12:56:16.089Z</time></trkpt><trkpt lat="43.3098137" lon="11.5193174"><ele>296.0</ele><time>2026-04-26T12:56:17.1Z</time></trkpt><trkpt lat="43.3098723" lon="11.5191384"><ele>296.0</ele><time>2026-04-26T12:56:18.103Z</time></trkpt><trkpt lat="43.3099122" lon="11.5189597"><ele>296.0</ele><time>2026-04-26T12:56:19.104Z</time></trkpt><trkpt lat="43.3099286" lon="11.5187695"><ele>296.0</ele><time>2026-04-26T12:56:20.09Z</time></trkpt><trkpt lat="43.3099166" lon="11.5185666"><ele>296.0</ele><time>2026-04-26T12:56:21.111Z</time></trkpt><trkpt lat="43.3098781" lon="11.5183632"><ele>295.6666666666667</ele><time>2026-04-26T12:56:22.09Z</time></trkpt><trkpt lat="43.3098179" lon="11.518155"><ele>295.3333333333333</ele><time>2026-04-26T12:56:23.089Z</time></trkpt><trkpt lat="43.3097359" lon="11.5179557"><ele>295.0</ele><time>2026-04-26T12:56:24.095Z</time></trkpt><trkpt lat="43.3096303" lon="11.517774"><ele>293.3333333333333</ele><time>2026-04-26T12:56:25.1Z</time></trkpt><trkpt lat="43.3095102" lon="11.5176153"><ele>291.6666666666667</ele><time>2026-04-26T12:56:26.094Z</time></trkpt><trkpt lat="43.3093918" lon="11.5174727"><ele>290.0</ele><time>2026-04-26T12:56:27.099Z</time></trkpt><trkpt lat="43.3092933" lon="11.5173299"><ele>290.0</ele><time>2026-04-26T12:56:28.08Z</time></trkpt><trkpt lat="43.3092204" lon="11.5171759"><ele>290.0</ele><time>2026-04-26T12:56:29.095Z</time></trkpt><trkpt lat="43.3091761" lon="11.5170191"><ele>290.0</ele><time>2026-04-26T12:56:30.089Z</time></trkpt><trkpt lat="43.3091647" lon="11.5168545"><ele>290.0</ele><time>2026-04-26T12:56:31.091Z</time></trkpt><trkpt lat="43.3091898" lon="11.5166948"><ele>291.0</ele><time>2026-04-26T12:56:32.075Z</time></trkpt><trkpt lat="43.309251" lon="11.5165594"><ele>292.0</ele><time>2026-04-26T12:56:33.08Z</time></trkpt><trkpt lat="43.3093419" lon="11.5164427"><ele>293.0</ele><time>2026-04-26T12:56:34.075Z</time></trkpt><trkpt lat="43.3094517" lon="11.5163185"><ele>294.0</ele><time>2026-04-26T12:56:35.076Z</time></trkpt><trkpt lat="43.3095716" lon="11.5161715"><ele>295.3333333333333</ele><time>2026-04-26T12:56:36.083Z</time></trkpt><trkpt lat="43.3096971" lon="11.5160113"><ele>296.66666666666663</ele><time>2026-04-26T12:56:37.094Z</time></trkpt><trkpt lat="43.3098214" lon="11.5158568"><ele>298.0</ele><time>2026-04-26T12:56:38.084Z</time></trkpt><trkpt lat="43.3099437" lon="11.51571"><ele>295.0</ele><time>2026-04-26T12:56:39.131Z</time></trkpt><trkpt lat="43.3100621" lon="11.515586"><ele>292.0</ele><time>2026-04-26T12:56:40.091Z</time></trkpt><trkpt lat="43.3101907" lon="11.5154822"><ele>289.0</ele><time>2026-04-26T12:56:41.094Z</time></trkpt><trkpt lat="43.310333" lon="11.5153993"><ele>287.0</ele><time>2026-04-26T12:56:42.081Z</time></trkpt><trkpt lat="43.3104915" lon="11.5153295"><ele>285.0</ele><time>2026-04-26T12:56:43.098Z</time></trkpt><trkpt lat="43.3106584" lon="11.5152707"><ele>283.0</ele><time>2026-04-26T12:56:44.088Z</time></trkpt><trkpt lat="43.3108315" lon="11.5152169"><ele>283.0</ele><time>2026-04-26T12:56:45.1Z</time></trkpt><trkpt lat="43.3110035" lon="11.515178"><ele>283.0</ele><time>2026-04-26T12:56:46.095Z</time></trkpt><trkpt lat="43.3111772" lon="11.5151624"><ele>283.0</ele><time>2026-04-26T12:56:47.103Z</time></trkpt><trkpt lat="43.3113496" lon="11.5151633"><ele>285.0</ele><time>2026-04-26T12:56:48.093Z</time></trkpt><trkpt lat="43.3115151" lon="11.515167"><ele>287.0</ele><time>2026-04-26T12:56:49.112Z</time></trkpt><trkpt lat="43.3116626" lon="11.5151684"><ele>289.0</ele><time>2026-04-26T12:56:50.101Z</time></trkpt><trkpt lat="43.3117957" lon="11.5151554"><ele>291.0</ele><time>2026-04-26T12:56:51.104Z</time></trkpt><trkpt lat="43.3119111" lon="11.5151108"><ele>291.0</ele><time>2026-04-26T12:56:52.085Z</time></trkpt><trkpt lat="43.3120127" lon="11.5150281"><ele>291.0</ele><time>2026-04-26T12:56:53.091Z</time></trkpt><trkpt lat="43.3120966" lon="11.5149142"><ele>291.0</ele><time>2026-04-26T12:56:54.091Z</time></trkpt><trkpt lat="43.3121651" lon="11.5147754"><ele>291.0</ele><time>2026-04-26T12:56:55.097Z</time></trkpt><trkpt lat="43.3122314" lon="11.5146263"><ele>292.5</ele><time>2026-04-26T12:56:56.079Z</time></trkpt><trkpt lat="43.3123044" lon="11.5144754"><ele>294.0</ele><time>2026-04-26T12:56:57.095Z</time></trkpt><trkpt lat="43.312386" lon="11.5143376"><ele>295.5</ele><time>2026-04-26T12:56:58.072Z</time></trkpt><trkpt lat="43.3124841" lon="11.5142123"><ele>297.0</ele><time>2026-04-26T12:56:59.074Z</time></trkpt><trkpt lat="43.3126019" lon="11.5141005"><ele>297.0</ele><time>2026-04-26T12:57:00.074Z</time></trkpt><trkpt lat="43.3127374" lon="11.5139967"><ele>297.0</ele><time>2026-04-26T12:57:01.075Z</time></trkpt><trkpt lat="43.3128822" lon="11.5139073"><ele>297.0</ele><time>2026-04-26T12:57:02.103Z</time></trkpt><trkpt lat="43.3130227" lon="11.5138548"><ele>297.5</ele><time>2026-04-26T12:57:03.103Z</time></trkpt><trkpt lat="43.3131578" lon="11.5138481"><ele>298.0</ele><time>2026-04-26T12:57:04.078Z</time></trkpt><trkpt lat="43.3132989" lon="11.5138835"><ele>298.5</ele><time>2026-04-26T12:57:05.104Z</time></trkpt><trkpt lat="43.3134401" lon="11.5139528"><ele>299.0</ele><time>2026-04-26T12:57:06.085Z</time></trkpt><trkpt lat="43.3135806" lon="11.5140476"><ele>299.0</ele><time>2026-04-26T12:57:07.101Z</time></trkpt><trkpt lat="43.3137185" lon="11.514163"><ele>299.0</ele><time>2026-04-26T12:57:08.107Z</time></trkpt><trkpt lat="43.3138562" lon="11.5143"><ele>299.0</ele><time>2026-04-26T12:57:09.097Z</time></trkpt><trkpt lat="43.3139798" lon="11.5144438"><ele>299.0</ele><time>2026-04-26T12:57:10.094Z</time></trkpt><trkpt lat="43.3140791" lon="11.5145624"><ele>299.0</ele><time>2026-04-26T12:57:11.098Z</time></trkpt><trkpt lat="43.3141686" lon="11.5146376"><ele>299.0</ele><time>2026-04-26T12:57:12.091Z</time></trkpt><trkpt lat="43.3142613" lon="11.5146633"><ele>299.0</ele><time>2026-04-26T12:57:13.104Z</time></trkpt><trkpt lat="43.3143533" lon="11.5146376"><ele>299.0</ele><time>2026-04-26T12:57:14.104Z</time></trkpt><trkpt lat="43.3144435" lon="11.5145686"><ele>299.25</ele><time>2026-04-26T12:57:15.105Z</time></trkpt><trkpt lat="43.3145299" lon="11.5144645"><ele>299.5</ele><time>2026-04-26T12:57:16.092Z</time></trkpt><trkpt lat="43.3146094" lon="11.5143294"><ele>299.75</ele><time>2026-04-26T12:57:17.102Z</time></trkpt><trkpt lat="43.3146788" lon="11.5141864"><ele>300.0</ele><time>2026-04-26T12:57:18.09Z</time></trkpt><trkpt lat="43.3147482" lon="11.5140609"><ele>300.8</ele><time>2026-04-26T12:57:19.095Z</time></trkpt><trkpt lat="43.3148277" lon="11.5139691"><ele>301.6</ele><time>2026-04-26T12:57:20.077Z</time></trkpt><trkpt lat="43.314921" lon="11.5139135"><ele>302.4</ele><time>2026-04-26T12:57:21.068Z</time></trkpt><trkpt lat="43.3150204" lon="11.5138886"><ele>303.2</ele><time>2026-04-26T12:57:22.07Z</time></trkpt><trkpt lat="43.3151233" lon="11.5138804"><ele>304.0</ele><time>2026-04-26T12:57:23.064Z</time></trkpt><trkpt lat="43.3152305" lon="11.513877"><ele>304.0</ele><time>2026-04-26T12:57:24.083Z</time></trkpt><trkpt lat="43.3153344" lon="11.5138846"><ele>304.0</ele><time>2026-04-26T12:57:25.085Z</time></trkpt><trkpt lat="43.3154276" lon="11.5139209"><ele>304.0</ele><time>2026-04-26T12:57:26.076Z</time></trkpt><trkpt lat="43.3154986" lon="11.5139974"><ele>304.0</ele><time>2026-04-26T12:57:27.095Z</time></trkpt><trkpt lat="43.3155407" lon="11.51411"><ele>304.0</ele><time>2026-04-26T12:57:28.089Z</time></trkpt><trkpt lat="43.3155649" lon="11.5142535"><ele>302.75</ele><time>2026-04-26T12:57:29.09Z</time></trkpt><trkpt lat="43.315583" lon="11.5144215"><ele>301.5</ele><time>2026-04-26T12:57:30.081Z</time></trkpt><trkpt lat="43.3156054" lon="11.5146009"><ele>300.25</ele><time>2026-04-26T12:57:31.108Z</time></trkpt><trkpt lat="43.3156405" lon="11.5147695"><ele>299.0</ele><time>2026-04-26T12:57:32.067Z</time></trkpt><trkpt lat="43.3157023" lon="11.5149352"><ele>299.0</ele><time>2026-04-26T12:57:33.094Z</time></trkpt><trkpt lat="43.3157885" lon="11.5150843"><ele>299.0</ele><time>2026-04-26T12:57:34.084Z</time></trkpt><trkpt lat="43.3158961" lon="11.5152048"><ele>299.0</ele><time>2026-04-26T12:57:35.094Z</time></trkpt><trkpt lat="43.3160212" lon="11.5152748"><ele>299.0</ele><time>2026-04-26T12:57:36.098Z</time></trkpt><trkpt lat="43.3161605" lon="11.5152913"><ele>299.0</ele><time>2026-04-26T12:57:37.103Z</time></trkpt><trkpt lat="43.3163106" lon="11.5152617"><ele>299.0</ele><time>2026-04-26T12:57:38.095Z</time></trkpt><trkpt lat="43.3164692" lon="11.5152047"><ele>299.0</ele><time>2026-04-26T12:57:39.104Z</time></trkpt><trkpt lat="43.3166279" lon="11.5151352"><ele>299.33333333333337</ele><time>2026-04-26T12:57:40.094Z</time></trkpt><trkpt lat="43.3167884" lon="11.515059"><ele>299.6666666666667</ele><time>2026-04-26T12:57:41.105Z</time></trkpt><trkpt lat="43.316945" lon="11.5149829"><ele>300.0</ele><time>2026-04-26T12:57:42.091Z</time></trkpt><trkpt lat="43.3170962" lon="11.5149183"><ele>300.25</ele><time>2026-04-26T12:57:43.096Z</time></trkpt><trkpt lat="43.3172358" lon="11.5148625"><ele>300.5</ele><time>2026-04-26T12:57:44.088Z</time></trkpt><trkpt lat="43.3173607" lon="11.5147916"><ele>300.75</ele><time>2026-04-26T12:57:45.105Z</time></trkpt><trkpt lat="43.3174618" lon="11.514682"><ele>301.0</ele><time>2026-04-26T12:57:46.076Z</time></trkpt><trkpt lat="43.3175458" lon="11.5145287"><ele>301.0</ele><time>2026-04-26T12:57:47.094Z</time></trkpt><trkpt lat="43.3176127" lon="11.5143471"><ele>301.0</ele><time>2026-04-26T12:57:48.074Z</time></trkpt><trkpt lat="43.3176685" lon="11.5141389"><ele>301.0</ele><time>2026-04-26T12:57:49.096Z</time></trkpt><trkpt lat="43.3177146" lon="11.5139319"><ele>301.0</ele><time>2026-04-26T12:57:50.086Z</time></trkpt><trkpt lat="43.3177681" lon="11.5137442"><ele>301.0</ele><time>2026-04-26T12:57:51.105Z</time></trkpt><trkpt lat="43.317845" lon="11.5135937"><ele>301.0</ele><time>2026-04-26T12:57:52.091Z</time></trkpt><trkpt lat="43.3179478" lon="11.5134856"><ele>301.0</ele><time>2026-04-26T12:57:53.096Z</time></trkpt><trkpt lat="43.3180741" lon="11.5134202"><ele>300.25</ele><time>2026-04-26T12:57:54.099Z</time></trkpt><trkpt lat="43.3182149" lon="11.5133901"><ele>299.5</ele><time>2026-04-26T12:57:55.099Z</time></trkpt><trkpt lat="43.318353" lon="11.5133951"><ele>298.75</ele><time>2026-04-26T12:57:56.089Z</time></trkpt><trkpt lat="43.3184814" lon="11.5134375"><ele>298.0</ele><time>2026-04-26T12:57:57.089Z</time></trkpt><trkpt lat="43.3185885" lon="11.5135136"><ele>298.0</ele><time>2026-04-26T12:57:58.08Z</time></trkpt><trkpt lat="43.3186719" lon="11.5136206"><ele>298.0</ele><time>2026-04-26T12:57:59.099Z</time></trkpt><trkpt lat="43.3187283" lon="11.5137485"><ele>298.0</ele><time>2026-04-26T12:58:00.071Z</time></trkpt><trkpt lat="43.3187592" lon="11.5138902"><ele>298.0</ele><time>2026-04-26T12:58:01.074Z</time></trkpt><trkpt lat="43.3187604" lon="11.5140292"><ele>298.0</ele><time>2026-04-26T12:58:02.086Z</time></trkpt><trkpt lat="43.3187363" lon="11.5141564"><ele>298.0</ele><time>2026-04-26T12:58:03.093Z</time></trkpt><trkpt lat="43.3186938" lon="11.5142687"><ele>298.0</ele><time>2026-04-26T12:58:04.071Z</time></trkpt><trkpt lat="43.3186363" lon="11.5143745"><ele>298.0</ele><time>2026-04-26T12:58:05.088Z</time></trkpt><trkpt lat="43.3185679" lon="11.5144726"><ele>298.0</ele><time>2026-04-26T12:58:06.071Z</time></trkpt><trkpt lat="43.318489" lon="11.5145605"><ele>298.0</ele><time>2026-04-26T12:58:07.083Z</time></trkpt><trkpt lat="43.3184127" lon="11.5146481"><ele>298.0</ele><time>2026-04-26T12:58:08.074Z</time></trkpt><trkpt lat="43.3183575" lon="11.514754"><ele>298.0</ele><time>2026-04-26T12:58:09.091Z</time></trkpt><trkpt lat="43.3183425" lon="11.514867"><ele>298.0</ele><time>2026-04-26T12:58:10.061Z</time></trkpt><trkpt lat="43.3183704" lon="11.5149611"><ele>298.0</ele><time>2026-04-26T12:58:11.065Z</time></trkpt><trkpt lat="43.318427" lon="11.5150075"><ele>298.0</ele><time>2026-04-26T12:58:12.054Z</time></trkpt><trkpt lat="43.3184929" lon="11.5150005"><ele>298.0</ele><time>2026-04-26T12:58:13.085Z</time></trkpt><trkpt lat="43.3185548" lon="11.5149483"><ele>298.0</ele><time>2026-04-26T12:58:14.074Z</time></trkpt><trkpt lat="43.3186173" lon="11.5148558"><ele>298.0</ele><time>2026-04-26T12:58:15.083Z</time></trkpt><trkpt lat="43.3186877" lon="11.5147315"><ele>298.0</ele><time>2026-04-26T12:58:16.073Z</time></trkpt><trkpt lat="43.3187707" lon="11.5145938"><ele>298.0</ele><time>2026-04-26T12:58:17.085Z</time></trkpt><trkpt lat="43.3188547" lon="11.5144614"><ele>296.75</ele><time>2026-04-26T12:58:18.092Z</time></trkpt><trkpt lat="43.3189248" lon="11.5143246"><ele>295.5</ele><time>2026-04-26T12:58:19.085Z</time></trkpt><trkpt lat="43.3189734" lon="11.5141681"><ele>294.25</ele><time>2026-04-26T12:58:20.091Z</time></trkpt><trkpt lat="43.3189972" lon="11.5139884"><ele>293.0</ele><time>2026-04-26T12:58:21.084Z</time></trkpt><trkpt lat="43.3189997" lon="11.5137902"><ele>292.25</ele><time>2026-04-26T12:58:22.087Z</time></trkpt><trkpt lat="43.3189961" lon="11.5135925"><ele>291.5</ele><time>2026-04-26T12:58:23.094Z</time></trkpt><trkpt lat="43.3190085" lon="11.5134086"><ele>290.75</ele><time>2026-04-26T12:58:24.083Z</time></trkpt><trkpt lat="43.3190491" lon="11.5132363"><ele>290.0</ele><time>2026-04-26T12:58:25.083Z</time></trkpt><trkpt lat="43.3191129" lon="11.5130743"><ele>290.0</ele><time>2026-04-26T12:58:26.076Z</time></trkpt><trkpt lat="43.3191817" lon="11.5129105"><ele>290.0</ele><time>2026-04-26T12:58:27.091Z</time></trkpt><trkpt lat="43.3192312" lon="11.5127273"><ele>290.0</ele><time>2026-04-26T12:58:28.067Z</time></trkpt><trkpt lat="43.319254" lon="11.5125088"><ele>290.0</ele><time>2026-04-26T12:58:29.075Z</time></trkpt><trkpt lat="43.3192522" lon="11.51227"><ele>284.33333333333337</ele><time>2026-04-26T12:58:30.089Z</time></trkpt><trkpt lat="43.3192353" lon="11.5120338"><ele>278.6666666666667</ele><time>2026-04-26T12:58:31.08Z</time></trkpt><trkpt lat="43.3192098" lon="11.5118079"><ele>273.0</ele><time>2026-04-26T12:58:32.078Z</time></trkpt><trkpt lat="43.3191785" lon="11.5115895"><ele>273.0</ele><time>2026-04-26T12:58:33.088Z</time></trkpt><trkpt lat="43.3191466" lon="11.5113769"><ele>273.0</ele><time>2026-04-26T12:58:34.065Z</time></trkpt><trkpt lat="43.3191247" lon="11.5111629"><ele>273.0</ele><time>2026-04-26T12:58:35.072Z</time></trkpt><trkpt lat="43.3191525" lon="11.5107559"><ele>270.0</ele><time>2026-04-26T12:58:37.076Z</time></trkpt><trkpt lat="43.3192079" lon="11.5105679"><ele>267.0</ele><time>2026-04-26T12:58:38.067Z</time></trkpt><trkpt lat="43.3192939" lon="11.5103834"><ele>264.0</ele><time>2026-04-26T12:58:39.101Z</time></trkpt><trkpt lat="43.319404" lon="11.5102039"><ele>260.6666666666667</ele><time>2026-04-26T12:58:40.106Z</time></trkpt><trkpt lat="43.3195189" lon="11.5100307"><ele>257.33333333333337</ele><time>2026-04-26T12:58:41.092Z</time></trkpt><trkpt lat="43.3196234" lon="11.509852"><ele>254.0</ele><time>2026-04-26T12:58:42.09Z</time></trkpt><trkpt lat="43.3197108" lon="11.509662"><ele>251.66666666666669</ele><time>2026-04-26T12:58:43.097Z</time></trkpt><trkpt lat="43.3197754" lon="11.5094622"><ele>249.33333333333331</ele><time>2026-04-26T12:58:44.076Z</time></trkpt><trkpt lat="43.3198199" lon="11.5092518"><ele>247.0</ele><time>2026-04-26T12:58:45.103Z</time></trkpt><trkpt lat="43.3198475" lon="11.5090405"><ele>247.0</ele><time>2026-04-26T12:58:46.077Z</time></trkpt><trkpt lat="43.3198627" lon="11.5088216"><ele>247.0</ele><time>2026-04-26T12:58:47.095Z</time></trkpt><trkpt lat="43.3198616" lon="11.5086133"><ele>247.0</ele><time>2026-04-26T12:58:48.081Z</time></trkpt><trkpt lat="43.3198499" lon="11.5084253"><ele>247.0</ele><time>2026-04-26T12:58:49.092Z</time></trkpt><trkpt lat="43.3198366" lon="11.5082626"><ele>247.0</ele><time>2026-04-26T12:58:50.081Z</time></trkpt><trkpt lat="43.319823" lon="11.5080982"><ele>247.0</ele><time>2026-04-26T12:58:51.091Z</time></trkpt><trkpt lat="43.3198068" lon="11.5079201"><ele>247.0</ele><time>2026-04-26T12:58:52.081Z</time></trkpt><trkpt lat="43.3197868" lon="11.5077223"><ele>247.0</ele><time>2026-04-26T12:58:53.093Z</time></trkpt><trkpt lat="43.3197633" lon="11.5075041"><ele>246.33333333333331</ele><time>2026-04-26T12:58:54.077Z</time></trkpt><trkpt lat="43.3197381" lon="11.5072638"><ele>245.66666666666669</ele><time>2026-04-26T12:58:55.087Z</time></trkpt><trkpt lat="43.3197136" lon="11.5070183"><ele>245.0</ele><time>2026-04-26T12:58:56.079Z</time></trkpt><trkpt lat="43.3196904" lon="11.5067748"><ele>244.75</ele><time>2026-04-26T12:58:57.088Z</time></trkpt><trkpt lat="43.3196784" lon="11.5065599"><ele>244.5</ele><time>2026-04-26T12:58:58.073Z</time></trkpt><trkpt lat="43.3196896" lon="11.506386"><ele>244.25</ele><time>2026-04-26T12:58:59.069Z</time></trkpt><trkpt lat="43.3197307" lon="11.5062479"><ele>244.0</ele><time>2026-04-26T12:59:00.056Z</time></trkpt><trkpt lat="43.3198039" lon="11.5061361"><ele>244.0</ele><time>2026-04-26T12:59:01.07Z</time></trkpt><trkpt lat="43.3199062" lon="11.5060537"><ele>244.0</ele><time>2026-04-26T12:59:02.071Z</time></trkpt><trkpt lat="43.3200342" lon="11.5059913"><ele>244.0</ele><time>2026-04-26T12:59:03.056Z</time></trkpt><trkpt lat="43.3201854" lon="11.5059333"><ele>244.0</ele><time>2026-04-26T12:59:04.078Z</time></trkpt><trkpt lat="43.3203479" lon="11.5058737"><ele>244.0</ele><time>2026-04-26T12:59:05.084Z</time></trkpt><trkpt lat="43.3205161" lon="11.5058116"><ele>244.0</ele><time>2026-04-26T12:59:06.091Z</time></trkpt><trkpt lat="43.3206823" lon="11.5057566"><ele>244.0</ele><time>2026-04-26T12:59:07.116Z</time></trkpt><trkpt lat="43.320835" lon="11.5057178"><ele>244.75</ele><time>2026-04-26T12:59:08.091Z</time></trkpt><trkpt lat="43.3209811" lon="11.5057004"><ele>245.5</ele><time>2026-04-26T12:59:09.1Z</time></trkpt><trkpt lat="43.3211146" lon="11.5057093"><ele>246.25</ele><time>2026-04-26T12:59:10.074Z</time></trkpt><trkpt lat="43.3212404" lon="11.5057457"><ele>247.0</ele><time>2026-04-26T12:59:11.089Z</time></trkpt><trkpt lat="43.3213588" lon="11.505811"><ele>250.0</ele><time>2026-04-26T12:59:12.106Z</time></trkpt><trkpt lat="43.3214783" lon="11.5059075"><ele>253.0</ele><time>2026-04-26T12:59:13.108Z</time></trkpt><trkpt lat="43.321602" lon="11.5060409"><ele>256.0</ele><time>2026-04-26T12:59:14.081Z</time></trkpt><trkpt lat="43.3217305" lon="11.5062141"><ele>255.66666666666666</ele><time>2026-04-26T12:59:15.102Z</time></trkpt><trkpt lat="43.3218604" lon="11.5064127"><ele>255.33333333333331</ele><time>2026-04-26T12:59:16.089Z</time></trkpt><trkpt lat="43.3219966" lon="11.5066309"><ele>255.0</ele><time>2026-04-26T12:59:17.082Z</time></trkpt><trkpt lat="43.3221365" lon="11.5068536"><ele>259.0</ele><time>2026-04-26T12:59:18.084Z</time></trkpt><trkpt lat="43.3222721" lon="11.5070617"><ele>263.0</ele><time>2026-04-26T12:59:19.11Z</time></trkpt><trkpt lat="43.3223923" lon="11.5072435"><ele>267.0</ele><time>2026-04-26T12:59:20.088Z</time></trkpt><trkpt lat="43.3225075" lon="11.5074043"><ele>267.6666666666667</ele><time>2026-04-26T12:59:21.097Z</time></trkpt><trkpt lat="43.3226265" lon="11.5075286"><ele>268.33333333333337</ele><time>2026-04-26T12:59:22.08Z</time></trkpt><trkpt lat="43.3227659" lon="11.5076099"><ele>269.0</ele><time>2026-04-26T12:59:23.078Z</time></trkpt><trkpt lat="43.3229298" lon="11.5076496"><ele>271.0</ele><time>2026-04-26T12:59:24.068Z</time></trkpt><trkpt lat="43.3231162" lon="11.5076628"><ele>273.0</ele><time>2026-04-26T12:59:25.088Z</time></trkpt><trkpt lat="43.3233053" lon="11.5076631"><ele>275.0</ele><time>2026-04-26T12:59:26.062Z</time></trkpt><trkpt lat="43.3234843" lon="11.5076682"><ele>275.0</ele><time>2026-04-26T12:59:27.082Z</time></trkpt><trkpt lat="43.3236459" lon="11.5077013"><ele>275.0</ele><time>2026-04-26T12:59:28.071Z</time></trkpt><trkpt lat="43.3238058" lon="11.5077783"><ele>275.0</ele><time>2026-04-26T12:59:29.078Z</time></trkpt><trkpt lat="43.3239532" lon="11.5079023"><ele>278.0</ele><time>2026-04-26T12:59:30.102Z</time></trkpt><trkpt lat="43.3240701" lon="11.5080699"><ele>281.0</ele><time>2026-04-26T12:59:31.073Z</time></trkpt><trkpt lat="43.3241688" lon="11.5082826"><ele>284.0</ele><time>2026-04-26T12:59:32.083Z</time></trkpt><trkpt lat="43.3242621" lon="11.5085194"><ele>286.6666666666667</ele><time>2026-04-26T12:59:33.074Z</time></trkpt><trkpt lat="43.3243525" lon="11.5087604"><ele>289.3333333333333</ele><time>2026-04-26T12:59:34.075Z</time></trkpt><trkpt lat="43.3244375" lon="11.5089813"><ele>292.0</ele><time>2026-04-26T12:59:35.069Z</time></trkpt><trkpt lat="43.3245256" lon="11.5091757"><ele>292.0</ele><time>2026-04-26T12:59:36.08Z</time></trkpt><trkpt lat="43.3246305" lon="11.5093332"><ele>292.0</ele><time>2026-04-26T12:59:37.081Z</time></trkpt><trkpt lat="43.3247623" lon="11.5094454"><ele>292.0</ele><time>2026-04-26T12:59:38.089Z</time></trkpt><trkpt lat="43.3249148" lon="11.509505"><ele>291.0</ele><time>2026-04-26T12:59:39.097Z</time></trkpt><trkpt lat="43.3250773" lon="11.5095132"><ele>290.0</ele><time>2026-04-26T12:59:40.081Z</time></trkpt><trkpt lat="43.3252492" lon="11.5094742"><ele>289.0</ele><time>2026-04-26T12:59:41.087Z</time></trkpt><trkpt lat="43.3254302" lon="11.5094002"><ele>289.3333333333333</ele><time>2026-04-26T12:59:42.089Z</time></trkpt><trkpt lat="43.3256235" lon="11.5093109"><ele>289.6666666666667</ele><time>2026-04-26T12:59:43.097Z</time></trkpt><trkpt lat="43.3258325" lon="11.5092177"><ele>290.0</ele><time>2026-04-26T12:59:44.084Z</time></trkpt><trkpt lat="43.3260605" lon="11.5091157"><ele>290.0</ele><time>2026-04-26T12:59:45.096Z</time></trkpt><trkpt lat="43.3262957" lon="11.5090043"><ele>290.0</ele><time>2026-04-26T12:59:46.085Z</time></trkpt><trkpt lat="43.3265385" lon="11.5088797"><ele>292.5</ele><time>2026-04-26T12:59:47.082Z</time></trkpt><trkpt lat="43.3267882" lon="11.508738"><ele>295.0</ele><time>2026-04-26T12:59:48.077Z</time></trkpt><trkpt lat="43.3270477" lon="11.5085801"><ele>297.0</ele><time>2026-04-26T12:59:49.081Z</time></trkpt><trkpt lat="43.3273092" lon="11.508416"><ele>299.0</ele><time>2026-04-26T12:59:50.064Z</time></trkpt><trkpt lat="43.3275671" lon="11.5082531"><ele>299.0</ele><time>2026-04-26T12:59:51.071Z</time></trkpt><trkpt lat="43.3278103" lon="11.5080973"><ele>299.0</ele><time>2026-04-26T12:59:52.063Z</time></trkpt><trkpt lat="43.3280405" lon="11.5079468"><ele>301.0</ele><time>2026-04-26T12:59:53.079Z</time></trkpt><trkpt lat="43.3282531" lon="11.5078082"><ele>303.0</ele><time>2026-04-26T12:59:54.07Z</time></trkpt><trkpt lat="43.3284521" lon="11.5076742"><ele>303.0</ele><time>2026-04-26T12:59:55.076Z</time></trkpt><trkpt lat="43.3286373" lon="11.5075506"><ele>303.0</ele><time>2026-04-26T12:59:56.081Z</time></trkpt><trkpt lat="43.3288153" lon="11.5074418"><ele>303.0</ele><time>2026-04-26T12:59:57.091Z</time></trkpt><trkpt lat="43.328988" lon="11.5073454"><ele>304.3333333333333</ele><time>2026-04-26T12:59:58.073Z</time></trkpt><trkpt lat="43.3291671" lon="11.5072639"><ele>305.66666666666663</ele><time>2026-04-26T12:59:59.082Z</time></trkpt><trkpt lat="43.3293527" lon="11.507202"><ele>307.0</ele><time>2026-04-26T13:00:00.072Z</time></trkpt><trkpt lat="43.3295494" lon="11.5071505"><ele>307.0</ele><time>2026-04-26T13:00:01.092Z</time></trkpt><trkpt lat="43.3297571" lon="11.5071046"><ele>307.0</ele><time>2026-04-26T13:00:02.092Z</time></trkpt><trkpt lat="43.329978" lon="11.5070616"><ele>307.0</ele><time>2026-04-26T13:00:03.087Z</time></trkpt><trkpt lat="43.330206" lon="11.5070165"><ele>307.0</ele><time>2026-04-26T13:00:04.088Z</time></trkpt><trkpt lat="43.3304301" lon="11.5069723"><ele>307.0</ele><time>2026-04-26T13:00:05.076Z</time></trkpt><trkpt lat="43.3306476" lon="11.5069306"><ele>307.0</ele><time>2026-04-26T13:00:06.09Z</time></trkpt><trkpt lat="43.3308561" lon="11.5068935"><ele>308.3333333333333</ele><time>2026-04-26T13:00:07.094Z</time></trkpt><trkpt lat="43.3310584" lon="11.5068529"><ele>309.6666666666667</ele><time>2026-04-26T13:00:08.076Z</time></trkpt><trkpt lat="43.3312628" lon="11.5067906"><ele>311.0</ele><time>2026-04-26T13:00:09.143Z</time></trkpt><trkpt lat="43.3314575" lon="11.5066946"><ele>312.5</ele><time>2026-04-26T13:00:10.1Z</time></trkpt><trkpt lat="43.331661" lon="11.5065648"><ele>314.0</ele><time>2026-04-26T13:00:11.08Z</time></trkpt><trkpt lat="43.3318697" lon="11.5064219"><ele>314.0</ele><time>2026-04-26T13:00:12.066Z</time></trkpt><trkpt lat="43.3320766" lon="11.5062803"><ele>314.0</ele><time>2026-04-26T13:00:13.07Z</time></trkpt><trkpt lat="43.3322705" lon="11.5061517"><ele>314.0</ele><time>2026-04-26T13:00:14.062Z</time></trkpt><trkpt lat="43.3324556" lon="11.5060395"><ele>314.6666666666667</ele><time>2026-04-26T13:00:15.088Z</time></trkpt><trkpt lat="43.3326317" lon="11.5059508"><ele>315.3333333333333</ele><time>2026-04-26T13:00:16.067Z</time></trkpt><trkpt lat="43.3328146" lon="11.5058799"><ele>316.0</ele><time>2026-04-26T13:00:17.073Z</time></trkpt><trkpt lat="43.3330072" lon="11.5058252"><ele>316.0</ele><time>2026-04-26T13:00:18.071Z</time></trkpt><trkpt lat="43.3332117" lon="11.5057821"><ele>316.0</ele><time>2026-04-26T13:00:19.087Z</time></trkpt><trkpt lat="43.3334236" lon="11.5057423"><ele>316.0</ele><time>2026-04-26T13:00:20.082Z</time></trkpt><trkpt lat="43.3336451" lon="11.505698"><ele>316.0</ele><time>2026-04-26T13:00:21.087Z</time></trkpt><trkpt lat="43.3338727" lon="11.5056499"><ele>316.0</ele><time>2026-04-26T13:00:22.072Z</time></trkpt><trkpt lat="43.3341095" lon="11.5055982"><ele>315.5</ele><time>2026-04-26T13:00:23.081Z</time></trkpt><trkpt lat="43.3343496" lon="11.5055495"><ele>315.0</ele><time>2026-04-26T13:00:24.09Z</time></trkpt><trkpt lat="43.3345891" lon="11.5055011"><ele>314.5</ele><time>2026-04-26T13:00:25.088Z</time></trkpt><trkpt lat="43.3348263" lon="11.5054535"><ele>314.0</ele><time>2026-04-26T13:00:26.075Z</time></trkpt><trkpt lat="43.3350614" lon="11.5054069"><ele>317.5</ele><time>2026-04-26T13:00:27.082Z</time></trkpt><trkpt lat="43.3352906" lon="11.5053615"><ele>321.0</ele><time>2026-04-26T13:00:28.07Z</time></trkpt><trkpt lat="43.335518" lon="11.5053169"><ele>320.0</ele><time>2026-04-26T13:00:29.082Z</time></trkpt><trkpt lat="43.3357399" lon="11.5052739"><ele>319.0</ele><time>2026-04-26T13:00:30.071Z</time></trkpt><trkpt lat="43.3359591" lon="11.5052327"><ele>318.0</ele><time>2026-04-26T13:00:31.077Z</time></trkpt><trkpt lat="43.3361719" lon="11.5051895"><ele>318.0</ele><time>2026-04-26T13:00:32.081Z</time></trkpt><trkpt lat="43.3363776" lon="11.5051486"><ele>318.0</ele><time>2026-04-26T13:00:33.098Z</time></trkpt><trkpt lat="43.3365681" lon="11.5051148"><ele>318.0</ele><time>2026-04-26T13:00:34.072Z</time></trkpt><trkpt lat="43.3367535" lon="11.5050958"><ele>320.0</ele><time>2026-04-26T13:00:35.076Z</time></trkpt><trkpt lat="43.336936" lon="11.5051005"><ele>322.0</ele><time>2026-04-26T13:00:36.08Z</time></trkpt><trkpt lat="43.3371162" lon="11.505133"><ele>324.0</ele><time>2026-04-26T13:00:37.068Z</time></trkpt><trkpt lat="43.3372956" lon="11.5051909"><ele>324.3333333333333</ele><time>2026-04-26T13:00:38.063Z</time></trkpt><trkpt lat="43.3374736" lon="11.5052765"><ele>324.66666666666663</ele><time>2026-04-26T13:00:39.087Z</time></trkpt><trkpt lat="43.3376466" lon="11.5053892"><ele>325.0</ele><time>2026-04-26T13:00:40.092Z</time></trkpt><trkpt lat="43.3378187" lon="11.5055135"><ele>326.3333333333333</ele><time>2026-04-26T13:00:41.09Z</time></trkpt><trkpt lat="43.3379914" lon="11.5056317"><ele>327.6666666666667</ele><time>2026-04-26T13:00:42.07Z</time></trkpt><trkpt lat="43.3381669" lon="11.5057395"><ele>329.0</ele><time>2026-04-26T13:00:43.08Z</time></trkpt><trkpt lat="43.3383449" lon="11.505825"><ele>330.0</ele><time>2026-04-26T13:00:44.08Z</time></trkpt><trkpt lat="43.3385303" lon="11.5058798"><ele>331.0</ele><time>2026-04-26T13:00:45.082Z</time></trkpt><trkpt lat="43.3387208" lon="11.5058997"><ele>332.0</ele><time>2026-04-26T13:00:46.07Z</time></trkpt><trkpt lat="43.3389124" lon="11.5058865"><ele>333.6666666666667</ele><time>2026-04-26T13:00:47.077Z</time></trkpt><trkpt lat="43.3390941" lon="11.5058517"><ele>335.3333333333333</ele><time>2026-04-26T13:00:48.089Z</time></trkpt><trkpt lat="43.3392579" lon="11.505805"><ele>337.0</ele><time>2026-04-26T13:00:49.075Z</time></trkpt><trkpt lat="43.339409" lon="11.5057501"><ele>337.0</ele><time>2026-04-26T13:00:50.072Z</time></trkpt><trkpt lat="43.3395498" lon="11.505695"><ele>337.0</ele><time>2026-04-26T13:00:51.08Z</time></trkpt><trkpt lat="43.3396816" lon="11.5056462"><ele>337.0</ele><time>2026-04-26T13:00:52.077Z</time></trkpt><trkpt lat="43.3398073" lon="11.5056013"><ele>337.0</ele><time>2026-04-26T13:00:53.08Z</time></trkpt><trkpt lat="43.3399265" lon="11.5055582"><ele>336.8</ele><time>2026-04-26T13:00:54.068Z</time></trkpt><trkpt lat="43.3400414" lon="11.5055167"><ele>336.6</ele><time>2026-04-26T13:00:55.079Z</time></trkpt><trkpt lat="43.3401494" lon="11.5054769"><ele>336.40000000000003</ele><time>2026-04-26T13:00:56.082Z</time></trkpt><trkpt lat="43.3402517" lon="11.505437"><ele>336.20000000000005</ele><time>2026-04-26T13:00:57.082Z</time></trkpt><trkpt lat="43.3403477" lon="11.5054006"><ele>336.0</ele><time>2026-04-26T13:00:58.072Z</time></trkpt><trkpt lat="43.340437" lon="11.5053753"><ele>335.8333333333333</ele><time>2026-04-26T13:00:59.08Z</time></trkpt><trkpt lat="43.3405179" lon="11.5053661"><ele>335.6666666666667</ele><time>2026-04-26T13:01:00.066Z</time></trkpt><trkpt lat="43.340592" lon="11.5053765"><ele>335.5</ele><time>2026-04-26T13:01:01.065Z</time></trkpt><trkpt lat="43.3406587" lon="11.5054005"><ele>335.33333333333337</ele><time>2026-04-26T13:01:02.069Z</time></trkpt><trkpt lat="43.3407751" lon="11.5053928"><ele>335.1666666666667</ele><time>2026-04-26T13:01:04.069Z</time></trkpt><trkpt lat="43.3408399" lon="11.5053125"><ele>335.0</ele><time>2026-04-26T13:01:06.074Z</time></trkpt><trkpt lat="43.340886" lon="11.5052529"><ele>335.0</ele><time>2026-04-26T13:01:09.1Z</time></trkpt><trkpt lat="43.3409531" lon="11.5052098"><ele>335.0</ele><time>2026-04-26T13:01:13.118Z</time></trkpt><trkpt lat="43.3410457" lon="11.5051752"><ele>335.0</ele><time>2026-04-26T13:01:16.078Z</time></trkpt><trkpt lat="43.3411382" lon="11.5051425"><ele>335.0</ele><time>2026-04-26T13:01:18.084Z</time></trkpt><trkpt lat="43.3412406" lon="11.5051137"><ele>335.0</ele><time>2026-04-26T13:01:20.069Z</time></trkpt><trkpt lat="43.3413052" lon="11.5050954"><ele>335.0</ele><time>2026-04-26T13:01:21.069Z</time></trkpt><trkpt lat="43.3413751" lon="11.5050762"><ele>335.0</ele><time>2026-04-26T13:01:22.076Z</time></trkpt><trkpt lat="43.3414449" lon="11.5050574"><ele>335.0</ele><time>2026-04-26T13:01:23.078Z</time></trkpt><trkpt lat="43.341509" lon="11.5050402"><ele>335.0</ele><time>2026-04-26T13:01:24.076Z</time></trkpt><trkpt lat="43.3416373" lon="11.5050102"><ele>335.0</ele><time>2026-04-26T13:01:26.065Z</time></trkpt><trkpt lat="43.3417087" lon="11.5049943"><ele>335.0</ele><time>2026-04-26T13:01:27.06Z</time></trkpt><trkpt lat="43.3417825" lon="11.5049788"><ele>335.0</ele><time>2026-04-26T13:01:28.067Z</time></trkpt><trkpt lat="43.3418628" lon="11.5049626"><ele>335.0</ele><time>2026-04-26T13:01:29.059Z</time></trkpt><trkpt lat="43.3419479" lon="11.5049456"><ele>335.0</ele><time>2026-04-26T13:01:30.061Z</time></trkpt><trkpt lat="43.3420342" lon="11.5049293"><ele>335.0</ele><time>2026-04-26T13:01:31.075Z</time></trkpt><trkpt lat="43.3421185" lon="11.5049157"><ele>335.0</ele><time>2026-04-26T13:01:32.08Z</time></trkpt><trkpt lat="43.3422018" lon="11.5049036"><ele>335.0</ele><time>2026-04-26T13:01:33.079Z</time></trkpt><trkpt lat="43.3422858" lon="11.5048906"><ele>335.0</ele><time>2026-04-26T13:01:34.061Z</time></trkpt><trkpt lat="43.3423746" lon="11.5048743"><ele>335.6</ele><time>2026-04-26T13:01:35.075Z</time></trkpt><trkpt lat="43.3424637" lon="11.5048577"><ele>336.2</ele><time>2026-04-26T13:01:36.085Z</time></trkpt><trkpt lat="43.342548" lon="11.5048431"><ele>336.79999999999995</ele><time>2026-04-26T13:01:37.071Z</time></trkpt><trkpt lat="43.3426349" lon="11.5048262"><ele>337.4</ele><time>2026-04-26T13:01:38.084Z</time></trkpt><trkpt lat="43.3427254" lon="11.5048063"><ele>338.0</ele><time>2026-04-26T13:01:39.083Z</time></trkpt><trkpt lat="43.3428199" lon="11.5047864"><ele>338.0</ele><time>2026-04-26T13:01:40.073Z</time></trkpt><trkpt lat="43.3429157" lon="11.5047692"><ele>338.0</ele><time>2026-04-26T13:01:41.075Z</time></trkpt><trkpt lat="43.3430108" lon="11.5047515"><ele>338.0</ele><time>2026-04-26T13:01:42.077Z</time></trkpt><trkpt lat="43.343106" lon="11.5047328"><ele>338.0</ele><time>2026-04-26T13:01:43.07Z</time></trkpt><trkpt lat="43.3432019" lon="11.5047142"><ele>338.0</ele><time>2026-04-26T13:01:44.075Z</time></trkpt><trkpt lat="43.3433017" lon="11.5046962"><ele>338.0</ele><time>2026-04-26T13:01:45.083Z</time></trkpt><trkpt lat="43.3434038" lon="11.5046783"><ele>338.0</ele><time>2026-04-26T13:01:46.064Z</time></trkpt><trkpt lat="43.3435077" lon="11.5046599"><ele>338.0</ele><time>2026-04-26T13:01:47.101Z</time></trkpt><trkpt lat="43.3436093" lon="11.5046425"><ele>338.0</ele><time>2026-04-26T13:01:48.081Z</time></trkpt><trkpt lat="43.3437121" lon="11.504626"><ele>338.0</ele><time>2026-04-26T13:01:49.086Z</time></trkpt><trkpt lat="43.3438118" lon="11.5046065"><ele>338.0</ele><time>2026-04-26T13:01:50.071Z</time></trkpt><trkpt lat="43.3439122" lon="11.5045842"><ele>338.0</ele><time>2026-04-26T13:01:51.067Z</time></trkpt><trkpt lat="43.3440159" lon="11.5045607"><ele>338.0</ele><time>2026-04-26T13:01:52.053Z</time></trkpt><trkpt lat="43.344125" lon="11.5045379"><ele>338.0</ele><time>2026-04-26T13:01:53.067Z</time></trkpt><trkpt lat="43.3442363" lon="11.5045178"><ele>338.0</ele><time>2026-04-26T13:01:54.062Z</time></trkpt><trkpt lat="43.344344" lon="11.5045006"><ele>337.59999999999997</ele><time>2026-04-26T13:01:55.08Z</time></trkpt><trkpt lat="43.3444395" lon="11.5044871"><ele>337.2</ele><time>2026-04-26T13:01:56.076Z</time></trkpt><trkpt lat="43.3445204" lon="11.5044765"><ele>336.8</ele><time>2026-04-26T13:01:57.082Z</time></trkpt><trkpt lat="43.3446238" lon="11.5044696"><ele>336.4</ele><time>2026-04-26T13:01:59.087Z</time></trkpt><trkpt lat="43.3447014" lon="11.5044572"><ele>336.0</ele><time>2026-04-26T13:02:02.068Z</time></trkpt><trkpt lat="43.3447669" lon="11.504353"><ele>337.1666666666667</ele><time>2026-04-26T13:02:04.066Z</time></trkpt><trkpt lat="43.3447999" lon="11.5042758"><ele>338.3333333333333</ele><time>2026-04-26T13:02:05.069Z</time></trkpt><trkpt lat="43.3448419" lon="11.5041811"><ele>339.5</ele><time>2026-04-26T13:02:06.063Z</time></trkpt><trkpt lat="43.3448911" lon="11.5040752"><ele>340.66666666666663</ele><time>2026-04-26T13:02:07.066Z</time></trkpt><trkpt lat="43.3449377" lon="11.5039666"><ele>341.8333333333333</ele><time>2026-04-26T13:02:08.056Z</time></trkpt><trkpt lat="43.3449786" lon="11.5038495"><ele>343.0</ele><time>2026-04-26T13:02:09.062Z</time></trkpt><trkpt lat="43.3450062" lon="11.5037247"><ele>343.0</ele><time>2026-04-26T13:02:10.066Z</time></trkpt><trkpt lat="43.3450065" lon="11.5035927"><ele>343.0</ele><time>2026-04-26T13:02:11.099Z</time></trkpt><trkpt lat="43.344978" lon="11.5034623"><ele>343.0</ele><time>2026-04-26T13:02:12.085Z</time></trkpt><trkpt lat="43.3449372" lon="11.5033345"><ele>343.0</ele><time>2026-04-26T13:02:13.066Z</time></trkpt><trkpt lat="43.3449022" lon="11.5032144"><ele>343.0</ele><time>2026-04-26T13:02:14.065Z</time></trkpt><trkpt lat="43.3448852" lon="11.5031012"><ele>343.0</ele><time>2026-04-26T13:02:15.049Z</time></trkpt><trkpt lat="43.3448856" lon="11.5029817"><ele>343.0</ele><time>2026-04-26T13:02:16.058Z</time></trkpt><trkpt lat="43.3448956" lon="11.502852"><ele>343.0</ele><time>2026-04-26T13:02:17.05Z</time></trkpt><trkpt lat="43.3449174" lon="11.5027191"><ele>343.0</ele><time>2026-04-26T13:02:18.049Z</time></trkpt><trkpt lat="43.3449569" lon="11.5025853"><ele>343.0</ele><time>2026-04-26T13:02:19.054Z</time></trkpt><trkpt lat="43.3450085" lon="11.50244"><ele>343.25</ele><time>2026-04-26T13:02:20.067Z</time></trkpt><trkpt lat="43.3450623" lon="11.5022862"><ele>343.5</ele><time>2026-04-26T13:02:21.06Z</time></trkpt><trkpt lat="43.3451146" lon="11.5021342"><ele>343.75</ele><time>2026-04-26T13:02:22.068Z</time></trkpt><trkpt lat="43.3451611" lon="11.5019922"><ele>344.0</ele><time>2026-04-26T13:02:23.068Z</time></trkpt><trkpt lat="43.345198" lon="11.5018588"><ele>342.4</ele><time>2026-04-26T13:02:24.069Z</time></trkpt><trkpt lat="43.345216" lon="11.501727"><ele>340.79999999999995</ele><time>2026-04-26T13:02:25.076Z</time></trkpt><trkpt lat="43.3452114" lon="11.5015944"><ele>339.20000000000005</ele><time>2026-04-26T13:02:26.066Z</time></trkpt><trkpt lat="43.3451859" lon="11.5014582"><ele>337.6</ele><time>2026-04-26T13:02:27.059Z</time></trkpt><trkpt lat="43.3451458" lon="11.5013193"><ele>336.0</ele><time>2026-04-26T13:02:28.07Z</time></trkpt><trkpt lat="43.3450939" lon="11.5011851"><ele>335.8</ele><time>2026-04-26T13:02:29.073Z</time></trkpt><trkpt lat="43.3450364" lon="11.5010652"><ele>335.6</ele><time>2026-04-26T13:02:30.053Z</time></trkpt><trkpt lat="43.3449822" lon="11.5009618"><ele>335.4</ele><time>2026-04-26T13:02:31.069Z</time></trkpt><trkpt lat="43.3449431" lon="11.5008661"><ele>335.2</ele><time>2026-04-26T13:02:32.068Z</time></trkpt><trkpt lat="43.3449323" lon="11.5007724"><ele>335.0</ele><time>2026-04-26T13:02:33.059Z</time></trkpt><trkpt lat="43.3449911" lon="11.5006326"><ele>335.0</ele><time>2026-04-26T13:02:35.063Z</time></trkpt><trkpt lat="43.3450379" lon="11.5005738"><ele>335.0</ele><time>2026-04-26T13:02:37.063Z</time></trkpt><trkpt lat="43.3450175" lon="11.5004174"><ele>335.0</ele><time>2026-04-26T13:02:41.048Z</time></trkpt><trkpt lat="43.3449802" lon="11.5003337"><ele>335.0</ele><time>2026-04-26T13:02:42.054Z</time></trkpt><trkpt lat="43.3449384" lon="11.5002285"><ele>335.0</ele><time>2026-04-26T13:02:43.064Z</time></trkpt><trkpt lat="43.3448961" lon="11.5001059"><ele>335.0</ele><time>2026-04-26T13:02:44.051Z</time></trkpt><trkpt lat="43.3448484" lon="11.4999733"><ele>335.0</ele><time>2026-04-26T13:02:45.049Z</time></trkpt><trkpt lat="43.3447932" lon="11.4998244"><ele>335.0</ele><time>2026-04-26T13:02:46.069Z</time></trkpt><trkpt lat="43.344731" lon="11.4996639"><ele>335.0</ele><time>2026-04-26T13:02:47.082Z</time></trkpt><trkpt lat="43.3446681" lon="11.4994981"><ele>335.0</ele><time>2026-04-26T13:02:48.067Z</time></trkpt><trkpt lat="43.3446064" lon="11.499331"><ele>335.25</ele><time>2026-04-26T13:02:49.096Z</time></trkpt><trkpt lat="43.3445473" lon="11.4991693"><ele>335.5</ele><time>2026-04-26T13:02:50.08Z</time></trkpt><trkpt lat="43.3444863" lon="11.4990028"><ele>335.75</ele><time>2026-04-26T13:02:51.095Z</time></trkpt><trkpt lat="43.344428" lon="11.4988296"><ele>336.0</ele><time>2026-04-26T13:02:52.082Z</time></trkpt><trkpt lat="43.3443681" lon="11.4986478"><ele>335.3333333333333</ele><time>2026-04-26T13:02:53.085Z</time></trkpt><trkpt lat="43.3443054" lon="11.4984582"><ele>334.66666666666663</ele><time>2026-04-26T13:02:54.073Z</time></trkpt><trkpt lat="43.3442387" lon="11.4982585"><ele>334.0</ele><time>2026-04-26T13:02:55.081Z</time></trkpt><trkpt lat="43.3441703" lon="11.4980577"><ele>334.75</ele><time>2026-04-26T13:02:56.07Z</time></trkpt><trkpt lat="43.3441005" lon="11.4978622"><ele>335.5</ele><time>2026-04-26T13:02:57.086Z</time></trkpt><trkpt lat="43.3440331" lon="11.4976858"><ele>336.25</ele><time>2026-04-26T13:02:58.063Z</time></trkpt><trkpt lat="43.3439668" lon="11.4975221"><ele>337.0</ele><time>2026-04-26T13:02:59.074Z</time></trkpt><trkpt lat="43.3439069" lon="11.4973734"><ele>336.40000000000003</ele><time>2026-04-26T13:03:00.071Z</time></trkpt><trkpt lat="43.3438526" lon="11.4972409"><ele>335.8</ele><time>2026-04-26T13:03:01.074Z</time></trkpt><trkpt lat="43.3438003" lon="11.4971262"><ele>335.2</ele><time>2026-04-26T13:03:02.061Z</time></trkpt><trkpt lat="43.3437423" lon="11.4970259"><ele>334.6</ele><time>2026-04-26T13:03:03.062Z</time></trkpt><trkpt lat="43.3436763" lon="11.4969319"><ele>334.0</ele><time>2026-04-26T13:03:04.053Z</time></trkpt><trkpt lat="43.3435978" lon="11.4968323"><ele>334.0</ele><time>2026-04-26T13:03:05.059Z</time></trkpt><trkpt lat="43.3435084" lon="11.4967219"><ele>334.0</ele><time>2026-04-26T13:03:06.063Z</time></trkpt><trkpt lat="43.3434126" lon="11.4965995"><ele>334.0</ele><time>2026-04-26T13:03:07.055Z</time></trkpt><trkpt lat="43.3433075" lon="11.4964695"><ele>334.0</ele><time>2026-04-26T13:03:08.066Z</time></trkpt><trkpt lat="43.343196" lon="11.496335"><ele>333.0</ele><time>2026-04-26T13:03:09.082Z</time></trkpt><trkpt lat="43.3430804" lon="11.4961943"><ele>332.0</ele><time>2026-04-26T13:03:10.068Z</time></trkpt><trkpt lat="43.3429569" lon="11.4960424"><ele>331.0</ele><time>2026-04-26T13:03:11.079Z</time></trkpt><trkpt lat="43.3428226" lon="11.4958778"><ele>331.0</ele><time>2026-04-26T13:03:12.1Z</time></trkpt><trkpt lat="43.3426818" lon="11.4957046"><ele>331.0</ele><time>2026-04-26T13:03:13.086Z</time></trkpt><trkpt lat="43.342539" lon="11.4955293"><ele>331.0</ele><time>2026-04-26T13:03:14.062Z</time></trkpt><trkpt lat="43.3423887" lon="11.4953494"><ele>328.3333333333333</ele><time>2026-04-26T13:03:15.078Z</time></trkpt><trkpt lat="43.3422323" lon="11.4951679"><ele>325.6666666666667</ele><time>2026-04-26T13:03:16.081Z</time></trkpt><trkpt lat="43.3420694" lon="11.4949813"><ele>323.0</ele><time>2026-04-26T13:03:17.089Z</time></trkpt><trkpt lat="43.3419075" lon="11.494792"><ele>320.6666666666667</ele><time>2026-04-26T13:03:18.077Z</time></trkpt><trkpt lat="43.3417435" lon="11.4945993"><ele>318.3333333333333</ele><time>2026-04-26T13:03:19.086Z</time></trkpt><trkpt lat="43.3415786" lon="11.4944048"><ele>316.0</ele><time>2026-04-26T13:03:20.094Z</time></trkpt><trkpt lat="43.3414133" lon="11.4942102"><ele>314.0</ele><time>2026-04-26T13:03:21.087Z</time></trkpt><trkpt lat="43.3412453" lon="11.4940121"><ele>312.0</ele><time>2026-04-26T13:03:22.088Z</time></trkpt><trkpt lat="43.3410759" lon="11.4938101"><ele>310.0</ele><time>2026-04-26T13:03:23.095Z</time></trkpt><trkpt lat="43.34091" lon="11.4936088"><ele>310.0</ele><time>2026-04-26T13:03:24.087Z</time></trkpt><trkpt lat="43.3407482" lon="11.493415"><ele>310.0</ele><time>2026-04-26T13:03:25.095Z</time></trkpt><trkpt lat="43.3405894" lon="11.4932268"><ele>310.0</ele><time>2026-04-26T13:03:26.077Z</time></trkpt><trkpt lat="43.3404265" lon="11.4930258"><ele>310.3333333333333</ele><time>2026-04-26T13:03:27.085Z</time></trkpt><trkpt lat="43.3402652" lon="11.4928174"><ele>310.6666666666667</ele><time>2026-04-26T13:03:28.067Z</time></trkpt><trkpt lat="43.3401061" lon="11.4925998"><ele>311.0</ele><time>2026-04-26T13:03:29.07Z</time></trkpt><trkpt lat="43.3399513" lon="11.4923754"><ele>311.0</ele><time>2026-04-26T13:03:30.058Z</time></trkpt><trkpt lat="43.3397934" lon="11.4921397"><ele>311.0</ele><time>2026-04-26T13:03:31.066Z</time></trkpt><trkpt lat="43.3396354" lon="11.4918986"><ele>309.0</ele><time>2026-04-26T13:03:32.075Z</time></trkpt><trkpt lat="43.3394793" lon="11.491658"><ele>307.0</ele><time>2026-04-26T13:03:33.087Z</time></trkpt><trkpt lat="43.3393264" lon="11.4914238"><ele>306.66666666666663</ele><time>2026-04-26T13:03:34.076Z</time></trkpt><trkpt lat="43.339173" lon="11.4911979"><ele>306.3333333333333</ele><time>2026-04-26T13:03:35.087Z</time></trkpt><trkpt lat="43.3390139" lon="11.4909911"><ele>306.0</ele><time>2026-04-26T13:03:36.069Z</time></trkpt><trkpt lat="43.3388412" lon="11.4907916"><ele>304.5</ele><time>2026-04-26T13:03:37.088Z</time></trkpt><trkpt lat="43.3386626" lon="11.4906008"><ele>303.0</ele><time>2026-04-26T13:03:38.078Z</time></trkpt><trkpt lat="43.3384803" lon="11.4904109"><ele>303.0</ele><time>2026-04-26T13:03:39.085Z</time></trkpt><trkpt lat="43.3382983" lon="11.4902206"><ele>303.0</ele><time>2026-04-26T13:03:40.077Z</time></trkpt><trkpt lat="43.3381122" lon="11.4900269"><ele>301.3333333333333</ele><time>2026-04-26T13:03:41.116Z</time></trkpt><trkpt lat="43.3379305" lon="11.4898394"><ele>299.66666666666663</ele><time>2026-04-26T13:03:42.119Z</time></trkpt><trkpt lat="43.3377532" lon="11.48966"><ele>298.0</ele><time>2026-04-26T13:03:43.097Z</time></trkpt><trkpt lat="43.3375835" lon="11.4894865"><ele>297.66666666666663</ele><time>2026-04-26T13:03:44.084Z</time></trkpt><trkpt lat="43.3374218" lon="11.4893193"><ele>297.3333333333333</ele><time>2026-04-26T13:03:45.091Z</time></trkpt><trkpt lat="43.3372685" lon="11.4891632"><ele>297.0</ele><time>2026-04-26T13:03:46.079Z</time></trkpt><trkpt lat="43.3371121" lon="11.4890245"><ele>297.6666666666667</ele><time>2026-04-26T13:03:47.089Z</time></trkpt><trkpt lat="43.3369457" lon="11.4889075"><ele>298.33333333333337</ele><time>2026-04-26T13:03:48.076Z</time></trkpt><trkpt lat="43.336767" lon="11.4887993"><ele>299.0</ele><time>2026-04-26T13:03:49.088Z</time></trkpt><trkpt lat="43.3365944" lon="11.4886806"><ele>299.0</ele><time>2026-04-26T13:03:50.073Z</time></trkpt><trkpt lat="43.3364424" lon="11.4885284"><ele>299.0</ele><time>2026-04-26T13:03:51.087Z</time></trkpt><trkpt lat="43.3363145" lon="11.4883375"><ele>299.0</ele><time>2026-04-26T13:03:52.076Z</time></trkpt><trkpt lat="43.3361903" lon="11.4881291"><ele>299.0</ele><time>2026-04-26T13:03:53.079Z</time></trkpt><trkpt lat="43.3360541" lon="11.4879311"><ele>299.0</ele><time>2026-04-26T13:03:54.066Z</time></trkpt><trkpt lat="43.3359007" lon="11.4877461"><ele>299.0</ele><time>2026-04-26T13:03:55.072Z</time></trkpt><trkpt lat="43.3357482" lon="11.48756"><ele>298.33333333333337</ele><time>2026-04-26T13:03:56.078Z</time></trkpt><trkpt lat="43.3356103" lon="11.4873494"><ele>297.6666666666667</ele><time>2026-04-26T13:03:57.088Z</time></trkpt><trkpt lat="43.3354886" lon="11.4871148"><ele>297.0</ele><time>2026-04-26T13:03:58.079Z</time></trkpt><trkpt lat="43.3353799" lon="11.486865"><ele>296.0</ele><time>2026-04-26T13:03:59.082Z</time></trkpt><trkpt lat="43.3352806" lon="11.4866172"><ele>295.0</ele><time>2026-04-26T13:04:00.072Z</time></trkpt><trkpt lat="43.3351872" lon="11.4863783"><ele>294.0</ele><time>2026-04-26T13:04:01.094Z</time></trkpt><trkpt lat="43.3351002" lon="11.4861564"><ele>291.0</ele><time>2026-04-26T13:04:02.084Z</time></trkpt><trkpt lat="43.3350216" lon="11.4859337"><ele>288.0</ele><time>2026-04-26T13:04:03.092Z</time></trkpt><trkpt lat="43.3349607" lon="11.4856995"><ele>285.0</ele><time>2026-04-26T13:04:04.08Z</time></trkpt><trkpt lat="43.3349141" lon="11.4854434"><ele>283.0</ele><time>2026-04-26T13:04:05.098Z</time></trkpt><trkpt lat="43.3348775" lon="11.4851778"><ele>281.0</ele><time>2026-04-26T13:04:06.099Z</time></trkpt><trkpt lat="43.3348434" lon="11.4849125"><ele>279.0</ele><time>2026-04-26T13:04:07.089Z</time></trkpt><trkpt lat="43.3348101" lon="11.484654"><ele>277.6666666666667</ele><time>2026-04-26T13:04:08.088Z</time></trkpt><trkpt lat="43.3347815" lon="11.4844066"><ele>276.33333333333337</ele><time>2026-04-26T13:04:09.093Z</time></trkpt><trkpt lat="43.3347571" lon="11.4841666"><ele>275.0</ele><time>2026-04-26T13:04:10.073Z</time></trkpt><trkpt lat="43.3347363" lon="11.4839244"><ele>278.0</ele><time>2026-04-26T13:04:11.075Z</time></trkpt><trkpt lat="43.3347184" lon="11.4836814"><ele>281.0</ele><time>2026-04-26T13:04:12.075Z</time></trkpt><trkpt lat="43.3347" lon="11.4834327"><ele>284.0</ele><time>2026-04-26T13:04:13.063Z</time></trkpt><trkpt lat="43.3346764" lon="11.4831735"><ele>283.0</ele><time>2026-04-26T13:04:14.067Z</time></trkpt><trkpt lat="43.3346501" lon="11.4829146"><ele>282.0</ele><time>2026-04-26T13:04:15.072Z</time></trkpt><trkpt lat="43.3346217" lon="11.4826752"><ele>281.0</ele><time>2026-04-26T13:04:16.055Z</time></trkpt><trkpt lat="43.3345949" lon="11.4824613"><ele>281.0</ele><time>2026-04-26T13:04:17.075Z</time></trkpt><trkpt lat="43.3345822" lon="11.4822772"><ele>281.0</ele><time>2026-04-26T13:04:18.079Z</time></trkpt><trkpt lat="43.3345953" lon="11.4821155"><ele>281.0</ele><time>2026-04-26T13:04:19.069Z</time></trkpt><trkpt lat="43.3346373" lon="11.4819599"><ele>281.0</ele><time>2026-04-26T13:04:20.063Z</time></trkpt><trkpt lat="43.3347068" lon="11.4817954"><ele>280.33333333333337</ele><time>2026-04-26T13:04:21.068Z</time></trkpt><trkpt lat="43.3348" lon="11.4816175"><ele>279.6666666666667</ele><time>2026-04-26T13:04:22.076Z</time></trkpt><trkpt lat="43.3349036" lon="11.4814337"><ele>279.0</ele><time>2026-04-26T13:04:23.079Z</time></trkpt><trkpt lat="43.3350038" lon="11.4812612"><ele>279.0</ele><time>2026-04-26T13:04:24.069Z</time></trkpt><trkpt lat="43.3351" lon="11.481106"><ele>279.0</ele><time>2026-04-26T13:04:25.069Z</time></trkpt><trkpt lat="43.3351898" lon="11.4809641"><ele>279.0</ele><time>2026-04-26T13:04:26.076Z</time></trkpt><trkpt lat="43.3352661" lon="11.4808323"><ele>279.0</ele><time>2026-04-26T13:04:27.063Z</time></trkpt><trkpt lat="43.3353271" lon="11.4807229"><ele>279.0</ele><time>2026-04-26T13:04:28.081Z</time></trkpt><trkpt lat="43.3353792" lon="11.4806431"><ele>279.0</ele><time>2026-04-26T13:04:29.067Z</time></trkpt><trkpt lat="43.3354326" lon="11.4805722"><ele>279.0</ele><time>2026-04-26T13:04:30.072Z</time></trkpt><trkpt lat="43.3354939" lon="11.4805026"><ele>279.0</ele><time>2026-04-26T13:04:31.073Z</time></trkpt><trkpt lat="43.3355676" lon="11.4804273"><ele>279.0</ele><time>2026-04-26T13:04:32.076Z</time></trkpt><trkpt lat="43.3356548" lon="11.4803432"><ele>279.0</ele><time>2026-04-26T13:04:33.063Z</time></trkpt><trkpt lat="43.3357556" lon="11.4802471"><ele>279.25</ele><time>2026-04-26T13:04:34.071Z</time></trkpt><trkpt lat="43.3358685" lon="11.4801395"><ele>279.5</ele><time>2026-04-26T13:04:35.074Z</time></trkpt><trkpt lat="43.335992" lon="11.4800277"><ele>279.75</ele><time>2026-04-26T13:04:36.059Z</time></trkpt><trkpt lat="43.3361216" lon="11.4799116"><ele>280.0</ele><time>2026-04-26T13:04:37.065Z</time></trkpt><trkpt lat="43.3362554" lon="11.4797914"><ele>278.66666666666663</ele><time>2026-04-26T13:04:38.065Z</time></trkpt><trkpt lat="43.3363948" lon="11.4796703"><ele>277.3333333333333</ele><time>2026-04-26T13:04:39.067Z</time></trkpt><trkpt lat="43.3365312" lon="11.4795594"><ele>276.0</ele><time>2026-04-26T13:04:40.063Z</time></trkpt><trkpt lat="43.3366604" lon="11.4794631"><ele>276.0</ele><time>2026-04-26T13:04:41.063Z</time></trkpt><trkpt lat="43.3367864" lon="11.479386"><ele>276.0</ele><time>2026-04-26T13:04:42.055Z</time></trkpt><trkpt lat="43.3369151" lon="11.4793317"><ele>276.0</ele><time>2026-04-26T13:04:43.065Z</time></trkpt><trkpt lat="43.3370545" lon="11.4793049"><ele>276.0</ele><time>2026-04-26T13:04:44.053Z</time></trkpt><trkpt lat="43.3372088" lon="11.4792987"><ele>275.3333333333333</ele><time>2026-04-26T13:04:45.055Z</time></trkpt><trkpt lat="43.3373693" lon="11.4792925"><ele>274.66666666666663</ele><time>2026-04-26T13:04:46.059Z</time></trkpt><trkpt lat="43.3375243" lon="11.4792734"><ele>274.0</ele><time>2026-04-26T13:04:47.065Z</time></trkpt><trkpt lat="43.3376635" lon="11.4792373"><ele>274.0</ele><time>2026-04-26T13:04:48.068Z</time></trkpt><trkpt lat="43.3377758" lon="11.4791725"><ele>274.0</ele><time>2026-04-26T13:04:49.072Z</time></trkpt><trkpt lat="43.337859" lon="11.4790671"><ele>274.0</ele><time>2026-04-26T13:04:50.077Z</time></trkpt><trkpt lat="43.3379084" lon="11.4789223"><ele>274.0</ele><time>2026-04-26T13:04:51.068Z</time></trkpt><trkpt lat="43.337915" lon="11.4787505"><ele>273.0</ele><time>2026-04-26T13:04:52.078Z</time></trkpt><trkpt lat="43.3378801" lon="11.4785637"><ele>272.0</ele><time>2026-04-26T13:04:53.071Z</time></trkpt><trkpt lat="43.3378247" lon="11.478351"><ele>271.0</ele><time>2026-04-26T13:04:54.083Z</time></trkpt><trkpt lat="43.3377688" lon="11.4781163"><ele>269.3333333333333</ele><time>2026-04-26T13:04:55.082Z</time></trkpt><trkpt lat="43.3377165" lon="11.4778704"><ele>267.6666666666667</ele><time>2026-04-26T13:04:56.076Z</time></trkpt><trkpt lat="43.3376645" lon="11.4776277"><ele>266.0</ele><time>2026-04-26T13:04:57.083Z</time></trkpt><trkpt lat="43.3376153" lon="11.4773955"><ele>266.0</ele><time>2026-04-26T13:04:58.084Z</time></trkpt><trkpt lat="43.3375702" lon="11.4771699"><ele>266.0</ele><time>2026-04-26T13:04:59.082Z</time></trkpt><trkpt lat="43.3375316" lon="11.4769506"><ele>266.0</ele><time>2026-04-26T13:05:00.063Z</time></trkpt><trkpt lat="43.3375041" lon="11.4767326"><ele>265.0</ele><time>2026-04-26T13:05:01.076Z</time></trkpt><trkpt lat="43.3375014" lon="11.4765153"><ele>264.0</ele><time>2026-04-26T13:05:02.07Z</time></trkpt><trkpt lat="43.3375303" lon="11.4762936"><ele>263.0</ele><time>2026-04-26T13:05:03.066Z</time></trkpt><trkpt lat="43.3375868" lon="11.4760618"><ele>262.33333333333337</ele><time>2026-04-26T13:05:04.056Z</time></trkpt><trkpt lat="43.3376522" lon="11.4758105"><ele>261.6666666666667</ele><time>2026-04-26T13:05:05.067Z</time></trkpt><trkpt lat="43.3377031" lon="11.4755494"><ele>261.0</ele><time>2026-04-26T13:05:06.051Z</time></trkpt><trkpt lat="43.3377396" lon="11.475285"><ele>258.3333333333333</ele><time>2026-04-26T13:05:07.056Z</time></trkpt><trkpt lat="43.3377749" lon="11.4750344"><ele>255.66666666666666</ele><time>2026-04-26T13:05:08.037Z</time></trkpt><trkpt lat="43.3378201" lon="11.4747945"><ele>253.0</ele><time>2026-04-26T13:05:09.043Z</time></trkpt><trkpt lat="43.3378771" lon="11.4745789"><ele>252.25</ele><time>2026-04-26T13:05:10.036Z</time></trkpt><trkpt lat="43.3379461" lon="11.4743924"><ele>251.5</ele><time>2026-04-26T13:05:11.046Z</time></trkpt><trkpt lat="43.3380235" lon="11.4742308"><ele>250.75</ele><time>2026-04-26T13:05:12.059Z</time></trkpt><trkpt lat="43.3381218" lon="11.4740959"><ele>250.0</ele><time>2026-04-26T13:05:13.068Z</time></trkpt><trkpt lat="43.3382552" lon="11.4739958"><ele>250.0</ele><time>2026-04-26T13:05:14.061Z</time></trkpt><trkpt lat="43.3384155" lon="11.4739288"><ele>250.0</ele><time>2026-04-26T13:05:15.059Z</time></trkpt><trkpt lat="43.3385798" lon="11.4738967"><ele>250.0</ele><time>2026-04-26T13:05:16.063Z</time></trkpt><trkpt lat="43.3387378" lon="11.47388"><ele>250.33333333333331</ele><time>2026-04-26T13:05:17.063Z</time></trkpt><trkpt lat="43.338888" lon="11.4738467"><ele>250.66666666666669</ele><time>2026-04-26T13:05:18.068Z</time></trkpt><trkpt lat="43.3390272" lon="11.4737712"><ele>251.0</ele><time>2026-04-26T13:05:19.06Z</time></trkpt><trkpt lat="43.3391539" lon="11.4736419"><ele>246.33333333333334</ele><time>2026-04-26T13:05:20.061Z</time></trkpt><trkpt lat="43.339269" lon="11.4734672"><ele>241.66666666666669</ele><time>2026-04-26T13:05:21.071Z</time></trkpt><trkpt lat="43.3393769" lon="11.4732685"><ele>237.0</ele><time>2026-04-26T13:05:22.05Z</time></trkpt><trkpt lat="43.3394875" lon="11.473057"><ele>234.0</ele><time>2026-04-26T13:05:23.076Z</time></trkpt><trkpt lat="43.3395996" lon="11.4728458"><ele>231.0</ele><time>2026-04-26T13:05:24.081Z</time></trkpt><trkpt lat="43.3397149" lon="11.4726392"><ele>228.0</ele><time>2026-04-26T13:05:25.083Z</time></trkpt><trkpt lat="43.3398264" lon="11.4724422"><ele>227.66666666666669</ele><time>2026-04-26T13:05:26.086Z</time></trkpt><trkpt lat="43.3399273" lon="11.4722527"><ele>227.33333333333334</ele><time>2026-04-26T13:05:27.094Z</time></trkpt><trkpt lat="43.3400093" lon="11.4720641"><ele>227.0</ele><time>2026-04-26T13:05:28.085Z</time></trkpt><trkpt lat="43.3400659" lon="11.4718628"><ele>228.0</ele><time>2026-04-26T13:05:29.077Z</time></trkpt><trkpt lat="43.3400922" lon="11.4716408"><ele>229.0</ele><time>2026-04-26T13:05:30.078Z</time></trkpt><trkpt lat="43.340084" lon="11.4714096"><ele>230.0</ele><time>2026-04-26T13:05:31.067Z</time></trkpt><trkpt lat="43.3400403" lon="11.4711745"><ele>231.0</ele><time>2026-04-26T13:05:32.062Z</time></trkpt><trkpt lat="43.3399721" lon="11.4709443"><ele>232.0</ele><time>2026-04-26T13:05:33.054Z</time></trkpt><trkpt lat="43.3399024" lon="11.4707268"><ele>233.0</ele><time>2026-04-26T13:05:34.06Z</time></trkpt><trkpt lat="43.3398532" lon="11.4705194"><ele>233.66666666666669</ele><time>2026-04-26T13:05:35.047Z</time></trkpt><trkpt lat="43.3398377" lon="11.4703053"><ele>234.33333333333331</ele><time>2026-04-26T13:05:36.08Z</time></trkpt><trkpt lat="43.3398659" lon="11.4700843"><ele>235.0</ele><time>2026-04-26T13:05:37.069Z</time></trkpt><trkpt lat="43.3399254" lon="11.4698577"><ele>235.0</ele><time>2026-04-26T13:05:38.073Z</time></trkpt><trkpt lat="43.3400067" lon="11.4696458"><ele>235.0</ele><time>2026-04-26T13:05:39.083Z</time></trkpt><trkpt lat="43.3401121" lon="11.4694654"><ele>235.0</ele><time>2026-04-26T13:05:40.067Z</time></trkpt><trkpt lat="43.3402422" lon="11.4693206"><ele>234.0</ele><time>2026-04-26T13:05:41.075Z</time></trkpt><trkpt lat="43.340384" lon="11.4692263"><ele>233.0</ele><time>2026-04-26T13:05:42.081Z</time></trkpt><trkpt lat="43.3405291" lon="11.4691944"><ele>232.0</ele><time>2026-04-26T13:05:43.064Z</time></trkpt><trkpt lat="43.3406809" lon="11.4692223"><ele>234.0</ele><time>2026-04-26T13:05:44.069Z</time></trkpt><trkpt lat="43.3408384" lon="11.4692917"><ele>236.0</ele><time>2026-04-26T13:05:45.081Z</time></trkpt><trkpt lat="43.3409928" lon="11.4693646"><ele>238.0</ele><time>2026-04-26T13:05:46.076Z</time></trkpt><trkpt lat="43.3411424" lon="11.4694079"><ele>238.0</ele><time>2026-04-26T13:05:47.082Z</time></trkpt><trkpt lat="43.3412931" lon="11.4694084"><ele>238.0</ele><time>2026-04-26T13:05:48.08Z</time></trkpt><trkpt lat="43.341445" lon="11.4693622"><ele>238.0</ele><time>2026-04-26T13:05:49.087Z</time></trkpt><trkpt lat="43.3415885" lon="11.4692738"><ele>238.75</ele><time>2026-04-26T13:05:50.095Z</time></trkpt><trkpt lat="43.3417081" lon="11.4691498"><ele>239.5</ele><time>2026-04-26T13:05:51.102Z</time></trkpt><trkpt lat="43.3417926" lon="11.4689912"><ele>240.25</ele><time>2026-04-26T13:05:52.083Z</time></trkpt><trkpt lat="43.3418469" lon="11.4687943"><ele>241.0</ele><time>2026-04-26T13:05:53.08Z</time></trkpt><trkpt lat="43.3418674" lon="11.4685662"><ele>241.0</ele><time>2026-04-26T13:05:54.072Z</time></trkpt><trkpt lat="43.3418591" lon="11.4683079"><ele>241.0</ele><time>2026-04-26T13:05:55.07Z</time></trkpt><trkpt lat="43.3418389" lon="11.4680254"><ele>241.0</ele><time>2026-04-26T13:05:56.06Z</time></trkpt><trkpt lat="43.3418217" lon="11.467726"><ele>243.0</ele><time>2026-04-26T13:05:57.076Z</time></trkpt><trkpt lat="43.3418112" lon="11.4674253"><ele>245.0</ele><time>2026-04-26T13:05:58.074Z</time></trkpt><trkpt lat="43.341806" lon="11.4671296"><ele>247.0</ele><time>2026-04-26T13:05:59.065Z</time></trkpt><trkpt lat="43.3417995" lon="11.4668452"><ele>249.0</ele><time>2026-04-26T13:06:00.071Z</time></trkpt><trkpt lat="43.3417796" lon="11.4665806"><ele>251.0</ele><time>2026-04-26T13:06:01.084Z</time></trkpt><trkpt lat="43.3417327" lon="11.4663375"><ele>253.0</ele><time>2026-04-26T13:06:02.094Z</time></trkpt><trkpt lat="43.3416568" lon="11.4661083"><ele>253.66666666666666</ele><time>2026-04-26T13:06:03.083Z</time></trkpt><trkpt lat="43.341567" lon="11.4658844"><ele>254.33333333333331</ele><time>2026-04-26T13:06:04.096Z</time></trkpt><trkpt lat="43.3414908" lon="11.4656778"><ele>255.0</ele><time>2026-04-26T13:06:05.085Z</time></trkpt><trkpt lat="43.3414457" lon="11.4654794"><ele>255.5</ele><time>2026-04-26T13:06:06.099Z</time></trkpt><trkpt lat="43.3414526" lon="11.4652924"><ele>256.0</ele><time>2026-04-26T13:06:07.099Z</time></trkpt><trkpt lat="43.341512" lon="11.4651346"><ele>256.5</ele><time>2026-04-26T13:06:08.087Z</time></trkpt><trkpt lat="43.3416128" lon="11.4650204"><ele>257.0</ele><time>2026-04-26T13:06:09.111Z</time></trkpt><trkpt lat="43.3417377" lon="11.4649595"><ele>257.0</ele><time>2026-04-26T13:06:10.09Z</time></trkpt><trkpt lat="43.3418719" lon="11.4649618"><ele>257.0</ele><time>2026-04-26T13:06:11.085Z</time></trkpt><trkpt lat="43.3420011" lon="11.4650329"><ele>257.0</ele><time>2026-04-26T13:06:12.087Z</time></trkpt><trkpt lat="43.3421263" lon="11.4651571"><ele>257.0</ele><time>2026-04-26T13:06:13.091Z</time></trkpt><trkpt lat="43.3422535" lon="11.4653082"><ele>258.0</ele><time>2026-04-26T13:06:14.08Z</time></trkpt><trkpt lat="43.3423796" lon="11.4654569"><ele>259.0</ele><time>2026-04-26T13:06:15.107Z</time></trkpt><trkpt lat="43.3424968" lon="11.4655738"><ele>260.0</ele><time>2026-04-26T13:06:16.081Z</time></trkpt><trkpt lat="43.3426236" lon="11.4656534"><ele>260.0</ele><time>2026-04-26T13:06:17.083Z</time></trkpt><trkpt lat="43.3427644" lon="11.4656828"><ele>260.0</ele><time>2026-04-26T13:06:18.083Z</time></trkpt><trkpt lat="43.3429163" lon="11.4656551"><ele>260.0</ele><time>2026-04-26T13:06:19.095Z</time></trkpt><trkpt lat="43.3430718" lon="11.4655824"><ele>260.6666666666667</ele><time>2026-04-26T13:06:20.082Z</time></trkpt><trkpt lat="43.3432329" lon="11.4654876"><ele>261.3333333333333</ele><time>2026-04-26T13:06:21.082Z</time></trkpt><trkpt lat="43.3434003" lon="11.4654109"><ele>262.0</ele><time>2026-04-26T13:06:22.07Z</time></trkpt><trkpt lat="43.3435756" lon="11.4653877"><ele>262.66666666666663</ele><time>2026-04-26T13:06:23.084Z</time></trkpt><trkpt lat="43.3437517" lon="11.465415"><ele>263.3333333333333</ele><time>2026-04-26T13:06:24.086Z</time></trkpt><trkpt lat="43.3439311" lon="11.465463"><ele>264.0</ele><time>2026-04-26T13:06:25.099Z</time></trkpt><trkpt lat="43.344111" lon="11.4655121"><ele>264.0</ele><time>2026-04-26T13:06:26.082Z</time></trkpt><trkpt lat="43.3442935" lon="11.4655588"><ele>264.0</ele><time>2026-04-26T13:06:27.096Z</time></trkpt><trkpt lat="43.3444717" lon="11.4656023"><ele>264.0</ele><time>2026-04-26T13:06:28.086Z</time></trkpt><trkpt lat="43.3446486" lon="11.4656451"><ele>266.6666666666667</ele><time>2026-04-26T13:06:29.086Z</time></trkpt><trkpt lat="43.3448231" lon="11.4656967"><ele>269.33333333333337</ele><time>2026-04-26T13:06:30.091Z</time></trkpt><trkpt lat="43.3449914" lon="11.4657653"><ele>272.0</ele><time>2026-04-26T13:06:31.104Z</time></trkpt><trkpt lat="43.3451443" lon="11.4658512"><ele>272.0</ele><time>2026-04-26T13:06:32.091Z</time></trkpt><trkpt lat="43.3452815" lon="11.4659421"><ele>272.0</ele><time>2026-04-26T13:06:33.102Z</time></trkpt><trkpt lat="43.3454071" lon="11.4660109"><ele>272.0</ele><time>2026-04-26T13:06:34.092Z</time></trkpt><trkpt lat="43.3455311" lon="11.4660431"><ele>272.0</ele><time>2026-04-26T13:06:35.1Z</time></trkpt><trkpt lat="43.3456576" lon="11.4660323"><ele>273.25</ele><time>2026-04-26T13:06:36.088Z</time></trkpt><trkpt lat="43.3457899" lon="11.4659906"><ele>274.5</ele><time>2026-04-26T13:06:37.083Z</time></trkpt><trkpt lat="43.3459329" lon="11.4659512"><ele>275.75</ele><time>2026-04-26T13:06:38.074Z</time></trkpt><trkpt lat="43.3460879" lon="11.4659317"><ele>277.0</ele><time>2026-04-26T13:06:39.075Z</time></trkpt><trkpt lat="43.346247" lon="11.4659311"><ele>276.66666666666663</ele><time>2026-04-26T13:06:40.069Z</time></trkpt><trkpt lat="43.3464079" lon="11.4659385"><ele>276.3333333333333</ele><time>2026-04-26T13:06:41.076Z</time></trkpt><trkpt lat="43.346568" lon="11.4659236"><ele>276.0</ele><time>2026-04-26T13:06:42.079Z</time></trkpt><trkpt lat="43.3467238" lon="11.4658601"><ele>276.0</ele><time>2026-04-26T13:06:43.08Z</time></trkpt><trkpt lat="43.3468729" lon="11.4657433"><ele>276.0</ele><time>2026-04-26T13:06:44.088Z</time></trkpt><trkpt lat="43.3470091" lon="11.4655877"><ele>276.0</ele><time>2026-04-26T13:06:45.065Z</time></trkpt><trkpt lat="43.3471364" lon="11.4654108"><ele>279.6666666666667</ele><time>2026-04-26T13:06:46.075Z</time></trkpt><trkpt lat="43.3472562" lon="11.4652318"><ele>283.33333333333337</ele><time>2026-04-26T13:06:47.076Z</time></trkpt><trkpt lat="43.3473694" lon="11.4650632"><ele>287.0</ele><time>2026-04-26T13:06:48.075Z</time></trkpt><trkpt lat="43.3474739" lon="11.4649148"><ele>287.0</ele><time>2026-04-26T13:06:49.084Z</time></trkpt><trkpt lat="43.3475704" lon="11.4647862"><ele>287.0</ele><time>2026-04-26T13:06:50.065Z</time></trkpt><trkpt lat="43.3476719" lon="11.4646731"><ele>287.0</ele><time>2026-04-26T13:06:51.088Z</time></trkpt><trkpt lat="43.3477889" lon="11.4645878"><ele>287.0</ele><time>2026-04-26T13:06:52.075Z</time></trkpt><trkpt lat="43.347929" lon="11.4645332"><ele>286.6666666666667</ele><time>2026-04-26T13:06:53.069Z</time></trkpt><trkpt lat="43.3480905" lon="11.4645014"><ele>286.3333333333333</ele><time>2026-04-26T13:06:54.069Z</time></trkpt><trkpt lat="43.3482644" lon="11.4644795"><ele>286.0</ele><time>2026-04-26T13:06:55.061Z</time></trkpt><trkpt lat="43.3484428" lon="11.4644615"><ele>286.0</ele><time>2026-04-26T13:06:56.067Z</time></trkpt><trkpt lat="43.3486105" lon="11.4644528"><ele>286.0</ele><time>2026-04-26T13:06:57.052Z</time></trkpt><trkpt lat="43.3487582" lon="11.4644674"><ele>286.0</ele><time>2026-04-26T13:06:58.055Z</time></trkpt><trkpt lat="43.3488958" lon="11.4645077"><ele>287.5</ele><time>2026-04-26T13:06:59.06Z</time></trkpt><trkpt lat="43.3490311" lon="11.4645831"><ele>289.0</ele><time>2026-04-26T13:07:00.054Z</time></trkpt><trkpt lat="43.3491589" lon="11.4646933"><ele>290.5</ele><time>2026-04-26T13:07:01.068Z</time></trkpt><trkpt lat="43.3492832" lon="11.4648135"><ele>292.0</ele><time>2026-04-26T13:07:02.071Z</time></trkpt><trkpt lat="43.3494081" lon="11.4649259"><ele>295.0</ele><time>2026-04-26T13:07:03.052Z</time></trkpt><trkpt lat="43.3495347" lon="11.4650024"><ele>298.0</ele><time>2026-04-26T13:07:04.06Z</time></trkpt><trkpt lat="43.3496623" lon="11.4650243"><ele>301.0</ele><time>2026-04-26T13:07:05.068Z</time></trkpt><trkpt lat="43.3497876" lon="11.4649896"><ele>304.0</ele><time>2026-04-26T13:07:06.063Z</time></trkpt><trkpt lat="43.3498999" lon="11.4648952"><ele>303.5</ele><time>2026-04-26T13:07:07.071Z</time></trkpt><trkpt lat="43.3499861" lon="11.4647584"><ele>303.0</ele><time>2026-04-26T13:07:08.061Z</time></trkpt><trkpt lat="43.3500413" lon="11.4645831"><ele>302.5</ele><time>2026-04-26T13:07:09.064Z</time></trkpt><trkpt lat="43.3500791" lon="11.4643874"><ele>302.0</ele><time>2026-04-26T13:07:10.065Z</time></trkpt><trkpt lat="43.3501271" lon="11.464208"><ele>302.0</ele><time>2026-04-26T13:07:11.054Z</time></trkpt><trkpt lat="43.3502125" lon="11.4640603"><ele>302.0</ele><time>2026-04-26T13:07:12.06Z</time></trkpt><trkpt lat="43.3503315" lon="11.4639378"><ele>302.0</ele><time>2026-04-26T13:07:13.062Z</time></trkpt><trkpt lat="43.3504435" lon="11.4638146"><ele>302.0</ele><time>2026-04-26T13:07:14.07Z</time></trkpt><trkpt lat="43.3505116" lon="11.4636724"><ele>301.25</ele><time>2026-04-26T13:07:15.074Z</time></trkpt><trkpt lat="43.3505253" lon="11.463508"><ele>300.5</ele><time>2026-04-26T13:07:16.08Z</time></trkpt><trkpt lat="43.3504896" lon="11.4633338"><ele>299.75</ele><time>2026-04-26T13:07:17.071Z</time></trkpt><trkpt lat="43.3504133" lon="11.4631626"><ele>299.0</ele><time>2026-04-26T13:07:18.067Z</time></trkpt><trkpt lat="43.3503091" lon="11.463019"><ele>300.59999999999997</ele><time>2026-04-26T13:07:19.084Z</time></trkpt><trkpt lat="43.3502071" lon="11.4629058"><ele>302.2</ele><time>2026-04-26T13:07:20.069Z</time></trkpt><trkpt lat="43.3501319" lon="11.4627852"><ele>303.79999999999995</ele><time>2026-04-26T13:07:21.08Z</time></trkpt><trkpt lat="43.3501033" lon="11.4626582"><ele>305.4</ele><time>2026-04-26T13:07:22.083Z</time></trkpt><trkpt lat="43.3501206" lon="11.4625517"><ele>307.0</ele><time>2026-04-26T13:07:23.071Z</time></trkpt><trkpt lat="43.3501767" lon="11.4624752"><ele>307.0</ele><time>2026-04-26T13:07:24.086Z</time></trkpt><trkpt lat="43.3502608" lon="11.4624292"><ele>307.0</ele><time>2026-04-26T13:07:25.092Z</time></trkpt><trkpt lat="43.350361" lon="11.4623895"><ele>307.0</ele><time>2026-04-26T13:07:26.082Z</time></trkpt><trkpt lat="43.3504758" lon="11.4623394"><ele>307.0</ele><time>2026-04-26T13:07:27.104Z</time></trkpt><trkpt lat="43.3506008" lon="11.4622812"><ele>307.0</ele><time>2026-04-26T13:07:28.086Z</time></trkpt><trkpt lat="43.3507378" lon="11.4622123"><ele>307.0</ele><time>2026-04-26T13:07:29.089Z</time></trkpt><trkpt lat="43.3508819" lon="11.4621285"><ele>307.0</ele><time>2026-04-26T13:07:30.09Z</time></trkpt><trkpt lat="43.3510239" lon="11.4620279"><ele>307.0</ele><time>2026-04-26T13:07:31.097Z</time></trkpt><trkpt lat="43.3511539" lon="11.4619254"><ele>307.0</ele><time>2026-04-26T13:07:32.101Z</time></trkpt><trkpt lat="43.3512756" lon="11.4618391"><ele>307.0</ele><time>2026-04-26T13:07:33.088Z</time></trkpt><trkpt lat="43.3513971" lon="11.4617908"><ele>307.0</ele><time>2026-04-26T13:07:34.071Z</time></trkpt><trkpt lat="43.3515197" lon="11.4618014"><ele>307.0</ele><time>2026-04-26T13:07:35.051Z</time></trkpt><trkpt lat="43.3516459" lon="11.4618503"><ele>308.5</ele><time>2026-04-26T13:07:36.07Z</time></trkpt><trkpt lat="43.3517728" lon="11.461895"><ele>310.0</ele><time>2026-04-26T13:07:37.057Z</time></trkpt><trkpt lat="43.3519036" lon="11.4618971"><ele>311.5</ele><time>2026-04-26T13:07:38.058Z</time></trkpt><trkpt lat="43.3520373" lon="11.4618472"><ele>313.0</ele><time>2026-04-26T13:07:39.065Z</time></trkpt><trkpt lat="43.3521763" lon="11.4617598"><ele>314.0</ele><time>2026-04-26T13:07:40.069Z</time></trkpt><trkpt lat="43.3523194" lon="11.461674"><ele>315.0</ele><time>2026-04-26T13:07:41.053Z</time></trkpt><trkpt lat="43.3524635" lon="11.4616146"><ele>316.0</ele><time>2026-04-26T13:07:42.058Z</time></trkpt><trkpt lat="43.352595" lon="11.4615805"><ele>317.0</ele><time>2026-04-26T13:07:43.062Z</time></trkpt><trkpt lat="43.3527047" lon="11.461542"><ele>317.0</ele><time>2026-04-26T13:07:44.069Z</time></trkpt><trkpt lat="43.3527907" lon="11.4614715"><ele>317.0</ele><time>2026-04-26T13:07:45.056Z</time></trkpt><trkpt lat="43.3528467" lon="11.4613504"><ele>317.0</ele><time>2026-04-26T13:07:46.059Z</time></trkpt><trkpt lat="43.3528757" lon="11.4611873"><ele>317.0</ele><time>2026-04-26T13:07:47.061Z</time></trkpt><trkpt lat="43.3529011" lon="11.4610068"><ele>316.0</ele><time>2026-04-26T13:07:48.057Z</time></trkpt><trkpt lat="43.3529448" lon="11.4608348"><ele>315.0</ele><time>2026-04-26T13:07:49.062Z</time></trkpt><trkpt lat="43.3530221" lon="11.4607045"><ele>314.0</ele><time>2026-04-26T13:07:50.049Z</time></trkpt><trkpt lat="43.3531285" lon="11.460637"><ele>313.0</ele><time>2026-04-26T13:07:51.061Z</time></trkpt><trkpt lat="43.3532529" lon="11.4606213"><ele>313.0</ele><time>2026-04-26T13:07:52.057Z</time></trkpt><trkpt lat="43.3533875" lon="11.4606308"><ele>313.0</ele><time>2026-04-26T13:07:53.047Z</time></trkpt><trkpt lat="43.3535179" lon="11.4606307"><ele>313.0</ele><time>2026-04-26T13:07:54.056Z</time></trkpt><trkpt lat="43.3536329" lon="11.4605888"><ele>313.0</ele><time>2026-04-26T13:07:55.047Z</time></trkpt><trkpt lat="43.3537201" lon="11.460499"><ele>310.2</ele><time>2026-04-26T13:07:56.054Z</time></trkpt><trkpt lat="43.3537636" lon="11.4603739"><ele>307.4</ele><time>2026-04-26T13:07:57.056Z</time></trkpt><trkpt lat="43.3537572" lon="11.4602346"><ele>304.59999999999997</ele><time>2026-04-26T13:07:58.041Z</time></trkpt><trkpt lat="43.3537034" lon="11.4600997"><ele>301.8</ele><time>2026-04-26T13:07:59.043Z</time></trkpt><trkpt lat="43.3536137" lon="11.4599698"><ele>299.0</ele><time>2026-04-26T13:08:00.043Z</time></trkpt><trkpt lat="43.3535061" lon="11.4598341"><ele>299.0</ele><time>2026-04-26T13:08:01.035Z</time></trkpt><trkpt lat="43.3533899" lon="11.4596825"><ele>299.0</ele><time>2026-04-26T13:08:02.053Z</time></trkpt><trkpt lat="43.3532717" lon="11.4595147"><ele>299.0</ele><time>2026-04-26T13:08:03.062Z</time></trkpt><trkpt lat="43.3531535" lon="11.459336"><ele>299.0</ele><time>2026-04-26T13:08:04.065Z</time></trkpt><trkpt lat="43.3530398" lon="11.459143"><ele>299.0</ele><time>2026-04-26T13:08:05.055Z</time></trkpt><trkpt lat="43.3529306" lon="11.458923"><ele>299.0</ele><time>2026-04-26T13:08:06.063Z</time></trkpt><trkpt lat="43.3528278" lon="11.4586798"><ele>294.0</ele><time>2026-04-26T13:08:07.081Z</time></trkpt><trkpt lat="43.3527306" lon="11.45843"><ele>289.0</ele><time>2026-04-26T13:08:08.059Z</time></trkpt><trkpt lat="43.3526338" lon="11.4581767"><ele>284.0</ele><time>2026-04-26T13:08:09.071Z</time></trkpt><trkpt lat="43.3525416" lon="11.4579318"><ele>283.6666666666667</ele><time>2026-04-26T13:08:10.068Z</time></trkpt><trkpt lat="43.3524552" lon="11.4576954"><ele>283.3333333333333</ele><time>2026-04-26T13:08:11.061Z</time></trkpt><trkpt lat="43.352379" lon="11.4574676"><ele>283.0</ele><time>2026-04-26T13:08:12.068Z</time></trkpt><trkpt lat="43.3523166" lon="11.457258"><ele>281.25</ele><time>2026-04-26T13:08:13.062Z</time></trkpt><trkpt lat="43.3522671" lon="11.4570669"><ele>279.5</ele><time>2026-04-26T13:08:14.076Z</time></trkpt><trkpt lat="43.3522295" lon="11.4568955"><ele>277.75</ele><time>2026-04-26T13:08:15.082Z</time></trkpt><trkpt lat="43.3522083" lon="11.4567333"><ele>276.0</ele><time>2026-04-26T13:08:16.089Z</time></trkpt><trkpt lat="43.3522093" lon="11.4565727"><ele>276.0</ele><time>2026-04-26T13:08:17.1Z</time></trkpt><trkpt lat="43.3522412" lon="11.4564206"><ele>276.0</ele><time>2026-04-26T13:08:18.101Z</time></trkpt><trkpt lat="43.3522992" lon="11.4562862"><ele>276.0</ele><time>2026-04-26T13:08:19.083Z</time></trkpt><trkpt lat="43.3523748" lon="11.4561808"><ele>276.0</ele><time>2026-04-26T13:08:20.087Z</time></trkpt><trkpt lat="43.3524658" lon="11.4561302"><ele>276.0</ele><time>2026-04-26T13:08:21.074Z</time></trkpt><trkpt lat="43.3525761" lon="11.4561341"><ele>274.0</ele><time>2026-04-26T13:08:22.081Z</time></trkpt><trkpt lat="43.3527029" lon="11.4561632"><ele>272.0</ele><time>2026-04-26T13:08:23.064Z</time></trkpt><trkpt lat="43.3528412" lon="11.4561651"><ele>270.0</ele><time>2026-04-26T13:08:24.071Z</time></trkpt><trkpt lat="43.3529678" lon="11.4561068"><ele>268.0</ele><time>2026-04-26T13:08:25.064Z</time></trkpt><trkpt lat="43.3530711" lon="11.4559847"><ele>268.0</ele><time>2026-04-26T13:08:26.074Z</time></trkpt><trkpt lat="43.3531541" lon="11.4558051"><ele>268.0</ele><time>2026-04-26T13:08:27.083Z</time></trkpt><trkpt lat="43.3532233" lon="11.4555938"><ele>268.0</ele><time>2026-04-26T13:08:28.085Z</time></trkpt><trkpt lat="43.3532883" lon="11.4553914"><ele>266.25</ele><time>2026-04-26T13:08:29.073Z</time></trkpt><trkpt lat="43.3533669" lon="11.4552258"><ele>264.5</ele><time>2026-04-26T13:08:30.078Z</time></trkpt><trkpt lat="43.3534616" lon="11.4551234"><ele>262.75</ele><time>2026-04-26T13:08:31.08Z</time></trkpt><trkpt lat="43.3535614" lon="11.4550984"><ele>261.0</ele><time>2026-04-26T13:08:32.069Z</time></trkpt><trkpt lat="43.353656" lon="11.4551495"><ele>261.0</ele><time>2026-04-26T13:08:33.082Z</time></trkpt><trkpt lat="43.3537429" lon="11.4552631"><ele>261.0</ele><time>2026-04-26T13:08:34.081Z</time></trkpt><trkpt lat="43.3538254" lon="11.4554041"><ele>261.0</ele><time>2026-04-26T13:08:35.073Z</time></trkpt><trkpt lat="43.3539027" lon="11.4555217"><ele>261.0</ele><time>2026-04-26T13:08:36.077Z</time></trkpt><trkpt lat="43.3539826" lon="11.4555794"><ele>261.0</ele><time>2026-04-26T13:08:37.063Z</time></trkpt><trkpt lat="43.3540614" lon="11.4555638"><ele>261.0</ele><time>2026-04-26T13:08:38.073Z</time></trkpt><trkpt lat="43.3541125" lon="11.4554859"><ele>261.0</ele><time>2026-04-26T13:08:39.084Z</time></trkpt><trkpt lat="43.3541182" lon="11.4553718"><ele>261.0</ele><time>2026-04-26T13:08:40.067Z</time></trkpt><trkpt lat="43.3540861" lon="11.4552297"><ele>261.0</ele><time>2026-04-26T13:08:41.077Z</time></trkpt><trkpt lat="43.354035" lon="11.4550577"><ele>261.0</ele><time>2026-04-26T13:08:42.064Z</time></trkpt><trkpt lat="43.353979" lon="11.4548508"><ele>261.0</ele><time>2026-04-26T13:08:43.066Z</time></trkpt><trkpt lat="43.3539203" lon="11.4546167"><ele>261.0</ele><time>2026-04-26T13:08:44.075Z</time></trkpt><trkpt lat="43.3538568" lon="11.4543776"><ele>258.3333333333333</ele><time>2026-04-26T13:08:45.075Z</time></trkpt><trkpt lat="43.3537848" lon="11.4541499"><ele>255.66666666666666</ele><time>2026-04-26T13:08:46.058Z</time></trkpt><trkpt lat="43.3536964" lon="11.4539269"><ele>253.0</ele><time>2026-04-26T13:08:47.062Z</time></trkpt><trkpt lat="43.3535887" lon="11.4537027"><ele>252.0</ele><time>2026-04-26T13:08:48.061Z</time></trkpt><trkpt lat="43.3534708" lon="11.4534847"><ele>251.0</ele><time>2026-04-26T13:08:49.042Z</time></trkpt><trkpt lat="43.3533476" lon="11.4532828"><ele>250.0</ele><time>2026-04-26T13:08:50.051Z</time></trkpt><trkpt lat="43.3532204" lon="11.4531014"><ele>248.33333333333331</ele><time>2026-04-26T13:08:51.049Z</time></trkpt><trkpt lat="43.3530933" lon="11.4529325"><ele>246.66666666666669</ele><time>2026-04-26T13:08:52.058Z</time></trkpt><trkpt lat="43.3529782" lon="11.4527624"><ele>245.0</ele><time>2026-04-26T13:08:53.053Z</time></trkpt><trkpt lat="43.35288" lon="11.4525696"><ele>242.66666666666669</ele><time>2026-04-26T13:08:54.066Z</time></trkpt><trkpt lat="43.3527957" lon="11.4523533"><ele>240.33333333333331</ele><time>2026-04-26T13:08:55.074Z</time></trkpt><trkpt lat="43.3527269" lon="11.4521206"><ele>238.0</ele><time>2026-04-26T13:08:56.077Z</time></trkpt><trkpt lat="43.3526836" lon="11.4518844"><ele>235.66666666666666</ele><time>2026-04-26T13:08:57.086Z</time></trkpt><trkpt lat="43.3526738" lon="11.4516499"><ele>233.33333333333331</ele><time>2026-04-26T13:08:58.069Z</time></trkpt><trkpt lat="43.3526951" lon="11.4514033"><ele>231.0</ele><time>2026-04-26T13:08:59.098Z</time></trkpt><trkpt lat="43.3527286" lon="11.4511452"><ele>229.66666666666669</ele><time>2026-04-26T13:09:00.077Z</time></trkpt><trkpt lat="43.3527614" lon="11.4508663"><ele>228.33333333333334</ele><time>2026-04-26T13:09:01.087Z</time></trkpt><trkpt lat="43.3527912" lon="11.4505812"><ele>227.0</ele><time>2026-04-26T13:09:02.092Z</time></trkpt><trkpt lat="43.3528186" lon="11.4503037"><ele>226.66666666666669</ele><time>2026-04-26T13:09:03.108Z</time></trkpt><trkpt lat="43.3528441" lon="11.4500489"><ele>226.33333333333331</ele><time>2026-04-26T13:09:04.098Z</time></trkpt><trkpt lat="43.3528618" lon="11.4498097"><ele>226.0</ele><time>2026-04-26T13:09:05.103Z</time></trkpt><trkpt lat="43.3528511" lon="11.4495884"><ele>228.0</ele><time>2026-04-26T13:09:06.085Z</time></trkpt><trkpt lat="43.352793" lon="11.449378"><ele>230.0</ele><time>2026-04-26T13:09:07.102Z</time></trkpt><trkpt lat="43.3526899" lon="11.4491915"><ele>232.0</ele><time>2026-04-26T13:09:08.084Z</time></trkpt><trkpt lat="43.3525475" lon="11.4490374"><ele>232.0</ele><time>2026-04-26T13:09:09.093Z</time></trkpt><trkpt lat="43.3523827" lon="11.4489175"><ele>232.0</ele><time>2026-04-26T13:09:10.073Z</time></trkpt><trkpt lat="43.3522154" lon="11.4488123"><ele>232.0</ele><time>2026-04-26T13:09:11.075Z</time></trkpt><trkpt lat="43.3520726" lon="11.4486967"><ele>232.66666666666666</ele><time>2026-04-26T13:09:12.069Z</time></trkpt><trkpt lat="43.3519589" lon="11.4485501"><ele>233.33333333333331</ele><time>2026-04-26T13:09:13.071Z</time></trkpt><trkpt lat="43.3518784" lon="11.4483707"><ele>234.0</ele><time>2026-04-26T13:09:14.084Z</time></trkpt><trkpt lat="43.3518328" lon="11.4481622"><ele>234.0</ele><time>2026-04-26T13:09:15.094Z</time></trkpt><trkpt lat="43.3518133" lon="11.4479297"><ele>234.0</ele><time>2026-04-26T13:09:16.076Z</time></trkpt><trkpt lat="43.3518063" lon="11.4476833"><ele>234.0</ele><time>2026-04-26T13:09:17.089Z</time></trkpt><trkpt lat="43.3518048" lon="11.4474444"><ele>234.0</ele><time>2026-04-26T13:09:18.103Z</time></trkpt><trkpt lat="43.3518067" lon="11.4472238"><ele>234.0</ele><time>2026-04-26T13:09:19.107Z</time></trkpt><trkpt lat="43.3518078" lon="11.4470309"><ele>234.0</ele><time>2026-04-26T13:09:20.091Z</time></trkpt><trkpt lat="43.351805" lon="11.4468602"><ele>234.0</ele><time>2026-04-26T13:09:21.092Z</time></trkpt><trkpt lat="43.3518" lon="11.4466999"><ele>234.25</ele><time>2026-04-26T13:09:22.1Z</time></trkpt><trkpt lat="43.3517957" lon="11.4465399"><ele>234.5</ele><time>2026-04-26T13:09:23.098Z</time></trkpt><trkpt lat="43.351792" lon="11.4463703"><ele>234.75</ele><time>2026-04-26T13:09:24.101Z</time></trkpt><trkpt lat="43.3517891" lon="11.4461826"><ele>235.0</ele><time>2026-04-26T13:09:25.101Z</time></trkpt><trkpt lat="43.3517859" lon="11.4459729"><ele>236.66666666666666</ele><time>2026-04-26T13:09:26.094Z</time></trkpt><trkpt lat="43.351783" lon="11.4457438"><ele>238.33333333333331</ele><time>2026-04-26T13:09:27.103Z</time></trkpt><trkpt lat="43.3517801" lon="11.4455099"><ele>240.0</ele><time>2026-04-26T13:09:28.091Z</time></trkpt><trkpt lat="43.351772" lon="11.4452768"><ele>241.33333333333331</ele><time>2026-04-26T13:09:29.107Z</time></trkpt><trkpt lat="43.3517549" lon="11.4450538"><ele>242.66666666666666</ele><time>2026-04-26T13:09:30.096Z</time></trkpt><trkpt lat="43.3517257" lon="11.4448416"><ele>244.0</ele><time>2026-04-26T13:09:31.1Z</time></trkpt><trkpt lat="43.3516861" lon="11.4446489"><ele>244.5</ele><time>2026-04-26T13:09:32.086Z</time></trkpt><trkpt lat="43.3516407" lon="11.4444653"><ele>245.0</ele><time>2026-04-26T13:09:33.094Z</time></trkpt><trkpt lat="43.3515973" lon="11.4442813"><ele>245.5</ele><time>2026-04-26T13:09:34.093Z</time></trkpt><trkpt lat="43.3515658" lon="11.4440901"><ele>246.0</ele><time>2026-04-26T13:09:35.083Z</time></trkpt><trkpt lat="43.3515484" lon="11.4438896"><ele>244.25</ele><time>2026-04-26T13:09:36.084Z</time></trkpt><trkpt lat="43.3515456" lon="11.4436932"><ele>242.5</ele><time>2026-04-26T13:09:37.086Z</time></trkpt><trkpt lat="43.3515625" lon="11.4435166"><ele>240.75</ele><time>2026-04-26T13:09:38.078Z</time></trkpt><trkpt lat="43.3516135" lon="11.4433631"><ele>239.0</ele><time>2026-04-26T13:09:39.098Z</time></trkpt><trkpt lat="43.3517041" lon="11.4432453"><ele>239.0</ele><time>2026-04-26T13:09:40.081Z</time></trkpt><trkpt lat="43.3518332" lon="11.4431577"><ele>239.0</ele><time>2026-04-26T13:09:41.085Z</time></trkpt><trkpt lat="43.3519941" lon="11.4430895"><ele>239.0</ele><time>2026-04-26T13:09:42.068Z</time></trkpt><trkpt lat="43.3521729" lon="11.4430316"><ele>239.66666666666669</ele><time>2026-04-26T13:09:43.086Z</time></trkpt><trkpt lat="43.3523437" lon="11.4429891"><ele>240.33333333333331</ele><time>2026-04-26T13:09:44.08Z</time></trkpt><trkpt lat="43.3525026" lon="11.4429475"><ele>241.0</ele><time>2026-04-26T13:09:45.087Z</time></trkpt><trkpt lat="43.3526396" lon="11.4428819"><ele>238.75</ele><time>2026-04-26T13:09:46.091Z</time></trkpt><trkpt lat="43.3527452" lon="11.4427807"><ele>236.5</ele><time>2026-04-26T13:09:47.092Z</time></trkpt><trkpt lat="43.3528103" lon="11.4426483"><ele>234.25</ele><time>2026-04-26T13:09:48.081Z</time></trkpt><trkpt lat="43.3528326" lon="11.4424861"><ele>232.0</ele><time>2026-04-26T13:09:49.091Z</time></trkpt><trkpt lat="43.3528177" lon="11.442298"><ele>234.66666666666666</ele><time>2026-04-26T13:09:50.083Z</time></trkpt><trkpt lat="43.3527731" lon="11.4420904"><ele>237.33333333333331</ele><time>2026-04-26T13:09:51.079Z</time></trkpt><trkpt lat="43.3527023" lon="11.4418754"><ele>240.0</ele><time>2026-04-26T13:09:52.083Z</time></trkpt><trkpt lat="43.3526049" lon="11.4416723"><ele>240.0</ele><time>2026-04-26T13:09:53.084Z</time></trkpt><trkpt lat="43.3524805" lon="11.4414981"><ele>240.0</ele><time>2026-04-26T13:09:54.076Z</time></trkpt><trkpt lat="43.3523328" lon="11.4413563"><ele>240.0</ele><time>2026-04-26T13:09:55.071Z</time></trkpt><trkpt lat="43.3521668" lon="11.4412546"><ele>241.66666666666669</ele><time>2026-04-26T13:09:56.077Z</time></trkpt><trkpt lat="43.3519998" lon="11.441196"><ele>243.33333333333334</ele><time>2026-04-26T13:09:57.067Z</time></trkpt><trkpt lat="43.3518451" lon="11.4411686"><ele>245.0</ele><time>2026-04-26T13:09:58.076Z</time></trkpt><trkpt lat="43.3517068" lon="11.441147"><ele>245.0</ele><time>2026-04-26T13:09:59.089Z</time></trkpt><trkpt lat="43.3515904" lon="11.4410928"><ele>245.0</ele><time>2026-04-26T13:10:00.065Z</time></trkpt><trkpt lat="43.3514972" lon="11.4409824"><ele>245.0</ele><time>2026-04-26T13:10:01.072Z</time></trkpt><trkpt lat="43.3514318" lon="11.4408271"><ele>245.0</ele><time>2026-04-26T13:10:02.078Z</time></trkpt><trkpt lat="43.3513979" lon="11.4406479"><ele>247.0</ele><time>2026-04-26T13:10:03.068Z</time></trkpt><trkpt lat="43.3513899" lon="11.4404621"><ele>249.0</ele><time>2026-04-26T13:10:04.081Z</time></trkpt><trkpt lat="43.3513975" lon="11.4402862"><ele>251.0</ele><time>2026-04-26T13:10:05.098Z</time></trkpt><trkpt lat="43.3514126" lon="11.4401311"><ele>253.0</ele><time>2026-04-26T13:10:06.085Z</time></trkpt><trkpt lat="43.3514319" lon="11.4399884"><ele>253.0</ele><time>2026-04-26T13:10:07.105Z</time></trkpt><trkpt lat="43.3514611" lon="11.4398654"><ele>253.0</ele><time>2026-04-26T13:10:08.087Z</time></trkpt><trkpt lat="43.3515081" lon="11.4397618"><ele>253.0</ele><time>2026-04-26T13:10:09.107Z</time></trkpt><trkpt lat="43.3515734" lon="11.4396736"><ele>253.0</ele><time>2026-04-26T13:10:10.086Z</time></trkpt><trkpt lat="43.351661" lon="11.4395934"><ele>253.0</ele><time>2026-04-26T13:10:11.097Z</time></trkpt><trkpt lat="43.3517728" lon="11.439521"><ele>252.5</ele><time>2026-04-26T13:10:12.087Z</time></trkpt><trkpt lat="43.3519007" lon="11.4394572"><ele>252.0</ele><time>2026-04-26T13:10:13.084Z</time></trkpt><trkpt lat="43.3520303" lon="11.4394117"><ele>251.5</ele><time>2026-04-26T13:10:14.091Z</time></trkpt><trkpt lat="43.3521615" lon="11.4393779"><ele>251.0</ele><time>2026-04-26T13:10:15.081Z</time></trkpt><trkpt lat="43.3522903" lon="11.4393268"><ele>252.75</ele><time>2026-04-26T13:10:16.088Z</time></trkpt><trkpt lat="43.3524079" lon="11.4392299"><ele>254.5</ele><time>2026-04-26T13:10:17.083Z</time></trkpt><trkpt lat="43.3525182" lon="11.4390929"><ele>256.25</ele><time>2026-04-26T13:10:18.085Z</time></trkpt><trkpt lat="43.3526331" lon="11.4389489"><ele>258.0</ele><time>2026-04-26T13:10:19.102Z</time></trkpt><trkpt lat="43.3527571" lon="11.4388193"><ele>258.0</ele><time>2026-04-26T13:10:20.112Z</time></trkpt><trkpt lat="43.3528885" lon="11.4387047"><ele>258.0</ele><time>2026-04-26T13:10:21.112Z</time></trkpt><trkpt lat="43.3530175" lon="11.4386038"><ele>258.0</ele><time>2026-04-26T13:10:22.083Z</time></trkpt><trkpt lat="43.3531405" lon="11.4385202"><ele>258.0</ele><time>2026-04-26T13:10:23.087Z</time></trkpt><trkpt lat="43.3532615" lon="11.4384538"><ele>259.75</ele><time>2026-04-26T13:10:24.075Z</time></trkpt><trkpt lat="43.3533936" lon="11.4384035"><ele>261.5</ele><time>2026-04-26T13:10:25.083Z</time></trkpt><trkpt lat="43.353537" lon="11.4383643"><ele>263.25</ele><time>2026-04-26T13:10:26.062Z</time></trkpt><trkpt lat="43.3536909" lon="11.4383245"><ele>265.0</ele><time>2026-04-26T13:10:27.066Z</time></trkpt><trkpt lat="43.353846" lon="11.4382853"><ele>265.25</ele><time>2026-04-26T13:10:28.072Z</time></trkpt><trkpt lat="43.3539921" lon="11.4382481"><ele>265.5</ele><time>2026-04-26T13:10:29.073Z</time></trkpt><trkpt lat="43.3541254" lon="11.4382145"><ele>265.75</ele><time>2026-04-26T13:10:30.078Z</time></trkpt><trkpt lat="43.3542524" lon="11.4381839"><ele>266.0</ele><time>2026-04-26T13:10:31.075Z</time></trkpt><trkpt lat="43.3543813" lon="11.4381582"><ele>266.0</ele><time>2026-04-26T13:10:32.077Z</time></trkpt><trkpt lat="43.3545131" lon="11.4381429"><ele>266.0</ele><time>2026-04-26T13:10:33.067Z</time></trkpt><trkpt lat="43.3546512" lon="11.4381398"><ele>266.0</ele><time>2026-04-26T13:10:34.079Z</time></trkpt><trkpt lat="43.3547906" lon="11.4381488"><ele>266.0</ele><time>2026-04-26T13:10:35.084Z</time></trkpt><trkpt lat="43.3549285" lon="11.438173"><ele>266.5</ele><time>2026-04-26T13:10:36.093Z</time></trkpt><trkpt lat="43.3550588" lon="11.4382031"><ele>267.0</ele><time>2026-04-26T13:10:37.078Z</time></trkpt><trkpt lat="43.3551821" lon="11.4382316"><ele>267.5</ele><time>2026-04-26T13:10:38.073Z</time></trkpt><trkpt lat="43.3553033" lon="11.4382572"><ele>268.0</ele><time>2026-04-26T13:10:39.087Z</time></trkpt><trkpt lat="43.3554255" lon="11.4382839"><ele>267.5</ele><time>2026-04-26T13:10:40.092Z</time></trkpt><trkpt lat="43.3555451" lon="11.4383113"><ele>267.0</ele><time>2026-04-26T13:10:41.092Z</time></trkpt><trkpt lat="43.355661" lon="11.4383371"><ele>266.5</ele><time>2026-04-26T13:10:42.093Z</time></trkpt><trkpt lat="43.355773" lon="11.4383607"><ele>266.0</ele><time>2026-04-26T13:10:43.097Z</time></trkpt><trkpt lat="43.3558823" lon="11.4383841"><ele>266.0</ele><time>2026-04-26T13:10:44.102Z</time></trkpt><trkpt lat="43.3559903" lon="11.4384077"><ele>266.0</ele><time>2026-04-26T13:10:45.096Z</time></trkpt><trkpt lat="43.356101" lon="11.4384321"><ele>266.0</ele><time>2026-04-26T13:10:46.094Z</time></trkpt><trkpt lat="43.3562157" lon="11.4384552"><ele>266.0</ele><time>2026-04-26T13:10:47.083Z</time></trkpt><trkpt lat="43.3563376" lon="11.4384809"><ele>265.75</ele><time>2026-04-26T13:10:48.085Z</time></trkpt><trkpt lat="43.3564664" lon="11.4385105"><ele>265.5</ele><time>2026-04-26T13:10:49.083Z</time></trkpt><trkpt lat="43.3566021" lon="11.4385416"><ele>265.25</ele><time>2026-04-26T13:10:50.08Z</time></trkpt><trkpt lat="43.3567423" lon="11.4385725"><ele>265.0</ele><time>2026-04-26T13:10:51.063Z</time></trkpt><trkpt lat="43.3568867" lon="11.4385982"><ele>265.0</ele><time>2026-04-26T13:10:52.061Z</time></trkpt><trkpt lat="43.3570338" lon="11.438611"><ele>265.0</ele><time>2026-04-26T13:10:53.077Z</time></trkpt><trkpt lat="43.3571826" lon="11.4386002"><ele>265.0</ele><time>2026-04-26T13:10:54.089Z</time></trkpt><trkpt lat="43.3573366" lon="11.4385645"><ele>265.0</ele><time>2026-04-26T13:10:55.093Z</time></trkpt><trkpt lat="43.357498" lon="11.4385146"><ele>265.0</ele><time>2026-04-26T13:10:56.082Z</time></trkpt><trkpt lat="43.3576646" lon="11.4384604"><ele>265.0</ele><time>2026-04-26T13:10:57.102Z</time></trkpt><trkpt lat="43.3578243" lon="11.4384081"><ele>265.0</ele><time>2026-04-26T13:10:58.089Z</time></trkpt><trkpt lat="43.3579707" lon="11.438352"><ele>265.0</ele><time>2026-04-26T13:10:59.087Z</time></trkpt><trkpt lat="43.3580997" lon="11.4382765"><ele>265.0</ele><time>2026-04-26T13:11:00.097Z</time></trkpt><trkpt lat="43.3582082" lon="11.4381632"><ele>265.0</ele><time>2026-04-26T13:11:01.108Z</time></trkpt><trkpt lat="43.3582943" lon="11.4380066"><ele>266.3333333333333</ele><time>2026-04-26T13:11:02.084Z</time></trkpt><trkpt lat="43.3583592" lon="11.4378147"><ele>267.6666666666667</ele><time>2026-04-26T13:11:03.089Z</time></trkpt><trkpt lat="43.3584004" lon="11.437604"><ele>269.0</ele><time>2026-04-26T13:11:04.091Z</time></trkpt><trkpt lat="43.358414" lon="11.4373848"><ele>269.0</ele><time>2026-04-26T13:11:05.075Z</time></trkpt><trkpt lat="43.3583977" lon="11.4371647"><ele>269.0</ele><time>2026-04-26T13:11:06.089Z</time></trkpt><trkpt lat="43.3583712" lon="11.4369624"><ele>269.0</ele><time>2026-04-26T13:11:07.076Z</time></trkpt><trkpt lat="43.35836" lon="11.4367741"><ele>269.0</ele><time>2026-04-26T13:11:08.082Z</time></trkpt><trkpt lat="43.3583732" lon="11.4365955"><ele>269.0</ele><time>2026-04-26T13:11:09.093Z</time></trkpt><trkpt lat="43.3583998" lon="11.4364223"><ele>269.0</ele><time>2026-04-26T13:11:10.083Z</time></trkpt><trkpt lat="43.3584298" lon="11.4362494"><ele>269.0</ele><time>2026-04-26T13:11:11.095Z</time></trkpt><trkpt lat="43.358459" lon="11.4360721"><ele>269.0</ele><time>2026-04-26T13:11:12.086Z</time></trkpt><trkpt lat="43.358493" lon="11.4358817"><ele>269.0</ele><time>2026-04-26T13:11:13.091Z</time></trkpt><trkpt lat="43.3585407" lon="11.4356795"><ele>269.0</ele><time>2026-04-26T13:11:14.078Z</time></trkpt><trkpt lat="43.3586083" lon="11.4354672"><ele>269.0</ele><time>2026-04-26T13:11:15.082Z</time></trkpt><trkpt lat="43.3586884" lon="11.4352567"><ele>269.6666666666667</ele><time>2026-04-26T13:11:16.067Z</time></trkpt><trkpt lat="43.3587738" lon="11.4350444"><ele>270.3333333333333</ele><time>2026-04-26T13:11:17.079Z</time></trkpt><trkpt lat="43.3588543" lon="11.434825"><ele>271.0</ele><time>2026-04-26T13:11:18.085Z</time></trkpt><trkpt lat="43.3589178" lon="11.4345955"><ele>268.3333333333333</ele><time>2026-04-26T13:11:19.104Z</time></trkpt><trkpt lat="43.3589565" lon="11.4343577"><ele>265.6666666666667</ele><time>2026-04-26T13:11:20.091Z</time></trkpt><trkpt lat="43.3589699" lon="11.4341077"><ele>263.0</ele><time>2026-04-26T13:11:21.101Z</time></trkpt><trkpt lat="43.3589601" lon="11.4338522"><ele>262.0</ele><time>2026-04-26T13:11:22.077Z</time></trkpt><trkpt lat="43.3589336" lon="11.4335863"><ele>261.0</ele><time>2026-04-26T13:11:23.104Z</time></trkpt><trkpt lat="43.3588994" lon="11.4333207"><ele>260.0</ele><time>2026-04-26T13:11:24.099Z</time></trkpt><trkpt lat="43.3588681" lon="11.4330522"><ele>261.0</ele><time>2026-04-26T13:11:25.098Z</time></trkpt><trkpt lat="43.3588484" lon="11.4327915"><ele>262.0</ele><time>2026-04-26T13:11:26.067Z</time></trkpt><trkpt lat="43.3588464" lon="11.4325389"><ele>263.0</ele><time>2026-04-26T13:11:27.088Z</time></trkpt><trkpt lat="43.3588654" lon="11.432298"><ele>262.33333333333337</ele><time>2026-04-26T13:11:28.082Z</time></trkpt><trkpt lat="43.3589023" lon="11.4320528"><ele>261.6666666666667</ele><time>2026-04-26T13:11:29.079Z</time></trkpt><trkpt lat="43.3589467" lon="11.431798"><ele>261.0</ele><time>2026-04-26T13:11:30.071Z</time></trkpt><trkpt lat="43.3589952" lon="11.4315421"><ele>262.0</ele><time>2026-04-26T13:11:31.082Z</time></trkpt><trkpt lat="43.3590469" lon="11.4313003"><ele>263.0</ele><time>2026-04-26T13:11:32.075Z</time></trkpt><trkpt lat="43.3590978" lon="11.4310707"><ele>264.0</ele><time>2026-04-26T13:11:33.079Z</time></trkpt><trkpt lat="43.3591459" lon="11.4308526"><ele>264.0</ele><time>2026-04-26T13:11:34.063Z</time></trkpt><trkpt lat="43.3591848" lon="11.430632"><ele>264.0</ele><time>2026-04-26T13:11:35.07Z</time></trkpt><trkpt lat="43.3592054" lon="11.4304021"><ele>264.0</ele><time>2026-04-26T13:11:36.072Z</time></trkpt><trkpt lat="43.3592043" lon="11.4301623"><ele>264.3333333333333</ele><time>2026-04-26T13:11:37.062Z</time></trkpt><trkpt lat="43.3591888" lon="11.4299174"><ele>264.66666666666663</ele><time>2026-04-26T13:11:38.063Z</time></trkpt><trkpt lat="43.3591618" lon="11.4296723"><ele>265.0</ele><time>2026-04-26T13:11:39.056Z</time></trkpt><trkpt lat="43.3591191" lon="11.4294279"><ele>263.0</ele><time>2026-04-26T13:11:40.051Z</time></trkpt><trkpt lat="43.3590635" lon="11.4291973"><ele>261.0</ele><time>2026-04-26T13:11:41.055Z</time></trkpt><trkpt lat="43.3589881" lon="11.428981"><ele>259.0</ele><time>2026-04-26T13:11:42.061Z</time></trkpt><trkpt lat="43.3588871" lon="11.4287749"><ele>261.66666666666663</ele><time>2026-04-26T13:11:43.056Z</time></trkpt><trkpt lat="43.3587631" lon="11.4285754"><ele>264.3333333333333</ele><time>2026-04-26T13:11:44.069Z</time></trkpt><trkpt lat="43.3586269" lon="11.4283811"><ele>267.0</ele><time>2026-04-26T13:11:45.071Z</time></trkpt><trkpt lat="43.358492" lon="11.4281816"><ele>267.0</ele><time>2026-04-26T13:11:46.072Z</time></trkpt><trkpt lat="43.3583676" lon="11.4279793"><ele>267.0</ele><time>2026-04-26T13:11:47.059Z</time></trkpt><trkpt lat="43.3582525" lon="11.4277735"><ele>267.0</ele><time>2026-04-26T13:11:48.077Z</time></trkpt><trkpt lat="43.3581364" lon="11.4275751"><ele>265.6666666666667</ele><time>2026-04-26T13:11:49.079Z</time></trkpt><trkpt lat="43.3580144" lon="11.4273907"><ele>264.33333333333337</ele><time>2026-04-26T13:11:50.066Z</time></trkpt><trkpt lat="43.357876" lon="11.4272295"><ele>263.0</ele><time>2026-04-26T13:11:51.079Z</time></trkpt><trkpt lat="43.3577226" lon="11.4271019"><ele>260.6666666666667</ele><time>2026-04-26T13:11:52.064Z</time></trkpt><trkpt lat="43.3575532" lon="11.4269964"><ele>258.3333333333333</ele><time>2026-04-26T13:11:53.069Z</time></trkpt><trkpt lat="43.3573733" lon="11.4268943"><ele>256.0</ele><time>2026-04-26T13:11:54.079Z</time></trkpt><trkpt lat="43.3571942" lon="11.4267864"><ele>256.0</ele><time>2026-04-26T13:11:55.067Z</time></trkpt><trkpt lat="43.3570232" lon="11.4266751"><ele>256.0</ele><time>2026-04-26T13:11:56.072Z</time></trkpt><trkpt lat="43.35686" lon="11.4265597"><ele>256.0</ele><time>2026-04-26T13:11:57.083Z</time></trkpt><trkpt lat="43.3567027" lon="11.4264323"><ele>252.66666666666666</ele><time>2026-04-26T13:11:58.07Z</time></trkpt><trkpt lat="43.3565485" lon="11.4262845"><ele>249.33333333333331</ele><time>2026-04-26T13:11:59.073Z</time></trkpt><trkpt lat="43.3564019" lon="11.4261096"><ele>246.0</ele><time>2026-04-26T13:12:00.073Z</time></trkpt><trkpt lat="43.3562558" lon="11.4259163"><ele>246.0</ele><time>2026-04-26T13:12:01.072Z</time></trkpt><trkpt lat="43.3561057" lon="11.4257174"><ele>246.0</ele><time>2026-04-26T13:12:02.072Z</time></trkpt><trkpt lat="43.3559556" lon="11.4255207"><ele>246.0</ele><time>2026-04-26T13:12:03.078Z</time></trkpt><trkpt lat="43.3558101" lon="11.4253312"><ele>244.0</ele><time>2026-04-26T13:12:04.081Z</time></trkpt><trkpt lat="43.3556712" lon="11.4251489"><ele>242.0</ele><time>2026-04-26T13:12:05.064Z</time></trkpt><trkpt lat="43.3555368" lon="11.4249695"><ele>240.0</ele><time>2026-04-26T13:12:06.075Z</time></trkpt><trkpt lat="43.3554091" lon="11.4247983"><ele>238.66666666666669</ele><time>2026-04-26T13:12:07.075Z</time></trkpt><trkpt lat="43.3552876" lon="11.4246325"><ele>237.33333333333334</ele><time>2026-04-26T13:12:08.074Z</time></trkpt><trkpt lat="43.3551749" lon="11.4244744"><ele>236.0</ele><time>2026-04-26T13:12:09.083Z</time></trkpt><trkpt lat="43.3550795" lon="11.4243289"><ele>236.0</ele><time>2026-04-26T13:12:10.068Z</time></trkpt><trkpt lat="43.3550074" lon="11.4241865"><ele>236.0</ele><time>2026-04-26T13:12:11.079Z</time></trkpt><trkpt lat="43.3549687" lon="11.4240338"><ele>236.0</ele><time>2026-04-26T13:12:12.084Z</time></trkpt><trkpt lat="43.3549694" lon="11.4238594"><ele>236.0</ele><time>2026-04-26T13:12:13.084Z</time></trkpt><trkpt lat="43.3549978" lon="11.4236638"><ele>234.66666666666669</ele><time>2026-04-26T13:12:14.065Z</time></trkpt><trkpt lat="43.3550451" lon="11.4234512"><ele>233.33333333333331</ele><time>2026-04-26T13:12:15.085Z</time></trkpt><trkpt lat="43.3551028" lon="11.4232311"><ele>232.0</ele><time>2026-04-26T13:12:16.076Z</time></trkpt><trkpt lat="43.3551564" lon="11.4229981"><ele>229.66666666666666</ele><time>2026-04-26T13:12:17.086Z</time></trkpt><trkpt lat="43.3552037" lon="11.4227565"><ele>227.33333333333331</ele><time>2026-04-26T13:12:18.089Z</time></trkpt><trkpt lat="43.3552436" lon="11.4225069"><ele>225.0</ele><time>2026-04-26T13:12:19.095Z</time></trkpt><trkpt lat="43.3552774" lon="11.4222569"><ele>222.66666666666669</ele><time>2026-04-26T13:12:20.083Z</time></trkpt><trkpt lat="43.3553054" lon="11.4220043"><ele>220.33333333333334</ele><time>2026-04-26T13:12:21.109Z</time></trkpt><trkpt lat="43.355329" lon="11.4217547"><ele>218.0</ele><time>2026-04-26T13:12:22.102Z</time></trkpt><trkpt lat="43.3553539" lon="11.4215059"><ele>217.0</ele><time>2026-04-26T13:12:23.093Z</time></trkpt><trkpt lat="43.3553834" lon="11.4212602"><ele>216.0</ele><time>2026-04-26T13:12:24.094Z</time></trkpt><trkpt lat="43.3554183" lon="11.4210156"><ele>215.0</ele><time>2026-04-26T13:12:25.095Z</time></trkpt><trkpt lat="43.3554573" lon="11.4207727"><ele>215.0</ele><time>2026-04-26T13:12:26.084Z</time></trkpt><trkpt lat="43.3555007" lon="11.4205302"><ele>215.0</ele><time>2026-04-26T13:12:27.092Z</time></trkpt><trkpt lat="43.3555487" lon="11.4202934"><ele>215.0</ele><time>2026-04-26T13:12:28.073Z</time></trkpt><trkpt lat="43.3556013" lon="11.4200556"><ele>215.33333333333334</ele><time>2026-04-26T13:12:29.086Z</time></trkpt><trkpt lat="43.3556622" lon="11.419824"><ele>215.66666666666669</ele><time>2026-04-26T13:12:30.094Z</time></trkpt><trkpt lat="43.3557366" lon="11.4195993"><ele>216.0</ele><time>2026-04-26T13:12:31.092Z</time></trkpt><trkpt lat="43.3558228" lon="11.4193802"><ele>216.0</ele><time>2026-04-26T13:12:32.076Z</time></trkpt><trkpt lat="43.3559209" lon="11.4191586"><ele>216.0</ele><time>2026-04-26T13:12:33.107Z</time></trkpt><trkpt lat="43.3560229" lon="11.4189395"><ele>216.0</ele><time>2026-04-26T13:12:34.086Z</time></trkpt><trkpt lat="43.3561283" lon="11.4187178"><ele>216.33333333333331</ele><time>2026-04-26T13:12:35.099Z</time></trkpt><trkpt lat="43.3562332" lon="11.4184996"><ele>216.66666666666666</ele><time>2026-04-26T13:12:36.102Z</time></trkpt><trkpt lat="43.3563363" lon="11.4182801"><ele>217.0</ele><time>2026-04-26T13:12:37.108Z</time></trkpt><trkpt lat="43.3564347" lon="11.4180668"><ele>217.66666666666666</ele><time>2026-04-26T13:12:38.086Z</time></trkpt><trkpt lat="43.3565299" lon="11.4178638"><ele>218.33333333333331</ele><time>2026-04-26T13:12:39.106Z</time></trkpt><trkpt lat="43.3566178" lon="11.4176814"><ele>219.0</ele><time>2026-04-26T13:12:40.089Z</time></trkpt><trkpt lat="43.3566992" lon="11.4175104"><ele>219.0</ele><time>2026-04-26T13:12:41.105Z</time></trkpt><trkpt lat="43.3567671" lon="11.4173533"><ele>218.99999999999997</ele><time>2026-04-26T13:12:42.089Z</time></trkpt><trkpt lat="43.356815" lon="11.4172048"><ele>218.99999999999997</ele><time>2026-04-26T13:12:43.107Z</time></trkpt><trkpt lat="43.3568401" lon="11.4170761"><ele>219.0</ele><time>2026-04-26T13:12:44.098Z</time></trkpt><trkpt lat="43.3568535" lon="11.4169744"><ele>219.0</ele><time>2026-04-26T13:12:45.102Z</time></trkpt><trkpt lat="43.3568762" lon="11.4168582"><ele>219.0</ele><time>2026-04-26T13:12:47.11Z</time></trkpt><trkpt lat="43.3568809" lon="11.4167105"><ele>218.99999999999997</ele><time>2026-04-26T13:12:51.089Z</time></trkpt><trkpt lat="43.3568065" lon="11.4165545"><ele>218.99999999999997</ele><time>2026-04-26T13:12:53.071Z</time></trkpt><trkpt lat="43.3567448" lon="11.4164579"><ele>219.0</ele><time>2026-04-26T13:12:54.076Z</time></trkpt><trkpt lat="43.356676" lon="11.416349"><ele>219.0</ele><time>2026-04-26T13:12:55.094Z</time></trkpt><trkpt lat="43.3565969" lon="11.4162209"><ele>219.39999999999998</ele><time>2026-04-26T13:12:56.069Z</time></trkpt><trkpt lat="43.3565127" lon="11.4160802"><ele>219.79999999999998</ele><time>2026-04-26T13:12:57.077Z</time></trkpt><trkpt lat="43.3564385" lon="11.4159538"><ele>220.20000000000002</ele><time>2026-04-26T13:12:58.083Z</time></trkpt><trkpt lat="43.3563789" lon="11.4158362"><ele>220.60000000000002</ele><time>2026-04-26T13:12:59.087Z</time></trkpt><trkpt lat="43.3563481" lon="11.4157162"><ele>221.0</ele><time>2026-04-26T13:13:00.086Z</time></trkpt><trkpt lat="43.3563527" lon="11.4155836"><ele>222.5</ele><time>2026-04-26T13:13:01.099Z</time></trkpt><trkpt lat="43.3563778" lon="11.415432"><ele>224.0</ele><time>2026-04-26T13:13:02.089Z</time></trkpt><trkpt lat="43.3564106" lon="11.415265"><ele>225.5</ele><time>2026-04-26T13:13:03.093Z</time></trkpt><trkpt lat="43.3564445" lon="11.4150961"><ele>227.0</ele><time>2026-04-26T13:13:04.086Z</time></trkpt><trkpt lat="43.3564787" lon="11.4149248"><ele>227.0</ele><time>2026-04-26T13:13:05.087Z</time></trkpt><trkpt lat="43.3565151" lon="11.4147516"><ele>227.0</ele><time>2026-04-26T13:13:06.093Z</time></trkpt><trkpt lat="43.3565539" lon="11.4145755"><ele>227.0</ele><time>2026-04-26T13:13:07.098Z</time></trkpt><trkpt lat="43.3565948" lon="11.4143961"><ele>227.0</ele><time>2026-04-26T13:13:08.084Z</time></trkpt><trkpt lat="43.3566404" lon="11.4142102"><ele>228.0</ele><time>2026-04-26T13:13:09.103Z</time></trkpt><trkpt lat="43.356688" lon="11.4140257"><ele>229.0</ele><time>2026-04-26T13:13:10.091Z</time></trkpt><trkpt lat="43.3567369" lon="11.4138437"><ele>230.0</ele><time>2026-04-26T13:13:11.107Z</time></trkpt><trkpt lat="43.3567852" lon="11.4136683"><ele>231.0</ele><time>2026-04-26T13:13:12.085Z</time></trkpt><trkpt lat="43.3568349" lon="11.4134889"><ele>231.75</ele><time>2026-04-26T13:13:13.1Z</time></trkpt><trkpt lat="43.3568851" lon="11.4133109"><ele>232.5</ele><time>2026-04-26T13:13:14.086Z</time></trkpt><trkpt lat="43.3569387" lon="11.413133"><ele>233.25</ele><time>2026-04-26T13:13:15.09Z</time></trkpt><trkpt lat="43.3569941" lon="11.4129658"><ele>234.0</ele><time>2026-04-26T13:13:16.083Z</time></trkpt><trkpt lat="43.3570522" lon="11.4128173"><ele>234.75</ele><time>2026-04-26T13:13:17.085Z</time></trkpt><trkpt lat="43.3571159" lon="11.4126835"><ele>235.5</ele><time>2026-04-26T13:13:18.065Z</time></trkpt><trkpt lat="43.35719" lon="11.4125592"><ele>236.25</ele><time>2026-04-26T13:13:19.068Z</time></trkpt><trkpt lat="43.357273" lon="11.4124527"><ele>237.0</ele><time>2026-04-26T13:13:20.07Z</time></trkpt><trkpt lat="43.3573684" lon="11.4123692"><ele>238.0</ele><time>2026-04-26T13:13:21.062Z</time></trkpt><trkpt lat="43.3574749" lon="11.4123166"><ele>239.0</ele><time>2026-04-26T13:13:22.081Z</time></trkpt><trkpt lat="43.3575805" lon="11.4122957"><ele>240.0</ele><time>2026-04-26T13:13:23.068Z</time></trkpt><trkpt lat="43.3576813" lon="11.4123044"><ele>241.0</ele><time>2026-04-26T13:13:24.067Z</time></trkpt><trkpt lat="43.3577775" lon="11.4123437"><ele>242.0</ele><time>2026-04-26T13:13:25.058Z</time></trkpt><trkpt lat="43.3578805" lon="11.4123952"><ele>242.0</ele><time>2026-04-26T13:13:26.079Z</time></trkpt><trkpt lat="43.3579957" lon="11.4124375"><ele>242.0</ele><time>2026-04-26T13:13:27.077Z</time></trkpt><trkpt lat="43.3581222" lon="11.412462"><ele>242.0</ele><time>2026-04-26T13:13:28.067Z</time></trkpt><trkpt lat="43.3582601" lon="11.4124682"><ele>242.0</ele><time>2026-04-26T13:13:29.075Z</time></trkpt><trkpt lat="43.3584023" lon="11.4124617"><ele>243.25</ele><time>2026-04-26T13:13:30.076Z</time></trkpt><trkpt lat="43.3585323" lon="11.4124451"><ele>244.5</ele><time>2026-04-26T13:13:31.078Z</time></trkpt><trkpt lat="43.3586448" lon="11.4124148"><ele>245.75</ele><time>2026-04-26T13:13:32.079Z</time></trkpt><trkpt lat="43.3587494" lon="11.4123669"><ele>247.0</ele><time>2026-04-26T13:13:33.066Z</time></trkpt><trkpt lat="43.3588448" lon="11.4123013"><ele>247.33333333333331</ele><time>2026-04-26T13:13:34.076Z</time></trkpt><trkpt lat="43.358915" lon="11.4122224"><ele>247.66666666666666</ele><time>2026-04-26T13:13:35.065Z</time></trkpt><trkpt lat="43.3589611" lon="11.4121306"><ele>248.0</ele><time>2026-04-26T13:13:36.075Z</time></trkpt><trkpt lat="43.3589856" lon="11.4120261"><ele>248.33333333333331</ele><time>2026-04-26T13:13:37.076Z</time></trkpt><trkpt lat="43.3589947" lon="11.4119069"><ele>248.66666666666666</ele><time>2026-04-26T13:13:38.065Z</time></trkpt><trkpt lat="43.3589954" lon="11.4117684"><ele>249.0</ele><time>2026-04-26T13:13:39.075Z</time></trkpt><trkpt lat="43.3589953" lon="11.4116161"><ele>250.79999999999998</ele><time>2026-04-26T13:13:40.06Z</time></trkpt><trkpt lat="43.3590024" lon="11.411457"><ele>252.59999999999997</ele><time>2026-04-26T13:13:41.064Z</time></trkpt><trkpt lat="43.3590236" lon="11.4113018"><ele>254.4</ele><time>2026-04-26T13:13:42.056Z</time></trkpt><trkpt lat="43.3590624" lon="11.4111613"><ele>256.2</ele><time>2026-04-26T13:13:43.06Z</time></trkpt><trkpt lat="43.3591132" lon="11.4110548"><ele>258.0</ele><time>2026-04-26T13:13:44.056Z</time></trkpt><trkpt lat="43.3591778" lon="11.4109864"><ele>259.0</ele><time>2026-04-26T13:13:45.075Z</time></trkpt><trkpt lat="43.359254" lon="11.4109569"><ele>260.0</ele><time>2026-04-26T13:13:46.074Z</time></trkpt><trkpt lat="43.3593298" lon="11.4109701"><ele>261.0</ele><time>2026-04-26T13:13:47.075Z</time></trkpt><trkpt lat="43.359397" lon="11.4110199"><ele>262.0</ele><time>2026-04-26T13:13:48.075Z</time></trkpt><trkpt lat="43.3594539" lon="11.4110947"><ele>263.0</ele><time>2026-04-26T13:13:49.066Z</time></trkpt><trkpt lat="43.3595015" lon="11.4111906"><ele>264.0</ele><time>2026-04-26T13:13:50.066Z</time></trkpt><trkpt lat="43.3595406" lon="11.4113095"><ele>262.8</ele><time>2026-04-26T13:13:51.075Z</time></trkpt><trkpt lat="43.3595704" lon="11.411454"><ele>261.59999999999997</ele><time>2026-04-26T13:13:52.069Z</time></trkpt><trkpt lat="43.3595935" lon="11.411613"><ele>260.4</ele><time>2026-04-26T13:13:53.079Z</time></trkpt><trkpt lat="43.3596174" lon="11.4117566"><ele>259.2</ele><time>2026-04-26T13:13:54.069Z</time></trkpt><trkpt lat="43.3596526" lon="11.4118748"><ele>258.0</ele><time>2026-04-26T13:13:55.085Z</time></trkpt><trkpt lat="43.3597012" lon="11.4119674"><ele>260.0</ele><time>2026-04-26T13:13:56.07Z</time></trkpt><trkpt lat="43.3597632" lon="11.4120353"><ele>262.0</ele><time>2026-04-26T13:13:57.08Z</time></trkpt><trkpt lat="43.3598316" lon="11.4120671"><ele>264.0</ele><time>2026-04-26T13:13:58.069Z</time></trkpt><trkpt lat="43.359896" lon="11.4120611"><ele>266.0</ele><time>2026-04-26T13:13:59.075Z</time></trkpt><trkpt lat="43.3599741" lon="11.4119604"><ele>268.0</ele><time>2026-04-26T13:14:01.07Z</time></trkpt><trkpt lat="43.3599718" lon="11.4117942"><ele>270.0</ele><time>2026-04-26T13:14:03.064Z</time></trkpt><trkpt lat="43.3599494" lon="11.4116949"><ele>270.0</ele><time>2026-04-26T13:14:04.07Z</time></trkpt><trkpt lat="43.3599302" lon="11.4115874"><ele>270.0</ele><time>2026-04-26T13:14:05.062Z</time></trkpt><trkpt lat="43.3599233" lon="11.411475"><ele>270.0</ele><time>2026-04-26T13:14:06.067Z</time></trkpt><trkpt lat="43.3599328" lon="11.4113662"><ele>270.0</ele><time>2026-04-26T13:14:07.071Z</time></trkpt><trkpt lat="43.3599617" lon="11.4112615"><ele>270.0</ele><time>2026-04-26T13:14:08.056Z</time></trkpt><trkpt lat="43.3600118" lon="11.4111641"><ele>270.0</ele><time>2026-04-26T13:14:09.07Z</time></trkpt><trkpt lat="43.3600814" lon="11.4110794"><ele>270.0</ele><time>2026-04-26T13:14:10.075Z</time></trkpt><trkpt lat="43.3601665" lon="11.4110093"><ele>270.0</ele><time>2026-04-26T13:14:11.066Z</time></trkpt><trkpt lat="43.3602657" lon="11.410949"><ele>270.0</ele><time>2026-04-26T13:14:12.075Z</time></trkpt><trkpt lat="43.3603743" lon="11.4108956"><ele>270.0</ele><time>2026-04-26T13:14:13.075Z</time></trkpt><trkpt lat="43.3604909" lon="11.4108433"><ele>270.0</ele><time>2026-04-26T13:14:14.078Z</time></trkpt><trkpt lat="43.3606024" lon="11.410793"><ele>271.6</ele><time>2026-04-26T13:14:15.067Z</time></trkpt><trkpt lat="43.360696" lon="11.4107424"><ele>273.2</ele><time>2026-04-26T13:14:16.074Z</time></trkpt><trkpt lat="43.3607728" lon="11.4106774"><ele>274.8</ele><time>2026-04-26T13:14:17.082Z</time></trkpt><trkpt lat="43.3608287" lon="11.4105832"><ele>276.4</ele><time>2026-04-26T13:14:18.07Z</time></trkpt><trkpt lat="43.3608646" lon="11.410459"><ele>278.0</ele><time>2026-04-26T13:14:19.082Z</time></trkpt><trkpt lat="43.3608794" lon="11.410314"><ele>278.75</ele><time>2026-04-26T13:14:20.069Z</time></trkpt><trkpt lat="43.360872" lon="11.4101564"><ele>279.5</ele><time>2026-04-26T13:14:21.075Z</time></trkpt><trkpt lat="43.3608385" lon="11.4099967"><ele>280.25</ele><time>2026-04-26T13:14:22.081Z</time></trkpt><trkpt lat="43.3607824" lon="11.4098388"><ele>281.0</ele><time>2026-04-26T13:14:23.091Z</time></trkpt><trkpt lat="43.3607179" lon="11.4096811"><ele>280.75</ele><time>2026-04-26T13:14:24.081Z</time></trkpt><trkpt lat="43.360652" lon="11.4095195"><ele>280.5</ele><time>2026-04-26T13:14:25.086Z</time></trkpt><trkpt lat="43.3605833" lon="11.409358"><ele>280.25</ele><time>2026-04-26T13:14:26.085Z</time></trkpt><trkpt lat="43.3605076" lon="11.4091989"><ele>280.0</ele><time>2026-04-26T13:14:27.075Z</time></trkpt><trkpt lat="43.3604241" lon="11.4090448"><ele>280.0</ele><time>2026-04-26T13:14:28.075Z</time></trkpt><trkpt lat="43.3603274" lon="11.4089058"><ele>280.0</ele><time>2026-04-26T13:14:29.066Z</time></trkpt><trkpt lat="43.3602117" lon="11.4087832"><ele>280.0</ele><time>2026-04-26T13:14:30.072Z</time></trkpt><trkpt lat="43.36008" lon="11.4086736"><ele>280.0</ele><time>2026-04-26T13:14:31.066Z</time></trkpt><trkpt lat="43.3599437" lon="11.4085696"><ele>282.25</ele><time>2026-04-26T13:14:32.065Z</time></trkpt><trkpt lat="43.3598168" lon="11.4084743"><ele>284.5</ele><time>2026-04-26T13:14:33.077Z</time></trkpt><trkpt lat="43.3597073" lon="11.4083904"><ele>286.75</ele><time>2026-04-26T13:14:34.077Z</time></trkpt><trkpt lat="43.3596149" lon="11.4083085"><ele>289.0</ele><time>2026-04-26T13:14:35.08Z</time></trkpt><trkpt lat="43.3594994" lon="11.408105"><ele>290.4</ele><time>2026-04-26T13:14:37.098Z</time></trkpt><trkpt lat="43.359484" lon="11.4079803"><ele>291.79999999999995</ele><time>2026-04-26T13:14:38.099Z</time></trkpt><trkpt lat="43.359496" lon="11.4078517"><ele>293.20000000000005</ele><time>2026-04-26T13:14:39.101Z</time></trkpt><trkpt lat="43.3595315" lon="11.4077275"><ele>294.6</ele><time>2026-04-26T13:14:40.079Z</time></trkpt><trkpt lat="43.3595891" lon="11.4076153"><ele>296.0</ele><time>2026-04-26T13:14:41.106Z</time></trkpt><trkpt lat="43.3596648" lon="11.4075263"><ele>295.8</ele><time>2026-04-26T13:14:42.1Z</time></trkpt><trkpt lat="43.3597521" lon="11.4074609"><ele>295.6</ele><time>2026-04-26T13:14:43.087Z</time></trkpt><trkpt lat="43.3598442" lon="11.4074293"><ele>295.4</ele><time>2026-04-26T13:14:44.082Z</time></trkpt><trkpt lat="43.3599465" lon="11.4074298"><ele>295.2</ele><time>2026-04-26T13:14:45.085Z</time></trkpt><trkpt lat="43.3600629" lon="11.4074521"><ele>295.0</ele><time>2026-04-26T13:14:46.1Z</time></trkpt><trkpt lat="43.3601897" lon="11.4074871"><ele>295.0</ele><time>2026-04-26T13:14:47.086Z</time></trkpt><trkpt lat="43.3603254" lon="11.4075271"><ele>295.0</ele><time>2026-04-26T13:14:48.091Z</time></trkpt><trkpt lat="43.3604666" lon="11.407558"><ele>295.0</ele><time>2026-04-26T13:14:49.094Z</time></trkpt><trkpt lat="43.3606119" lon="11.4075795"><ele>295.0</ele><time>2026-04-26T13:14:50.082Z</time></trkpt><trkpt lat="43.360758" lon="11.4075921"><ele>295.75</ele><time>2026-04-26T13:14:51.098Z</time></trkpt><trkpt lat="43.3609033" lon="11.4075921"><ele>296.5</ele><time>2026-04-26T13:14:52.085Z</time></trkpt><trkpt lat="43.361054" lon="11.4075812"><ele>297.25</ele><time>2026-04-26T13:14:53.088Z</time></trkpt><trkpt lat="43.3612066" lon="11.4075651"><ele>298.0</ele><time>2026-04-26T13:14:54.076Z</time></trkpt><trkpt lat="43.3613595" lon="11.4075433"><ele>300.66666666666663</ele><time>2026-04-26T13:14:55.082Z</time></trkpt><trkpt lat="43.3615093" lon="11.4075131"><ele>303.3333333333333</ele><time>2026-04-26T13:14:56.066Z</time></trkpt><trkpt lat="43.3616613" lon="11.407475"><ele>306.0</ele><time>2026-04-26T13:14:57.113Z</time></trkpt><trkpt lat="43.3618067" lon="11.4074351"><ele>306.0</ele><time>2026-04-26T13:14:58.081Z</time></trkpt><trkpt lat="43.3619525" lon="11.4073915"><ele>306.0</ele><time>2026-04-26T13:14:59.075Z</time></trkpt><trkpt lat="43.3620983" lon="11.4073457"><ele>306.0</ele><time>2026-04-26T13:15:00.084Z</time></trkpt><trkpt lat="43.3622441" lon="11.4072994"><ele>306.0</ele><time>2026-04-26T13:15:01.1Z</time></trkpt><trkpt lat="43.3623882" lon="11.407251"><ele>307.6666666666667</ele><time>2026-04-26T13:15:02.077Z</time></trkpt><trkpt lat="43.3625367" lon="11.4071981"><ele>309.33333333333337</ele><time>2026-04-26T13:15:03.088Z</time></trkpt><trkpt lat="43.3626834" lon="11.4071381"><ele>311.0</ele><time>2026-04-26T13:15:04.087Z</time></trkpt><trkpt lat="43.3628282" lon="11.4070728"><ele>311.0</ele><time>2026-04-26T13:15:05.069Z</time></trkpt><trkpt lat="43.3629725" lon="11.4070018"><ele>311.0</ele><time>2026-04-26T13:15:06.078Z</time></trkpt><trkpt lat="43.3631143" lon="11.4069231"><ele>311.0</ele><time>2026-04-26T13:15:07.092Z</time></trkpt><trkpt lat="43.363256" lon="11.4068372"><ele>313.6666666666667</ele><time>2026-04-26T13:15:08.097Z</time></trkpt><trkpt lat="43.3633991" lon="11.4067474"><ele>316.3333333333333</ele><time>2026-04-26T13:15:09.104Z</time></trkpt><trkpt lat="43.3635429" lon="11.4066571"><ele>319.0</ele><time>2026-04-26T13:15:10.086Z</time></trkpt><trkpt lat="43.3636883" lon="11.4065639"><ele>319.0</ele><time>2026-04-26T13:15:11.089Z</time></trkpt><trkpt lat="43.3638328" lon="11.4064664"><ele>319.0</ele><time>2026-04-26T13:15:12.094Z</time></trkpt><trkpt lat="43.3639762" lon="11.4063666"><ele>319.0</ele><time>2026-04-26T13:15:13.104Z</time></trkpt><trkpt lat="43.3641168" lon="11.4062687"><ele>321.5</ele><time>2026-04-26T13:15:14.088Z</time></trkpt><trkpt lat="43.3642525" lon="11.4061754"><ele>324.0</ele><time>2026-04-26T13:15:15.093Z</time></trkpt><trkpt lat="43.3643736" lon="11.406099"><ele>326.5</ele><time>2026-04-26T13:15:16.078Z</time></trkpt><trkpt lat="43.3644777" lon="11.4060513"><ele>329.0</ele><time>2026-04-26T13:15:17.085Z</time></trkpt><trkpt lat="43.3645647" lon="11.4060391"><ele>329.0</ele><time>2026-04-26T13:15:18.086Z</time></trkpt><trkpt lat="43.364639" lon="11.4060662"><ele>329.0</ele><time>2026-04-26T13:15:19.073Z</time></trkpt><trkpt lat="43.3647026" lon="11.4061299"><ele>329.0</ele><time>2026-04-26T13:15:20.072Z</time></trkpt><trkpt lat="43.3647653" lon="11.4062233"><ele>329.0</ele><time>2026-04-26T13:15:21.056Z</time></trkpt><trkpt lat="43.3648344" lon="11.4063286"><ele>329.0</ele><time>2026-04-26T13:15:22.068Z</time></trkpt><trkpt lat="43.3649091" lon="11.4064163"><ele>329.0</ele><time>2026-04-26T13:15:23.066Z</time></trkpt><trkpt lat="43.3649833" lon="11.4064759"><ele>330.6666666666667</ele><time>2026-04-26T13:15:24.07Z</time></trkpt><trkpt lat="43.3650564" lon="11.4065074"><ele>332.33333333333337</ele><time>2026-04-26T13:15:25.077Z</time></trkpt><trkpt lat="43.3651325" lon="11.4065177"><ele>334.0</ele><time>2026-04-26T13:15:26.085Z</time></trkpt><trkpt lat="43.3652119" lon="11.406501"><ele>335.6666666666667</ele><time>2026-04-26T13:15:27.078Z</time></trkpt><trkpt lat="43.3652992" lon="11.4064641"><ele>337.3333333333333</ele><time>2026-04-26T13:15:28.075Z</time></trkpt><trkpt lat="43.3653947" lon="11.4064208"><ele>339.0</ele><time>2026-04-26T13:15:29.068Z</time></trkpt><trkpt lat="43.3654989" lon="11.406379"><ele>338.6</ele><time>2026-04-26T13:15:30.071Z</time></trkpt><trkpt lat="43.3656104" lon="11.406336"><ele>338.2</ele><time>2026-04-26T13:15:31.077Z</time></trkpt><trkpt lat="43.365719" lon="11.4062916"><ele>337.8</ele><time>2026-04-26T13:15:32.073Z</time></trkpt><trkpt lat="43.3658135" lon="11.4062429"><ele>337.40000000000003</ele><time>2026-04-26T13:15:33.088Z</time></trkpt><trkpt lat="43.3658894" lon="11.4061825"><ele>337.0</ele><time>2026-04-26T13:15:34.074Z</time></trkpt><trkpt lat="43.3659518" lon="11.4060967"><ele>338.75</ele><time>2026-04-26T13:15:35.082Z</time></trkpt><trkpt lat="43.3660055" lon="11.4059827"><ele>340.5</ele><time>2026-04-26T13:15:36.091Z</time></trkpt><trkpt lat="43.3660572" lon="11.4058479"><ele>342.25</ele><time>2026-04-26T13:15:37.096Z</time></trkpt><trkpt lat="43.3661129" lon="11.4057022"><ele>344.0</ele><time>2026-04-26T13:15:38.082Z</time></trkpt><trkpt lat="43.3661746" lon="11.4055461"><ele>344.0</ele><time>2026-04-26T13:15:39.091Z</time></trkpt><trkpt lat="43.3662386" lon="11.4053879"><ele>344.0</ele><time>2026-04-26T13:15:40.092Z</time></trkpt><trkpt lat="43.3663024" lon="11.4052299"><ele>344.0</ele><time>2026-04-26T13:15:41.092Z</time></trkpt><trkpt lat="43.3663623" lon="11.4050775"><ele>344.0</ele><time>2026-04-26T13:15:42.084Z</time></trkpt><trkpt lat="43.3664235" lon="11.404936"><ele>344.0</ele><time>2026-04-26T13:15:43.083Z</time></trkpt><trkpt lat="43.3664933" lon="11.4048046"><ele>344.0</ele><time>2026-04-26T13:15:44.071Z</time></trkpt><trkpt lat="43.3665735" lon="11.4046799"><ele>344.0</ele><time>2026-04-26T13:15:45.07Z</time></trkpt><trkpt lat="43.3666616" lon="11.4045649"><ele>344.0</ele><time>2026-04-26T13:15:46.079Z</time></trkpt><trkpt lat="43.3667599" lon="11.4044666"><ele>345.25</ele><time>2026-04-26T13:15:47.087Z</time></trkpt><trkpt lat="43.3668683" lon="11.4043907"><ele>346.5</ele><time>2026-04-26T13:15:48.08Z</time></trkpt><trkpt lat="43.3669855" lon="11.4043376"><ele>347.75</ele><time>2026-04-26T13:15:49.077Z</time></trkpt><trkpt lat="43.3671094" lon="11.4043054"><ele>349.0</ele><time>2026-04-26T13:15:50.085Z</time></trkpt><trkpt lat="43.3672441" lon="11.4042971"><ele>349.0</ele><time>2026-04-26T13:15:51.088Z</time></trkpt><trkpt lat="43.3673864" lon="11.4043113"><ele>349.0</ele><time>2026-04-26T13:15:52.071Z</time></trkpt><trkpt lat="43.3675319" lon="11.4043359"><ele>349.0</ele><time>2026-04-26T13:15:53.075Z</time></trkpt><trkpt lat="43.3676793" lon="11.4043613"><ele>349.0</ele><time>2026-04-26T13:15:54.068Z</time></trkpt><trkpt lat="43.3678317" lon="11.4043875"><ele>349.0</ele><time>2026-04-26T13:15:55.081Z</time></trkpt><trkpt lat="43.3679888" lon="11.4044146"><ele>349.0</ele><time>2026-04-26T13:15:56.07Z</time></trkpt><trkpt lat="43.368152" lon="11.404442"><ele>349.0</ele><time>2026-04-26T13:15:57.071Z</time></trkpt><trkpt lat="43.3683167" lon="11.4044675"><ele>349.75</ele><time>2026-04-26T13:15:58.079Z</time></trkpt><trkpt lat="43.3684728" lon="11.404492"><ele>350.5</ele><time>2026-04-26T13:15:59.095Z</time></trkpt><trkpt lat="43.3686164" lon="11.404512"><ele>351.25</ele><time>2026-04-26T13:16:00.095Z</time></trkpt><trkpt lat="43.3687598" lon="11.4045228"><ele>352.0</ele><time>2026-04-26T13:16:01.08Z</time></trkpt><trkpt lat="43.3689102" lon="11.4045185"><ele>353.0</ele><time>2026-04-26T13:16:02.087Z</time></trkpt><trkpt lat="43.3690651" lon="11.4045043"><ele>354.0</ele><time>2026-04-26T13:16:03.091Z</time></trkpt><trkpt lat="43.3692231" lon="11.4044911"><ele>355.0</ele><time>2026-04-26T13:16:04.09Z</time></trkpt><trkpt lat="43.3693839" lon="11.4044839"><ele>355.0</ele><time>2026-04-26T13:16:05.096Z</time></trkpt><trkpt lat="43.3695455" lon="11.4044836"><ele>355.0</ele><time>2026-04-26T13:16:06.088Z</time></trkpt><trkpt lat="43.3697094" lon="11.4044893"><ele>355.0</ele><time>2026-04-26T13:16:07.099Z</time></trkpt><trkpt lat="43.36987" lon="11.4044973"><ele>356.5</ele><time>2026-04-26T13:16:08.083Z</time></trkpt><trkpt lat="43.3700251" lon="11.4045069"><ele>358.0</ele><time>2026-04-26T13:16:09.095Z</time></trkpt><trkpt lat="43.3701632" lon="11.4045155"><ele>359.5</ele><time>2026-04-26T13:16:10.077Z</time></trkpt><trkpt lat="43.3702914" lon="11.404522"><ele>361.0</ele><time>2026-04-26T13:16:11.086Z</time></trkpt><trkpt lat="43.3704141" lon="11.404524"><ele>362.0</ele><time>2026-04-26T13:16:12.094Z</time></trkpt><trkpt lat="43.370529" lon="11.4045194"><ele>363.0</ele><time>2026-04-26T13:16:13.1Z</time></trkpt><trkpt lat="43.3706322" lon="11.4045041"><ele>364.0</ele><time>2026-04-26T13:16:14.079Z</time></trkpt><trkpt lat="43.3707308" lon="11.4044697"><ele>365.0</ele><time>2026-04-26T13:16:15.11Z</time></trkpt><trkpt lat="43.3708223" lon="11.4044159"><ele>366.0</ele><time>2026-04-26T13:16:16.091Z</time></trkpt><trkpt lat="43.3709071" lon="11.4043396"><ele>366.0</ele><time>2026-04-26T13:16:17.112Z</time></trkpt><trkpt lat="43.3709792" lon="11.4042458"><ele>366.0</ele><time>2026-04-26T13:16:18.102Z</time></trkpt><trkpt lat="43.3710435" lon="11.404132"><ele>366.0</ele><time>2026-04-26T13:16:19.094Z</time></trkpt><trkpt lat="43.3711037" lon="11.4039992"><ele>366.0</ele><time>2026-04-26T13:16:20.106Z</time></trkpt><trkpt lat="43.371163" lon="11.4038498"><ele>366.0</ele><time>2026-04-26T13:16:21.112Z</time></trkpt><trkpt lat="43.3712256" lon="11.403692"><ele>366.5</ele><time>2026-04-26T13:16:22.103Z</time></trkpt><trkpt lat="43.3712934" lon="11.4035315"><ele>367.0</ele><time>2026-04-26T13:16:23.096Z</time></trkpt><trkpt lat="43.3713637" lon="11.4033697"><ele>367.5</ele><time>2026-04-26T13:16:24.102Z</time></trkpt><trkpt lat="43.3714329" lon="11.4032093"><ele>368.0</ele><time>2026-04-26T13:16:25.107Z</time></trkpt><trkpt lat="43.3714997" lon="11.4030508"><ele>370.75</ele><time>2026-04-26T13:16:26.092Z</time></trkpt><trkpt lat="43.3715657" lon="11.4028914"><ele>373.5</ele><time>2026-04-26T13:16:27.107Z</time></trkpt><trkpt lat="43.3716324" lon="11.4027356"><ele>376.25</ele><time>2026-04-26T13:16:28.09Z</time></trkpt><trkpt lat="43.3717018" lon="11.4025829"><ele>379.0</ele><time>2026-04-26T13:16:29.096Z</time></trkpt><trkpt lat="43.3717681" lon="11.402436"><ele>379.0</ele><time>2026-04-26T13:16:30.099Z</time></trkpt><trkpt lat="43.3718216" lon="11.4022871"><ele>379.0</ele><time>2026-04-26T13:16:31.097Z</time></trkpt><trkpt lat="43.3718521" lon="11.4021324"><ele>379.0</ele><time>2026-04-26T13:16:32.082Z</time></trkpt><trkpt lat="43.3718643" lon="11.4019836"><ele>379.0</ele><time>2026-04-26T13:16:33.071Z</time></trkpt><trkpt lat="43.3718785" lon="11.4018529"><ele>379.0</ele><time>2026-04-26T13:16:34.075Z</time></trkpt><trkpt lat="43.3719115" lon="11.4017331"><ele>379.5</ele><time>2026-04-26T13:16:35.069Z</time></trkpt><trkpt lat="43.371968" lon="11.4016171"><ele>380.0</ele><time>2026-04-26T13:16:36.078Z</time></trkpt><trkpt lat="43.3720451" lon="11.4015065"><ele>380.5</ele><time>2026-04-26T13:16:37.068Z</time></trkpt><trkpt lat="43.3721424" lon="11.4014001"><ele>381.0</ele><time>2026-04-26T13:16:38.079Z</time></trkpt><trkpt lat="43.372255" lon="11.4012957"><ele>382.25</ele><time>2026-04-26T13:16:39.07Z</time></trkpt><trkpt lat="43.372371" lon="11.4011881"><ele>383.5</ele><time>2026-04-26T13:16:40.086Z</time></trkpt><trkpt lat="43.3724781" lon="11.40108"><ele>384.75</ele><time>2026-04-26T13:16:41.088Z</time></trkpt><trkpt lat="43.3725836" lon="11.4009635"><ele>386.0</ele><time>2026-04-26T13:16:42.072Z</time></trkpt><trkpt lat="43.3726931" lon="11.4008356"><ele>386.0</ele><time>2026-04-26T13:16:43.097Z</time></trkpt><trkpt lat="43.3728054" lon="11.4007047"><ele>386.0</ele><time>2026-04-26T13:16:44.095Z</time></trkpt><trkpt lat="43.3729205" lon="11.4005752"><ele>386.0</ele><time>2026-04-26T13:16:45.098Z</time></trkpt><trkpt lat="43.3730347" lon="11.4004522"><ele>386.0</ele><time>2026-04-26T13:16:46.081Z</time></trkpt><trkpt lat="43.3731515" lon="11.4003388"><ele>385.25</ele><time>2026-04-26T13:16:47.089Z</time></trkpt><trkpt lat="43.3732767" lon="11.4002418"><ele>384.5</ele><time>2026-04-26T13:16:48.095Z</time></trkpt><trkpt lat="43.3734138" lon="11.4001666"><ele>383.75</ele><time>2026-04-26T13:16:49.1Z</time></trkpt><trkpt lat="43.3735605" lon="11.4001054"><ele>383.0</ele><time>2026-04-26T13:16:50.087Z</time></trkpt><trkpt lat="43.3737049" lon="11.4000471"><ele>383.0</ele><time>2026-04-26T13:16:51.092Z</time></trkpt><trkpt lat="43.373838" lon="11.3999876"><ele>383.0</ele><time>2026-04-26T13:16:52.082Z</time></trkpt><trkpt lat="43.3739686" lon="11.3999237"><ele>383.0</ele><time>2026-04-26T13:16:53.09Z</time></trkpt><trkpt lat="43.3740948" lon="11.3998529"><ele>383.0</ele><time>2026-04-26T13:16:54.089Z</time></trkpt><trkpt lat="43.3742189" lon="11.3997698"><ele>383.0</ele><time>2026-04-26T13:16:55.09Z</time></trkpt><trkpt lat="43.3743406" lon="11.3996692"><ele>383.0</ele><time>2026-04-26T13:16:56.079Z</time></trkpt><trkpt lat="43.3744637" lon="11.3995462"><ele>383.0</ele><time>2026-04-26T13:16:57.088Z</time></trkpt><trkpt lat="43.3745891" lon="11.3994111"><ele>382.6666666666667</ele><time>2026-04-26T13:16:58.09Z</time></trkpt><trkpt lat="43.3747127" lon="11.3992726"><ele>382.3333333333333</ele><time>2026-04-26T13:16:59.081Z</time></trkpt><trkpt lat="43.3748344" lon="11.3991327"><ele>382.0</ele><time>2026-04-26T13:17:00.082Z</time></trkpt><trkpt lat="43.3749525" lon="11.398996"><ele>382.0</ele><time>2026-04-26T13:17:01.085Z</time></trkpt><trkpt lat="43.3750679" lon="11.3988679"><ele>382.0</ele><time>2026-04-26T13:17:02.086Z</time></trkpt><trkpt lat="43.3751841" lon="11.3987491"><ele>382.0</ele><time>2026-04-26T13:17:03.105Z</time></trkpt><trkpt lat="43.3753049" lon="11.3986436"><ele>382.0</ele><time>2026-04-26T13:17:04.092Z</time></trkpt><trkpt lat="43.3754341" lon="11.39855"><ele>382.25</ele><time>2026-04-26T13:17:05.11Z</time></trkpt><trkpt lat="43.3755662" lon="11.3984702"><ele>382.5</ele><time>2026-04-26T13:17:06.09Z</time></trkpt><trkpt lat="43.3757042" lon="11.3984016"><ele>382.75</ele><time>2026-04-26T13:17:07.108Z</time></trkpt><trkpt lat="43.3758418" lon="11.3983444"><ele>383.0</ele><time>2026-04-26T13:17:08.102Z</time></trkpt><trkpt lat="43.3759759" lon="11.3982929"><ele>383.0</ele><time>2026-04-26T13:17:09.113Z</time></trkpt><trkpt lat="43.3761028" lon="11.398246"><ele>383.0</ele><time>2026-04-26T13:17:10.087Z</time></trkpt><trkpt lat="43.3762313" lon="11.3982005"><ele>383.0</ele><time>2026-04-26T13:17:11.107Z</time></trkpt><trkpt lat="43.3763559" lon="11.3981575"><ele>383.0</ele><time>2026-04-26T13:17:12.096Z</time></trkpt><trkpt lat="43.3764784" lon="11.3981059"><ele>382.5</ele><time>2026-04-26T13:17:13.099Z</time></trkpt><trkpt lat="43.3765966" lon="11.3980423"><ele>382.0</ele><time>2026-04-26T13:17:14.101Z</time></trkpt><trkpt lat="43.3767031" lon="11.3979669"><ele>381.5</ele><time>2026-04-26T13:17:15.097Z</time></trkpt><trkpt lat="43.3767912" lon="11.3978839"><ele>381.0</ele><time>2026-04-26T13:17:16.102Z</time></trkpt><trkpt lat="43.3768694" lon="11.3977944"><ele>382.0</ele><time>2026-04-26T13:17:17.092Z</time></trkpt><trkpt lat="43.3769516" lon="11.3977032"><ele>383.0</ele><time>2026-04-26T13:17:18.101Z</time></trkpt><trkpt lat="43.3770388" lon="11.397614"><ele>384.0</ele><time>2026-04-26T13:17:19.099Z</time></trkpt><trkpt lat="43.3771254" lon="11.3975288"><ele>385.0</ele><time>2026-04-26T13:17:20.094Z</time></trkpt><trkpt lat="43.3772065" lon="11.397454"><ele>386.0</ele><time>2026-04-26T13:17:21.107Z</time></trkpt><trkpt lat="43.377286" lon="11.3973846"><ele>386.0</ele><time>2026-04-26T13:17:22.086Z</time></trkpt><trkpt lat="43.3773687" lon="11.3973175"><ele>386.0</ele><time>2026-04-26T13:17:23.141Z</time></trkpt><trkpt lat="43.3774464" lon="11.3972634"><ele>386.0</ele><time>2026-04-26T13:17:24.083Z</time></trkpt><trkpt lat="43.3775286" lon="11.3972137"><ele>386.0</ele><time>2026-04-26T13:17:25.096Z</time></trkpt><trkpt lat="43.3776148" lon="11.3971736"><ele>386.0</ele><time>2026-04-26T13:17:26.073Z</time></trkpt><trkpt lat="43.3777132" lon="11.397151"><ele>386.75</ele><time>2026-04-26T13:17:27.092Z</time></trkpt><trkpt lat="43.3778203" lon="11.3971375"><ele>387.5</ele><time>2026-04-26T13:17:28.094Z</time></trkpt><trkpt lat="43.3779344" lon="11.3971163"><ele>388.25</ele><time>2026-04-26T13:17:29.106Z</time></trkpt><trkpt lat="43.3780529" lon="11.3970863"><ele>389.0</ele><time>2026-04-26T13:17:30.093Z</time></trkpt><trkpt lat="43.3781771" lon="11.3970502"><ele>390.25</ele><time>2026-04-26T13:17:31.106Z</time></trkpt><trkpt lat="43.3783039" lon="11.3970093"><ele>391.5</ele><time>2026-04-26T13:17:32.093Z</time></trkpt><trkpt lat="43.3784378" lon="11.3969657"><ele>392.75</ele><time>2026-04-26T13:17:33.107Z</time></trkpt><trkpt lat="43.3785749" lon="11.3969227"><ele>394.0</ele><time>2026-04-26T13:17:34.099Z</time></trkpt><trkpt lat="43.3787121" lon="11.3968784"><ele>394.0</ele><time>2026-04-26T13:17:35.098Z</time></trkpt><trkpt lat="43.3788472" lon="11.3968303"><ele>394.0</ele><time>2026-04-26T13:17:36.092Z</time></trkpt><trkpt lat="43.378981" lon="11.3967833"><ele>394.0</ele><time>2026-04-26T13:17:37.099Z</time></trkpt><trkpt lat="43.3791127" lon="11.3967383"><ele>394.0</ele><time>2026-04-26T13:17:38.084Z</time></trkpt><trkpt lat="43.3792458" lon="11.3966958"><ele>395.5</ele><time>2026-04-26T13:17:39.088Z</time></trkpt><trkpt lat="43.3793794" lon="11.396655"><ele>397.0</ele><time>2026-04-26T13:17:40.097Z</time></trkpt><trkpt lat="43.3795152" lon="11.3966181"><ele>398.5</ele><time>2026-04-26T13:17:41.09Z</time></trkpt><trkpt lat="43.3796549" lon="11.3965833"><ele>400.0</ele><time>2026-04-26T13:17:42.093Z</time></trkpt><trkpt lat="43.3797973" lon="11.3965468"><ele>401.33333333333337</ele><time>2026-04-26T13:17:43.099Z</time></trkpt><trkpt lat="43.3799429" lon="11.3965105"><ele>402.66666666666663</ele><time>2026-04-26T13:17:44.085Z</time></trkpt><trkpt lat="43.3800936" lon="11.3964738"><ele>404.0</ele><time>2026-04-26T13:17:45.083Z</time></trkpt><trkpt lat="43.3802462" lon="11.3964361"><ele>404.0</ele><time>2026-04-26T13:17:46.087Z</time></trkpt><trkpt lat="43.3803988" lon="11.3963954"><ele>404.0</ele><time>2026-04-26T13:17:47.077Z</time></trkpt><trkpt lat="43.3805528" lon="11.3963567"><ele>404.0</ele><time>2026-04-26T13:17:48.085Z</time></trkpt><trkpt lat="43.3807066" lon="11.3963233"><ele>405.3333333333333</ele><time>2026-04-26T13:17:49.088Z</time></trkpt><trkpt lat="43.3808606" lon="11.3962982"><ele>406.66666666666663</ele><time>2026-04-26T13:17:50.073Z</time></trkpt><trkpt lat="43.3810198" lon="11.3962859"><ele>408.0</ele><time>2026-04-26T13:17:51.088Z</time></trkpt><trkpt lat="43.3811829" lon="11.3962848"><ele>408.0</ele><time>2026-04-26T13:17:52.105Z</time></trkpt><trkpt lat="43.3813466" lon="11.3962825"><ele>408.0</ele><time>2026-04-26T13:17:53.093Z</time></trkpt><trkpt lat="43.3815118" lon="11.3962729"><ele>408.0</ele><time>2026-04-26T13:17:54.091Z</time></trkpt><trkpt lat="43.3816765" lon="11.3962536"><ele>408.66666666666663</ele><time>2026-04-26T13:17:55.092Z</time></trkpt><trkpt lat="43.3818386" lon="11.3962274"><ele>409.3333333333333</ele><time>2026-04-26T13:17:56.087Z</time></trkpt><trkpt lat="43.3819984" lon="11.3961974"><ele>410.0</ele><time>2026-04-26T13:17:57.088Z</time></trkpt><trkpt lat="43.3821553" lon="11.3961676"><ele>411.3333333333333</ele><time>2026-04-26T13:17:58.088Z</time></trkpt><trkpt lat="43.3823093" lon="11.3961349"><ele>412.66666666666663</ele><time>2026-04-26T13:17:59.092Z</time></trkpt><trkpt lat="43.3824617" lon="11.3960983"><ele>414.0</ele><time>2026-04-26T13:18:00.094Z</time></trkpt><trkpt lat="43.3826148" lon="11.3960579"><ele>414.0</ele><time>2026-04-26T13:18:01.095Z</time></trkpt><trkpt lat="43.382767" lon="11.3960129"><ele>414.0</ele><time>2026-04-26T13:18:02.083Z</time></trkpt><trkpt lat="43.3829194" lon="11.3959633"><ele>414.0</ele><time>2026-04-26T13:18:03.088Z</time></trkpt><trkpt lat="43.3830721" lon="11.3959094"><ele>415.33333333333337</ele><time>2026-04-26T13:18:04.093Z</time></trkpt><trkpt lat="43.3832257" lon="11.3958516"><ele>416.6666666666667</ele><time>2026-04-26T13:18:05.097Z</time></trkpt><trkpt lat="43.383384" lon="11.3957882"><ele>418.0</ele><time>2026-04-26T13:18:06.105Z</time></trkpt><trkpt lat="43.3835513" lon="11.3957194"><ele>418.0</ele><time>2026-04-26T13:18:07.095Z</time></trkpt><trkpt lat="43.3837278" lon="11.3956487"><ele>418.0</ele><time>2026-04-26T13:18:08.101Z</time></trkpt><trkpt lat="43.3839017" lon="11.3955813"><ele>418.0</ele><time>2026-04-26T13:18:09.086Z</time></trkpt><trkpt lat="43.3840667" lon="11.3955178"><ele>417.5</ele><time>2026-04-26T13:18:10.083Z</time></trkpt><trkpt lat="43.3842144" lon="11.3954617"><ele>417.0</ele><time>2026-04-26T13:18:11.085Z</time></trkpt><trkpt lat="43.3843448" lon="11.3954094"><ele>416.5</ele><time>2026-04-26T13:18:12.069Z</time></trkpt><trkpt lat="43.3844671" lon="11.3953487"><ele>416.0</ele><time>2026-04-26T13:18:13.094Z</time></trkpt><trkpt lat="43.3845818" lon="11.3952702"><ele>417.75</ele><time>2026-04-26T13:18:14.092Z</time></trkpt><trkpt lat="43.3846901" lon="11.395164"><ele>419.5</ele><time>2026-04-26T13:18:15.096Z</time></trkpt><trkpt lat="43.384792" lon="11.3950314"><ele>421.25</ele><time>2026-04-26T13:18:16.092Z</time></trkpt><trkpt lat="43.3848926" lon="11.3948792"><ele>423.0</ele><time>2026-04-26T13:18:17.093Z</time></trkpt><trkpt lat="43.3849935" lon="11.394723"><ele>423.66666666666663</ele><time>2026-04-26T13:18:18.085Z</time></trkpt><trkpt lat="43.3850959" lon="11.3945659"><ele>424.3333333333333</ele><time>2026-04-26T13:18:19.088Z</time></trkpt><trkpt lat="43.3852004" lon="11.3944098"><ele>425.0</ele><time>2026-04-26T13:18:20.092Z</time></trkpt><trkpt lat="43.3853064" lon="11.3942519"><ele>425.0</ele><time>2026-04-26T13:18:21.094Z</time></trkpt><trkpt lat="43.3854144" lon="11.3940952"><ele>425.0</ele><time>2026-04-26T13:18:22.079Z</time></trkpt><trkpt lat="43.3855239" lon="11.3939398"><ele>425.0</ele><time>2026-04-26T13:18:23.091Z</time></trkpt><trkpt lat="43.3856288" lon="11.3937862"><ele>426.0</ele><time>2026-04-26T13:18:24.082Z</time></trkpt><trkpt lat="43.3857327" lon="11.3936323"><ele>427.0</ele><time>2026-04-26T13:18:25.08Z</time></trkpt><trkpt lat="43.3858353" lon="11.3934797"><ele>428.0</ele><time>2026-04-26T13:18:26.092Z</time></trkpt><trkpt lat="43.3859367" lon="11.3933328"><ele>428.0</ele><time>2026-04-26T13:18:27.081Z</time></trkpt><trkpt lat="43.386037" lon="11.3931865"><ele>428.0</ele><time>2026-04-26T13:18:28.099Z</time></trkpt><trkpt lat="43.3861339" lon="11.393044"><ele>428.0</ele><time>2026-04-26T13:18:29.099Z</time></trkpt><trkpt lat="43.3862301" lon="11.392903"><ele>428.0</ele><time>2026-04-26T13:18:30.104Z</time></trkpt><trkpt lat="43.3863294" lon="11.3927723"><ele>428.75</ele><time>2026-04-26T13:18:31.091Z</time></trkpt><trkpt lat="43.3864363" lon="11.3926551"><ele>429.5</ele><time>2026-04-26T13:18:32.093Z</time></trkpt><trkpt lat="43.3865478" lon="11.3925478"><ele>430.25</ele><time>2026-04-26T13:18:33.102Z</time></trkpt><trkpt lat="43.3866622" lon="11.392444"><ele>431.0</ele><time>2026-04-26T13:18:34.088Z</time></trkpt><trkpt lat="43.3867787" lon="11.3923341"><ele>431.0</ele><time>2026-04-26T13:18:35.093Z</time></trkpt><trkpt lat="43.3868929" lon="11.3922114"><ele>431.0</ele><time>2026-04-26T13:18:36.075Z</time></trkpt><trkpt lat="43.3870052" lon="11.3920698"><ele>431.0</ele><time>2026-04-26T13:18:37.088Z</time></trkpt><trkpt lat="43.3871111" lon="11.3919155"><ele>432.0</ele><time>2026-04-26T13:18:38.097Z</time></trkpt><trkpt lat="43.3872164" lon="11.3917538"><ele>433.0</ele><time>2026-04-26T13:18:39.098Z</time></trkpt><trkpt lat="43.3873245" lon="11.3915896"><ele>434.0</ele><time>2026-04-26T13:18:40.091Z</time></trkpt><trkpt lat="43.3874344" lon="11.3914221"><ele>434.5</ele><time>2026-04-26T13:18:41.113Z</time></trkpt><trkpt lat="43.3875393" lon="11.3912583"><ele>435.0</ele><time>2026-04-26T13:18:42.103Z</time></trkpt><trkpt lat="43.3876381" lon="11.3911035"><ele>435.5</ele><time>2026-04-26T13:18:43.111Z</time></trkpt><trkpt lat="43.3877291" lon="11.3909624"><ele>436.0</ele><time>2026-04-26T13:18:44.097Z</time></trkpt><trkpt lat="43.3878155" lon="11.3908308"><ele>436.0</ele><time>2026-04-26T13:18:45.101Z</time></trkpt><trkpt lat="43.3878975" lon="11.3907085"><ele>436.0</ele><time>2026-04-26T13:18:46.09Z</time></trkpt><trkpt lat="43.3879732" lon="11.3905918"><ele>436.0</ele><time>2026-04-26T13:18:47.107Z</time></trkpt><trkpt lat="43.3880347" lon="11.3904815"><ele>436.0</ele><time>2026-04-26T13:18:48.09Z</time></trkpt><trkpt lat="43.3880814" lon="11.3903605"><ele>436.0</ele><time>2026-04-26T13:18:49.098Z</time></trkpt><trkpt lat="43.388112" lon="11.3902186"><ele>434.0</ele><time>2026-04-26T13:18:50.098Z</time></trkpt><trkpt lat="43.3881339" lon="11.3900582"><ele>432.0</ele><time>2026-04-26T13:18:51.114Z</time></trkpt><trkpt lat="43.3881604" lon="11.3898896"><ele>430.0</ele><time>2026-04-26T13:18:52.095Z</time></trkpt><trkpt lat="43.3882015" lon="11.3897107"><ele>428.0</ele><time>2026-04-26T13:18:53.106Z</time></trkpt><trkpt lat="43.3882587" lon="11.3895299"><ele>427.66666666666663</ele><time>2026-04-26T13:18:54.095Z</time></trkpt><trkpt lat="43.3883293" lon="11.3893443"><ele>427.33333333333337</ele><time>2026-04-26T13:18:55.109Z</time></trkpt><trkpt lat="43.3884082" lon="11.3891595"><ele>427.0</ele><time>2026-04-26T13:18:56.089Z</time></trkpt><trkpt lat="43.388492" lon="11.3889683"><ele>427.6666666666667</ele><time>2026-04-26T13:18:57.1Z</time></trkpt><trkpt lat="43.3885762" lon="11.3887756"><ele>428.33333333333337</ele><time>2026-04-26T13:18:58.092Z</time></trkpt><trkpt lat="43.3886626" lon="11.3885796"><ele>429.0</ele><time>2026-04-26T13:18:59.095Z</time></trkpt><trkpt lat="43.3887473" lon="11.3883822"><ele>429.0</ele><time>2026-04-26T13:19:00.08Z</time></trkpt><trkpt lat="43.388832" lon="11.3881848"><ele>429.0</ele><time>2026-04-26T13:19:01.094Z</time></trkpt><trkpt lat="43.3889117" lon="11.3879978"><ele>429.0</ele><time>2026-04-26T13:19:02.082Z</time></trkpt><trkpt lat="43.3889859" lon="11.3878188"><ele>428.0</ele><time>2026-04-26T13:19:03.095Z</time></trkpt><trkpt lat="43.3890548" lon="11.3876451"><ele>427.0</ele><time>2026-04-26T13:19:04.085Z</time></trkpt><trkpt lat="43.3891276" lon="11.3874669"><ele>426.0</ele><time>2026-04-26T13:19:05.096Z</time></trkpt><trkpt lat="43.3892055" lon="11.3872902"><ele>425.0</ele><time>2026-04-26T13:19:06.098Z</time></trkpt><trkpt lat="43.3892871" lon="11.3871247"><ele>425.0</ele><time>2026-04-26T13:19:07.107Z</time></trkpt><trkpt lat="43.3893649" lon="11.3869777"><ele>425.0</ele><time>2026-04-26T13:19:08.089Z</time></trkpt><trkpt lat="43.3894375" lon="11.3868399"><ele>425.0</ele><time>2026-04-26T13:19:09.098Z</time></trkpt><trkpt lat="43.3895011" lon="11.3867084"><ele>425.0</ele><time>2026-04-26T13:19:10.099Z</time></trkpt><trkpt lat="43.3895612" lon="11.3865787"><ele>425.0</ele><time>2026-04-26T13:19:11.115Z</time></trkpt><trkpt lat="43.3896192" lon="11.3864525"><ele>425.0</ele><time>2026-04-26T13:19:12.098Z</time></trkpt><trkpt lat="43.3896734" lon="11.3863273"><ele>425.0</ele><time>2026-04-26T13:19:13.115Z</time></trkpt><trkpt lat="43.3897179" lon="11.386207"><ele>425.0</ele><time>2026-04-26T13:19:14.103Z</time></trkpt><trkpt lat="43.3897554" lon="11.3860931"><ele>425.0</ele><time>2026-04-26T13:19:15.098Z</time></trkpt><trkpt lat="43.3897883" lon="11.3859901"><ele>424.49999999999994</ele><time>2026-04-26T13:19:16.108Z</time></trkpt><trkpt lat="43.3898144" lon="11.3859051"><ele>424.0</ele><time>2026-04-26T13:19:17.086Z</time></trkpt><trkpt lat="43.3898468" lon="11.3858136"><ele>423.5</ele><time>2026-04-26T13:19:19.073Z</time></trkpt><trkpt lat="43.3899011" lon="11.3857397"><ele>423.0</ele><time>2026-04-26T13:20:00.08Z</time></trkpt><trkpt lat="43.3899464" lon="11.3856768"><ele>422.49999999999994</ele><time>2026-04-26T13:20:03.075Z</time></trkpt><trkpt lat="43.3900233" lon="11.3856238"><ele>422.0</ele><time>2026-04-26T13:20:06.083Z</time></trkpt><trkpt lat="43.3901204" lon="11.3855636"><ele>422.0</ele><time>2026-04-26T13:20:08.09Z</time></trkpt><trkpt lat="43.3901903" lon="11.3855201"><ele>422.0</ele><time>2026-04-26T13:20:09.083Z</time></trkpt><trkpt lat="43.3902734" lon="11.3854663"><ele>422.0</ele><time>2026-04-26T13:20:10.093Z</time></trkpt><trkpt lat="43.3903628" lon="11.385401"><ele>422.0</ele><time>2026-04-26T13:20:11.082Z</time></trkpt><trkpt lat="43.3904629" lon="11.3853288"><ele>422.0</ele><time>2026-04-26T13:20:12.082Z</time></trkpt><trkpt lat="43.3905711" lon="11.3852488"><ele>422.5</ele><time>2026-04-26T13:20:13.076Z</time></trkpt><trkpt lat="43.3906829" lon="11.3851622"><ele>423.0</ele><time>2026-04-26T13:20:14.078Z</time></trkpt><trkpt lat="43.3907955" lon="11.3850685"><ele>423.5</ele><time>2026-04-26T13:20:15.081Z</time></trkpt><trkpt lat="43.3909102" lon="11.3849645"><ele>424.0</ele><time>2026-04-26T13:20:16.066Z</time></trkpt><trkpt lat="43.3910294" lon="11.3848524"><ele>424.0</ele><time>2026-04-26T13:20:17.077Z</time></trkpt><trkpt lat="43.3911511" lon="11.384742"><ele>424.0</ele><time>2026-04-26T13:20:18.084Z</time></trkpt><trkpt lat="43.3912696" lon="11.384635"><ele>424.0</ele><time>2026-04-26T13:20:19.086Z</time></trkpt><trkpt lat="43.3913816" lon="11.3845381"><ele>424.0</ele><time>2026-04-26T13:20:20.075Z</time></trkpt><trkpt lat="43.3914898" lon="11.3844534"><ele>424.25</ele><time>2026-04-26T13:20:21.087Z</time></trkpt><trkpt lat="43.3915887" lon="11.3843743"><ele>424.5</ele><time>2026-04-26T13:20:22.089Z</time></trkpt><trkpt lat="43.3916797" lon="11.3842835"><ele>424.75</ele><time>2026-04-26T13:20:23.078Z</time></trkpt><trkpt lat="43.3917678" lon="11.3841759"><ele>425.0</ele><time>2026-04-26T13:20:24.082Z</time></trkpt><trkpt lat="43.3918445" lon="11.3840488"><ele>425.0</ele><time>2026-04-26T13:20:25.097Z</time></trkpt><trkpt lat="43.3919023" lon="11.3839017"><ele>425.0</ele><time>2026-04-26T13:20:26.075Z</time></trkpt><trkpt lat="43.3919427" lon="11.3837259"><ele>425.0</ele><time>2026-04-26T13:20:27.099Z</time></trkpt><trkpt lat="43.3919696" lon="11.3835294"><ele>425.0</ele><time>2026-04-26T13:20:28.103Z</time></trkpt><trkpt lat="43.3919929" lon="11.3833321"><ele>425.0</ele><time>2026-04-26T13:20:29.074Z</time></trkpt><trkpt lat="43.3920231" lon="11.3831433"><ele>425.0</ele><time>2026-04-26T13:20:30.096Z</time></trkpt><trkpt lat="43.3920706" lon="11.3829669"><ele>425.0</ele><time>2026-04-26T13:20:31.084Z</time></trkpt><trkpt lat="43.3921428" lon="11.3828006"><ele>425.0</ele><time>2026-04-26T13:20:32.092Z</time></trkpt><trkpt lat="43.3922367" lon="11.3826539"><ele>425.0</ele><time>2026-04-26T13:20:33.085Z</time></trkpt><trkpt lat="43.3923473" lon="11.382523"><ele>425.0</ele><time>2026-04-26T13:20:34.08Z</time></trkpt><trkpt lat="43.3924712" lon="11.3824021"><ele>425.0</ele><time>2026-04-26T13:20:35.073Z</time></trkpt><trkpt lat="43.3926073" lon="11.3822855"><ele>425.3333333333333</ele><time>2026-04-26T13:20:36.075Z</time></trkpt><trkpt lat="43.3927478" lon="11.3821693"><ele>425.66666666666663</ele><time>2026-04-26T13:20:37.066Z</time></trkpt><trkpt lat="43.3928909" lon="11.3820548"><ele>426.0</ele><time>2026-04-26T13:20:38.067Z</time></trkpt><trkpt lat="43.3930273" lon="11.3819435"><ele>424.75</ele><time>2026-04-26T13:20:39.065Z</time></trkpt><trkpt lat="43.3931529" lon="11.381837"><ele>423.5</ele><time>2026-04-26T13:20:40.064Z</time></trkpt><trkpt lat="43.3932715" lon="11.3817369"><ele>422.25</ele><time>2026-04-26T13:20:41.054Z</time></trkpt><trkpt lat="43.3933883" lon="11.3816411"><ele>421.0</ele><time>2026-04-26T13:20:42.086Z</time></trkpt><trkpt lat="43.3935061" lon="11.3815506"><ele>421.0</ele><time>2026-04-26T13:20:43.105Z</time></trkpt><trkpt lat="43.393628" lon="11.3814622"><ele>421.0</ele><time>2026-04-26T13:20:44.087Z</time></trkpt><trkpt lat="43.3937564" lon="11.3813755"><ele>421.0</ele><time>2026-04-26T13:20:45.096Z</time></trkpt><trkpt lat="43.3938904" lon="11.3812966"><ele>421.0</ele><time>2026-04-26T13:20:46.098Z</time></trkpt><trkpt lat="43.3940308" lon="11.3812282"><ele>419.0</ele><time>2026-04-26T13:20:47.097Z</time></trkpt><trkpt lat="43.3941766" lon="11.3811678"><ele>417.0</ele><time>2026-04-26T13:20:48.102Z</time></trkpt><trkpt lat="43.3943251" lon="11.3811147"><ele>415.0</ele><time>2026-04-26T13:20:49.092Z</time></trkpt><trkpt lat="43.3944758" lon="11.3810698"><ele>415.0</ele><time>2026-04-26T13:20:50.09Z</time></trkpt><trkpt lat="43.3946234" lon="11.381033"><ele>415.0</ele><time>2026-04-26T13:20:51.095Z</time></trkpt><trkpt lat="43.3947661" lon="11.3810062"><ele>415.0</ele><time>2026-04-26T13:20:52.086Z</time></trkpt><trkpt lat="43.3949088" lon="11.3809887"><ele>415.0</ele><time>2026-04-26T13:20:53.089Z</time></trkpt><trkpt lat="43.3950493" lon="11.380981"><ele>415.25</ele><time>2026-04-26T13:20:54.09Z</time></trkpt><trkpt lat="43.3951839" lon="11.3809825"><ele>415.5</ele><time>2026-04-26T13:20:55.085Z</time></trkpt><trkpt lat="43.395316" lon="11.3809945"><ele>415.75</ele><time>2026-04-26T13:20:56.106Z</time></trkpt><trkpt lat="43.3954516" lon="11.3810163"><ele>416.0</ele><time>2026-04-26T13:20:57.11Z</time></trkpt><trkpt lat="43.3955922" lon="11.3810371"><ele>415.0</ele><time>2026-04-26T13:20:58.096Z</time></trkpt><trkpt lat="43.3957373" lon="11.381052"><ele>414.0</ele><time>2026-04-26T13:20:59.098Z</time></trkpt><trkpt lat="43.3958767" lon="11.3810555"><ele>413.0</ele><time>2026-04-26T13:21:00.087Z</time></trkpt><trkpt lat="43.3960087" lon="11.381037"><ele>412.0</ele><time>2026-04-26T13:21:01.084Z</time></trkpt><trkpt lat="43.3961368" lon="11.3809877"><ele>412.0</ele><time>2026-04-26T13:21:02.09Z</time></trkpt><trkpt lat="43.3962571" lon="11.3809025"><ele>412.0</ele><time>2026-04-26T13:21:03.082Z</time></trkpt><trkpt lat="43.3963672" lon="11.3807783"><ele>412.0</ele><time>2026-04-26T13:21:04.079Z</time></trkpt><trkpt lat="43.3964645" lon="11.3806205"><ele>412.0</ele><time>2026-04-26T13:21:05.09Z</time></trkpt><trkpt lat="43.3965434" lon="11.3804385"><ele>411.0</ele><time>2026-04-26T13:21:06.082Z</time></trkpt><trkpt lat="43.3966022" lon="11.3802345"><ele>410.0</ele><time>2026-04-26T13:21:07.109Z</time></trkpt><trkpt lat="43.3966465" lon="11.3800154"><ele>409.0</ele><time>2026-04-26T13:21:08.119Z</time></trkpt><trkpt lat="43.3966868" lon="11.3797862"><ele>410.6666666666667</ele><time>2026-04-26T13:21:09.112Z</time></trkpt><trkpt lat="43.3967278" lon="11.3795664"><ele>412.33333333333337</ele><time>2026-04-26T13:21:10.109Z</time></trkpt><trkpt lat="43.3967661" lon="11.379368"><ele>414.0</ele><time>2026-04-26T13:21:11.111Z</time></trkpt><trkpt lat="43.3968014" lon="11.3791879"><ele>414.0</ele><time>2026-04-26T13:21:12.103Z</time></trkpt><trkpt lat="43.3968367" lon="11.3790185"><ele>414.0</ele><time>2026-04-26T13:21:13.105Z</time></trkpt><trkpt lat="43.3968747" lon="11.3788639"><ele>414.0</ele><time>2026-04-26T13:21:14.084Z</time></trkpt><trkpt lat="43.3969202" lon="11.3787213"><ele>414.0</ele><time>2026-04-26T13:21:15.109Z</time></trkpt><trkpt lat="43.3969771" lon="11.3785855"><ele>414.0</ele><time>2026-04-26T13:21:16.108Z</time></trkpt><trkpt lat="43.3970448" lon="11.3784507"><ele>414.0</ele><time>2026-04-26T13:21:17.093Z</time></trkpt><trkpt lat="43.3971191" lon="11.3783109"><ele>414.0</ele><time>2026-04-26T13:21:18.096Z</time></trkpt><trkpt lat="43.3971987" lon="11.3781647"><ele>414.0</ele><time>2026-04-26T13:21:19.095Z</time></trkpt><trkpt lat="43.3972849" lon="11.3780108"><ele>415.25</ele><time>2026-04-26T13:21:20.1Z</time></trkpt><trkpt lat="43.3973751" lon="11.3778534"><ele>416.5</ele><time>2026-04-26T13:21:21.077Z</time></trkpt><trkpt lat="43.3974707" lon="11.3776922"><ele>417.75</ele><time>2026-04-26T13:21:22.09Z</time></trkpt><trkpt lat="43.397569" lon="11.3775339"><ele>419.0</ele><time>2026-04-26T13:21:23.079Z</time></trkpt><trkpt lat="43.3976722" lon="11.3773772"><ele>419.0</ele><time>2026-04-26T13:21:24.097Z</time></trkpt><trkpt lat="43.3977747" lon="11.377226"><ele>419.0</ele><time>2026-04-26T13:21:25.09Z</time></trkpt><trkpt lat="43.3978786" lon="11.377078"><ele>419.0</ele><time>2026-04-26T13:21:26.09Z</time></trkpt><trkpt lat="43.3979839" lon="11.3769346"><ele>419.0</ele><time>2026-04-26T13:21:27.081Z</time></trkpt><trkpt lat="43.3980919" lon="11.3767938"><ele>419.5</ele><time>2026-04-26T13:21:28.084Z</time></trkpt><trkpt lat="43.3982013" lon="11.3766602"><ele>420.0</ele><time>2026-04-26T13:21:29.064Z</time></trkpt><trkpt lat="43.3983116" lon="11.3765383"><ele>420.5</ele><time>2026-04-26T13:21:30.078Z</time></trkpt><trkpt lat="43.3984167" lon="11.3764328"><ele>421.0</ele><time>2026-04-26T13:21:31.086Z</time></trkpt><trkpt lat="43.3985228" lon="11.3763385"><ele>421.5</ele><time>2026-04-26T13:21:32.091Z</time></trkpt><trkpt lat="43.3986331" lon="11.376252"><ele>422.0</ele><time>2026-04-26T13:21:33.092Z</time></trkpt><trkpt lat="43.3987466" lon="11.3761727"><ele>422.5</ele><time>2026-04-26T13:21:34.078Z</time></trkpt><trkpt lat="43.3988641" lon="11.3761057"><ele>423.0</ele><time>2026-04-26T13:21:35.076Z</time></trkpt><trkpt lat="43.3989837" lon="11.3760618"><ele>424.0</ele><time>2026-04-26T13:21:36.069Z</time></trkpt><trkpt lat="43.3991025" lon="11.3760293"><ele>425.0</ele><time>2026-04-26T13:21:37.077Z</time></trkpt><trkpt lat="43.3992135" lon="11.3760004"><ele>425.99999999999994</ele><time>2026-04-26T13:21:38.068Z</time></trkpt><trkpt lat="43.3993109" lon="11.3759646"><ele>427.0</ele><time>2026-04-26T13:21:39.075Z</time></trkpt><trkpt lat="43.3994003" lon="11.3759172"><ele>428.0</ele><time>2026-04-26T13:21:40.086Z</time></trkpt><trkpt lat="43.3994845" lon="11.3758555"><ele>428.0</ele><time>2026-04-26T13:21:41.085Z</time></trkpt><trkpt lat="43.3995618" lon="11.3757762"><ele>427.99999999999994</ele><time>2026-04-26T13:21:42.074Z</time></trkpt><trkpt lat="43.3996348" lon="11.3756799"><ele>427.99999999999994</ele><time>2026-04-26T13:21:43.09Z</time></trkpt><trkpt lat="43.3997037" lon="11.3755663"><ele>428.0</ele><time>2026-04-26T13:21:44.081Z</time></trkpt><trkpt lat="43.3997743" lon="11.3754369"><ele>428.0</ele><time>2026-04-26T13:21:45.093Z</time></trkpt><trkpt lat="43.3998437" lon="11.3752982"><ele>430.0</ele><time>2026-04-26T13:21:46.071Z</time></trkpt><trkpt lat="43.3999185" lon="11.3751586"><ele>432.0</ele><time>2026-04-26T13:21:47.076Z</time></trkpt><trkpt lat="43.4000002" lon="11.3750257"><ele>434.0</ele><time>2026-04-26T13:21:48.082Z</time></trkpt><trkpt lat="43.4000834" lon="11.3748948"><ele>436.0</ele><time>2026-04-26T13:21:49.071Z</time></trkpt><trkpt lat="43.4001655" lon="11.3747595"><ele>436.75</ele><time>2026-04-26T13:21:50.081Z</time></trkpt><trkpt lat="43.4002499" lon="11.3746213"><ele>437.5</ele><time>2026-04-26T13:21:51.071Z</time></trkpt><trkpt lat="43.4003355" lon="11.3744843"><ele>438.25</ele><time>2026-04-26T13:21:52.076Z</time></trkpt><trkpt lat="43.4004109" lon="11.3743572"><ele>439.0</ele><time>2026-04-26T13:21:53.066Z</time></trkpt><trkpt lat="43.4004737" lon="11.3742322"><ele>438.75</ele><time>2026-04-26T13:21:54.072Z</time></trkpt><trkpt lat="43.4005261" lon="11.3740982"><ele>438.5</ele><time>2026-04-26T13:21:55.079Z</time></trkpt><trkpt lat="43.4005686" lon="11.3739491"><ele>438.25</ele><time>2026-04-26T13:21:56.085Z</time></trkpt><trkpt lat="43.4006041" lon="11.3737908"><ele>438.0</ele><time>2026-04-26T13:21:57.089Z</time></trkpt><trkpt lat="43.4006331" lon="11.3736399"><ele>438.0</ele><time>2026-04-26T13:21:58.073Z</time></trkpt><trkpt lat="43.4006637" lon="11.3734994"><ele>437.99999999999994</ele><time>2026-04-26T13:21:59.085Z</time></trkpt><trkpt lat="43.4007062" lon="11.3733733"><ele>437.99999999999994</ele><time>2026-04-26T13:22:00.07Z</time></trkpt><trkpt lat="43.4007632" lon="11.3732491"><ele>438.0</ele><time>2026-04-26T13:22:01.08Z</time></trkpt><trkpt lat="43.4008384" lon="11.3731261"><ele>438.0</ele><time>2026-04-26T13:22:02.09Z</time></trkpt><trkpt lat="43.4009262" lon="11.3730151"><ele>437.59999999999997</ele><time>2026-04-26T13:22:03.084Z</time></trkpt><trkpt lat="43.4010112" lon="11.3729153"><ele>437.19999999999993</ele><time>2026-04-26T13:22:04.097Z</time></trkpt><trkpt lat="43.4010833" lon="11.3728228"><ele>436.8</ele><time>2026-04-26T13:22:05.096Z</time></trkpt><trkpt lat="43.401146" lon="11.3727309"><ele>436.4</ele><time>2026-04-26T13:22:06.09Z</time></trkpt><trkpt lat="43.4011994" lon="11.3726347"><ele>436.0</ele><time>2026-04-26T13:22:07.094Z</time></trkpt><trkpt lat="43.4012367" lon="11.3725351"><ele>436.0</ele><time>2026-04-26T13:22:08.083Z</time></trkpt><trkpt lat="43.4012609" lon="11.3724302"><ele>436.0</ele><time>2026-04-26T13:22:09.102Z</time></trkpt><trkpt lat="43.4012763" lon="11.3723139"><ele>436.0</ele><time>2026-04-26T13:22:10.077Z</time></trkpt><trkpt lat="43.4012785" lon="11.3721734"><ele>436.0</ele><time>2026-04-26T13:22:11.082Z</time></trkpt><trkpt lat="43.401271" lon="11.372017"><ele>436.0</ele><time>2026-04-26T13:22:12.077Z</time></trkpt><trkpt lat="43.4012646" lon="11.3718622"><ele>435.6</ele><time>2026-04-26T13:22:13.081Z</time></trkpt><trkpt lat="43.4012599" lon="11.3717141"><ele>435.20000000000005</ele><time>2026-04-26T13:22:14.08Z</time></trkpt><trkpt lat="43.4012539" lon="11.3715679"><ele>434.79999999999995</ele><time>2026-04-26T13:22:15.072Z</time></trkpt><trkpt lat="43.4012463" lon="11.3714237"><ele>434.4</ele><time>2026-04-26T13:22:16.073Z</time></trkpt><trkpt lat="43.4012421" lon="11.3712757"><ele>434.0</ele><time>2026-04-26T13:22:17.06Z</time></trkpt><trkpt lat="43.4012499" lon="11.3711181"><ele>433.0</ele><time>2026-04-26T13:22:18.06Z</time></trkpt><trkpt lat="43.4012699" lon="11.370955"><ele>432.0</ele><time>2026-04-26T13:22:19.066Z</time></trkpt><trkpt lat="43.4012963" lon="11.3707877"><ele>431.0</ele><time>2026-04-26T13:22:20.07Z</time></trkpt><trkpt lat="43.4013317" lon="11.370618"><ele>430.0</ele><time>2026-04-26T13:22:21.077Z</time></trkpt><trkpt lat="43.4013813" lon="11.3704506"><ele>429.75</ele><time>2026-04-26T13:22:22.085Z</time></trkpt><trkpt lat="43.4014382" lon="11.3702866"><ele>429.5</ele><time>2026-04-26T13:22:23.08Z</time></trkpt><trkpt lat="43.4014959" lon="11.3701195"><ele>429.25</ele><time>2026-04-26T13:22:24.088Z</time></trkpt><trkpt lat="43.4015486" lon="11.369944"><ele>429.0</ele><time>2026-04-26T13:22:25.091Z</time></trkpt><trkpt lat="43.4015929" lon="11.3697588"><ele>429.25</ele><time>2026-04-26T13:22:26.08Z</time></trkpt><trkpt lat="43.4016291" lon="11.3695648"><ele>429.5</ele><time>2026-04-26T13:22:27.089Z</time></trkpt><trkpt lat="43.4016607" lon="11.369368"><ele>429.75</ele><time>2026-04-26T13:22:28.077Z</time></trkpt><trkpt lat="43.4016895" lon="11.3691682"><ele>430.0</ele><time>2026-04-26T13:22:29.086Z</time></trkpt><trkpt lat="43.4017074" lon="11.3689663"><ele>430.6666666666667</ele><time>2026-04-26T13:22:30.076Z</time></trkpt><trkpt lat="43.40171" lon="11.3687611"><ele>431.33333333333337</ele><time>2026-04-26T13:22:31.078Z</time></trkpt><trkpt lat="43.4016982" lon="11.3685517"><ele>432.0</ele><time>2026-04-26T13:22:32.069Z</time></trkpt><trkpt lat="43.4016768" lon="11.3683344"><ele>432.0</ele><time>2026-04-26T13:22:33.077Z</time></trkpt><trkpt lat="43.4016569" lon="11.3681211"><ele>432.0</ele><time>2026-04-26T13:22:34.08Z</time></trkpt><trkpt lat="43.4016398" lon="11.3679101"><ele>432.0</ele><time>2026-04-26T13:22:35.086Z</time></trkpt><trkpt lat="43.4016234" lon="11.3677105"><ele>432.5</ele><time>2026-04-26T13:22:36.087Z</time></trkpt><trkpt lat="43.4016083" lon="11.3675232"><ele>433.0</ele><time>2026-04-26T13:22:37.071Z</time></trkpt><trkpt lat="43.4015902" lon="11.3673392"><ele>433.5</ele><time>2026-04-26T13:22:38.074Z</time></trkpt><trkpt lat="43.4015634" lon="11.3671698"><ele>434.0</ele><time>2026-04-26T13:22:39.079Z</time></trkpt><trkpt lat="43.4015217" lon="11.3670088"><ele>434.25</ele><time>2026-04-26T13:22:40.064Z</time></trkpt><trkpt lat="43.4014621" lon="11.3668519"><ele>434.5</ele><time>2026-04-26T13:22:41.068Z</time></trkpt><trkpt lat="43.4013939" lon="11.3666983"><ele>434.75</ele><time>2026-04-26T13:22:42.056Z</time></trkpt><trkpt lat="43.4013358" lon="11.3665493"><ele>435.0</ele><time>2026-04-26T13:22:43.062Z</time></trkpt><trkpt lat="43.4012928" lon="11.3664024"><ele>436.5</ele><time>2026-04-26T13:22:44.068Z</time></trkpt><trkpt lat="43.4012565" lon="11.366242"><ele>438.0</ele><time>2026-04-26T13:22:45.079Z</time></trkpt><trkpt lat="43.4012278" lon="11.3660709"><ele>439.5</ele><time>2026-04-26T13:22:46.07Z</time></trkpt><trkpt lat="43.4012017" lon="11.365895"><ele>441.0</ele><time>2026-04-26T13:22:47.081Z</time></trkpt><trkpt lat="43.4011757" lon="11.3657219"><ele>441.0</ele><time>2026-04-26T13:22:48.077Z</time></trkpt><trkpt lat="43.4011503" lon="11.3655618"><ele>441.0</ele><time>2026-04-26T13:22:49.079Z</time></trkpt><trkpt lat="43.4011295" lon="11.3654267"><ele>441.0</ele><time>2026-04-26T13:22:50.081Z</time></trkpt><trkpt lat="43.4011128" lon="11.3653078"><ele>441.0</ele><time>2026-04-26T13:22:51.084Z</time></trkpt><trkpt lat="43.4010994" lon="11.365192"><ele>441.0</ele><time>2026-04-26T13:22:52.076Z</time></trkpt><trkpt lat="43.4010871" lon="11.3650694"><ele>440.8</ele><time>2026-04-26T13:22:53.089Z</time></trkpt><trkpt lat="43.4010743" lon="11.364948"><ele>440.6</ele><time>2026-04-26T13:22:54.09Z</time></trkpt><trkpt lat="43.4010587" lon="11.3648281"><ele>440.4</ele><time>2026-04-26T13:22:55.084Z</time></trkpt><trkpt lat="43.4010317" lon="11.3647054"><ele>440.2</ele><time>2026-04-26T13:22:56.09Z</time></trkpt><trkpt lat="43.4009881" lon="11.3645835"><ele>440.0</ele><time>2026-04-26T13:22:57.104Z</time></trkpt><trkpt lat="43.4009359" lon="11.3644608"><ele>440.0</ele><time>2026-04-26T13:22:58.088Z</time></trkpt><trkpt lat="43.4008844" lon="11.3643324"><ele>440.0</ele><time>2026-04-26T13:22:59.087Z</time></trkpt><trkpt lat="43.4008397" lon="11.3641979"><ele>440.0</ele><time>2026-04-26T13:23:00.077Z</time></trkpt><trkpt lat="43.4008072" lon="11.3640472"><ele>440.0</ele><time>2026-04-26T13:23:01.074Z</time></trkpt><trkpt lat="43.4007914" lon="11.3638935"><ele>440.0</ele><time>2026-04-26T13:23:02.081Z</time></trkpt><trkpt lat="43.4007936" lon="11.3637548"><ele>440.0</ele><time>2026-04-26T13:23:03.1Z</time></trkpt><trkpt lat="43.4008091" lon="11.3636307"><ele>440.0</ele><time>2026-04-26T13:23:04.077Z</time></trkpt><trkpt lat="43.4008414" lon="11.3635115"><ele>440.0</ele><time>2026-04-26T13:23:05.078Z</time></trkpt><trkpt lat="43.4008938" lon="11.3634039"><ele>440.0</ele><time>2026-04-26T13:23:06.069Z</time></trkpt><trkpt lat="43.4009597" lon="11.3633174"><ele>440.0</ele><time>2026-04-26T13:23:07.073Z</time></trkpt><trkpt lat="43.401039" lon="11.3632532"><ele>440.0</ele><time>2026-04-26T13:23:08.063Z</time></trkpt><trkpt lat="43.401131" lon="11.3632008"><ele>440.0</ele><time>2026-04-26T13:23:09.078Z</time></trkpt><trkpt lat="43.4012187" lon="11.3631454"><ele>440.0</ele><time>2026-04-26T13:23:10.083Z</time></trkpt><trkpt lat="43.4012932" lon="11.3630765"><ele>440.0</ele><time>2026-04-26T13:23:11.081Z</time></trkpt><trkpt lat="43.4013549" lon="11.3629869"><ele>440.0</ele><time>2026-04-26T13:23:12.076Z</time></trkpt><trkpt lat="43.4013982" lon="11.3628768"><ele>441.8</ele><time>2026-04-26T13:23:13.09Z</time></trkpt><trkpt lat="43.4014224" lon="11.3627496"><ele>443.6</ele><time>2026-04-26T13:23:14.089Z</time></trkpt><trkpt lat="43.4014266" lon="11.3626145"><ele>445.4</ele><time>2026-04-26T13:23:15.081Z</time></trkpt><trkpt lat="43.4014085" lon="11.3624734"><ele>447.2</ele><time>2026-04-26T13:23:16.079Z</time></trkpt><trkpt lat="43.4013733" lon="11.3623334"><ele>449.0</ele><time>2026-04-26T13:23:17.071Z</time></trkpt><trkpt lat="43.4013405" lon="11.3622078"><ele>448.16666666666663</ele><time>2026-04-26T13:23:18.074Z</time></trkpt><trkpt lat="43.4013278" lon="11.3620977"><ele>447.3333333333333</ele><time>2026-04-26T13:23:19.075Z</time></trkpt><trkpt lat="43.4013404" lon="11.3620044"><ele>446.5</ele><time>2026-04-26T13:23:20.077Z</time></trkpt><trkpt lat="43.4013784" lon="11.3619227"><ele>445.66666666666663</ele><time>2026-04-26T13:23:21.07Z</time></trkpt><trkpt lat="43.4014388" lon="11.3618435"><ele>444.8333333333333</ele><time>2026-04-26T13:23:22.078Z</time></trkpt><trkpt lat="43.4015143" lon="11.3617626"><ele>444.0</ele><time>2026-04-26T13:23:23.073Z</time></trkpt><trkpt lat="43.4016013" lon="11.3616747"><ele>444.0</ele><time>2026-04-26T13:23:24.075Z</time></trkpt><trkpt lat="43.4016985" lon="11.3615735"><ele>444.0</ele><time>2026-04-26T13:23:25.08Z</time></trkpt><trkpt lat="43.4018008" lon="11.3614545"><ele>444.0</ele><time>2026-04-26T13:23:26.084Z</time></trkpt><trkpt lat="43.4018973" lon="11.3613304"><ele>444.0</ele><time>2026-04-26T13:23:27.086Z</time></trkpt><trkpt lat="43.4019822" lon="11.3612172"><ele>443.4</ele><time>2026-04-26T13:23:28.075Z</time></trkpt><trkpt lat="43.4020668" lon="11.3611119"><ele>442.79999999999995</ele><time>2026-04-26T13:23:29.07Z</time></trkpt><trkpt lat="43.4021587" lon="11.3610181"><ele>442.20000000000005</ele><time>2026-04-26T13:23:30.065Z</time></trkpt><trkpt lat="43.4022532" lon="11.360947"><ele>441.6</ele><time>2026-04-26T13:23:31.06Z</time></trkpt><trkpt lat="43.4023476" lon="11.3609"><ele>441.0</ele><time>2026-04-26T13:23:32.069Z</time></trkpt><trkpt lat="43.4024466" lon="11.3608794"><ele>441.0</ele><time>2026-04-26T13:23:33.071Z</time></trkpt><trkpt lat="43.4025585" lon="11.3608889"><ele>441.0</ele><time>2026-04-26T13:23:34.078Z</time></trkpt><trkpt lat="43.4026754" lon="11.3609182"><ele>441.0</ele><time>2026-04-26T13:23:35.089Z</time></trkpt><trkpt lat="43.4027883" lon="11.3609463"><ele>441.0</ele><time>2026-04-26T13:23:36.092Z</time></trkpt><trkpt lat="43.4028977" lon="11.3609509"><ele>442.0</ele><time>2026-04-26T13:23:37.093Z</time></trkpt><trkpt lat="43.4030146" lon="11.3609297"><ele>443.0</ele><time>2026-04-26T13:23:38.081Z</time></trkpt><trkpt lat="43.4031338" lon="11.3608933"><ele>444.0</ele><time>2026-04-26T13:23:39.095Z</time></trkpt><trkpt lat="43.4032393" lon="11.360856"><ele>445.0</ele><time>2026-04-26T13:23:40.086Z</time></trkpt><trkpt lat="43.4033331" lon="11.3608175"><ele>446.0</ele><time>2026-04-26T13:23:41.093Z</time></trkpt><trkpt lat="43.4034087" lon="11.3607677"><ele>446.0</ele><time>2026-04-26T13:23:42.1Z</time></trkpt><trkpt lat="43.403462" lon="11.360699"><ele>446.0</ele><time>2026-04-26T13:23:43.086Z</time></trkpt><trkpt lat="43.4034949" lon="11.3606051"><ele>446.0</ele><time>2026-04-26T13:23:44.098Z</time></trkpt><trkpt lat="43.4035082" lon="11.3604887"><ele>446.0</ele><time>2026-04-26T13:23:45.084Z</time></trkpt><trkpt lat="43.4035056" lon="11.3603478"><ele>446.0</ele><time>2026-04-26T13:23:46.092Z</time></trkpt><trkpt lat="43.4034984" lon="11.3601877"><ele>445.75</ele><time>2026-04-26T13:23:47.095Z</time></trkpt><trkpt lat="43.4035028" lon="11.3600194"><ele>445.5</ele><time>2026-04-26T13:23:48.078Z</time></trkpt><trkpt lat="43.4035259" lon="11.3598493"><ele>445.25</ele><time>2026-04-26T13:23:49.101Z</time></trkpt><trkpt lat="43.4035578" lon="11.3596931"><ele>445.0</ele><time>2026-04-26T13:23:50.108Z</time></trkpt><trkpt lat="43.4035815" lon="11.3595565"><ele>445.0</ele><time>2026-04-26T13:23:51.091Z</time></trkpt><trkpt lat="43.4035873" lon="11.3594341"><ele>445.0</ele><time>2026-04-26T13:23:52.086Z</time></trkpt><trkpt lat="43.4035708" lon="11.3593172"><ele>445.0</ele><time>2026-04-26T13:23:53.074Z</time></trkpt><trkpt lat="43.4035299" lon="11.359204"><ele>445.0</ele><time>2026-04-26T13:23:54.072Z</time></trkpt><trkpt lat="43.4034626" lon="11.3591034"><ele>445.0</ele><time>2026-04-26T13:23:55.062Z</time></trkpt><trkpt lat="43.403371" lon="11.3590222"><ele>445.0</ele><time>2026-04-26T13:23:56.068Z</time></trkpt><trkpt lat="43.4032612" lon="11.3589642"><ele>445.0</ele><time>2026-04-26T13:23:57.063Z</time></trkpt><trkpt lat="43.4031471" lon="11.3589182"><ele>445.0</ele><time>2026-04-26T13:23:58.067Z</time></trkpt><trkpt lat="43.4030532" lon="11.3588633"><ele>445.0</ele><time>2026-04-26T13:23:59.073Z</time></trkpt><trkpt lat="43.4029842" lon="11.3587835"><ele>445.0</ele><time>2026-04-26T13:24:00.072Z</time></trkpt><trkpt lat="43.4029358" lon="11.3586789"><ele>444.6</ele><time>2026-04-26T13:24:01.083Z</time></trkpt><trkpt lat="43.4029037" lon="11.3585674"><ele>444.2</ele><time>2026-04-26T13:24:02.072Z</time></trkpt><trkpt lat="43.4028757" lon="11.3584445"><ele>443.79999999999995</ele><time>2026-04-26T13:24:03.068Z</time></trkpt><trkpt lat="43.4028454" lon="11.3582909"><ele>443.4</ele><time>2026-04-26T13:24:04.082Z</time></trkpt><trkpt lat="43.4028185" lon="11.3581171"><ele>443.0</ele><time>2026-04-26T13:24:05.083Z</time></trkpt><trkpt lat="43.4027903" lon="11.357945"><ele>443.0</ele><time>2026-04-26T13:24:06.086Z</time></trkpt><trkpt lat="43.4027659" lon="11.3577949"><ele>442.99999999999994</ele><time>2026-04-26T13:24:07.075Z</time></trkpt><trkpt lat="43.4027577" lon="11.357663"><ele>442.99999999999994</ele><time>2026-04-26T13:24:08.097Z</time></trkpt><trkpt lat="43.4027704" lon="11.3575468"><ele>443.0</ele><time>2026-04-26T13:24:09.096Z</time></trkpt><trkpt lat="43.4028023" lon="11.3574373"><ele>443.0</ele><time>2026-04-26T13:24:10.079Z</time></trkpt><trkpt lat="43.4028529" lon="11.3573366"><ele>443.0</ele><time>2026-04-26T13:24:11.086Z</time></trkpt><trkpt lat="43.4029243" lon="11.357254"><ele>442.99999999999994</ele><time>2026-04-26T13:24:12.087Z</time></trkpt><trkpt lat="43.403013" lon="11.3571892"><ele>442.99999999999994</ele><time>2026-04-26T13:24:13.1Z</time></trkpt><trkpt lat="43.4031129" lon="11.357153"><ele>443.0</ele><time>2026-04-26T13:24:14.073Z</time></trkpt><trkpt lat="43.4032268" lon="11.3571427"><ele>443.0</ele><time>2026-04-26T13:24:15.083Z</time></trkpt><trkpt lat="43.4033462" lon="11.3571453"><ele>443.79999999999995</ele><time>2026-04-26T13:24:16.077Z</time></trkpt><trkpt lat="43.4034679" lon="11.3571434"><ele>444.59999999999997</ele><time>2026-04-26T13:24:17.077Z</time></trkpt><trkpt lat="43.403579" lon="11.3571323"><ele>445.40000000000003</ele><time>2026-04-26T13:24:18.065Z</time></trkpt><trkpt lat="43.4036717" lon="11.3571067"><ele>446.20000000000005</ele><time>2026-04-26T13:24:19.064Z</time></trkpt><trkpt lat="43.4037484" lon="11.3570641"><ele>447.0</ele><time>2026-04-26T13:24:20.058Z</time></trkpt><trkpt lat="43.4038087" lon="11.3569976"><ele>447.0</ele><time>2026-04-26T13:24:21.068Z</time></trkpt><trkpt lat="43.4038474" lon="11.3569059"><ele>447.0</ele><time>2026-04-26T13:24:22.071Z</time></trkpt><trkpt lat="43.4038616" lon="11.3567979"><ele>447.0</ele><time>2026-04-26T13:24:23.073Z</time></trkpt><trkpt lat="43.4038457" lon="11.3566877"><ele>447.0</ele><time>2026-04-26T13:24:24.078Z</time></trkpt><trkpt lat="43.4038021" lon="11.3565755"><ele>447.0</ele><time>2026-04-26T13:24:25.07Z</time></trkpt><trkpt lat="43.4037369" lon="11.356464"><ele>447.0</ele><time>2026-04-26T13:24:26.086Z</time></trkpt><trkpt lat="43.4036716" lon="11.3563565"><ele>446.8333333333333</ele><time>2026-04-26T13:24:27.084Z</time></trkpt><trkpt lat="43.4036221" lon="11.3562507"><ele>446.66666666666663</ele><time>2026-04-26T13:24:28.075Z</time></trkpt><trkpt lat="43.4036011" lon="11.3561503"><ele>446.5</ele><time>2026-04-26T13:24:29.078Z</time></trkpt><trkpt lat="43.4036124" lon="11.3560608"><ele>446.3333333333333</ele><time>2026-04-26T13:24:30.081Z</time></trkpt><trkpt lat="43.4036551" lon="11.3559807"><ele>446.16666666666663</ele><time>2026-04-26T13:24:31.084Z</time></trkpt><trkpt lat="43.4037264" lon="11.3559063"><ele>446.0</ele><time>2026-04-26T13:24:32.077Z</time></trkpt><trkpt lat="43.4038145" lon="11.3558312"><ele>447.20000000000005</ele><time>2026-04-26T13:24:33.093Z</time></trkpt><trkpt lat="43.4039076" lon="11.3557563"><ele>448.40000000000003</ele><time>2026-04-26T13:24:34.082Z</time></trkpt><trkpt lat="43.4039997" lon="11.3556868"><ele>449.6</ele><time>2026-04-26T13:24:35.094Z</time></trkpt><trkpt lat="43.4040896" lon="11.3556368"><ele>450.8</ele><time>2026-04-26T13:24:36.079Z</time></trkpt><trkpt lat="43.4041869" lon="11.3556124"><ele>452.0</ele><time>2026-04-26T13:24:37.089Z</time></trkpt><trkpt lat="43.4042897" lon="11.3556192"><ele>452.0</ele><time>2026-04-26T13:24:38.089Z</time></trkpt><trkpt lat="43.4044015" lon="11.3556458"><ele>452.00000000000006</ele><time>2026-04-26T13:24:39.083Z</time></trkpt><trkpt lat="43.4045106" lon="11.3556768"><ele>452.00000000000006</ele><time>2026-04-26T13:24:40.083Z</time></trkpt><trkpt lat="43.4046093" lon="11.3557188"><ele>452.0</ele><time>2026-04-26T13:24:41.071Z</time></trkpt><trkpt lat="43.4047029" lon="11.3557765"><ele>452.0</ele><time>2026-04-26T13:24:42.074Z</time></trkpt><trkpt lat="43.4047931" lon="11.3558514"><ele>452.8</ele><time>2026-04-26T13:24:43.065Z</time></trkpt><trkpt lat="43.4048822" lon="11.3559291"><ele>453.6</ele><time>2026-04-26T13:24:44.069Z</time></trkpt><trkpt lat="43.4049687" lon="11.3559972"><ele>454.40000000000003</ele><time>2026-04-26T13:24:45.057Z</time></trkpt><trkpt lat="43.4050542" lon="11.3560599"><ele>455.20000000000005</ele><time>2026-04-26T13:24:46.068Z</time></trkpt><trkpt lat="43.4051301" lon="11.3561006"><ele>456.0</ele><time>2026-04-26T13:24:47.059Z</time></trkpt><trkpt lat="43.4052013" lon="11.3561135"><ele>456.0</ele><time>2026-04-26T13:24:48.073Z</time></trkpt><trkpt lat="43.4052694" lon="11.3560988"><ele>456.0</ele><time>2026-04-26T13:24:49.077Z</time></trkpt><trkpt lat="43.4053263" lon="11.3560466"><ele>456.0</ele><time>2026-04-26T13:24:50.07Z</time></trkpt><trkpt lat="43.4053688" lon="11.355957"><ele>456.0</ele><time>2026-04-26T13:24:51.077Z</time></trkpt><trkpt lat="43.4053971" lon="11.3558394"><ele>456.0</ele><time>2026-04-26T13:24:52.077Z</time></trkpt><trkpt lat="43.4054193" lon="11.3557067"><ele>456.0</ele><time>2026-04-26T13:24:53.071Z</time></trkpt><trkpt lat="43.4054522" lon="11.3555796"><ele>455.5</ele><time>2026-04-26T13:24:54.084Z</time></trkpt><trkpt lat="43.4055023" lon="11.3554887"><ele>455.0</ele><time>2026-04-26T13:24:55.067Z</time></trkpt><trkpt lat="43.4055682" lon="11.3554292"><ele>454.5</ele><time>2026-04-26T13:24:56.075Z</time></trkpt><trkpt lat="43.405646" lon="11.3554094"><ele>454.0</ele><time>2026-04-26T13:24:57.075Z</time></trkpt><trkpt lat="43.4057333" lon="11.3554272"><ele>453.5</ele><time>2026-04-26T13:24:58.079Z</time></trkpt><trkpt lat="43.4058277" lon="11.3554756"><ele>453.0</ele><time>2026-04-26T13:24:59.069Z</time></trkpt><trkpt lat="43.4059266" lon="11.3555462"><ele>455.5</ele><time>2026-04-26T13:25:00.082Z</time></trkpt><trkpt lat="43.4060326" lon="11.3556353"><ele>458.0</ele><time>2026-04-26T13:25:01.067Z</time></trkpt><trkpt lat="43.4061485" lon="11.3557401"><ele>460.5</ele><time>2026-04-26T13:25:02.077Z</time></trkpt><trkpt lat="43.4062602" lon="11.3558452"><ele>463.0</ele><time>2026-04-26T13:25:03.075Z</time></trkpt><trkpt lat="43.4063577" lon="11.3559367"><ele>463.50000000000006</ele><time>2026-04-26T13:25:04.069Z</time></trkpt><trkpt lat="43.4064434" lon="11.3560054"><ele>464.0</ele><time>2026-04-26T13:25:05.072Z</time></trkpt><trkpt lat="43.4065165" lon="11.3560435"><ele>464.5</ele><time>2026-04-26T13:25:06.065Z</time></trkpt><trkpt lat="43.4065834" lon="11.3560429"><ele>465.0</ele><time>2026-04-26T13:25:07.07Z</time></trkpt><trkpt lat="43.4066408" lon="11.355998"><ele>465.50000000000006</ele><time>2026-04-26T13:25:08.056Z</time></trkpt><trkpt lat="43.4066819" lon="11.3559173"><ele>466.0</ele><time>2026-04-26T13:25:09.067Z</time></trkpt><trkpt lat="43.4066947" lon="11.3558179"><ele>466.0</ele><time>2026-04-26T13:25:10.062Z</time></trkpt><trkpt lat="43.4066849" lon="11.355711"><ele>466.0</ele><time>2026-04-26T13:25:11.076Z</time></trkpt><trkpt lat="43.4066605" lon="11.3555877"><ele>466.0</ele><time>2026-04-26T13:25:12.069Z</time></trkpt><trkpt lat="43.4066305" lon="11.3554446"><ele>466.0</ele><time>2026-04-26T13:25:13.078Z</time></trkpt><trkpt lat="43.4065987" lon="11.355291"><ele>466.0</ele><time>2026-04-26T13:25:14.082Z</time></trkpt><trkpt lat="43.4065756" lon="11.3551433"><ele>465.33333333333337</ele><time>2026-04-26T13:25:15.094Z</time></trkpt><trkpt lat="43.4065689" lon="11.3550141"><ele>464.6666666666667</ele><time>2026-04-26T13:25:16.08Z</time></trkpt><trkpt lat="43.4065775" lon="11.354895"><ele>464.0</ele><time>2026-04-26T13:25:17.089Z</time></trkpt><trkpt lat="43.4066064" lon="11.354793"><ele>463.33333333333337</ele><time>2026-04-26T13:25:18.081Z</time></trkpt><trkpt lat="43.4066576" lon="11.354709"><ele>462.6666666666667</ele><time>2026-04-26T13:25:19.101Z</time></trkpt><trkpt lat="43.4067267" lon="11.354636"><ele>462.0</ele><time>2026-04-26T13:25:20.085Z</time></trkpt><trkpt lat="43.4068121" lon="11.3545662"><ele>462.6</ele><time>2026-04-26T13:25:21.102Z</time></trkpt><trkpt lat="43.4069094" lon="11.3544939"><ele>463.20000000000005</ele><time>2026-04-26T13:25:22.095Z</time></trkpt><trkpt lat="43.4070123" lon="11.3544271"><ele>463.8</ele><time>2026-04-26T13:25:23.095Z</time></trkpt><trkpt lat="43.407114" lon="11.354384"><ele>464.4</ele><time>2026-04-26T13:25:24.087Z</time></trkpt><trkpt lat="43.4072133" lon="11.3543701"><ele>465.0</ele><time>2026-04-26T13:25:25.084Z</time></trkpt><trkpt lat="43.407304" lon="11.3543824"><ele>465.0</ele><time>2026-04-26T13:25:26.084Z</time></trkpt><trkpt lat="43.407386" lon="11.3544119"><ele>465.0</ele><time>2026-04-26T13:25:27.096Z</time></trkpt><trkpt lat="43.4074588" lon="11.3544312"><ele>465.0</ele><time>2026-04-26T13:25:28.096Z</time></trkpt><trkpt lat="43.4075244" lon="11.3544159"><ele>465.0</ele><time>2026-04-26T13:25:29.089Z</time></trkpt><trkpt lat="43.4075787" lon="11.3543623"><ele>465.0</ele><time>2026-04-26T13:25:30.092Z</time></trkpt><trkpt lat="43.4076234" lon="11.3542779"><ele>465.0</ele><time>2026-04-26T13:25:31.074Z</time></trkpt><trkpt lat="43.4076592" lon="11.3541653"><ele>465.0</ele><time>2026-04-26T13:25:32.081Z</time></trkpt><trkpt lat="43.40769" lon="11.3540421"><ele>465.0</ele><time>2026-04-26T13:25:33.071Z</time></trkpt><trkpt lat="43.4077273" lon="11.3539315"><ele>465.0</ele><time>2026-04-26T13:25:34.082Z</time></trkpt><trkpt lat="43.4077812" lon="11.3538467"><ele>465.0</ele><time>2026-04-26T13:25:35.085Z</time></trkpt><trkpt lat="43.4078541" lon="11.3537872"><ele>465.0</ele><time>2026-04-26T13:25:36.088Z</time></trkpt><trkpt lat="43.4079388" lon="11.3537603"><ele>465.0</ele><time>2026-04-26T13:25:37.092Z</time></trkpt><trkpt lat="43.4080245" lon="11.3537724"><ele>464.0</ele><time>2026-04-26T13:25:38.079Z</time></trkpt><trkpt lat="43.4081115" lon="11.3538195"><ele>463.0</ele><time>2026-04-26T13:25:39.089Z</time></trkpt><trkpt lat="43.408197" lon="11.353898"><ele>462.0</ele><time>2026-04-26T13:25:40.093Z</time></trkpt><trkpt lat="43.4082825" lon="11.3539908"><ele>461.0</ele><time>2026-04-26T13:25:41.075Z</time></trkpt><trkpt lat="43.4083639" lon="11.3540752"><ele>460.0</ele><time>2026-04-26T13:25:42.083Z</time></trkpt><trkpt lat="43.4084359" lon="11.3541338"><ele>460.00000000000006</ele><time>2026-04-26T13:25:43.072Z</time></trkpt><trkpt lat="43.4085061" lon="11.3541633"><ele>460.0</ele><time>2026-04-26T13:25:44.082Z</time></trkpt><trkpt lat="43.408577" lon="11.3541635"><ele>460.0</ele><time>2026-04-26T13:25:45.072Z</time></trkpt><trkpt lat="43.408643" lon="11.3541256"><ele>460.0</ele><time>2026-04-26T13:25:46.079Z</time></trkpt><trkpt lat="43.4086984" lon="11.3540476"><ele>460.00000000000006</ele><time>2026-04-26T13:25:47.083Z</time></trkpt><trkpt lat="43.4087416" lon="11.3539432"><ele>460.0</ele><time>2026-04-26T13:25:48.084Z</time></trkpt><trkpt lat="43.4087688" lon="11.3538156"><ele>460.0</ele><time>2026-04-26T13:25:49.086Z</time></trkpt><trkpt lat="43.4087848" lon="11.3536741"><ele>460.0</ele><time>2026-04-26T13:25:50.088Z</time></trkpt><trkpt lat="43.4087995" lon="11.353539"><ele>460.0</ele><time>2026-04-26T13:25:51.091Z</time></trkpt><trkpt lat="43.4088262" lon="11.3534241"><ele>460.0</ele><time>2026-04-26T13:25:52.08Z</time></trkpt><trkpt lat="43.4088785" lon="11.3533323"><ele>460.0</ele><time>2026-04-26T13:25:53.088Z</time></trkpt><trkpt lat="43.4089545" lon="11.3532689"><ele>461.6</ele><time>2026-04-26T13:25:54.084Z</time></trkpt><trkpt lat="43.4090435" lon="11.3532313"><ele>463.2</ele><time>2026-04-26T13:25:55.076Z</time></trkpt><trkpt lat="43.4091402" lon="11.3532138"><ele>464.79999999999995</ele><time>2026-04-26T13:25:56.076Z</time></trkpt><trkpt lat="43.4092424" lon="11.3532138"><ele>466.4</ele><time>2026-04-26T13:25:57.058Z</time></trkpt><trkpt lat="43.4093478" lon="11.3532331"><ele>468.0</ele><time>2026-04-26T13:25:58.061Z</time></trkpt><trkpt lat="43.4094464" lon="11.3532747"><ele>468.0</ele><time>2026-04-26T13:25:59.065Z</time></trkpt><trkpt lat="43.4095328" lon="11.3533229"><ele>468.0</ele><time>2026-04-26T13:26:00.067Z</time></trkpt><trkpt lat="43.4096111" lon="11.3533514"><ele>468.0</ele><time>2026-04-26T13:26:01.081Z</time></trkpt><trkpt lat="43.4096829" lon="11.353349"><ele>468.0</ele><time>2026-04-26T13:26:02.079Z</time></trkpt><trkpt lat="43.4097445" lon="11.3533136"><ele>468.0</ele><time>2026-04-26T13:26:03.068Z</time></trkpt><trkpt lat="43.4097895" lon="11.3532451"><ele>468.0</ele><time>2026-04-26T13:26:04.071Z</time></trkpt><trkpt lat="43.4098154" lon="11.3531507"><ele>468.2</ele><time>2026-04-26T13:26:05.065Z</time></trkpt><trkpt lat="43.4098278" lon="11.3530309"><ele>468.4</ele><time>2026-04-26T13:26:06.072Z</time></trkpt><trkpt lat="43.4098421" lon="11.3529055"><ele>468.59999999999997</ele><time>2026-04-26T13:26:07.073Z</time></trkpt><trkpt lat="43.4098756" lon="11.3527967"><ele>468.79999999999995</ele><time>2026-04-26T13:26:08.074Z</time></trkpt><trkpt lat="43.4099366" lon="11.3526939"><ele>469.0</ele><time>2026-04-26T13:26:09.078Z</time></trkpt><trkpt lat="43.4100163" lon="11.3525945"><ele>469.0</ele><time>2026-04-26T13:26:10.083Z</time></trkpt><trkpt lat="43.4100975" lon="11.3525039"><ele>469.0</ele><time>2026-04-26T13:26:11.074Z</time></trkpt><trkpt lat="43.4101654" lon="11.3524317"><ele>469.0</ele><time>2026-04-26T13:26:12.08Z</time></trkpt><trkpt lat="43.410263" lon="11.3523533"><ele>469.0</ele><time>2026-04-26T13:26:14.079Z</time></trkpt><trkpt lat="43.4103907" lon="11.3523251"><ele>469.0</ele><time>2026-04-26T13:26:16.078Z</time></trkpt><trkpt lat="43.4104772" lon="11.3523091"><ele>469.4</ele><time>2026-04-26T13:26:17.074Z</time></trkpt><trkpt lat="43.4105725" lon="11.3522847"><ele>469.79999999999995</ele><time>2026-04-26T13:26:18.077Z</time></trkpt><trkpt lat="43.4106729" lon="11.3522559"><ele>470.20000000000005</ele><time>2026-04-26T13:26:19.073Z</time></trkpt><trkpt lat="43.4107808" lon="11.3522241"><ele>470.6</ele><time>2026-04-26T13:26:20.067Z</time></trkpt><trkpt lat="43.4108981" lon="11.352191"><ele>471.0</ele><time>2026-04-26T13:26:21.071Z</time></trkpt><trkpt lat="43.4110191" lon="11.352154"><ele>471.0</ele><time>2026-04-26T13:26:22.062Z</time></trkpt><trkpt lat="43.4111445" lon="11.3521194"><ele>471.0</ele><time>2026-04-26T13:26:23.069Z</time></trkpt><trkpt lat="43.4112754" lon="11.3520922"><ele>471.0</ele><time>2026-04-26T13:26:24.076Z</time></trkpt><trkpt lat="43.4114098" lon="11.3520639"><ele>471.0</ele><time>2026-04-26T13:26:25.077Z</time></trkpt><trkpt lat="43.4115471" lon="11.3520306"><ele>470.0</ele><time>2026-04-26T13:26:26.066Z</time></trkpt><trkpt lat="43.4116878" lon="11.3519924"><ele>469.0</ele><time>2026-04-26T13:26:27.073Z</time></trkpt><trkpt lat="43.4118307" lon="11.3519519"><ele>468.0</ele><time>2026-04-26T13:26:28.081Z</time></trkpt><trkpt lat="43.4119772" lon="11.3519124"><ele>467.0</ele><time>2026-04-26T13:26:29.092Z</time></trkpt><trkpt lat="43.412126" lon="11.3518745"><ele>468.25</ele><time>2026-04-26T13:26:30.091Z</time></trkpt><trkpt lat="43.4122758" lon="11.3518399"><ele>469.5</ele><time>2026-04-26T13:26:31.08Z</time></trkpt><trkpt lat="43.412425" lon="11.3518056"><ele>470.75</ele><time>2026-04-26T13:26:32.088Z</time></trkpt><trkpt lat="43.4125689" lon="11.3517693"><ele>472.0</ele><time>2026-04-26T13:26:33.095Z</time></trkpt><trkpt lat="43.4127048" lon="11.3517214"><ele>472.0</ele><time>2026-04-26T13:26:34.091Z</time></trkpt><trkpt lat="43.4128294" lon="11.3516447"><ele>472.0</ele><time>2026-04-26T13:26:35.089Z</time></trkpt><trkpt lat="43.4129418" lon="11.3515364"><ele>472.0</ele><time>2026-04-26T13:26:36.072Z</time></trkpt><trkpt lat="43.4130503" lon="11.3514075"><ele>472.0</ele><time>2026-04-26T13:26:37.089Z</time></trkpt><trkpt lat="43.4131564" lon="11.3512712"><ele>474.0</ele><time>2026-04-26T13:26:38.077Z</time></trkpt><trkpt lat="43.4132619" lon="11.3511268"><ele>476.0</ele><time>2026-04-26T13:26:39.096Z</time></trkpt><trkpt lat="43.4133656" lon="11.3509835"><ele>478.0</ele><time>2026-04-26T13:26:40.096Z</time></trkpt><trkpt lat="43.4134683" lon="11.3508405"><ele>480.0</ele><time>2026-04-26T13:26:41.085Z</time></trkpt><trkpt lat="43.413569" lon="11.350699"><ele>480.0</ele><time>2026-04-26T13:26:42.076Z</time></trkpt><trkpt lat="43.4136657" lon="11.3505687"><ele>480.0</ele><time>2026-04-26T13:26:43.08Z</time></trkpt><trkpt lat="43.4137568" lon="11.3504601"><ele>480.0</ele><time>2026-04-26T13:26:44.079Z</time></trkpt><trkpt lat="43.4138527" lon="11.3503826"><ele>480.0</ele><time>2026-04-26T13:26:45.069Z</time></trkpt><trkpt lat="43.4139632" lon="11.3503495"><ele>483.5</ele><time>2026-04-26T13:26:46.072Z</time></trkpt><trkpt lat="43.4140838" lon="11.3503654"><ele>487.0</ele><time>2026-04-26T13:26:47.056Z</time></trkpt><trkpt lat="43.4142021" lon="11.3504141"><ele>490.5</ele><time>2026-04-26T13:26:48.061Z</time></trkpt><trkpt lat="43.4143062" lon="11.3504683"><ele>494.0</ele><time>2026-04-26T13:26:49.068Z</time></trkpt><trkpt lat="43.4144005" lon="11.3504916"><ele>494.0</ele><time>2026-04-26T13:26:50.08Z</time></trkpt><trkpt lat="43.414489" lon="11.350461"><ele>494.0</ele><time>2026-04-26T13:26:51.084Z</time></trkpt><trkpt lat="43.414562" lon="11.3503801"><ele>494.0</ele><time>2026-04-26T13:26:52.089Z</time></trkpt><trkpt lat="43.414605" lon="11.3502617"><ele>494.0</ele><time>2026-04-26T13:26:53.091Z</time></trkpt><trkpt lat="43.4146214" lon="11.35011"><ele>494.0</ele><time>2026-04-26T13:26:54.094Z</time></trkpt><trkpt lat="43.4146247" lon="11.349924"><ele>494.0</ele><time>2026-04-26T13:26:55.105Z</time></trkpt><trkpt lat="43.4146262" lon="11.3497189"><ele>494.0</ele><time>2026-04-26T13:26:56.078Z</time></trkpt><trkpt lat="43.4146365" lon="11.3495151"><ele>494.0</ele><time>2026-04-26T13:26:57.086Z</time></trkpt><trkpt lat="43.4146732" lon="11.3493386"><ele>494.0</ele><time>2026-04-26T13:26:58.071Z</time></trkpt><trkpt lat="43.4147482" lon="11.3491806"><ele>493.25</ele><time>2026-04-26T13:26:59.074Z</time></trkpt><trkpt lat="43.4148579" lon="11.3490416"><ele>492.5</ele><time>2026-04-26T13:27:00.086Z</time></trkpt><trkpt lat="43.4149837" lon="11.3489297"><ele>491.75</ele><time>2026-04-26T13:27:01.086Z</time></trkpt><trkpt lat="43.4151085" lon="11.3488553"><ele>491.0</ele><time>2026-04-26T13:27:02.067Z</time></trkpt><trkpt lat="43.4152325" lon="11.3488245"><ele>490.75</ele><time>2026-04-26T13:27:03.071Z</time></trkpt><trkpt lat="43.4153628" lon="11.3488457"><ele>490.5</ele><time>2026-04-26T13:27:04.08Z</time></trkpt><trkpt lat="43.4154991" lon="11.3488952"><ele>490.25</ele><time>2026-04-26T13:27:05.081Z</time></trkpt><trkpt lat="43.4156362" lon="11.3489329"><ele>490.0</ele><time>2026-04-26T13:27:06.071Z</time></trkpt><trkpt lat="43.4157813" lon="11.3489332"><ele>490.0</ele><time>2026-04-26T13:27:07.078Z</time></trkpt><trkpt lat="43.4159363" lon="11.3489029"><ele>490.0</ele><time>2026-04-26T13:27:08.07Z</time></trkpt><trkpt lat="43.4160997" lon="11.3488678"><ele>490.0</ele><time>2026-04-26T13:27:09.079Z</time></trkpt><trkpt lat="43.4162613" lon="11.3488386"><ele>493.75</ele><time>2026-04-26T13:27:10.071Z</time></trkpt><trkpt lat="43.4164127" lon="11.3488169"><ele>497.5</ele><time>2026-04-26T13:27:11.069Z</time></trkpt><trkpt lat="43.4165502" lon="11.3487961"><ele>501.25</ele><time>2026-04-26T13:27:12.063Z</time></trkpt><trkpt lat="43.4166833" lon="11.3487768"><ele>505.0</ele><time>2026-04-26T13:27:13.07Z</time></trkpt><trkpt lat="43.4168176" lon="11.3487588"><ele>505.0</ele><time>2026-04-26T13:27:14.08Z</time></trkpt><trkpt lat="43.4169481" lon="11.3487217"><ele>505.0</ele><time>2026-04-26T13:27:15.083Z</time></trkpt><trkpt lat="43.417064" lon="11.3486478"><ele>505.0</ele><time>2026-04-26T13:27:16.089Z</time></trkpt><trkpt lat="43.4171503" lon="11.3485441"><ele>505.0</ele><time>2026-04-26T13:27:17.076Z</time></trkpt><trkpt lat="43.4171994" lon="11.3484251"><ele>506.5</ele><time>2026-04-26T13:27:18.084Z</time></trkpt><trkpt lat="43.4172089" lon="11.3482976"><ele>508.0</ele><time>2026-04-26T13:27:19.093Z</time></trkpt><trkpt lat="43.4171847" lon="11.3481518"><ele>509.5</ele><time>2026-04-26T13:27:20.095Z</time></trkpt><trkpt lat="43.4171464" lon="11.3479826"><ele>511.0</ele><time>2026-04-26T13:27:21.099Z</time></trkpt><trkpt lat="43.4171209" lon="11.3478026"><ele>511.0</ele><time>2026-04-26T13:27:22.107Z</time></trkpt><trkpt lat="43.4171197" lon="11.3476328"><ele>511.0</ele><time>2026-04-26T13:27:23.114Z</time></trkpt><trkpt lat="43.4171463" lon="11.3474799"><ele>511.0</ele><time>2026-04-26T13:27:24.082Z</time></trkpt><trkpt lat="43.4172085" lon="11.3473398"><ele>511.0</ele><time>2026-04-26T13:27:25.107Z</time></trkpt><trkpt lat="43.4172999" lon="11.3472192"><ele>511.0</ele><time>2026-04-26T13:27:26.109Z</time></trkpt><trkpt lat="43.4174111" lon="11.3471047"><ele>511.0</ele><time>2026-04-26T13:27:27.093Z</time></trkpt><trkpt lat="43.4175318" lon="11.3469909"><ele>511.0</ele><time>2026-04-26T13:27:28.108Z</time></trkpt><trkpt lat="43.4176557" lon="11.3468803"><ele>511.0</ele><time>2026-04-26T13:27:29.106Z</time></trkpt><trkpt lat="43.4177903" lon="11.3467735"><ele>511.0</ele><time>2026-04-26T13:27:30.079Z</time></trkpt><trkpt lat="43.4179395" lon="11.3466775"><ele>511.0</ele><time>2026-04-26T13:27:31.1Z</time></trkpt><trkpt lat="43.4180952" lon="11.3466015"><ele>511.0</ele><time>2026-04-26T13:27:32.097Z</time></trkpt><trkpt lat="43.4182557" lon="11.3465459"><ele>508.5</ele><time>2026-04-26T13:27:33.088Z</time></trkpt><trkpt lat="43.4184143" lon="11.346508"><ele>506.0</ele><time>2026-04-26T13:27:34.089Z</time></trkpt><trkpt lat="43.4185608" lon="11.3464861"><ele>503.5</ele><time>2026-04-26T13:27:35.074Z</time></trkpt><trkpt lat="43.4186964" lon="11.3464812"><ele>501.0</ele><time>2026-04-26T13:27:36.066Z</time></trkpt><trkpt lat="43.4188219" lon="11.3465084"><ele>501.0</ele><time>2026-04-26T13:27:37.074Z</time></trkpt><trkpt lat="43.4189385" lon="11.3465746"><ele>501.0</ele><time>2026-04-26T13:27:38.081Z</time></trkpt><trkpt lat="43.4190526" lon="11.3466664"><ele>501.0</ele><time>2026-04-26T13:27:39.091Z</time></trkpt><trkpt lat="43.419162" lon="11.3467605"><ele>501.0</ele><time>2026-04-26T13:27:40.099Z</time></trkpt><trkpt lat="43.4192656" lon="11.3468444"><ele>501.0</ele><time>2026-04-26T13:27:41.104Z</time></trkpt><trkpt lat="43.4193651" lon="11.3469165"><ele>501.0</ele><time>2026-04-26T13:27:42.089Z</time></trkpt><trkpt lat="43.419465" lon="11.3469701"><ele>501.0</ele><time>2026-04-26T13:27:43.113Z</time></trkpt><trkpt lat="43.4195622" lon="11.3469972"><ele>501.0</ele><time>2026-04-26T13:27:44.09Z</time></trkpt><trkpt lat="43.4196641" lon="11.3470005"><ele>501.0</ele><time>2026-04-26T13:27:45.099Z</time></trkpt><trkpt lat="43.4197738" lon="11.3469907"><ele>502.5</ele><time>2026-04-26T13:27:46.093Z</time></trkpt><trkpt lat="43.4198929" lon="11.3469802"><ele>504.0</ele><time>2026-04-26T13:27:47.103Z</time></trkpt><trkpt lat="43.4200156" lon="11.3469906"><ele>505.5</ele><time>2026-04-26T13:27:48.085Z</time></trkpt><trkpt lat="43.4201367" lon="11.347033"><ele>507.0</ele><time>2026-04-26T13:27:49.091Z</time></trkpt><trkpt lat="43.4202465" lon="11.3470945"><ele>507.0</ele><time>2026-04-26T13:27:50.083Z</time></trkpt><trkpt lat="43.4203459" lon="11.3471652"><ele>507.00000000000006</ele><time>2026-04-26T13:27:51.095Z</time></trkpt><trkpt lat="43.4204372" lon="11.3472333"><ele>507.00000000000006</ele><time>2026-04-26T13:27:52.083Z</time></trkpt><trkpt lat="43.4205298" lon="11.3472752"><ele>507.0</ele><time>2026-04-26T13:27:53.086Z</time></trkpt><trkpt lat="43.4206292" lon="11.3472842"><ele>507.0</ele><time>2026-04-26T13:27:54.078Z</time></trkpt><trkpt lat="43.4207389" lon="11.3472802"><ele>505.8</ele><time>2026-04-26T13:27:55.088Z</time></trkpt><trkpt lat="43.4208507" lon="11.3472788"><ele>504.6</ele><time>2026-04-26T13:27:56.088Z</time></trkpt><trkpt lat="43.4209566" lon="11.3472914"><ele>503.40000000000003</ele><time>2026-04-26T13:27:57.088Z</time></trkpt><trkpt lat="43.421052" lon="11.3473148"><ele>502.20000000000005</ele><time>2026-04-26T13:27:58.08Z</time></trkpt><trkpt lat="43.4211373" lon="11.3473481"><ele>501.0</ele><time>2026-04-26T13:27:59.089Z</time></trkpt><trkpt lat="43.421211" lon="11.3473898"><ele>501.0</ele><time>2026-04-26T13:28:00.078Z</time></trkpt><trkpt lat="43.4212742" lon="11.347444"><ele>501.0</ele><time>2026-04-26T13:28:01.091Z</time></trkpt><trkpt lat="43.421325" lon="11.3475102"><ele>501.0</ele><time>2026-04-26T13:28:02.098Z</time></trkpt><trkpt lat="43.4213626" lon="11.3475882"><ele>501.0</ele><time>2026-04-26T13:28:03.08Z</time></trkpt><trkpt lat="43.4213867" lon="11.3476818"><ele>501.0</ele><time>2026-04-26T13:28:04.1Z</time></trkpt><trkpt lat="43.4213964" lon="11.3477929"><ele>501.0</ele><time>2026-04-26T13:28:05.112Z</time></trkpt><trkpt lat="43.4213974" lon="11.3479253"><ele>501.75</ele><time>2026-04-26T13:28:06.094Z</time></trkpt><trkpt lat="43.4213939" lon="11.348081"><ele>502.5</ele><time>2026-04-26T13:28:07.106Z</time></trkpt><trkpt lat="43.421382" lon="11.3482489"><ele>503.25</ele><time>2026-04-26T13:28:08.086Z</time></trkpt><trkpt lat="43.4213573" lon="11.3484204"><ele>504.0</ele><time>2026-04-26T13:28:09.092Z</time></trkpt><trkpt lat="43.4213322" lon="11.3485871"><ele>504.0</ele><time>2026-04-26T13:28:10.095Z</time></trkpt><trkpt lat="43.421316" lon="11.3487609"><ele>504.0</ele><time>2026-04-26T13:28:11.095Z</time></trkpt><trkpt lat="43.4213088" lon="11.3489426"><ele>504.0</ele><time>2026-04-26T13:28:12.083Z</time></trkpt><trkpt lat="43.4213099" lon="11.3491177"><ele>504.0</ele><time>2026-04-26T13:28:13.09Z</time></trkpt><trkpt lat="43.4213187" lon="11.3492685"><ele>502.79999999999995</ele><time>2026-04-26T13:28:14.085Z</time></trkpt><trkpt lat="43.4213403" lon="11.349395"><ele>501.59999999999997</ele><time>2026-04-26T13:28:15.095Z</time></trkpt><trkpt lat="43.4213855" lon="11.3494956"><ele>500.4</ele><time>2026-04-26T13:28:16.092Z</time></trkpt><trkpt lat="43.4214589" lon="11.3495588"><ele>499.2</ele><time>2026-04-26T13:28:17.083Z</time></trkpt><trkpt lat="43.4215522" lon="11.3495706"><ele>498.0</ele><time>2026-04-26T13:28:18.081Z</time></trkpt><trkpt lat="43.421652" lon="11.3495511"><ele>498.0</ele><time>2026-04-26T13:28:19.088Z</time></trkpt><trkpt lat="43.4217423" lon="11.3495275"><ele>497.99999999999994</ele><time>2026-04-26T13:28:20.076Z</time></trkpt><trkpt lat="43.4218308" lon="11.3495201"><ele>497.99999999999994</ele><time>2026-04-26T13:28:21.076Z</time></trkpt><trkpt lat="43.4219212" lon="11.3495461"><ele>498.0</ele><time>2026-04-26T13:28:22.077Z</time></trkpt><trkpt lat="43.422009" lon="11.3496064"><ele>498.0</ele><time>2026-04-26T13:28:23.065Z</time></trkpt><trkpt lat="43.4220924" lon="11.3496916"><ele>495.2</ele><time>2026-04-26T13:28:24.072Z</time></trkpt><trkpt lat="43.4221691" lon="11.349781"><ele>492.4</ele><time>2026-04-26T13:28:25.062Z</time></trkpt><trkpt lat="43.4222516" lon="11.3498651"><ele>489.59999999999997</ele><time>2026-04-26T13:28:26.066Z</time></trkpt><trkpt lat="43.4223468" lon="11.3499407"><ele>486.79999999999995</ele><time>2026-04-26T13:28:27.055Z</time></trkpt><trkpt lat="43.4224528" lon="11.3500125"><ele>484.0</ele><time>2026-04-26T13:28:28.073Z</time></trkpt><trkpt lat="43.4225541" lon="11.3500764"><ele>484.00000000000006</ele><time>2026-04-26T13:28:29.065Z</time></trkpt><trkpt lat="43.4226407" lon="11.3501486"><ele>484.0</ele><time>2026-04-26T13:28:30.068Z</time></trkpt><trkpt lat="43.4227142" lon="11.3502315"><ele>484.0</ele><time>2026-04-26T13:28:31.077Z</time></trkpt><trkpt lat="43.4227725" lon="11.3503197"><ele>484.0</ele><time>2026-04-26T13:28:32.081Z</time></trkpt><trkpt lat="43.4228101" lon="11.3504198"><ele>484.00000000000006</ele><time>2026-04-26T13:28:33.068Z</time></trkpt><trkpt lat="43.4228373" lon="11.3505169"><ele>484.0</ele><time>2026-04-26T13:28:34.081Z</time></trkpt><trkpt lat="43.4229011" lon="11.3506462"><ele>482.4</ele><time>2026-04-26T13:28:36.082Z</time></trkpt><trkpt lat="43.4230025" lon="11.3506494"><ele>480.79999999999995</ele><time>2026-04-26T13:28:38.082Z</time></trkpt><trkpt lat="43.4230633" lon="11.3506041"><ele>479.20000000000005</ele><time>2026-04-26T13:28:39.077Z</time></trkpt><trkpt lat="43.4231348" lon="11.3505266"><ele>477.6</ele><time>2026-04-26T13:28:40.084Z</time></trkpt><trkpt lat="43.423227" lon="11.3504354"><ele>476.0</ele><time>2026-04-26T13:28:41.087Z</time></trkpt><trkpt lat="43.4233329" lon="11.3503577"><ele>476.0</ele><time>2026-04-26T13:28:42.07Z</time></trkpt><trkpt lat="43.4234494" lon="11.3502975"><ele>476.0</ele><time>2026-04-26T13:28:43.082Z</time></trkpt><trkpt lat="43.4235697" lon="11.3502465"><ele>476.0</ele><time>2026-04-26T13:28:44.084Z</time></trkpt><trkpt lat="43.4236748" lon="11.3502082"><ele>476.0</ele><time>2026-04-26T13:28:45.079Z</time></trkpt><trkpt lat="43.4237652" lon="11.3501957"><ele>473.99999999999994</ele><time>2026-04-26T13:28:46.095Z</time></trkpt><trkpt lat="43.4238603" lon="11.3502096"><ele>472.0</ele><time>2026-04-26T13:28:47.071Z</time></trkpt><trkpt lat="43.4239435" lon="11.3502484"><ele>470.0</ele><time>2026-04-26T13:28:48.081Z</time></trkpt><trkpt lat="43.4239884" lon="11.3503201"><ele>468.0</ele><time>2026-04-26T13:28:49.075Z</time></trkpt><trkpt lat="43.4240105" lon="11.3504219"><ele>465.99999999999994</ele><time>2026-04-26T13:28:50.077Z</time></trkpt><trkpt lat="43.4240159" lon="11.3505574"><ele>464.0</ele><time>2026-04-26T13:28:51.09Z</time></trkpt><trkpt lat="43.4240118" lon="11.3507278"><ele>461.25</ele><time>2026-04-26T13:28:52.096Z</time></trkpt><trkpt lat="43.4240037" lon="11.3509127"><ele>458.5</ele><time>2026-04-26T13:28:53.085Z</time></trkpt><trkpt lat="43.4239875" lon="11.3510965"><ele>455.75</ele><time>2026-04-26T13:28:54.092Z</time></trkpt><trkpt lat="43.4239537" lon="11.3512816"><ele>453.0</ele><time>2026-04-26T13:28:55.09Z</time></trkpt><trkpt lat="43.4239056" lon="11.3514649"><ele>452.75</ele><time>2026-04-26T13:28:56.088Z</time></trkpt><trkpt lat="43.4238529" lon="11.3516348"><ele>452.5</ele><time>2026-04-26T13:28:57.083Z</time></trkpt><trkpt lat="43.4238019" lon="11.3517848"><ele>452.25</ele><time>2026-04-26T13:28:58.085Z</time></trkpt><trkpt lat="43.4237561" lon="11.3519237"><ele>452.0</ele><time>2026-04-26T13:28:59.093Z</time></trkpt><trkpt lat="43.4237221" lon="11.3520568"><ele>451.0</ele><time>2026-04-26T13:29:00.082Z</time></trkpt><trkpt lat="43.4237026" lon="11.3521956"><ele>450.0</ele><time>2026-04-26T13:29:01.092Z</time></trkpt><trkpt lat="43.4236976" lon="11.3523508"><ele>449.0</ele><time>2026-04-26T13:29:02.104Z</time></trkpt><trkpt lat="43.4237062" lon="11.3525231"><ele>448.0</ele><time>2026-04-26T13:29:03.11Z</time></trkpt><trkpt lat="43.4237244" lon="11.3527114"><ele>447.75</ele><time>2026-04-26T13:29:04.099Z</time></trkpt><trkpt lat="43.423749" lon="11.3529123"><ele>447.5</ele><time>2026-04-26T13:29:05.1Z</time></trkpt><trkpt lat="43.4237764" lon="11.3531139"><ele>447.25</ele><time>2026-04-26T13:29:06.101Z</time></trkpt><trkpt lat="43.4238006" lon="11.3533055"><ele>447.0</ele><time>2026-04-26T13:29:07.084Z</time></trkpt><trkpt lat="43.423821" lon="11.3534895"><ele>447.0</ele><time>2026-04-26T13:29:08.094Z</time></trkpt><trkpt lat="43.4238376" lon="11.3536588"><ele>447.00000000000006</ele><time>2026-04-26T13:29:09.096Z</time></trkpt><trkpt lat="43.4238515" lon="11.3538116"><ele>447.00000000000006</ele><time>2026-04-26T13:29:10.092Z</time></trkpt><trkpt lat="43.423866" lon="11.3539499"><ele>447.0</ele><time>2026-04-26T13:29:11.089Z</time></trkpt><trkpt lat="43.4238842" lon="11.3540763"><ele>447.0</ele><time>2026-04-26T13:29:12.075Z</time></trkpt><trkpt lat="43.4239102" lon="11.3541935"><ele>444.6</ele><time>2026-04-26T13:29:13.078Z</time></trkpt><trkpt lat="43.4239503" lon="11.3543047"><ele>442.20000000000005</ele><time>2026-04-26T13:29:14.078Z</time></trkpt><trkpt lat="43.4240019" lon="11.354415"><ele>439.8</ele><time>2026-04-26T13:29:15.069Z</time></trkpt><trkpt lat="43.4240611" lon="11.354528"><ele>437.4</ele><time>2026-04-26T13:29:16.084Z</time></trkpt><trkpt lat="43.4241215" lon="11.3546298"><ele>435.0</ele><time>2026-04-26T13:29:17.09Z</time></trkpt><trkpt lat="43.4241841" lon="11.3547142"><ele>431.0</ele><time>2026-04-26T13:29:18.089Z</time></trkpt><trkpt lat="43.42426" lon="11.3547786"><ele>427.0</ele><time>2026-04-26T13:29:19.103Z</time></trkpt><trkpt lat="43.4243628" lon="11.3548193"><ele>423.0</ele><time>2026-04-26T13:29:20.094Z</time></trkpt><trkpt lat="43.4244919" lon="11.35484"><ele>419.0</ele><time>2026-04-26T13:29:21.111Z</time></trkpt><trkpt lat="43.4246248" lon="11.3548514"><ele>420.0</ele><time>2026-04-26T13:29:22.095Z</time></trkpt><trkpt lat="43.4247462" lon="11.354859"><ele>421.0</ele><time>2026-04-26T13:29:23.097Z</time></trkpt><trkpt lat="43.4248498" lon="11.3548618"><ele>422.0</ele><time>2026-04-26T13:29:24.1Z</time></trkpt><trkpt lat="43.4249315" lon="11.3548479"><ele>423.0</ele><time>2026-04-26T13:29:25.09Z</time></trkpt><trkpt lat="43.4249911" lon="11.3547969"><ele>424.0</ele><time>2026-04-26T13:29:26.099Z</time></trkpt><trkpt lat="43.4250245" lon="11.3547032"><ele>424.2</ele><time>2026-04-26T13:29:27.085Z</time></trkpt><trkpt lat="43.4250457" lon="11.3545883"><ele>424.4</ele><time>2026-04-26T13:29:28.089Z</time></trkpt><trkpt lat="43.4250868" lon="11.3544971"><ele>424.6</ele><time>2026-04-26T13:29:29.082Z</time></trkpt><trkpt lat="43.4251653" lon="11.3544456"><ele>424.8</ele><time>2026-04-26T13:29:30.075Z</time></trkpt><trkpt lat="43.425279" lon="11.3544224"><ele>425.0</ele><time>2026-04-26T13:29:31.084Z</time></trkpt><trkpt lat="43.4254044" lon="11.3544138"><ele>420.5</ele><time>2026-04-26T13:29:32.094Z</time></trkpt><trkpt lat="43.4255145" lon="11.3543917"><ele>416.0</ele><time>2026-04-26T13:29:33.082Z</time></trkpt><trkpt lat="43.4256055" lon="11.3543213"><ele>411.5</ele><time>2026-04-26T13:29:34.088Z</time></trkpt><trkpt lat="43.4256833" lon="11.3541913"><ele>407.0</ele><time>2026-04-26T13:29:35.083Z</time></trkpt><trkpt lat="43.4257469" lon="11.3540203"><ele>405.0</ele><time>2026-04-26T13:29:36.086Z</time></trkpt><trkpt lat="43.4257878" lon="11.3538413"><ele>403.0</ele><time>2026-04-26T13:29:37.068Z</time></trkpt><trkpt lat="43.4257981" lon="11.3536523"><ele>401.0</ele><time>2026-04-26T13:29:38.074Z</time></trkpt><trkpt lat="43.4257843" lon="11.3534649"><ele>399.0</ele><time>2026-04-26T13:29:39.064Z</time></trkpt><trkpt lat="43.4257681" lon="11.3532954"><ele>399.0</ele><time>2026-04-26T13:29:40.08Z</time></trkpt><trkpt lat="43.4257612" lon="11.353145"><ele>399.0</ele><time>2026-04-26T13:29:41.082Z</time></trkpt><trkpt lat="43.4257621" lon="11.3530072"><ele>399.0</ele><time>2026-04-26T13:29:42.083Z</time></trkpt><trkpt lat="43.4257688" lon="11.3528705"><ele>399.0</ele><time>2026-04-26T13:29:43.09Z</time></trkpt><trkpt lat="43.4257823" lon="11.3527213"><ele>399.0</ele><time>2026-04-26T13:29:44.081Z</time></trkpt><trkpt lat="43.4258111" lon="11.3525622"><ele>399.4</ele><time>2026-04-26T13:29:45.087Z</time></trkpt><trkpt lat="43.4258476" lon="11.3524157"><ele>399.79999999999995</ele><time>2026-04-26T13:29:46.098Z</time></trkpt><trkpt lat="43.4258874" lon="11.3522915"><ele>400.20000000000005</ele><time>2026-04-26T13:29:47.088Z</time></trkpt><trkpt lat="43.4259381" lon="11.3521773"><ele>400.6</ele><time>2026-04-26T13:29:48.086Z</time></trkpt><trkpt lat="43.4260056" lon="11.3520753"><ele>401.0</ele><time>2026-04-26T13:29:49.09Z</time></trkpt><trkpt lat="43.4260927" lon="11.3519909"><ele>402.25</ele><time>2026-04-26T13:29:50.083Z</time></trkpt><trkpt lat="43.4261989" lon="11.3519086"><ele>403.5</ele><time>2026-04-26T13:29:51.084Z</time></trkpt><trkpt lat="43.4263092" lon="11.3518121"><ele>404.75</ele><time>2026-04-26T13:29:52.084Z</time></trkpt><trkpt lat="43.4264105" lon="11.3517061"><ele>406.0</ele><time>2026-04-26T13:29:53.089Z</time></trkpt><trkpt lat="43.4264998" lon="11.3515954"><ele>403.0</ele><time>2026-04-26T13:29:54.072Z</time></trkpt><trkpt lat="43.4265804" lon="11.3514714"><ele>400.0</ele><time>2026-04-26T13:29:55.075Z</time></trkpt><trkpt lat="43.4266516" lon="11.3513274"><ele>397.0</ele><time>2026-04-26T13:29:56.081Z</time></trkpt><trkpt lat="43.4267166" lon="11.3511752"><ele>394.0</ele><time>2026-04-26T13:29:57.074Z</time></trkpt><trkpt lat="43.4267782" lon="11.3510296"><ele>394.0</ele><time>2026-04-26T13:29:58.085Z</time></trkpt><trkpt lat="43.4268369" lon="11.3508958"><ele>394.0</ele><time>2026-04-26T13:29:59.083Z</time></trkpt><trkpt lat="43.4268891" lon="11.3507741"><ele>394.0</ele><time>2026-04-26T13:30:00.07Z</time></trkpt><trkpt lat="43.4269343" lon="11.3506687"><ele>394.0</ele><time>2026-04-26T13:30:01.078Z</time></trkpt><trkpt lat="43.4269857" lon="11.350584"><ele>394.0</ele><time>2026-04-26T13:30:02.07Z</time></trkpt><trkpt lat="43.427058" lon="11.3505114"><ele>390.0</ele><time>2026-04-26T13:30:03.064Z</time></trkpt><trkpt lat="43.427163" lon="11.350452"><ele>386.0</ele><time>2026-04-26T13:30:04.059Z</time></trkpt><trkpt lat="43.4273073" lon="11.3503982"><ele>382.0</ele><time>2026-04-26T13:30:05.072Z</time></trkpt><trkpt lat="43.427481" lon="11.3503406"><ele>378.0</ele><time>2026-04-26T13:30:06.079Z</time></trkpt><trkpt lat="43.4276609" lon="11.3502646"><ele>378.0</ele><time>2026-04-26T13:30:07.087Z</time></trkpt><trkpt lat="43.4278236" lon="11.3501747"><ele>378.0</ele><time>2026-04-26T13:30:08.088Z</time></trkpt><trkpt lat="43.4279689" lon="11.3500899"><ele>378.0</ele><time>2026-04-26T13:30:09.076Z</time></trkpt><trkpt lat="43.4281027" lon="11.3500323"><ele>377.75</ele><time>2026-04-26T13:30:10.086Z</time></trkpt><trkpt lat="43.428231" lon="11.3500116"><ele>377.5</ele><time>2026-04-26T13:30:11.088Z</time></trkpt><trkpt lat="43.4283541" lon="11.350015"><ele>377.25</ele><time>2026-04-26T13:30:12.08Z</time></trkpt><trkpt lat="43.428467" lon="11.3500443"><ele>377.0</ele><time>2026-04-26T13:30:13.089Z</time></trkpt><trkpt lat="43.4285808" lon="11.3501086"><ele>377.0</ele><time>2026-04-26T13:30:14.105Z</time></trkpt><trkpt lat="43.4287028" lon="11.3502043"><ele>377.0</ele><time>2026-04-26T13:30:15.113Z</time></trkpt><trkpt lat="43.4288376" lon="11.3503134"><ele>377.0</ele><time>2026-04-26T13:30:16.095Z</time></trkpt><trkpt lat="43.4289918" lon="11.3504256"><ele>375.6666666666667</ele><time>2026-04-26T13:30:17.096Z</time></trkpt><trkpt lat="43.4291581" lon="11.3505434"><ele>374.3333333333333</ele><time>2026-04-26T13:30:18.095Z</time></trkpt><trkpt lat="43.4293191" lon="11.3506614"><ele>373.0</ele><time>2026-04-26T13:30:19.076Z</time></trkpt><trkpt lat="43.4294577" lon="11.3507629"><ele>373.0</ele><time>2026-04-26T13:30:20.09Z</time></trkpt><trkpt lat="43.4295726" lon="11.3508337"><ele>373.0</ele><time>2026-04-26T13:30:21.098Z</time></trkpt><trkpt lat="43.4296808" lon="11.3508763"><ele>373.0</ele><time>2026-04-26T13:30:22.083Z</time></trkpt><trkpt lat="43.4298048" lon="11.3508871"><ele>373.0</ele><time>2026-04-26T13:30:23.102Z</time></trkpt><trkpt lat="43.4299444" lon="11.3508717"><ele>375.0</ele><time>2026-04-26T13:30:24.106Z</time></trkpt><trkpt lat="43.4300992" lon="11.350856"><ele>377.0</ele><time>2026-04-26T13:30:25.093Z</time></trkpt><trkpt lat="43.4302704" lon="11.3508539"><ele>379.0</ele><time>2026-04-26T13:30:26.089Z</time></trkpt><trkpt lat="43.4304539" lon="11.3508672"><ele>380.0</ele><time>2026-04-26T13:30:27.081Z</time></trkpt><trkpt lat="43.4306323" lon="11.350884"><ele>381.0</ele><time>2026-04-26T13:30:28.089Z</time></trkpt><trkpt lat="43.4307915" lon="11.3508863"><ele>382.0</ele><time>2026-04-26T13:30:29.081Z</time></trkpt><trkpt lat="43.4309436" lon="11.3508545"><ele>382.0</ele><time>2026-04-26T13:30:30.088Z</time></trkpt><trkpt lat="43.4310955" lon="11.3507841"><ele>382.0</ele><time>2026-04-26T13:30:31.091Z</time></trkpt><trkpt lat="43.4312338" lon="11.3507082"><ele>382.0</ele><time>2026-04-26T13:30:32.094Z</time></trkpt><trkpt lat="43.4313362" lon="11.350673"><ele>382.0</ele><time>2026-04-26T13:30:33.098Z</time></trkpt><trkpt lat="43.4314137" lon="11.3506877"><ele>384.8</ele><time>2026-04-26T13:30:34.086Z</time></trkpt><trkpt lat="43.4314765" lon="11.3507405"><ele>387.6</ele><time>2026-04-26T13:30:35.09Z</time></trkpt><trkpt lat="43.4315322" lon="11.3508198"><ele>390.40000000000003</ele><time>2026-04-26T13:30:36.1Z</time></trkpt><trkpt lat="43.4315952" lon="11.3509257"><ele>393.20000000000005</ele><time>2026-04-26T13:30:37.084Z</time></trkpt><trkpt lat="43.4316741" lon="11.351045"><ele>396.0</ele><time>2026-04-26T13:30:38.099Z</time></trkpt><trkpt lat="43.4317642" lon="11.3511489"><ele>396.0</ele><time>2026-04-26T13:30:39.09Z</time></trkpt><trkpt lat="43.4318538" lon="11.3512306"><ele>396.0</ele><time>2026-04-26T13:30:40.086Z</time></trkpt><trkpt lat="43.4319406" lon="11.3512882"><ele>396.0</ele><time>2026-04-26T13:30:41.083Z</time></trkpt><trkpt lat="43.4320353" lon="11.3513242"><ele>396.0</ele><time>2026-04-26T13:30:42.092Z</time></trkpt><trkpt lat="43.4321543" lon="11.3513496"><ele>396.0</ele><time>2026-04-26T13:30:43.082Z</time></trkpt><trkpt lat="43.4322937" lon="11.351375"><ele>394.5</ele><time>2026-04-26T13:30:44.086Z</time></trkpt><trkpt lat="43.4324277" lon="11.3513978"><ele>393.0</ele><time>2026-04-26T13:30:45.085Z</time></trkpt><trkpt lat="43.4325534" lon="11.3514127"><ele>391.5</ele><time>2026-04-26T13:30:46.082Z</time></trkpt><trkpt lat="43.4326689" lon="11.3514096"><ele>390.0</ele><time>2026-04-26T13:30:47.086Z</time></trkpt><trkpt lat="43.4327801" lon="11.3513786"><ele>392.33333333333337</ele><time>2026-04-26T13:30:48.09Z</time></trkpt><trkpt lat="43.4328977" lon="11.3513049"><ele>394.6666666666667</ele><time>2026-04-26T13:30:49.08Z</time></trkpt><trkpt lat="43.4330349" lon="11.3512021"><ele>397.0</ele><time>2026-04-26T13:30:50.081Z</time></trkpt><trkpt lat="43.4331838" lon="11.3510841"><ele>389.0</ele><time>2026-04-26T13:30:51.072Z</time></trkpt><trkpt lat="43.433334" lon="11.350953"><ele>381.0</ele><time>2026-04-26T13:30:52.075Z</time></trkpt><trkpt lat="43.433615" lon="11.3506673"><ele>381.3333333333333</ele><time>2026-04-26T13:30:54.102Z</time></trkpt><trkpt lat="43.43375" lon="11.3505074"><ele>381.66666666666663</ele><time>2026-04-26T13:30:55.086Z</time></trkpt><trkpt lat="43.4338864" lon="11.3503453"><ele>382.0</ele><time>2026-04-26T13:30:56.089Z</time></trkpt><trkpt lat="43.4341246" lon="11.3500663"><ele>382.0</ele><time>2026-04-26T13:30:58.081Z</time></trkpt><trkpt lat="43.4342151" lon="11.34995"><ele>382.0</ele><time>2026-04-26T13:30:59.087Z</time></trkpt><trkpt lat="43.4342892" lon="11.3498241"><ele>382.0</ele><time>2026-04-26T13:31:00.095Z</time></trkpt><trkpt lat="43.4343613" lon="11.3496693"><ele>382.0</ele><time>2026-04-26T13:31:01.087Z</time></trkpt><trkpt lat="43.4344334" lon="11.3494835"><ele>382.5</ele><time>2026-04-26T13:31:02.095Z</time></trkpt><trkpt lat="43.4345003" lon="11.3492882"><ele>383.0</ele><time>2026-04-26T13:31:03.095Z</time></trkpt><trkpt lat="43.4345569" lon="11.3491073"><ele>383.5</ele><time>2026-04-26T13:31:04.084Z</time></trkpt><trkpt lat="43.4346103" lon="11.3489519"><ele>384.0</ele><time>2026-04-26T13:31:05.088Z</time></trkpt><trkpt lat="43.4346684" lon="11.3488409"><ele>384.0</ele><time>2026-04-26T13:31:06.092Z</time></trkpt><trkpt lat="43.4347376" lon="11.3487733"><ele>384.0</ele><time>2026-04-26T13:31:07.08Z</time></trkpt><trkpt lat="43.4348205" lon="11.3487418"><ele>384.0</ele><time>2026-04-26T13:31:08.082Z</time></trkpt><trkpt lat="43.4349132" lon="11.3487437"><ele>384.0</ele><time>2026-04-26T13:31:09.093Z</time></trkpt><trkpt lat="43.4349984" lon="11.3487716"><ele>384.0</ele><time>2026-04-26T13:31:10.092Z</time></trkpt><trkpt lat="43.4350702" lon="11.3488088"><ele>384.0</ele><time>2026-04-26T13:31:11.095Z</time></trkpt><trkpt lat="43.4351391" lon="11.34883"><ele>384.0</ele><time>2026-04-26T13:31:12.098Z</time></trkpt><trkpt lat="43.4352124" lon="11.3488291"><ele>384.0</ele><time>2026-04-26T13:31:13.086Z</time></trkpt><trkpt lat="43.4352918" lon="11.3488093"><ele>384.0</ele><time>2026-04-26T13:31:14.072Z</time></trkpt><trkpt lat="43.4353797" lon="11.34878"><ele>384.0</ele><time>2026-04-26T13:31:15.077Z</time></trkpt><trkpt lat="43.4354763" lon="11.3487514"><ele>384.0</ele><time>2026-04-26T13:31:16.076Z</time></trkpt><trkpt lat="43.4355736" lon="11.3487229"><ele>384.0</ele><time>2026-04-26T13:31:17.064Z</time></trkpt><trkpt lat="43.4356656" lon="11.3486943"><ele>383.75</ele><time>2026-04-26T13:31:18.074Z</time></trkpt><trkpt lat="43.4357603" lon="11.3486782"><ele>383.5</ele><time>2026-04-26T13:31:19.084Z</time></trkpt><trkpt lat="43.4358653" lon="11.3486887"><ele>383.25</ele><time>2026-04-26T13:31:20.082Z</time></trkpt><trkpt lat="43.4359814" lon="11.3487303"><ele>383.0</ele><time>2026-04-26T13:31:21.089Z</time></trkpt><trkpt lat="43.4361043" lon="11.3487983"><ele>380.5</ele><time>2026-04-26T13:31:22.091Z</time></trkpt><trkpt lat="43.4362324" lon="11.348892"><ele>378.0</ele><time>2026-04-26T13:31:23.094Z</time></trkpt><trkpt lat="43.4363615" lon="11.3490036"><ele>375.5</ele><time>2026-04-26T13:31:24.102Z</time></trkpt><trkpt lat="43.4364752" lon="11.3491163"><ele>373.0</ele><time>2026-04-26T13:31:25.09Z</time></trkpt><trkpt lat="43.4365754" lon="11.3492218"><ele>373.0</ele><time>2026-04-26T13:31:26.084Z</time></trkpt><trkpt lat="43.4366622" lon="11.349307"><ele>373.0</ele><time>2026-04-26T13:31:27.107Z</time></trkpt><trkpt lat="43.4367388" lon="11.3493625"><ele>373.0</ele><time>2026-04-26T13:31:28.088Z</time></trkpt><trkpt lat="43.4368152" lon="11.3493864"><ele>373.0</ele><time>2026-04-26T13:31:29.087Z</time></trkpt><trkpt lat="43.4368984" lon="11.3493818"><ele>373.0</ele><time>2026-04-26T13:31:30.09Z</time></trkpt><trkpt lat="43.4369831" lon="11.3493511"><ele>373.0</ele><time>2026-04-26T13:31:31.083Z</time></trkpt><trkpt lat="43.4370577" lon="11.3492888"><ele>373.0</ele><time>2026-04-26T13:31:32.089Z</time></trkpt><trkpt lat="43.437119" lon="11.3491996"><ele>373.0</ele><time>2026-04-26T13:31:33.089Z</time></trkpt><trkpt lat="43.4371678" lon="11.3490831"><ele>373.0</ele><time>2026-04-26T13:31:34.09Z</time></trkpt><trkpt lat="43.4372138" lon="11.3489327"><ele>373.0</ele><time>2026-04-26T13:31:35.089Z</time></trkpt><trkpt lat="43.437256" lon="11.3487668"><ele>373.0</ele><time>2026-04-26T13:31:36.093Z</time></trkpt><trkpt lat="43.4372963" lon="11.3486223"><ele>373.79999999999995</ele><time>2026-04-26T13:31:37.094Z</time></trkpt><trkpt lat="43.4373461" lon="11.3485058"><ele>374.6</ele><time>2026-04-26T13:31:38.097Z</time></trkpt><trkpt lat="43.4374141" lon="11.3484208"><ele>375.4</ele><time>2026-04-26T13:31:39.09Z</time></trkpt><trkpt lat="43.4375033" lon="11.3483687"><ele>376.20000000000005</ele><time>2026-04-26T13:31:40.088Z</time></trkpt><trkpt lat="43.437603" lon="11.3483568"><ele>377.0</ele><time>2026-04-26T13:31:41.073Z</time></trkpt><trkpt lat="43.4376998" lon="11.3483908"><ele>377.0</ele><time>2026-04-26T13:31:42.081Z</time></trkpt><trkpt lat="43.4377852" lon="11.3484782"><ele>377.0</ele><time>2026-04-26T13:31:43.093Z</time></trkpt><trkpt lat="43.4378571" lon="11.348616"><ele>377.0</ele><time>2026-04-26T13:31:44.1Z</time></trkpt><trkpt lat="43.4379131" lon="11.3487934"><ele>377.0</ele><time>2026-04-26T13:31:45.112Z</time></trkpt><trkpt lat="43.4379561" lon="11.348993"><ele>378.75</ele><time>2026-04-26T13:31:46.092Z</time></trkpt><trkpt lat="43.4379997" lon="11.3491909"><ele>380.5</ele><time>2026-04-26T13:31:47.097Z</time></trkpt><trkpt lat="43.4380582" lon="11.3493677"><ele>382.25</ele><time>2026-04-26T13:31:48.099Z</time></trkpt><trkpt lat="43.4381415" lon="11.349531"><ele>384.0</ele><time>2026-04-26T13:31:49.109Z</time></trkpt><trkpt lat="43.4382442" lon="11.3496801"><ele>381.75</ele><time>2026-04-26T13:31:50.093Z</time></trkpt><trkpt lat="43.4383635" lon="11.349803"><ele>379.5</ele><time>2026-04-26T13:31:51.087Z</time></trkpt><trkpt lat="43.4384955" lon="11.3498944"><ele>377.25</ele><time>2026-04-26T13:31:52.09Z</time></trkpt><trkpt lat="43.4386385" lon="11.3499645"><ele>375.0</ele><time>2026-04-26T13:31:53.094Z</time></trkpt><trkpt lat="43.4387818" lon="11.3500208"><ele>375.5</ele><time>2026-04-26T13:31:54.096Z</time></trkpt><trkpt lat="43.4389234" lon="11.3500764"><ele>376.0</ele><time>2026-04-26T13:31:55.096Z</time></trkpt><trkpt lat="43.439066" lon="11.3501372"><ele>376.5</ele><time>2026-04-26T13:31:56.097Z</time></trkpt><trkpt lat="43.4392047" lon="11.3501974"><ele>377.0</ele><time>2026-04-26T13:31:57.089Z</time></trkpt><trkpt lat="43.4393402" lon="11.3502543"><ele>377.0</ele><time>2026-04-26T13:31:58.087Z</time></trkpt><trkpt lat="43.4394712" lon="11.350308"><ele>377.0</ele><time>2026-04-26T13:31:59.077Z</time></trkpt><trkpt lat="43.4396025" lon="11.350366"><ele>377.0</ele><time>2026-04-26T13:32:00.089Z</time></trkpt><trkpt lat="43.4397296" lon="11.3504322"><ele>377.0</ele><time>2026-04-26T13:32:01.087Z</time></trkpt><trkpt lat="43.4398509" lon="11.3505097"><ele>376.0</ele><time>2026-04-26T13:32:02.081Z</time></trkpt><trkpt lat="43.4399685" lon="11.3505964"><ele>375.0</ele><time>2026-04-26T13:32:03.075Z</time></trkpt><trkpt lat="43.4400768" lon="11.3506886"><ele>374.0</ele><time>2026-04-26T13:32:04.069Z</time></trkpt><trkpt lat="43.4401689" lon="11.3507958"><ele>373.0</ele><time>2026-04-26T13:32:05.065Z</time></trkpt><trkpt lat="43.4402386" lon="11.3509247"><ele>373.0</ele><time>2026-04-26T13:32:06.052Z</time></trkpt><trkpt lat="43.4402954" lon="11.3510826"><ele>373.0</ele><time>2026-04-26T13:32:07.067Z</time></trkpt><trkpt lat="43.4403506" lon="11.3512573"><ele>373.0</ele><time>2026-04-26T13:32:08.071Z</time></trkpt><trkpt lat="43.4404079" lon="11.3514205"><ele>373.0</ele><time>2026-04-26T13:32:09.077Z</time></trkpt><trkpt lat="43.440468" lon="11.351556"><ele>373.0</ele><time>2026-04-26T13:32:10.087Z</time></trkpt><trkpt lat="43.4405177" lon="11.3516672"><ele>373.0</ele><time>2026-04-26T13:32:11.071Z</time></trkpt><trkpt lat="43.4405476" lon="11.3517892"><ele>373.0</ele><time>2026-04-26T13:32:12.074Z</time></trkpt><trkpt lat="43.4405648" lon="11.3519495"><ele>373.0</ele><time>2026-04-26T13:32:13.081Z</time></trkpt><trkpt lat="43.4405813" lon="11.3521433"><ele>373.0</ele><time>2026-04-26T13:32:14.083Z</time></trkpt><trkpt lat="43.4406081" lon="11.3523539"><ele>371.0</ele><time>2026-04-26T13:32:15.073Z</time></trkpt><trkpt lat="43.4406429" lon="11.3525786"><ele>369.0</ele><time>2026-04-26T13:32:16.083Z</time></trkpt><trkpt lat="43.4406762" lon="11.3528049"><ele>367.0</ele><time>2026-04-26T13:32:17.089Z</time></trkpt><trkpt lat="43.4407026" lon="11.3530167"><ele>365.5</ele><time>2026-04-26T13:32:18.076Z</time></trkpt><trkpt lat="43.4407243" lon="11.3532217"><ele>364.0</ele><time>2026-04-26T13:32:19.082Z</time></trkpt><trkpt lat="43.4407452" lon="11.3534226"><ele>362.5</ele><time>2026-04-26T13:32:20.093Z</time></trkpt><trkpt lat="43.440763" lon="11.353603"><ele>361.0</ele><time>2026-04-26T13:32:21.082Z</time></trkpt><trkpt lat="43.4407841" lon="11.3537879"><ele>359.0</ele><time>2026-04-26T13:32:22.086Z</time></trkpt><trkpt lat="43.4408136" lon="11.3539902"><ele>357.0</ele><time>2026-04-26T13:32:23.088Z</time></trkpt><trkpt lat="43.4408515" lon="11.3542015"><ele>355.0</ele><time>2026-04-26T13:32:24.074Z</time></trkpt><trkpt lat="43.4408957" lon="11.3544266"><ele>355.0</ele><time>2026-04-26T13:32:25.086Z</time></trkpt><trkpt lat="43.4409394" lon="11.3546416"><ele>355.0</ele><time>2026-04-26T13:32:26.076Z</time></trkpt><trkpt lat="43.4409759" lon="11.354835"><ele>355.0</ele><time>2026-04-26T13:32:27.078Z</time></trkpt><trkpt lat="43.4410012" lon="11.3550063"><ele>355.0</ele><time>2026-04-26T13:32:28.072Z</time></trkpt><trkpt lat="43.4410165" lon="11.3551579"><ele>354.66666666666663</ele><time>2026-04-26T13:32:29.073Z</time></trkpt><trkpt lat="43.4410245" lon="11.3552941"><ele>354.3333333333333</ele><time>2026-04-26T13:32:30.072Z</time></trkpt><trkpt lat="43.44102" lon="11.3554261"><ele>354.0</ele><time>2026-04-26T13:32:31.069Z</time></trkpt><trkpt lat="43.4410019" lon="11.3555423"><ele>353.6666666666667</ele><time>2026-04-26T13:32:32.082Z</time></trkpt><trkpt lat="43.4409792" lon="11.3556322"><ele>353.33333333333337</ele><time>2026-04-26T13:32:33.087Z</time></trkpt><trkpt lat="43.4409687" lon="11.3557674"><ele>353.0</ele><time>2026-04-26T13:32:35.081Z</time></trkpt><trkpt lat="43.4410481" lon="11.3558467"><ele>352.83333333333337</ele><time>2026-04-26T13:32:37.085Z</time></trkpt><trkpt lat="43.4411145" lon="11.3558511"><ele>352.6666666666667</ele><time>2026-04-26T13:32:38.084Z</time></trkpt><trkpt lat="43.4411919" lon="11.3558328"><ele>352.5</ele><time>2026-04-26T13:32:39.087Z</time></trkpt><trkpt lat="43.4412695" lon="11.3557941"><ele>352.3333333333333</ele><time>2026-04-26T13:32:40.083Z</time></trkpt><trkpt lat="43.4413424" lon="11.3557326"><ele>352.16666666666663</ele><time>2026-04-26T13:32:41.094Z</time></trkpt><trkpt lat="43.4414098" lon="11.3556441"><ele>352.0</ele><time>2026-04-26T13:32:42.09Z</time></trkpt><trkpt lat="43.4414752" lon="11.35554"><ele>352.6</ele><time>2026-04-26T13:32:43.084Z</time></trkpt><trkpt lat="43.4415371" lon="11.3554461"><ele>353.20000000000005</ele><time>2026-04-26T13:32:44.086Z</time></trkpt><trkpt lat="43.4416029" lon="11.3553742"><ele>353.8</ele><time>2026-04-26T13:32:45.079Z</time></trkpt><trkpt lat="43.4416818" lon="11.3553291"><ele>354.4</ele><time>2026-04-26T13:32:46.079Z</time></trkpt><trkpt lat="43.4417757" lon="11.3553044"><ele>355.0</ele><time>2026-04-26T13:32:47.086Z</time></trkpt><trkpt lat="43.4418801" lon="11.3552953"><ele>355.0</ele><time>2026-04-26T13:32:48.088Z</time></trkpt><trkpt lat="43.4419839" lon="11.3552929"><ele>355.0</ele><time>2026-04-26T13:32:49.095Z</time></trkpt><trkpt lat="43.4420823" lon="11.3552847"><ele>355.0</ele><time>2026-04-26T13:32:50.092Z</time></trkpt><trkpt lat="43.4421761" lon="11.3552613"><ele>355.0</ele><time>2026-04-26T13:32:51.08Z</time></trkpt><trkpt lat="43.4422721" lon="11.3552135"><ele>355.0</ele><time>2026-04-26T13:32:52.078Z</time></trkpt><trkpt lat="43.4423721" lon="11.3551381"><ele>350.25</ele><time>2026-04-26T13:32:53.07Z</time></trkpt><trkpt lat="43.4424773" lon="11.3550456"><ele>345.5</ele><time>2026-04-26T13:32:54.076Z</time></trkpt><trkpt lat="43.4425832" lon="11.3549508"><ele>340.75</ele><time>2026-04-26T13:32:55.069Z</time></trkpt><trkpt lat="43.4426836" lon="11.3548607"><ele>336.0</ele><time>2026-04-26T13:32:56.081Z</time></trkpt><trkpt lat="43.4427908" lon="11.3547774"><ele>335.5</ele><time>2026-04-26T13:32:57.092Z</time></trkpt><trkpt lat="43.4429156" lon="11.3547023"><ele>335.0</ele><time>2026-04-26T13:32:58.086Z</time></trkpt><trkpt lat="43.4430538" lon="11.3546201"><ele>334.5</ele><time>2026-04-26T13:32:59.09Z</time></trkpt><trkpt lat="43.4432009" lon="11.3545289"><ele>334.0</ele><time>2026-04-26T13:33:00.081Z</time></trkpt><trkpt lat="43.4433462" lon="11.3544383"><ele>334.0</ele><time>2026-04-26T13:33:01.089Z</time></trkpt><trkpt lat="43.4434828" lon="11.354348"><ele>334.0</ele><time>2026-04-26T13:33:02.083Z</time></trkpt><trkpt lat="43.4436191" lon="11.3542561"><ele>334.0</ele><time>2026-04-26T13:33:03.087Z</time></trkpt><trkpt lat="43.4437589" lon="11.3541629"><ele>331.5</ele><time>2026-04-26T13:33:04.077Z</time></trkpt><trkpt lat="43.4438925" lon="11.3540763"><ele>329.0</ele><time>2026-04-26T13:33:05.09Z</time></trkpt><trkpt lat="43.4440105" lon="11.3540024"><ele>326.5</ele><time>2026-04-26T13:33:06.089Z</time></trkpt><trkpt lat="43.4441259" lon="11.3539388"><ele>324.0</ele><time>2026-04-26T13:33:07.08Z</time></trkpt><trkpt lat="43.4442544" lon="11.3538856"><ele>324.75</ele><time>2026-04-26T13:33:08.092Z</time></trkpt><trkpt lat="43.4443886" lon="11.3538415"><ele>325.5</ele><time>2026-04-26T13:33:09.083Z</time></trkpt><trkpt lat="43.4445132" lon="11.3538021"><ele>326.25</ele><time>2026-04-26T13:33:10.083Z</time></trkpt><trkpt lat="43.4446239" lon="11.3537674"><ele>327.0</ele><time>2026-04-26T13:33:11.087Z</time></trkpt><trkpt lat="43.4447168" lon="11.3537445"><ele>327.0</ele><time>2026-04-26T13:33:12.094Z</time></trkpt><trkpt lat="43.444786" lon="11.3537416"><ele>327.0</ele><time>2026-04-26T13:33:13.096Z</time></trkpt><trkpt lat="43.444863" lon="11.3537941"><ele>327.0</ele><time>2026-04-26T13:33:15.101Z</time></trkpt><trkpt lat="43.4448944" lon="11.3539057"><ele>327.0</ele><time>2026-04-26T13:33:17.084Z</time></trkpt><trkpt lat="43.4449035" lon="11.3539936"><ele>327.0</ele><time>2026-04-26T13:33:18.075Z</time></trkpt><trkpt lat="43.4449104" lon="11.3541045"><ele>327.0</ele><time>2026-04-26T13:33:19.075Z</time></trkpt><trkpt lat="43.4449222" lon="11.3542338"><ele>327.20000000000005</ele><time>2026-04-26T13:33:20.084Z</time></trkpt><trkpt lat="43.4449476" lon="11.3543693"><ele>327.4</ele><time>2026-04-26T13:33:21.086Z</time></trkpt><trkpt lat="43.4449896" lon="11.3545032"><ele>327.6</ele><time>2026-04-26T13:33:22.085Z</time></trkpt><trkpt lat="43.4450466" lon="11.3546255"><ele>327.79999999999995</ele><time>2026-04-26T13:33:23.101Z</time></trkpt><trkpt lat="43.4451174" lon="11.3547364"><ele>328.0</ele><time>2026-04-26T13:33:24.104Z</time></trkpt><trkpt lat="43.4452046" lon="11.3548487"><ele>327.59999999999997</ele><time>2026-04-26T13:33:25.087Z</time></trkpt><trkpt lat="43.4453028" lon="11.3549533"><ele>327.2</ele><time>2026-04-26T13:33:26.106Z</time></trkpt><trkpt lat="43.4453993" lon="11.3550381"><ele>326.8</ele><time>2026-04-26T13:33:27.113Z</time></trkpt><trkpt lat="43.4454881" lon="11.3551044"><ele>326.4</ele><time>2026-04-26T13:33:28.092Z</time></trkpt><trkpt lat="43.4455775" lon="11.3551538"><ele>326.0</ele><time>2026-04-26T13:33:29.101Z</time></trkpt><trkpt lat="43.4456743" lon="11.3551884"><ele>327.5</ele><time>2026-04-26T13:33:30.096Z</time></trkpt><trkpt lat="43.4457842" lon="11.35521"><ele>329.0</ele><time>2026-04-26T13:33:31.099Z</time></trkpt><trkpt lat="43.44591" lon="11.3552212"><ele>330.5</ele><time>2026-04-26T13:33:32.087Z</time></trkpt><trkpt lat="43.4460575" lon="11.3552309"><ele>332.0</ele><time>2026-04-26T13:33:33.112Z</time></trkpt><trkpt lat="43.4462176" lon="11.3552479"><ele>333.6666666666667</ele><time>2026-04-26T13:33:34.088Z</time></trkpt><trkpt lat="43.4463936" lon="11.3552749"><ele>335.3333333333333</ele><time>2026-04-26T13:33:35.085Z</time></trkpt><trkpt lat="43.4465774" lon="11.3553077"><ele>337.0</ele><time>2026-04-26T13:33:36.089Z</time></trkpt><trkpt lat="43.446755" lon="11.3553401"><ele>337.0</ele><time>2026-04-26T13:33:37.079Z</time></trkpt><trkpt lat="43.4469245" lon="11.355372"><ele>337.0</ele><time>2026-04-26T13:33:38.083Z</time></trkpt><trkpt lat="43.4470828" lon="11.3553999"><ele>337.0</ele><time>2026-04-26T13:33:39.086Z</time></trkpt><trkpt lat="43.4472326" lon="11.3554289"><ele>335.0</ele><time>2026-04-26T13:33:40.072Z</time></trkpt><trkpt lat="43.4473789" lon="11.3554757"><ele>333.0</ele><time>2026-04-26T13:33:41.082Z</time></trkpt><trkpt lat="43.4475227" lon="11.3555354"><ele>331.0</ele><time>2026-04-26T13:33:42.074Z</time></trkpt><trkpt lat="43.447674" lon="11.3556066"><ele>331.0</ele><time>2026-04-26T13:33:43.071Z</time></trkpt><trkpt lat="43.4478308" lon="11.3556964"><ele>331.0</ele><time>2026-04-26T13:33:44.075Z</time></trkpt><trkpt lat="43.4479937" lon="11.355797"><ele>331.0</ele><time>2026-04-26T13:33:45.07Z</time></trkpt><trkpt lat="43.4481618" lon="11.3559017"><ele>332.66666666666663</ele><time>2026-04-26T13:33:46.076Z</time></trkpt><trkpt lat="43.4483274" lon="11.3560029"><ele>334.3333333333333</ele><time>2026-04-26T13:33:47.08Z</time></trkpt><trkpt lat="43.4484862" lon="11.3560973"><ele>336.0</ele><time>2026-04-26T13:33:48.085Z</time></trkpt><trkpt lat="43.4486353" lon="11.3561868"><ele>336.0</ele><time>2026-04-26T13:33:49.073Z</time></trkpt><trkpt lat="43.448779" lon="11.356277"><ele>336.0</ele><time>2026-04-26T13:33:50.074Z</time></trkpt><trkpt lat="43.4489085" lon="11.3563654"><ele>336.0</ele><time>2026-04-26T13:33:51.091Z</time></trkpt><trkpt lat="43.449018" lon="11.3564543"><ele>336.0</ele><time>2026-04-26T13:33:52.085Z</time></trkpt><trkpt lat="43.4491131" lon="11.3565408"><ele>335.20000000000005</ele><time>2026-04-26T13:33:53.084Z</time></trkpt><trkpt lat="43.4492028" lon="11.3566152"><ele>334.40000000000003</ele><time>2026-04-26T13:33:54.071Z</time></trkpt><trkpt lat="43.4492991" lon="11.356674"><ele>333.6</ele><time>2026-04-26T13:33:55.081Z</time></trkpt><trkpt lat="43.4494033" lon="11.356713"><ele>332.8</ele><time>2026-04-26T13:33:56.083Z</time></trkpt><trkpt lat="43.4495239" lon="11.3567427"><ele>332.0</ele><time>2026-04-26T13:33:57.089Z</time></trkpt><trkpt lat="43.4496562" lon="11.3567663"><ele>333.6</ele><time>2026-04-26T13:33:58.076Z</time></trkpt><trkpt lat="43.4497824" lon="11.3567806"><ele>335.20000000000005</ele><time>2026-04-26T13:33:59.075Z</time></trkpt><trkpt lat="43.4498897" lon="11.3567856"><ele>336.8</ele><time>2026-04-26T13:34:00.083Z</time></trkpt><trkpt lat="43.4499836" lon="11.3567777"><ele>338.4</ele><time>2026-04-26T13:34:01.088Z</time></trkpt><trkpt lat="43.4500751" lon="11.3567449"><ele>340.0</ele><time>2026-04-26T13:34:02.075Z</time></trkpt><trkpt lat="43.4501723" lon="11.3566879"><ele>340.0</ele><time>2026-04-26T13:34:03.089Z</time></trkpt><trkpt lat="43.4502809" lon="11.3566077"><ele>340.0</ele><time>2026-04-26T13:34:04.078Z</time></trkpt><trkpt lat="43.4504033" lon="11.3565028"><ele>340.0</ele><time>2026-04-26T13:34:05.079Z</time></trkpt><trkpt lat="43.4505249" lon="11.3563833"><ele>340.0</ele><time>2026-04-26T13:34:06.076Z</time></trkpt><trkpt lat="43.4506302" lon="11.3562676"><ele>341.75</ele><time>2026-04-26T13:34:07.071Z</time></trkpt><trkpt lat="43.4507262" lon="11.3561641"><ele>343.5</ele><time>2026-04-26T13:34:08.068Z</time></trkpt><trkpt lat="43.4508238" lon="11.3560509"><ele>345.25</ele><time>2026-04-26T13:34:09.077Z</time></trkpt><trkpt lat="43.4509209" lon="11.3559249"><ele>347.0</ele><time>2026-04-26T13:34:10.084Z</time></trkpt><trkpt lat="43.4510158" lon="11.355809"><ele>347.0</ele><time>2026-04-26T13:34:11.087Z</time></trkpt><trkpt lat="43.4511122" lon="11.3557105"><ele>347.0</ele><time>2026-04-26T13:34:12.071Z</time></trkpt><trkpt lat="43.4512217" lon="11.355622"><ele>347.0</ele><time>2026-04-26T13:34:13.074Z</time></trkpt><trkpt lat="43.451345" lon="11.3555372"><ele>347.0</ele><time>2026-04-26T13:34:14.087Z</time></trkpt><trkpt lat="43.4514642" lon="11.3554576"><ele>347.5</ele><time>2026-04-26T13:34:15.077Z</time></trkpt><trkpt lat="43.4515724" lon="11.3553873"><ele>348.0</ele><time>2026-04-26T13:34:16.077Z</time></trkpt><trkpt lat="43.4516819" lon="11.3553353"><ele>348.5</ele><time>2026-04-26T13:34:17.081Z</time></trkpt><trkpt lat="43.4518034" lon="11.3553037"><ele>349.0</ele><time>2026-04-26T13:34:18.088Z</time></trkpt><trkpt lat="43.4519277" lon="11.3552832"><ele>349.0</ele><time>2026-04-26T13:34:19.09Z</time></trkpt><trkpt lat="43.4520491" lon="11.355257"><ele>349.0</ele><time>2026-04-26T13:34:20.089Z</time></trkpt><trkpt lat="43.4521739" lon="11.3552111"><ele>349.0</ele><time>2026-04-26T13:34:21.089Z</time></trkpt><trkpt lat="43.4523042" lon="11.3551507"><ele>349.0</ele><time>2026-04-26T13:34:22.076Z</time></trkpt><trkpt lat="43.45244" lon="11.3550839"><ele>346.66666666666663</ele><time>2026-04-26T13:34:23.083Z</time></trkpt><trkpt lat="43.4525799" lon="11.3550125"><ele>344.3333333333333</ele><time>2026-04-26T13:34:24.073Z</time></trkpt><trkpt lat="43.452726" lon="11.3549295"><ele>342.0</ele><time>2026-04-26T13:34:25.084Z</time></trkpt><trkpt lat="43.4528728" lon="11.354841"><ele>342.6666666666667</ele><time>2026-04-26T13:34:26.088Z</time></trkpt><trkpt lat="43.4530139" lon="11.3547542"><ele>343.33333333333337</ele><time>2026-04-26T13:34:27.076Z</time></trkpt><trkpt lat="43.453155" lon="11.3546704"><ele>344.0</ele><time>2026-04-26T13:34:28.081Z</time></trkpt><trkpt lat="43.4533044" lon="11.3545897"><ele>344.0</ele><time>2026-04-26T13:34:29.073Z</time></trkpt><trkpt lat="43.4534564" lon="11.3545152"><ele>344.0</ele><time>2026-04-26T13:34:30.076Z</time></trkpt><trkpt lat="43.4535941" lon="11.354445"><ele>344.0</ele><time>2026-04-26T13:34:31.066Z</time></trkpt><trkpt lat="43.4537161" lon="11.3543774"><ele>344.0</ele><time>2026-04-26T13:34:32.074Z</time></trkpt><trkpt lat="43.4538179" lon="11.3543224"><ele>342.4</ele><time>2026-04-26T13:34:33.067Z</time></trkpt><trkpt lat="43.4539009" lon="11.3542815"><ele>340.79999999999995</ele><time>2026-04-26T13:34:34.068Z</time></trkpt><trkpt lat="43.453964" lon="11.3542639"><ele>339.20000000000005</ele><time>2026-04-26T13:34:35.075Z</time></trkpt><trkpt lat="43.4540626" lon="11.3542848"><ele>337.6</ele><time>2026-04-26T13:34:37.084Z</time></trkpt><trkpt lat="43.4541759" lon="11.3543545"><ele>336.0</ele><time>2026-04-26T13:34:39.08Z</time></trkpt><trkpt lat="43.4542481" lon="11.3543828"><ele>336.0</ele><time>2026-04-26T13:34:40.082Z</time></trkpt><trkpt lat="43.4543276" lon="11.3543824"><ele>336.0</ele><time>2026-04-26T13:34:41.085Z</time></trkpt><trkpt lat="43.4544153" lon="11.3543518"><ele>336.0</ele><time>2026-04-26T13:34:42.078Z</time></trkpt><trkpt lat="43.4545142" lon="11.3542943"><ele>336.0</ele><time>2026-04-26T13:34:43.091Z</time></trkpt><trkpt lat="43.4546251" lon="11.3542218"><ele>336.0</ele><time>2026-04-26T13:34:44.083Z</time></trkpt><trkpt lat="43.4547415" lon="11.3541487"><ele>337.75</ele><time>2026-04-26T13:34:45.089Z</time></trkpt><trkpt lat="43.4548588" lon="11.3540843"><ele>339.5</ele><time>2026-04-26T13:34:46.096Z</time></trkpt><trkpt lat="43.4549817" lon="11.3540356"><ele>341.25</ele><time>2026-04-26T13:34:47.076Z</time></trkpt><trkpt lat="43.4551149" lon="11.3540001"><ele>343.0</ele><time>2026-04-26T13:34:48.088Z</time></trkpt><trkpt lat="43.4552358" lon="11.3539684"><ele>343.0</ele><time>2026-04-26T13:34:49.078Z</time></trkpt><trkpt lat="43.4553331" lon="11.3539457"><ele>343.0</ele><time>2026-04-26T13:34:50.082Z</time></trkpt><trkpt lat="43.455433" lon="11.3539446"><ele>343.0</ele><time>2026-04-26T13:34:51.077Z</time></trkpt><trkpt lat="43.4555544" lon="11.3539657"><ele>343.0</ele><time>2026-04-26T13:34:52.085Z</time></trkpt><trkpt lat="43.4556912" lon="11.3540112"><ele>343.66666666666663</ele><time>2026-04-26T13:34:53.085Z</time></trkpt><trkpt lat="43.4558302" lon="11.3540686"><ele>344.3333333333333</ele><time>2026-04-26T13:34:54.074Z</time></trkpt><trkpt lat="43.456108" lon="11.3541649"><ele>345.0</ele><time>2026-04-26T13:34:56.061Z</time></trkpt><trkpt lat="43.4562586" lon="11.3541969"><ele>345.25</ele><time>2026-04-26T13:34:57.065Z</time></trkpt><trkpt lat="43.4564064" lon="11.3542158"><ele>345.5</ele><time>2026-04-26T13:34:58.069Z</time></trkpt><trkpt lat="43.45655" lon="11.3542346"><ele>345.75</ele><time>2026-04-26T13:34:59.063Z</time></trkpt><trkpt lat="43.4566902" lon="11.3542631"><ele>346.0</ele><time>2026-04-26T13:35:00.081Z</time></trkpt><trkpt lat="43.4568205" lon="11.3542937"><ele>346.0</ele><time>2026-04-26T13:35:01.084Z</time></trkpt><trkpt lat="43.4569477" lon="11.3543242"><ele>346.0</ele><time>2026-04-26T13:35:02.085Z</time></trkpt><trkpt lat="43.457078" lon="11.3543639"><ele>346.0</ele><time>2026-04-26T13:35:03.079Z</time></trkpt><trkpt lat="43.4572175" lon="11.3544247"><ele>346.0</ele><time>2026-04-26T13:35:04.086Z</time></trkpt><trkpt lat="43.4573642" lon="11.3545039"><ele>349.0</ele><time>2026-04-26T13:35:05.079Z</time></trkpt><trkpt lat="43.457509" lon="11.3545794"><ele>352.0</ele><time>2026-04-26T13:35:06.086Z</time></trkpt><trkpt lat="43.4576527" lon="11.3546393"><ele>355.0</ele><time>2026-04-26T13:35:07.07Z</time></trkpt><trkpt lat="43.4578027" lon="11.3546907"><ele>353.75</ele><time>2026-04-26T13:35:08.084Z</time></trkpt><trkpt lat="43.4579411" lon="11.3547368"><ele>352.5</ele><time>2026-04-26T13:35:09.083Z</time></trkpt><trkpt lat="43.4580554" lon="11.3547808"><ele>351.25</ele><time>2026-04-26T13:35:10.07Z</time></trkpt><trkpt lat="43.4581644" lon="11.3548462"><ele>350.0</ele><time>2026-04-26T13:35:11.081Z</time></trkpt><trkpt lat="43.4582822" lon="11.3549475"><ele>350.0</ele><time>2026-04-26T13:35:12.088Z</time></trkpt><trkpt lat="43.4584059" lon="11.3550698"><ele>350.0</ele><time>2026-04-26T13:35:13.077Z</time></trkpt><trkpt lat="43.4585364" lon="11.3551848"><ele>350.0</ele><time>2026-04-26T13:35:14.093Z</time></trkpt><trkpt lat="43.4586647" lon="11.3552859"><ele>351.5</ele><time>2026-04-26T13:35:15.084Z</time></trkpt><trkpt lat="43.4587844" lon="11.355365"><ele>353.0</ele><time>2026-04-26T13:35:16.09Z</time></trkpt><trkpt lat="43.4589061" lon="11.3554253"><ele>354.5</ele><time>2026-04-26T13:35:17.091Z</time></trkpt><trkpt lat="43.4590403" lon="11.355475"><ele>356.0</ele><time>2026-04-26T13:35:18.081Z</time></trkpt><trkpt lat="43.4591877" lon="11.3555149"><ele>354.75</ele><time>2026-04-26T13:35:19.08Z</time></trkpt><trkpt lat="43.459335" lon="11.3555475"><ele>353.5</ele><time>2026-04-26T13:35:20.069Z</time></trkpt><trkpt lat="43.4594683" lon="11.3555761"><ele>352.25</ele><time>2026-04-26T13:35:21.071Z</time></trkpt><trkpt lat="43.4595928" lon="11.3555985"><ele>351.0</ele><time>2026-04-26T13:35:22.061Z</time></trkpt><trkpt lat="43.4597187" lon="11.3556109"><ele>351.0</ele><time>2026-04-26T13:35:23.074Z</time></trkpt><trkpt lat="43.4598449" lon="11.3556042"><ele>351.0</ele><time>2026-04-26T13:35:24.064Z</time></trkpt><trkpt lat="43.4599718" lon="11.3555708"><ele>351.0</ele><time>2026-04-26T13:35:25.077Z</time></trkpt><trkpt lat="43.4600942" lon="11.3555337"><ele>351.0</ele><time>2026-04-26T13:35:26.092Z</time></trkpt><trkpt lat="43.4602208" lon="11.3555261"><ele>351.0</ele><time>2026-04-26T13:35:27.079Z</time></trkpt><trkpt lat="43.4603614" lon="11.3555517"><ele>351.0</ele><time>2026-04-26T13:35:28.088Z</time></trkpt><trkpt lat="43.4604987" lon="11.3555896"><ele>351.0</ele><time>2026-04-26T13:35:29.089Z</time></trkpt><trkpt lat="43.4606249" lon="11.3556179"><ele>351.0</ele><time>2026-04-26T13:35:30.077Z</time></trkpt><trkpt lat="43.4607507" lon="11.3556299"><ele>351.75</ele><time>2026-04-26T13:35:31.089Z</time></trkpt><trkpt lat="43.460877" lon="11.3556213"><ele>352.5</ele><time>2026-04-26T13:35:32.079Z</time></trkpt><trkpt lat="43.4610161" lon="11.3555932"><ele>353.25</ele><time>2026-04-26T13:35:33.086Z</time></trkpt><trkpt lat="43.4611537" lon="11.3555621"><ele>354.0</ele><time>2026-04-26T13:35:34.072Z</time></trkpt><trkpt lat="43.4612748" lon="11.3555416"><ele>354.5</ele><time>2026-04-26T13:35:35.086Z</time></trkpt><trkpt lat="43.4613854" lon="11.3555492"><ele>355.0</ele><time>2026-04-26T13:35:36.075Z</time></trkpt><trkpt lat="43.4614962" lon="11.355584"><ele>355.5</ele><time>2026-04-26T13:35:37.081Z</time></trkpt><trkpt lat="43.4616164" lon="11.3556517"><ele>356.0</ele><time>2026-04-26T13:35:38.084Z</time></trkpt><trkpt lat="43.4617457" lon="11.355753"><ele>356.0</ele><time>2026-04-26T13:35:39.088Z</time></trkpt><trkpt lat="43.4618792" lon="11.3558675"><ele>356.0</ele><time>2026-04-26T13:35:40.078Z</time></trkpt><trkpt lat="43.4620148" lon="11.3559915"><ele>356.0</ele><time>2026-04-26T13:35:41.089Z</time></trkpt><trkpt lat="43.4621442" lon="11.3561185"><ele>355.6666666666667</ele><time>2026-04-26T13:35:42.088Z</time></trkpt><trkpt lat="43.4622701" lon="11.3562422"><ele>355.3333333333333</ele><time>2026-04-26T13:35:43.076Z</time></trkpt><trkpt lat="43.4623974" lon="11.3563615"><ele>355.0</ele><time>2026-04-26T13:35:44.081Z</time></trkpt><trkpt lat="43.4625299" lon="11.3564781"><ele>355.0</ele><time>2026-04-26T13:35:45.068Z</time></trkpt><trkpt lat="43.4626607" lon="11.3565954"><ele>355.0</ele><time>2026-04-26T13:35:46.071Z</time></trkpt><trkpt lat="43.4627762" lon="11.356706"><ele>355.0</ele><time>2026-04-26T13:35:47.066Z</time></trkpt><trkpt lat="43.4628797" lon="11.3568089"><ele>355.0</ele><time>2026-04-26T13:35:48.078Z</time></trkpt><trkpt lat="43.4629714" lon="11.3568984"><ele>357.6</ele><time>2026-04-26T13:35:49.079Z</time></trkpt><trkpt lat="43.4630555" lon="11.3569653"><ele>360.2</ele><time>2026-04-26T13:35:50.075Z</time></trkpt><trkpt lat="43.463142" lon="11.3570042"><ele>362.79999999999995</ele><time>2026-04-26T13:35:51.075Z</time></trkpt><trkpt lat="43.4632394" lon="11.3570175"><ele>365.4</ele><time>2026-04-26T13:35:52.076Z</time></trkpt><trkpt lat="43.4633498" lon="11.3570232"><ele>368.0</ele><time>2026-04-26T13:35:53.066Z</time></trkpt><trkpt lat="43.4634685" lon="11.3570429"><ele>368.0</ele><time>2026-04-26T13:35:54.074Z</time></trkpt><trkpt lat="43.4635932" lon="11.3570702"><ele>368.0</ele><time>2026-04-26T13:35:55.075Z</time></trkpt><trkpt lat="43.4637206" lon="11.357093"><ele>368.0</ele><time>2026-04-26T13:35:56.076Z</time></trkpt><trkpt lat="43.4638343" lon="11.3571145"><ele>368.0</ele><time>2026-04-26T13:35:57.08Z</time></trkpt><trkpt lat="43.4639355" lon="11.3571505"><ele>367.2</ele><time>2026-04-26T13:35:58.085Z</time></trkpt><trkpt lat="43.4640289" lon="11.3572016"><ele>366.4</ele><time>2026-04-26T13:35:59.088Z</time></trkpt><trkpt lat="43.4641117" lon="11.3572656"><ele>365.59999999999997</ele><time>2026-04-26T13:36:00.075Z</time></trkpt><trkpt lat="43.4641909" lon="11.3573404"><ele>364.79999999999995</ele><time>2026-04-26T13:36:01.081Z</time></trkpt><trkpt lat="43.4642741" lon="11.3574152"><ele>364.0</ele><time>2026-04-26T13:36:02.084Z</time></trkpt><trkpt lat="43.4643609" lon="11.3574953"><ele>364.0</ele><time>2026-04-26T13:36:03.067Z</time></trkpt><trkpt lat="43.4644471" lon="11.3575888"><ele>364.0</ele><time>2026-04-26T13:36:04.081Z</time></trkpt><trkpt lat="43.4645275" lon="11.3576962"><ele>364.0</ele><time>2026-04-26T13:36:05.073Z</time></trkpt><trkpt lat="43.464603" lon="11.3578203"><ele>364.0</ele><time>2026-04-26T13:36:06.078Z</time></trkpt><trkpt lat="43.4646739" lon="11.3579594"><ele>365.25</ele><time>2026-04-26T13:36:07.082Z</time></trkpt><trkpt lat="43.4647381" lon="11.3581201"><ele>366.5</ele><time>2026-04-26T13:36:08.074Z</time></trkpt><trkpt lat="43.4647936" lon="11.358303"><ele>367.75</ele><time>2026-04-26T13:36:09.082Z</time></trkpt><trkpt lat="43.4648452" lon="11.3584958"><ele>369.0</ele><time>2026-04-26T13:36:10.066Z</time></trkpt><trkpt lat="43.464889" lon="11.3586949"><ele>368.0</ele><time>2026-04-26T13:36:11.072Z</time></trkpt><trkpt lat="43.4649181" lon="11.3588837"><ele>367.0</ele><time>2026-04-26T13:36:12.087Z</time></trkpt><trkpt lat="43.4649368" lon="11.3590527"><ele>366.0</ele><time>2026-04-26T13:36:13.072Z</time></trkpt><trkpt lat="43.4649556" lon="11.3592045"><ele>365.0</ele><time>2026-04-26T13:36:14.082Z</time></trkpt><trkpt lat="43.4649827" lon="11.3593472"><ele>365.0</ele><time>2026-04-26T13:36:15.088Z</time></trkpt><trkpt lat="43.4650182" lon="11.3594962"><ele>365.0</ele><time>2026-04-26T13:36:16.077Z</time></trkpt><trkpt lat="43.4650625" lon="11.3596458"><ele>365.0</ele><time>2026-04-26T13:36:17.096Z</time></trkpt><trkpt lat="43.4651108" lon="11.3597803"><ele>365.0</ele><time>2026-04-26T13:36:18.084Z</time></trkpt><trkpt lat="43.4651616" lon="11.3599001"><ele>365.0</ele><time>2026-04-26T13:36:19.086Z</time></trkpt><trkpt lat="43.4652184" lon="11.3600059"><ele>364.5</ele><time>2026-04-26T13:36:20.095Z</time></trkpt><trkpt lat="43.4652861" lon="11.3601019"><ele>364.0</ele><time>2026-04-26T13:36:21.08Z</time></trkpt><trkpt lat="43.4653676" lon="11.3602083"><ele>363.5</ele><time>2026-04-26T13:36:22.091Z</time></trkpt><trkpt lat="43.4654542" lon="11.3603367"><ele>363.0</ele><time>2026-04-26T13:36:23.096Z</time></trkpt><trkpt lat="43.4655284" lon="11.3604791"><ele>364.4</ele><time>2026-04-26T13:36:24.084Z</time></trkpt><trkpt lat="43.4655889" lon="11.360613"><ele>365.79999999999995</ele><time>2026-04-26T13:36:25.094Z</time></trkpt><trkpt lat="43.4656529" lon="11.360731"><ele>367.2</ele><time>2026-04-26T13:36:26.091Z</time></trkpt><trkpt lat="43.4657261" lon="11.3608371"><ele>368.6</ele><time>2026-04-26T13:36:27.09Z</time></trkpt><trkpt lat="43.465813" lon="11.3609326"><ele>370.0</ele><time>2026-04-26T13:36:28.084Z</time></trkpt><trkpt lat="43.4659135" lon="11.3610142"><ele>370.0</ele><time>2026-04-26T13:36:29.089Z</time></trkpt><trkpt lat="43.4660144" lon="11.3610904"><ele>370.0</ele><time>2026-04-26T13:36:30.087Z</time></trkpt><trkpt lat="43.4660953" lon="11.3611812"><ele>370.0</ele><time>2026-04-26T13:36:31.089Z</time></trkpt><trkpt lat="43.4661575" lon="11.3612994"><ele>370.0</ele><time>2026-04-26T13:36:32.087Z</time></trkpt><trkpt lat="43.4662061" lon="11.3614472"><ele>370.0</ele><time>2026-04-26T13:36:33.074Z</time></trkpt><trkpt lat="43.4662505" lon="11.3616217"><ele>369.75</ele><time>2026-04-26T13:36:34.077Z</time></trkpt><trkpt lat="43.4662943" lon="11.3618015"><ele>369.5</ele><time>2026-04-26T13:36:35.065Z</time></trkpt><trkpt lat="43.466344" lon="11.3619758"><ele>369.25</ele><time>2026-04-26T13:36:36.076Z</time></trkpt><trkpt lat="43.4664024" lon="11.3621469"><ele>369.0</ele><time>2026-04-26T13:36:37.083Z</time></trkpt><trkpt lat="43.4664692" lon="11.3623116"><ele>369.0</ele><time>2026-04-26T13:36:38.085Z</time></trkpt><trkpt lat="43.4665426" lon="11.3624651"><ele>369.0</ele><time>2026-04-26T13:36:39.091Z</time></trkpt><trkpt lat="43.46662" lon="11.3626005"><ele>369.0</ele><time>2026-04-26T13:36:40.086Z</time></trkpt><trkpt lat="43.4666967" lon="11.3627183"><ele>369.0</ele><time>2026-04-26T13:36:41.093Z</time></trkpt><trkpt lat="43.4667606" lon="11.3628259"><ele>369.0</ele><time>2026-04-26T13:36:42.084Z</time></trkpt><trkpt lat="43.4668059" lon="11.3629323"><ele>369.0</ele><time>2026-04-26T13:36:43.09Z</time></trkpt><trkpt lat="43.4668311" lon="11.3630425"><ele>369.0</ele><time>2026-04-26T13:36:44.098Z</time></trkpt><trkpt lat="43.466832" lon="11.3631623"><ele>369.0</ele><time>2026-04-26T13:36:45.112Z</time></trkpt><trkpt lat="43.4668115" lon="11.363304"><ele>369.0</ele><time>2026-04-26T13:36:46.09Z</time></trkpt><trkpt lat="43.4667753" lon="11.3634717"><ele>369.0</ele><time>2026-04-26T13:36:47.1Z</time></trkpt><trkpt lat="43.4667315" lon="11.3636541"><ele>369.0</ele><time>2026-04-26T13:36:48.091Z</time></trkpt><trkpt lat="43.4666855" lon="11.3638514"><ele>369.0</ele><time>2026-04-26T13:36:49.092Z</time></trkpt><trkpt lat="43.4666367" lon="11.3640656"><ele>369.0</ele><time>2026-04-26T13:36:50.092Z</time></trkpt><trkpt lat="43.4665843" lon="11.3642993"><ele>369.0</ele><time>2026-04-26T13:36:51.089Z</time></trkpt><trkpt lat="43.4665292" lon="11.3645483"><ele>369.0</ele><time>2026-04-26T13:36:52.096Z</time></trkpt><trkpt lat="43.4664731" lon="11.3648072"><ele>369.3333333333333</ele><time>2026-04-26T13:36:53.098Z</time></trkpt><trkpt lat="43.4664163" lon="11.365075"><ele>369.66666666666663</ele><time>2026-04-26T13:36:54.089Z</time></trkpt><trkpt lat="43.4663599" lon="11.3653518"><ele>370.0</ele><time>2026-04-26T13:36:55.088Z</time></trkpt><trkpt lat="43.4663008" lon="11.3656352"><ele>369.66666666666663</ele><time>2026-04-26T13:36:56.088Z</time></trkpt><trkpt lat="43.4662385" lon="11.3659247"><ele>369.3333333333333</ele><time>2026-04-26T13:36:57.079Z</time></trkpt><trkpt lat="43.4661748" lon="11.3662112"><ele>369.0</ele><time>2026-04-26T13:36:58.083Z</time></trkpt><trkpt lat="43.4661121" lon="11.3664809"><ele>369.0</ele><time>2026-04-26T13:36:59.088Z</time></trkpt><trkpt lat="43.4660542" lon="11.3667318"><ele>369.0</ele><time>2026-04-26T13:37:00.093Z</time></trkpt><trkpt lat="43.4659999" lon="11.3669733"><ele>369.0</ele><time>2026-04-26T13:37:01.085Z</time></trkpt><trkpt lat="43.4659492" lon="11.3672126"><ele>369.6666666666667</ele><time>2026-04-26T13:37:02.092Z</time></trkpt><trkpt lat="43.465901" lon="11.3674469"><ele>370.33333333333337</ele><time>2026-04-26T13:37:03.1Z</time></trkpt><trkpt lat="43.4658556" lon="11.3676796"><ele>371.0</ele><time>2026-04-26T13:37:04.1Z</time></trkpt><trkpt lat="43.4658137" lon="11.3678962"><ele>371.75</ele><time>2026-04-26T13:37:05.093Z</time></trkpt><trkpt lat="43.4657772" lon="11.3680941"><ele>372.5</ele><time>2026-04-26T13:37:06.095Z</time></trkpt><trkpt lat="43.4657494" lon="11.3682731"><ele>373.25</ele><time>2026-04-26T13:37:07.109Z</time></trkpt><trkpt lat="43.4657385" lon="11.3684347"><ele>374.0</ele><time>2026-04-26T13:37:08.099Z</time></trkpt><trkpt lat="43.4657436" lon="11.3685935"><ele>374.0</ele><time>2026-04-26T13:37:09.103Z</time></trkpt><trkpt lat="43.4657632" lon="11.3687609"><ele>374.0</ele><time>2026-04-26T13:37:10.109Z</time></trkpt><trkpt lat="43.4657964" lon="11.3689423"><ele>374.0</ele><time>2026-04-26T13:37:11.092Z</time></trkpt><trkpt lat="43.4658431" lon="11.3691468"><ele>374.0</ele><time>2026-04-26T13:37:12.096Z</time></trkpt><trkpt lat="43.465896" lon="11.3693565"><ele>374.0</ele><time>2026-04-26T13:37:13.102Z</time></trkpt><trkpt lat="43.4659493" lon="11.3695479"><ele>374.0</ele><time>2026-04-26T13:37:14.102Z</time></trkpt><trkpt lat="43.4660021" lon="11.3697196"><ele>374.0</ele><time>2026-04-26T13:37:15.108Z</time></trkpt><trkpt lat="43.4660578" lon="11.3698823"><ele>374.0</ele><time>2026-04-26T13:37:16.092Z</time></trkpt><trkpt lat="43.4661222" lon="11.3700503"><ele>374.5</ele><time>2026-04-26T13:37:17.11Z</time></trkpt><trkpt lat="43.466194" lon="11.3702147"><ele>375.0</ele><time>2026-04-26T13:37:18.086Z</time></trkpt><trkpt lat="43.4662749" lon="11.370379"><ele>375.5</ele><time>2026-04-26T13:37:19.097Z</time></trkpt><trkpt lat="43.4663613" lon="11.3705417"><ele>376.0</ele><time>2026-04-26T13:37:20.095Z</time></trkpt><trkpt lat="43.4664544" lon="11.3707034"><ele>376.75</ele><time>2026-04-26T13:37:21.084Z</time></trkpt><trkpt lat="43.4665524" lon="11.370859"><ele>377.5</ele><time>2026-04-26T13:37:22.086Z</time></trkpt><trkpt lat="43.4666479" lon="11.3710008"><ele>378.25</ele><time>2026-04-26T13:37:23.074Z</time></trkpt><trkpt lat="43.4667406" lon="11.3711233"><ele>379.0</ele><time>2026-04-26T13:37:24.075Z</time></trkpt><trkpt lat="43.466839" lon="11.3712237"><ele>379.0</ele><time>2026-04-26T13:37:25.08Z</time></trkpt><trkpt lat="43.4669535" lon="11.3713138"><ele>379.0</ele><time>2026-04-26T13:37:26.087Z</time></trkpt><trkpt lat="43.4670818" lon="11.3714037"><ele>379.0</ele><time>2026-04-26T13:37:27.103Z</time></trkpt><trkpt lat="43.4672075" lon="11.3714921"><ele>379.0</ele><time>2026-04-26T13:37:28.088Z</time></trkpt><trkpt lat="43.4673184" lon="11.3715793"><ele>379.2</ele><time>2026-04-26T13:37:29.095Z</time></trkpt><trkpt lat="43.4674079" lon="11.3716712"><ele>379.4</ele><time>2026-04-26T13:37:30.085Z</time></trkpt><trkpt lat="43.4674822" lon="11.3717756"><ele>379.6</ele><time>2026-04-26T13:37:31.101Z</time></trkpt><trkpt lat="43.4675479" lon="11.3718979"><ele>379.8</ele><time>2026-04-26T13:37:32.099Z</time></trkpt><trkpt lat="43.4676109" lon="11.372038"><ele>380.0</ele><time>2026-04-26T13:37:33.104Z</time></trkpt><trkpt lat="43.4676712" lon="11.372193"><ele>379.0</ele><time>2026-04-26T13:37:34.091Z</time></trkpt><trkpt lat="43.4677314" lon="11.3723616"><ele>378.0</ele><time>2026-04-26T13:37:35.105Z</time></trkpt><trkpt lat="43.4677847" lon="11.3725282"><ele>377.0</ele><time>2026-04-26T13:37:36.091Z</time></trkpt><trkpt lat="43.4678242" lon="11.3726864"><ele>376.0</ele><time>2026-04-26T13:37:37.111Z</time></trkpt><trkpt lat="43.467847" lon="11.3728279"><ele>376.0</ele><time>2026-04-26T13:37:38.097Z</time></trkpt><trkpt lat="43.467858" lon="11.3729475"><ele>376.0</ele><time>2026-04-26T13:37:39.118Z</time></trkpt><trkpt lat="43.4678625" lon="11.373035"><ele>376.0</ele><time>2026-04-26T13:37:40.091Z</time></trkpt><trkpt lat="43.4678703" lon="11.3731338"><ele>376.0</ele><time>2026-04-26T13:37:42.094Z</time></trkpt><trkpt lat="43.4679324" lon="11.373253"><ele>376.0</ele><time>2026-04-26T13:37:45.094Z</time></trkpt><trkpt lat="43.468031" lon="11.3733083"><ele>376.0</ele><time>2026-04-26T13:37:47.083Z</time></trkpt><trkpt lat="43.4681528" lon="11.3733641"><ele>377.16666666666663</ele><time>2026-04-26T13:37:49.078Z</time></trkpt><trkpt lat="43.4682227" lon="11.373397"><ele>378.3333333333333</ele><time>2026-04-26T13:37:50.081Z</time></trkpt><trkpt lat="43.4682979" lon="11.3734322"><ele>379.5</ele><time>2026-04-26T13:37:51.086Z</time></trkpt><trkpt lat="43.4683777" lon="11.3734776"><ele>380.6666666666667</ele><time>2026-04-26T13:37:52.087Z</time></trkpt><trkpt lat="43.4684598" lon="11.3735416"><ele>381.83333333333337</ele><time>2026-04-26T13:37:53.092Z</time></trkpt><trkpt lat="43.4685424" lon="11.3736352"><ele>383.0</ele><time>2026-04-26T13:37:54.079Z</time></trkpt><trkpt lat="43.4686332" lon="11.3737605"><ele>383.0</ele><time>2026-04-26T13:37:55.098Z</time></trkpt><trkpt lat="43.468728" lon="11.3738988"><ele>383.0</ele><time>2026-04-26T13:37:56.1Z</time></trkpt><trkpt lat="43.4688265" lon="11.3740332"><ele>383.0</ele><time>2026-04-26T13:37:57.087Z</time></trkpt><trkpt lat="43.4689392" lon="11.3741412"><ele>383.0</ele><time>2026-04-26T13:37:58.096Z</time></trkpt><trkpt lat="43.4690689" lon="11.374212"><ele>383.5</ele><time>2026-04-26T13:37:59.083Z</time></trkpt><trkpt lat="43.4692117" lon="11.3742475"><ele>384.0</ele><time>2026-04-26T13:38:00.083Z</time></trkpt><trkpt lat="43.4693548" lon="11.3742581"><ele>384.5</ele><time>2026-04-26T13:38:01.073Z</time></trkpt><trkpt lat="43.4694977" lon="11.3742604"><ele>385.0</ele><time>2026-04-26T13:38:02.089Z</time></trkpt><trkpt lat="43.4696378" lon="11.3742616"><ele>387.33333333333337</ele><time>2026-04-26T13:38:03.083Z</time></trkpt><trkpt lat="43.4697836" lon="11.3742644"><ele>389.66666666666663</ele><time>2026-04-26T13:38:04.089Z</time></trkpt><trkpt lat="43.4699371" lon="11.374272"><ele>392.0</ele><time>2026-04-26T13:38:05.076Z</time></trkpt><trkpt lat="43.4700996" lon="11.3742814"><ele>392.0</ele><time>2026-04-26T13:38:06.089Z</time></trkpt><trkpt lat="43.4702617" lon="11.3742884"><ele>392.0</ele><time>2026-04-26T13:38:07.086Z</time></trkpt><trkpt lat="43.4704251" lon="11.3742968"><ele>392.0</ele><time>2026-04-26T13:38:08.083Z</time></trkpt><trkpt lat="43.4705918" lon="11.3742996"><ele>393.0</ele><time>2026-04-26T13:38:09.085Z</time></trkpt><trkpt lat="43.4707587" lon="11.3742962"><ele>394.0</ele><time>2026-04-26T13:38:10.093Z</time></trkpt><trkpt lat="43.4709214" lon="11.3742822"><ele>395.0</ele><time>2026-04-26T13:38:11.083Z</time></trkpt><trkpt lat="43.4710827" lon="11.3742536"><ele>395.0</ele><time>2026-04-26T13:38:12.091Z</time></trkpt><trkpt lat="43.4712444" lon="11.3742086"><ele>395.0</ele><time>2026-04-26T13:38:13.107Z</time></trkpt><trkpt lat="43.4714082" lon="11.3741531"><ele>395.0</ele><time>2026-04-26T13:38:14.087Z</time></trkpt><trkpt lat="43.4715801" lon="11.3740972"><ele>395.66666666666663</ele><time>2026-04-26T13:38:15.094Z</time></trkpt><trkpt lat="43.4717533" lon="11.3740471"><ele>396.33333333333337</ele><time>2026-04-26T13:38:16.095Z</time></trkpt><trkpt lat="43.4719249" lon="11.3740019"><ele>397.0</ele><time>2026-04-26T13:38:17.098Z</time></trkpt><trkpt lat="43.4720881" lon="11.3739635"><ele>399.0</ele><time>2026-04-26T13:38:18.09Z</time></trkpt><trkpt lat="43.47224" lon="11.3739388"><ele>401.0</ele><time>2026-04-26T13:38:19.095Z</time></trkpt><trkpt lat="43.4723869" lon="11.3739423"><ele>403.0</ele><time>2026-04-26T13:38:20.098Z</time></trkpt><trkpt lat="43.4725357" lon="11.3739841"><ele>403.0</ele><time>2026-04-26T13:38:21.077Z</time></trkpt><trkpt lat="43.4726925" lon="11.3740646"><ele>403.0</ele><time>2026-04-26T13:38:22.092Z</time></trkpt><trkpt lat="43.4728522" lon="11.3741628"><ele>403.0</ele><time>2026-04-26T13:38:23.083Z</time></trkpt><trkpt lat="43.4730078" lon="11.3742563"><ele>405.75</ele><time>2026-04-26T13:38:24.09Z</time></trkpt><trkpt lat="43.473152" lon="11.3743326"><ele>408.5</ele><time>2026-04-26T13:38:25.091Z</time></trkpt><trkpt lat="43.4732837" lon="11.3743844"><ele>411.25</ele><time>2026-04-26T13:38:26.094Z</time></trkpt><trkpt lat="43.4734075" lon="11.374406"><ele>414.0</ele><time>2026-04-26T13:38:27.087Z</time></trkpt><trkpt lat="43.4735324" lon="11.3743888"><ele>414.0</ele><time>2026-04-26T13:38:28.094Z</time></trkpt><trkpt lat="43.473654" lon="11.3743252"><ele>414.0</ele><time>2026-04-26T13:38:29.095Z</time></trkpt><trkpt lat="43.4737673" lon="11.3742181"><ele>414.0</ele><time>2026-04-26T13:38:30.085Z</time></trkpt><trkpt lat="43.4738712" lon="11.3740704"><ele>414.0</ele><time>2026-04-26T13:38:31.092Z</time></trkpt><trkpt lat="43.4739684" lon="11.3739037"><ele>417.75</ele><time>2026-04-26T13:38:32.085Z</time></trkpt><trkpt lat="43.474068" lon="11.3737546"><ele>421.5</ele><time>2026-04-26T13:38:33.085Z</time></trkpt><trkpt lat="43.4741778" lon="11.3736428"><ele>425.25</ele><time>2026-04-26T13:38:34.085Z</time></trkpt><trkpt lat="43.4742922" lon="11.3735739"><ele>429.0</ele><time>2026-04-26T13:38:35.071Z</time></trkpt><trkpt lat="43.4744041" lon="11.3735567"><ele>429.0</ele><time>2026-04-26T13:38:36.073Z</time></trkpt><trkpt lat="43.474513" lon="11.3735918"><ele>429.0</ele><time>2026-04-26T13:38:37.079Z</time></trkpt><trkpt lat="43.4746121" lon="11.3736766"><ele>429.0</ele><time>2026-04-26T13:38:38.073Z</time></trkpt><trkpt lat="43.4747051" lon="11.3737928"><ele>429.0</ele><time>2026-04-26T13:38:39.08Z</time></trkpt><trkpt lat="43.4748075" lon="11.3738874"><ele>426.75</ele><time>2026-04-26T13:38:40.088Z</time></trkpt><trkpt lat="43.474929" lon="11.3739276"><ele>424.5</ele><time>2026-04-26T13:38:41.089Z</time></trkpt><trkpt lat="43.4750679" lon="11.3739263"><ele>422.25</ele><time>2026-04-26T13:38:42.092Z</time></trkpt><trkpt lat="43.4752174" lon="11.3739086"><ele>420.0</ele><time>2026-04-26T13:38:43.078Z</time></trkpt><trkpt lat="43.4753735" lon="11.3738855"><ele>422.0</ele><time>2026-04-26T13:38:44.092Z</time></trkpt><trkpt lat="43.4755331" lon="11.3738586"><ele>424.0</ele><time>2026-04-26T13:38:45.083Z</time></trkpt><trkpt lat="43.4756997" lon="11.3738333"><ele>426.0</ele><time>2026-04-26T13:38:46.091Z</time></trkpt><trkpt lat="43.4758605" lon="11.3738141"><ele>428.0</ele><time>2026-04-26T13:38:47.093Z</time></trkpt><trkpt lat="43.4760069" lon="11.3737978"><ele>430.0</ele><time>2026-04-26T13:38:48.097Z</time></trkpt><trkpt lat="43.4761345" lon="11.3737854"><ele>432.0</ele><time>2026-04-26T13:38:49.083Z</time></trkpt><trkpt lat="43.4762479" lon="11.3737792"><ele>434.0</ele><time>2026-04-26T13:38:50.102Z</time></trkpt><trkpt lat="43.4763503" lon="11.3737613"><ele>434.0</ele><time>2026-04-26T13:38:51.093Z</time></trkpt><trkpt lat="43.4764422" lon="11.3737064"><ele>434.0</ele><time>2026-04-26T13:38:52.106Z</time></trkpt><trkpt lat="43.4765094" lon="11.3736064"><ele>434.0</ele><time>2026-04-26T13:38:53.1Z</time></trkpt><trkpt lat="43.4765519" lon="11.3734666"><ele>434.0</ele><time>2026-04-26T13:38:54.102Z</time></trkpt><trkpt lat="43.4765805" lon="11.3732943"><ele>434.0</ele><time>2026-04-26T13:38:55.106Z</time></trkpt><trkpt lat="43.4766068" lon="11.3730943"><ele>438.0</ele><time>2026-04-26T13:38:56.098Z</time></trkpt><trkpt lat="43.4766357" lon="11.3728693"><ele>442.0</ele><time>2026-04-26T13:38:57.107Z</time></trkpt><trkpt lat="43.4766651" lon="11.3726426"><ele>446.0</ele><time>2026-04-26T13:38:58.089Z</time></trkpt><trkpt lat="43.4766924" lon="11.3724293"><ele>446.0</ele><time>2026-04-26T13:38:59.091Z</time></trkpt><trkpt lat="43.4767168" lon="11.3722425"><ele>446.0</ele><time>2026-04-26T13:39:00.082Z</time></trkpt><trkpt lat="43.4767493" lon="11.3720821"><ele>446.0</ele><time>2026-04-26T13:39:01.082Z</time></trkpt><trkpt lat="43.4768021" lon="11.3719584"><ele>446.0</ele><time>2026-04-26T13:39:02.074Z</time></trkpt><trkpt lat="43.4768855" lon="11.3718745"><ele>448.25</ele><time>2026-04-26T13:39:03.084Z</time></trkpt><trkpt lat="43.476996" lon="11.3718329"><ele>450.5</ele><time>2026-04-26T13:39:04.074Z</time></trkpt><trkpt lat="43.4771248" lon="11.3718365"><ele>452.75</ele><time>2026-04-26T13:39:05.094Z</time></trkpt><trkpt lat="43.4772599" lon="11.37188"><ele>455.0</ele><time>2026-04-26T13:39:06.094Z</time></trkpt><trkpt lat="43.4773961" lon="11.3719457"><ele>454.75</ele><time>2026-04-26T13:39:07.093Z</time></trkpt><trkpt lat="43.4775344" lon="11.3719958"><ele>454.5</ele><time>2026-04-26T13:39:08.093Z</time></trkpt><trkpt lat="43.4776833" lon="11.372007"><ele>454.25</ele><time>2026-04-26T13:39:09.1Z</time></trkpt><trkpt lat="43.4778321" lon="11.3719878"><ele>454.0</ele><time>2026-04-26T13:39:10.101Z</time></trkpt><trkpt lat="43.4779592" lon="11.3719451"><ele>454.0</ele><time>2026-04-26T13:39:11.103Z</time></trkpt><trkpt lat="43.478069" lon="11.3718722"><ele>454.0</ele><time>2026-04-26T13:39:12.093Z</time></trkpt><trkpt lat="43.4781633" lon="11.3717612"><ele>454.0</ele><time>2026-04-26T13:39:13.097Z</time></trkpt><trkpt lat="43.4782279" lon="11.3716242"><ele>454.0</ele><time>2026-04-26T13:39:14.102Z</time></trkpt><trkpt lat="43.4782556" lon="11.3714778"><ele>456.25</ele><time>2026-04-26T13:39:15.109Z</time></trkpt><trkpt lat="43.4782495" lon="11.3713194"><ele>458.5</ele><time>2026-04-26T13:39:16.1Z</time></trkpt><trkpt lat="43.4782178" lon="11.3711436"><ele>460.75</ele><time>2026-04-26T13:39:17.11Z</time></trkpt><trkpt lat="43.4781703" lon="11.370957"><ele>463.0</ele><time>2026-04-26T13:39:18.098Z</time></trkpt><trkpt lat="43.4781156" lon="11.3707585"><ele>463.0</ele><time>2026-04-26T13:39:19.101Z</time></trkpt><trkpt lat="43.4780608" lon="11.3705526"><ele>463.0</ele><time>2026-04-26T13:39:20.101Z</time></trkpt><trkpt lat="43.4780151" lon="11.3703561"><ele>463.0</ele><time>2026-04-26T13:39:21.082Z</time></trkpt><trkpt lat="43.4779873" lon="11.3701795"><ele>463.0</ele><time>2026-04-26T13:39:22.085Z</time></trkpt><trkpt lat="43.4779829" lon="11.3700278"><ele>464.59999999999997</ele><time>2026-04-26T13:39:23.084Z</time></trkpt><trkpt lat="43.4780125" lon="11.3699096"><ele>466.19999999999993</ele><time>2026-04-26T13:39:24.077Z</time></trkpt><trkpt lat="43.4780814" lon="11.3698291"><ele>467.8</ele><time>2026-04-26T13:39:25.08Z</time></trkpt><trkpt lat="43.4781808" lon="11.3697954"><ele>469.4</ele><time>2026-04-26T13:39:26.081Z</time></trkpt><trkpt lat="43.4783025" lon="11.3698027"><ele>471.0</ele><time>2026-04-26T13:39:27.073Z</time></trkpt><trkpt lat="43.4784382" lon="11.3698244"><ele>471.0</ele><time>2026-04-26T13:39:28.088Z</time></trkpt><trkpt lat="43.4785743" lon="11.3698194"><ele>471.0</ele><time>2026-04-26T13:39:29.098Z</time></trkpt><trkpt lat="43.4787054" lon="11.3697559"><ele>471.0</ele><time>2026-04-26T13:39:30.1Z</time></trkpt><trkpt lat="43.4788276" lon="11.3696406"><ele>471.0</ele><time>2026-04-26T13:39:31.089Z</time></trkpt><trkpt lat="43.4789453" lon="11.3694851"><ele>474.33333333333337</ele><time>2026-04-26T13:39:32.098Z</time></trkpt><trkpt lat="43.4790637" lon="11.3693046"><ele>477.6666666666667</ele><time>2026-04-26T13:39:33.105Z</time></trkpt><trkpt lat="43.4791921" lon="11.3691166"><ele>481.0</ele><time>2026-04-26T13:39:34.107Z</time></trkpt><trkpt lat="43.4793258" lon="11.3689252"><ele>481.33333333333337</ele><time>2026-04-26T13:39:35.1Z</time></trkpt><trkpt lat="43.4794606" lon="11.3687356"><ele>481.66666666666663</ele><time>2026-04-26T13:39:36.101Z</time></trkpt><trkpt lat="43.4795922" lon="11.3685495"><ele>482.0</ele><time>2026-04-26T13:39:37.101Z</time></trkpt><trkpt lat="43.4797215" lon="11.3683651"><ele>482.0</ele><time>2026-04-26T13:39:38.095Z</time></trkpt><trkpt lat="43.4798478" lon="11.3681837"><ele>482.0</ele><time>2026-04-26T13:39:39.099Z</time></trkpt><trkpt lat="43.4799647" lon="11.3680193"><ele>482.0</ele><time>2026-04-26T13:39:40.088Z</time></trkpt><trkpt lat="43.4800725" lon="11.3678732"><ele>483.6</ele><time>2026-04-26T13:39:41.098Z</time></trkpt><trkpt lat="43.4801708" lon="11.3677566"><ele>485.20000000000005</ele><time>2026-04-26T13:39:42.088Z</time></trkpt><trkpt lat="43.4802681" lon="11.3676823"><ele>486.8</ele><time>2026-04-26T13:39:43.097Z</time></trkpt><trkpt lat="43.4803658" lon="11.367671"><ele>488.4</ele><time>2026-04-26T13:39:44.09Z</time></trkpt><trkpt lat="43.4804587" lon="11.3677078"><ele>490.0</ele><time>2026-04-26T13:39:45.103Z</time></trkpt><trkpt lat="43.4805515" lon="11.3677467"><ele>490.0</ele><time>2026-04-26T13:39:46.09Z</time></trkpt><trkpt lat="43.4806555" lon="11.3677551"><ele>490.0</ele><time>2026-04-26T13:39:47.1Z</time></trkpt><trkpt lat="43.4807596" lon="11.3677114"><ele>490.0</ele><time>2026-04-26T13:39:48.097Z</time></trkpt><trkpt lat="43.4808534" lon="11.367608"><ele>490.0</ele><time>2026-04-26T13:39:49.089Z</time></trkpt><trkpt lat="43.4809421" lon="11.3674641"><ele>490.0</ele><time>2026-04-26T13:39:50.094Z</time></trkpt><trkpt lat="43.4810305" lon="11.3673212"><ele>490.0</ele><time>2026-04-26T13:39:51.083Z</time></trkpt><trkpt lat="43.481129" lon="11.367217"><ele>490.0</ele><time>2026-04-26T13:39:52.086Z</time></trkpt><trkpt lat="43.4812464" lon="11.3671593"><ele>490.0</ele><time>2026-04-26T13:39:53.091Z</time></trkpt><trkpt lat="43.48138" lon="11.3671424"><ele>491.5</ele><time>2026-04-26T13:39:54.105Z</time></trkpt><trkpt lat="43.4815227" lon="11.3671424"><ele>493.0</ele><time>2026-04-26T13:39:55.114Z</time></trkpt><trkpt lat="43.481661" lon="11.3671221"><ele>494.5</ele><time>2026-04-26T13:39:56.103Z</time></trkpt><trkpt lat="43.4817899" lon="11.3670564"><ele>496.0</ele><time>2026-04-26T13:39:57.108Z</time></trkpt><trkpt lat="43.4819039" lon="11.3669457"><ele>496.0</ele><time>2026-04-26T13:39:58.1Z</time></trkpt><trkpt lat="43.4820066" lon="11.3668023"><ele>496.0</ele><time>2026-04-26T13:39:59.103Z</time></trkpt><trkpt lat="43.4821019" lon="11.3666536"><ele>496.0</ele><time>2026-04-26T13:40:00.093Z</time></trkpt><trkpt lat="43.4821968" lon="11.3665331"><ele>496.0</ele><time>2026-04-26T13:40:01.099Z</time></trkpt><trkpt lat="43.4822999" lon="11.366446"><ele>495.0</ele><time>2026-04-26T13:40:02.104Z</time></trkpt><trkpt lat="43.4824158" lon="11.3664044"><ele>494.0</ele><time>2026-04-26T13:40:03.094Z</time></trkpt><trkpt lat="43.4825435" lon="11.366412"><ele>493.0</ele><time>2026-04-26T13:40:04.099Z</time></trkpt><trkpt lat="43.4826807" lon="11.3664471"><ele>492.0</ele><time>2026-04-26T13:40:05.104Z</time></trkpt><trkpt lat="43.4828223" lon="11.3664885"><ele>492.25</ele><time>2026-04-26T13:40:06.108Z</time></trkpt><trkpt lat="43.4829545" lon="11.3665172"><ele>492.5</ele><time>2026-04-26T13:40:07.091Z</time></trkpt><trkpt lat="43.4830748" lon="11.366515"><ele>492.75</ele><time>2026-04-26T13:40:08.106Z</time></trkpt><trkpt lat="43.4831893" lon="11.3664725"><ele>493.0</ele><time>2026-04-26T13:40:09.099Z</time></trkpt><trkpt lat="43.4833041" lon="11.3663922"><ele>496.5</ele><time>2026-04-26T13:40:10.103Z</time></trkpt><trkpt lat="43.4834148" lon="11.3662813"><ele>500.0</ele><time>2026-04-26T13:40:11.095Z</time></trkpt><trkpt lat="43.4835203" lon="11.3661457"><ele>503.5</ele><time>2026-04-26T13:40:12.095Z</time></trkpt><trkpt lat="43.4836192" lon="11.365999"><ele>507.0</ele><time>2026-04-26T13:40:13.086Z</time></trkpt><trkpt lat="43.4837105" lon="11.3658573"><ele>505.8</ele><time>2026-04-26T13:40:14.093Z</time></trkpt><trkpt lat="43.483793" lon="11.3657373"><ele>504.6</ele><time>2026-04-26T13:40:15.084Z</time></trkpt><trkpt lat="43.4838702" lon="11.3656416"><ele>503.40000000000003</ele><time>2026-04-26T13:40:16.093Z</time></trkpt><trkpt lat="43.483938" lon="11.3655771"><ele>502.20000000000005</ele><time>2026-04-26T13:40:17.088Z</time></trkpt><trkpt lat="43.4839987" lon="11.3655401"><ele>501.0</ele><time>2026-04-26T13:40:18.091Z</time></trkpt><trkpt lat="43.4841295" lon="11.365547"><ele>501.0</ele><time>2026-04-26T13:40:20.107Z</time></trkpt><trkpt lat="43.4842076" lon="11.3655921"><ele>501.0</ele><time>2026-04-26T13:40:21.099Z</time></trkpt><trkpt lat="43.484287" lon="11.3656602"><ele>501.0</ele><time>2026-04-26T13:40:22.105Z</time></trkpt><trkpt lat="43.4843545" lon="11.3657458"><ele>501.0</ele><time>2026-04-26T13:40:23.109Z</time></trkpt><trkpt lat="43.4843978" lon="11.3658472"><ele>501.0</ele><time>2026-04-26T13:40:24.095Z</time></trkpt><trkpt lat="43.484414" lon="11.3659675"><ele>501.0</ele><time>2026-04-26T13:40:25.114Z</time></trkpt><trkpt lat="43.484408" lon="11.3661026"><ele>501.0</ele><time>2026-04-26T13:40:26.1Z</time></trkpt><trkpt lat="43.4843908" lon="11.3662502"><ele>501.0</ele><time>2026-04-26T13:40:27.107Z</time></trkpt><trkpt lat="43.484372" lon="11.3663982"><ele>501.0</ele><time>2026-04-26T13:40:28.094Z</time></trkpt><trkpt lat="43.4843599" lon="11.3665413"><ele>501.0</ele><time>2026-04-26T13:40:29.103Z</time></trkpt><trkpt lat="43.4843615" lon="11.36668"><ele>501.0</ele><time>2026-04-26T13:40:30.093Z</time></trkpt><trkpt lat="43.4843831" lon="11.3668224"><ele>499.5</ele><time>2026-04-26T13:40:31.102Z</time></trkpt><trkpt lat="43.4844205" lon="11.3669686"><ele>498.0</ele><time>2026-04-26T13:40:32.103Z</time></trkpt><trkpt lat="43.484461" lon="11.3671204"><ele>496.5</ele><time>2026-04-26T13:40:33.094Z</time></trkpt><trkpt lat="43.4845001" lon="11.367278"><ele>495.0</ele><time>2026-04-26T13:40:34.105Z</time></trkpt><trkpt lat="43.4845396" lon="11.3674411"><ele>494.75</ele><time>2026-04-26T13:40:35.098Z</time></trkpt><trkpt lat="43.484578" lon="11.3676166"><ele>494.5</ele><time>2026-04-26T13:40:36.097Z</time></trkpt><trkpt lat="43.4846122" lon="11.3678053"><ele>494.25</ele><time>2026-04-26T13:40:37.106Z</time></trkpt><trkpt lat="43.4846411" lon="11.3680066"><ele>494.0</ele><time>2026-04-26T13:40:38.09Z</time></trkpt><trkpt lat="43.4846682" lon="11.368215"><ele>496.0</ele><time>2026-04-26T13:40:39.095Z</time></trkpt><trkpt lat="43.4846952" lon="11.3684113"><ele>498.0</ele><time>2026-04-26T13:40:40.075Z</time></trkpt><trkpt lat="43.48472" lon="11.368589"><ele>500.0</ele><time>2026-04-26T13:40:41.089Z</time></trkpt><trkpt lat="43.484739" lon="11.3687542"><ele>502.0</ele><time>2026-04-26T13:40:42.095Z</time></trkpt><trkpt lat="43.4847568" lon="11.3689213"><ele>503.25</ele><time>2026-04-26T13:40:43.1Z</time></trkpt><trkpt lat="43.4847831" lon="11.369091"><ele>504.5</ele><time>2026-04-26T13:40:44.122Z</time></trkpt><trkpt lat="43.4848312" lon="11.3692557"><ele>505.75</ele><time>2026-04-26T13:40:45.1Z</time></trkpt><trkpt lat="43.4849083" lon="11.369416"><ele>507.0</ele><time>2026-04-26T13:40:46.105Z</time></trkpt><trkpt lat="43.4850105" lon="11.3695652"><ele>508.25</ele><time>2026-04-26T13:40:47.116Z</time></trkpt><trkpt lat="43.4851264" lon="11.3696944"><ele>509.5</ele><time>2026-04-26T13:40:48.094Z</time></trkpt><trkpt lat="43.4852547" lon="11.3697944"><ele>510.75</ele><time>2026-04-26T13:40:49.097Z</time></trkpt><trkpt lat="43.4853868" lon="11.3698545"><ele>512.0</ele><time>2026-04-26T13:40:50.089Z</time></trkpt><trkpt lat="43.4855117" lon="11.3698889"><ele>512.0</ele><time>2026-04-26T13:40:51.097Z</time></trkpt><trkpt lat="43.4856233" lon="11.3699269"><ele>512.0</ele><time>2026-04-26T13:40:52.089Z</time></trkpt><trkpt lat="43.4857263" lon="11.3699893"><ele>512.0</ele><time>2026-04-26T13:40:53.086Z</time></trkpt><trkpt lat="43.4858226" lon="11.3700835"><ele>512.0</ele><time>2026-04-26T13:40:54.092Z</time></trkpt><trkpt lat="43.4859062" lon="11.3702054"><ele>512.0</ele><time>2026-04-26T13:40:55.094Z</time></trkpt><trkpt lat="43.4859748" lon="11.3703524"><ele>512.0</ele><time>2026-04-26T13:40:56.095Z</time></trkpt><trkpt lat="43.4860341" lon="11.3705211"><ele>512.0</ele><time>2026-04-26T13:40:57.097Z</time></trkpt><trkpt lat="43.4860923" lon="11.3707037"><ele>512.0</ele><time>2026-04-26T13:40:58.085Z</time></trkpt><trkpt lat="43.4861506" lon="11.3708973"><ele>513.75</ele><time>2026-04-26T13:40:59.105Z</time></trkpt><trkpt lat="43.4862031" lon="11.3710928"><ele>515.5</ele><time>2026-04-26T13:41:00.091Z</time></trkpt><trkpt lat="43.4862439" lon="11.371293"><ele>517.25</ele><time>2026-04-26T13:41:01.096Z</time></trkpt><trkpt lat="43.4862732" lon="11.3714909"><ele>519.0</ele><time>2026-04-26T13:41:02.089Z</time></trkpt><trkpt lat="43.4862947" lon="11.371686"><ele>518.0</ele><time>2026-04-26T13:41:03.092Z</time></trkpt><trkpt lat="43.4863128" lon="11.3718698"><ele>517.0</ele><time>2026-04-26T13:41:04.081Z</time></trkpt><trkpt lat="43.4863299" lon="11.3720395"><ele>516.0</ele><time>2026-04-26T13:41:05.079Z</time></trkpt><trkpt lat="43.4863456" lon="11.3721911"><ele>515.0</ele><time>2026-04-26T13:41:06.074Z</time></trkpt><trkpt lat="43.486362" lon="11.3723322"><ele>515.0</ele><time>2026-04-26T13:41:07.088Z</time></trkpt><trkpt lat="43.4863772" lon="11.3724683"><ele>515.0</ele><time>2026-04-26T13:41:08.092Z</time></trkpt><trkpt lat="43.4863901" lon="11.3725946"><ele>515.0</ele><time>2026-04-26T13:41:09.095Z</time></trkpt><trkpt lat="43.4864012" lon="11.3727091"><ele>515.0</ele><time>2026-04-26T13:41:10.097Z</time></trkpt><trkpt lat="43.4864089" lon="11.3728141"><ele>515.0</ele><time>2026-04-26T13:41:11.099Z</time></trkpt><trkpt lat="43.4864144" lon="11.3729107"><ele>515.0</ele><time>2026-04-26T13:41:12.11Z</time></trkpt><trkpt lat="43.4864126" lon="11.3730713"><ele>515.6666666666666</ele><time>2026-04-26T13:41:14.102Z</time></trkpt><trkpt lat="43.4863896" lon="11.3732343"><ele>516.3333333333333</ele><time>2026-04-26T13:41:16.117Z</time></trkpt><trkpt lat="43.486373" lon="11.3733207"><ele>517.0</ele><time>2026-04-26T13:41:17.096Z</time></trkpt><trkpt lat="43.4863516" lon="11.373414"><ele>517.6666666666666</ele><time>2026-04-26T13:41:18.093Z</time></trkpt><trkpt lat="43.486325" lon="11.3735103"><ele>518.3333333333334</ele><time>2026-04-26T13:41:19.097Z</time></trkpt><trkpt lat="43.4862937" lon="11.3736104"><ele>519.0</ele><time>2026-04-26T13:41:20.097Z</time></trkpt><trkpt lat="43.4862589" lon="11.3737211"><ele>519.0</ele><time>2026-04-26T13:41:21.102Z</time></trkpt><trkpt lat="43.4862236" lon="11.3738411"><ele>519.0</ele><time>2026-04-26T13:41:22.092Z</time></trkpt><trkpt lat="43.4861892" lon="11.3739704"><ele>519.0</ele><time>2026-04-26T13:41:23.099Z</time></trkpt><trkpt lat="43.4861584" lon="11.374103"><ele>519.0</ele><time>2026-04-26T13:41:24.096Z</time></trkpt><trkpt lat="43.4861349" lon="11.3742327"><ele>519.0</ele><time>2026-04-26T13:41:25.107Z</time></trkpt><trkpt lat="43.4861257" lon="11.3743564"><ele>518.8</ele><time>2026-04-26T13:41:26.094Z</time></trkpt><trkpt lat="43.486137" lon="11.3744741"><ele>518.5999999999999</ele><time>2026-04-26T13:41:27.082Z</time></trkpt><trkpt lat="43.4861639" lon="11.3745774"><ele>518.4</ele><time>2026-04-26T13:41:28.083Z</time></trkpt><trkpt lat="43.4861974" lon="11.3746575"><ele>518.1999999999999</ele><time>2026-04-26T13:41:29.073Z</time></trkpt><trkpt lat="43.4862531" lon="11.3747678"><ele>518.0</ele><time>2026-04-26T13:41:31.083Z</time></trkpt><trkpt lat="43.4863351" lon="11.3748988"><ele>520.8</ele><time>2026-04-26T13:41:33.094Z</time></trkpt><trkpt lat="43.4863912" lon="11.3749881"><ele>523.5999999999999</ele><time>2026-04-26T13:41:34.089Z</time></trkpt><trkpt lat="43.4864542" lon="11.3750895"><ele>526.4000000000001</ele><time>2026-04-26T13:41:35.094Z</time></trkpt><trkpt lat="43.48652" lon="11.3751984"><ele>529.2</ele><time>2026-04-26T13:41:36.083Z</time></trkpt><trkpt lat="43.4865871" lon="11.3753117"><ele>532.0</ele><time>2026-04-26T13:41:37.088Z</time></trkpt><trkpt lat="43.4866538" lon="11.3754227"><ele>530.3333333333334</ele><time>2026-04-26T13:41:38.092Z</time></trkpt><trkpt lat="43.4867185" lon="11.3755261"><ele>528.6666666666667</ele><time>2026-04-26T13:41:39.083Z</time></trkpt><trkpt lat="43.4867747" lon="11.3756206"><ele>527.0</ele><time>2026-04-26T13:41:40.091Z</time></trkpt><trkpt lat="43.4868194" lon="11.375702"><ele>525.3333333333334</ele><time>2026-04-26T13:41:41.095Z</time></trkpt><trkpt lat="43.4868556" lon="11.3757742"><ele>523.6666666666666</ele><time>2026-04-26T13:41:42.097Z</time></trkpt><trkpt lat="43.4868996" lon="11.3759325"><ele>522.0</ele><time>2026-04-26T13:41:44.099Z</time></trkpt><trkpt lat="43.4869097" lon="11.3760305"><ele>522.0</ele><time>2026-04-26T13:41:45.084Z</time></trkpt><trkpt lat="43.4869147" lon="11.3761529"><ele>522.0</ele><time>2026-04-26T13:41:46.095Z</time></trkpt><trkpt lat="43.486908" lon="11.3762983"><ele>522.0</ele><time>2026-04-26T13:41:47.106Z</time></trkpt><trkpt lat="43.4868921" lon="11.3764591"><ele>522.0</ele><time>2026-04-26T13:41:48.084Z</time></trkpt><trkpt lat="43.4868731" lon="11.3766284"><ele>522.0</ele><time>2026-04-26T13:41:49.1Z</time></trkpt><trkpt lat="43.4868574" lon="11.3768002"><ele>520.25</ele><time>2026-04-26T13:41:50.097Z</time></trkpt><trkpt lat="43.4868446" lon="11.3769811"><ele>518.5</ele><time>2026-04-26T13:41:51.082Z</time></trkpt><trkpt lat="43.4868326" lon="11.3771615"><ele>516.75</ele><time>2026-04-26T13:41:52.084Z</time></trkpt><trkpt lat="43.4868211" lon="11.3773326"><ele>515.0</ele><time>2026-04-26T13:41:53.086Z</time></trkpt><trkpt lat="43.4868115" lon="11.3774958"><ele>515.0</ele><time>2026-04-26T13:41:54.074Z</time></trkpt><trkpt lat="43.4868054" lon="11.3776572"><ele>515.0</ele><time>2026-04-26T13:41:55.083Z</time></trkpt><trkpt lat="43.4868103" lon="11.3778212"><ele>515.0</ele><time>2026-04-26T13:41:56.095Z</time></trkpt><trkpt lat="43.4868325" lon="11.3779961"><ele>515.0</ele><time>2026-04-26T13:41:57.119Z</time></trkpt><trkpt lat="43.4868682" lon="11.3781697"><ele>516.0</ele><time>2026-04-26T13:41:58.1Z</time></trkpt><trkpt lat="43.486916" lon="11.3783359"><ele>517.0</ele><time>2026-04-26T13:41:59.103Z</time></trkpt><trkpt lat="43.4869756" lon="11.3784913"><ele>518.0</ele><time>2026-04-26T13:42:00.094Z</time></trkpt><trkpt lat="43.4870467" lon="11.3786377"><ele>519.0</ele><time>2026-04-26T13:42:01.106Z</time></trkpt><trkpt lat="43.4871259" lon="11.3787788"><ele>515.75</ele><time>2026-04-26T13:42:02.107Z</time></trkpt><trkpt lat="43.4872088" lon="11.3789272"><ele>512.5</ele><time>2026-04-26T13:42:03.094Z</time></trkpt><trkpt lat="43.4872932" lon="11.3790855"><ele>509.25</ele><time>2026-04-26T13:42:04.108Z</time></trkpt><trkpt lat="43.4873751" lon="11.3792389"><ele>506.0</ele><time>2026-04-26T13:42:05.1Z</time></trkpt><trkpt lat="43.4874607" lon="11.3793796"><ele>506.0</ele><time>2026-04-26T13:42:06.11Z</time></trkpt><trkpt lat="43.4875562" lon="11.3794941"><ele>506.0</ele><time>2026-04-26T13:42:07.096Z</time></trkpt><trkpt lat="43.4876548" lon="11.3795922"><ele>506.0</ele><time>2026-04-26T13:42:08.1Z</time></trkpt><trkpt lat="43.4877374" lon="11.3796982"><ele>506.0</ele><time>2026-04-26T13:42:09.083Z</time></trkpt><trkpt lat="43.487797" lon="11.3798283"><ele>505.25</ele><time>2026-04-26T13:42:10.098Z</time></trkpt><trkpt lat="43.4878329" lon="11.3799838"><ele>504.5</ele><time>2026-04-26T13:42:11.102Z</time></trkpt><trkpt lat="43.4878548" lon="11.3801651"><ele>503.75</ele><time>2026-04-26T13:42:12.111Z</time></trkpt><trkpt lat="43.4878731" lon="11.3803653"><ele>503.0</ele><time>2026-04-26T13:42:13.101Z</time></trkpt><trkpt lat="43.4878963" lon="11.3805796"><ele>496.3333333333333</ele><time>2026-04-26T13:42:14.088Z</time></trkpt><trkpt lat="43.4879274" lon="11.3808006"><ele>489.66666666666663</ele><time>2026-04-26T13:42:15.1Z</time></trkpt><trkpt lat="43.4879696" lon="11.3810121"><ele>483.0</ele><time>2026-04-26T13:42:16.088Z</time></trkpt><trkpt lat="43.4880232" lon="11.3812175"><ele>484.0</ele><time>2026-04-26T13:42:17.084Z</time></trkpt><trkpt lat="43.4880873" lon="11.3814263"><ele>485.0</ele><time>2026-04-26T13:42:18.079Z</time></trkpt><trkpt lat="43.4881626" lon="11.3816359"><ele>486.0</ele><time>2026-04-26T13:42:19.095Z</time></trkpt><trkpt lat="43.4882424" lon="11.3818347"><ele>486.0</ele><time>2026-04-26T13:42:20.098Z</time></trkpt><trkpt lat="43.4883251" lon="11.3820246"><ele>486.0</ele><time>2026-04-26T13:42:21.1Z</time></trkpt><trkpt lat="43.4884125" lon="11.3822038"><ele>486.0</ele><time>2026-04-26T13:42:22.105Z</time></trkpt><trkpt lat="43.4885077" lon="11.3823681"><ele>484.0</ele><time>2026-04-26T13:42:23.109Z</time></trkpt><trkpt lat="43.4886113" lon="11.382514"><ele>482.0</ele><time>2026-04-26T13:42:24.097Z</time></trkpt><trkpt lat="43.488729" lon="11.3826448"><ele>480.0</ele><time>2026-04-26T13:42:25.119Z</time></trkpt><trkpt lat="43.4888593" lon="11.3827654"><ele>479.33333333333337</ele><time>2026-04-26T13:42:26.103Z</time></trkpt><trkpt lat="43.4890033" lon="11.3828943"><ele>478.6666666666667</ele><time>2026-04-26T13:42:27.114Z</time></trkpt><trkpt lat="43.4891512" lon="11.3830334"><ele>478.0</ele><time>2026-04-26T13:42:28.103Z</time></trkpt><trkpt lat="43.4892962" lon="11.3831808"><ele>475.33333333333337</ele><time>2026-04-26T13:42:29.111Z</time></trkpt><trkpt lat="43.4894333" lon="11.383327"><ele>472.66666666666663</ele><time>2026-04-26T13:42:30.11Z</time></trkpt><trkpt lat="43.4895666" lon="11.3834686"><ele>470.0</ele><time>2026-04-26T13:42:31.119Z</time></trkpt><trkpt lat="43.4896891" lon="11.3836022"><ele>468.25</ele><time>2026-04-26T13:42:32.099Z</time></trkpt><trkpt lat="43.4897964" lon="11.3837342"><ele>466.5</ele><time>2026-04-26T13:42:33.101Z</time></trkpt><trkpt lat="43.4898822" lon="11.3838655"><ele>464.75</ele><time>2026-04-26T13:42:34.084Z</time></trkpt><trkpt lat="43.4899466" lon="11.383997"><ele>463.0</ele><time>2026-04-26T13:42:35.096Z</time></trkpt><trkpt lat="43.4899928" lon="11.3841284"><ele>463.0</ele><time>2026-04-26T13:42:36.089Z</time></trkpt><trkpt lat="43.4900216" lon="11.3842727"><ele>463.0</ele><time>2026-04-26T13:42:37.104Z</time></trkpt><trkpt lat="43.4900394" lon="11.3844296"><ele>463.0</ele><time>2026-04-26T13:42:38.109Z</time></trkpt><trkpt lat="43.4900633" lon="11.3845947"><ele>463.0</ele><time>2026-04-26T13:42:39.105Z</time></trkpt><trkpt lat="43.4901037" lon="11.3847532"><ele>462.0</ele><time>2026-04-26T13:42:40.096Z</time></trkpt><trkpt lat="43.4901612" lon="11.3848907"><ele>460.99999999999994</ele><time>2026-04-26T13:42:41.106Z</time></trkpt><trkpt lat="43.4902251" lon="11.385011"><ele>459.99999999999994</ele><time>2026-04-26T13:42:42.089Z</time></trkpt><trkpt lat="43.4902777" lon="11.3851402"><ele>459.0</ele><time>2026-04-26T13:42:43.099Z</time></trkpt><trkpt lat="43.4903028" lon="11.385292"><ele>458.0</ele><time>2026-04-26T13:42:44.1Z</time></trkpt><trkpt lat="43.4903056" lon="11.3854634"><ele>458.25</ele><time>2026-04-26T13:42:45.108Z</time></trkpt><trkpt lat="43.4903033" lon="11.3856398"><ele>458.5</ele><time>2026-04-26T13:42:46.099Z</time></trkpt><trkpt lat="43.4902953" lon="11.3858084"><ele>458.75</ele><time>2026-04-26T13:42:47.092Z</time></trkpt><trkpt lat="43.4902656" lon="11.3859618"><ele>459.0</ele><time>2026-04-26T13:42:48.1Z</time></trkpt><trkpt lat="43.4902068" lon="11.3860877"><ele>459.0</ele><time>2026-04-26T13:42:49.105Z</time></trkpt><trkpt lat="43.4901303" lon="11.3861819"><ele>459.0</ele><time>2026-04-26T13:42:50.096Z</time></trkpt><trkpt lat="43.4900505" lon="11.3862467"><ele>459.0</ele><time>2026-04-26T13:42:51.109Z</time></trkpt><trkpt lat="43.489976" lon="11.3862806"><ele>459.0</ele><time>2026-04-26T13:42:52.092Z</time></trkpt><trkpt lat="43.4899057" lon="11.3862773"><ele>459.0</ele><time>2026-04-26T13:42:53.1Z</time></trkpt><trkpt lat="43.4898402" lon="11.3862429"><ele>459.0</ele><time>2026-04-26T13:42:54.105Z</time></trkpt><trkpt lat="43.4897778" lon="11.3862117"><ele>459.0</ele><time>2026-04-26T13:42:55.097Z</time></trkpt><trkpt lat="43.489677" lon="11.386273"><ele>459.0</ele><time>2026-04-26T13:42:57.106Z</time></trkpt><trkpt lat="43.4896554" lon="11.3863664"><ele>459.0</ele><time>2026-04-26T13:42:58.104Z</time></trkpt><trkpt lat="43.48961" lon="11.3866437"><ele>459.0</ele><time>2026-04-26T13:43:00.101Z</time></trkpt><trkpt lat="43.4895809" lon="11.386813"><ele>456.25</ele><time>2026-04-26T13:43:01.109Z</time></trkpt><trkpt lat="43.489556" lon="11.3869958"><ele>453.5</ele><time>2026-04-26T13:43:02.112Z</time></trkpt><trkpt lat="43.4895358" lon="11.3871838"><ele>450.75</ele><time>2026-04-26T13:43:03.091Z</time></trkpt><trkpt lat="43.489518" lon="11.3873655"><ele>448.0</ele><time>2026-04-26T13:43:04.097Z</time></trkpt><trkpt lat="43.4895044" lon="11.3875262"><ele>448.0</ele><time>2026-04-26T13:43:05.098Z</time></trkpt><trkpt lat="43.4895015" lon="11.3876627"><ele>447.99999999999994</ele><time>2026-04-26T13:43:06.086Z</time></trkpt><trkpt lat="43.489518" lon="11.387777"><ele>447.99999999999994</ele><time>2026-04-26T13:43:07.091Z</time></trkpt><trkpt lat="43.4895488" lon="11.387866"><ele>448.0</ele><time>2026-04-26T13:43:08.092Z</time></trkpt><trkpt lat="43.4896176" lon="11.3879915"><ele>448.0</ele><time>2026-04-26T13:43:10.094Z</time></trkpt><trkpt lat="43.4896461" lon="11.3881354"><ele>448.59999999999997</ele><time>2026-04-26T13:43:13.085Z</time></trkpt><trkpt lat="43.4896361" lon="11.3882221"><ele>449.19999999999993</ele><time>2026-04-26T13:43:20.095Z</time></trkpt><trkpt lat="43.4896171" lon="11.3883354"><ele>449.8</ele><time>2026-04-26T13:46:21.085Z</time></trkpt><trkpt lat="43.4895309" lon="11.3883798"><ele>450.4</ele><time>2026-04-26T13:46:23.086Z</time></trkpt><trkpt lat="43.4894591" lon="11.3884142"><ele>451.0</ele><time>2026-04-26T13:46:26.102Z</time></trkpt><trkpt lat="43.4893968" lon="11.38859"><ele>451.0</ele><time>2026-04-26T13:46:28.112Z</time></trkpt><trkpt lat="43.4893695" lon="11.3887117"><ele>451.0</ele><time>2026-04-26T13:46:29.115Z</time></trkpt><trkpt lat="43.4893372" lon="11.3888459"><ele>451.0</ele><time>2026-04-26T13:46:30.105Z</time></trkpt><trkpt lat="43.4893009" lon="11.388988"><ele>451.0</ele><time>2026-04-26T13:46:31.108Z</time></trkpt><trkpt lat="43.4892767" lon="11.3891363"><ele>451.0</ele><time>2026-04-26T13:46:32.1Z</time></trkpt><trkpt lat="43.4892843" lon="11.389296"><ele>451.4</ele><time>2026-04-26T13:46:33.097Z</time></trkpt><trkpt lat="43.4893221" lon="11.3894535"><ele>451.8</ele><time>2026-04-26T13:46:34.106Z</time></trkpt><trkpt lat="43.4893703" lon="11.3895898"><ele>452.19999999999993</ele><time>2026-04-26T13:46:35.094Z</time></trkpt><trkpt lat="43.4894156" lon="11.3897103"><ele>452.59999999999997</ele><time>2026-04-26T13:46:36.103Z</time></trkpt><trkpt lat="43.4894559" lon="11.3898195"><ele>453.0</ele><time>2026-04-26T13:46:37.105Z</time></trkpt><trkpt lat="43.4894914" lon="11.3899212"><ele>453.0</ele><time>2026-04-26T13:46:38.098Z</time></trkpt><trkpt lat="43.4895254" lon="11.390021"><ele>452.99999999999994</ele><time>2026-04-26T13:46:39.105Z</time></trkpt><trkpt lat="43.4895606" lon="11.3901278"><ele>452.99999999999994</ele><time>2026-04-26T13:46:40.115Z</time></trkpt><trkpt lat="43.4895982" lon="11.3902432"><ele>453.0</ele><time>2026-04-26T13:46:41.097Z</time></trkpt><trkpt lat="43.4896409" lon="11.3903704"><ele>453.0</ele><time>2026-04-26T13:46:42.109Z</time></trkpt><trkpt lat="43.4896916" lon="11.3905072"><ele>454.5</ele><time>2026-04-26T13:46:43.12Z</time></trkpt><trkpt lat="43.4897577" lon="11.3906553"><ele>456.0</ele><time>2026-04-26T13:46:44.094Z</time></trkpt><trkpt lat="43.4898511" lon="11.3908144"><ele>457.5</ele><time>2026-04-26T13:46:45.098Z</time></trkpt><trkpt lat="43.4899585" lon="11.3909653"><ele>459.0</ele><time>2026-04-26T13:46:46.089Z</time></trkpt><trkpt lat="43.4900598" lon="11.3911047"><ele>459.0</ele><time>2026-04-26T13:46:47.101Z</time></trkpt><trkpt lat="43.4901398" lon="11.3912494"><ele>459.0</ele><time>2026-04-26T13:46:48.085Z</time></trkpt><trkpt lat="43.4901934" lon="11.391416"><ele>459.0</ele><time>2026-04-26T13:46:49.101Z</time></trkpt><trkpt lat="43.4902145" lon="11.3916051"><ele>459.0</ele><time>2026-04-26T13:46:50.106Z</time></trkpt><trkpt lat="43.4902084" lon="11.391808"><ele>458.33333333333337</ele><time>2026-04-26T13:46:51.096Z</time></trkpt><trkpt lat="43.4901957" lon="11.3920251"><ele>457.6666666666667</ele><time>2026-04-26T13:46:52.109Z</time></trkpt><trkpt lat="43.490198" lon="11.3922486"><ele>457.0</ele><time>2026-04-26T13:46:53.089Z</time></trkpt><trkpt lat="43.4902257" lon="11.3924786"><ele>457.0</ele><time>2026-04-26T13:46:54.1Z</time></trkpt><trkpt lat="43.4902789" lon="11.3927056"><ele>457.0</ele><time>2026-04-26T13:46:55.105Z</time></trkpt><trkpt lat="43.4903432" lon="11.3929246"><ele>457.0</ele><time>2026-04-26T13:46:56.112Z</time></trkpt><trkpt lat="43.4903919" lon="11.393132"><ele>457.75</ele><time>2026-04-26T13:46:57.104Z</time></trkpt><trkpt lat="43.490413" lon="11.3933304"><ele>458.5</ele><time>2026-04-26T13:46:58.094Z</time></trkpt><trkpt lat="43.4904038" lon="11.3935246"><ele>459.25</ele><time>2026-04-26T13:46:59.103Z</time></trkpt><trkpt lat="43.4903638" lon="11.3937145"><ele>460.0</ele><time>2026-04-26T13:47:00.102Z</time></trkpt><trkpt lat="43.4902112" lon="11.3940937"><ele>461.33333333333337</ele><time>2026-04-26T13:47:02.098Z</time></trkpt><trkpt lat="43.490139" lon="11.3943016"><ele>462.66666666666663</ele><time>2026-04-26T13:47:03.121Z</time></trkpt><trkpt lat="43.4900983" lon="11.3945268"><ele>464.0</ele><time>2026-04-26T13:47:04.108Z</time></trkpt><trkpt lat="43.4900924" lon="11.394775"><ele>465.66666666666663</ele><time>2026-04-26T13:47:05.111Z</time></trkpt><trkpt lat="43.4901085" lon="11.3950343"><ele>467.33333333333337</ele><time>2026-04-26T13:47:06.1Z</time></trkpt><trkpt lat="43.4901245" lon="11.3953017"><ele>469.0</ele><time>2026-04-26T13:47:07.114Z</time></trkpt><trkpt lat="43.4901219" lon="11.395568"><ele>470.33333333333337</ele><time>2026-04-26T13:47:08.1Z</time></trkpt><trkpt lat="43.4901002" lon="11.395828"><ele>471.66666666666663</ele><time>2026-04-26T13:47:09.104Z</time></trkpt><trkpt lat="43.4900688" lon="11.3960596"><ele>473.0</ele><time>2026-04-26T13:47:10.096Z</time></trkpt><trkpt lat="43.4900246" lon="11.3962564"><ele>473.0</ele><time>2026-04-26T13:47:11.098Z</time></trkpt><trkpt lat="43.4899622" lon="11.3964141"><ele>473.0</ele><time>2026-04-26T13:47:12.079Z</time></trkpt><trkpt lat="43.4898774" lon="11.396548"><ele>473.0</ele><time>2026-04-26T13:47:13.087Z</time></trkpt><trkpt lat="43.4897731" lon="11.3966835"><ele>473.0</ele><time>2026-04-26T13:47:14.088Z</time></trkpt><trkpt lat="43.4896635" lon="11.3968441"><ele>478.0</ele><time>2026-04-26T13:47:15.1Z</time></trkpt><trkpt lat="43.4895613" lon="11.3970402"><ele>483.0</ele><time>2026-04-26T13:47:16.107Z</time></trkpt><trkpt lat="43.4894631" lon="11.3972618"><ele>488.0</ele><time>2026-04-26T13:47:17.094Z</time></trkpt><trkpt lat="43.4893568" lon="11.3974936"><ele>488.66666666666663</ele><time>2026-04-26T13:47:18.101Z</time></trkpt><trkpt lat="43.4892421" lon="11.3977254"><ele>489.33333333333337</ele><time>2026-04-26T13:47:19.103Z</time></trkpt><trkpt lat="43.4891248" lon="11.3979616"><ele>490.0</ele><time>2026-04-26T13:47:20.093Z</time></trkpt><trkpt lat="43.489008" lon="11.398208"><ele>488.0</ele><time>2026-04-26T13:47:21.104Z</time></trkpt><trkpt lat="43.4888939" lon="11.3984575"><ele>486.0</ele><time>2026-04-26T13:47:22.104Z</time></trkpt><trkpt lat="43.4887839" lon="11.3987046"><ele>484.0</ele><time>2026-04-26T13:47:23.109Z</time></trkpt><trkpt lat="43.4886821" lon="11.3989357"><ele>489.33333333333337</ele><time>2026-04-26T13:47:24.096Z</time></trkpt><trkpt lat="43.4885888" lon="11.3991482"><ele>494.66666666666663</ele><time>2026-04-26T13:47:25.106Z</time></trkpt><trkpt lat="43.4884984" lon="11.3993334"><ele>500.0</ele><time>2026-04-26T13:47:26.105Z</time></trkpt><trkpt lat="43.4884036" lon="11.3994842"><ele>500.0</ele><time>2026-04-26T13:47:27.086Z</time></trkpt><trkpt lat="43.4882939" lon="11.3996"><ele>500.0</ele><time>2026-04-26T13:47:28.092Z</time></trkpt><trkpt lat="43.4881675" lon="11.3996806"><ele>500.0</ele><time>2026-04-26T13:47:29.098Z</time></trkpt><trkpt lat="43.4880334" lon="11.3997205"><ele>500.0</ele><time>2026-04-26T13:47:30.088Z</time></trkpt><trkpt lat="43.4879051" lon="11.3997285"><ele>500.2</ele><time>2026-04-26T13:47:31.099Z</time></trkpt><trkpt lat="43.487792" lon="11.3997346"><ele>500.4</ele><time>2026-04-26T13:47:32.104Z</time></trkpt><trkpt lat="43.4876968" lon="11.3997714"><ele>500.6</ele><time>2026-04-26T13:47:33.091Z</time></trkpt><trkpt lat="43.4876266" lon="11.3998575"><ele>500.8</ele><time>2026-04-26T13:47:34.094Z</time></trkpt><trkpt lat="43.4875844" lon="11.3999928"><ele>501.0</ele><time>2026-04-26T13:47:35.088Z</time></trkpt><trkpt lat="43.4875671" lon="11.4001659"><ele>501.0</ele><time>2026-04-26T13:47:36.091Z</time></trkpt><trkpt lat="43.4875639" lon="11.4003657"><ele>501.0</ele><time>2026-04-26T13:47:37.084Z</time></trkpt><trkpt lat="43.4875588" lon="11.4005757"><ele>501.0</ele><time>2026-04-26T13:47:38.096Z</time></trkpt><trkpt lat="43.4875393" lon="11.4007696"><ele>501.0</ele><time>2026-04-26T13:47:39.084Z</time></trkpt><trkpt lat="43.4875048" lon="11.4009354"><ele>501.6666666666667</ele><time>2026-04-26T13:47:40.105Z</time></trkpt><trkpt lat="43.4874779" lon="11.4010755"><ele>502.33333333333337</ele><time>2026-04-26T13:47:41.107Z</time></trkpt><trkpt lat="43.4874904" lon="11.4011928"><ele>503.0</ele><time>2026-04-26T13:47:42.096Z</time></trkpt><trkpt lat="43.487549" lon="11.4012688"><ele>503.6666666666667</ele><time>2026-04-26T13:47:43.093Z</time></trkpt><trkpt lat="43.4876295" lon="11.4012817"><ele>504.33333333333337</ele><time>2026-04-26T13:47:44.088Z</time></trkpt><trkpt lat="43.4877005" lon="11.4012268"><ele>505.0</ele><time>2026-04-26T13:47:45.098Z</time></trkpt><trkpt lat="43.4877561" lon="11.4011246"><ele>505.0</ele><time>2026-04-26T13:47:46.103Z</time></trkpt><trkpt lat="43.4878127" lon="11.400991"><ele>505.0</ele><time>2026-04-26T13:47:47.093Z</time></trkpt><trkpt lat="43.4878896" lon="11.4008547"><ele>505.0</ele><time>2026-04-26T13:47:48.097Z</time></trkpt><trkpt lat="43.4879908" lon="11.4007668"><ele>505.0</ele><time>2026-04-26T13:47:49.098Z</time></trkpt><trkpt lat="43.4881091" lon="11.4007467"><ele>507.6666666666667</ele><time>2026-04-26T13:47:50.087Z</time></trkpt><trkpt lat="43.4882418" lon="11.4007925"><ele>510.33333333333337</ele><time>2026-04-26T13:47:51.091Z</time></trkpt><trkpt lat="43.4883855" lon="11.4008875"><ele>513.0</ele><time>2026-04-26T13:47:52.099Z</time></trkpt><trkpt lat="43.4885327" lon="11.4010019"><ele>513.0</ele><time>2026-04-26T13:47:53.102Z</time></trkpt><trkpt lat="43.4886708" lon="11.4011074"><ele>513.0</ele><time>2026-04-26T13:47:54.094Z</time></trkpt><trkpt lat="43.4887868" lon="11.4012131"><ele>513.0</ele><time>2026-04-26T13:47:55.102Z</time></trkpt><trkpt lat="43.4888686" lon="11.4013354"><ele>513.0</ele><time>2026-04-26T13:47:56.095Z</time></trkpt><trkpt lat="43.4889169" lon="11.4014771"><ele>513.0</ele><time>2026-04-26T13:47:57.102Z</time></trkpt><trkpt lat="43.488925" lon="11.4016385"><ele>513.0</ele><time>2026-04-26T13:47:58.092Z</time></trkpt><trkpt lat="43.4888915" lon="11.4018206"><ele>513.0</ele><time>2026-04-26T13:47:59.102Z</time></trkpt><trkpt lat="43.4888355" lon="11.4020206"><ele>513.0</ele><time>2026-04-26T13:48:00.09Z</time></trkpt><trkpt lat="43.4887912" lon="11.4022493"><ele>513.0</ele><time>2026-04-26T13:48:01.087Z</time></trkpt><trkpt lat="43.4887672" lon="11.4025115"><ele>513.0</ele><time>2026-04-26T13:48:02.092Z</time></trkpt><trkpt lat="43.4887534" lon="11.4028031"><ele>513.0</ele><time>2026-04-26T13:48:03.095Z</time></trkpt><trkpt lat="43.4887479" lon="11.4031126"><ele>521.3333333333334</ele><time>2026-04-26T13:48:04.101Z</time></trkpt><trkpt lat="43.4887476" lon="11.4034101"><ele>529.6666666666667</ele><time>2026-04-26T13:48:05.098Z</time></trkpt><trkpt lat="43.4887348" lon="11.403685"><ele>538.0</ele><time>2026-04-26T13:48:06.089Z</time></trkpt><trkpt lat="43.4887051" lon="11.4039471"><ele>538.3333333333334</ele><time>2026-04-26T13:48:07.108Z</time></trkpt><trkpt lat="43.4886839" lon="11.4041975"><ele>538.6666666666666</ele><time>2026-04-26T13:48:08.099Z</time></trkpt><trkpt lat="43.4886977" lon="11.4044498"><ele>539.0</ele><time>2026-04-26T13:48:09.101Z</time></trkpt><trkpt lat="43.4887585" lon="11.4047002"><ele>537.3333333333333</ele><time>2026-04-26T13:48:10.106Z</time></trkpt><trkpt lat="43.4888526" lon="11.4049622"><ele>535.6666666666666</ele><time>2026-04-26T13:48:11.107Z</time></trkpt><trkpt lat="43.4889426" lon="11.4052458"><ele>534.0</ele><time>2026-04-26T13:48:12.103Z</time></trkpt><trkpt lat="43.4890068" lon="11.4055417"><ele>534.0</ele><time>2026-04-26T13:48:13.109Z</time></trkpt><trkpt lat="43.4890556" lon="11.4058255"><ele>534.0</ele><time>2026-04-26T13:48:14.112Z</time></trkpt><trkpt lat="43.4891145" lon="11.4060879"><ele>534.0</ele><time>2026-04-26T13:48:15.115Z</time></trkpt><trkpt lat="43.4891978" lon="11.4063316"><ele>534.0</ele><time>2026-04-26T13:48:16.108Z</time></trkpt><trkpt lat="43.4893099" lon="11.4065697"><ele>534.0</ele><time>2026-04-26T13:48:17.108Z</time></trkpt><trkpt lat="43.4894487" lon="11.4067966"><ele>534.0</ele><time>2026-04-26T13:48:18.1Z</time></trkpt><trkpt lat="43.4895946" lon="11.4070025"><ele>536.0</ele><time>2026-04-26T13:48:19.109Z</time></trkpt><trkpt lat="43.4897253" lon="11.4071866"><ele>538.0</ele><time>2026-04-26T13:48:20.098Z</time></trkpt><trkpt lat="43.4898314" lon="11.4073707"><ele>540.0</ele><time>2026-04-26T13:48:21.103Z</time></trkpt><trkpt lat="43.4899064" lon="11.4075651"><ele>540.0</ele><time>2026-04-26T13:48:22.1Z</time></trkpt><trkpt lat="43.4899573" lon="11.4077765"><ele>540.0</ele><time>2026-04-26T13:48:23.092Z</time></trkpt><trkpt lat="43.4899904" lon="11.4080015"><ele>540.0</ele><time>2026-04-26T13:48:24.094Z</time></trkpt><trkpt lat="43.4900109" lon="11.4082333"><ele>540.6666666666666</ele><time>2026-04-26T13:48:25.098Z</time></trkpt><trkpt lat="43.4900249" lon="11.4084672"><ele>541.3333333333333</ele><time>2026-04-26T13:48:26.088Z</time></trkpt><trkpt lat="43.490032" lon="11.408705"><ele>542.0</ele><time>2026-04-26T13:48:27.102Z</time></trkpt><trkpt lat="43.4900298" lon="11.408945"><ele>543.3333333333333</ele><time>2026-04-26T13:48:28.103Z</time></trkpt><trkpt lat="43.4900189" lon="11.4091916"><ele>544.6666666666666</ele><time>2026-04-26T13:48:29.108Z</time></trkpt><trkpt lat="43.490002" lon="11.4094411"><ele>546.0</ele><time>2026-04-26T13:48:30.111Z</time></trkpt><trkpt lat="43.489983" lon="11.4096824"><ele>546.6666666666666</ele><time>2026-04-26T13:48:31.11Z</time></trkpt><trkpt lat="43.4899566" lon="11.4099058"><ele>547.3333333333333</ele><time>2026-04-26T13:48:32.1Z</time></trkpt><trkpt lat="43.4899044" lon="11.4101201"><ele>548.0</ele><time>2026-04-26T13:48:33.107Z</time></trkpt><trkpt lat="43.4898175" lon="11.4103301"><ele>548.3333333333333</ele><time>2026-04-26T13:48:34.096Z</time></trkpt><trkpt lat="43.4897084" lon="11.4105328"><ele>548.6666666666666</ele><time>2026-04-26T13:48:35.103Z</time></trkpt><trkpt lat="43.4895954" lon="11.4107133"><ele>549.0</ele><time>2026-04-26T13:48:36.105Z</time></trkpt><trkpt lat="43.4895012" lon="11.4108809"><ele>549.0</ele><time>2026-04-26T13:48:37.111Z</time></trkpt><trkpt lat="43.4894405" lon="11.4110529"><ele>549.0</ele><time>2026-04-26T13:48:38.091Z</time></trkpt><trkpt lat="43.489419" lon="11.411245"><ele>549.0</ele><time>2026-04-26T13:48:39.104Z</time></trkpt><trkpt lat="43.4894383" lon="11.4114571"><ele>549.0</ele><time>2026-04-26T13:48:40.107Z</time></trkpt><trkpt lat="43.489487" lon="11.4116763"><ele>550.0</ele><time>2026-04-26T13:48:41.11Z</time></trkpt><trkpt lat="43.4895564" lon="11.4118725"><ele>551.0</ele><time>2026-04-26T13:48:42.092Z</time></trkpt><trkpt lat="43.4896486" lon="11.4120374"><ele>552.0</ele><time>2026-04-26T13:48:43.1Z</time></trkpt><trkpt lat="43.4897688" lon="11.4121812"><ele>554.0</ele><time>2026-04-26T13:48:44.107Z</time></trkpt><trkpt lat="43.4899114" lon="11.4123221"><ele>556.0</ele><time>2026-04-26T13:48:45.099Z</time></trkpt><trkpt lat="43.4900644" lon="11.4124826"><ele>558.0</ele><time>2026-04-26T13:48:46.103Z</time></trkpt><trkpt lat="43.4902086" lon="11.4126573"><ele>558.0</ele><time>2026-04-26T13:48:47.096Z</time></trkpt><trkpt lat="43.4903378" lon="11.4128316"><ele>558.0</ele><time>2026-04-26T13:48:48.102Z</time></trkpt><trkpt lat="43.4904497" lon="11.4129987"><ele>558.0</ele><time>2026-04-26T13:48:49.088Z</time></trkpt><trkpt lat="43.4905352" lon="11.4131744"><ele>556.75</ele><time>2026-04-26T13:48:50.091Z</time></trkpt><trkpt lat="43.490586" lon="11.413368"><ele>555.5</ele><time>2026-04-26T13:48:51.088Z</time></trkpt><trkpt lat="43.4906028" lon="11.4135733"><ele>554.25</ele><time>2026-04-26T13:48:52.096Z</time></trkpt><trkpt lat="43.4905854" lon="11.4137771"><ele>553.0</ele><time>2026-04-26T13:48:53.107Z</time></trkpt><trkpt lat="43.4905488" lon="11.4139839"><ele>553.0</ele><time>2026-04-26T13:48:54.109Z</time></trkpt><trkpt lat="43.490509" lon="11.4142003"><ele>553.0</ele><time>2026-04-26T13:48:55.112Z</time></trkpt><trkpt lat="43.4904722" lon="11.4144266"><ele>553.0</ele><time>2026-04-26T13:48:56.113Z</time></trkpt><trkpt lat="43.4904358" lon="11.4146614"><ele>553.3333333333334</ele><time>2026-04-26T13:48:57.101Z</time></trkpt><trkpt lat="43.4904002" lon="11.4149056"><ele>553.6666666666666</ele><time>2026-04-26T13:48:58.109Z</time></trkpt><trkpt lat="43.4903634" lon="11.4151513"><ele>554.0</ele><time>2026-04-26T13:48:59.103Z</time></trkpt><trkpt lat="43.4903218" lon="11.4154002"><ele>554.6666666666666</ele><time>2026-04-26T13:49:00.104Z</time></trkpt><trkpt lat="43.4902688" lon="11.4156507"><ele>555.3333333333334</ele><time>2026-04-26T13:49:01.114Z</time></trkpt><trkpt lat="43.4902061" lon="11.4159"><ele>556.0</ele><time>2026-04-26T13:49:02.118Z</time></trkpt><trkpt lat="43.4901462" lon="11.416149"><ele>558.0</ele><time>2026-04-26T13:49:03.123Z</time></trkpt><trkpt lat="43.4901027" lon="11.41639"><ele>560.0</ele><time>2026-04-26T13:49:04.098Z</time></trkpt><trkpt lat="43.4900803" lon="11.4166254"><ele>562.0</ele><time>2026-04-26T13:49:05.111Z</time></trkpt><trkpt lat="43.4900841" lon="11.4168531"><ele>562.0</ele><time>2026-04-26T13:49:06.102Z</time></trkpt><trkpt lat="43.4901156" lon="11.4170786"><ele>562.0</ele><time>2026-04-26T13:49:07.121Z</time></trkpt><trkpt lat="43.4901661" lon="11.4172969"><ele>562.0</ele><time>2026-04-26T13:49:08.105Z</time></trkpt><trkpt lat="43.490224" lon="11.4175047"><ele>561.25</ele><time>2026-04-26T13:49:09.116Z</time></trkpt><trkpt lat="43.4902878" lon="11.4176821"><ele>560.5</ele><time>2026-04-26T13:49:10.09Z</time></trkpt><trkpt lat="43.4903718" lon="11.4178279"><ele>559.75</ele><time>2026-04-26T13:49:11.092Z</time></trkpt><trkpt lat="43.490468" lon="11.4179365"><ele>559.0</ele><time>2026-04-26T13:49:12.084Z</time></trkpt><trkpt lat="43.4905708" lon="11.4180154"><ele>560.8</ele><time>2026-04-26T13:49:13.091Z</time></trkpt><trkpt lat="43.4906759" lon="11.4180754"><ele>562.5999999999999</ele><time>2026-04-26T13:49:14.082Z</time></trkpt><trkpt lat="43.4907728" lon="11.418129"><ele>564.4</ele><time>2026-04-26T13:49:15.088Z</time></trkpt><trkpt lat="43.4908545" lon="11.418191"><ele>566.1999999999999</ele><time>2026-04-26T13:49:16.088Z</time></trkpt><trkpt lat="43.4909142" lon="11.4182728"><ele>568.0</ele><time>2026-04-26T13:49:17.099Z</time></trkpt><trkpt lat="43.4909516" lon="11.4183707"><ele>568.0</ele><time>2026-04-26T13:49:18.103Z</time></trkpt><trkpt lat="43.4909731" lon="11.4184831"><ele>568.0</ele><time>2026-04-26T13:49:19.11Z</time></trkpt><trkpt lat="43.4909798" lon="11.418612"><ele>568.0</ele><time>2026-04-26T13:49:20.101Z</time></trkpt><trkpt lat="43.4909785" lon="11.4187576"><ele>568.0</ele><time>2026-04-26T13:49:21.112Z</time></trkpt><trkpt lat="43.4909786" lon="11.4189137"><ele>568.0</ele><time>2026-04-26T13:49:22.11Z</time></trkpt><trkpt lat="43.4909924" lon="11.4190767"><ele>566.75</ele><time>2026-04-26T13:49:23.103Z</time></trkpt><trkpt lat="43.4910242" lon="11.4192418"><ele>565.5</ele><time>2026-04-26T13:49:24.107Z</time></trkpt><trkpt lat="43.4910662" lon="11.4194086"><ele>564.25</ele><time>2026-04-26T13:49:25.109Z</time></trkpt><trkpt lat="43.4911081" lon="11.41959"><ele>563.0</ele><time>2026-04-26T13:49:26.095Z</time></trkpt><trkpt lat="43.4911482" lon="11.4197994"><ele>561.0</ele><time>2026-04-26T13:49:27.104Z</time></trkpt><trkpt lat="43.4911864" lon="11.4200295"><ele>559.0</ele><time>2026-04-26T13:49:28.103Z</time></trkpt><trkpt lat="43.491223" lon="11.4202589"><ele>557.0</ele><time>2026-04-26T13:49:29.105Z</time></trkpt><trkpt lat="43.4912577" lon="11.4204674"><ele>557.6</ele><time>2026-04-26T13:49:30.095Z</time></trkpt><trkpt lat="43.4912908" lon="11.4206534"><ele>558.2</ele><time>2026-04-26T13:49:31.108Z</time></trkpt><trkpt lat="43.4913137" lon="11.4208081"><ele>558.8</ele><time>2026-04-26T13:49:32.099Z</time></trkpt><trkpt lat="43.4913158" lon="11.4209385"><ele>559.4</ele><time>2026-04-26T13:49:33.105Z</time></trkpt><trkpt lat="43.4912915" lon="11.4210452"><ele>560.0</ele><time>2026-04-26T13:49:34.105Z</time></trkpt><trkpt lat="43.4912406" lon="11.4211219"><ele>560.0</ele><time>2026-04-26T13:49:35.096Z</time></trkpt><trkpt lat="43.4911625" lon="11.4211692"><ele>560.0</ele><time>2026-04-26T13:49:36.097Z</time></trkpt><trkpt lat="43.49106" lon="11.4212009"><ele>560.0</ele><time>2026-04-26T13:49:37.083Z</time></trkpt><trkpt lat="43.4909344" lon="11.4212332"><ele>560.0</ele><time>2026-04-26T13:49:38.091Z</time></trkpt><trkpt lat="43.490796" lon="11.4212707"><ele>560.0</ele><time>2026-04-26T13:49:39.08Z</time></trkpt><trkpt lat="43.490657" lon="11.4213093"><ele>560.0</ele><time>2026-04-26T13:49:40.088Z</time></trkpt><trkpt lat="43.4905277" lon="11.4213525"><ele>560.0</ele><time>2026-04-26T13:49:41.091Z</time></trkpt><trkpt lat="43.4904027" lon="11.4213965"><ele>560.0</ele><time>2026-04-26T13:49:42.093Z</time></trkpt><trkpt lat="43.4902748" lon="11.4214376"><ele>562.0</ele><time>2026-04-26T13:49:43.092Z</time></trkpt><trkpt lat="43.4901546" lon="11.4214813"><ele>564.0</ele><time>2026-04-26T13:49:44.1Z</time></trkpt><trkpt lat="43.4900382" lon="11.4215239"><ele>566.0</ele><time>2026-04-26T13:49:45.086Z</time></trkpt><trkpt lat="43.4899139" lon="11.4215688"><ele>568.0</ele><time>2026-04-26T13:49:46.103Z</time></trkpt><trkpt lat="43.48979" lon="11.4216178"><ele>568.0</ele><time>2026-04-26T13:49:47.099Z</time></trkpt><trkpt lat="43.4896735" lon="11.4216778"><ele>568.0</ele><time>2026-04-26T13:49:48.105Z</time></trkpt><trkpt lat="43.4895609" lon="11.4217445"><ele>568.0</ele><time>2026-04-26T13:49:49.097Z</time></trkpt><trkpt lat="43.4894467" lon="11.421813"><ele>568.0</ele><time>2026-04-26T13:49:50.112Z</time></trkpt><trkpt lat="43.4893354" lon="11.4218679"><ele>564.0</ele><time>2026-04-26T13:49:51.091Z</time></trkpt><trkpt lat="43.4892238" lon="11.4218996"><ele>560.0</ele><time>2026-04-26T13:49:52.101Z</time></trkpt><trkpt lat="43.4891065" lon="11.4219095"><ele>556.0</ele><time>2026-04-26T13:49:53.105Z</time></trkpt><trkpt lat="43.4889876" lon="11.4219136"><ele>552.0</ele><time>2026-04-26T13:49:54.112Z</time></trkpt><trkpt lat="43.4888749" lon="11.4219278"><ele>552.0</ele><time>2026-04-26T13:49:55.1Z</time></trkpt><trkpt lat="43.4887713" lon="11.4219568"><ele>552.0</ele><time>2026-04-26T13:49:56.114Z</time></trkpt><trkpt lat="43.488675" lon="11.4219999"><ele>552.0</ele><time>2026-04-26T13:49:57.119Z</time></trkpt><trkpt lat="43.488583" lon="11.4220515"><ele>552.0</ele><time>2026-04-26T13:49:58.098Z</time></trkpt><trkpt lat="43.4885012" lon="11.4221095"><ele>552.0</ele><time>2026-04-26T13:49:59.116Z</time></trkpt><trkpt lat="43.4884378" lon="11.4221746"><ele>553.0</ele><time>2026-04-26T13:50:00.097Z</time></trkpt><trkpt lat="43.4883906" lon="11.4222562"><ele>554.0</ele><time>2026-04-26T13:50:01.1Z</time></trkpt><trkpt lat="43.4883544" lon="11.4223574"><ele>555.0</ele><time>2026-04-26T13:50:02.092Z</time></trkpt><trkpt lat="43.488325" lon="11.4224711"><ele>556.0</ele><time>2026-04-26T13:50:03.099Z</time></trkpt><trkpt lat="43.4882994" lon="11.422581"><ele>557.0</ele><time>2026-04-26T13:50:04.088Z</time></trkpt><trkpt lat="43.4882719" lon="11.422678"><ele>558.0</ele><time>2026-04-26T13:50:05.089Z</time></trkpt><trkpt lat="43.4882356" lon="11.4227532"><ele>558.0</ele><time>2026-04-26T13:50:06.085Z</time></trkpt><trkpt lat="43.4881185" lon="11.4228051"><ele>558.0</ele><time>2026-04-26T13:50:08.098Z</time></trkpt><trkpt lat="43.4880502" lon="11.4227819"><ele>558.0</ele><time>2026-04-26T13:50:09.089Z</time></trkpt><trkpt lat="43.487982" lon="11.4227315"><ele>558.0</ele><time>2026-04-26T13:50:10.096Z</time></trkpt><trkpt lat="43.4879068" lon="11.4226492"><ele>558.0</ele><time>2026-04-26T13:50:11.105Z</time></trkpt><trkpt lat="43.4878161" lon="11.422556"><ele>557.0</ele><time>2026-04-26T13:50:12.094Z</time></trkpt><trkpt lat="43.4877101" lon="11.422458"><ele>556.0</ele><time>2026-04-26T13:50:13.109Z</time></trkpt><trkpt lat="43.4876001" lon="11.4223618"><ele>555.0</ele><time>2026-04-26T13:50:14.088Z</time></trkpt><trkpt lat="43.487488" lon="11.422262"><ele>554.0</ele><time>2026-04-26T13:50:15.1Z</time></trkpt><trkpt lat="43.4873745" lon="11.422152"><ele>551.25</ele><time>2026-04-26T13:50:16.105Z</time></trkpt><trkpt lat="43.4872654" lon="11.4220298"><ele>548.5</ele><time>2026-04-26T13:50:17.123Z</time></trkpt><trkpt lat="43.4871708" lon="11.4218926"><ele>545.75</ele><time>2026-04-26T13:50:18.101Z</time></trkpt><trkpt lat="43.4870793" lon="11.4217355"><ele>543.0</ele><time>2026-04-26T13:50:19.099Z</time></trkpt><trkpt lat="43.4869903" lon="11.4215693"><ele>543.0</ele><time>2026-04-26T13:50:20.104Z</time></trkpt><trkpt lat="43.4869" lon="11.4214011"><ele>543.0</ele><time>2026-04-26T13:50:21.117Z</time></trkpt><trkpt lat="43.4868092" lon="11.4212333"><ele>543.0</ele><time>2026-04-26T13:50:22.105Z</time></trkpt><trkpt lat="43.4867218" lon="11.421071"><ele>542.75</ele><time>2026-04-26T13:50:23.105Z</time></trkpt><trkpt lat="43.486638" lon="11.4209197"><ele>542.5</ele><time>2026-04-26T13:50:24.11Z</time></trkpt><trkpt lat="43.486553" lon="11.4207817"><ele>542.25</ele><time>2026-04-26T13:50:25.098Z</time></trkpt><trkpt lat="43.4864651" lon="11.4206584"><ele>542.0</ele><time>2026-04-26T13:50:26.095Z</time></trkpt><trkpt lat="43.4862635" lon="11.4204496"><ele>543.25</ele><time>2026-04-26T13:50:28.092Z</time></trkpt><trkpt lat="43.486146" lon="11.420357"><ele>544.5</ele><time>2026-04-26T13:50:29.094Z</time></trkpt><trkpt lat="43.48602" lon="11.4202718"><ele>545.75</ele><time>2026-04-26T13:50:30.088Z</time></trkpt><trkpt lat="43.4858852" lon="11.4201882"><ele>547.0</ele><time>2026-04-26T13:50:31.099Z</time></trkpt><trkpt lat="43.4857405" lon="11.4201028"><ele>547.0</ele><time>2026-04-26T13:50:32.114Z</time></trkpt><trkpt lat="43.4855867" lon="11.4200174"><ele>547.0</ele><time>2026-04-26T13:50:33.099Z</time></trkpt><trkpt lat="43.485425" lon="11.4199296"><ele>547.0</ele><time>2026-04-26T13:50:34.112Z</time></trkpt><trkpt lat="43.4852629" lon="11.4198403"><ele>546.6666666666667</ele><time>2026-04-26T13:50:35.102Z</time></trkpt><trkpt lat="43.4851072" lon="11.4197526"><ele>546.3333333333334</ele><time>2026-04-26T13:50:36.106Z</time></trkpt><trkpt lat="43.4849682" lon="11.419672"><ele>546.0</ele><time>2026-04-26T13:50:37.11Z</time></trkpt><trkpt lat="43.4848464" lon="11.4196012"><ele>546.0</ele><time>2026-04-26T13:50:38.112Z</time></trkpt><trkpt lat="43.484737" lon="11.4195389"><ele>546.0</ele><time>2026-04-26T13:50:39.124Z</time></trkpt><trkpt lat="43.4846349" lon="11.4194904"><ele>546.0</ele><time>2026-04-26T13:50:40.097Z</time></trkpt><trkpt lat="43.4845302" lon="11.4194576"><ele>546.0</ele><time>2026-04-26T13:50:41.105Z</time></trkpt><trkpt lat="43.4844229" lon="11.4194446"><ele>546.0</ele><time>2026-04-26T13:50:42.097Z</time></trkpt><trkpt lat="43.4843103" lon="11.4194504"><ele>546.5</ele><time>2026-04-26T13:50:43.109Z</time></trkpt><trkpt lat="43.4841948" lon="11.4194792"><ele>547.0</ele><time>2026-04-26T13:50:44.12Z</time></trkpt><trkpt lat="43.4840734" lon="11.419531"><ele>547.5</ele><time>2026-04-26T13:50:45.11Z</time></trkpt><trkpt lat="43.4839384" lon="11.4196079"><ele>548.0</ele><time>2026-04-26T13:50:46.117Z</time></trkpt><trkpt lat="43.4837921" lon="11.4197024"><ele>547.0</ele><time>2026-04-26T13:50:47.123Z</time></trkpt><trkpt lat="43.48364" lon="11.4198023"><ele>546.0</ele><time>2026-04-26T13:50:48.103Z</time></trkpt><trkpt lat="43.4834799" lon="11.419903"><ele>545.0</ele><time>2026-04-26T13:50:49.119Z</time></trkpt><trkpt lat="43.4833176" lon="11.4200056"><ele>545.0</ele><time>2026-04-26T13:50:50.1Z</time></trkpt><trkpt lat="43.4831541" lon="11.420111"><ele>545.0</ele><time>2026-04-26T13:50:51.101Z</time></trkpt><trkpt lat="43.4829994" lon="11.4202137"><ele>545.0</ele><time>2026-04-26T13:50:52.101Z</time></trkpt><trkpt lat="43.4828499" lon="11.4203137"><ele>544.6666666666666</ele><time>2026-04-26T13:50:53.094Z</time></trkpt><trkpt lat="43.4826956" lon="11.4204189"><ele>544.3333333333334</ele><time>2026-04-26T13:50:54.103Z</time></trkpt><trkpt lat="43.4825357" lon="11.4205287"><ele>544.0</ele><time>2026-04-26T13:50:55.115Z</time></trkpt><trkpt lat="43.4823751" lon="11.4206415"><ele>544.0</ele><time>2026-04-26T13:50:56.105Z</time></trkpt><trkpt lat="43.482214" lon="11.4207606"><ele>544.0</ele><time>2026-04-26T13:50:57.123Z</time></trkpt><trkpt lat="43.4820573" lon="11.4208795"><ele>544.0</ele><time>2026-04-26T13:50:58.104Z</time></trkpt><trkpt lat="43.4819005" lon="11.4209976"><ele>541.6666666666667</ele><time>2026-04-26T13:50:59.107Z</time></trkpt><trkpt lat="43.4817495" lon="11.4211111"><ele>539.3333333333334</ele><time>2026-04-26T13:51:00.112Z</time></trkpt><trkpt lat="43.4816083" lon="11.4212187"><ele>537.0</ele><time>2026-04-26T13:51:01.12Z</time></trkpt><trkpt lat="43.4814783" lon="11.421321"><ele>537.3333333333334</ele><time>2026-04-26T13:51:02.121Z</time></trkpt><trkpt lat="43.4812345" lon="11.4215248"><ele>537.6666666666667</ele><time>2026-04-26T13:51:04.112Z</time></trkpt><trkpt lat="43.4811088" lon="11.4216328"><ele>538.0</ele><time>2026-04-26T13:51:05.097Z</time></trkpt><trkpt lat="43.4809741" lon="11.4217411"><ele>538.0</ele><time>2026-04-26T13:51:06.094Z</time></trkpt><trkpt lat="43.4808401" lon="11.421846"><ele>538.0</ele><time>2026-04-26T13:51:07.099Z</time></trkpt><trkpt lat="43.4807142" lon="11.4219432"><ele>538.0</ele><time>2026-04-26T13:51:08.103Z</time></trkpt><trkpt lat="43.4805943" lon="11.4220289"><ele>538.0</ele><time>2026-04-26T13:51:09.093Z</time></trkpt><trkpt lat="43.4804757" lon="11.4221125"><ele>536.75</ele><time>2026-04-26T13:51:10.103Z</time></trkpt><trkpt lat="43.4803568" lon="11.4222014"><ele>535.5</ele><time>2026-04-26T13:51:11.094Z</time></trkpt><trkpt lat="43.4802347" lon="11.4223034"><ele>534.25</ele><time>2026-04-26T13:51:12.11Z</time></trkpt><trkpt lat="43.4801069" lon="11.4224283"><ele>533.0</ele><time>2026-04-26T13:51:13.104Z</time></trkpt><trkpt lat="43.4799798" lon="11.4225693"><ele>533.0</ele><time>2026-04-26T13:51:14.096Z</time></trkpt><trkpt lat="43.4798591" lon="11.4227062"><ele>533.0</ele><time>2026-04-26T13:51:15.09Z</time></trkpt><trkpt lat="43.4797424" lon="11.4228408"><ele>533.0</ele><time>2026-04-26T13:51:16.09Z</time></trkpt><trkpt lat="43.4796322" lon="11.4229755"><ele>533.25</ele><time>2026-04-26T13:51:17.082Z</time></trkpt><trkpt lat="43.4795274" lon="11.4231263"><ele>533.5</ele><time>2026-04-26T13:51:18.092Z</time></trkpt><trkpt lat="43.4794316" lon="11.4232909"><ele>533.75</ele><time>2026-04-26T13:51:19.098Z</time></trkpt><trkpt lat="43.4793487" lon="11.4234473"><ele>534.0</ele><time>2026-04-26T13:51:20.093Z</time></trkpt><trkpt lat="43.4792745" lon="11.423585"><ele>534.0</ele><time>2026-04-26T13:51:21.099Z</time></trkpt><trkpt lat="43.4791998" lon="11.4237144"><ele>534.0</ele><time>2026-04-26T13:51:22.104Z</time></trkpt><trkpt lat="43.4791183" lon="11.4238437"><ele>534.0</ele><time>2026-04-26T13:51:23.097Z</time></trkpt><trkpt lat="43.4790352" lon="11.4239655"><ele>534.0</ele><time>2026-04-26T13:51:24.098Z</time></trkpt><trkpt lat="43.4789524" lon="11.4240768"><ele>532.5</ele><time>2026-04-26T13:51:25.106Z</time></trkpt><trkpt lat="43.4788623" lon="11.4241765"><ele>531.0</ele><time>2026-04-26T13:51:26.1Z</time></trkpt><trkpt lat="43.4787537" lon="11.4242669"><ele>529.5</ele><time>2026-04-26T13:51:27.103Z</time></trkpt><trkpt lat="43.4786299" lon="11.4243533"><ele>528.0</ele><time>2026-04-26T13:51:28.1Z</time></trkpt><trkpt lat="43.4785037" lon="11.424437"><ele>526.8</ele><time>2026-04-26T13:51:29.115Z</time></trkpt><trkpt lat="43.4783895" lon="11.4245151"><ele>525.5999999999999</ele><time>2026-04-26T13:51:30.126Z</time></trkpt><trkpt lat="43.4782911" lon="11.4245826"><ele>524.4000000000001</ele><time>2026-04-26T13:51:31.114Z</time></trkpt><trkpt lat="43.4782082" lon="11.4246385"><ele>523.2</ele><time>2026-04-26T13:51:32.117Z</time></trkpt><trkpt lat="43.47814" lon="11.4246792"><ele>522.0</ele><time>2026-04-26T13:51:33.121Z</time></trkpt><trkpt lat="43.4780507" lon="11.4247018"><ele>521.0</ele><time>2026-04-26T13:51:35.112Z</time></trkpt><trkpt lat="43.4779875" lon="11.4246597"><ele>520.0</ele><time>2026-04-26T13:51:37.118Z</time></trkpt><trkpt lat="43.4778926" lon="11.4245293"><ele>519.0</ele><time>2026-04-26T13:51:39.104Z</time></trkpt><trkpt lat="43.4778287" lon="11.4244269"><ele>518.0</ele><time>2026-04-26T13:51:40.096Z</time></trkpt><trkpt lat="43.4776774" lon="11.4241753"><ele>515.5</ele><time>2026-04-26T13:51:42.103Z</time></trkpt><trkpt lat="43.4775901" lon="11.4240383"><ele>513.0</ele><time>2026-04-26T13:51:43.112Z</time></trkpt><trkpt lat="43.477495" lon="11.4238978"><ele>510.5</ele><time>2026-04-26T13:51:44.1Z</time></trkpt><trkpt lat="43.4773949" lon="11.4237518"><ele>508.0</ele><time>2026-04-26T13:51:45.102Z</time></trkpt><trkpt lat="43.4772972" lon="11.4236078"><ele>508.0</ele><time>2026-04-26T13:51:46.112Z</time></trkpt><trkpt lat="43.4772023" lon="11.4234695"><ele>508.0</ele><time>2026-04-26T13:51:47.125Z</time></trkpt><trkpt lat="43.4771092" lon="11.4233435"><ele>508.0</ele><time>2026-04-26T13:51:48.109Z</time></trkpt><trkpt lat="43.4770139" lon="11.4232235"><ele>508.0</ele><time>2026-04-26T13:51:49.124Z</time></trkpt><trkpt lat="43.4769152" lon="11.4231071"><ele>507.5</ele><time>2026-04-26T13:51:50.105Z</time></trkpt><trkpt lat="43.4768108" lon="11.4229955"><ele>507.0</ele><time>2026-04-26T13:51:51.124Z</time></trkpt><trkpt lat="43.4766977" lon="11.4228984"><ele>506.5</ele><time>2026-04-26T13:51:52.111Z</time></trkpt><trkpt lat="43.4765713" lon="11.4228105"><ele>506.0</ele><time>2026-04-26T13:51:53.124Z</time></trkpt><trkpt lat="43.4764309" lon="11.4227281"><ele>506.0</ele><time>2026-04-26T13:51:54.123Z</time></trkpt><trkpt lat="43.4762874" lon="11.4226438"><ele>506.0</ele><time>2026-04-26T13:51:55.111Z</time></trkpt><trkpt lat="43.4761495" lon="11.422561"><ele>506.0</ele><time>2026-04-26T13:51:56.121Z</time></trkpt><trkpt lat="43.4760255" lon="11.422487"><ele>506.0</ele><time>2026-04-26T13:51:57.103Z</time></trkpt><trkpt lat="43.4759106" lon="11.422422"><ele>506.0</ele><time>2026-04-26T13:51:58.11Z</time></trkpt><trkpt lat="43.4758021" lon="11.4223747"><ele>506.0</ele><time>2026-04-26T13:51:59.125Z</time></trkpt><trkpt lat="43.4756938" lon="11.4223478"><ele>506.0</ele><time>2026-04-26T13:52:00.097Z</time></trkpt><trkpt lat="43.4755792" lon="11.4223428"><ele>506.0</ele><time>2026-04-26T13:52:01.119Z</time></trkpt><trkpt lat="43.4754628" lon="11.4223685"><ele>508.75</ele><time>2026-04-26T13:52:02.103Z</time></trkpt><trkpt lat="43.475341" lon="11.4224259"><ele>511.5</ele><time>2026-04-26T13:52:03.107Z</time></trkpt><trkpt lat="43.4752168" lon="11.4225001"><ele>514.25</ele><time>2026-04-26T13:52:04.098Z</time></trkpt><trkpt lat="43.4750921" lon="11.4225684"><ele>517.0</ele><time>2026-04-26T13:52:05.094Z</time></trkpt><trkpt lat="43.4749756" lon="11.4226128"><ele>517.0</ele><time>2026-04-26T13:52:06.087Z</time></trkpt><trkpt lat="43.4748597" lon="11.4226283"><ele>517.0</ele><time>2026-04-26T13:52:07.096Z</time></trkpt><trkpt lat="43.4747394" lon="11.4226142"><ele>517.0</ele><time>2026-04-26T13:52:08.103Z</time></trkpt><trkpt lat="43.4746133" lon="11.4225793"><ele>517.0</ele><time>2026-04-26T13:52:09.122Z</time></trkpt><trkpt lat="43.4744851" lon="11.4225331"><ele>517.75</ele><time>2026-04-26T13:52:10.124Z</time></trkpt><trkpt lat="43.4743508" lon="11.422486"><ele>518.5</ele><time>2026-04-26T13:52:11.12Z</time></trkpt><trkpt lat="43.4742112" lon="11.4224462"><ele>519.25</ele><time>2026-04-26T13:52:12.123Z</time></trkpt><trkpt lat="43.4740751" lon="11.422423"><ele>520.0</ele><time>2026-04-26T13:52:13.125Z</time></trkpt><trkpt lat="43.473948" lon="11.4224023"><ele>520.0</ele><time>2026-04-26T13:52:14.106Z</time></trkpt><trkpt lat="43.473824" lon="11.422378"><ele>520.0</ele><time>2026-04-26T13:52:15.121Z</time></trkpt><trkpt lat="43.4736983" lon="11.4223428"><ele>520.0</ele><time>2026-04-26T13:52:16.114Z</time></trkpt><trkpt lat="43.4735671" lon="11.4222964"><ele>520.0</ele><time>2026-04-26T13:52:17.117Z</time></trkpt><trkpt lat="43.4734361" lon="11.4222432"><ele>519.5</ele><time>2026-04-26T13:52:18.106Z</time></trkpt><trkpt lat="43.4733126" lon="11.4221885"><ele>519.0</ele><time>2026-04-26T13:52:19.124Z</time></trkpt><trkpt lat="43.4732012" lon="11.4221275"><ele>518.5</ele><time>2026-04-26T13:52:20.121Z</time></trkpt><trkpt lat="43.4730968" lon="11.4220507"><ele>518.0</ele><time>2026-04-26T13:52:21.1Z</time></trkpt><trkpt lat="43.4729896" lon="11.4219456"><ele>517.75</ele><time>2026-04-26T13:52:22.102Z</time></trkpt><trkpt lat="43.4728794" lon="11.4218169"><ele>517.5</ele><time>2026-04-26T13:52:23.112Z</time></trkpt><trkpt lat="43.4727627" lon="11.421681"><ele>517.25</ele><time>2026-04-26T13:52:24.114Z</time></trkpt><trkpt lat="43.4726482" lon="11.4215586"><ele>517.0</ele><time>2026-04-26T13:52:25.104Z</time></trkpt><trkpt lat="43.4725402" lon="11.4214608"><ele>517.0</ele><time>2026-04-26T13:52:26.107Z</time></trkpt><trkpt lat="43.4724307" lon="11.4213801"><ele>517.0</ele><time>2026-04-26T13:52:27.107Z</time></trkpt><trkpt lat="43.4723102" lon="11.4213029"><ele>517.0</ele><time>2026-04-26T13:52:28.099Z</time></trkpt><trkpt lat="43.4721816" lon="11.4212346"><ele>517.0</ele><time>2026-04-26T13:52:29.095Z</time></trkpt><trkpt lat="43.4720663" lon="11.4211819"><ele>518.0</ele><time>2026-04-26T13:52:30.084Z</time></trkpt><trkpt lat="43.4719681" lon="11.4211343"><ele>519.0</ele><time>2026-04-26T13:52:31.096Z</time></trkpt><trkpt lat="43.471881" lon="11.421073"><ele>520.0</ele><time>2026-04-26T13:52:32.1Z</time></trkpt><trkpt lat="43.4717981" lon="11.420989"><ele>521.0</ele><time>2026-04-26T13:52:33.103Z</time></trkpt><trkpt lat="43.4717177" lon="11.4208874"><ele>522.0</ele><time>2026-04-26T13:52:34.102Z</time></trkpt><trkpt lat="43.4716367" lon="11.4207824"><ele>522.0</ele><time>2026-04-26T13:52:35.11Z</time></trkpt><trkpt lat="43.4715558" lon="11.4206765"><ele>522.0</ele><time>2026-04-26T13:52:36.096Z</time></trkpt><trkpt lat="43.4714793" lon="11.4205663"><ele>522.0</ele><time>2026-04-26T13:52:37.101Z</time></trkpt><trkpt lat="43.4714127" lon="11.4204555"><ele>522.0</ele><time>2026-04-26T13:52:38.103Z</time></trkpt><trkpt lat="43.4713574" lon="11.420354"><ele>522.0</ele><time>2026-04-26T13:52:39.102Z</time></trkpt><trkpt lat="43.4713073" lon="11.4202644"><ele>520.5</ele><time>2026-04-26T13:52:40.107Z</time></trkpt><trkpt lat="43.4712572" lon="11.4201771"><ele>519.0</ele><time>2026-04-26T13:52:41.101Z</time></trkpt><trkpt lat="43.4712068" lon="11.420087"><ele>517.5</ele><time>2026-04-26T13:52:42.105Z</time></trkpt><trkpt lat="43.471157" lon="11.4199947"><ele>516.0</ele><time>2026-04-26T13:52:43.109Z</time></trkpt><trkpt lat="43.4711048" lon="11.419905"><ele>514.5</ele><time>2026-04-26T13:52:44.101Z</time></trkpt><trkpt lat="43.471052" lon="11.4198186"><ele>513.0</ele><time>2026-04-26T13:52:45.114Z</time></trkpt><trkpt lat="43.4709984" lon="11.4197341"><ele>511.59999999999997</ele><time>2026-04-26T13:52:46.106Z</time></trkpt><trkpt lat="43.4709401" lon="11.419649"><ele>510.19999999999993</ele><time>2026-04-26T13:52:47.115Z</time></trkpt><trkpt lat="43.4708774" lon="11.4195636"><ele>508.8</ele><time>2026-04-26T13:52:48.101Z</time></trkpt><trkpt lat="43.4708105" lon="11.4194701"><ele>507.4</ele><time>2026-04-26T13:52:49.103Z</time></trkpt><trkpt lat="43.4707391" lon="11.4193604"><ele>506.0</ele><time>2026-04-26T13:52:50.108Z</time></trkpt><trkpt lat="43.4706668" lon="11.4192325"><ele>506.0</ele><time>2026-04-26T13:52:51.107Z</time></trkpt><trkpt lat="43.4705959" lon="11.4190924"><ele>506.0</ele><time>2026-04-26T13:52:52.11Z</time></trkpt><trkpt lat="43.470528" lon="11.4189565"><ele>506.0</ele><time>2026-04-26T13:52:53.099Z</time></trkpt><trkpt lat="43.4704615" lon="11.4188309"><ele>506.0</ele><time>2026-04-26T13:52:54.101Z</time></trkpt><trkpt lat="43.4703984" lon="11.4187218"><ele>505.20000000000005</ele><time>2026-04-26T13:52:55.103Z</time></trkpt><trkpt lat="43.4703413" lon="11.4186311"><ele>504.40000000000003</ele><time>2026-04-26T13:52:56.087Z</time></trkpt><trkpt lat="43.470289" lon="11.4185652"><ele>503.6</ele><time>2026-04-26T13:52:57.101Z</time></trkpt><trkpt lat="43.4701915" lon="11.4185379"><ele>502.8</ele><time>2026-04-26T13:52:59.104Z</time></trkpt><trkpt lat="43.4701228" lon="11.418618"><ele>502.0</ele><time>2026-04-26T13:53:01.102Z</time></trkpt><trkpt lat="43.4700485" lon="11.4187586"><ele>502.40000000000003</ele><time>2026-04-26T13:53:03.109Z</time></trkpt><trkpt lat="43.4699939" lon="11.4188567"><ele>502.80000000000007</ele><time>2026-04-26T13:53:04.115Z</time></trkpt><trkpt lat="43.4699286" lon="11.4189644"><ele>503.2</ele><time>2026-04-26T13:53:05.104Z</time></trkpt><trkpt lat="43.4698524" lon="11.4190855"><ele>503.6</ele><time>2026-04-26T13:53:06.11Z</time></trkpt><trkpt lat="43.4697792" lon="11.4192068"><ele>504.0</ele><time>2026-04-26T13:53:07.113Z</time></trkpt><trkpt lat="43.4697219" lon="11.4193189"><ele>504.0</ele><time>2026-04-26T13:53:08.112Z</time></trkpt><trkpt lat="43.4696896" lon="11.4194303"><ele>504.0</ele><time>2026-04-26T13:53:09.102Z</time></trkpt><trkpt lat="43.469687" lon="11.4195542"><ele>504.0</ele><time>2026-04-26T13:53:10.108Z</time></trkpt><trkpt lat="43.469714" lon="11.4196934"><ele>504.0</ele><time>2026-04-26T13:53:11.111Z</time></trkpt><trkpt lat="43.4697687" lon="11.4198431"><ele>504.0</ele><time>2026-04-26T13:53:12.102Z</time></trkpt><trkpt lat="43.4698437" lon="11.4199983"><ele>503.0</ele><time>2026-04-26T13:53:13.111Z</time></trkpt><trkpt lat="43.4699316" lon="11.4201657"><ele>502.0</ele><time>2026-04-26T13:53:14.111Z</time></trkpt><trkpt lat="43.4700232" lon="11.4203435"><ele>501.0</ele><time>2026-04-26T13:53:15.103Z</time></trkpt><trkpt lat="43.4701092" lon="11.4205186"><ele>498.25</ele><time>2026-04-26T13:53:16.109Z</time></trkpt><trkpt lat="43.4701886" lon="11.4206835"><ele>495.5</ele><time>2026-04-26T13:53:17.097Z</time></trkpt><trkpt lat="43.4702596" lon="11.420837"><ele>492.75</ele><time>2026-04-26T13:53:18.101Z</time></trkpt><trkpt lat="43.4703139" lon="11.4209834"><ele>490.0</ele><time>2026-04-26T13:53:19.102Z</time></trkpt><trkpt lat="43.4703438" lon="11.4211285"><ele>490.0</ele><time>2026-04-26T13:53:20.109Z</time></trkpt><trkpt lat="43.4703377" lon="11.4212729"><ele>490.0</ele><time>2026-04-26T13:53:21.113Z</time></trkpt><trkpt lat="43.4702896" lon="11.4214078"><ele>490.0</ele><time>2026-04-26T13:53:22.105Z</time></trkpt><trkpt lat="43.4702001" lon="11.4215195"><ele>490.0</ele><time>2026-04-26T13:53:23.109Z</time></trkpt><trkpt lat="43.4700814" lon="11.4216111"><ele>491.0</ele><time>2026-04-26T13:53:24.114Z</time></trkpt><trkpt lat="43.4699459" lon="11.4216974"><ele>492.0</ele><time>2026-04-26T13:53:25.126Z</time></trkpt><trkpt lat="43.4698039" lon="11.4217918"><ele>493.0</ele><time>2026-04-26T13:53:26.115Z</time></trkpt><trkpt lat="43.4696509" lon="11.4219032"><ele>492.0</ele><time>2026-04-26T13:53:27.114Z</time></trkpt><trkpt lat="43.4694884" lon="11.4220246"><ele>491.0</ele><time>2026-04-26T13:53:28.108Z</time></trkpt><trkpt lat="43.4693201" lon="11.4221505"><ele>490.0</ele><time>2026-04-26T13:53:29.106Z</time></trkpt><trkpt lat="43.4691468" lon="11.4222795"><ele>490.0</ele><time>2026-04-26T13:53:30.11Z</time></trkpt><trkpt lat="43.4689717" lon="11.42241"><ele>490.0</ele><time>2026-04-26T13:53:31.121Z</time></trkpt><trkpt lat="43.4688037" lon="11.4225366"><ele>490.0</ele><time>2026-04-26T13:53:32.109Z</time></trkpt><trkpt lat="43.4686432" lon="11.4226601"><ele>485.33333333333337</ele><time>2026-04-26T13:53:33.107Z</time></trkpt><trkpt lat="43.4684934" lon="11.4227758"><ele>480.66666666666663</ele><time>2026-04-26T13:53:34.112Z</time></trkpt><trkpt lat="43.4683527" lon="11.4228761"><ele>476.0</ele><time>2026-04-26T13:53:35.117Z</time></trkpt><trkpt lat="43.4682214" lon="11.4229598"><ele>476.75</ele><time>2026-04-26T13:53:36.119Z</time></trkpt><trkpt lat="43.4680974" lon="11.423027"><ele>477.5</ele><time>2026-04-26T13:53:37.104Z</time></trkpt><trkpt lat="43.4679775" lon="11.4230705"><ele>478.25</ele><time>2026-04-26T13:53:38.105Z</time></trkpt><trkpt lat="43.467867" lon="11.4230918"><ele>479.0</ele><time>2026-04-26T13:53:39.123Z</time></trkpt><trkpt lat="43.4677708" lon="11.4231152"><ele>479.0</ele><time>2026-04-26T13:53:40.107Z</time></trkpt><trkpt lat="43.4676972" lon="11.4231709"><ele>479.0</ele><time>2026-04-26T13:53:41.105Z</time></trkpt><trkpt lat="43.4676553" lon="11.423269"><ele>479.0</ele><time>2026-04-26T13:53:42.095Z</time></trkpt><trkpt lat="43.4676488" lon="11.4233919"><ele>479.0</ele><time>2026-04-26T13:53:43.102Z</time></trkpt><trkpt lat="43.4676815" lon="11.4235125"><ele>479.0</ele><time>2026-04-26T13:53:44.105Z</time></trkpt><trkpt lat="43.4677535" lon="11.4236183"><ele>479.0</ele><time>2026-04-26T13:53:45.094Z</time></trkpt><trkpt lat="43.4678634" lon="11.423717"><ele>479.0</ele><time>2026-04-26T13:53:46.109Z</time></trkpt><trkpt lat="43.467992" lon="11.4238219"><ele>479.0</ele><time>2026-04-26T13:53:47.112Z</time></trkpt><trkpt lat="43.4681149" lon="11.4239304"><ele>479.0</ele><time>2026-04-26T13:53:48.122Z</time></trkpt><trkpt lat="43.4682322" lon="11.4240344"><ele>476.5</ele><time>2026-04-26T13:53:49.131Z</time></trkpt><trkpt lat="43.4683412" lon="11.4241334"><ele>474.0</ele><time>2026-04-26T13:53:50.11Z</time></trkpt><trkpt lat="43.4684501" lon="11.4242224"><ele>471.5</ele><time>2026-04-26T13:53:51.111Z</time></trkpt><trkpt lat="43.4685738" lon="11.4242879"><ele>469.0</ele><time>2026-04-26T13:53:52.125Z</time></trkpt><trkpt lat="43.4687213" lon="11.4243246"><ele>468.33333333333337</ele><time>2026-04-26T13:53:53.104Z</time></trkpt><trkpt lat="43.4688828" lon="11.4243473"><ele>467.66666666666663</ele><time>2026-04-26T13:53:54.112Z</time></trkpt><trkpt lat="43.4690377" lon="11.4243683"><ele>467.0</ele><time>2026-04-26T13:53:55.118Z</time></trkpt><trkpt lat="43.4691823" lon="11.4243912"><ele>467.0</ele><time>2026-04-26T13:53:56.105Z</time></trkpt><trkpt lat="43.4693171" lon="11.4244197"><ele>467.0</ele><time>2026-04-26T13:53:57.105Z</time></trkpt><trkpt lat="43.4694388" lon="11.4244588"><ele>467.0</ele><time>2026-04-26T13:53:58.104Z</time></trkpt><trkpt lat="43.4695468" lon="11.4245142"><ele>467.0</ele><time>2026-04-26T13:53:59.096Z</time></trkpt><trkpt lat="43.4696434" lon="11.4245956"><ele>465.25</ele><time>2026-04-26T13:54:00.101Z</time></trkpt><trkpt lat="43.4697261" lon="11.4246975"><ele>463.5</ele><time>2026-04-26T13:54:01.102Z</time></trkpt><trkpt lat="43.4697916" lon="11.4248126"><ele>461.75</ele><time>2026-04-26T13:54:02.088Z</time></trkpt><trkpt lat="43.4698329" lon="11.4249598"><ele>460.0</ele><time>2026-04-26T13:54:03.09Z</time></trkpt><trkpt lat="43.4698522" lon="11.4251441"><ele>460.0</ele><time>2026-04-26T13:54:04.098Z</time></trkpt><trkpt lat="43.4698655" lon="11.4253561"><ele>460.0</ele><time>2026-04-26T13:54:05.101Z</time></trkpt><trkpt lat="43.4698803" lon="11.4255773"><ele>460.0</ele><time>2026-04-26T13:54:06.086Z</time></trkpt><trkpt lat="43.469894" lon="11.4257944"><ele>456.0</ele><time>2026-04-26T13:54:07.089Z</time></trkpt><trkpt lat="43.4699022" lon="11.4260034"><ele>452.0</ele><time>2026-04-26T13:54:08.078Z</time></trkpt><trkpt lat="43.4699048" lon="11.4262096"><ele>448.0</ele><time>2026-04-26T13:54:09.078Z</time></trkpt><trkpt lat="43.4698958" lon="11.4264144"><ele>446.0</ele><time>2026-04-26T13:54:10.094Z</time></trkpt><trkpt lat="43.4698743" lon="11.4266182"><ele>444.0</ele><time>2026-04-26T13:54:11.097Z</time></trkpt><trkpt lat="43.4698463" lon="11.4268189"><ele>442.0</ele><time>2026-04-26T13:54:12.103Z</time></trkpt><trkpt lat="43.4698124" lon="11.427014"><ele>440.0</ele><time>2026-04-26T13:54:13.103Z</time></trkpt><trkpt lat="43.4697675" lon="11.4272056"><ele>437.3333333333333</ele><time>2026-04-26T13:54:14.109Z</time></trkpt><trkpt lat="43.4696989" lon="11.4273973"><ele>434.66666666666663</ele><time>2026-04-26T13:54:15.116Z</time></trkpt><trkpt lat="43.4696058" lon="11.4275831"><ele>432.0</ele><time>2026-04-26T13:54:16.117Z</time></trkpt><trkpt lat="43.4694943" lon="11.4277664"><ele>428.66666666666663</ele><time>2026-04-26T13:54:17.11Z</time></trkpt><trkpt lat="43.4693759" lon="11.4279529"><ele>425.3333333333333</ele><time>2026-04-26T13:54:18.108Z</time></trkpt><trkpt lat="43.4692597" lon="11.4281415"><ele>422.0</ele><time>2026-04-26T13:54:19.122Z</time></trkpt><trkpt lat="43.4691466" lon="11.4283282"><ele>421.66666666666663</ele><time>2026-04-26T13:54:20.122Z</time></trkpt><trkpt lat="43.469035" lon="11.4285122"><ele>421.33333333333337</ele><time>2026-04-26T13:54:21.128Z</time></trkpt><trkpt lat="43.4689244" lon="11.4286911"><ele>421.0</ele><time>2026-04-26T13:54:22.129Z</time></trkpt><trkpt lat="43.4688148" lon="11.4288678"><ele>416.6666666666667</ele><time>2026-04-26T13:54:23.118Z</time></trkpt><trkpt lat="43.4687042" lon="11.4290449"><ele>412.33333333333337</ele><time>2026-04-26T13:54:24.132Z</time></trkpt><trkpt lat="43.4685972" lon="11.4292118"><ele>408.0</ele><time>2026-04-26T13:54:25.135Z</time></trkpt><trkpt lat="43.4685021" lon="11.429358"><ele>408.0</ele><time>2026-04-26T13:54:26.112Z</time></trkpt><trkpt lat="43.4684163" lon="11.4294819"><ele>408.0</ele><time>2026-04-26T13:54:27.119Z</time></trkpt><trkpt lat="43.4683314" lon="11.4295825"><ele>408.0</ele><time>2026-04-26T13:54:28.099Z</time></trkpt><trkpt lat="43.4682299" lon="11.4296677"><ele>408.0</ele><time>2026-04-26T13:54:29.106Z</time></trkpt><trkpt lat="43.4681126" lon="11.4297494"><ele>406.75</ele><time>2026-04-26T13:54:30.105Z</time></trkpt><trkpt lat="43.4679857" lon="11.4298404"><ele>405.5</ele><time>2026-04-26T13:54:31.107Z</time></trkpt><trkpt lat="43.4678551" lon="11.4299367"><ele>404.25</ele><time>2026-04-26T13:54:32.091Z</time></trkpt><trkpt lat="43.4677245" lon="11.430028"><ele>403.0</ele><time>2026-04-26T13:54:33.099Z</time></trkpt><trkpt lat="43.4675959" lon="11.4301122"><ele>401.75</ele><time>2026-04-26T13:54:34.089Z</time></trkpt><trkpt lat="43.467469" lon="11.430194"><ele>400.5</ele><time>2026-04-26T13:54:35.103Z</time></trkpt><trkpt lat="43.4673471" lon="11.4302764"><ele>399.25</ele><time>2026-04-26T13:54:36.109Z</time></trkpt><trkpt lat="43.4672285" lon="11.4303593"><ele>398.0</ele><time>2026-04-26T13:54:37.113Z</time></trkpt><trkpt lat="43.4671146" lon="11.4304376"><ele>396.0</ele><time>2026-04-26T13:54:38.1Z</time></trkpt><trkpt lat="43.4670055" lon="11.430509"><ele>394.0</ele><time>2026-04-26T13:54:39.111Z</time></trkpt><trkpt lat="43.4669061" lon="11.4305704"><ele>392.0</ele><time>2026-04-26T13:54:40.111Z</time></trkpt><trkpt lat="43.4668187" lon="11.4306241"><ele>390.0</ele><time>2026-04-26T13:54:41.096Z</time></trkpt><trkpt lat="43.466744" lon="11.4306714"><ele>388.0</ele><time>2026-04-26T13:54:42.098Z</time></trkpt><trkpt lat="43.4666498" lon="11.4307588"><ele>388.0</ele><time>2026-04-26T13:54:44.116Z</time></trkpt><trkpt lat="43.4666377" lon="11.4309009"><ele>388.0</ele><time>2026-04-26T13:54:46.108Z</time></trkpt><trkpt lat="43.4666762" lon="11.4310005"><ele>388.0</ele><time>2026-04-26T13:54:47.114Z</time></trkpt><trkpt lat="43.4667434" lon="11.4311135"><ele>388.0</ele><time>2026-04-26T13:54:48.103Z</time></trkpt><trkpt lat="43.4668352" lon="11.4312183"><ele>388.0</ele><time>2026-04-26T13:54:49.103Z</time></trkpt><trkpt lat="43.4669486" lon="11.4312962"><ele>385.0</ele><time>2026-04-26T13:54:50.114Z</time></trkpt><trkpt lat="43.4670745" lon="11.4313476"><ele>382.0</ele><time>2026-04-26T13:54:51.115Z</time></trkpt><trkpt lat="43.4671997" lon="11.4313834"><ele>379.0</ele><time>2026-04-26T13:54:52.096Z</time></trkpt><trkpt lat="43.4673269" lon="11.4314325"><ele>376.0</ele><time>2026-04-26T13:54:53.099Z</time></trkpt><trkpt lat="43.4674588" lon="11.4315029"><ele>376.0</ele><time>2026-04-26T13:54:54.095Z</time></trkpt><trkpt lat="43.4675874" lon="11.4315931"><ele>376.0</ele><time>2026-04-26T13:54:55.072Z</time></trkpt><trkpt lat="43.4677096" lon="11.431699"><ele>376.0</ele><time>2026-04-26T13:54:56.092Z</time></trkpt><trkpt lat="43.4678216" lon="11.4318082"><ele>376.0</ele><time>2026-04-26T13:54:57.068Z</time></trkpt><trkpt lat="43.4679302" lon="11.4319179"><ele>375.75</ele><time>2026-04-26T13:54:58.085Z</time></trkpt><trkpt lat="43.4680319" lon="11.4320287"><ele>375.5</ele><time>2026-04-26T13:54:59.069Z</time></trkpt><trkpt lat="43.4681294" lon="11.4321447"><ele>375.25</ele><time>2026-04-26T13:55:00.085Z</time></trkpt><trkpt lat="43.4682181" lon="11.4322597"><ele>375.0</ele><time>2026-04-26T13:55:01.068Z</time></trkpt><trkpt lat="43.4682984" lon="11.4323689"><ele>372.25</ele><time>2026-04-26T13:55:02.092Z</time></trkpt><trkpt lat="43.4683691" lon="11.4324708"><ele>369.5</ele><time>2026-04-26T13:55:03.106Z</time></trkpt><trkpt lat="43.468425" lon="11.4325782"><ele>366.75</ele><time>2026-04-26T13:55:04.11Z</time></trkpt><trkpt lat="43.4684886" lon="11.4328236"><ele>364.0</ele><time>2026-04-26T13:55:06.138Z</time></trkpt><trkpt lat="43.4685138" lon="11.4329381"><ele>363.0</ele><time>2026-04-26T13:55:07.136Z</time></trkpt><trkpt lat="43.4685339" lon="11.4330261"><ele>362.0</ele><time>2026-04-26T13:55:08.124Z</time></trkpt><trkpt lat="43.4685468" lon="11.4331291"><ele>361.0</ele><time>2026-04-26T13:55:10.114Z</time></trkpt><trkpt lat="43.4684939" lon="11.4332295"><ele>360.0</ele><time>2026-04-26T13:55:13.1Z</time></trkpt><trkpt lat="43.4683907" lon="11.4332977"><ele>359.0</ele><time>2026-04-26T13:55:15.1Z</time></trkpt><trkpt lat="43.4683168" lon="11.4333366"><ele>358.0</ele><time>2026-04-26T13:55:16.092Z</time></trkpt><trkpt lat="43.4682307" lon="11.4333905"><ele>358.0</ele><time>2026-04-26T13:55:17.092Z</time></trkpt><trkpt lat="43.4681395" lon="11.4334632"><ele>358.0</ele><time>2026-04-26T13:55:18.116Z</time></trkpt><trkpt lat="43.4680511" lon="11.4335464"><ele>358.0</ele><time>2026-04-26T13:55:19.11Z</time></trkpt><trkpt lat="43.4679696" lon="11.4336301"><ele>358.0</ele><time>2026-04-26T13:55:20.118Z</time></trkpt><trkpt lat="43.4678951" lon="11.4337095"><ele>358.0</ele><time>2026-04-26T13:55:21.103Z</time></trkpt><trkpt lat="43.4678231" lon="11.4337878"><ele>357.3333333333333</ele><time>2026-04-26T13:55:22.121Z</time></trkpt><trkpt lat="43.467755" lon="11.4338626"><ele>356.66666666666663</ele><time>2026-04-26T13:55:23.099Z</time></trkpt><trkpt lat="43.4676879" lon="11.4339342"><ele>356.0</ele><time>2026-04-26T13:55:24.103Z</time></trkpt><trkpt lat="43.4676214" lon="11.4339976"><ele>355.3333333333333</ele><time>2026-04-26T13:55:25.128Z</time></trkpt><trkpt lat="43.4675582" lon="11.434052"><ele>354.6666666666667</ele><time>2026-04-26T13:55:26.112Z</time></trkpt><trkpt lat="43.4674955" lon="11.4341008"><ele>354.0</ele><time>2026-04-26T13:55:27.118Z</time></trkpt><trkpt lat="43.4674296" lon="11.4341463"><ele>354.0</ele><time>2026-04-26T13:55:28.123Z</time></trkpt><trkpt lat="43.4673546" lon="11.4341893"><ele>354.0</ele><time>2026-04-26T13:55:29.102Z</time></trkpt><trkpt lat="43.4672707" lon="11.4342278"><ele>354.0</ele><time>2026-04-26T13:55:30.11Z</time></trkpt><trkpt lat="43.4671821" lon="11.4342589"><ele>354.0</ele><time>2026-04-26T13:55:31.103Z</time></trkpt></trkseg></trk></gpx>